<?xml version="1.0" encoding="UTF-8"?>
<gpx version="1.1" creator="https://www.youtrack.es" xsi:schemaLocation="http://www.topografix.com/GPX/1/1 http://www.topografix.com/GPX/1/1/gpx.xsd http://www.garmin.com/xmlschemas/GpxExtensions/v3 http://www.garmin.com/xmlschemas/GpxExtensionsv3.xsd http://www.garmin.com/xmlschemas/TrackPointExtension/v1 http://www.garmin.com/xmlschemas/TrackPointExtensionv1.xsd" xmlns:gpxtpx="http://www.garmin.com/xmlschemas/TrackPointExtension/v1" xmlns:gpxx="http://www.garmin.com/xmlschemas/GpxExtensions/v3" xmlns:xsi="http://www.w3.org/2001/XMLSchema-instance">
  <metadata>
    <link href="https://www.youtrack.es">
      <text>YouTrack.es</text>
    </link>
    <time>2026-05-08T06:26:11Z</time>
  </metadata>
  <trk>
    <src>https://www.youtrack.es</src>
    <link href="https://www.youtrack.es/ruta/24864-massis--caderetes">
      <text>YouTrack.es</text>
    </link>
    <trkseg>
      <trkpt lat="41.841267" lon="2.826545">
        <ele>159.0</ele>
        <time>2021-08-14T13:41:27Z</time>
      </trkpt>
      <trkpt lat="41.841297" lon="2.826505">
        <ele>156.0</ele>
        <time>2021-08-14T13:41:27Z</time>
      </trkpt>
      <trkpt lat="41.8413" lon="2.826622">
        <ele>156.0</ele>
        <time>2021-08-14T13:41:30Z</time>
      </trkpt>
      <trkpt lat="41.841302" lon="2.826727">
        <ele>156.0</ele>
        <time>2021-08-14T13:41:34Z</time>
      </trkpt>
      <trkpt lat="41.841315" lon="2.82684">
        <ele>160.0</ele>
        <time>2021-08-14T13:41:39Z</time>
      </trkpt>
      <trkpt lat="41.841302" lon="2.826945">
        <ele>160.0</ele>
        <time>2021-08-14T13:41:43Z</time>
      </trkpt>
      <trkpt lat="41.84129" lon="2.827047">
        <ele>161.0</ele>
        <time>2021-08-14T13:41:46Z</time>
      </trkpt>
      <trkpt lat="41.841277" lon="2.827142">
        <ele>162.0</ele>
        <time>2021-08-14T13:41:49Z</time>
      </trkpt>
      <trkpt lat="41.84127" lon="2.82726">
        <ele>163.0</ele>
        <time>2021-08-14T13:41:52Z</time>
      </trkpt>
      <trkpt lat="41.841265" lon="2.827392">
        <ele>162.0</ele>
        <time>2021-08-14T13:41:55Z</time>
      </trkpt>
      <trkpt lat="41.841242" lon="2.827492">
        <ele>161.0</ele>
        <time>2021-08-14T13:41:57Z</time>
      </trkpt>
      <trkpt lat="41.841205" lon="2.827595">
        <ele>159.0</ele>
        <time>2021-08-14T13:41:59Z</time>
      </trkpt>
      <trkpt lat="41.841172" lon="2.827705">
        <ele>158.0</ele>
        <time>2021-08-14T13:42:01Z</time>
      </trkpt>
      <trkpt lat="41.841145" lon="2.82782">
        <ele>158.0</ele>
        <time>2021-08-14T13:42:03Z</time>
      </trkpt>
      <trkpt lat="41.84112" lon="2.827925">
        <ele>158.0</ele>
        <time>2021-08-14T13:42:05Z</time>
      </trkpt>
      <trkpt lat="41.8411" lon="2.828022">
        <ele>157.0</ele>
        <time>2021-08-14T13:42:07Z</time>
      </trkpt>
      <trkpt lat="41.841078" lon="2.82812">
        <ele>157.0</ele>
        <time>2021-08-14T13:42:09Z</time>
      </trkpt>
      <trkpt lat="41.84106" lon="2.82822">
        <ele>157.0</ele>
        <time>2021-08-14T13:42:11Z</time>
      </trkpt>
      <trkpt lat="41.841045" lon="2.828327">
        <ele>156.0</ele>
        <time>2021-08-14T13:42:13Z</time>
      </trkpt>
      <trkpt lat="41.841032" lon="2.828425">
        <ele>156.0</ele>
        <time>2021-08-14T13:42:15Z</time>
      </trkpt>
      <trkpt lat="41.84102" lon="2.828527">
        <ele>156.0</ele>
        <time>2021-08-14T13:42:17Z</time>
      </trkpt>
      <trkpt lat="41.841" lon="2.82862">
        <ele>157.0</ele>
        <time>2021-08-14T13:42:19Z</time>
      </trkpt>
      <trkpt lat="41.840985" lon="2.82872">
        <ele>157.0</ele>
        <time>2021-08-14T13:42:21Z</time>
      </trkpt>
      <trkpt lat="41.840975" lon="2.828825">
        <ele>156.0</ele>
        <time>2021-08-14T13:42:23Z</time>
      </trkpt>
      <trkpt lat="41.840967" lon="2.828925">
        <ele>157.0</ele>
        <time>2021-08-14T13:42:25Z</time>
      </trkpt>
      <trkpt lat="41.840985" lon="2.829023">
        <ele>158.0</ele>
        <time>2021-08-14T13:42:27Z</time>
      </trkpt>
      <trkpt lat="41.840995" lon="2.829145">
        <ele>158.0</ele>
        <time>2021-08-14T13:42:30Z</time>
      </trkpt>
      <trkpt lat="41.84095" lon="2.829262">
        <ele>157.0</ele>
        <time>2021-08-14T13:42:33Z</time>
      </trkpt>
      <trkpt lat="41.84091" lon="2.82936">
        <ele>157.0</ele>
        <time>2021-08-14T13:42:36Z</time>
      </trkpt>
      <trkpt lat="41.840877" lon="2.829485">
        <ele>157.0</ele>
        <time>2021-08-14T13:42:39Z</time>
      </trkpt>
      <trkpt lat="41.840865" lon="2.829598">
        <ele>158.0</ele>
        <time>2021-08-14T13:42:42Z</time>
      </trkpt>
      <trkpt lat="41.84084" lon="2.829712">
        <ele>158.0</ele>
        <time>2021-08-14T13:42:46Z</time>
      </trkpt>
      <trkpt lat="41.840837" lon="2.82984">
        <ele>158.0</ele>
        <time>2021-08-14T13:42:50Z</time>
      </trkpt>
      <trkpt lat="41.840852" lon="2.82994">
        <ele>158.0</ele>
        <time>2021-08-14T13:42:53Z</time>
      </trkpt>
      <trkpt lat="41.84088" lon="2.83004">
        <ele>158.0</ele>
        <time>2021-08-14T13:42:58Z</time>
      </trkpt>
      <trkpt lat="41.840862" lon="2.830183">
        <ele>158.0</ele>
        <time>2021-08-14T13:43:02Z</time>
      </trkpt>
      <trkpt lat="41.840837" lon="2.830285">
        <ele>158.0</ele>
        <time>2021-08-14T13:43:04Z</time>
      </trkpt>
      <trkpt lat="41.84082" lon="2.83038">
        <ele>159.0</ele>
        <time>2021-08-14T13:43:06Z</time>
      </trkpt>
      <trkpt lat="41.840805" lon="2.830495">
        <ele>160.0</ele>
        <time>2021-08-14T13:43:09Z</time>
      </trkpt>
      <trkpt lat="41.840787" lon="2.8306">
        <ele>161.0</ele>
        <time>2021-08-14T13:43:12Z</time>
      </trkpt>
      <trkpt lat="41.840782" lon="2.8307">
        <ele>161.0</ele>
        <time>2021-08-14T13:43:16Z</time>
      </trkpt>
      <trkpt lat="41.840765" lon="2.830805">
        <ele>161.0</ele>
        <time>2021-08-14T13:43:19Z</time>
      </trkpt>
      <trkpt lat="41.840715" lon="2.830898">
        <ele>161.0</ele>
        <time>2021-08-14T13:43:22Z</time>
      </trkpt>
      <trkpt lat="41.84068" lon="2.83101">
        <ele>161.0</ele>
        <time>2021-08-14T13:43:25Z</time>
      </trkpt>
      <trkpt lat="41.840665" lon="2.831115">
        <ele>162.0</ele>
        <time>2021-08-14T13:43:28Z</time>
      </trkpt>
      <trkpt lat="41.840622" lon="2.831215">
        <ele>162.0</ele>
        <time>2021-08-14T13:43:31Z</time>
      </trkpt>
      <trkpt lat="41.84058" lon="2.83132">
        <ele>162.0</ele>
        <time>2021-08-14T13:43:34Z</time>
      </trkpt>
      <trkpt lat="41.840525" lon="2.83142">
        <ele>163.0</ele>
        <time>2021-08-14T13:43:37Z</time>
      </trkpt>
      <trkpt lat="41.840505" lon="2.83152">
        <ele>164.0</ele>
        <time>2021-08-14T13:43:40Z</time>
      </trkpt>
      <trkpt lat="41.840488" lon="2.831645">
        <ele>165.0</ele>
        <time>2021-08-14T13:43:44Z</time>
      </trkpt>
      <trkpt lat="41.840505" lon="2.83176">
        <ele>167.0</ele>
        <time>2021-08-14T13:43:49Z</time>
      </trkpt>
      <trkpt lat="41.840535" lon="2.83187">
        <ele>167.0</ele>
        <time>2021-08-14T13:43:53Z</time>
      </trkpt>
      <trkpt lat="41.84057" lon="2.831978">
        <ele>168.0</ele>
        <time>2021-08-14T13:43:56Z</time>
      </trkpt>
      <trkpt lat="41.840597" lon="2.832092">
        <ele>168.0</ele>
        <time>2021-08-14T13:43:59Z</time>
      </trkpt>
      <trkpt lat="41.840627" lon="2.83221">
        <ele>169.0</ele>
        <time>2021-08-14T13:44:03Z</time>
      </trkpt>
      <trkpt lat="41.840655" lon="2.8323">
        <ele>169.0</ele>
        <time>2021-08-14T13:44:06Z</time>
      </trkpt>
      <trkpt lat="41.840685" lon="2.83242">
        <ele>170.0</ele>
        <time>2021-08-14T13:44:10Z</time>
      </trkpt>
      <trkpt lat="41.840705" lon="2.832535">
        <ele>171.0</ele>
        <time>2021-08-14T13:44:14Z</time>
      </trkpt>
      <trkpt lat="41.840745" lon="2.832635">
        <ele>171.0</ele>
        <time>2021-08-14T13:44:18Z</time>
      </trkpt>
      <trkpt lat="41.84077" lon="2.832735">
        <ele>171.0</ele>
        <time>2021-08-14T13:44:21Z</time>
      </trkpt>
      <trkpt lat="41.8408" lon="2.83283">
        <ele>172.0</ele>
        <time>2021-08-14T13:44:24Z</time>
      </trkpt>
      <trkpt lat="41.84083" lon="2.832935">
        <ele>172.0</ele>
        <time>2021-08-14T13:44:27Z</time>
      </trkpt>
      <trkpt lat="41.84086" lon="2.83306">
        <ele>171.0</ele>
        <time>2021-08-14T13:44:30Z</time>
      </trkpt>
      <trkpt lat="41.84089" lon="2.833185">
        <ele>173.0</ele>
        <time>2021-08-14T13:44:33Z</time>
      </trkpt>
      <trkpt lat="41.84091" lon="2.83332">
        <ele>173.0</ele>
        <time>2021-08-14T13:44:36Z</time>
      </trkpt>
      <trkpt lat="41.840937" lon="2.833465">
        <ele>174.0</ele>
        <time>2021-08-14T13:44:39Z</time>
      </trkpt>
      <trkpt lat="41.84095" lon="2.83357">
        <ele>174.0</ele>
        <time>2021-08-14T13:44:41Z</time>
      </trkpt>
      <trkpt lat="41.840975" lon="2.833682">
        <ele>175.0</ele>
        <time>2021-08-14T13:44:43Z</time>
      </trkpt>
      <trkpt lat="41.84099" lon="2.833782">
        <ele>175.0</ele>
        <time>2021-08-14T13:44:45Z</time>
      </trkpt>
      <trkpt lat="41.841017" lon="2.83391">
        <ele>175.0</ele>
        <time>2021-08-14T13:44:48Z</time>
      </trkpt>
      <trkpt lat="41.841045" lon="2.834015">
        <ele>176.0</ele>
        <time>2021-08-14T13:44:51Z</time>
      </trkpt>
      <trkpt lat="41.84107" lon="2.834125">
        <ele>177.0</ele>
        <time>2021-08-14T13:44:54Z</time>
      </trkpt>
      <trkpt lat="41.841092" lon="2.83427">
        <ele>177.0</ele>
        <time>2021-08-14T13:44:57Z</time>
      </trkpt>
      <trkpt lat="41.841115" lon="2.834405">
        <ele>177.0</ele>
        <time>2021-08-14T13:45:00Z</time>
      </trkpt>
      <trkpt lat="41.841135" lon="2.834525">
        <ele>177.0</ele>
        <time>2021-08-14T13:45:03Z</time>
      </trkpt>
      <trkpt lat="41.841147" lon="2.83466">
        <ele>177.0</ele>
        <time>2021-08-14T13:45:06Z</time>
      </trkpt>
      <trkpt lat="41.84117" lon="2.834795">
        <ele>177.0</ele>
        <time>2021-08-14T13:45:09Z</time>
      </trkpt>
      <trkpt lat="41.841195" lon="2.83493">
        <ele>177.0</ele>
        <time>2021-08-14T13:45:12Z</time>
      </trkpt>
      <trkpt lat="41.841215" lon="2.835052">
        <ele>178.0</ele>
        <time>2021-08-14T13:45:15Z</time>
      </trkpt>
      <trkpt lat="41.84124" lon="2.835168">
        <ele>178.0</ele>
        <time>2021-08-14T13:45:18Z</time>
      </trkpt>
      <trkpt lat="41.841255" lon="2.835285">
        <ele>179.0</ele>
        <time>2021-08-14T13:45:21Z</time>
      </trkpt>
      <trkpt lat="41.841265" lon="2.83538">
        <ele>180.0</ele>
        <time>2021-08-14T13:45:23Z</time>
      </trkpt>
      <trkpt lat="41.841265" lon="2.835485">
        <ele>181.0</ele>
        <time>2021-08-14T13:45:25Z</time>
      </trkpt>
      <trkpt lat="41.84126" lon="2.83563">
        <ele>182.0</ele>
        <time>2021-08-14T13:45:28Z</time>
      </trkpt>
      <trkpt lat="41.841257" lon="2.83573">
        <ele>181.0</ele>
        <time>2021-08-14T13:45:30Z</time>
      </trkpt>
      <trkpt lat="41.841275" lon="2.835865">
        <ele>181.0</ele>
        <time>2021-08-14T13:45:33Z</time>
      </trkpt>
      <trkpt lat="41.841295" lon="2.83596">
        <ele>181.0</ele>
        <time>2021-08-14T13:45:35Z</time>
      </trkpt>
      <trkpt lat="41.841295" lon="2.83607">
        <ele>181.0</ele>
        <time>2021-08-14T13:45:37Z</time>
      </trkpt>
      <trkpt lat="41.841295" lon="2.83619">
        <ele>181.0</ele>
        <time>2021-08-14T13:45:39Z</time>
      </trkpt>
      <trkpt lat="41.84131" lon="2.836325">
        <ele>181.0</ele>
        <time>2021-08-14T13:45:41Z</time>
      </trkpt>
      <trkpt lat="41.84136" lon="2.83648">
        <ele>181.0</ele>
        <time>2021-08-14T13:45:43Z</time>
      </trkpt>
      <trkpt lat="41.841412" lon="2.83664">
        <ele>181.0</ele>
        <time>2021-08-14T13:45:45Z</time>
      </trkpt>
      <trkpt lat="41.841445" lon="2.836757">
        <ele>182.0</ele>
        <time>2021-08-14T13:45:47Z</time>
      </trkpt>
      <trkpt lat="41.841462" lon="2.83685">
        <ele>183.0</ele>
        <time>2021-08-14T13:45:49Z</time>
      </trkpt>
      <trkpt lat="41.84144" lon="2.83699">
        <ele>184.0</ele>
        <time>2021-08-14T13:45:52Z</time>
      </trkpt>
      <trkpt lat="41.84144" lon="2.837087">
        <ele>184.0</ele>
        <time>2021-08-14T13:45:54Z</time>
      </trkpt>
      <trkpt lat="41.84143" lon="2.837222">
        <ele>184.0</ele>
        <time>2021-08-14T13:45:57Z</time>
      </trkpt>
      <trkpt lat="41.841445" lon="2.83737">
        <ele>186.0</ele>
        <time>2021-08-14T13:46:00Z</time>
      </trkpt>
      <trkpt lat="41.84144" lon="2.837495">
        <ele>186.0</ele>
        <time>2021-08-14T13:46:02Z</time>
      </trkpt>
      <trkpt lat="41.841435" lon="2.8376">
        <ele>186.0</ele>
        <time>2021-08-14T13:46:04Z</time>
      </trkpt>
      <trkpt lat="41.841425" lon="2.83771">
        <ele>185.0</ele>
        <time>2021-08-14T13:46:06Z</time>
      </trkpt>
      <trkpt lat="41.84141" lon="2.837828">
        <ele>185.0</ele>
        <time>2021-08-14T13:46:08Z</time>
      </trkpt>
      <trkpt lat="41.8414" lon="2.837945">
        <ele>185.0</ele>
        <time>2021-08-14T13:46:10Z</time>
      </trkpt>
      <trkpt lat="41.841397" lon="2.838045">
        <ele>187.0</ele>
        <time>2021-08-14T13:46:12Z</time>
      </trkpt>
      <trkpt lat="41.841395" lon="2.838178">
        <ele>187.0</ele>
        <time>2021-08-14T13:46:15Z</time>
      </trkpt>
      <trkpt lat="41.84141" lon="2.83832">
        <ele>188.0</ele>
        <time>2021-08-14T13:46:18Z</time>
      </trkpt>
      <trkpt lat="41.84143" lon="2.838462">
        <ele>189.0</ele>
        <time>2021-08-14T13:46:21Z</time>
      </trkpt>
      <trkpt lat="41.841447" lon="2.83857">
        <ele>190.0</ele>
        <time>2021-08-14T13:46:23Z</time>
      </trkpt>
      <trkpt lat="41.84147" lon="2.838665">
        <ele>191.0</ele>
        <time>2021-08-14T13:46:25Z</time>
      </trkpt>
      <trkpt lat="41.841495" lon="2.838765">
        <ele>192.0</ele>
        <time>2021-08-14T13:46:27Z</time>
      </trkpt>
      <trkpt lat="41.841525" lon="2.83885">
        <ele>192.0</ele>
        <time>2021-08-14T13:46:29Z</time>
      </trkpt>
      <trkpt lat="41.841555" lon="2.838973">
        <ele>193.0</ele>
        <time>2021-08-14T13:46:32Z</time>
      </trkpt>
      <trkpt lat="41.841597" lon="2.839095">
        <ele>193.0</ele>
        <time>2021-08-14T13:46:35Z</time>
      </trkpt>
      <trkpt lat="41.841635" lon="2.839215">
        <ele>193.0</ele>
        <time>2021-08-14T13:46:38Z</time>
      </trkpt>
      <trkpt lat="41.841665" lon="2.839305">
        <ele>193.0</ele>
        <time>2021-08-14T13:46:40Z</time>
      </trkpt>
      <trkpt lat="41.841697" lon="2.839395">
        <ele>192.0</ele>
        <time>2021-08-14T13:46:42Z</time>
      </trkpt>
      <trkpt lat="41.841735" lon="2.839495">
        <ele>192.0</ele>
        <time>2021-08-14T13:46:44Z</time>
      </trkpt>
      <trkpt lat="41.841767" lon="2.83959">
        <ele>192.0</ele>
        <time>2021-08-14T13:46:46Z</time>
      </trkpt>
      <trkpt lat="41.841795" lon="2.839707">
        <ele>192.0</ele>
        <time>2021-08-14T13:46:48Z</time>
      </trkpt>
      <trkpt lat="41.84183" lon="2.839805">
        <ele>193.0</ele>
        <time>2021-08-14T13:46:50Z</time>
      </trkpt>
      <trkpt lat="41.841862" lon="2.83991">
        <ele>193.0</ele>
        <time>2021-08-14T13:46:52Z</time>
      </trkpt>
      <trkpt lat="41.841895" lon="2.84001">
        <ele>193.0</ele>
        <time>2021-08-14T13:46:54Z</time>
      </trkpt>
      <trkpt lat="41.84194" lon="2.840135">
        <ele>192.0</ele>
        <time>2021-08-14T13:46:57Z</time>
      </trkpt>
      <trkpt lat="41.84197" lon="2.840227">
        <ele>192.0</ele>
        <time>2021-08-14T13:46:59Z</time>
      </trkpt>
      <trkpt lat="41.842" lon="2.840315">
        <ele>193.0</ele>
        <time>2021-08-14T13:47:01Z</time>
      </trkpt>
      <trkpt lat="41.842025" lon="2.840455">
        <ele>193.0</ele>
        <time>2021-08-14T13:47:04Z</time>
      </trkpt>
      <trkpt lat="41.84203" lon="2.840588">
        <ele>194.0</ele>
        <time>2021-08-14T13:47:07Z</time>
      </trkpt>
      <trkpt lat="41.842032" lon="2.840705">
        <ele>194.0</ele>
        <time>2021-08-14T13:47:10Z</time>
      </trkpt>
      <trkpt lat="41.842042" lon="2.840825">
        <ele>193.0</ele>
        <time>2021-08-14T13:47:13Z</time>
      </trkpt>
      <trkpt lat="41.842037" lon="2.840922">
        <ele>193.0</ele>
        <time>2021-08-14T13:47:15Z</time>
      </trkpt>
      <trkpt lat="41.842032" lon="2.841025">
        <ele>192.0</ele>
        <time>2021-08-14T13:47:17Z</time>
      </trkpt>
      <trkpt lat="41.842007" lon="2.841155">
        <ele>191.0</ele>
        <time>2021-08-14T13:47:20Z</time>
      </trkpt>
      <trkpt lat="41.842" lon="2.84127">
        <ele>191.0</ele>
        <time>2021-08-14T13:47:24Z</time>
      </trkpt>
      <trkpt lat="41.841992" lon="2.841375">
        <ele>190.0</ele>
        <time>2021-08-14T13:47:27Z</time>
      </trkpt>
      <trkpt lat="41.84198" lon="2.841492">
        <ele>191.0</ele>
        <time>2021-08-14T13:47:30Z</time>
      </trkpt>
      <trkpt lat="41.84197" lon="2.8416">
        <ele>192.0</ele>
        <time>2021-08-14T13:47:33Z</time>
      </trkpt>
      <trkpt lat="41.84196" lon="2.84172">
        <ele>194.0</ele>
        <time>2021-08-14T13:47:36Z</time>
      </trkpt>
      <trkpt lat="41.84195" lon="2.841868">
        <ele>195.0</ele>
        <time>2021-08-14T13:47:39Z</time>
      </trkpt>
      <trkpt lat="41.84194" lon="2.841975">
        <ele>195.0</ele>
        <time>2021-08-14T13:47:41Z</time>
      </trkpt>
      <trkpt lat="41.84193" lon="2.84208">
        <ele>195.0</ele>
        <time>2021-08-14T13:47:43Z</time>
      </trkpt>
      <trkpt lat="41.841905" lon="2.84219">
        <ele>196.0</ele>
        <time>2021-08-14T13:47:45Z</time>
      </trkpt>
      <trkpt lat="41.84188" lon="2.842295">
        <ele>196.0</ele>
        <time>2021-08-14T13:47:47Z</time>
      </trkpt>
      <trkpt lat="41.84186" lon="2.842417">
        <ele>196.0</ele>
        <time>2021-08-14T13:47:50Z</time>
      </trkpt>
      <trkpt lat="41.841842" lon="2.842537">
        <ele>195.0</ele>
        <time>2021-08-14T13:47:53Z</time>
      </trkpt>
      <trkpt lat="41.841845" lon="2.842658">
        <ele>196.0</ele>
        <time>2021-08-14T13:47:56Z</time>
      </trkpt>
      <trkpt lat="41.841852" lon="2.842775">
        <ele>196.0</ele>
        <time>2021-08-14T13:47:59Z</time>
      </trkpt>
      <trkpt lat="41.841837" lon="2.842905">
        <ele>196.0</ele>
        <time>2021-08-14T13:48:02Z</time>
      </trkpt>
      <trkpt lat="41.841835" lon="2.84305">
        <ele>196.0</ele>
        <time>2021-08-14T13:48:05Z</time>
      </trkpt>
      <trkpt lat="41.841842" lon="2.84316">
        <ele>196.0</ele>
        <time>2021-08-14T13:48:08Z</time>
      </trkpt>
      <trkpt lat="41.84185" lon="2.843288">
        <ele>195.0</ele>
        <time>2021-08-14T13:48:11Z</time>
      </trkpt>
      <trkpt lat="41.841855" lon="2.843405">
        <ele>194.0</ele>
        <time>2021-08-14T13:48:14Z</time>
      </trkpt>
      <trkpt lat="41.84188" lon="2.84352">
        <ele>194.0</ele>
        <time>2021-08-14T13:48:17Z</time>
      </trkpt>
      <trkpt lat="41.841875" lon="2.84365">
        <ele>193.0</ele>
        <time>2021-08-14T13:48:20Z</time>
      </trkpt>
      <trkpt lat="41.841855" lon="2.843767">
        <ele>193.0</ele>
        <time>2021-08-14T13:48:23Z</time>
      </trkpt>
      <trkpt lat="41.841857" lon="2.843895">
        <ele>192.0</ele>
        <time>2021-08-14T13:48:26Z</time>
      </trkpt>
      <trkpt lat="41.841882" lon="2.84399">
        <ele>192.0</ele>
        <time>2021-08-14T13:48:28Z</time>
      </trkpt>
      <trkpt lat="41.841902" lon="2.8441">
        <ele>191.0</ele>
        <time>2021-08-14T13:48:30Z</time>
      </trkpt>
      <trkpt lat="41.841923" lon="2.84422">
        <ele>191.0</ele>
        <time>2021-08-14T13:48:32Z</time>
      </trkpt>
      <trkpt lat="41.84194" lon="2.844335">
        <ele>190.0</ele>
        <time>2021-08-14T13:48:34Z</time>
      </trkpt>
      <trkpt lat="41.841965" lon="2.844458">
        <ele>189.0</ele>
        <time>2021-08-14T13:48:36Z</time>
      </trkpt>
      <trkpt lat="41.84199" lon="2.84459">
        <ele>189.0</ele>
        <time>2021-08-14T13:48:38Z</time>
      </trkpt>
      <trkpt lat="41.842032" lon="2.84476">
        <ele>186.0</ele>
        <time>2021-08-14T13:48:40Z</time>
      </trkpt>
      <trkpt lat="41.842075" lon="2.844928">
        <ele>186.0</ele>
        <time>2021-08-14T13:48:42Z</time>
      </trkpt>
      <trkpt lat="41.84212" lon="2.8451">
        <ele>186.0</ele>
        <time>2021-08-14T13:48:44Z</time>
      </trkpt>
      <trkpt lat="41.84216" lon="2.84527">
        <ele>186.0</ele>
        <time>2021-08-14T13:48:46Z</time>
      </trkpt>
      <trkpt lat="41.84219" lon="2.845443">
        <ele>186.0</ele>
        <time>2021-08-14T13:48:48Z</time>
      </trkpt>
      <trkpt lat="41.842212" lon="2.845613">
        <ele>188.0</ele>
        <time>2021-08-14T13:48:50Z</time>
      </trkpt>
      <trkpt lat="41.842237" lon="2.845792">
        <ele>188.0</ele>
        <time>2021-08-14T13:48:52Z</time>
      </trkpt>
      <trkpt lat="41.84227" lon="2.845973">
        <ele>189.0</ele>
        <time>2021-08-14T13:48:54Z</time>
      </trkpt>
      <trkpt lat="41.842285" lon="2.84607">
        <ele>189.0</ele>
        <time>2021-08-14T13:48:55Z</time>
      </trkpt>
      <trkpt lat="41.84233" lon="2.846238">
        <ele>189.0</ele>
        <time>2021-08-14T13:48:57Z</time>
      </trkpt>
      <trkpt lat="41.842395" lon="2.84641">
        <ele>190.0</ele>
        <time>2021-08-14T13:48:59Z</time>
      </trkpt>
      <trkpt lat="41.842462" lon="2.846575">
        <ele>191.0</ele>
        <time>2021-08-14T13:49:01Z</time>
      </trkpt>
      <trkpt lat="41.842515" lon="2.84672">
        <ele>190.0</ele>
        <time>2021-08-14T13:49:03Z</time>
      </trkpt>
      <trkpt lat="41.842555" lon="2.84687">
        <ele>190.0</ele>
        <time>2021-08-14T13:49:05Z</time>
      </trkpt>
      <trkpt lat="41.842585" lon="2.84702">
        <ele>191.0</ele>
        <time>2021-08-14T13:49:07Z</time>
      </trkpt>
      <trkpt lat="41.842647" lon="2.847175">
        <ele>191.0</ele>
        <time>2021-08-14T13:49:09Z</time>
      </trkpt>
      <trkpt lat="41.842702" lon="2.84734">
        <ele>191.0</ele>
        <time>2021-08-14T13:49:11Z</time>
      </trkpt>
      <trkpt lat="41.842748" lon="2.847515">
        <ele>191.0</ele>
        <time>2021-08-14T13:49:13Z</time>
      </trkpt>
      <trkpt lat="41.8428" lon="2.84769">
        <ele>192.0</ele>
        <time>2021-08-14T13:49:15Z</time>
      </trkpt>
      <trkpt lat="41.84285" lon="2.847865">
        <ele>192.0</ele>
        <time>2021-08-14T13:49:17Z</time>
      </trkpt>
      <trkpt lat="41.8429" lon="2.848032">
        <ele>193.0</ele>
        <time>2021-08-14T13:49:19Z</time>
      </trkpt>
      <trkpt lat="41.842935" lon="2.848185">
        <ele>193.0</ele>
        <time>2021-08-14T13:49:21Z</time>
      </trkpt>
      <trkpt lat="41.842942" lon="2.84834">
        <ele>193.0</ele>
        <time>2021-08-14T13:49:23Z</time>
      </trkpt>
      <trkpt lat="41.84292" lon="2.848477">
        <ele>193.0</ele>
        <time>2021-08-14T13:49:25Z</time>
      </trkpt>
      <trkpt lat="41.84286" lon="2.848692">
        <ele>192.0</ele>
        <time>2021-08-14T13:49:27Z</time>
      </trkpt>
      <trkpt lat="41.842815" lon="2.848858">
        <ele>191.0</ele>
        <time>2021-08-14T13:49:29Z</time>
      </trkpt>
      <trkpt lat="41.84278" lon="2.849032">
        <ele>191.0</ele>
        <time>2021-08-14T13:49:31Z</time>
      </trkpt>
      <trkpt lat="41.842785" lon="2.84923">
        <ele>189.0</ele>
        <time>2021-08-14T13:49:33Z</time>
      </trkpt>
      <trkpt lat="41.842775" lon="2.849355">
        <ele>190.0</ele>
        <time>2021-08-14T13:49:34Z</time>
      </trkpt>
      <trkpt lat="41.842777" lon="2.84946">
        <ele>189.0</ele>
        <time>2021-08-14T13:49:35Z</time>
      </trkpt>
      <trkpt lat="41.842782" lon="2.849557">
        <ele>189.0</ele>
        <time>2021-08-14T13:49:36Z</time>
      </trkpt>
      <trkpt lat="41.84278" lon="2.849737">
        <ele>188.0</ele>
        <time>2021-08-14T13:49:38Z</time>
      </trkpt>
      <trkpt lat="41.84275" lon="2.849875">
        <ele>187.0</ele>
        <time>2021-08-14T13:49:40Z</time>
      </trkpt>
      <trkpt lat="41.8427" lon="2.849962">
        <ele>183.0</ele>
        <time>2021-08-14T13:49:44Z</time>
      </trkpt>
      <trkpt lat="41.84268" lon="2.85005">
        <ele>179.0</ele>
        <time>2021-08-14T13:49:51Z</time>
      </trkpt>
      <trkpt lat="41.84268" lon="2.850055">
        <ele>178.0</ele>
        <time>2021-08-14T13:49:58Z</time>
      </trkpt>
      <trkpt lat="41.842682" lon="2.85016">
        <ele>177.0</ele>
        <time>2021-08-14T13:50:03Z</time>
      </trkpt>
      <trkpt lat="41.8427" lon="2.850287">
        <ele>177.0</ele>
        <time>2021-08-14T13:50:06Z</time>
      </trkpt>
      <trkpt lat="41.842725" lon="2.850415">
        <ele>177.0</ele>
        <time>2021-08-14T13:50:09Z</time>
      </trkpt>
      <trkpt lat="41.842742" lon="2.85052">
        <ele>178.0</ele>
        <time>2021-08-14T13:50:11Z</time>
      </trkpt>
      <trkpt lat="41.842762" lon="2.85063">
        <ele>178.0</ele>
        <time>2021-08-14T13:50:13Z</time>
      </trkpt>
      <trkpt lat="41.842772" lon="2.850728">
        <ele>178.0</ele>
        <time>2021-08-14T13:50:15Z</time>
      </trkpt>
      <trkpt lat="41.842792" lon="2.850852">
        <ele>178.0</ele>
        <time>2021-08-14T13:50:17Z</time>
      </trkpt>
      <trkpt lat="41.842815" lon="2.850985">
        <ele>178.0</ele>
        <time>2021-08-14T13:50:19Z</time>
      </trkpt>
      <trkpt lat="41.842837" lon="2.851127">
        <ele>178.0</ele>
        <time>2021-08-14T13:50:21Z</time>
      </trkpt>
      <trkpt lat="41.842855" lon="2.85128">
        <ele>178.0</ele>
        <time>2021-08-14T13:50:23Z</time>
      </trkpt>
      <trkpt lat="41.84287" lon="2.851425">
        <ele>179.0</ele>
        <time>2021-08-14T13:50:25Z</time>
      </trkpt>
      <trkpt lat="41.84289" lon="2.85158">
        <ele>178.0</ele>
        <time>2021-08-14T13:50:27Z</time>
      </trkpt>
      <trkpt lat="41.84287" lon="2.851712">
        <ele>177.0</ele>
        <time>2021-08-14T13:50:29Z</time>
      </trkpt>
      <trkpt lat="41.842827" lon="2.85185">
        <ele>175.0</ele>
        <time>2021-08-14T13:50:31Z</time>
      </trkpt>
      <trkpt lat="41.842787" lon="2.851995">
        <ele>173.0</ele>
        <time>2021-08-14T13:50:33Z</time>
      </trkpt>
      <trkpt lat="41.84275" lon="2.85214">
        <ele>170.0</ele>
        <time>2021-08-14T13:50:35Z</time>
      </trkpt>
      <trkpt lat="41.842715" lon="2.85228">
        <ele>168.0</ele>
        <time>2021-08-14T13:50:37Z</time>
      </trkpt>
      <trkpt lat="41.842685" lon="2.852422">
        <ele>166.0</ele>
        <time>2021-08-14T13:50:39Z</time>
      </trkpt>
      <trkpt lat="41.84265" lon="2.85256">
        <ele>165.0</ele>
        <time>2021-08-14T13:50:41Z</time>
      </trkpt>
      <trkpt lat="41.842625" lon="2.852692">
        <ele>163.0</ele>
        <time>2021-08-14T13:50:43Z</time>
      </trkpt>
      <trkpt lat="41.842593" lon="2.852815">
        <ele>161.0</ele>
        <time>2021-08-14T13:50:45Z</time>
      </trkpt>
      <trkpt lat="41.84257" lon="2.852955">
        <ele>159.0</ele>
        <time>2021-08-14T13:50:47Z</time>
      </trkpt>
      <trkpt lat="41.84254" lon="2.853092">
        <ele>158.0</ele>
        <time>2021-08-14T13:50:49Z</time>
      </trkpt>
      <trkpt lat="41.84251" lon="2.853225">
        <ele>157.0</ele>
        <time>2021-08-14T13:50:51Z</time>
      </trkpt>
      <trkpt lat="41.84249" lon="2.853355">
        <ele>156.0</ele>
        <time>2021-08-14T13:50:53Z</time>
      </trkpt>
      <trkpt lat="41.842465" lon="2.85349">
        <ele>154.0</ele>
        <time>2021-08-14T13:50:55Z</time>
      </trkpt>
      <trkpt lat="41.842457" lon="2.853593">
        <ele>153.0</ele>
        <time>2021-08-14T13:50:57Z</time>
      </trkpt>
      <trkpt lat="41.84245" lon="2.85374">
        <ele>152.0</ele>
        <time>2021-08-14T13:51:00Z</time>
      </trkpt>
      <trkpt lat="41.842455" lon="2.85386">
        <ele>153.0</ele>
        <time>2021-08-14T13:51:03Z</time>
      </trkpt>
      <trkpt lat="41.842495" lon="2.853958">
        <ele>152.0</ele>
        <time>2021-08-14T13:51:07Z</time>
      </trkpt>
      <trkpt lat="41.84255" lon="2.854035">
        <ele>152.0</ele>
        <time>2021-08-14T13:51:10Z</time>
      </trkpt>
      <trkpt lat="41.84262" lon="2.854068">
        <ele>152.0</ele>
        <time>2021-08-14T13:51:12Z</time>
      </trkpt>
      <trkpt lat="41.842692" lon="2.854127">
        <ele>152.0</ele>
        <time>2021-08-14T13:51:14Z</time>
      </trkpt>
      <trkpt lat="41.842772" lon="2.854185">
        <ele>152.0</ele>
        <time>2021-08-14T13:51:16Z</time>
      </trkpt>
      <trkpt lat="41.84286" lon="2.854237">
        <ele>151.0</ele>
        <time>2021-08-14T13:51:18Z</time>
      </trkpt>
      <trkpt lat="41.84296" lon="2.854295">
        <ele>151.0</ele>
        <time>2021-08-14T13:51:20Z</time>
      </trkpt>
      <trkpt lat="41.843055" lon="2.85435">
        <ele>151.0</ele>
        <time>2021-08-14T13:51:22Z</time>
      </trkpt>
      <trkpt lat="41.84315" lon="2.854418">
        <ele>151.0</ele>
        <time>2021-08-14T13:51:24Z</time>
      </trkpt>
      <trkpt lat="41.84324" lon="2.854485">
        <ele>151.0</ele>
        <time>2021-08-14T13:51:26Z</time>
      </trkpt>
      <trkpt lat="41.843322" lon="2.854565">
        <ele>151.0</ele>
        <time>2021-08-14T13:51:28Z</time>
      </trkpt>
      <trkpt lat="41.84341" lon="2.854645">
        <ele>151.0</ele>
        <time>2021-08-14T13:51:30Z</time>
      </trkpt>
      <trkpt lat="41.843497" lon="2.854725">
        <ele>152.0</ele>
        <time>2021-08-14T13:51:32Z</time>
      </trkpt>
      <trkpt lat="41.84357" lon="2.854815">
        <ele>151.0</ele>
        <time>2021-08-14T13:51:34Z</time>
      </trkpt>
      <trkpt lat="41.84364" lon="2.8549">
        <ele>151.0</ele>
        <time>2021-08-14T13:51:36Z</time>
      </trkpt>
      <trkpt lat="41.843705" lon="2.854983">
        <ele>151.0</ele>
        <time>2021-08-14T13:51:38Z</time>
      </trkpt>
      <trkpt lat="41.843775" lon="2.85506">
        <ele>150.0</ele>
        <time>2021-08-14T13:51:40Z</time>
      </trkpt>
      <trkpt lat="41.843845" lon="2.855135">
        <ele>150.0</ele>
        <time>2021-08-14T13:51:42Z</time>
      </trkpt>
      <trkpt lat="41.843935" lon="2.85522">
        <ele>150.0</ele>
        <time>2021-08-14T13:51:44Z</time>
      </trkpt>
      <trkpt lat="41.844007" lon="2.85529">
        <ele>149.0</ele>
        <time>2021-08-14T13:51:46Z</time>
      </trkpt>
      <trkpt lat="41.844075" lon="2.85537">
        <ele>149.0</ele>
        <time>2021-08-14T13:51:48Z</time>
      </trkpt>
      <trkpt lat="41.84416" lon="2.85545">
        <ele>149.0</ele>
        <time>2021-08-14T13:51:50Z</time>
      </trkpt>
      <trkpt lat="41.84425" lon="2.855525">
        <ele>149.0</ele>
        <time>2021-08-14T13:51:52Z</time>
      </trkpt>
      <trkpt lat="41.84434" lon="2.85561">
        <ele>149.0</ele>
        <time>2021-08-14T13:51:54Z</time>
      </trkpt>
      <trkpt lat="41.844435" lon="2.85569">
        <ele>150.0</ele>
        <time>2021-08-14T13:51:56Z</time>
      </trkpt>
      <trkpt lat="41.84452" lon="2.85577">
        <ele>151.0</ele>
        <time>2021-08-14T13:51:58Z</time>
      </trkpt>
      <trkpt lat="41.84461" lon="2.855843">
        <ele>151.0</ele>
        <time>2021-08-14T13:52:00Z</time>
      </trkpt>
      <trkpt lat="41.8447" lon="2.85592">
        <ele>152.0</ele>
        <time>2021-08-14T13:52:02Z</time>
      </trkpt>
      <trkpt lat="41.844792" lon="2.85599">
        <ele>152.0</ele>
        <time>2021-08-14T13:52:04Z</time>
      </trkpt>
      <trkpt lat="41.844895" lon="2.856042">
        <ele>152.0</ele>
        <time>2021-08-14T13:52:06Z</time>
      </trkpt>
      <trkpt lat="41.845005" lon="2.856065">
        <ele>152.0</ele>
        <time>2021-08-14T13:52:08Z</time>
      </trkpt>
      <trkpt lat="41.845117" lon="2.85607">
        <ele>152.0</ele>
        <time>2021-08-14T13:52:10Z</time>
      </trkpt>
      <trkpt lat="41.845225" lon="2.85608">
        <ele>151.0</ele>
        <time>2021-08-14T13:52:12Z</time>
      </trkpt>
      <trkpt lat="41.845332" lon="2.856095">
        <ele>150.0</ele>
        <time>2021-08-14T13:52:14Z</time>
      </trkpt>
      <trkpt lat="41.845445" lon="2.856107">
        <ele>150.0</ele>
        <time>2021-08-14T13:52:16Z</time>
      </trkpt>
      <trkpt lat="41.845553" lon="2.856115">
        <ele>150.0</ele>
        <time>2021-08-14T13:52:18Z</time>
      </trkpt>
      <trkpt lat="41.845665" lon="2.85613">
        <ele>150.0</ele>
        <time>2021-08-14T13:52:20Z</time>
      </trkpt>
      <trkpt lat="41.845765" lon="2.856152">
        <ele>150.0</ele>
        <time>2021-08-14T13:52:22Z</time>
      </trkpt>
      <trkpt lat="41.845855" lon="2.856165">
        <ele>151.0</ele>
        <time>2021-08-14T13:52:24Z</time>
      </trkpt>
      <trkpt lat="41.845955" lon="2.85616">
        <ele>152.0</ele>
        <time>2021-08-14T13:52:26Z</time>
      </trkpt>
      <trkpt lat="41.84606" lon="2.856177">
        <ele>152.0</ele>
        <time>2021-08-14T13:52:28Z</time>
      </trkpt>
      <trkpt lat="41.846158" lon="2.85621">
        <ele>153.0</ele>
        <time>2021-08-14T13:52:30Z</time>
      </trkpt>
      <trkpt lat="41.846255" lon="2.856235">
        <ele>153.0</ele>
        <time>2021-08-14T13:52:32Z</time>
      </trkpt>
      <trkpt lat="41.846332" lon="2.856245">
        <ele>154.0</ele>
        <time>2021-08-14T13:52:34Z</time>
      </trkpt>
      <trkpt lat="41.846432" lon="2.85626">
        <ele>154.0</ele>
        <time>2021-08-14T13:52:37Z</time>
      </trkpt>
      <trkpt lat="41.846502" lon="2.856288">
        <ele>156.0</ele>
        <time>2021-08-14T13:52:39Z</time>
      </trkpt>
      <trkpt lat="41.846585" lon="2.856308">
        <ele>156.0</ele>
        <time>2021-08-14T13:52:41Z</time>
      </trkpt>
      <trkpt lat="41.846665" lon="2.856327">
        <ele>157.0</ele>
        <time>2021-08-14T13:52:43Z</time>
      </trkpt>
      <trkpt lat="41.84676" lon="2.85635">
        <ele>157.0</ele>
        <time>2021-08-14T13:52:45Z</time>
      </trkpt>
      <trkpt lat="41.84685" lon="2.856378">
        <ele>157.0</ele>
        <time>2021-08-14T13:52:47Z</time>
      </trkpt>
      <trkpt lat="41.84696" lon="2.85641">
        <ele>157.0</ele>
        <time>2021-08-14T13:52:49Z</time>
      </trkpt>
      <trkpt lat="41.847062" lon="2.856435">
        <ele>158.0</ele>
        <time>2021-08-14T13:52:51Z</time>
      </trkpt>
      <trkpt lat="41.84717" lon="2.856465">
        <ele>157.0</ele>
        <time>2021-08-14T13:52:53Z</time>
      </trkpt>
      <trkpt lat="41.847275" lon="2.85649">
        <ele>157.0</ele>
        <time>2021-08-14T13:52:55Z</time>
      </trkpt>
      <trkpt lat="41.84738" lon="2.856507">
        <ele>157.0</ele>
        <time>2021-08-14T13:52:57Z</time>
      </trkpt>
      <trkpt lat="41.84748" lon="2.85653">
        <ele>157.0</ele>
        <time>2021-08-14T13:52:59Z</time>
      </trkpt>
      <trkpt lat="41.847582" lon="2.856555">
        <ele>157.0</ele>
        <time>2021-08-14T13:53:01Z</time>
      </trkpt>
      <trkpt lat="41.847685" lon="2.856578">
        <ele>157.0</ele>
        <time>2021-08-14T13:53:03Z</time>
      </trkpt>
      <trkpt lat="41.847785" lon="2.856595">
        <ele>158.0</ele>
        <time>2021-08-14T13:53:05Z</time>
      </trkpt>
      <trkpt lat="41.84788" lon="2.856625">
        <ele>158.0</ele>
        <time>2021-08-14T13:53:07Z</time>
      </trkpt>
      <trkpt lat="41.84797" lon="2.856668">
        <ele>158.0</ele>
        <time>2021-08-14T13:53:09Z</time>
      </trkpt>
      <trkpt lat="41.848055" lon="2.856737">
        <ele>157.0</ele>
        <time>2021-08-14T13:53:11Z</time>
      </trkpt>
      <trkpt lat="41.848135" lon="2.85681">
        <ele>157.0</ele>
        <time>2021-08-14T13:53:13Z</time>
      </trkpt>
      <trkpt lat="41.848217" lon="2.856865">
        <ele>157.0</ele>
        <time>2021-08-14T13:53:15Z</time>
      </trkpt>
      <trkpt lat="41.848295" lon="2.856928">
        <ele>157.0</ele>
        <time>2021-08-14T13:53:17Z</time>
      </trkpt>
      <trkpt lat="41.84837" lon="2.85699">
        <ele>156.0</ele>
        <time>2021-08-14T13:53:19Z</time>
      </trkpt>
      <trkpt lat="41.848455" lon="2.857017">
        <ele>156.0</ele>
        <time>2021-08-14T13:53:21Z</time>
      </trkpt>
      <trkpt lat="41.848565" lon="2.857025">
        <ele>156.0</ele>
        <time>2021-08-14T13:53:23Z</time>
      </trkpt>
      <trkpt lat="41.848667" lon="2.857045">
        <ele>157.0</ele>
        <time>2021-08-14T13:53:25Z</time>
      </trkpt>
      <trkpt lat="41.848755" lon="2.85704">
        <ele>157.0</ele>
        <time>2021-08-14T13:53:28Z</time>
      </trkpt>
      <trkpt lat="41.84883" lon="2.85704">
        <ele>157.0</ele>
        <time>2021-08-14T13:53:30Z</time>
      </trkpt>
      <trkpt lat="41.848925" lon="2.85706">
        <ele>156.0</ele>
        <time>2021-08-14T13:53:32Z</time>
      </trkpt>
      <trkpt lat="41.849035" lon="2.857092">
        <ele>156.0</ele>
        <time>2021-08-14T13:53:34Z</time>
      </trkpt>
      <trkpt lat="41.849137" lon="2.85711">
        <ele>155.0</ele>
        <time>2021-08-14T13:53:36Z</time>
      </trkpt>
      <trkpt lat="41.849245" lon="2.85713">
        <ele>156.0</ele>
        <time>2021-08-14T13:53:38Z</time>
      </trkpt>
      <trkpt lat="41.849352" lon="2.857155">
        <ele>156.0</ele>
        <time>2021-08-14T13:53:40Z</time>
      </trkpt>
      <trkpt lat="41.84945" lon="2.85716">
        <ele>156.0</ele>
        <time>2021-08-14T13:53:42Z</time>
      </trkpt>
      <trkpt lat="41.849545" lon="2.857175">
        <ele>156.0</ele>
        <time>2021-08-14T13:53:44Z</time>
      </trkpt>
      <trkpt lat="41.849643" lon="2.857183">
        <ele>156.0</ele>
        <time>2021-08-14T13:53:46Z</time>
      </trkpt>
      <trkpt lat="41.84975" lon="2.85719">
        <ele>156.0</ele>
        <time>2021-08-14T13:53:48Z</time>
      </trkpt>
      <trkpt lat="41.849855" lon="2.857198">
        <ele>156.0</ele>
        <time>2021-08-14T13:53:50Z</time>
      </trkpt>
      <trkpt lat="41.849947" lon="2.85724">
        <ele>156.0</ele>
        <time>2021-08-14T13:53:52Z</time>
      </trkpt>
      <trkpt lat="41.850035" lon="2.8573">
        <ele>156.0</ele>
        <time>2021-08-14T13:53:54Z</time>
      </trkpt>
      <trkpt lat="41.850115" lon="2.85739">
        <ele>155.0</ele>
        <time>2021-08-14T13:53:56Z</time>
      </trkpt>
      <trkpt lat="41.85019" lon="2.857485">
        <ele>155.0</ele>
        <time>2021-08-14T13:53:58Z</time>
      </trkpt>
      <trkpt lat="41.850267" lon="2.857555">
        <ele>156.0</ele>
        <time>2021-08-14T13:54:00Z</time>
      </trkpt>
      <trkpt lat="41.85036" lon="2.857615">
        <ele>155.0</ele>
        <time>2021-08-14T13:54:02Z</time>
      </trkpt>
      <trkpt lat="41.850455" lon="2.857642">
        <ele>155.0</ele>
        <time>2021-08-14T13:54:04Z</time>
      </trkpt>
      <trkpt lat="41.850547" lon="2.857672">
        <ele>155.0</ele>
        <time>2021-08-14T13:54:06Z</time>
      </trkpt>
      <trkpt lat="41.850645" lon="2.857682">
        <ele>155.0</ele>
        <time>2021-08-14T13:54:08Z</time>
      </trkpt>
      <trkpt lat="41.850745" lon="2.857702">
        <ele>155.0</ele>
        <time>2021-08-14T13:54:10Z</time>
      </trkpt>
      <trkpt lat="41.850845" lon="2.857727">
        <ele>155.0</ele>
        <time>2021-08-14T13:54:12Z</time>
      </trkpt>
      <trkpt lat="41.850945" lon="2.857757">
        <ele>155.0</ele>
        <time>2021-08-14T13:54:14Z</time>
      </trkpt>
      <trkpt lat="41.851045" lon="2.857785">
        <ele>155.0</ele>
        <time>2021-08-14T13:54:16Z</time>
      </trkpt>
      <trkpt lat="41.851145" lon="2.857812">
        <ele>155.0</ele>
        <time>2021-08-14T13:54:18Z</time>
      </trkpt>
      <trkpt lat="41.851237" lon="2.857842">
        <ele>156.0</ele>
        <time>2021-08-14T13:54:20Z</time>
      </trkpt>
      <trkpt lat="41.851325" lon="2.85787">
        <ele>156.0</ele>
        <time>2021-08-14T13:54:22Z</time>
      </trkpt>
      <trkpt lat="41.85142" lon="2.857898">
        <ele>156.0</ele>
        <time>2021-08-14T13:54:24Z</time>
      </trkpt>
      <trkpt lat="41.851515" lon="2.857935">
        <ele>156.0</ele>
        <time>2021-08-14T13:54:26Z</time>
      </trkpt>
      <trkpt lat="41.851602" lon="2.857965">
        <ele>156.0</ele>
        <time>2021-08-14T13:54:28Z</time>
      </trkpt>
      <trkpt lat="41.851685" lon="2.857982">
        <ele>157.0</ele>
        <time>2021-08-14T13:54:30Z</time>
      </trkpt>
      <trkpt lat="41.851767" lon="2.858015">
        <ele>157.0</ele>
        <time>2021-08-14T13:54:32Z</time>
      </trkpt>
      <trkpt lat="41.851847" lon="2.858033">
        <ele>157.0</ele>
        <time>2021-08-14T13:54:34Z</time>
      </trkpt>
      <trkpt lat="41.851925" lon="2.858047">
        <ele>158.0</ele>
        <time>2021-08-14T13:54:36Z</time>
      </trkpt>
      <trkpt lat="41.852025" lon="2.85804">
        <ele>158.0</ele>
        <time>2021-08-14T13:54:39Z</time>
      </trkpt>
      <trkpt lat="41.852112" lon="2.858025">
        <ele>159.0</ele>
        <time>2021-08-14T13:54:42Z</time>
      </trkpt>
      <trkpt lat="41.85221" lon="2.85798">
        <ele>159.0</ele>
        <time>2021-08-14T13:54:45Z</time>
      </trkpt>
      <trkpt lat="41.852308" lon="2.857955">
        <ele>160.0</ele>
        <time>2021-08-14T13:54:48Z</time>
      </trkpt>
      <trkpt lat="41.852415" lon="2.857925">
        <ele>161.0</ele>
        <time>2021-08-14T13:54:51Z</time>
      </trkpt>
      <trkpt lat="41.852485" lon="2.857903">
        <ele>161.0</ele>
        <time>2021-08-14T13:54:53Z</time>
      </trkpt>
      <trkpt lat="41.85257" lon="2.85787">
        <ele>161.0</ele>
        <time>2021-08-14T13:54:56Z</time>
      </trkpt>
      <trkpt lat="41.852652" lon="2.857835">
        <ele>161.0</ele>
        <time>2021-08-14T13:54:59Z</time>
      </trkpt>
      <trkpt lat="41.852745" lon="2.857805">
        <ele>162.0</ele>
        <time>2021-08-14T13:55:02Z</time>
      </trkpt>
      <trkpt lat="41.852815" lon="2.85778">
        <ele>162.0</ele>
        <time>2021-08-14T13:55:04Z</time>
      </trkpt>
      <trkpt lat="41.852902" lon="2.85778">
        <ele>162.0</ele>
        <time>2021-08-14T13:55:06Z</time>
      </trkpt>
      <trkpt lat="41.852978" lon="2.85778">
        <ele>162.0</ele>
        <time>2021-08-14T13:55:09Z</time>
      </trkpt>
      <trkpt lat="41.85308" lon="2.85777">
        <ele>163.0</ele>
        <time>2021-08-14T13:55:11Z</time>
      </trkpt>
      <trkpt lat="41.85318" lon="2.85778">
        <ele>164.0</ele>
        <time>2021-08-14T13:55:14Z</time>
      </trkpt>
      <trkpt lat="41.853285" lon="2.85782">
        <ele>164.0</ele>
        <time>2021-08-14T13:55:17Z</time>
      </trkpt>
      <trkpt lat="41.853363" lon="2.85786">
        <ele>163.0</ele>
        <time>2021-08-14T13:55:19Z</time>
      </trkpt>
      <trkpt lat="41.853447" lon="2.857903">
        <ele>163.0</ele>
        <time>2021-08-14T13:55:21Z</time>
      </trkpt>
      <trkpt lat="41.853545" lon="2.857945">
        <ele>163.0</ele>
        <time>2021-08-14T13:55:23Z</time>
      </trkpt>
      <trkpt lat="41.853657" lon="2.857985">
        <ele>163.0</ele>
        <time>2021-08-14T13:55:25Z</time>
      </trkpt>
      <trkpt lat="41.85379" lon="2.858025">
        <ele>163.0</ele>
        <time>2021-08-14T13:55:27Z</time>
      </trkpt>
      <trkpt lat="41.853922" lon="2.858075">
        <ele>163.0</ele>
        <time>2021-08-14T13:55:29Z</time>
      </trkpt>
      <trkpt lat="41.853992" lon="2.85811">
        <ele>164.0</ele>
        <time>2021-08-14T13:55:30Z</time>
      </trkpt>
      <trkpt lat="41.854065" lon="2.85814">
        <ele>164.0</ele>
        <time>2021-08-14T13:55:31Z</time>
      </trkpt>
      <trkpt lat="41.854135" lon="2.858165">
        <ele>165.0</ele>
        <time>2021-08-14T13:55:32Z</time>
      </trkpt>
      <trkpt lat="41.85426" lon="2.858192">
        <ele>165.0</ele>
        <time>2021-08-14T13:55:34Z</time>
      </trkpt>
      <trkpt lat="41.854365" lon="2.858235">
        <ele>166.0</ele>
        <time>2021-08-14T13:55:36Z</time>
      </trkpt>
      <trkpt lat="41.85447" lon="2.858277">
        <ele>167.0</ele>
        <time>2021-08-14T13:55:38Z</time>
      </trkpt>
      <trkpt lat="41.854557" lon="2.85832">
        <ele>168.0</ele>
        <time>2021-08-14T13:55:40Z</time>
      </trkpt>
      <trkpt lat="41.854625" lon="2.858372">
        <ele>168.0</ele>
        <time>2021-08-14T13:55:42Z</time>
      </trkpt>
      <trkpt lat="41.85469" lon="2.858442">
        <ele>168.0</ele>
        <time>2021-08-14T13:55:44Z</time>
      </trkpt>
      <trkpt lat="41.854755" lon="2.858525">
        <ele>168.0</ele>
        <time>2021-08-14T13:55:46Z</time>
      </trkpt>
      <trkpt lat="41.854812" lon="2.858595">
        <ele>167.0</ele>
        <time>2021-08-14T13:55:48Z</time>
      </trkpt>
      <trkpt lat="41.854867" lon="2.858675">
        <ele>167.0</ele>
        <time>2021-08-14T13:55:50Z</time>
      </trkpt>
      <trkpt lat="41.854932" lon="2.858755">
        <ele>168.0</ele>
        <time>2021-08-14T13:55:52Z</time>
      </trkpt>
      <trkpt lat="41.85499" lon="2.85884">
        <ele>167.0</ele>
        <time>2021-08-14T13:55:54Z</time>
      </trkpt>
      <trkpt lat="41.85505" lon="2.85893">
        <ele>167.0</ele>
        <time>2021-08-14T13:55:56Z</time>
      </trkpt>
      <trkpt lat="41.855105" lon="2.859015">
        <ele>167.0</ele>
        <time>2021-08-14T13:55:58Z</time>
      </trkpt>
      <trkpt lat="41.85516" lon="2.859097">
        <ele>167.0</ele>
        <time>2021-08-14T13:56:00Z</time>
      </trkpt>
      <trkpt lat="41.85521" lon="2.859182">
        <ele>167.0</ele>
        <time>2021-08-14T13:56:02Z</time>
      </trkpt>
      <trkpt lat="41.85526" lon="2.859273">
        <ele>166.0</ele>
        <time>2021-08-14T13:56:04Z</time>
      </trkpt>
      <trkpt lat="41.855317" lon="2.859368">
        <ele>166.0</ele>
        <time>2021-08-14T13:56:06Z</time>
      </trkpt>
      <trkpt lat="41.855375" lon="2.859463">
        <ele>166.0</ele>
        <time>2021-08-14T13:56:08Z</time>
      </trkpt>
      <trkpt lat="41.85543" lon="2.859558">
        <ele>166.0</ele>
        <time>2021-08-14T13:56:10Z</time>
      </trkpt>
      <trkpt lat="41.855487" lon="2.859655">
        <ele>166.0</ele>
        <time>2021-08-14T13:56:12Z</time>
      </trkpt>
      <trkpt lat="41.855545" lon="2.85975">
        <ele>166.0</ele>
        <time>2021-08-14T13:56:14Z</time>
      </trkpt>
      <trkpt lat="41.8556" lon="2.85984">
        <ele>167.0</ele>
        <time>2021-08-14T13:56:16Z</time>
      </trkpt>
      <trkpt lat="41.85566" lon="2.85994">
        <ele>167.0</ele>
        <time>2021-08-14T13:56:18Z</time>
      </trkpt>
      <trkpt lat="41.85572" lon="2.860022">
        <ele>167.0</ele>
        <time>2021-08-14T13:56:20Z</time>
      </trkpt>
      <trkpt lat="41.85579" lon="2.86012">
        <ele>166.0</ele>
        <time>2021-08-14T13:56:22Z</time>
      </trkpt>
      <trkpt lat="41.855877" lon="2.860205">
        <ele>166.0</ele>
        <time>2021-08-14T13:56:24Z</time>
      </trkpt>
      <trkpt lat="41.855965" lon="2.86029">
        <ele>165.0</ele>
        <time>2021-08-14T13:56:26Z</time>
      </trkpt>
      <trkpt lat="41.856055" lon="2.860385">
        <ele>164.0</ele>
        <time>2021-08-14T13:56:28Z</time>
      </trkpt>
      <trkpt lat="41.856145" lon="2.86048">
        <ele>164.0</ele>
        <time>2021-08-14T13:56:30Z</time>
      </trkpt>
      <trkpt lat="41.856227" lon="2.86057">
        <ele>164.0</ele>
        <time>2021-08-14T13:56:32Z</time>
      </trkpt>
      <trkpt lat="41.856312" lon="2.860678">
        <ele>163.0</ele>
        <time>2021-08-14T13:56:34Z</time>
      </trkpt>
      <trkpt lat="41.856388" lon="2.860787">
        <ele>163.0</ele>
        <time>2021-08-14T13:56:36Z</time>
      </trkpt>
      <trkpt lat="41.856462" lon="2.8609">
        <ele>164.0</ele>
        <time>2021-08-14T13:56:38Z</time>
      </trkpt>
      <trkpt lat="41.856542" lon="2.861">
        <ele>164.0</ele>
        <time>2021-08-14T13:56:40Z</time>
      </trkpt>
      <trkpt lat="41.856625" lon="2.86109">
        <ele>165.0</ele>
        <time>2021-08-14T13:56:42Z</time>
      </trkpt>
      <trkpt lat="41.856707" lon="2.86117">
        <ele>165.0</ele>
        <time>2021-08-14T13:56:44Z</time>
      </trkpt>
      <trkpt lat="41.856787" lon="2.861235">
        <ele>166.0</ele>
        <time>2021-08-14T13:56:46Z</time>
      </trkpt>
      <trkpt lat="41.856865" lon="2.861295">
        <ele>166.0</ele>
        <time>2021-08-14T13:56:48Z</time>
      </trkpt>
      <trkpt lat="41.856947" lon="2.86136">
        <ele>165.0</ele>
        <time>2021-08-14T13:56:50Z</time>
      </trkpt>
      <trkpt lat="41.857032" lon="2.861423">
        <ele>165.0</ele>
        <time>2021-08-14T13:56:52Z</time>
      </trkpt>
      <trkpt lat="41.85711" lon="2.861485">
        <ele>165.0</ele>
        <time>2021-08-14T13:56:54Z</time>
      </trkpt>
      <trkpt lat="41.857185" lon="2.86154">
        <ele>165.0</ele>
        <time>2021-08-14T13:56:56Z</time>
      </trkpt>
      <trkpt lat="41.85726" lon="2.861592">
        <ele>165.0</ele>
        <time>2021-08-14T13:56:58Z</time>
      </trkpt>
      <trkpt lat="41.85733" lon="2.861655">
        <ele>165.0</ele>
        <time>2021-08-14T13:57:00Z</time>
      </trkpt>
      <trkpt lat="41.85741" lon="2.86171">
        <ele>165.0</ele>
        <time>2021-08-14T13:57:02Z</time>
      </trkpt>
      <trkpt lat="41.857485" lon="2.86178">
        <ele>165.0</ele>
        <time>2021-08-14T13:57:04Z</time>
      </trkpt>
      <trkpt lat="41.857543" lon="2.861852">
        <ele>164.0</ele>
        <time>2021-08-14T13:57:06Z</time>
      </trkpt>
      <trkpt lat="41.857615" lon="2.86196">
        <ele>164.0</ele>
        <time>2021-08-14T13:57:09Z</time>
      </trkpt>
      <trkpt lat="41.857665" lon="2.862045">
        <ele>164.0</ele>
        <time>2021-08-14T13:57:11Z</time>
      </trkpt>
      <trkpt lat="41.857677" lon="2.862152">
        <ele>165.0</ele>
        <time>2021-08-14T13:57:15Z</time>
      </trkpt>
      <trkpt lat="41.857737" lon="2.86224">
        <ele>165.0</ele>
        <time>2021-08-14T13:57:20Z</time>
      </trkpt>
      <trkpt lat="41.857805" lon="2.862302">
        <ele>165.0</ele>
        <time>2021-08-14T13:57:23Z</time>
      </trkpt>
      <trkpt lat="41.857865" lon="2.862397">
        <ele>166.0</ele>
        <time>2021-08-14T13:57:26Z</time>
      </trkpt>
      <trkpt lat="41.85792" lon="2.862495">
        <ele>166.0</ele>
        <time>2021-08-14T13:57:29Z</time>
      </trkpt>
      <trkpt lat="41.857977" lon="2.862582">
        <ele>166.0</ele>
        <time>2021-08-14T13:57:32Z</time>
      </trkpt>
      <trkpt lat="41.85804" lon="2.862677">
        <ele>167.0</ele>
        <time>2021-08-14T13:57:35Z</time>
      </trkpt>
      <trkpt lat="41.858115" lon="2.862765">
        <ele>168.0</ele>
        <time>2021-08-14T13:57:38Z</time>
      </trkpt>
      <trkpt lat="41.858185" lon="2.862828">
        <ele>168.0</ele>
        <time>2021-08-14T13:57:41Z</time>
      </trkpt>
      <trkpt lat="41.85824" lon="2.862895">
        <ele>168.0</ele>
        <time>2021-08-14T13:57:44Z</time>
      </trkpt>
      <trkpt lat="41.8583" lon="2.862958">
        <ele>168.0</ele>
        <time>2021-08-14T13:57:47Z</time>
      </trkpt>
      <trkpt lat="41.858358" lon="2.86302">
        <ele>169.0</ele>
        <time>2021-08-14T13:57:49Z</time>
      </trkpt>
      <trkpt lat="41.858427" lon="2.863095">
        <ele>168.0</ele>
        <time>2021-08-14T13:57:51Z</time>
      </trkpt>
      <trkpt lat="41.858505" lon="2.86315">
        <ele>168.0</ele>
        <time>2021-08-14T13:57:53Z</time>
      </trkpt>
      <trkpt lat="41.858582" lon="2.863215">
        <ele>169.0</ele>
        <time>2021-08-14T13:57:55Z</time>
      </trkpt>
      <trkpt lat="41.858665" lon="2.863295">
        <ele>169.0</ele>
        <time>2021-08-14T13:57:57Z</time>
      </trkpt>
      <trkpt lat="41.858745" lon="2.863392">
        <ele>168.0</ele>
        <time>2021-08-14T13:57:59Z</time>
      </trkpt>
      <trkpt lat="41.8588" lon="2.863495">
        <ele>168.0</ele>
        <time>2021-08-14T13:58:01Z</time>
      </trkpt>
      <trkpt lat="41.85884" lon="2.86361">
        <ele>168.0</ele>
        <time>2021-08-14T13:58:03Z</time>
      </trkpt>
      <trkpt lat="41.858845" lon="2.86374">
        <ele>169.0</ele>
        <time>2021-08-14T13:58:05Z</time>
      </trkpt>
      <trkpt lat="41.858822" lon="2.863847">
        <ele>169.0</ele>
        <time>2021-08-14T13:58:07Z</time>
      </trkpt>
      <trkpt lat="41.85876" lon="2.86397">
        <ele>169.0</ele>
        <time>2021-08-14T13:58:10Z</time>
      </trkpt>
      <trkpt lat="41.85868" lon="2.864055">
        <ele>170.0</ele>
        <time>2021-08-14T13:58:13Z</time>
      </trkpt>
      <trkpt lat="41.858615" lon="2.864152">
        <ele>169.0</ele>
        <time>2021-08-14T13:58:16Z</time>
      </trkpt>
      <trkpt lat="41.85855" lon="2.864255">
        <ele>170.0</ele>
        <time>2021-08-14T13:58:19Z</time>
      </trkpt>
      <trkpt lat="41.858495" lon="2.86438">
        <ele>170.0</ele>
        <time>2021-08-14T13:58:22Z</time>
      </trkpt>
      <trkpt lat="41.858425" lon="2.864473">
        <ele>169.0</ele>
        <time>2021-08-14T13:58:25Z</time>
      </trkpt>
      <trkpt lat="41.858377" lon="2.864585">
        <ele>169.0</ele>
        <time>2021-08-14T13:58:28Z</time>
      </trkpt>
      <trkpt lat="41.858347" lon="2.864695">
        <ele>169.0</ele>
        <time>2021-08-14T13:58:31Z</time>
      </trkpt>
      <trkpt lat="41.858352" lon="2.86482">
        <ele>169.0</ele>
        <time>2021-08-14T13:58:34Z</time>
      </trkpt>
      <trkpt lat="41.858352" lon="2.864945">
        <ele>169.0</ele>
        <time>2021-08-14T13:58:37Z</time>
      </trkpt>
      <trkpt lat="41.858357" lon="2.86506">
        <ele>170.0</ele>
        <time>2021-08-14T13:58:40Z</time>
      </trkpt>
      <trkpt lat="41.858358" lon="2.865187">
        <ele>170.0</ele>
        <time>2021-08-14T13:58:43Z</time>
      </trkpt>
      <trkpt lat="41.858385" lon="2.865305">
        <ele>170.0</ele>
        <time>2021-08-14T13:58:46Z</time>
      </trkpt>
      <trkpt lat="41.858405" lon="2.865405">
        <ele>169.0</ele>
        <time>2021-08-14T13:58:49Z</time>
      </trkpt>
      <trkpt lat="41.858435" lon="2.865523">
        <ele>169.0</ele>
        <time>2021-08-14T13:58:52Z</time>
      </trkpt>
      <trkpt lat="41.858485" lon="2.865657">
        <ele>168.0</ele>
        <time>2021-08-14T13:58:55Z</time>
      </trkpt>
      <trkpt lat="41.858513" lon="2.865785">
        <ele>168.0</ele>
        <time>2021-08-14T13:58:58Z</time>
      </trkpt>
      <trkpt lat="41.858555" lon="2.86591">
        <ele>167.0</ele>
        <time>2021-08-14T13:59:01Z</time>
      </trkpt>
      <trkpt lat="41.858587" lon="2.86604">
        <ele>166.0</ele>
        <time>2021-08-14T13:59:04Z</time>
      </trkpt>
      <trkpt lat="41.85862" lon="2.866168">
        <ele>166.0</ele>
        <time>2021-08-14T13:59:07Z</time>
      </trkpt>
      <trkpt lat="41.85865" lon="2.866292">
        <ele>166.0</ele>
        <time>2021-08-14T13:59:10Z</time>
      </trkpt>
      <trkpt lat="41.85868" lon="2.866407">
        <ele>167.0</ele>
        <time>2021-08-14T13:59:13Z</time>
      </trkpt>
      <trkpt lat="41.8587" lon="2.8665">
        <ele>167.0</ele>
        <time>2021-08-14T13:59:15Z</time>
      </trkpt>
      <trkpt lat="41.85871" lon="2.8666">
        <ele>168.0</ele>
        <time>2021-08-14T13:59:17Z</time>
      </trkpt>
      <trkpt lat="41.858737" lon="2.86672">
        <ele>169.0</ele>
        <time>2021-08-14T13:59:19Z</time>
      </trkpt>
      <trkpt lat="41.858765" lon="2.866845">
        <ele>170.0</ele>
        <time>2021-08-14T13:59:21Z</time>
      </trkpt>
      <trkpt lat="41.858805" lon="2.866985">
        <ele>172.0</ele>
        <time>2021-08-14T13:59:23Z</time>
      </trkpt>
      <trkpt lat="41.858845" lon="2.867117">
        <ele>172.0</ele>
        <time>2021-08-14T13:59:25Z</time>
      </trkpt>
      <trkpt lat="41.85887" lon="2.867242">
        <ele>173.0</ele>
        <time>2021-08-14T13:59:27Z</time>
      </trkpt>
      <trkpt lat="41.858912" lon="2.86736">
        <ele>173.0</ele>
        <time>2021-08-14T13:59:29Z</time>
      </trkpt>
      <trkpt lat="41.858952" lon="2.867465">
        <ele>174.0</ele>
        <time>2021-08-14T13:59:31Z</time>
      </trkpt>
      <trkpt lat="41.85899" lon="2.867565">
        <ele>173.0</ele>
        <time>2021-08-14T13:59:33Z</time>
      </trkpt>
      <trkpt lat="41.859035" lon="2.867672">
        <ele>174.0</ele>
        <time>2021-08-14T13:59:35Z</time>
      </trkpt>
      <trkpt lat="41.85908" lon="2.86777">
        <ele>173.0</ele>
        <time>2021-08-14T13:59:37Z</time>
      </trkpt>
      <trkpt lat="41.859117" lon="2.867872">
        <ele>173.0</ele>
        <time>2021-08-14T13:59:39Z</time>
      </trkpt>
      <trkpt lat="41.85917" lon="2.867975">
        <ele>173.0</ele>
        <time>2021-08-14T13:59:41Z</time>
      </trkpt>
      <trkpt lat="41.85922" lon="2.86808">
        <ele>172.0</ele>
        <time>2021-08-14T13:59:43Z</time>
      </trkpt>
      <trkpt lat="41.859267" lon="2.868197">
        <ele>172.0</ele>
        <time>2021-08-14T13:59:45Z</time>
      </trkpt>
      <trkpt lat="41.85932" lon="2.8683">
        <ele>172.0</ele>
        <time>2021-08-14T13:59:47Z</time>
      </trkpt>
      <trkpt lat="41.859375" lon="2.868405">
        <ele>173.0</ele>
        <time>2021-08-14T13:59:49Z</time>
      </trkpt>
      <trkpt lat="41.859412" lon="2.868518">
        <ele>173.0</ele>
        <time>2021-08-14T13:59:51Z</time>
      </trkpt>
      <trkpt lat="41.859455" lon="2.868625">
        <ele>174.0</ele>
        <time>2021-08-14T13:59:53Z</time>
      </trkpt>
      <trkpt lat="41.859493" lon="2.86873">
        <ele>175.0</ele>
        <time>2021-08-14T13:59:55Z</time>
      </trkpt>
      <trkpt lat="41.85952" lon="2.868842">
        <ele>175.0</ele>
        <time>2021-08-14T13:59:57Z</time>
      </trkpt>
      <trkpt lat="41.859535" lon="2.868965">
        <ele>175.0</ele>
        <time>2021-08-14T13:59:59Z</time>
      </trkpt>
      <trkpt lat="41.85956" lon="2.869105">
        <ele>174.0</ele>
        <time>2021-08-14T14:00:01Z</time>
      </trkpt>
      <trkpt lat="41.85959" lon="2.869257">
        <ele>174.0</ele>
        <time>2021-08-14T14:00:03Z</time>
      </trkpt>
      <trkpt lat="41.85962" lon="2.869415">
        <ele>173.0</ele>
        <time>2021-08-14T14:00:05Z</time>
      </trkpt>
      <trkpt lat="41.859648" lon="2.86958">
        <ele>173.0</ele>
        <time>2021-08-14T14:00:07Z</time>
      </trkpt>
      <trkpt lat="41.85967" lon="2.869738">
        <ele>172.0</ele>
        <time>2021-08-14T14:00:09Z</time>
      </trkpt>
      <trkpt lat="41.8597" lon="2.869897">
        <ele>172.0</ele>
        <time>2021-08-14T14:00:11Z</time>
      </trkpt>
      <trkpt lat="41.859732" lon="2.870057">
        <ele>172.0</ele>
        <time>2021-08-14T14:00:13Z</time>
      </trkpt>
      <trkpt lat="41.85976" lon="2.870208">
        <ele>171.0</ele>
        <time>2021-08-14T14:00:15Z</time>
      </trkpt>
      <trkpt lat="41.859777" lon="2.870355">
        <ele>171.0</ele>
        <time>2021-08-14T14:00:17Z</time>
      </trkpt>
      <trkpt lat="41.85978" lon="2.870495">
        <ele>170.0</ele>
        <time>2021-08-14T14:00:19Z</time>
      </trkpt>
      <trkpt lat="41.85978" lon="2.870625">
        <ele>170.0</ele>
        <time>2021-08-14T14:00:21Z</time>
      </trkpt>
      <trkpt lat="41.85977" lon="2.87074">
        <ele>170.0</ele>
        <time>2021-08-14T14:00:23Z</time>
      </trkpt>
      <trkpt lat="41.85975" lon="2.870838">
        <ele>170.0</ele>
        <time>2021-08-14T14:00:25Z</time>
      </trkpt>
      <trkpt lat="41.85971" lon="2.87093">
        <ele>170.0</ele>
        <time>2021-08-14T14:00:27Z</time>
      </trkpt>
      <trkpt lat="41.85965" lon="2.870998">
        <ele>170.0</ele>
        <time>2021-08-14T14:00:29Z</time>
      </trkpt>
      <trkpt lat="41.85958" lon="2.871045">
        <ele>171.0</ele>
        <time>2021-08-14T14:00:31Z</time>
      </trkpt>
      <trkpt lat="41.859505" lon="2.87107">
        <ele>170.0</ele>
        <time>2021-08-14T14:00:33Z</time>
      </trkpt>
      <trkpt lat="41.85943" lon="2.871115">
        <ele>170.0</ele>
        <time>2021-08-14T14:00:35Z</time>
      </trkpt>
      <trkpt lat="41.859365" lon="2.871165">
        <ele>170.0</ele>
        <time>2021-08-14T14:00:37Z</time>
      </trkpt>
      <trkpt lat="41.859295" lon="2.87121">
        <ele>170.0</ele>
        <time>2021-08-14T14:00:39Z</time>
      </trkpt>
      <trkpt lat="41.85922" lon="2.871247">
        <ele>170.0</ele>
        <time>2021-08-14T14:00:41Z</time>
      </trkpt>
      <trkpt lat="41.85915" lon="2.87129">
        <ele>170.0</ele>
        <time>2021-08-14T14:00:43Z</time>
      </trkpt>
      <trkpt lat="41.859075" lon="2.87132">
        <ele>170.0</ele>
        <time>2021-08-14T14:00:45Z</time>
      </trkpt>
      <trkpt lat="41.859" lon="2.871352">
        <ele>170.0</ele>
        <time>2021-08-14T14:00:47Z</time>
      </trkpt>
      <trkpt lat="41.85892" lon="2.871395">
        <ele>170.0</ele>
        <time>2021-08-14T14:00:49Z</time>
      </trkpt>
      <trkpt lat="41.858842" lon="2.871427">
        <ele>170.0</ele>
        <time>2021-08-14T14:00:51Z</time>
      </trkpt>
      <trkpt lat="41.858765" lon="2.871442">
        <ele>170.0</ele>
        <time>2021-08-14T14:00:53Z</time>
      </trkpt>
      <trkpt lat="41.858695" lon="2.871437">
        <ele>170.0</ele>
        <time>2021-08-14T14:00:55Z</time>
      </trkpt>
      <trkpt lat="41.8586" lon="2.871392">
        <ele>170.0</ele>
        <time>2021-08-14T14:00:58Z</time>
      </trkpt>
      <trkpt lat="41.858525" lon="2.871295">
        <ele>170.0</ele>
        <time>2021-08-14T14:01:01Z</time>
      </trkpt>
      <trkpt lat="41.858442" lon="2.87121">
        <ele>169.0</ele>
        <time>2021-08-14T14:01:04Z</time>
      </trkpt>
      <trkpt lat="41.858357" lon="2.871122">
        <ele>169.0</ele>
        <time>2021-08-14T14:01:07Z</time>
      </trkpt>
      <trkpt lat="41.858295" lon="2.87108">
        <ele>170.0</ele>
        <time>2021-08-14T14:01:09Z</time>
      </trkpt>
      <trkpt lat="41.858215" lon="2.87106">
        <ele>170.0</ele>
        <time>2021-08-14T14:01:11Z</time>
      </trkpt>
      <trkpt lat="41.858133" lon="2.871045">
        <ele>170.0</ele>
        <time>2021-08-14T14:01:13Z</time>
      </trkpt>
      <trkpt lat="41.85803" lon="2.871022">
        <ele>170.0</ele>
        <time>2021-08-14T14:01:16Z</time>
      </trkpt>
      <trkpt lat="41.85796" lon="2.87101">
        <ele>171.0</ele>
        <time>2021-08-14T14:01:18Z</time>
      </trkpt>
      <trkpt lat="41.85785" lon="2.870995">
        <ele>171.0</ele>
        <time>2021-08-14T14:01:21Z</time>
      </trkpt>
      <trkpt lat="41.857775" lon="2.870987">
        <ele>171.0</ele>
        <time>2021-08-14T14:01:23Z</time>
      </trkpt>
      <trkpt lat="41.857675" lon="2.870972">
        <ele>171.0</ele>
        <time>2021-08-14T14:01:26Z</time>
      </trkpt>
      <trkpt lat="41.85758" lon="2.87095">
        <ele>172.0</ele>
        <time>2021-08-14T14:01:29Z</time>
      </trkpt>
      <trkpt lat="41.857505" lon="2.87094">
        <ele>172.0</ele>
        <time>2021-08-14T14:01:31Z</time>
      </trkpt>
      <trkpt lat="41.85743" lon="2.87093">
        <ele>173.0</ele>
        <time>2021-08-14T14:01:33Z</time>
      </trkpt>
      <trkpt lat="41.857345" lon="2.87092">
        <ele>173.0</ele>
        <time>2021-08-14T14:01:35Z</time>
      </trkpt>
      <trkpt lat="41.85725" lon="2.870903">
        <ele>173.0</ele>
        <time>2021-08-14T14:01:38Z</time>
      </trkpt>
      <trkpt lat="41.857175" lon="2.870915">
        <ele>173.0</ele>
        <time>2021-08-14T14:01:40Z</time>
      </trkpt>
      <trkpt lat="41.857095" lon="2.87092">
        <ele>173.0</ele>
        <time>2021-08-14T14:01:42Z</time>
      </trkpt>
      <trkpt lat="41.857012" lon="2.870923">
        <ele>173.0</ele>
        <time>2021-08-14T14:01:44Z</time>
      </trkpt>
      <trkpt lat="41.856923" lon="2.870923">
        <ele>174.0</ele>
        <time>2021-08-14T14:01:46Z</time>
      </trkpt>
      <trkpt lat="41.856825" lon="2.87092">
        <ele>174.0</ele>
        <time>2021-08-14T14:01:48Z</time>
      </trkpt>
      <trkpt lat="41.856745" lon="2.87088">
        <ele>175.0</ele>
        <time>2021-08-14T14:01:49Z</time>
      </trkpt>
      <trkpt lat="41.85667" lon="2.870835">
        <ele>175.0</ele>
        <time>2021-08-14T14:01:50Z</time>
      </trkpt>
      <trkpt lat="41.856555" lon="2.870755">
        <ele>175.0</ele>
        <time>2021-08-14T14:01:52Z</time>
      </trkpt>
      <trkpt lat="41.85644" lon="2.870688">
        <ele>175.0</ele>
        <time>2021-08-14T14:01:54Z</time>
      </trkpt>
      <trkpt lat="41.856345" lon="2.87062">
        <ele>175.0</ele>
        <time>2021-08-14T14:01:56Z</time>
      </trkpt>
      <trkpt lat="41.856265" lon="2.87054">
        <ele>174.0</ele>
        <time>2021-08-14T14:01:58Z</time>
      </trkpt>
      <trkpt lat="41.856175" lon="2.870467">
        <ele>173.0</ele>
        <time>2021-08-14T14:02:00Z</time>
      </trkpt>
      <trkpt lat="41.856085" lon="2.870405">
        <ele>173.0</ele>
        <time>2021-08-14T14:02:02Z</time>
      </trkpt>
      <trkpt lat="41.855995" lon="2.870345">
        <ele>173.0</ele>
        <time>2021-08-14T14:02:04Z</time>
      </trkpt>
      <trkpt lat="41.85591" lon="2.870285">
        <ele>173.0</ele>
        <time>2021-08-14T14:02:06Z</time>
      </trkpt>
      <trkpt lat="41.855815" lon="2.870215">
        <ele>174.0</ele>
        <time>2021-08-14T14:02:08Z</time>
      </trkpt>
      <trkpt lat="41.855722" lon="2.870137">
        <ele>174.0</ele>
        <time>2021-08-14T14:02:10Z</time>
      </trkpt>
      <trkpt lat="41.855628" lon="2.87006">
        <ele>175.0</ele>
        <time>2021-08-14T14:02:12Z</time>
      </trkpt>
      <trkpt lat="41.855545" lon="2.869987">
        <ele>174.0</ele>
        <time>2021-08-14T14:02:14Z</time>
      </trkpt>
      <trkpt lat="41.855473" lon="2.869948">
        <ele>174.0</ele>
        <time>2021-08-14T14:02:17Z</time>
      </trkpt>
      <trkpt lat="41.855403" lon="2.8699">
        <ele>174.0</ele>
        <time>2021-08-14T14:02:21Z</time>
      </trkpt>
      <trkpt lat="41.855435" lon="2.869925">
        <ele>173.0</ele>
        <time>2021-08-14T14:02:28Z</time>
      </trkpt>
      <trkpt lat="41.85545" lon="2.87003">
        <ele>173.0</ele>
        <time>2021-08-14T14:02:32Z</time>
      </trkpt>
      <trkpt lat="41.855395" lon="2.870125">
        <ele>172.0</ele>
        <time>2021-08-14T14:02:35Z</time>
      </trkpt>
      <trkpt lat="41.85534" lon="2.870235">
        <ele>171.0</ele>
        <time>2021-08-14T14:02:38Z</time>
      </trkpt>
      <trkpt lat="41.85529" lon="2.87036">
        <ele>171.0</ele>
        <time>2021-08-14T14:02:41Z</time>
      </trkpt>
      <trkpt lat="41.855255" lon="2.87045">
        <ele>170.0</ele>
        <time>2021-08-14T14:02:43Z</time>
      </trkpt>
      <trkpt lat="41.85523" lon="2.870542">
        <ele>169.0</ele>
        <time>2021-08-14T14:02:45Z</time>
      </trkpt>
      <trkpt lat="41.855185" lon="2.870642">
        <ele>168.0</ele>
        <time>2021-08-14T14:02:47Z</time>
      </trkpt>
      <trkpt lat="41.85514" lon="2.870747">
        <ele>168.0</ele>
        <time>2021-08-14T14:02:49Z</time>
      </trkpt>
      <trkpt lat="41.855102" lon="2.870855">
        <ele>167.0</ele>
        <time>2021-08-14T14:02:51Z</time>
      </trkpt>
      <trkpt lat="41.85505" lon="2.87097">
        <ele>167.0</ele>
        <time>2021-08-14T14:02:53Z</time>
      </trkpt>
      <trkpt lat="41.855002" lon="2.871093">
        <ele>167.0</ele>
        <time>2021-08-14T14:02:55Z</time>
      </trkpt>
      <trkpt lat="41.85496" lon="2.871215">
        <ele>166.0</ele>
        <time>2021-08-14T14:02:57Z</time>
      </trkpt>
      <trkpt lat="41.854917" lon="2.87134">
        <ele>166.0</ele>
        <time>2021-08-14T14:02:59Z</time>
      </trkpt>
      <trkpt lat="41.854867" lon="2.87147">
        <ele>165.0</ele>
        <time>2021-08-14T14:03:01Z</time>
      </trkpt>
      <trkpt lat="41.854825" lon="2.87158">
        <ele>164.0</ele>
        <time>2021-08-14T14:03:03Z</time>
      </trkpt>
      <trkpt lat="41.85478" lon="2.8717">
        <ele>164.0</ele>
        <time>2021-08-14T14:03:05Z</time>
      </trkpt>
      <trkpt lat="41.854725" lon="2.871805">
        <ele>164.0</ele>
        <time>2021-08-14T14:03:07Z</time>
      </trkpt>
      <trkpt lat="41.854657" lon="2.871905">
        <ele>164.0</ele>
        <time>2021-08-14T14:03:09Z</time>
      </trkpt>
      <trkpt lat="41.854568" lon="2.871987">
        <ele>164.0</ele>
        <time>2021-08-14T14:03:11Z</time>
      </trkpt>
      <trkpt lat="41.85447" lon="2.87205">
        <ele>165.0</ele>
        <time>2021-08-14T14:03:13Z</time>
      </trkpt>
      <trkpt lat="41.854365" lon="2.872092">
        <ele>165.0</ele>
        <time>2021-08-14T14:03:15Z</time>
      </trkpt>
      <trkpt lat="41.854255" lon="2.87213">
        <ele>165.0</ele>
        <time>2021-08-14T14:03:17Z</time>
      </trkpt>
      <trkpt lat="41.854157" lon="2.87216">
        <ele>165.0</ele>
        <time>2021-08-14T14:03:19Z</time>
      </trkpt>
      <trkpt lat="41.854065" lon="2.87218">
        <ele>166.0</ele>
        <time>2021-08-14T14:03:21Z</time>
      </trkpt>
      <trkpt lat="41.853972" lon="2.872265">
        <ele>166.0</ele>
        <time>2021-08-14T14:03:23Z</time>
      </trkpt>
      <trkpt lat="41.853895" lon="2.87235">
        <ele>166.0</ele>
        <time>2021-08-14T14:03:25Z</time>
      </trkpt>
      <trkpt lat="41.853812" lon="2.872465">
        <ele>167.0</ele>
        <time>2021-08-14T14:03:27Z</time>
      </trkpt>
      <trkpt lat="41.853742" lon="2.872575">
        <ele>167.0</ele>
        <time>2021-08-14T14:03:29Z</time>
      </trkpt>
      <trkpt lat="41.85367" lon="2.87268">
        <ele>168.0</ele>
        <time>2021-08-14T14:03:31Z</time>
      </trkpt>
      <trkpt lat="41.8536" lon="2.872785">
        <ele>169.0</ele>
        <time>2021-08-14T14:03:33Z</time>
      </trkpt>
      <trkpt lat="41.853542" lon="2.872875">
        <ele>169.0</ele>
        <time>2021-08-14T14:03:35Z</time>
      </trkpt>
      <trkpt lat="41.853477" lon="2.872955">
        <ele>168.0</ele>
        <time>2021-08-14T14:03:37Z</time>
      </trkpt>
      <trkpt lat="41.853422" lon="2.873035">
        <ele>169.0</ele>
        <time>2021-08-14T14:03:39Z</time>
      </trkpt>
      <trkpt lat="41.853363" lon="2.873125">
        <ele>169.0</ele>
        <time>2021-08-14T14:03:41Z</time>
      </trkpt>
      <trkpt lat="41.853315" lon="2.873202">
        <ele>169.0</ele>
        <time>2021-08-14T14:03:43Z</time>
      </trkpt>
      <trkpt lat="41.853245" lon="2.873285">
        <ele>170.0</ele>
        <time>2021-08-14T14:03:45Z</time>
      </trkpt>
      <trkpt lat="41.85318" lon="2.87333">
        <ele>170.0</ele>
        <time>2021-08-14T14:03:47Z</time>
      </trkpt>
      <trkpt lat="41.8531" lon="2.873338">
        <ele>170.0</ele>
        <time>2021-08-14T14:03:49Z</time>
      </trkpt>
      <trkpt lat="41.85298" lon="2.873345">
        <ele>170.0</ele>
        <time>2021-08-14T14:03:51Z</time>
      </trkpt>
      <trkpt lat="41.85285" lon="2.873365">
        <ele>171.0</ele>
        <time>2021-08-14T14:03:53Z</time>
      </trkpt>
      <trkpt lat="41.852725" lon="2.873423">
        <ele>171.0</ele>
        <time>2021-08-14T14:03:55Z</time>
      </trkpt>
      <trkpt lat="41.852598" lon="2.873465">
        <ele>171.0</ele>
        <time>2021-08-14T14:03:57Z</time>
      </trkpt>
      <trkpt lat="41.85247" lon="2.87352">
        <ele>171.0</ele>
        <time>2021-08-14T14:03:59Z</time>
      </trkpt>
      <trkpt lat="41.852355" lon="2.873562">
        <ele>171.0</ele>
        <time>2021-08-14T14:04:01Z</time>
      </trkpt>
      <trkpt lat="41.852235" lon="2.873592">
        <ele>171.0</ele>
        <time>2021-08-14T14:04:03Z</time>
      </trkpt>
      <trkpt lat="41.85216" lon="2.873602">
        <ele>171.0</ele>
        <time>2021-08-14T14:04:04Z</time>
      </trkpt>
      <trkpt lat="41.85202" lon="2.87364">
        <ele>170.0</ele>
        <time>2021-08-14T14:04:06Z</time>
      </trkpt>
      <trkpt lat="41.851947" lon="2.87365">
        <ele>171.0</ele>
        <time>2021-08-14T14:04:07Z</time>
      </trkpt>
      <trkpt lat="41.85181" lon="2.873687">
        <ele>170.0</ele>
        <time>2021-08-14T14:04:09Z</time>
      </trkpt>
      <trkpt lat="41.851685" lon="2.873715">
        <ele>170.0</ele>
        <time>2021-08-14T14:04:11Z</time>
      </trkpt>
      <trkpt lat="41.851567" lon="2.87375">
        <ele>169.0</ele>
        <time>2021-08-14T14:04:13Z</time>
      </trkpt>
      <trkpt lat="41.85145" lon="2.873783">
        <ele>168.0</ele>
        <time>2021-08-14T14:04:15Z</time>
      </trkpt>
      <trkpt lat="41.851335" lon="2.87384">
        <ele>168.0</ele>
        <time>2021-08-14T14:04:17Z</time>
      </trkpt>
      <trkpt lat="41.851225" lon="2.873878">
        <ele>167.0</ele>
        <time>2021-08-14T14:04:19Z</time>
      </trkpt>
      <trkpt lat="41.851102" lon="2.873925">
        <ele>166.0</ele>
        <time>2021-08-14T14:04:21Z</time>
      </trkpt>
      <trkpt lat="41.850985" lon="2.87398">
        <ele>165.0</ele>
        <time>2021-08-14T14:04:23Z</time>
      </trkpt>
      <trkpt lat="41.85087" lon="2.874027">
        <ele>165.0</ele>
        <time>2021-08-14T14:04:25Z</time>
      </trkpt>
      <trkpt lat="41.850755" lon="2.874078">
        <ele>164.0</ele>
        <time>2021-08-14T14:04:27Z</time>
      </trkpt>
      <trkpt lat="41.850645" lon="2.874133">
        <ele>164.0</ele>
        <time>2021-08-14T14:04:29Z</time>
      </trkpt>
      <trkpt lat="41.85054" lon="2.87419">
        <ele>163.0</ele>
        <time>2021-08-14T14:04:31Z</time>
      </trkpt>
      <trkpt lat="41.850435" lon="2.874255">
        <ele>162.0</ele>
        <time>2021-08-14T14:04:33Z</time>
      </trkpt>
      <trkpt lat="41.850335" lon="2.874323">
        <ele>162.0</ele>
        <time>2021-08-14T14:04:35Z</time>
      </trkpt>
      <trkpt lat="41.850235" lon="2.87441">
        <ele>161.0</ele>
        <time>2021-08-14T14:04:37Z</time>
      </trkpt>
      <trkpt lat="41.85014" lon="2.874497">
        <ele>160.0</ele>
        <time>2021-08-14T14:04:39Z</time>
      </trkpt>
      <trkpt lat="41.850052" lon="2.874587">
        <ele>161.0</ele>
        <time>2021-08-14T14:04:41Z</time>
      </trkpt>
      <trkpt lat="41.849965" lon="2.874688">
        <ele>160.0</ele>
        <time>2021-08-14T14:04:43Z</time>
      </trkpt>
      <trkpt lat="41.849887" lon="2.874795">
        <ele>160.0</ele>
        <time>2021-08-14T14:04:45Z</time>
      </trkpt>
      <trkpt lat="41.84981" lon="2.874902">
        <ele>160.0</ele>
        <time>2021-08-14T14:04:47Z</time>
      </trkpt>
      <trkpt lat="41.849733" lon="2.875015">
        <ele>159.0</ele>
        <time>2021-08-14T14:04:49Z</time>
      </trkpt>
      <trkpt lat="41.849663" lon="2.875122">
        <ele>158.0</ele>
        <time>2021-08-14T14:04:51Z</time>
      </trkpt>
      <trkpt lat="41.84961" lon="2.875232">
        <ele>158.0</ele>
        <time>2021-08-14T14:04:53Z</time>
      </trkpt>
      <trkpt lat="41.84955" lon="2.875345">
        <ele>159.0</ele>
        <time>2021-08-14T14:04:55Z</time>
      </trkpt>
      <trkpt lat="41.849507" lon="2.87546">
        <ele>160.0</ele>
        <time>2021-08-14T14:04:57Z</time>
      </trkpt>
      <trkpt lat="41.849525" lon="2.875567">
        <ele>159.0</ele>
        <time>2021-08-14T14:04:59Z</time>
      </trkpt>
      <trkpt lat="41.849597" lon="2.87565">
        <ele>159.0</ele>
        <time>2021-08-14T14:05:01Z</time>
      </trkpt>
      <trkpt lat="41.849672" lon="2.875705">
        <ele>160.0</ele>
        <time>2021-08-14T14:05:03Z</time>
      </trkpt>
      <trkpt lat="41.84975" lon="2.87579">
        <ele>160.0</ele>
        <time>2021-08-14T14:05:05Z</time>
      </trkpt>
      <trkpt lat="41.849835" lon="2.875865">
        <ele>160.0</ele>
        <time>2021-08-14T14:05:07Z</time>
      </trkpt>
      <trkpt lat="41.849925" lon="2.875937">
        <ele>161.0</ele>
        <time>2021-08-14T14:05:09Z</time>
      </trkpt>
      <trkpt lat="41.850005" lon="2.876005">
        <ele>161.0</ele>
        <time>2021-08-14T14:05:11Z</time>
      </trkpt>
      <trkpt lat="41.850085" lon="2.876075">
        <ele>161.0</ele>
        <time>2021-08-14T14:05:13Z</time>
      </trkpt>
      <trkpt lat="41.85017" lon="2.876152">
        <ele>162.0</ele>
        <time>2021-08-14T14:05:15Z</time>
      </trkpt>
      <trkpt lat="41.850262" lon="2.87622">
        <ele>162.0</ele>
        <time>2021-08-14T14:05:17Z</time>
      </trkpt>
      <trkpt lat="41.85035" lon="2.876277">
        <ele>162.0</ele>
        <time>2021-08-14T14:05:19Z</time>
      </trkpt>
      <trkpt lat="41.850437" lon="2.876325">
        <ele>162.0</ele>
        <time>2021-08-14T14:05:21Z</time>
      </trkpt>
      <trkpt lat="41.85053" lon="2.876355">
        <ele>163.0</ele>
        <time>2021-08-14T14:05:23Z</time>
      </trkpt>
      <trkpt lat="41.850632" lon="2.876385">
        <ele>164.0</ele>
        <time>2021-08-14T14:05:25Z</time>
      </trkpt>
      <trkpt lat="41.850735" lon="2.876425">
        <ele>164.0</ele>
        <time>2021-08-14T14:05:27Z</time>
      </trkpt>
      <trkpt lat="41.85083" lon="2.87646">
        <ele>164.0</ele>
        <time>2021-08-14T14:05:29Z</time>
      </trkpt>
      <trkpt lat="41.850928" lon="2.876493">
        <ele>164.0</ele>
        <time>2021-08-14T14:05:31Z</time>
      </trkpt>
      <trkpt lat="41.85101" lon="2.87654">
        <ele>163.0</ele>
        <time>2021-08-14T14:05:33Z</time>
      </trkpt>
      <trkpt lat="41.85108" lon="2.876575">
        <ele>164.0</ele>
        <time>2021-08-14T14:05:35Z</time>
      </trkpt>
      <trkpt lat="41.851072" lon="2.876673">
        <ele>164.0</ele>
        <time>2021-08-14T14:05:40Z</time>
      </trkpt>
      <trkpt lat="41.850985" lon="2.876738">
        <ele>164.0</ele>
        <time>2021-08-14T14:05:43Z</time>
      </trkpt>
      <trkpt lat="41.850895" lon="2.876797">
        <ele>165.0</ele>
        <time>2021-08-14T14:05:45Z</time>
      </trkpt>
      <trkpt lat="41.850822" lon="2.876847">
        <ele>165.0</ele>
        <time>2021-08-14T14:05:47Z</time>
      </trkpt>
      <trkpt lat="41.850735" lon="2.8769">
        <ele>165.0</ele>
        <time>2021-08-14T14:05:49Z</time>
      </trkpt>
      <trkpt lat="41.850645" lon="2.87696">
        <ele>165.0</ele>
        <time>2021-08-14T14:05:51Z</time>
      </trkpt>
      <trkpt lat="41.850555" lon="2.877012">
        <ele>165.0</ele>
        <time>2021-08-14T14:05:53Z</time>
      </trkpt>
      <trkpt lat="41.850462" lon="2.87707">
        <ele>165.0</ele>
        <time>2021-08-14T14:05:55Z</time>
      </trkpt>
      <trkpt lat="41.85037" lon="2.877125">
        <ele>165.0</ele>
        <time>2021-08-14T14:05:57Z</time>
      </trkpt>
      <trkpt lat="41.85028" lon="2.877187">
        <ele>164.0</ele>
        <time>2021-08-14T14:05:59Z</time>
      </trkpt>
      <trkpt lat="41.85019" lon="2.877245">
        <ele>164.0</ele>
        <time>2021-08-14T14:06:01Z</time>
      </trkpt>
      <trkpt lat="41.850102" lon="2.8773">
        <ele>163.0</ele>
        <time>2021-08-14T14:06:03Z</time>
      </trkpt>
      <trkpt lat="41.850007" lon="2.87736">
        <ele>163.0</ele>
        <time>2021-08-14T14:06:05Z</time>
      </trkpt>
      <trkpt lat="41.84992" lon="2.877415">
        <ele>163.0</ele>
        <time>2021-08-14T14:06:07Z</time>
      </trkpt>
      <trkpt lat="41.849835" lon="2.87747">
        <ele>162.0</ele>
        <time>2021-08-14T14:06:09Z</time>
      </trkpt>
      <trkpt lat="41.849755" lon="2.87752">
        <ele>162.0</ele>
        <time>2021-08-14T14:06:11Z</time>
      </trkpt>
      <trkpt lat="41.849675" lon="2.877573">
        <ele>162.0</ele>
        <time>2021-08-14T14:06:13Z</time>
      </trkpt>
      <trkpt lat="41.84959" lon="2.877642">
        <ele>162.0</ele>
        <time>2021-08-14T14:06:15Z</time>
      </trkpt>
      <trkpt lat="41.849493" lon="2.8777">
        <ele>161.0</ele>
        <time>2021-08-14T14:06:17Z</time>
      </trkpt>
      <trkpt lat="41.849395" lon="2.877755">
        <ele>161.0</ele>
        <time>2021-08-14T14:06:19Z</time>
      </trkpt>
      <trkpt lat="41.849295" lon="2.877817">
        <ele>161.0</ele>
        <time>2021-08-14T14:06:21Z</time>
      </trkpt>
      <trkpt lat="41.849207" lon="2.87788">
        <ele>161.0</ele>
        <time>2021-08-14T14:06:23Z</time>
      </trkpt>
      <trkpt lat="41.84911" lon="2.87794">
        <ele>161.0</ele>
        <time>2021-08-14T14:06:25Z</time>
      </trkpt>
      <trkpt lat="41.849015" lon="2.878005">
        <ele>161.0</ele>
        <time>2021-08-14T14:06:27Z</time>
      </trkpt>
      <trkpt lat="41.84892" lon="2.87806">
        <ele>161.0</ele>
        <time>2021-08-14T14:06:29Z</time>
      </trkpt>
      <trkpt lat="41.84883" lon="2.878115">
        <ele>161.0</ele>
        <time>2021-08-14T14:06:31Z</time>
      </trkpt>
      <trkpt lat="41.848733" lon="2.878165">
        <ele>161.0</ele>
        <time>2021-08-14T14:06:33Z</time>
      </trkpt>
      <trkpt lat="41.848647" lon="2.878225">
        <ele>161.0</ele>
        <time>2021-08-14T14:06:35Z</time>
      </trkpt>
      <trkpt lat="41.848575" lon="2.878277">
        <ele>161.0</ele>
        <time>2021-08-14T14:06:37Z</time>
      </trkpt>
      <trkpt lat="41.848502" lon="2.878315">
        <ele>161.0</ele>
        <time>2021-08-14T14:06:39Z</time>
      </trkpt>
      <trkpt lat="41.848432" lon="2.878357">
        <ele>161.0</ele>
        <time>2021-08-14T14:06:41Z</time>
      </trkpt>
      <trkpt lat="41.848353" lon="2.8784">
        <ele>161.0</ele>
        <time>2021-08-14T14:06:43Z</time>
      </trkpt>
      <trkpt lat="41.848277" lon="2.878435">
        <ele>160.0</ele>
        <time>2021-08-14T14:06:45Z</time>
      </trkpt>
      <trkpt lat="41.848197" lon="2.878477">
        <ele>160.0</ele>
        <time>2021-08-14T14:06:47Z</time>
      </trkpt>
      <trkpt lat="41.84812" lon="2.87852">
        <ele>160.0</ele>
        <time>2021-08-14T14:06:49Z</time>
      </trkpt>
      <trkpt lat="41.84803" lon="2.878552">
        <ele>160.0</ele>
        <time>2021-08-14T14:06:51Z</time>
      </trkpt>
      <trkpt lat="41.847947" lon="2.87859">
        <ele>160.0</ele>
        <time>2021-08-14T14:06:53Z</time>
      </trkpt>
      <trkpt lat="41.84786" lon="2.878627">
        <ele>161.0</ele>
        <time>2021-08-14T14:06:55Z</time>
      </trkpt>
      <trkpt lat="41.847775" lon="2.878675">
        <ele>161.0</ele>
        <time>2021-08-14T14:06:57Z</time>
      </trkpt>
      <trkpt lat="41.847685" lon="2.878718">
        <ele>160.0</ele>
        <time>2021-08-14T14:06:59Z</time>
      </trkpt>
      <trkpt lat="41.847592" lon="2.87876">
        <ele>160.0</ele>
        <time>2021-08-14T14:07:01Z</time>
      </trkpt>
      <trkpt lat="41.847505" lon="2.878803">
        <ele>160.0</ele>
        <time>2021-08-14T14:07:03Z</time>
      </trkpt>
      <trkpt lat="41.84741" lon="2.87885">
        <ele>160.0</ele>
        <time>2021-08-14T14:07:05Z</time>
      </trkpt>
      <trkpt lat="41.847315" lon="2.878895">
        <ele>160.0</ele>
        <time>2021-08-14T14:07:07Z</time>
      </trkpt>
      <trkpt lat="41.847223" lon="2.87894">
        <ele>159.0</ele>
        <time>2021-08-14T14:07:09Z</time>
      </trkpt>
      <trkpt lat="41.84713" lon="2.878985">
        <ele>159.0</ele>
        <time>2021-08-14T14:07:11Z</time>
      </trkpt>
      <trkpt lat="41.847045" lon="2.87903">
        <ele>159.0</ele>
        <time>2021-08-14T14:07:13Z</time>
      </trkpt>
      <trkpt lat="41.84695" lon="2.879075">
        <ele>160.0</ele>
        <time>2021-08-14T14:07:15Z</time>
      </trkpt>
      <trkpt lat="41.846865" lon="2.87912">
        <ele>160.0</ele>
        <time>2021-08-14T14:07:17Z</time>
      </trkpt>
      <trkpt lat="41.846775" lon="2.87918">
        <ele>160.0</ele>
        <time>2021-08-14T14:07:19Z</time>
      </trkpt>
      <trkpt lat="41.846682" lon="2.879225">
        <ele>160.0</ele>
        <time>2021-08-14T14:07:21Z</time>
      </trkpt>
      <trkpt lat="41.84658" lon="2.879258">
        <ele>159.0</ele>
        <time>2021-08-14T14:07:23Z</time>
      </trkpt>
      <trkpt lat="41.84648" lon="2.879287">
        <ele>159.0</ele>
        <time>2021-08-14T14:07:25Z</time>
      </trkpt>
      <trkpt lat="41.84638" lon="2.879305">
        <ele>160.0</ele>
        <time>2021-08-14T14:07:27Z</time>
      </trkpt>
      <trkpt lat="41.84629" lon="2.87934">
        <ele>160.0</ele>
        <time>2021-08-14T14:07:29Z</time>
      </trkpt>
      <trkpt lat="41.846195" lon="2.879357">
        <ele>160.0</ele>
        <time>2021-08-14T14:07:31Z</time>
      </trkpt>
      <trkpt lat="41.846102" lon="2.87938">
        <ele>160.0</ele>
        <time>2021-08-14T14:07:33Z</time>
      </trkpt>
      <trkpt lat="41.84602" lon="2.879415">
        <ele>160.0</ele>
        <time>2021-08-14T14:07:35Z</time>
      </trkpt>
      <trkpt lat="41.845947" lon="2.879445">
        <ele>160.0</ele>
        <time>2021-08-14T14:07:37Z</time>
      </trkpt>
      <trkpt lat="41.845867" lon="2.879455">
        <ele>160.0</ele>
        <time>2021-08-14T14:07:39Z</time>
      </trkpt>
      <trkpt lat="41.845777" lon="2.87947">
        <ele>161.0</ele>
        <time>2021-08-14T14:07:41Z</time>
      </trkpt>
      <trkpt lat="41.84569" lon="2.879507">
        <ele>160.0</ele>
        <time>2021-08-14T14:07:43Z</time>
      </trkpt>
      <trkpt lat="41.845605" lon="2.879535">
        <ele>160.0</ele>
        <time>2021-08-14T14:07:45Z</time>
      </trkpt>
      <trkpt lat="41.84552" lon="2.879565">
        <ele>160.0</ele>
        <time>2021-08-14T14:07:47Z</time>
      </trkpt>
      <trkpt lat="41.845435" lon="2.879595">
        <ele>160.0</ele>
        <time>2021-08-14T14:07:49Z</time>
      </trkpt>
      <trkpt lat="41.845355" lon="2.879632">
        <ele>161.0</ele>
        <time>2021-08-14T14:07:51Z</time>
      </trkpt>
      <trkpt lat="41.84527" lon="2.879665">
        <ele>162.0</ele>
        <time>2021-08-14T14:07:53Z</time>
      </trkpt>
      <trkpt lat="41.845185" lon="2.879687">
        <ele>162.0</ele>
        <time>2021-08-14T14:07:55Z</time>
      </trkpt>
      <trkpt lat="41.84509" lon="2.879722">
        <ele>162.0</ele>
        <time>2021-08-14T14:07:57Z</time>
      </trkpt>
      <trkpt lat="41.84501" lon="2.879755">
        <ele>162.0</ele>
        <time>2021-08-14T14:07:59Z</time>
      </trkpt>
      <trkpt lat="41.844925" lon="2.879792">
        <ele>162.0</ele>
        <time>2021-08-14T14:08:01Z</time>
      </trkpt>
      <trkpt lat="41.84484" lon="2.879825">
        <ele>163.0</ele>
        <time>2021-08-14T14:08:03Z</time>
      </trkpt>
      <trkpt lat="41.84475" lon="2.879865">
        <ele>162.0</ele>
        <time>2021-08-14T14:08:05Z</time>
      </trkpt>
      <trkpt lat="41.84465" lon="2.879905">
        <ele>162.0</ele>
        <time>2021-08-14T14:08:07Z</time>
      </trkpt>
      <trkpt lat="41.844555" lon="2.87995">
        <ele>162.0</ele>
        <time>2021-08-14T14:08:09Z</time>
      </trkpt>
      <trkpt lat="41.844455" lon="2.879995">
        <ele>162.0</ele>
        <time>2021-08-14T14:08:11Z</time>
      </trkpt>
      <trkpt lat="41.844357" lon="2.880035">
        <ele>162.0</ele>
        <time>2021-08-14T14:08:13Z</time>
      </trkpt>
      <trkpt lat="41.844265" lon="2.88008">
        <ele>161.0</ele>
        <time>2021-08-14T14:08:15Z</time>
      </trkpt>
      <trkpt lat="41.84417" lon="2.880125">
        <ele>160.0</ele>
        <time>2021-08-14T14:08:17Z</time>
      </trkpt>
      <trkpt lat="41.844075" lon="2.880157">
        <ele>160.0</ele>
        <time>2021-08-14T14:08:19Z</time>
      </trkpt>
      <trkpt lat="41.843985" lon="2.8802">
        <ele>161.0</ele>
        <time>2021-08-14T14:08:21Z</time>
      </trkpt>
      <trkpt lat="41.843902" lon="2.88023">
        <ele>161.0</ele>
        <time>2021-08-14T14:08:23Z</time>
      </trkpt>
      <trkpt lat="41.843802" lon="2.880272">
        <ele>161.0</ele>
        <time>2021-08-14T14:08:26Z</time>
      </trkpt>
      <trkpt lat="41.84372" lon="2.880305">
        <ele>162.0</ele>
        <time>2021-08-14T14:08:29Z</time>
      </trkpt>
      <trkpt lat="41.843645" lon="2.88032">
        <ele>162.0</ele>
        <time>2021-08-14T14:08:31Z</time>
      </trkpt>
      <trkpt lat="41.843565" lon="2.88035">
        <ele>163.0</ele>
        <time>2021-08-14T14:08:33Z</time>
      </trkpt>
      <trkpt lat="41.84349" lon="2.880385">
        <ele>163.0</ele>
        <time>2021-08-14T14:08:35Z</time>
      </trkpt>
      <trkpt lat="41.843407" lon="2.880422">
        <ele>163.0</ele>
        <time>2021-08-14T14:08:37Z</time>
      </trkpt>
      <trkpt lat="41.843315" lon="2.88046">
        <ele>163.0</ele>
        <time>2021-08-14T14:08:39Z</time>
      </trkpt>
      <trkpt lat="41.84321" lon="2.88051">
        <ele>163.0</ele>
        <time>2021-08-14T14:08:41Z</time>
      </trkpt>
      <trkpt lat="41.843105" lon="2.880555">
        <ele>163.0</ele>
        <time>2021-08-14T14:08:43Z</time>
      </trkpt>
      <trkpt lat="41.843012" lon="2.880597">
        <ele>164.0</ele>
        <time>2021-08-14T14:08:45Z</time>
      </trkpt>
      <trkpt lat="41.842917" lon="2.88063">
        <ele>164.0</ele>
        <time>2021-08-14T14:08:47Z</time>
      </trkpt>
      <trkpt lat="41.842822" lon="2.880672">
        <ele>164.0</ele>
        <time>2021-08-14T14:08:49Z</time>
      </trkpt>
      <trkpt lat="41.84272" lon="2.880715">
        <ele>163.0</ele>
        <time>2021-08-14T14:08:51Z</time>
      </trkpt>
      <trkpt lat="41.842613" lon="2.880757">
        <ele>163.0</ele>
        <time>2021-08-14T14:08:53Z</time>
      </trkpt>
      <trkpt lat="41.84251" lon="2.8808">
        <ele>163.0</ele>
        <time>2021-08-14T14:08:55Z</time>
      </trkpt>
      <trkpt lat="41.842415" lon="2.880845">
        <ele>162.0</ele>
        <time>2021-08-14T14:08:57Z</time>
      </trkpt>
      <trkpt lat="41.842325" lon="2.880885">
        <ele>163.0</ele>
        <time>2021-08-14T14:08:59Z</time>
      </trkpt>
      <trkpt lat="41.842232" lon="2.880925">
        <ele>163.0</ele>
        <time>2021-08-14T14:09:01Z</time>
      </trkpt>
      <trkpt lat="41.842143" lon="2.880962">
        <ele>163.0</ele>
        <time>2021-08-14T14:09:03Z</time>
      </trkpt>
      <trkpt lat="41.842062" lon="2.881002">
        <ele>164.0</ele>
        <time>2021-08-14T14:09:05Z</time>
      </trkpt>
      <trkpt lat="41.841985" lon="2.881035">
        <ele>164.0</ele>
        <time>2021-08-14T14:09:07Z</time>
      </trkpt>
      <trkpt lat="41.841907" lon="2.881065">
        <ele>164.0</ele>
        <time>2021-08-14T14:09:09Z</time>
      </trkpt>
      <trkpt lat="41.841833" lon="2.881097">
        <ele>164.0</ele>
        <time>2021-08-14T14:09:11Z</time>
      </trkpt>
      <trkpt lat="41.84176" lon="2.881132">
        <ele>164.0</ele>
        <time>2021-08-14T14:09:13Z</time>
      </trkpt>
      <trkpt lat="41.841683" lon="2.88117">
        <ele>165.0</ele>
        <time>2021-08-14T14:09:15Z</time>
      </trkpt>
      <trkpt lat="41.8416" lon="2.88121">
        <ele>165.0</ele>
        <time>2021-08-14T14:09:17Z</time>
      </trkpt>
      <trkpt lat="41.841525" lon="2.88125">
        <ele>165.0</ele>
        <time>2021-08-14T14:09:19Z</time>
      </trkpt>
      <trkpt lat="41.841455" lon="2.881285">
        <ele>165.0</ele>
        <time>2021-08-14T14:09:21Z</time>
      </trkpt>
      <trkpt lat="41.841385" lon="2.881318">
        <ele>166.0</ele>
        <time>2021-08-14T14:09:23Z</time>
      </trkpt>
      <trkpt lat="41.84131" lon="2.881353">
        <ele>166.0</ele>
        <time>2021-08-14T14:09:26Z</time>
      </trkpt>
      <trkpt lat="41.84124" lon="2.881382">
        <ele>167.0</ele>
        <time>2021-08-14T14:09:29Z</time>
      </trkpt>
      <trkpt lat="41.841157" lon="2.881418">
        <ele>168.0</ele>
        <time>2021-08-14T14:09:32Z</time>
      </trkpt>
      <trkpt lat="41.841077" lon="2.88145">
        <ele>168.0</ele>
        <time>2021-08-14T14:09:35Z</time>
      </trkpt>
      <trkpt lat="41.841007" lon="2.881492">
        <ele>169.0</ele>
        <time>2021-08-14T14:09:39Z</time>
      </trkpt>
      <trkpt lat="41.84093" lon="2.881513">
        <ele>169.0</ele>
        <time>2021-08-14T14:09:42Z</time>
      </trkpt>
      <trkpt lat="41.840852" lon="2.881545">
        <ele>169.0</ele>
        <time>2021-08-14T14:09:44Z</time>
      </trkpt>
      <trkpt lat="41.840755" lon="2.881583">
        <ele>170.0</ele>
        <time>2021-08-14T14:09:46Z</time>
      </trkpt>
      <trkpt lat="41.840655" lon="2.88162">
        <ele>169.0</ele>
        <time>2021-08-14T14:09:48Z</time>
      </trkpt>
      <trkpt lat="41.840555" lon="2.88165">
        <ele>169.0</ele>
        <time>2021-08-14T14:09:50Z</time>
      </trkpt>
      <trkpt lat="41.84046" lon="2.881672">
        <ele>169.0</ele>
        <time>2021-08-14T14:09:52Z</time>
      </trkpt>
      <trkpt lat="41.840365" lon="2.8817">
        <ele>169.0</ele>
        <time>2021-08-14T14:09:54Z</time>
      </trkpt>
      <trkpt lat="41.84028" lon="2.88174">
        <ele>169.0</ele>
        <time>2021-08-14T14:09:56Z</time>
      </trkpt>
      <trkpt lat="41.840195" lon="2.881772">
        <ele>170.0</ele>
        <time>2021-08-14T14:09:58Z</time>
      </trkpt>
      <trkpt lat="41.840115" lon="2.881805">
        <ele>169.0</ele>
        <time>2021-08-14T14:10:00Z</time>
      </trkpt>
      <trkpt lat="41.84003" lon="2.881835">
        <ele>169.0</ele>
        <time>2021-08-14T14:10:02Z</time>
      </trkpt>
      <trkpt lat="41.839945" lon="2.881875">
        <ele>168.0</ele>
        <time>2021-08-14T14:10:04Z</time>
      </trkpt>
      <trkpt lat="41.839855" lon="2.881912">
        <ele>168.0</ele>
        <time>2021-08-14T14:10:06Z</time>
      </trkpt>
      <trkpt lat="41.839767" lon="2.881945">
        <ele>168.0</ele>
        <time>2021-08-14T14:10:08Z</time>
      </trkpt>
      <trkpt lat="41.83968" lon="2.881985">
        <ele>168.0</ele>
        <time>2021-08-14T14:10:10Z</time>
      </trkpt>
      <trkpt lat="41.839585" lon="2.88202">
        <ele>168.0</ele>
        <time>2021-08-14T14:10:12Z</time>
      </trkpt>
      <trkpt lat="41.839495" lon="2.882053">
        <ele>167.0</ele>
        <time>2021-08-14T14:10:14Z</time>
      </trkpt>
      <trkpt lat="41.83941" lon="2.882097">
        <ele>166.0</ele>
        <time>2021-08-14T14:10:16Z</time>
      </trkpt>
      <trkpt lat="41.839315" lon="2.882127">
        <ele>166.0</ele>
        <time>2021-08-14T14:10:18Z</time>
      </trkpt>
      <trkpt lat="41.83923" lon="2.88216">
        <ele>166.0</ele>
        <time>2021-08-14T14:10:20Z</time>
      </trkpt>
      <trkpt lat="41.839145" lon="2.88219">
        <ele>166.0</ele>
        <time>2021-08-14T14:10:22Z</time>
      </trkpt>
      <trkpt lat="41.839052" lon="2.88223">
        <ele>165.0</ele>
        <time>2021-08-14T14:10:24Z</time>
      </trkpt>
      <trkpt lat="41.838955" lon="2.882265">
        <ele>164.0</ele>
        <time>2021-08-14T14:10:26Z</time>
      </trkpt>
      <trkpt lat="41.838865" lon="2.882298">
        <ele>164.0</ele>
        <time>2021-08-14T14:10:28Z</time>
      </trkpt>
      <trkpt lat="41.838775" lon="2.882338">
        <ele>164.0</ele>
        <time>2021-08-14T14:10:30Z</time>
      </trkpt>
      <trkpt lat="41.838695" lon="2.882375">
        <ele>164.0</ele>
        <time>2021-08-14T14:10:32Z</time>
      </trkpt>
      <trkpt lat="41.83861" lon="2.882415">
        <ele>164.0</ele>
        <time>2021-08-14T14:10:34Z</time>
      </trkpt>
      <trkpt lat="41.83853" lon="2.882445">
        <ele>165.0</ele>
        <time>2021-08-14T14:10:36Z</time>
      </trkpt>
      <trkpt lat="41.838455" lon="2.882485">
        <ele>165.0</ele>
        <time>2021-08-14T14:10:38Z</time>
      </trkpt>
      <trkpt lat="41.838375" lon="2.882525">
        <ele>165.0</ele>
        <time>2021-08-14T14:10:40Z</time>
      </trkpt>
      <trkpt lat="41.838295" lon="2.882563">
        <ele>165.0</ele>
        <time>2021-08-14T14:10:42Z</time>
      </trkpt>
      <trkpt lat="41.838215" lon="2.8826">
        <ele>166.0</ele>
        <time>2021-08-14T14:10:44Z</time>
      </trkpt>
      <trkpt lat="41.838138" lon="2.88264">
        <ele>166.0</ele>
        <time>2021-08-14T14:10:46Z</time>
      </trkpt>
      <trkpt lat="41.83806" lon="2.882675">
        <ele>166.0</ele>
        <time>2021-08-14T14:10:48Z</time>
      </trkpt>
      <trkpt lat="41.83798" lon="2.882705">
        <ele>166.0</ele>
        <time>2021-08-14T14:10:50Z</time>
      </trkpt>
      <trkpt lat="41.837907" lon="2.882735">
        <ele>167.0</ele>
        <time>2021-08-14T14:10:52Z</time>
      </trkpt>
      <trkpt lat="41.837822" lon="2.882765">
        <ele>167.0</ele>
        <time>2021-08-14T14:10:54Z</time>
      </trkpt>
      <trkpt lat="41.837742" lon="2.882797">
        <ele>167.0</ele>
        <time>2021-08-14T14:10:56Z</time>
      </trkpt>
      <trkpt lat="41.83766" lon="2.882835">
        <ele>167.0</ele>
        <time>2021-08-14T14:10:58Z</time>
      </trkpt>
      <trkpt lat="41.83758" lon="2.882862">
        <ele>167.0</ele>
        <time>2021-08-14T14:11:00Z</time>
      </trkpt>
      <trkpt lat="41.83749" lon="2.882897">
        <ele>167.0</ele>
        <time>2021-08-14T14:11:02Z</time>
      </trkpt>
      <trkpt lat="41.8374" lon="2.882932">
        <ele>166.0</ele>
        <time>2021-08-14T14:11:04Z</time>
      </trkpt>
      <trkpt lat="41.83731" lon="2.882962">
        <ele>166.0</ele>
        <time>2021-08-14T14:11:06Z</time>
      </trkpt>
      <trkpt lat="41.83723" lon="2.882995">
        <ele>166.0</ele>
        <time>2021-08-14T14:11:08Z</time>
      </trkpt>
      <trkpt lat="41.837145" lon="2.883035">
        <ele>166.0</ele>
        <time>2021-08-14T14:11:10Z</time>
      </trkpt>
      <trkpt lat="41.837062" lon="2.88307">
        <ele>167.0</ele>
        <time>2021-08-14T14:11:12Z</time>
      </trkpt>
      <trkpt lat="41.836982" lon="2.883097">
        <ele>167.0</ele>
        <time>2021-08-14T14:11:14Z</time>
      </trkpt>
      <trkpt lat="41.83689" lon="2.883123">
        <ele>167.0</ele>
        <time>2021-08-14T14:11:16Z</time>
      </trkpt>
      <trkpt lat="41.8368" lon="2.883165">
        <ele>167.0</ele>
        <time>2021-08-14T14:11:18Z</time>
      </trkpt>
      <trkpt lat="41.83671" lon="2.883197">
        <ele>167.0</ele>
        <time>2021-08-14T14:11:20Z</time>
      </trkpt>
      <trkpt lat="41.836613" lon="2.883228">
        <ele>167.0</ele>
        <time>2021-08-14T14:11:22Z</time>
      </trkpt>
      <trkpt lat="41.83653" lon="2.883267">
        <ele>168.0</ele>
        <time>2021-08-14T14:11:24Z</time>
      </trkpt>
      <trkpt lat="41.836445" lon="2.88331">
        <ele>167.0</ele>
        <time>2021-08-14T14:11:26Z</time>
      </trkpt>
      <trkpt lat="41.836355" lon="2.883345">
        <ele>167.0</ele>
        <time>2021-08-14T14:11:28Z</time>
      </trkpt>
      <trkpt lat="41.83627" lon="2.883385">
        <ele>167.0</ele>
        <time>2021-08-14T14:11:30Z</time>
      </trkpt>
      <trkpt lat="41.836187" lon="2.883425">
        <ele>168.0</ele>
        <time>2021-08-14T14:11:32Z</time>
      </trkpt>
      <trkpt lat="41.8361" lon="2.883462">
        <ele>168.0</ele>
        <time>2021-08-14T14:11:34Z</time>
      </trkpt>
      <trkpt lat="41.836012" lon="2.883495">
        <ele>168.0</ele>
        <time>2021-08-14T14:11:36Z</time>
      </trkpt>
      <trkpt lat="41.835925" lon="2.88353">
        <ele>167.0</ele>
        <time>2021-08-14T14:11:38Z</time>
      </trkpt>
      <trkpt lat="41.835845" lon="2.883562">
        <ele>168.0</ele>
        <time>2021-08-14T14:11:40Z</time>
      </trkpt>
      <trkpt lat="41.835762" lon="2.883595">
        <ele>167.0</ele>
        <time>2021-08-14T14:11:42Z</time>
      </trkpt>
      <trkpt lat="41.835675" lon="2.883635">
        <ele>167.0</ele>
        <time>2021-08-14T14:11:44Z</time>
      </trkpt>
      <trkpt lat="41.83558" lon="2.883673">
        <ele>167.0</ele>
        <time>2021-08-14T14:11:46Z</time>
      </trkpt>
      <trkpt lat="41.835485" lon="2.8837">
        <ele>167.0</ele>
        <time>2021-08-14T14:11:48Z</time>
      </trkpt>
      <trkpt lat="41.83539" lon="2.883725">
        <ele>167.0</ele>
        <time>2021-08-14T14:11:50Z</time>
      </trkpt>
      <trkpt lat="41.83529" lon="2.883747">
        <ele>167.0</ele>
        <time>2021-08-14T14:11:52Z</time>
      </trkpt>
      <trkpt lat="41.835195" lon="2.883777">
        <ele>167.0</ele>
        <time>2021-08-14T14:11:54Z</time>
      </trkpt>
      <trkpt lat="41.835105" lon="2.883805">
        <ele>166.0</ele>
        <time>2021-08-14T14:11:56Z</time>
      </trkpt>
      <trkpt lat="41.83504" lon="2.88385">
        <ele>166.0</ele>
        <time>2021-08-14T14:11:58Z</time>
      </trkpt>
      <trkpt lat="41.83497" lon="2.883885">
        <ele>167.0</ele>
        <time>2021-08-14T14:12:01Z</time>
      </trkpt>
      <trkpt lat="41.834895" lon="2.883908">
        <ele>167.0</ele>
        <time>2021-08-14T14:12:04Z</time>
      </trkpt>
      <trkpt lat="41.83481" lon="2.883942">
        <ele>167.0</ele>
        <time>2021-08-14T14:12:06Z</time>
      </trkpt>
      <trkpt lat="41.834712" lon="2.88398">
        <ele>167.0</ele>
        <time>2021-08-14T14:12:08Z</time>
      </trkpt>
      <trkpt lat="41.83461" lon="2.88402">
        <ele>166.0</ele>
        <time>2021-08-14T14:12:10Z</time>
      </trkpt>
      <trkpt lat="41.834515" lon="2.884055">
        <ele>165.0</ele>
        <time>2021-08-14T14:12:12Z</time>
      </trkpt>
      <trkpt lat="41.834425" lon="2.884107">
        <ele>165.0</ele>
        <time>2021-08-14T14:12:14Z</time>
      </trkpt>
      <trkpt lat="41.834337" lon="2.884145">
        <ele>165.0</ele>
        <time>2021-08-14T14:12:16Z</time>
      </trkpt>
      <trkpt lat="41.834255" lon="2.884175">
        <ele>165.0</ele>
        <time>2021-08-14T14:12:18Z</time>
      </trkpt>
      <trkpt lat="41.834175" lon="2.884213">
        <ele>165.0</ele>
        <time>2021-08-14T14:12:20Z</time>
      </trkpt>
      <trkpt lat="41.834095" lon="2.884255">
        <ele>164.0</ele>
        <time>2021-08-14T14:12:22Z</time>
      </trkpt>
      <trkpt lat="41.83401" lon="2.88429">
        <ele>164.0</ele>
        <time>2021-08-14T14:12:24Z</time>
      </trkpt>
      <trkpt lat="41.833925" lon="2.884325">
        <ele>165.0</ele>
        <time>2021-08-14T14:12:26Z</time>
      </trkpt>
      <trkpt lat="41.833845" lon="2.88436">
        <ele>165.0</ele>
        <time>2021-08-14T14:12:28Z</time>
      </trkpt>
      <trkpt lat="41.833765" lon="2.88439">
        <ele>165.0</ele>
        <time>2021-08-14T14:12:30Z</time>
      </trkpt>
      <trkpt lat="41.83368" lon="2.884425">
        <ele>165.0</ele>
        <time>2021-08-14T14:12:32Z</time>
      </trkpt>
      <trkpt lat="41.8336" lon="2.884458">
        <ele>166.0</ele>
        <time>2021-08-14T14:12:34Z</time>
      </trkpt>
      <trkpt lat="41.83352" lon="2.884495">
        <ele>165.0</ele>
        <time>2021-08-14T14:12:36Z</time>
      </trkpt>
      <trkpt lat="41.833442" lon="2.884517">
        <ele>165.0</ele>
        <time>2021-08-14T14:12:38Z</time>
      </trkpt>
      <trkpt lat="41.833365" lon="2.884547">
        <ele>164.0</ele>
        <time>2021-08-14T14:12:40Z</time>
      </trkpt>
      <trkpt lat="41.833282" lon="2.88458">
        <ele>164.0</ele>
        <time>2021-08-14T14:12:42Z</time>
      </trkpt>
      <trkpt lat="41.833195" lon="2.88462">
        <ele>164.0</ele>
        <time>2021-08-14T14:12:44Z</time>
      </trkpt>
      <trkpt lat="41.833115" lon="2.884658">
        <ele>163.0</ele>
        <time>2021-08-14T14:12:46Z</time>
      </trkpt>
      <trkpt lat="41.833035" lon="2.884695">
        <ele>163.0</ele>
        <time>2021-08-14T14:12:48Z</time>
      </trkpt>
      <trkpt lat="41.83296" lon="2.884715">
        <ele>162.0</ele>
        <time>2021-08-14T14:12:50Z</time>
      </trkpt>
      <trkpt lat="41.832865" lon="2.884735">
        <ele>163.0</ele>
        <time>2021-08-14T14:12:53Z</time>
      </trkpt>
      <trkpt lat="41.83279" lon="2.88477">
        <ele>164.0</ele>
        <time>2021-08-14T14:12:57Z</time>
      </trkpt>
      <trkpt lat="41.832785" lon="2.88476">
        <ele>164.0</ele>
        <time>2021-08-14T14:13:04Z</time>
      </trkpt>
      <trkpt lat="41.832795" lon="2.884727">
        <ele>167.0</ele>
        <time>2021-08-14T14:13:11Z</time>
      </trkpt>
      <trkpt lat="41.832835" lon="2.8847">
        <ele>168.0</ele>
        <time>2021-08-14T14:13:18Z</time>
      </trkpt>
      <trkpt lat="41.832835" lon="2.8847">
        <ele>168.0</ele>
        <time>2021-08-14T14:13:23Z</time>
      </trkpt>
      <trkpt lat="41.83283" lon="2.88474">
        <ele>170.0</ele>
        <time>2021-08-14T14:13:53Z</time>
      </trkpt>
      <trkpt lat="41.832832" lon="2.88475">
        <ele>170.0</ele>
        <time>2021-08-14T14:14:00Z</time>
      </trkpt>
      <trkpt lat="41.832832" lon="2.88475">
        <ele>170.0</ele>
        <time>2021-08-14T14:14:04Z</time>
      </trkpt>
      <trkpt lat="41.832837" lon="2.884772">
        <ele>170.0</ele>
        <time>2021-08-14T14:14:12Z</time>
      </trkpt>
      <trkpt lat="41.832837" lon="2.884772">
        <ele>170.0</ele>
        <time>2021-08-14T14:14:13Z</time>
      </trkpt>
      <trkpt lat="41.832755" lon="2.884807">
        <ele>169.0</ele>
        <time>2021-08-14T14:14:20Z</time>
      </trkpt>
      <trkpt lat="41.832657" lon="2.884827">
        <ele>170.0</ele>
        <time>2021-08-14T14:14:23Z</time>
      </trkpt>
      <trkpt lat="41.832585" lon="2.884855">
        <ele>170.0</ele>
        <time>2021-08-14T14:14:25Z</time>
      </trkpt>
      <trkpt lat="41.832502" lon="2.88489">
        <ele>170.0</ele>
        <time>2021-08-14T14:14:27Z</time>
      </trkpt>
      <trkpt lat="41.832425" lon="2.884925">
        <ele>170.0</ele>
        <time>2021-08-14T14:14:29Z</time>
      </trkpt>
      <trkpt lat="41.832345" lon="2.88497">
        <ele>170.0</ele>
        <time>2021-08-14T14:14:31Z</time>
      </trkpt>
      <trkpt lat="41.832265" lon="2.885008">
        <ele>169.0</ele>
        <time>2021-08-14T14:14:33Z</time>
      </trkpt>
      <trkpt lat="41.83218" lon="2.885045">
        <ele>169.0</ele>
        <time>2021-08-14T14:14:35Z</time>
      </trkpt>
      <trkpt lat="41.832095" lon="2.885082">
        <ele>169.0</ele>
        <time>2021-08-14T14:14:37Z</time>
      </trkpt>
      <trkpt lat="41.83201" lon="2.88511">
        <ele>169.0</ele>
        <time>2021-08-14T14:14:39Z</time>
      </trkpt>
      <trkpt lat="41.831925" lon="2.88514">
        <ele>169.0</ele>
        <time>2021-08-14T14:14:41Z</time>
      </trkpt>
      <trkpt lat="41.83184" lon="2.885173">
        <ele>168.0</ele>
        <time>2021-08-14T14:14:43Z</time>
      </trkpt>
      <trkpt lat="41.831752" lon="2.88521">
        <ele>168.0</ele>
        <time>2021-08-14T14:14:45Z</time>
      </trkpt>
      <trkpt lat="41.831665" lon="2.885245">
        <ele>168.0</ele>
        <time>2021-08-14T14:14:47Z</time>
      </trkpt>
      <trkpt lat="41.83158" lon="2.885275">
        <ele>168.0</ele>
        <time>2021-08-14T14:14:49Z</time>
      </trkpt>
      <trkpt lat="41.831485" lon="2.88531">
        <ele>168.0</ele>
        <time>2021-08-14T14:14:51Z</time>
      </trkpt>
      <trkpt lat="41.8314" lon="2.885345">
        <ele>168.0</ele>
        <time>2021-08-14T14:14:53Z</time>
      </trkpt>
      <trkpt lat="41.83132" lon="2.885375">
        <ele>168.0</ele>
        <time>2021-08-14T14:14:55Z</time>
      </trkpt>
      <trkpt lat="41.831237" lon="2.885415">
        <ele>167.0</ele>
        <time>2021-08-14T14:14:57Z</time>
      </trkpt>
      <trkpt lat="41.831152" lon="2.88545">
        <ele>167.0</ele>
        <time>2021-08-14T14:14:59Z</time>
      </trkpt>
      <trkpt lat="41.831065" lon="2.88549">
        <ele>167.0</ele>
        <time>2021-08-14T14:15:01Z</time>
      </trkpt>
      <trkpt lat="41.83097" lon="2.885515">
        <ele>168.0</ele>
        <time>2021-08-14T14:15:03Z</time>
      </trkpt>
      <trkpt lat="41.83088" lon="2.885548">
        <ele>168.0</ele>
        <time>2021-08-14T14:15:05Z</time>
      </trkpt>
      <trkpt lat="41.830795" lon="2.88559">
        <ele>167.0</ele>
        <time>2021-08-14T14:15:07Z</time>
      </trkpt>
      <trkpt lat="41.83072" lon="2.885623">
        <ele>167.0</ele>
        <time>2021-08-14T14:15:09Z</time>
      </trkpt>
      <trkpt lat="41.830637" lon="2.88566">
        <ele>167.0</ele>
        <time>2021-08-14T14:15:11Z</time>
      </trkpt>
      <trkpt lat="41.830553" lon="2.885695">
        <ele>167.0</ele>
        <time>2021-08-14T14:15:13Z</time>
      </trkpt>
      <trkpt lat="41.830475" lon="2.885725">
        <ele>167.0</ele>
        <time>2021-08-14T14:15:15Z</time>
      </trkpt>
      <trkpt lat="41.83039" lon="2.88576">
        <ele>167.0</ele>
        <time>2021-08-14T14:15:17Z</time>
      </trkpt>
      <trkpt lat="41.830305" lon="2.885802">
        <ele>167.0</ele>
        <time>2021-08-14T14:15:19Z</time>
      </trkpt>
      <trkpt lat="41.83023" lon="2.885845">
        <ele>167.0</ele>
        <time>2021-08-14T14:15:21Z</time>
      </trkpt>
      <trkpt lat="41.83015" lon="2.885875">
        <ele>167.0</ele>
        <time>2021-08-14T14:15:24Z</time>
      </trkpt>
      <trkpt lat="41.830095" lon="2.885898">
        <ele>170.0</ele>
        <time>2021-08-14T14:15:31Z</time>
      </trkpt>
      <trkpt lat="41.830087" lon="2.885902">
        <ele>170.0</ele>
        <time>2021-08-14T14:15:38Z</time>
      </trkpt>
      <trkpt lat="41.830017" lon="2.885925">
        <ele>170.0</ele>
        <time>2021-08-14T14:15:42Z</time>
      </trkpt>
      <trkpt lat="41.82992" lon="2.885927">
        <ele>170.0</ele>
        <time>2021-08-14T14:15:45Z</time>
      </trkpt>
      <trkpt lat="41.829842" lon="2.88597">
        <ele>169.0</ele>
        <time>2021-08-14T14:15:47Z</time>
      </trkpt>
      <trkpt lat="41.829775" lon="2.886005">
        <ele>169.0</ele>
        <time>2021-08-14T14:15:49Z</time>
      </trkpt>
      <trkpt lat="41.82967" lon="2.88605">
        <ele>170.0</ele>
        <time>2021-08-14T14:15:52Z</time>
      </trkpt>
      <trkpt lat="41.8296" lon="2.886085">
        <ele>170.0</ele>
        <time>2021-08-14T14:15:54Z</time>
      </trkpt>
      <trkpt lat="41.82952" lon="2.886115">
        <ele>170.0</ele>
        <time>2021-08-14T14:15:56Z</time>
      </trkpt>
      <trkpt lat="41.82944" lon="2.88615">
        <ele>169.0</ele>
        <time>2021-08-14T14:15:58Z</time>
      </trkpt>
      <trkpt lat="41.82937" lon="2.886183">
        <ele>169.0</ele>
        <time>2021-08-14T14:16:00Z</time>
      </trkpt>
      <trkpt lat="41.82929" lon="2.886225">
        <ele>169.0</ele>
        <time>2021-08-14T14:16:02Z</time>
      </trkpt>
      <trkpt lat="41.82921" lon="2.886252">
        <ele>169.0</ele>
        <time>2021-08-14T14:16:04Z</time>
      </trkpt>
      <trkpt lat="41.829135" lon="2.886285">
        <ele>170.0</ele>
        <time>2021-08-14T14:16:06Z</time>
      </trkpt>
      <trkpt lat="41.82906" lon="2.88632">
        <ele>170.0</ele>
        <time>2021-08-14T14:16:08Z</time>
      </trkpt>
      <trkpt lat="41.828975" lon="2.886355">
        <ele>170.0</ele>
        <time>2021-08-14T14:16:10Z</time>
      </trkpt>
      <trkpt lat="41.828893" lon="2.886382">
        <ele>170.0</ele>
        <time>2021-08-14T14:16:12Z</time>
      </trkpt>
      <trkpt lat="41.828815" lon="2.88641">
        <ele>170.0</ele>
        <time>2021-08-14T14:16:14Z</time>
      </trkpt>
      <trkpt lat="41.828727" lon="2.88645">
        <ele>170.0</ele>
        <time>2021-08-14T14:16:16Z</time>
      </trkpt>
      <trkpt lat="41.82864" lon="2.886495">
        <ele>170.0</ele>
        <time>2021-08-14T14:16:18Z</time>
      </trkpt>
      <trkpt lat="41.828555" lon="2.886532">
        <ele>170.0</ele>
        <time>2021-08-14T14:16:20Z</time>
      </trkpt>
      <trkpt lat="41.828475" lon="2.88657">
        <ele>170.0</ele>
        <time>2021-08-14T14:16:22Z</time>
      </trkpt>
      <trkpt lat="41.828385" lon="2.886607">
        <ele>170.0</ele>
        <time>2021-08-14T14:16:24Z</time>
      </trkpt>
      <trkpt lat="41.8283" lon="2.886645">
        <ele>170.0</ele>
        <time>2021-08-14T14:16:26Z</time>
      </trkpt>
      <trkpt lat="41.82821" lon="2.886685">
        <ele>169.0</ele>
        <time>2021-08-14T14:16:28Z</time>
      </trkpt>
      <trkpt lat="41.828117" lon="2.886723">
        <ele>169.0</ele>
        <time>2021-08-14T14:16:30Z</time>
      </trkpt>
      <trkpt lat="41.82803" lon="2.88677">
        <ele>168.0</ele>
        <time>2021-08-14T14:16:32Z</time>
      </trkpt>
      <trkpt lat="41.827942" lon="2.886805">
        <ele>168.0</ele>
        <time>2021-08-14T14:16:34Z</time>
      </trkpt>
      <trkpt lat="41.827855" lon="2.88684">
        <ele>168.0</ele>
        <time>2021-08-14T14:16:36Z</time>
      </trkpt>
      <trkpt lat="41.82777" lon="2.886872">
        <ele>168.0</ele>
        <time>2021-08-14T14:16:38Z</time>
      </trkpt>
      <trkpt lat="41.827682" lon="2.88691">
        <ele>169.0</ele>
        <time>2021-08-14T14:16:40Z</time>
      </trkpt>
      <trkpt lat="41.82759" lon="2.886945">
        <ele>169.0</ele>
        <time>2021-08-14T14:16:42Z</time>
      </trkpt>
      <trkpt lat="41.827505" lon="2.886977">
        <ele>170.0</ele>
        <time>2021-08-14T14:16:44Z</time>
      </trkpt>
      <trkpt lat="41.827415" lon="2.88701">
        <ele>169.0</ele>
        <time>2021-08-14T14:16:46Z</time>
      </trkpt>
      <trkpt lat="41.827325" lon="2.887047">
        <ele>169.0</ele>
        <time>2021-08-14T14:16:48Z</time>
      </trkpt>
      <trkpt lat="41.827232" lon="2.88709">
        <ele>170.0</ele>
        <time>2021-08-14T14:16:50Z</time>
      </trkpt>
      <trkpt lat="41.82714" lon="2.887135">
        <ele>170.0</ele>
        <time>2021-08-14T14:16:52Z</time>
      </trkpt>
      <trkpt lat="41.82705" lon="2.88718">
        <ele>170.0</ele>
        <time>2021-08-14T14:16:54Z</time>
      </trkpt>
      <trkpt lat="41.82696" lon="2.887228">
        <ele>170.0</ele>
        <time>2021-08-14T14:16:56Z</time>
      </trkpt>
      <trkpt lat="41.82687" lon="2.887275">
        <ele>169.0</ele>
        <time>2021-08-14T14:16:58Z</time>
      </trkpt>
      <trkpt lat="41.82678" lon="2.887328">
        <ele>170.0</ele>
        <time>2021-08-14T14:17:00Z</time>
      </trkpt>
      <trkpt lat="41.8267" lon="2.887392">
        <ele>169.0</ele>
        <time>2021-08-14T14:17:02Z</time>
      </trkpt>
      <trkpt lat="41.826617" lon="2.887452">
        <ele>169.0</ele>
        <time>2021-08-14T14:17:04Z</time>
      </trkpt>
      <trkpt lat="41.826535" lon="2.887515">
        <ele>169.0</ele>
        <time>2021-08-14T14:17:06Z</time>
      </trkpt>
      <trkpt lat="41.82645" lon="2.887585">
        <ele>169.0</ele>
        <time>2021-08-14T14:17:08Z</time>
      </trkpt>
      <trkpt lat="41.826375" lon="2.887645">
        <ele>169.0</ele>
        <time>2021-08-14T14:17:10Z</time>
      </trkpt>
      <trkpt lat="41.826295" lon="2.887705">
        <ele>168.0</ele>
        <time>2021-08-14T14:17:12Z</time>
      </trkpt>
      <trkpt lat="41.826225" lon="2.887765">
        <ele>168.0</ele>
        <time>2021-08-14T14:17:14Z</time>
      </trkpt>
      <trkpt lat="41.826148" lon="2.887815">
        <ele>168.0</ele>
        <time>2021-08-14T14:17:16Z</time>
      </trkpt>
      <trkpt lat="41.826078" lon="2.88788">
        <ele>168.0</ele>
        <time>2021-08-14T14:17:18Z</time>
      </trkpt>
      <trkpt lat="41.826008" lon="2.88796">
        <ele>168.0</ele>
        <time>2021-08-14T14:17:20Z</time>
      </trkpt>
      <trkpt lat="41.825942" lon="2.888042">
        <ele>168.0</ele>
        <time>2021-08-14T14:17:22Z</time>
      </trkpt>
      <trkpt lat="41.82587" lon="2.88812">
        <ele>168.0</ele>
        <time>2021-08-14T14:17:24Z</time>
      </trkpt>
      <trkpt lat="41.825815" lon="2.888205">
        <ele>168.0</ele>
        <time>2021-08-14T14:17:26Z</time>
      </trkpt>
      <trkpt lat="41.82575" lon="2.88829">
        <ele>168.0</ele>
        <time>2021-08-14T14:17:28Z</time>
      </trkpt>
      <trkpt lat="41.825685" lon="2.888375">
        <ele>168.0</ele>
        <time>2021-08-14T14:17:30Z</time>
      </trkpt>
      <trkpt lat="41.82562" lon="2.888465">
        <ele>168.0</ele>
        <time>2021-08-14T14:17:32Z</time>
      </trkpt>
      <trkpt lat="41.825555" lon="2.888547">
        <ele>168.0</ele>
        <time>2021-08-14T14:17:34Z</time>
      </trkpt>
      <trkpt lat="41.825487" lon="2.888635">
        <ele>168.0</ele>
        <time>2021-08-14T14:17:36Z</time>
      </trkpt>
      <trkpt lat="41.82542" lon="2.888725">
        <ele>168.0</ele>
        <time>2021-08-14T14:17:38Z</time>
      </trkpt>
      <trkpt lat="41.825355" lon="2.8888">
        <ele>168.0</ele>
        <time>2021-08-14T14:17:40Z</time>
      </trkpt>
      <trkpt lat="41.8253" lon="2.88888">
        <ele>170.0</ele>
        <time>2021-08-14T14:17:42Z</time>
      </trkpt>
      <trkpt lat="41.825225" lon="2.888947">
        <ele>171.0</ele>
        <time>2021-08-14T14:17:45Z</time>
      </trkpt>
      <trkpt lat="41.825145" lon="2.88892">
        <ele>171.0</ele>
        <time>2021-08-14T14:17:48Z</time>
      </trkpt>
      <trkpt lat="41.82507" lon="2.88885">
        <ele>171.0</ele>
        <time>2021-08-14T14:17:51Z</time>
      </trkpt>
      <trkpt lat="41.82499" lon="2.888782">
        <ele>172.0</ele>
        <time>2021-08-14T14:17:55Z</time>
      </trkpt>
      <trkpt lat="41.82491" lon="2.88879">
        <ele>173.0</ele>
        <time>2021-08-14T14:18:02Z</time>
      </trkpt>
      <trkpt lat="41.824895" lon="2.88889">
        <ele>173.0</ele>
        <time>2021-08-14T14:18:06Z</time>
      </trkpt>
      <trkpt lat="41.82483" lon="2.888937">
        <ele>172.0</ele>
        <time>2021-08-14T14:18:09Z</time>
      </trkpt>
      <trkpt lat="41.824795" lon="2.889032">
        <ele>172.0</ele>
        <time>2021-08-14T14:18:14Z</time>
      </trkpt>
      <trkpt lat="41.824855" lon="2.889105">
        <ele>173.0</ele>
        <time>2021-08-14T14:18:18Z</time>
      </trkpt>
      <trkpt lat="41.82491" lon="2.889185">
        <ele>174.0</ele>
        <time>2021-08-14T14:18:21Z</time>
      </trkpt>
      <trkpt lat="41.824965" lon="2.88926">
        <ele>174.0</ele>
        <time>2021-08-14T14:18:25Z</time>
      </trkpt>
      <trkpt lat="41.824915" lon="2.889362">
        <ele>175.0</ele>
        <time>2021-08-14T14:18:31Z</time>
      </trkpt>
      <trkpt lat="41.824887" lon="2.889465">
        <ele>176.0</ele>
        <time>2021-08-14T14:18:34Z</time>
      </trkpt>
      <trkpt lat="41.824847" lon="2.889558">
        <ele>177.0</ele>
        <time>2021-08-14T14:18:37Z</time>
      </trkpt>
      <trkpt lat="41.824792" lon="2.889647">
        <ele>177.0</ele>
        <time>2021-08-14T14:18:40Z</time>
      </trkpt>
      <trkpt lat="41.824755" lon="2.889765">
        <ele>178.0</ele>
        <time>2021-08-14T14:18:43Z</time>
      </trkpt>
      <trkpt lat="41.824695" lon="2.889875">
        <ele>179.0</ele>
        <time>2021-08-14T14:18:46Z</time>
      </trkpt>
      <trkpt lat="41.824625" lon="2.889965">
        <ele>179.0</ele>
        <time>2021-08-14T14:18:49Z</time>
      </trkpt>
      <trkpt lat="41.824555" lon="2.890065">
        <ele>179.0</ele>
        <time>2021-08-14T14:18:52Z</time>
      </trkpt>
      <trkpt lat="41.8245" lon="2.89014">
        <ele>179.0</ele>
        <time>2021-08-14T14:18:54Z</time>
      </trkpt>
      <trkpt lat="41.824452" lon="2.89023">
        <ele>179.0</ele>
        <time>2021-08-14T14:18:56Z</time>
      </trkpt>
      <trkpt lat="41.824402" lon="2.89031">
        <ele>179.0</ele>
        <time>2021-08-14T14:18:58Z</time>
      </trkpt>
      <trkpt lat="41.824345" lon="2.890367">
        <ele>179.0</ele>
        <time>2021-08-14T14:19:00Z</time>
      </trkpt>
      <trkpt lat="41.824263" lon="2.89046">
        <ele>179.0</ele>
        <time>2021-08-14T14:19:03Z</time>
      </trkpt>
      <trkpt lat="41.824193" lon="2.89054">
        <ele>179.0</ele>
        <time>2021-08-14T14:19:06Z</time>
      </trkpt>
      <trkpt lat="41.82414" lon="2.890625">
        <ele>179.0</ele>
        <time>2021-08-14T14:19:09Z</time>
      </trkpt>
      <trkpt lat="41.82408" lon="2.89072">
        <ele>179.0</ele>
        <time>2021-08-14T14:19:12Z</time>
      </trkpt>
      <trkpt lat="41.824015" lon="2.890802">
        <ele>180.0</ele>
        <time>2021-08-14T14:19:15Z</time>
      </trkpt>
      <trkpt lat="41.823962" lon="2.890897">
        <ele>181.0</ele>
        <time>2021-08-14T14:19:19Z</time>
      </trkpt>
      <trkpt lat="41.823925" lon="2.89094">
        <ele>181.0</ele>
        <time>2021-08-14T14:19:26Z</time>
      </trkpt>
      <trkpt lat="41.823907" lon="2.89094">
        <ele>179.0</ele>
        <time>2021-08-14T14:19:33Z</time>
      </trkpt>
      <trkpt lat="41.82391" lon="2.890935">
        <ele>178.0</ele>
        <time>2021-08-14T14:19:37Z</time>
      </trkpt>
      <trkpt lat="41.823935" lon="2.890947">
        <ele>179.0</ele>
        <time>2021-08-14T14:19:46Z</time>
      </trkpt>
      <trkpt lat="41.823935" lon="2.89094">
        <ele>179.0</ele>
        <time>2021-08-14T14:19:49Z</time>
      </trkpt>
      <trkpt lat="41.82393" lon="2.890975">
        <ele>178.0</ele>
        <time>2021-08-14T14:19:57Z</time>
      </trkpt>
      <trkpt lat="41.823915" lon="2.890985">
        <ele>177.0</ele>
        <time>2021-08-14T14:20:04Z</time>
      </trkpt>
      <trkpt lat="41.823915" lon="2.89096">
        <ele>177.0</ele>
        <time>2021-08-14T14:20:11Z</time>
      </trkpt>
      <trkpt lat="41.82391" lon="2.890945">
        <ele>177.0</ele>
        <time>2021-08-14T14:20:18Z</time>
      </trkpt>
      <trkpt lat="41.82391" lon="2.890945">
        <ele>177.0</ele>
        <time>2021-08-14T14:20:20Z</time>
      </trkpt>
      <trkpt lat="41.823898" lon="2.890995">
        <ele>177.0</ele>
        <time>2021-08-14T14:20:30Z</time>
      </trkpt>
      <trkpt lat="41.823905" lon="2.891007">
        <ele>176.0</ele>
        <time>2021-08-14T14:20:37Z</time>
      </trkpt>
      <trkpt lat="41.823925" lon="2.89104">
        <ele>176.0</ele>
        <time>2021-08-14T14:20:44Z</time>
      </trkpt>
      <trkpt lat="41.823935" lon="2.890985">
        <ele>176.0</ele>
        <time>2021-08-14T14:20:51Z</time>
      </trkpt>
      <trkpt lat="41.82398" lon="2.89103">
        <ele>175.0</ele>
        <time>2021-08-14T14:20:58Z</time>
      </trkpt>
      <trkpt lat="41.82398" lon="2.89104">
        <ele>174.0</ele>
        <time>2021-08-14T14:21:05Z</time>
      </trkpt>
      <trkpt lat="41.82398" lon="2.89104">
        <ele>174.0</ele>
        <time>2021-08-14T14:21:10Z</time>
      </trkpt>
      <trkpt lat="41.823947" lon="2.891025">
        <ele>177.0</ele>
        <time>2021-08-14T14:21:24Z</time>
      </trkpt>
      <trkpt lat="41.82394" lon="2.89102">
        <ele>177.0</ele>
        <time>2021-08-14T14:21:31Z</time>
      </trkpt>
      <trkpt lat="41.823925" lon="2.89099">
        <ele>176.0</ele>
        <time>2021-08-14T14:21:38Z</time>
      </trkpt>
      <trkpt lat="41.823915" lon="2.890925">
        <ele>177.0</ele>
        <time>2021-08-14T14:21:45Z</time>
      </trkpt>
      <trkpt lat="41.82391" lon="2.8909">
        <ele>176.0</ele>
        <time>2021-08-14T14:21:52Z</time>
      </trkpt>
      <trkpt lat="41.82391" lon="2.8909">
        <ele>176.0</ele>
        <time>2021-08-14T14:21:59Z</time>
      </trkpt>
      <trkpt lat="41.82386" lon="2.89088">
        <ele>174.0</ele>
        <time>2021-08-14T14:22:07Z</time>
      </trkpt>
      <trkpt lat="41.823855" lon="2.89087">
        <ele>173.0</ele>
        <time>2021-08-14T14:22:12Z</time>
      </trkpt>
      <trkpt lat="41.823855" lon="2.89089">
        <ele>169.0</ele>
        <time>2021-08-14T14:22:26Z</time>
      </trkpt>
      <trkpt lat="41.823855" lon="2.89089">
        <ele>169.0</ele>
        <time>2021-08-14T14:22:29Z</time>
      </trkpt>
      <trkpt lat="41.823847" lon="2.890905">
        <ele>169.0</ele>
        <time>2021-08-14T14:23:01Z</time>
      </trkpt>
      <trkpt lat="41.823847" lon="2.890905">
        <ele>169.0</ele>
        <time>2021-08-14T14:23:05Z</time>
      </trkpt>
      <trkpt lat="41.823877" lon="2.89094">
        <ele>166.0</ele>
        <time>2021-08-14T14:23:14Z</time>
      </trkpt>
      <trkpt lat="41.823877" lon="2.89094">
        <ele>166.0</ele>
        <time>2021-08-14T14:23:18Z</time>
      </trkpt>
      <trkpt lat="41.82387" lon="2.89093">
        <ele>166.0</ele>
        <time>2021-08-14T14:23:49Z</time>
      </trkpt>
      <trkpt lat="41.823867" lon="2.89093">
        <ele>166.0</ele>
        <time>2021-08-14T14:23:54Z</time>
      </trkpt>
      <trkpt lat="41.823895" lon="2.8909">
        <ele>167.0</ele>
        <time>2021-08-14T14:24:06Z</time>
      </trkpt>
      <trkpt lat="41.82389" lon="2.890892">
        <ele>166.0</ele>
        <time>2021-08-14T14:24:13Z</time>
      </trkpt>
      <trkpt lat="41.82388" lon="2.8909">
        <ele>166.0</ele>
        <time>2021-08-14T14:24:21Z</time>
      </trkpt>
      <trkpt lat="41.82388" lon="2.8909">
        <ele>166.0</ele>
        <time>2021-08-14T14:24:22Z</time>
      </trkpt>
      <trkpt lat="41.823872" lon="2.890918">
        <ele>164.0</ele>
        <time>2021-08-14T14:24:29Z</time>
      </trkpt>
      <trkpt lat="41.823875" lon="2.890962">
        <ele>167.0</ele>
        <time>2021-08-14T14:24:36Z</time>
      </trkpt>
      <trkpt lat="41.823895" lon="2.890965">
        <ele>166.0</ele>
        <time>2021-08-14T14:24:43Z</time>
      </trkpt>
      <trkpt lat="41.823895" lon="2.890955">
        <ele>166.0</ele>
        <time>2021-08-14T14:24:49Z</time>
      </trkpt>
      <trkpt lat="41.823902" lon="2.890985">
        <ele>169.0</ele>
        <time>2021-08-14T14:24:57Z</time>
      </trkpt>
      <trkpt lat="41.8239" lon="2.891027">
        <ele>170.0</ele>
        <time>2021-08-14T14:25:04Z</time>
      </trkpt>
      <trkpt lat="41.823925" lon="2.891035">
        <ele>172.0</ele>
        <time>2021-08-14T14:25:11Z</time>
      </trkpt>
      <trkpt lat="41.823915" lon="2.891045">
        <ele>172.0</ele>
        <time>2021-08-14T14:25:18Z</time>
      </trkpt>
      <trkpt lat="41.823905" lon="2.89103">
        <ele>171.0</ele>
        <time>2021-08-14T14:25:25Z</time>
      </trkpt>
      <trkpt lat="41.82391" lon="2.891003">
        <ele>173.0</ele>
        <time>2021-08-14T14:25:32Z</time>
      </trkpt>
      <trkpt lat="41.823882" lon="2.891003">
        <ele>176.0</ele>
        <time>2021-08-14T14:25:39Z</time>
      </trkpt>
      <trkpt lat="41.823865" lon="2.891017">
        <ele>176.0</ele>
        <time>2021-08-14T14:25:46Z</time>
      </trkpt>
      <trkpt lat="41.82387" lon="2.891017">
        <ele>175.0</ele>
        <time>2021-08-14T14:25:52Z</time>
      </trkpt>
      <trkpt lat="41.823865" lon="2.891105">
        <ele>174.0</ele>
        <time>2021-08-14T14:25:59Z</time>
      </trkpt>
      <trkpt lat="41.823832" lon="2.891075">
        <ele>174.0</ele>
        <time>2021-08-14T14:26:06Z</time>
      </trkpt>
      <trkpt lat="41.82385" lon="2.891082">
        <ele>174.0</ele>
        <time>2021-08-14T14:26:13Z</time>
      </trkpt>
      <trkpt lat="41.823905" lon="2.891135">
        <ele>174.0</ele>
        <time>2021-08-14T14:26:20Z</time>
      </trkpt>
      <trkpt lat="41.823835" lon="2.891165">
        <ele>174.0</ele>
        <time>2021-08-14T14:26:27Z</time>
      </trkpt>
      <trkpt lat="41.82382" lon="2.89117">
        <ele>173.0</ele>
        <time>2021-08-14T14:26:34Z</time>
      </trkpt>
      <trkpt lat="41.823835" lon="2.891202">
        <ele>174.0</ele>
        <time>2021-08-14T14:26:41Z</time>
      </trkpt>
      <trkpt lat="41.823875" lon="2.891145">
        <ele>174.0</ele>
        <time>2021-08-14T14:26:48Z</time>
      </trkpt>
      <trkpt lat="41.82389" lon="2.891087">
        <ele>175.0</ele>
        <time>2021-08-14T14:26:55Z</time>
      </trkpt>
      <trkpt lat="41.823935" lon="2.89106">
        <ele>175.0</ele>
        <time>2021-08-14T14:27:02Z</time>
      </trkpt>
      <trkpt lat="41.823925" lon="2.891065">
        <ele>175.0</ele>
        <time>2021-08-14T14:27:09Z</time>
      </trkpt>
      <trkpt lat="41.823965" lon="2.891087">
        <ele>177.0</ele>
        <time>2021-08-14T14:27:16Z</time>
      </trkpt>
      <trkpt lat="41.823895" lon="2.891045">
        <ele>179.0</ele>
        <time>2021-08-14T14:27:23Z</time>
      </trkpt>
      <trkpt lat="41.823892" lon="2.891025">
        <ele>178.0</ele>
        <time>2021-08-14T14:27:30Z</time>
      </trkpt>
      <trkpt lat="41.823915" lon="2.891028">
        <ele>178.0</ele>
        <time>2021-08-14T14:27:37Z</time>
      </trkpt>
      <trkpt lat="41.823915" lon="2.891028">
        <ele>178.0</ele>
        <time>2021-08-14T14:27:40Z</time>
      </trkpt>
      <trkpt lat="41.823932" lon="2.891025">
        <ele>180.0</ele>
        <time>2021-08-14T14:27:48Z</time>
      </trkpt>
      <trkpt lat="41.82393" lon="2.891012">
        <ele>179.0</ele>
        <time>2021-08-14T14:27:55Z</time>
      </trkpt>
      <trkpt lat="41.82393" lon="2.891012">
        <ele>179.0</ele>
        <time>2021-08-14T14:27:56Z</time>
      </trkpt>
      <trkpt lat="41.823917" lon="2.891013">
        <ele>179.0</ele>
        <time>2021-08-14T14:28:06Z</time>
      </trkpt>
      <trkpt lat="41.823917" lon="2.891013">
        <ele>179.0</ele>
        <time>2021-08-14T14:28:07Z</time>
      </trkpt>
      <trkpt lat="41.823875" lon="2.890995">
        <ele>178.0</ele>
        <time>2021-08-14T14:28:14Z</time>
      </trkpt>
      <trkpt lat="41.823855" lon="2.89097">
        <ele>177.0</ele>
        <time>2021-08-14T14:28:21Z</time>
      </trkpt>
      <trkpt lat="41.823855" lon="2.89097">
        <ele>177.0</ele>
        <time>2021-08-14T14:28:23Z</time>
      </trkpt>
      <trkpt lat="41.823847" lon="2.89094">
        <ele>178.0</ele>
        <time>2021-08-14T14:28:31Z</time>
      </trkpt>
      <trkpt lat="41.823847" lon="2.890937">
        <ele>180.0</ele>
        <time>2021-08-14T14:28:33Z</time>
      </trkpt>
      <trkpt lat="41.823855" lon="2.890947">
        <ele>185.0</ele>
        <time>2021-08-14T14:28:40Z</time>
      </trkpt>
      <trkpt lat="41.82385" lon="2.890955">
        <ele>186.0</ele>
        <time>2021-08-14T14:28:47Z</time>
      </trkpt>
      <trkpt lat="41.82385" lon="2.890948">
        <ele>187.0</ele>
        <time>2021-08-14T14:28:49Z</time>
      </trkpt>
      <trkpt lat="41.82384" lon="2.890958">
        <ele>187.0</ele>
        <time>2021-08-14T14:29:10Z</time>
      </trkpt>
      <trkpt lat="41.82384" lon="2.890958">
        <ele>187.0</ele>
        <time>2021-08-14T14:29:11Z</time>
      </trkpt>
      <trkpt lat="41.823855" lon="2.89093">
        <ele>187.0</ele>
        <time>2021-08-14T14:29:32Z</time>
      </trkpt>
      <trkpt lat="41.82386" lon="2.890925">
        <ele>187.0</ele>
        <time>2021-08-14T14:29:35Z</time>
      </trkpt>
      <trkpt lat="41.823887" lon="2.890967">
        <ele>185.0</ele>
        <time>2021-08-14T14:29:50Z</time>
      </trkpt>
      <trkpt lat="41.823925" lon="2.891">
        <ele>179.0</ele>
        <time>2021-08-14T14:29:57Z</time>
      </trkpt>
      <trkpt lat="41.82394" lon="2.891012">
        <ele>178.0</ele>
        <time>2021-08-14T14:30:04Z</time>
      </trkpt>
      <trkpt lat="41.82394" lon="2.891012">
        <ele>178.0</ele>
        <time>2021-08-14T14:30:06Z</time>
      </trkpt>
      <trkpt lat="41.823952" lon="2.891022">
        <ele>178.0</ele>
        <time>2021-08-14T14:30:50Z</time>
      </trkpt>
      <trkpt lat="41.823952" lon="2.891022">
        <ele>178.0</ele>
        <time>2021-08-14T14:30:51Z</time>
      </trkpt>
      <trkpt lat="41.823957" lon="2.89104">
        <ele>178.0</ele>
        <time>2021-08-14T14:32:01Z</time>
      </trkpt>
      <trkpt lat="41.823957" lon="2.89104">
        <ele>178.0</ele>
        <time>2021-08-14T14:32:02Z</time>
      </trkpt>
      <trkpt lat="41.82397" lon="2.89105">
        <ele>178.0</ele>
        <time>2021-08-14T14:32:14Z</time>
      </trkpt>
      <trkpt lat="41.82397" lon="2.89105">
        <ele>178.0</ele>
        <time>2021-08-14T14:32:15Z</time>
      </trkpt>
      <trkpt lat="41.823953" lon="2.891007">
        <ele>178.0</ele>
        <time>2021-08-14T14:33:24Z</time>
      </trkpt>
      <trkpt lat="41.823965" lon="2.891002">
        <ele>179.0</ele>
        <time>2021-08-14T14:33:29Z</time>
      </trkpt>
      <trkpt lat="41.823952" lon="2.890948">
        <ele>178.0</ele>
        <time>2021-08-14T14:33:41Z</time>
      </trkpt>
      <trkpt lat="41.82396" lon="2.89093">
        <ele>177.0</ele>
        <time>2021-08-14T14:33:48Z</time>
      </trkpt>
      <trkpt lat="41.823945" lon="2.890907">
        <ele>177.0</ele>
        <time>2021-08-14T14:33:55Z</time>
      </trkpt>
      <trkpt lat="41.82394" lon="2.89089">
        <ele>179.0</ele>
        <time>2021-08-14T14:34:02Z</time>
      </trkpt>
      <trkpt lat="41.82393" lon="2.890918">
        <ele>180.0</ele>
        <time>2021-08-14T14:34:09Z</time>
      </trkpt>
      <trkpt lat="41.82392" lon="2.890925">
        <ele>183.0</ele>
        <time>2021-08-14T14:34:16Z</time>
      </trkpt>
      <trkpt lat="41.82392" lon="2.89093">
        <ele>183.0</ele>
        <time>2021-08-14T14:34:17Z</time>
      </trkpt>
      <trkpt lat="41.82391" lon="2.890975">
        <ele>183.0</ele>
        <time>2021-08-14T14:34:24Z</time>
      </trkpt>
      <trkpt lat="41.823895" lon="2.891">
        <ele>185.0</ele>
        <time>2021-08-14T14:34:31Z</time>
      </trkpt>
      <trkpt lat="41.823925" lon="2.890995">
        <ele>185.0</ele>
        <time>2021-08-14T14:34:38Z</time>
      </trkpt>
      <trkpt lat="41.823945" lon="2.89096">
        <ele>184.0</ele>
        <time>2021-08-14T14:34:45Z</time>
      </trkpt>
      <trkpt lat="41.82396" lon="2.890925">
        <ele>182.0</ele>
        <time>2021-08-14T14:34:52Z</time>
      </trkpt>
      <trkpt lat="41.823965" lon="2.890925">
        <ele>182.0</ele>
        <time>2021-08-14T14:34:58Z</time>
      </trkpt>
      <trkpt lat="41.82395" lon="2.890962">
        <ele>181.0</ele>
        <time>2021-08-14T14:35:07Z</time>
      </trkpt>
      <trkpt lat="41.82395" lon="2.890955">
        <ele>181.0</ele>
        <time>2021-08-14T14:35:13Z</time>
      </trkpt>
      <trkpt lat="41.823905" lon="2.89094">
        <ele>179.0</ele>
        <time>2021-08-14T14:35:20Z</time>
      </trkpt>
      <trkpt lat="41.823882" lon="2.89094">
        <ele>178.0</ele>
        <time>2021-08-14T14:35:27Z</time>
      </trkpt>
      <trkpt lat="41.823852" lon="2.890915">
        <ele>179.0</ele>
        <time>2021-08-14T14:35:34Z</time>
      </trkpt>
      <trkpt lat="41.82387" lon="2.8909">
        <ele>179.0</ele>
        <time>2021-08-14T14:35:41Z</time>
      </trkpt>
      <trkpt lat="41.82391" lon="2.890907">
        <ele>177.0</ele>
        <time>2021-08-14T14:35:48Z</time>
      </trkpt>
      <trkpt lat="41.823915" lon="2.890937">
        <ele>177.0</ele>
        <time>2021-08-14T14:35:55Z</time>
      </trkpt>
      <trkpt lat="41.82391" lon="2.890908">
        <ele>177.0</ele>
        <time>2021-08-14T14:36:02Z</time>
      </trkpt>
      <trkpt lat="41.823915" lon="2.890948">
        <ele>178.0</ele>
        <time>2021-08-14T14:36:09Z</time>
      </trkpt>
      <trkpt lat="41.82391" lon="2.890977">
        <ele>178.0</ele>
        <time>2021-08-14T14:36:16Z</time>
      </trkpt>
      <trkpt lat="41.823895" lon="2.89101">
        <ele>178.0</ele>
        <time>2021-08-14T14:36:23Z</time>
      </trkpt>
      <trkpt lat="41.823895" lon="2.89101">
        <ele>178.0</ele>
        <time>2021-08-14T14:36:25Z</time>
      </trkpt>
      <trkpt lat="41.82388" lon="2.890977">
        <ele>178.0</ele>
        <time>2021-08-14T14:36:34Z</time>
      </trkpt>
      <trkpt lat="41.823895" lon="2.891">
        <ele>178.0</ele>
        <time>2021-08-14T14:36:41Z</time>
      </trkpt>
      <trkpt lat="41.823887" lon="2.890965">
        <ele>179.0</ele>
        <time>2021-08-14T14:36:48Z</time>
      </trkpt>
      <trkpt lat="41.823895" lon="2.890945">
        <ele>179.0</ele>
        <time>2021-08-14T14:36:55Z</time>
      </trkpt>
      <trkpt lat="41.823905" lon="2.890955">
        <ele>179.0</ele>
        <time>2021-08-14T14:37:02Z</time>
      </trkpt>
      <trkpt lat="41.82392" lon="2.890992">
        <ele>178.0</ele>
        <time>2021-08-14T14:37:09Z</time>
      </trkpt>
      <trkpt lat="41.823925" lon="2.890985">
        <ele>178.0</ele>
        <time>2021-08-14T14:37:16Z</time>
      </trkpt>
      <trkpt lat="41.823925" lon="2.890985">
        <ele>178.0</ele>
        <time>2021-08-14T14:37:20Z</time>
      </trkpt>
      <trkpt lat="41.82392" lon="2.890957">
        <ele>180.0</ele>
        <time>2021-08-14T14:37:38Z</time>
      </trkpt>
      <trkpt lat="41.82392" lon="2.890957">
        <ele>180.0</ele>
        <time>2021-08-14T14:37:40Z</time>
      </trkpt>
      <trkpt lat="41.823895" lon="2.89098">
        <ele>182.0</ele>
        <time>2021-08-14T14:37:47Z</time>
      </trkpt>
      <trkpt lat="41.823895" lon="2.890987">
        <ele>184.0</ele>
        <time>2021-08-14T14:37:54Z</time>
      </trkpt>
      <trkpt lat="41.82389" lon="2.89101">
        <ele>186.0</ele>
        <time>2021-08-14T14:38:05Z</time>
      </trkpt>
      <trkpt lat="41.82389" lon="2.89101">
        <ele>186.0</ele>
        <time>2021-08-14T14:38:06Z</time>
      </trkpt>
      <trkpt lat="41.823905" lon="2.890995">
        <ele>187.0</ele>
        <time>2021-08-14T14:38:17Z</time>
      </trkpt>
      <trkpt lat="41.82391" lon="2.89099">
        <ele>186.0</ele>
        <time>2021-08-14T14:38:24Z</time>
      </trkpt>
      <trkpt lat="41.82391" lon="2.89099">
        <ele>186.0</ele>
        <time>2021-08-14T14:38:27Z</time>
      </trkpt>
      <trkpt lat="41.82393" lon="2.890947">
        <ele>185.0</ele>
        <time>2021-08-14T14:38:43Z</time>
      </trkpt>
      <trkpt lat="41.82394" lon="2.890955">
        <ele>184.0</ele>
        <time>2021-08-14T14:38:50Z</time>
      </trkpt>
      <trkpt lat="41.823935" lon="2.890965">
        <ele>183.0</ele>
        <time>2021-08-14T14:38:57Z</time>
      </trkpt>
      <trkpt lat="41.823935" lon="2.890965">
        <ele>183.0</ele>
        <time>2021-08-14T14:38:58Z</time>
      </trkpt>
      <trkpt lat="41.823945" lon="2.89097">
        <ele>180.0</ele>
        <time>2021-08-14T14:39:45Z</time>
      </trkpt>
      <trkpt lat="41.823945" lon="2.89097">
        <ele>180.0</ele>
        <time>2021-08-14T14:39:49Z</time>
      </trkpt>
      <trkpt lat="41.823957" lon="2.890965">
        <ele>180.0</ele>
        <time>2021-08-14T14:40:10Z</time>
      </trkpt>
      <trkpt lat="41.823957" lon="2.890965">
        <ele>180.0</ele>
        <time>2021-08-14T14:40:11Z</time>
      </trkpt>
      <trkpt lat="41.823965" lon="2.890955">
        <ele>180.0</ele>
        <time>2021-08-14T14:40:25Z</time>
      </trkpt>
      <trkpt lat="41.823965" lon="2.890955">
        <ele>180.0</ele>
        <time>2021-08-14T14:40:28Z</time>
      </trkpt>
      <trkpt lat="41.823945" lon="2.890992">
        <ele>179.0</ele>
        <time>2021-08-14T14:40:40Z</time>
      </trkpt>
      <trkpt lat="41.82394" lon="2.89099">
        <ele>179.0</ele>
        <time>2021-08-14T14:40:41Z</time>
      </trkpt>
      <trkpt lat="41.82395" lon="2.891012">
        <ele>179.0</ele>
        <time>2021-08-14T14:40:52Z</time>
      </trkpt>
      <trkpt lat="41.82395" lon="2.891012">
        <ele>179.0</ele>
        <time>2021-08-14T14:40:53Z</time>
      </trkpt>
      <trkpt lat="41.823945" lon="2.891003">
        <ele>179.0</ele>
        <time>2021-08-14T14:41:04Z</time>
      </trkpt>
      <trkpt lat="41.823925" lon="2.89101">
        <ele>179.0</ele>
        <time>2021-08-14T14:41:11Z</time>
      </trkpt>
      <trkpt lat="41.823925" lon="2.890992">
        <ele>178.0</ele>
        <time>2021-08-14T14:41:18Z</time>
      </trkpt>
      <trkpt lat="41.823925" lon="2.890992">
        <ele>178.0</ele>
        <time>2021-08-14T14:41:20Z</time>
      </trkpt>
      <trkpt lat="41.823937" lon="2.891007">
        <ele>178.0</ele>
        <time>2021-08-14T14:42:14Z</time>
      </trkpt>
      <trkpt lat="41.82394" lon="2.891013">
        <ele>179.0</ele>
        <time>2021-08-14T14:42:21Z</time>
      </trkpt>
      <trkpt lat="41.82394" lon="2.891013">
        <ele>179.0</ele>
        <time>2021-08-14T14:42:22Z</time>
      </trkpt>
      <trkpt lat="41.823935" lon="2.891002">
        <ele>178.0</ele>
        <time>2021-08-14T14:45:15Z</time>
      </trkpt>
      <trkpt lat="41.823935" lon="2.891002">
        <ele>178.0</ele>
        <time>2021-08-14T14:45:16Z</time>
      </trkpt>
      <trkpt lat="41.823945" lon="2.891007">
        <ele>179.0</ele>
        <time>2021-08-14T14:46:51Z</time>
      </trkpt>
      <trkpt lat="41.823945" lon="2.891007">
        <ele>179.0</ele>
        <time>2021-08-14T14:46:52Z</time>
      </trkpt>
      <trkpt lat="41.823935" lon="2.890997">
        <ele>178.0</ele>
        <time>2021-08-14T14:47:00Z</time>
      </trkpt>
      <trkpt lat="41.82394" lon="2.89099">
        <ele>179.0</ele>
        <time>2021-08-14T14:47:07Z</time>
      </trkpt>
      <trkpt lat="41.82393" lon="2.891013">
        <ele>178.0</ele>
        <time>2021-08-14T14:47:14Z</time>
      </trkpt>
      <trkpt lat="41.823925" lon="2.891007">
        <ele>179.0</ele>
        <time>2021-08-14T14:47:21Z</time>
      </trkpt>
      <trkpt lat="41.823917" lon="2.890985">
        <ele>180.0</ele>
        <time>2021-08-14T14:47:28Z</time>
      </trkpt>
      <trkpt lat="41.823935" lon="2.890992">
        <ele>180.0</ele>
        <time>2021-08-14T14:47:35Z</time>
      </trkpt>
      <trkpt lat="41.823925" lon="2.890985">
        <ele>180.0</ele>
        <time>2021-08-14T14:47:42Z</time>
      </trkpt>
      <trkpt lat="41.823925" lon="2.890985">
        <ele>180.0</ele>
        <time>2021-08-14T14:47:45Z</time>
      </trkpt>
      <trkpt lat="41.82393" lon="2.89098">
        <ele>180.0</ele>
        <time>2021-08-14T14:47:54Z</time>
      </trkpt>
      <trkpt lat="41.823932" lon="2.890975">
        <ele>179.0</ele>
        <time>2021-08-14T14:48:01Z</time>
      </trkpt>
      <trkpt lat="41.823932" lon="2.890975">
        <ele>179.0</ele>
        <time>2021-08-14T14:48:05Z</time>
      </trkpt>
      <trkpt lat="41.82393" lon="2.890975">
        <ele>178.0</ele>
        <time>2021-08-14T14:48:34Z</time>
      </trkpt>
      <trkpt lat="41.82393" lon="2.890962">
        <ele>176.0</ele>
        <time>2021-08-14T14:48:41Z</time>
      </trkpt>
      <trkpt lat="41.82393" lon="2.890962">
        <ele>176.0</ele>
        <time>2021-08-14T14:48:48Z</time>
      </trkpt>
      <trkpt lat="41.823865" lon="2.891003">
        <ele>180.0</ele>
        <time>2021-08-14T14:48:56Z</time>
      </trkpt>
      <trkpt lat="41.823807" lon="2.891072">
        <ele>182.0</ele>
        <time>2021-08-14T14:49:00Z</time>
      </trkpt>
      <trkpt lat="41.82376" lon="2.891155">
        <ele>182.0</ele>
        <time>2021-08-14T14:49:05Z</time>
      </trkpt>
      <trkpt lat="41.8237" lon="2.89122">
        <ele>182.0</ele>
        <time>2021-08-14T14:49:11Z</time>
      </trkpt>
      <trkpt lat="41.823652" lon="2.891312">
        <ele>183.0</ele>
        <time>2021-08-14T14:49:16Z</time>
      </trkpt>
      <trkpt lat="41.8236" lon="2.8914">
        <ele>184.0</ele>
        <time>2021-08-14T14:49:20Z</time>
      </trkpt>
      <trkpt lat="41.82354" lon="2.89148">
        <ele>184.0</ele>
        <time>2021-08-14T14:49:23Z</time>
      </trkpt>
      <trkpt lat="41.82347" lon="2.891568">
        <ele>183.0</ele>
        <time>2021-08-14T14:49:26Z</time>
      </trkpt>
      <trkpt lat="41.82341" lon="2.891655">
        <ele>183.0</ele>
        <time>2021-08-14T14:49:29Z</time>
      </trkpt>
      <trkpt lat="41.823355" lon="2.89175">
        <ele>184.0</ele>
        <time>2021-08-14T14:49:32Z</time>
      </trkpt>
      <trkpt lat="41.82329" lon="2.891835">
        <ele>184.0</ele>
        <time>2021-08-14T14:49:35Z</time>
      </trkpt>
      <trkpt lat="41.823225" lon="2.89194">
        <ele>184.0</ele>
        <time>2021-08-14T14:49:38Z</time>
      </trkpt>
      <trkpt lat="41.823165" lon="2.892037">
        <ele>183.0</ele>
        <time>2021-08-14T14:49:41Z</time>
      </trkpt>
      <trkpt lat="41.8231" lon="2.892125">
        <ele>182.0</ele>
        <time>2021-08-14T14:49:44Z</time>
      </trkpt>
      <trkpt lat="41.82303" lon="2.892215">
        <ele>182.0</ele>
        <time>2021-08-14T14:49:47Z</time>
      </trkpt>
      <trkpt lat="41.822965" lon="2.892295">
        <ele>181.0</ele>
        <time>2021-08-14T14:49:50Z</time>
      </trkpt>
      <trkpt lat="41.822887" lon="2.892365">
        <ele>182.0</ele>
        <time>2021-08-14T14:49:53Z</time>
      </trkpt>
      <trkpt lat="41.822825" lon="2.892465">
        <ele>181.0</ele>
        <time>2021-08-14T14:49:56Z</time>
      </trkpt>
      <trkpt lat="41.822752" lon="2.89256">
        <ele>182.0</ele>
        <time>2021-08-14T14:49:59Z</time>
      </trkpt>
      <trkpt lat="41.822695" lon="2.892662">
        <ele>182.0</ele>
        <time>2021-08-14T14:50:02Z</time>
      </trkpt>
      <trkpt lat="41.822635" lon="2.89277">
        <ele>182.0</ele>
        <time>2021-08-14T14:50:05Z</time>
      </trkpt>
      <trkpt lat="41.82258" lon="2.892877">
        <ele>182.0</ele>
        <time>2021-08-14T14:50:08Z</time>
      </trkpt>
      <trkpt lat="41.82254" lon="2.892957">
        <ele>183.0</ele>
        <time>2021-08-14T14:50:10Z</time>
      </trkpt>
      <trkpt lat="41.822475" lon="2.89306">
        <ele>182.0</ele>
        <time>2021-08-14T14:50:13Z</time>
      </trkpt>
      <trkpt lat="41.822405" lon="2.893162">
        <ele>182.0</ele>
        <time>2021-08-14T14:50:16Z</time>
      </trkpt>
      <trkpt lat="41.82236" lon="2.893262">
        <ele>181.0</ele>
        <time>2021-08-14T14:50:19Z</time>
      </trkpt>
      <trkpt lat="41.822315" lon="2.89336">
        <ele>181.0</ele>
        <time>2021-08-14T14:50:24Z</time>
      </trkpt>
      <trkpt lat="41.82231" lon="2.893458">
        <ele>179.0</ele>
        <time>2021-08-14T14:50:29Z</time>
      </trkpt>
      <trkpt lat="41.82236" lon="2.893385">
        <ele>180.0</ele>
        <time>2021-08-14T14:50:36Z</time>
      </trkpt>
      <trkpt lat="41.822282" lon="2.89332">
        <ele>180.0</ele>
        <time>2021-08-14T14:50:40Z</time>
      </trkpt>
      <trkpt lat="41.822195" lon="2.893285">
        <ele>180.0</ele>
        <time>2021-08-14T14:50:43Z</time>
      </trkpt>
      <trkpt lat="41.82209" lon="2.893265">
        <ele>180.0</ele>
        <time>2021-08-14T14:50:46Z</time>
      </trkpt>
      <trkpt lat="41.82199" lon="2.893222">
        <ele>178.0</ele>
        <time>2021-08-14T14:50:49Z</time>
      </trkpt>
      <trkpt lat="41.821912" lon="2.89321">
        <ele>178.0</ele>
        <time>2021-08-14T14:50:51Z</time>
      </trkpt>
      <trkpt lat="41.82184" lon="2.893195">
        <ele>177.0</ele>
        <time>2021-08-14T14:50:53Z</time>
      </trkpt>
      <trkpt lat="41.821765" lon="2.89319">
        <ele>177.0</ele>
        <time>2021-08-14T14:50:55Z</time>
      </trkpt>
      <trkpt lat="41.821687" lon="2.893192">
        <ele>177.0</ele>
        <time>2021-08-14T14:50:57Z</time>
      </trkpt>
      <trkpt lat="41.821602" lon="2.893202">
        <ele>177.0</ele>
        <time>2021-08-14T14:50:59Z</time>
      </trkpt>
      <trkpt lat="41.82152" lon="2.893222">
        <ele>177.0</ele>
        <time>2021-08-14T14:51:01Z</time>
      </trkpt>
      <trkpt lat="41.821447" lon="2.893255">
        <ele>178.0</ele>
        <time>2021-08-14T14:51:03Z</time>
      </trkpt>
      <trkpt lat="41.821385" lon="2.8933">
        <ele>178.0</ele>
        <time>2021-08-14T14:51:05Z</time>
      </trkpt>
      <trkpt lat="41.821315" lon="2.893342">
        <ele>178.0</ele>
        <time>2021-08-14T14:51:07Z</time>
      </trkpt>
      <trkpt lat="41.82122" lon="2.893405">
        <ele>178.0</ele>
        <time>2021-08-14T14:51:10Z</time>
      </trkpt>
      <trkpt lat="41.82115" lon="2.893455">
        <ele>179.0</ele>
        <time>2021-08-14T14:51:12Z</time>
      </trkpt>
      <trkpt lat="41.821078" lon="2.893505">
        <ele>179.0</ele>
        <time>2021-08-14T14:51:14Z</time>
      </trkpt>
      <trkpt lat="41.82101" lon="2.89354">
        <ele>179.0</ele>
        <time>2021-08-14T14:51:16Z</time>
      </trkpt>
      <trkpt lat="41.820922" lon="2.893617">
        <ele>180.0</ele>
        <time>2021-08-14T14:51:19Z</time>
      </trkpt>
      <trkpt lat="41.82084" lon="2.893667">
        <ele>180.0</ele>
        <time>2021-08-14T14:51:21Z</time>
      </trkpt>
      <trkpt lat="41.820773" lon="2.893712">
        <ele>181.0</ele>
        <time>2021-08-14T14:51:22Z</time>
      </trkpt>
      <trkpt lat="41.820687" lon="2.89376">
        <ele>181.0</ele>
        <time>2021-08-14T14:51:24Z</time>
      </trkpt>
      <trkpt lat="41.820587" lon="2.893815">
        <ele>181.0</ele>
        <time>2021-08-14T14:51:26Z</time>
      </trkpt>
      <trkpt lat="41.820505" lon="2.893865">
        <ele>181.0</ele>
        <time>2021-08-14T14:51:28Z</time>
      </trkpt>
      <trkpt lat="41.82043" lon="2.89393">
        <ele>181.0</ele>
        <time>2021-08-14T14:51:30Z</time>
      </trkpt>
      <trkpt lat="41.820357" lon="2.893982">
        <ele>182.0</ele>
        <time>2021-08-14T14:51:32Z</time>
      </trkpt>
      <trkpt lat="41.82028" lon="2.894037">
        <ele>181.0</ele>
        <time>2021-08-14T14:51:34Z</time>
      </trkpt>
      <trkpt lat="41.82021" lon="2.894095">
        <ele>182.0</ele>
        <time>2021-08-14T14:51:36Z</time>
      </trkpt>
      <trkpt lat="41.820135" lon="2.894155">
        <ele>182.0</ele>
        <time>2021-08-14T14:51:38Z</time>
      </trkpt>
      <trkpt lat="41.82006" lon="2.89422">
        <ele>183.0</ele>
        <time>2021-08-14T14:51:40Z</time>
      </trkpt>
      <trkpt lat="41.819985" lon="2.894295">
        <ele>183.0</ele>
        <time>2021-08-14T14:51:42Z</time>
      </trkpt>
      <trkpt lat="41.81992" lon="2.89439">
        <ele>183.0</ele>
        <time>2021-08-14T14:51:44Z</time>
      </trkpt>
      <trkpt lat="41.819858" lon="2.894485">
        <ele>182.0</ele>
        <time>2021-08-14T14:51:46Z</time>
      </trkpt>
      <trkpt lat="41.8198" lon="2.89457">
        <ele>181.0</ele>
        <time>2021-08-14T14:51:48Z</time>
      </trkpt>
      <trkpt lat="41.81975" lon="2.894645">
        <ele>181.0</ele>
        <time>2021-08-14T14:51:50Z</time>
      </trkpt>
      <trkpt lat="41.819675" lon="2.894745">
        <ele>181.0</ele>
        <time>2021-08-14T14:51:53Z</time>
      </trkpt>
      <trkpt lat="41.819612" lon="2.89481">
        <ele>181.0</ele>
        <time>2021-08-14T14:51:55Z</time>
      </trkpt>
      <trkpt lat="41.819545" lon="2.89488">
        <ele>181.0</ele>
        <time>2021-08-14T14:51:57Z</time>
      </trkpt>
      <trkpt lat="41.819472" lon="2.894943">
        <ele>181.0</ele>
        <time>2021-08-14T14:51:59Z</time>
      </trkpt>
      <trkpt lat="41.819405" lon="2.895015">
        <ele>181.0</ele>
        <time>2021-08-14T14:52:01Z</time>
      </trkpt>
      <trkpt lat="41.81933" lon="2.89507">
        <ele>181.0</ele>
        <time>2021-08-14T14:52:03Z</time>
      </trkpt>
      <trkpt lat="41.81926" lon="2.89511">
        <ele>181.0</ele>
        <time>2021-08-14T14:52:05Z</time>
      </trkpt>
      <trkpt lat="41.81918" lon="2.89515">
        <ele>181.0</ele>
        <time>2021-08-14T14:52:07Z</time>
      </trkpt>
      <trkpt lat="41.8191" lon="2.895185">
        <ele>181.0</ele>
        <time>2021-08-14T14:52:09Z</time>
      </trkpt>
      <trkpt lat="41.81902" lon="2.895212">
        <ele>181.0</ele>
        <time>2021-08-14T14:52:11Z</time>
      </trkpt>
      <trkpt lat="41.818935" lon="2.895228">
        <ele>181.0</ele>
        <time>2021-08-14T14:52:13Z</time>
      </trkpt>
      <trkpt lat="41.81885" lon="2.895255">
        <ele>181.0</ele>
        <time>2021-08-14T14:52:15Z</time>
      </trkpt>
      <trkpt lat="41.818765" lon="2.895285">
        <ele>181.0</ele>
        <time>2021-08-14T14:52:17Z</time>
      </trkpt>
      <trkpt lat="41.818675" lon="2.895308">
        <ele>181.0</ele>
        <time>2021-08-14T14:52:19Z</time>
      </trkpt>
      <trkpt lat="41.818587" lon="2.895333">
        <ele>181.0</ele>
        <time>2021-08-14T14:52:21Z</time>
      </trkpt>
      <trkpt lat="41.818495" lon="2.895365">
        <ele>180.0</ele>
        <time>2021-08-14T14:52:23Z</time>
      </trkpt>
      <trkpt lat="41.818405" lon="2.895398">
        <ele>180.0</ele>
        <time>2021-08-14T14:52:25Z</time>
      </trkpt>
      <trkpt lat="41.81832" lon="2.895442">
        <ele>180.0</ele>
        <time>2021-08-14T14:52:27Z</time>
      </trkpt>
      <trkpt lat="41.81824" lon="2.89548">
        <ele>180.0</ele>
        <time>2021-08-14T14:52:29Z</time>
      </trkpt>
      <trkpt lat="41.81816" lon="2.895515">
        <ele>180.0</ele>
        <time>2021-08-14T14:52:31Z</time>
      </trkpt>
      <trkpt lat="41.81808" lon="2.895545">
        <ele>180.0</ele>
        <time>2021-08-14T14:52:33Z</time>
      </trkpt>
      <trkpt lat="41.817995" lon="2.895585">
        <ele>180.0</ele>
        <time>2021-08-14T14:52:35Z</time>
      </trkpt>
      <trkpt lat="41.817915" lon="2.895627">
        <ele>181.0</ele>
        <time>2021-08-14T14:52:37Z</time>
      </trkpt>
      <trkpt lat="41.81783" lon="2.89567">
        <ele>181.0</ele>
        <time>2021-08-14T14:52:39Z</time>
      </trkpt>
      <trkpt lat="41.817745" lon="2.895705">
        <ele>181.0</ele>
        <time>2021-08-14T14:52:41Z</time>
      </trkpt>
      <trkpt lat="41.817662" lon="2.895748">
        <ele>181.0</ele>
        <time>2021-08-14T14:52:43Z</time>
      </trkpt>
      <trkpt lat="41.817575" lon="2.8958">
        <ele>181.0</ele>
        <time>2021-08-14T14:52:45Z</time>
      </trkpt>
      <trkpt lat="41.81749" lon="2.895843">
        <ele>182.0</ele>
        <time>2021-08-14T14:52:47Z</time>
      </trkpt>
      <trkpt lat="41.81741" lon="2.895895">
        <ele>182.0</ele>
        <time>2021-08-14T14:52:49Z</time>
      </trkpt>
      <trkpt lat="41.817325" lon="2.895943">
        <ele>182.0</ele>
        <time>2021-08-14T14:52:51Z</time>
      </trkpt>
      <trkpt lat="41.817245" lon="2.89599">
        <ele>182.0</ele>
        <time>2021-08-14T14:52:53Z</time>
      </trkpt>
      <trkpt lat="41.817165" lon="2.896032">
        <ele>183.0</ele>
        <time>2021-08-14T14:52:55Z</time>
      </trkpt>
      <trkpt lat="41.817075" lon="2.896073">
        <ele>184.0</ele>
        <time>2021-08-14T14:52:57Z</time>
      </trkpt>
      <trkpt lat="41.816992" lon="2.896117">
        <ele>184.0</ele>
        <time>2021-08-14T14:52:59Z</time>
      </trkpt>
      <trkpt lat="41.816903" lon="2.89617">
        <ele>184.0</ele>
        <time>2021-08-14T14:53:01Z</time>
      </trkpt>
      <trkpt lat="41.816825" lon="2.896213">
        <ele>184.0</ele>
        <time>2021-08-14T14:53:03Z</time>
      </trkpt>
      <trkpt lat="41.816745" lon="2.89625">
        <ele>185.0</ele>
        <time>2021-08-14T14:53:05Z</time>
      </trkpt>
      <trkpt lat="41.81666" lon="2.896275">
        <ele>185.0</ele>
        <time>2021-08-14T14:53:07Z</time>
      </trkpt>
      <trkpt lat="41.816575" lon="2.896292">
        <ele>185.0</ele>
        <time>2021-08-14T14:53:09Z</time>
      </trkpt>
      <trkpt lat="41.81649" lon="2.8963">
        <ele>185.0</ele>
        <time>2021-08-14T14:53:11Z</time>
      </trkpt>
      <trkpt lat="41.81641" lon="2.896315">
        <ele>185.0</ele>
        <time>2021-08-14T14:53:13Z</time>
      </trkpt>
      <trkpt lat="41.816325" lon="2.896312">
        <ele>186.0</ele>
        <time>2021-08-14T14:53:15Z</time>
      </trkpt>
      <trkpt lat="41.81624" lon="2.896308">
        <ele>186.0</ele>
        <time>2021-08-14T14:53:17Z</time>
      </trkpt>
      <trkpt lat="41.81615" lon="2.896317">
        <ele>186.0</ele>
        <time>2021-08-14T14:53:19Z</time>
      </trkpt>
      <trkpt lat="41.816065" lon="2.89632">
        <ele>186.0</ele>
        <time>2021-08-14T14:53:21Z</time>
      </trkpt>
      <trkpt lat="41.815985" lon="2.896325">
        <ele>185.0</ele>
        <time>2021-08-14T14:53:23Z</time>
      </trkpt>
      <trkpt lat="41.815912" lon="2.89633">
        <ele>185.0</ele>
        <time>2021-08-14T14:53:25Z</time>
      </trkpt>
      <trkpt lat="41.81584" lon="2.89633">
        <ele>184.0</ele>
        <time>2021-08-14T14:53:27Z</time>
      </trkpt>
      <trkpt lat="41.81576" lon="2.89633">
        <ele>184.0</ele>
        <time>2021-08-14T14:53:29Z</time>
      </trkpt>
      <trkpt lat="41.815677" lon="2.896337">
        <ele>184.0</ele>
        <time>2021-08-14T14:53:31Z</time>
      </trkpt>
      <trkpt lat="41.81559" lon="2.896345">
        <ele>184.0</ele>
        <time>2021-08-14T14:53:33Z</time>
      </trkpt>
      <trkpt lat="41.815507" lon="2.896347">
        <ele>183.0</ele>
        <time>2021-08-14T14:53:35Z</time>
      </trkpt>
      <trkpt lat="41.815425" lon="2.89635">
        <ele>183.0</ele>
        <time>2021-08-14T14:53:37Z</time>
      </trkpt>
      <trkpt lat="41.815345" lon="2.89635">
        <ele>183.0</ele>
        <time>2021-08-14T14:53:39Z</time>
      </trkpt>
      <trkpt lat="41.815258" lon="2.896355">
        <ele>183.0</ele>
        <time>2021-08-14T14:53:41Z</time>
      </trkpt>
      <trkpt lat="41.815172" lon="2.89637">
        <ele>183.0</ele>
        <time>2021-08-14T14:53:43Z</time>
      </trkpt>
      <trkpt lat="41.815087" lon="2.896375">
        <ele>183.0</ele>
        <time>2021-08-14T14:53:45Z</time>
      </trkpt>
      <trkpt lat="41.81501" lon="2.896375">
        <ele>183.0</ele>
        <time>2021-08-14T14:53:47Z</time>
      </trkpt>
      <trkpt lat="41.814925" lon="2.896382">
        <ele>183.0</ele>
        <time>2021-08-14T14:53:49Z</time>
      </trkpt>
      <trkpt lat="41.814845" lon="2.89639">
        <ele>182.0</ele>
        <time>2021-08-14T14:53:51Z</time>
      </trkpt>
      <trkpt lat="41.814765" lon="2.8964">
        <ele>182.0</ele>
        <time>2021-08-14T14:53:53Z</time>
      </trkpt>
      <trkpt lat="41.814685" lon="2.896405">
        <ele>182.0</ele>
        <time>2021-08-14T14:53:55Z</time>
      </trkpt>
      <trkpt lat="41.814615" lon="2.89642">
        <ele>183.0</ele>
        <time>2021-08-14T14:53:57Z</time>
      </trkpt>
      <trkpt lat="41.81454" lon="2.896427">
        <ele>183.0</ele>
        <time>2021-08-14T14:53:59Z</time>
      </trkpt>
      <trkpt lat="41.814465" lon="2.896435">
        <ele>183.0</ele>
        <time>2021-08-14T14:54:01Z</time>
      </trkpt>
      <trkpt lat="41.814395" lon="2.896432">
        <ele>183.0</ele>
        <time>2021-08-14T14:54:03Z</time>
      </trkpt>
      <trkpt lat="41.81432" lon="2.896435">
        <ele>184.0</ele>
        <time>2021-08-14T14:54:05Z</time>
      </trkpt>
      <trkpt lat="41.814235" lon="2.896432">
        <ele>184.0</ele>
        <time>2021-08-14T14:54:07Z</time>
      </trkpt>
      <trkpt lat="41.814155" lon="2.89644">
        <ele>183.0</ele>
        <time>2021-08-14T14:54:09Z</time>
      </trkpt>
      <trkpt lat="41.81408" lon="2.896445">
        <ele>183.0</ele>
        <time>2021-08-14T14:54:11Z</time>
      </trkpt>
      <trkpt lat="41.814005" lon="2.896455">
        <ele>184.0</ele>
        <time>2021-08-14T14:54:13Z</time>
      </trkpt>
      <trkpt lat="41.813935" lon="2.896465">
        <ele>184.0</ele>
        <time>2021-08-14T14:54:15Z</time>
      </trkpt>
      <trkpt lat="41.813857" lon="2.896468">
        <ele>185.0</ele>
        <time>2021-08-14T14:54:17Z</time>
      </trkpt>
      <trkpt lat="41.81378" lon="2.896477">
        <ele>185.0</ele>
        <time>2021-08-14T14:54:19Z</time>
      </trkpt>
      <trkpt lat="41.813702" lon="2.896482">
        <ele>185.0</ele>
        <time>2021-08-14T14:54:21Z</time>
      </trkpt>
      <trkpt lat="41.813595" lon="2.89649">
        <ele>185.0</ele>
        <time>2021-08-14T14:54:24Z</time>
      </trkpt>
      <trkpt lat="41.813492" lon="2.896495">
        <ele>186.0</ele>
        <time>2021-08-14T14:54:27Z</time>
      </trkpt>
      <trkpt lat="41.813395" lon="2.8965">
        <ele>187.0</ele>
        <time>2021-08-14T14:54:30Z</time>
      </trkpt>
      <trkpt lat="41.813325" lon="2.8965">
        <ele>187.0</ele>
        <time>2021-08-14T14:54:32Z</time>
      </trkpt>
      <trkpt lat="41.813245" lon="2.896495">
        <ele>187.0</ele>
        <time>2021-08-14T14:54:34Z</time>
      </trkpt>
      <trkpt lat="41.81317" lon="2.896495">
        <ele>188.0</ele>
        <time>2021-08-14T14:54:36Z</time>
      </trkpt>
      <trkpt lat="41.813095" lon="2.89649">
        <ele>188.0</ele>
        <time>2021-08-14T14:54:38Z</time>
      </trkpt>
      <trkpt lat="41.81299" lon="2.896472">
        <ele>189.0</ele>
        <time>2021-08-14T14:54:41Z</time>
      </trkpt>
      <trkpt lat="41.812915" lon="2.896455">
        <ele>189.0</ele>
        <time>2021-08-14T14:54:43Z</time>
      </trkpt>
      <trkpt lat="41.812818" lon="2.896442">
        <ele>191.0</ele>
        <time>2021-08-14T14:54:46Z</time>
      </trkpt>
      <trkpt lat="41.812725" lon="2.896415">
        <ele>191.0</ele>
        <time>2021-08-14T14:54:49Z</time>
      </trkpt>
      <trkpt lat="41.812635" lon="2.896413">
        <ele>192.0</ele>
        <time>2021-08-14T14:54:52Z</time>
      </trkpt>
      <trkpt lat="41.81254" lon="2.896403">
        <ele>192.0</ele>
        <time>2021-08-14T14:54:55Z</time>
      </trkpt>
      <trkpt lat="41.812447" lon="2.896365">
        <ele>193.0</ele>
        <time>2021-08-14T14:54:58Z</time>
      </trkpt>
      <trkpt lat="41.812358" lon="2.896415">
        <ele>194.0</ele>
        <time>2021-08-14T14:55:01Z</time>
      </trkpt>
      <trkpt lat="41.812322" lon="2.896505">
        <ele>195.0</ele>
        <time>2021-08-14T14:55:03Z</time>
      </trkpt>
      <trkpt lat="41.812287" lon="2.896645">
        <ele>196.0</ele>
        <time>2021-08-14T14:55:06Z</time>
      </trkpt>
      <trkpt lat="41.81226" lon="2.896738">
        <ele>197.0</ele>
        <time>2021-08-14T14:55:08Z</time>
      </trkpt>
      <trkpt lat="41.812217" lon="2.896837">
        <ele>197.0</ele>
        <time>2021-08-14T14:55:10Z</time>
      </trkpt>
      <trkpt lat="41.812157" lon="2.89695">
        <ele>197.0</ele>
        <time>2021-08-14T14:55:13Z</time>
      </trkpt>
      <trkpt lat="41.812082" lon="2.897048">
        <ele>197.0</ele>
        <time>2021-08-14T14:55:16Z</time>
      </trkpt>
      <trkpt lat="41.81203" lon="2.897117">
        <ele>197.0</ele>
        <time>2021-08-14T14:55:18Z</time>
      </trkpt>
      <trkpt lat="41.811978" lon="2.897192">
        <ele>197.0</ele>
        <time>2021-08-14T14:55:20Z</time>
      </trkpt>
      <trkpt lat="41.811927" lon="2.89726">
        <ele>197.0</ele>
        <time>2021-08-14T14:55:22Z</time>
      </trkpt>
      <trkpt lat="41.811837" lon="2.897325">
        <ele>198.0</ele>
        <time>2021-08-14T14:55:25Z</time>
      </trkpt>
      <trkpt lat="41.811737" lon="2.897345">
        <ele>198.0</ele>
        <time>2021-08-14T14:55:28Z</time>
      </trkpt>
      <trkpt lat="41.81167" lon="2.897395">
        <ele>199.0</ele>
        <time>2021-08-14T14:55:30Z</time>
      </trkpt>
      <trkpt lat="41.81162" lon="2.897472">
        <ele>199.0</ele>
        <time>2021-08-14T14:55:32Z</time>
      </trkpt>
      <trkpt lat="41.811565" lon="2.89754">
        <ele>199.0</ele>
        <time>2021-08-14T14:55:34Z</time>
      </trkpt>
      <trkpt lat="41.811495" lon="2.897587">
        <ele>199.0</ele>
        <time>2021-08-14T14:55:36Z</time>
      </trkpt>
      <trkpt lat="41.811415" lon="2.89761">
        <ele>199.0</ele>
        <time>2021-08-14T14:55:38Z</time>
      </trkpt>
      <trkpt lat="41.811322" lon="2.897595">
        <ele>198.0</ele>
        <time>2021-08-14T14:55:40Z</time>
      </trkpt>
      <trkpt lat="41.81122" lon="2.897557">
        <ele>197.0</ele>
        <time>2021-08-14T14:55:42Z</time>
      </trkpt>
      <trkpt lat="41.81111" lon="2.89751">
        <ele>195.0</ele>
        <time>2021-08-14T14:55:44Z</time>
      </trkpt>
      <trkpt lat="41.810985" lon="2.897452">
        <ele>194.0</ele>
        <time>2021-08-14T14:55:46Z</time>
      </trkpt>
      <trkpt lat="41.81091" lon="2.89742">
        <ele>194.0</ele>
        <time>2021-08-14T14:55:47Z</time>
      </trkpt>
      <trkpt lat="41.810835" lon="2.897385">
        <ele>193.0</ele>
        <time>2021-08-14T14:55:48Z</time>
      </trkpt>
      <trkpt lat="41.810755" lon="2.897357">
        <ele>192.0</ele>
        <time>2021-08-14T14:55:49Z</time>
      </trkpt>
      <trkpt lat="41.810675" lon="2.89734">
        <ele>192.0</ele>
        <time>2021-08-14T14:55:50Z</time>
      </trkpt>
      <trkpt lat="41.810592" lon="2.897325">
        <ele>191.0</ele>
        <time>2021-08-14T14:55:51Z</time>
      </trkpt>
      <trkpt lat="41.81051" lon="2.897325">
        <ele>191.0</ele>
        <time>2021-08-14T14:55:52Z</time>
      </trkpt>
      <trkpt lat="41.810435" lon="2.89733">
        <ele>191.0</ele>
        <time>2021-08-14T14:55:53Z</time>
      </trkpt>
      <trkpt lat="41.810355" lon="2.897345">
        <ele>190.0</ele>
        <time>2021-08-14T14:55:54Z</time>
      </trkpt>
      <trkpt lat="41.810285" lon="2.897368">
        <ele>190.0</ele>
        <time>2021-08-14T14:55:55Z</time>
      </trkpt>
      <trkpt lat="41.810215" lon="2.897397">
        <ele>190.0</ele>
        <time>2021-08-14T14:55:56Z</time>
      </trkpt>
      <trkpt lat="41.810087" lon="2.897457">
        <ele>188.0</ele>
        <time>2021-08-14T14:55:58Z</time>
      </trkpt>
      <trkpt lat="41.80998" lon="2.897502">
        <ele>188.0</ele>
        <time>2021-08-14T14:56:00Z</time>
      </trkpt>
      <trkpt lat="41.809885" lon="2.897555">
        <ele>188.0</ele>
        <time>2021-08-14T14:56:02Z</time>
      </trkpt>
      <trkpt lat="41.80979" lon="2.897605">
        <ele>188.0</ele>
        <time>2021-08-14T14:56:04Z</time>
      </trkpt>
      <trkpt lat="41.809695" lon="2.897652">
        <ele>188.0</ele>
        <time>2021-08-14T14:56:06Z</time>
      </trkpt>
      <trkpt lat="41.80961" lon="2.89771">
        <ele>188.0</ele>
        <time>2021-08-14T14:56:08Z</time>
      </trkpt>
      <trkpt lat="41.80953" lon="2.89776">
        <ele>189.0</ele>
        <time>2021-08-14T14:56:10Z</time>
      </trkpt>
      <trkpt lat="41.809445" lon="2.89781">
        <ele>188.0</ele>
        <time>2021-08-14T14:56:12Z</time>
      </trkpt>
      <trkpt lat="41.809365" lon="2.897875">
        <ele>188.0</ele>
        <time>2021-08-14T14:56:14Z</time>
      </trkpt>
      <trkpt lat="41.80928" lon="2.897925">
        <ele>189.0</ele>
        <time>2021-08-14T14:56:16Z</time>
      </trkpt>
      <trkpt lat="41.809205" lon="2.897985">
        <ele>189.0</ele>
        <time>2021-08-14T14:56:18Z</time>
      </trkpt>
      <trkpt lat="41.809127" lon="2.898043">
        <ele>190.0</ele>
        <time>2021-08-14T14:56:20Z</time>
      </trkpt>
      <trkpt lat="41.809047" lon="2.898103">
        <ele>189.0</ele>
        <time>2021-08-14T14:56:22Z</time>
      </trkpt>
      <trkpt lat="41.808965" lon="2.89816">
        <ele>189.0</ele>
        <time>2021-08-14T14:56:24Z</time>
      </trkpt>
      <trkpt lat="41.808887" lon="2.89823">
        <ele>189.0</ele>
        <time>2021-08-14T14:56:26Z</time>
      </trkpt>
      <trkpt lat="41.808815" lon="2.8983">
        <ele>190.0</ele>
        <time>2021-08-14T14:56:28Z</time>
      </trkpt>
      <trkpt lat="41.80874" lon="2.898365">
        <ele>190.0</ele>
        <time>2021-08-14T14:56:30Z</time>
      </trkpt>
      <trkpt lat="41.808665" lon="2.89843">
        <ele>190.0</ele>
        <time>2021-08-14T14:56:32Z</time>
      </trkpt>
      <trkpt lat="41.808588" lon="2.898497">
        <ele>190.0</ele>
        <time>2021-08-14T14:56:34Z</time>
      </trkpt>
      <trkpt lat="41.80852" lon="2.89857">
        <ele>190.0</ele>
        <time>2021-08-14T14:56:36Z</time>
      </trkpt>
      <trkpt lat="41.808445" lon="2.898637">
        <ele>190.0</ele>
        <time>2021-08-14T14:56:38Z</time>
      </trkpt>
      <trkpt lat="41.80837" lon="2.898705">
        <ele>190.0</ele>
        <time>2021-08-14T14:56:40Z</time>
      </trkpt>
      <trkpt lat="41.808302" lon="2.898775">
        <ele>190.0</ele>
        <time>2021-08-14T14:56:42Z</time>
      </trkpt>
      <trkpt lat="41.808227" lon="2.898845">
        <ele>190.0</ele>
        <time>2021-08-14T14:56:44Z</time>
      </trkpt>
      <trkpt lat="41.808155" lon="2.898913">
        <ele>190.0</ele>
        <time>2021-08-14T14:56:46Z</time>
      </trkpt>
      <trkpt lat="41.80808" lon="2.898985">
        <ele>190.0</ele>
        <time>2021-08-14T14:56:48Z</time>
      </trkpt>
      <trkpt lat="41.80801" lon="2.899055">
        <ele>190.0</ele>
        <time>2021-08-14T14:56:50Z</time>
      </trkpt>
      <trkpt lat="41.807935" lon="2.899135">
        <ele>190.0</ele>
        <time>2021-08-14T14:56:52Z</time>
      </trkpt>
      <trkpt lat="41.807862" lon="2.8992">
        <ele>189.0</ele>
        <time>2021-08-14T14:56:54Z</time>
      </trkpt>
      <trkpt lat="41.807795" lon="2.89927">
        <ele>189.0</ele>
        <time>2021-08-14T14:56:56Z</time>
      </trkpt>
      <trkpt lat="41.80773" lon="2.899335">
        <ele>189.0</ele>
        <time>2021-08-14T14:56:58Z</time>
      </trkpt>
      <trkpt lat="41.807667" lon="2.899395">
        <ele>189.0</ele>
        <time>2021-08-14T14:57:00Z</time>
      </trkpt>
      <trkpt lat="41.807602" lon="2.899453">
        <ele>190.0</ele>
        <time>2021-08-14T14:57:02Z</time>
      </trkpt>
      <trkpt lat="41.807532" lon="2.899515">
        <ele>190.0</ele>
        <time>2021-08-14T14:57:04Z</time>
      </trkpt>
      <trkpt lat="41.807465" lon="2.899585">
        <ele>190.0</ele>
        <time>2021-08-14T14:57:06Z</time>
      </trkpt>
      <trkpt lat="41.8074" lon="2.89965">
        <ele>191.0</ele>
        <time>2021-08-14T14:57:08Z</time>
      </trkpt>
      <trkpt lat="41.80733" lon="2.899715">
        <ele>191.0</ele>
        <time>2021-08-14T14:57:10Z</time>
      </trkpt>
      <trkpt lat="41.807265" lon="2.899787">
        <ele>191.0</ele>
        <time>2021-08-14T14:57:12Z</time>
      </trkpt>
      <trkpt lat="41.807215" lon="2.899865">
        <ele>191.0</ele>
        <time>2021-08-14T14:57:14Z</time>
      </trkpt>
      <trkpt lat="41.807165" lon="2.899945">
        <ele>191.0</ele>
        <time>2021-08-14T14:57:16Z</time>
      </trkpt>
      <trkpt lat="41.80713" lon="2.900042">
        <ele>191.0</ele>
        <time>2021-08-14T14:57:18Z</time>
      </trkpt>
      <trkpt lat="41.807105" lon="2.900145">
        <ele>191.0</ele>
        <time>2021-08-14T14:57:20Z</time>
      </trkpt>
      <trkpt lat="41.8071" lon="2.900252">
        <ele>191.0</ele>
        <time>2021-08-14T14:57:22Z</time>
      </trkpt>
      <trkpt lat="41.807095" lon="2.90036">
        <ele>191.0</ele>
        <time>2021-08-14T14:57:24Z</time>
      </trkpt>
      <trkpt lat="41.807085" lon="2.9005">
        <ele>191.0</ele>
        <time>2021-08-14T14:57:27Z</time>
      </trkpt>
      <trkpt lat="41.80709" lon="2.900637">
        <ele>191.0</ele>
        <time>2021-08-14T14:57:30Z</time>
      </trkpt>
      <trkpt lat="41.80709" lon="2.900772">
        <ele>192.0</ele>
        <time>2021-08-14T14:57:33Z</time>
      </trkpt>
      <trkpt lat="41.807085" lon="2.900905">
        <ele>192.0</ele>
        <time>2021-08-14T14:57:36Z</time>
      </trkpt>
      <trkpt lat="41.807085" lon="2.90102">
        <ele>192.0</ele>
        <time>2021-08-14T14:57:39Z</time>
      </trkpt>
      <trkpt lat="41.807087" lon="2.901145">
        <ele>193.0</ele>
        <time>2021-08-14T14:57:42Z</time>
      </trkpt>
      <trkpt lat="41.80708" lon="2.901275">
        <ele>193.0</ele>
        <time>2021-08-14T14:57:45Z</time>
      </trkpt>
      <trkpt lat="41.807087" lon="2.90141">
        <ele>194.0</ele>
        <time>2021-08-14T14:57:48Z</time>
      </trkpt>
      <trkpt lat="41.807085" lon="2.90154">
        <ele>194.0</ele>
        <time>2021-08-14T14:57:51Z</time>
      </trkpt>
      <trkpt lat="41.807085" lon="2.901667">
        <ele>195.0</ele>
        <time>2021-08-14T14:57:54Z</time>
      </trkpt>
      <trkpt lat="41.807075" lon="2.901805">
        <ele>196.0</ele>
        <time>2021-08-14T14:57:57Z</time>
      </trkpt>
      <trkpt lat="41.807065" lon="2.901902">
        <ele>196.0</ele>
        <time>2021-08-14T14:57:59Z</time>
      </trkpt>
      <trkpt lat="41.807052" lon="2.901995">
        <ele>197.0</ele>
        <time>2021-08-14T14:58:01Z</time>
      </trkpt>
      <trkpt lat="41.80704" lon="2.902097">
        <ele>197.0</ele>
        <time>2021-08-14T14:58:03Z</time>
      </trkpt>
      <trkpt lat="41.807027" lon="2.902195">
        <ele>197.0</ele>
        <time>2021-08-14T14:58:05Z</time>
      </trkpt>
      <trkpt lat="41.807015" lon="2.902295">
        <ele>198.0</ele>
        <time>2021-08-14T14:58:07Z</time>
      </trkpt>
      <trkpt lat="41.807005" lon="2.902388">
        <ele>198.0</ele>
        <time>2021-08-14T14:58:09Z</time>
      </trkpt>
      <trkpt lat="41.806987" lon="2.90249">
        <ele>198.0</ele>
        <time>2021-08-14T14:58:11Z</time>
      </trkpt>
      <trkpt lat="41.80697" lon="2.90259">
        <ele>198.0</ele>
        <time>2021-08-14T14:58:13Z</time>
      </trkpt>
      <trkpt lat="41.80696" lon="2.902702">
        <ele>197.0</ele>
        <time>2021-08-14T14:58:15Z</time>
      </trkpt>
      <trkpt lat="41.806945" lon="2.9028">
        <ele>196.0</ele>
        <time>2021-08-14T14:58:17Z</time>
      </trkpt>
      <trkpt lat="41.806935" lon="2.902895">
        <ele>197.0</ele>
        <time>2021-08-14T14:58:19Z</time>
      </trkpt>
      <trkpt lat="41.80692" lon="2.903035">
        <ele>197.0</ele>
        <time>2021-08-14T14:58:22Z</time>
      </trkpt>
      <trkpt lat="41.8069" lon="2.90313">
        <ele>197.0</ele>
        <time>2021-08-14T14:58:24Z</time>
      </trkpt>
      <trkpt lat="41.80689" lon="2.903227">
        <ele>197.0</ele>
        <time>2021-08-14T14:58:26Z</time>
      </trkpt>
      <trkpt lat="41.80687" lon="2.90336">
        <ele>197.0</ele>
        <time>2021-08-14T14:58:29Z</time>
      </trkpt>
      <trkpt lat="41.806855" lon="2.903495">
        <ele>197.0</ele>
        <time>2021-08-14T14:58:32Z</time>
      </trkpt>
      <trkpt lat="41.806835" lon="2.903625">
        <ele>197.0</ele>
        <time>2021-08-14T14:58:35Z</time>
      </trkpt>
      <trkpt lat="41.806817" lon="2.90374">
        <ele>198.0</ele>
        <time>2021-08-14T14:58:38Z</time>
      </trkpt>
      <trkpt lat="41.8068" lon="2.903838">
        <ele>198.0</ele>
        <time>2021-08-14T14:58:42Z</time>
      </trkpt>
      <trkpt lat="41.80678" lon="2.903913">
        <ele>199.0</ele>
        <time>2021-08-14T14:58:49Z</time>
      </trkpt>
      <trkpt lat="41.80679" lon="2.90394">
        <ele>199.0</ele>
        <time>2021-08-14T14:58:56Z</time>
      </trkpt>
      <trkpt lat="41.80678" lon="2.903955">
        <ele>200.0</ele>
        <time>2021-08-14T14:59:03Z</time>
      </trkpt>
      <trkpt lat="41.80678" lon="2.903957">
        <ele>200.0</ele>
        <time>2021-08-14T14:59:07Z</time>
      </trkpt>
      <trkpt lat="41.80679" lon="2.903965">
        <ele>199.0</ele>
        <time>2021-08-14T14:59:22Z</time>
      </trkpt>
      <trkpt lat="41.80679" lon="2.903965">
        <ele>199.0</ele>
        <time>2021-08-14T14:59:23Z</time>
      </trkpt>
      <trkpt lat="41.80675" lon="2.90393">
        <ele>200.0</ele>
        <time>2021-08-14T14:59:37Z</time>
      </trkpt>
      <trkpt lat="41.806735" lon="2.903933">
        <ele>200.0</ele>
        <time>2021-08-14T14:59:44Z</time>
      </trkpt>
      <trkpt lat="41.806785" lon="2.903892">
        <ele>198.0</ele>
        <time>2021-08-14T14:59:51Z</time>
      </trkpt>
      <trkpt lat="41.806773" lon="2.903895">
        <ele>197.0</ele>
        <time>2021-08-14T14:59:58Z</time>
      </trkpt>
      <trkpt lat="41.806747" lon="2.90389">
        <ele>196.0</ele>
        <time>2021-08-14T15:00:05Z</time>
      </trkpt>
      <trkpt lat="41.80678" lon="2.90389">
        <ele>194.0</ele>
        <time>2021-08-14T15:00:12Z</time>
      </trkpt>
      <trkpt lat="41.80677" lon="2.903913">
        <ele>193.0</ele>
        <time>2021-08-14T15:00:19Z</time>
      </trkpt>
      <trkpt lat="41.80677" lon="2.903913">
        <ele>193.0</ele>
        <time>2021-08-14T15:00:24Z</time>
      </trkpt>
      <trkpt lat="41.806765" lon="2.903905">
        <ele>195.0</ele>
        <time>2021-08-14T15:00:34Z</time>
      </trkpt>
      <trkpt lat="41.806765" lon="2.90391">
        <ele>196.0</ele>
        <time>2021-08-14T15:00:37Z</time>
      </trkpt>
      <trkpt lat="41.806765" lon="2.903962">
        <ele>202.0</ele>
        <time>2021-08-14T15:00:54Z</time>
      </trkpt>
      <trkpt lat="41.80677" lon="2.903965">
        <ele>203.0</ele>
        <time>2021-08-14T15:01:01Z</time>
      </trkpt>
      <trkpt lat="41.80678" lon="2.903965">
        <ele>205.0</ele>
        <time>2021-08-14T15:01:09Z</time>
      </trkpt>
      <trkpt lat="41.80678" lon="2.903965">
        <ele>205.0</ele>
        <time>2021-08-14T15:01:10Z</time>
      </trkpt>
      <trkpt lat="41.806772" lon="2.90395">
        <ele>205.0</ele>
        <time>2021-08-14T15:01:19Z</time>
      </trkpt>
      <trkpt lat="41.806775" lon="2.90394">
        <ele>204.0</ele>
        <time>2021-08-14T15:01:22Z</time>
      </trkpt>
      <trkpt lat="41.80677" lon="2.903945">
        <ele>202.0</ele>
        <time>2021-08-14T15:01:30Z</time>
      </trkpt>
      <trkpt lat="41.80675" lon="2.903967">
        <ele>201.0</ele>
        <time>2021-08-14T15:01:37Z</time>
      </trkpt>
      <trkpt lat="41.80675" lon="2.903967">
        <ele>201.0</ele>
        <time>2021-08-14T15:01:41Z</time>
      </trkpt>
      <trkpt lat="41.80673" lon="2.90397">
        <ele>203.0</ele>
        <time>2021-08-14T15:02:32Z</time>
      </trkpt>
      <trkpt lat="41.80673" lon="2.90397">
        <ele>203.0</ele>
        <time>2021-08-14T15:02:33Z</time>
      </trkpt>
      <trkpt lat="41.8067" lon="2.903985">
        <ele>203.0</ele>
        <time>2021-08-14T15:02:48Z</time>
      </trkpt>
      <trkpt lat="41.80669" lon="2.90398">
        <ele>202.0</ele>
        <time>2021-08-14T15:02:55Z</time>
      </trkpt>
      <trkpt lat="41.806688" lon="2.90398">
        <ele>203.0</ele>
        <time>2021-08-14T15:02:59Z</time>
      </trkpt>
      <trkpt lat="41.806695" lon="2.90397">
        <ele>202.0</ele>
        <time>2021-08-14T15:03:07Z</time>
      </trkpt>
      <trkpt lat="41.806695" lon="2.90397">
        <ele>202.0</ele>
        <time>2021-08-14T15:03:13Z</time>
      </trkpt>
      <trkpt lat="41.80666" lon="2.904002">
        <ele>202.0</ele>
        <time>2021-08-14T15:03:20Z</time>
      </trkpt>
      <trkpt lat="41.80666" lon="2.904002">
        <ele>202.0</ele>
        <time>2021-08-14T15:03:25Z</time>
      </trkpt>
      <trkpt lat="41.80669" lon="2.904">
        <ele>203.0</ele>
        <time>2021-08-14T15:03:34Z</time>
      </trkpt>
      <trkpt lat="41.806687" lon="2.90399">
        <ele>204.0</ele>
        <time>2021-08-14T15:03:41Z</time>
      </trkpt>
      <trkpt lat="41.806687" lon="2.90399">
        <ele>204.0</ele>
        <time>2021-08-14T15:03:45Z</time>
      </trkpt>
      <trkpt lat="41.806725" lon="2.90397">
        <ele>203.0</ele>
        <time>2021-08-14T15:03:52Z</time>
      </trkpt>
      <trkpt lat="41.806725" lon="2.904075">
        <ele>204.0</ele>
        <time>2021-08-14T15:03:59Z</time>
      </trkpt>
      <trkpt lat="41.806715" lon="2.904185">
        <ele>205.0</ele>
        <time>2021-08-14T15:04:02Z</time>
      </trkpt>
      <trkpt lat="41.8067" lon="2.90432">
        <ele>206.0</ele>
        <time>2021-08-14T15:04:05Z</time>
      </trkpt>
      <trkpt lat="41.806687" lon="2.904435">
        <ele>207.0</ele>
        <time>2021-08-14T15:04:07Z</time>
      </trkpt>
      <trkpt lat="41.806672" lon="2.904538">
        <ele>207.0</ele>
        <time>2021-08-14T15:04:09Z</time>
      </trkpt>
      <trkpt lat="41.80664" lon="2.904637">
        <ele>208.0</ele>
        <time>2021-08-14T15:04:11Z</time>
      </trkpt>
      <trkpt lat="41.806602" lon="2.90476">
        <ele>208.0</ele>
        <time>2021-08-14T15:04:14Z</time>
      </trkpt>
      <trkpt lat="41.806565" lon="2.904855">
        <ele>208.0</ele>
        <time>2021-08-14T15:04:16Z</time>
      </trkpt>
      <trkpt lat="41.806515" lon="2.90494">
        <ele>208.0</ele>
        <time>2021-08-14T15:04:18Z</time>
      </trkpt>
      <trkpt lat="41.80648" lon="2.905032">
        <ele>209.0</ele>
        <time>2021-08-14T15:04:20Z</time>
      </trkpt>
      <trkpt lat="41.80644" lon="2.905118">
        <ele>209.0</ele>
        <time>2021-08-14T15:04:22Z</time>
      </trkpt>
      <trkpt lat="41.806405" lon="2.905205">
        <ele>209.0</ele>
        <time>2021-08-14T15:04:24Z</time>
      </trkpt>
      <trkpt lat="41.80637" lon="2.90532">
        <ele>210.0</ele>
        <time>2021-08-14T15:04:27Z</time>
      </trkpt>
      <trkpt lat="41.806295" lon="2.90542">
        <ele>210.0</ele>
        <time>2021-08-14T15:04:30Z</time>
      </trkpt>
      <trkpt lat="41.806237" lon="2.905525">
        <ele>210.0</ele>
        <time>2021-08-14T15:04:33Z</time>
      </trkpt>
      <trkpt lat="41.80618" lon="2.905645">
        <ele>210.0</ele>
        <time>2021-08-14T15:04:36Z</time>
      </trkpt>
      <trkpt lat="41.806135" lon="2.905717">
        <ele>210.0</ele>
        <time>2021-08-14T15:04:38Z</time>
      </trkpt>
      <trkpt lat="41.806077" lon="2.905835">
        <ele>210.0</ele>
        <time>2021-08-14T15:04:41Z</time>
      </trkpt>
      <trkpt lat="41.806025" lon="2.905925">
        <ele>209.0</ele>
        <time>2021-08-14T15:04:43Z</time>
      </trkpt>
      <trkpt lat="41.805975" lon="2.906025">
        <ele>208.0</ele>
        <time>2021-08-14T15:04:45Z</time>
      </trkpt>
      <trkpt lat="41.805927" lon="2.9061">
        <ele>208.0</ele>
        <time>2021-08-14T15:04:47Z</time>
      </trkpt>
      <trkpt lat="41.805867" lon="2.906215">
        <ele>208.0</ele>
        <time>2021-08-14T15:04:50Z</time>
      </trkpt>
      <trkpt lat="41.8058" lon="2.90633">
        <ele>209.0</ele>
        <time>2021-08-14T15:04:53Z</time>
      </trkpt>
      <trkpt lat="41.805745" lon="2.906415">
        <ele>209.0</ele>
        <time>2021-08-14T15:04:55Z</time>
      </trkpt>
      <trkpt lat="41.8057" lon="2.906502">
        <ele>208.0</ele>
        <time>2021-08-14T15:04:57Z</time>
      </trkpt>
      <trkpt lat="41.805655" lon="2.90658">
        <ele>208.0</ele>
        <time>2021-08-14T15:04:59Z</time>
      </trkpt>
      <trkpt lat="41.8056" lon="2.90669">
        <ele>207.0</ele>
        <time>2021-08-14T15:05:02Z</time>
      </trkpt>
      <trkpt lat="41.805545" lon="2.906808">
        <ele>206.0</ele>
        <time>2021-08-14T15:05:05Z</time>
      </trkpt>
      <trkpt lat="41.8055" lon="2.906905">
        <ele>207.0</ele>
        <time>2021-08-14T15:05:08Z</time>
      </trkpt>
      <trkpt lat="41.80544" lon="2.907">
        <ele>207.0</ele>
        <time>2021-08-14T15:05:12Z</time>
      </trkpt>
      <trkpt lat="41.805382" lon="2.90707">
        <ele>208.0</ele>
        <time>2021-08-14T15:05:15Z</time>
      </trkpt>
      <trkpt lat="41.80532" lon="2.90714">
        <ele>208.0</ele>
        <time>2021-08-14T15:05:18Z</time>
      </trkpt>
      <trkpt lat="41.805238" lon="2.907175">
        <ele>208.0</ele>
        <time>2021-08-14T15:05:21Z</time>
      </trkpt>
      <trkpt lat="41.805172" lon="2.907227">
        <ele>207.0</ele>
        <time>2021-08-14T15:05:24Z</time>
      </trkpt>
      <trkpt lat="41.80509" lon="2.907245">
        <ele>207.0</ele>
        <time>2021-08-14T15:05:27Z</time>
      </trkpt>
      <trkpt lat="41.80499" lon="2.907237">
        <ele>207.0</ele>
        <time>2021-08-14T15:05:31Z</time>
      </trkpt>
      <trkpt lat="41.804907" lon="2.90719">
        <ele>208.0</ele>
        <time>2021-08-14T15:05:34Z</time>
      </trkpt>
      <trkpt lat="41.80481" lon="2.907165">
        <ele>208.0</ele>
        <time>2021-08-14T15:05:37Z</time>
      </trkpt>
      <trkpt lat="41.804735" lon="2.90714">
        <ele>208.0</ele>
        <time>2021-08-14T15:05:39Z</time>
      </trkpt>
      <trkpt lat="41.804645" lon="2.907125">
        <ele>208.0</ele>
        <time>2021-08-14T15:05:41Z</time>
      </trkpt>
      <trkpt lat="41.804555" lon="2.907085">
        <ele>208.0</ele>
        <time>2021-08-14T15:05:44Z</time>
      </trkpt>
      <trkpt lat="41.804475" lon="2.907063">
        <ele>208.0</ele>
        <time>2021-08-14T15:05:46Z</time>
      </trkpt>
      <trkpt lat="41.80438" lon="2.90705">
        <ele>208.0</ele>
        <time>2021-08-14T15:05:49Z</time>
      </trkpt>
      <trkpt lat="41.80431" lon="2.907035">
        <ele>208.0</ele>
        <time>2021-08-14T15:05:52Z</time>
      </trkpt>
      <trkpt lat="41.804235" lon="2.907015">
        <ele>208.0</ele>
        <time>2021-08-14T15:05:55Z</time>
      </trkpt>
      <trkpt lat="41.80416" lon="2.907">
        <ele>208.0</ele>
        <time>2021-08-14T15:05:58Z</time>
      </trkpt>
      <trkpt lat="41.80406" lon="2.90702">
        <ele>209.0</ele>
        <time>2021-08-14T15:06:01Z</time>
      </trkpt>
      <trkpt lat="41.80397" lon="2.907063">
        <ele>209.0</ele>
        <time>2021-08-14T15:06:04Z</time>
      </trkpt>
      <trkpt lat="41.8039" lon="2.907125">
        <ele>210.0</ele>
        <time>2021-08-14T15:06:07Z</time>
      </trkpt>
      <trkpt lat="41.803835" lon="2.907202">
        <ele>211.0</ele>
        <time>2021-08-14T15:06:10Z</time>
      </trkpt>
      <trkpt lat="41.803775" lon="2.90727">
        <ele>211.0</ele>
        <time>2021-08-14T15:06:13Z</time>
      </trkpt>
      <trkpt lat="41.803725" lon="2.907365">
        <ele>212.0</ele>
        <time>2021-08-14T15:06:16Z</time>
      </trkpt>
      <trkpt lat="41.803685" lon="2.90749">
        <ele>213.0</ele>
        <time>2021-08-14T15:06:19Z</time>
      </trkpt>
      <trkpt lat="41.803648" lon="2.907588">
        <ele>214.0</ele>
        <time>2021-08-14T15:06:22Z</time>
      </trkpt>
      <trkpt lat="41.80362" lon="2.907705">
        <ele>215.0</ele>
        <time>2021-08-14T15:06:25Z</time>
      </trkpt>
      <trkpt lat="41.80359" lon="2.9078">
        <ele>216.0</ele>
        <time>2021-08-14T15:06:28Z</time>
      </trkpt>
      <trkpt lat="41.80356" lon="2.907927">
        <ele>217.0</ele>
        <time>2021-08-14T15:06:32Z</time>
      </trkpt>
      <trkpt lat="41.80352" lon="2.908025">
        <ele>218.0</ele>
        <time>2021-08-14T15:06:35Z</time>
      </trkpt>
      <trkpt lat="41.80349" lon="2.908117">
        <ele>219.0</ele>
        <time>2021-08-14T15:06:38Z</time>
      </trkpt>
      <trkpt lat="41.803437" lon="2.9082">
        <ele>219.0</ele>
        <time>2021-08-14T15:06:41Z</time>
      </trkpt>
      <trkpt lat="41.80338" lon="2.90827">
        <ele>220.0</ele>
        <time>2021-08-14T15:06:44Z</time>
      </trkpt>
      <trkpt lat="41.803305" lon="2.908317">
        <ele>221.0</ele>
        <time>2021-08-14T15:06:48Z</time>
      </trkpt>
      <trkpt lat="41.803212" lon="2.908327">
        <ele>222.0</ele>
        <time>2021-08-14T15:06:52Z</time>
      </trkpt>
      <trkpt lat="41.803135" lon="2.90831">
        <ele>224.0</ele>
        <time>2021-08-14T15:06:55Z</time>
      </trkpt>
      <trkpt lat="41.803065" lon="2.908272">
        <ele>224.0</ele>
        <time>2021-08-14T15:06:58Z</time>
      </trkpt>
      <trkpt lat="41.802995" lon="2.908222">
        <ele>224.0</ele>
        <time>2021-08-14T15:07:01Z</time>
      </trkpt>
      <trkpt lat="41.80293" lon="2.908165">
        <ele>225.0</ele>
        <time>2021-08-14T15:07:04Z</time>
      </trkpt>
      <trkpt lat="41.80287" lon="2.908092">
        <ele>226.0</ele>
        <time>2021-08-14T15:07:07Z</time>
      </trkpt>
      <trkpt lat="41.802825" lon="2.908015">
        <ele>227.0</ele>
        <time>2021-08-14T15:07:10Z</time>
      </trkpt>
      <trkpt lat="41.80276" lon="2.90793">
        <ele>228.0</ele>
        <time>2021-08-14T15:07:14Z</time>
      </trkpt>
      <trkpt lat="41.802705" lon="2.907855">
        <ele>228.0</ele>
        <time>2021-08-14T15:07:17Z</time>
      </trkpt>
      <trkpt lat="41.80265" lon="2.907775">
        <ele>228.0</ele>
        <time>2021-08-14T15:07:20Z</time>
      </trkpt>
      <trkpt lat="41.802587" lon="2.907697">
        <ele>229.0</ele>
        <time>2021-08-14T15:07:23Z</time>
      </trkpt>
      <trkpt lat="41.802527" lon="2.90762">
        <ele>229.0</ele>
        <time>2021-08-14T15:07:26Z</time>
      </trkpt>
      <trkpt lat="41.80248" lon="2.907532">
        <ele>229.0</ele>
        <time>2021-08-14T15:07:29Z</time>
      </trkpt>
      <trkpt lat="41.80243" lon="2.90745">
        <ele>230.0</ele>
        <time>2021-08-14T15:07:32Z</time>
      </trkpt>
      <trkpt lat="41.80238" lon="2.907375">
        <ele>231.0</ele>
        <time>2021-08-14T15:07:35Z</time>
      </trkpt>
      <trkpt lat="41.802337" lon="2.907287">
        <ele>231.0</ele>
        <time>2021-08-14T15:07:38Z</time>
      </trkpt>
      <trkpt lat="41.80229" lon="2.90721">
        <ele>231.0</ele>
        <time>2021-08-14T15:07:41Z</time>
      </trkpt>
      <trkpt lat="41.80223" lon="2.907135">
        <ele>232.0</ele>
        <time>2021-08-14T15:07:44Z</time>
      </trkpt>
      <trkpt lat="41.802172" lon="2.907067">
        <ele>232.0</ele>
        <time>2021-08-14T15:07:47Z</time>
      </trkpt>
      <trkpt lat="41.802117" lon="2.90699">
        <ele>232.0</ele>
        <time>2021-08-14T15:07:50Z</time>
      </trkpt>
      <trkpt lat="41.80205" lon="2.90693">
        <ele>232.0</ele>
        <time>2021-08-14T15:07:53Z</time>
      </trkpt>
      <trkpt lat="41.802" lon="2.90685">
        <ele>233.0</ele>
        <time>2021-08-14T15:07:56Z</time>
      </trkpt>
      <trkpt lat="41.80196" lon="2.906755">
        <ele>233.0</ele>
        <time>2021-08-14T15:07:59Z</time>
      </trkpt>
      <trkpt lat="41.80193" lon="2.90666">
        <ele>233.0</ele>
        <time>2021-08-14T15:08:02Z</time>
      </trkpt>
      <trkpt lat="41.801912" lon="2.90656">
        <ele>233.0</ele>
        <time>2021-08-14T15:08:05Z</time>
      </trkpt>
      <trkpt lat="41.80189" lon="2.906452">
        <ele>233.0</ele>
        <time>2021-08-14T15:08:08Z</time>
      </trkpt>
      <trkpt lat="41.801892" lon="2.906352">
        <ele>233.0</ele>
        <time>2021-08-14T15:08:11Z</time>
      </trkpt>
      <trkpt lat="41.80189" lon="2.906252">
        <ele>234.0</ele>
        <time>2021-08-14T15:08:14Z</time>
      </trkpt>
      <trkpt lat="41.80189" lon="2.90615">
        <ele>235.0</ele>
        <time>2021-08-14T15:08:17Z</time>
      </trkpt>
      <trkpt lat="41.801882" lon="2.906035">
        <ele>235.0</ele>
        <time>2021-08-14T15:08:20Z</time>
      </trkpt>
      <trkpt lat="41.801832" lon="2.90592">
        <ele>235.0</ele>
        <time>2021-08-14T15:08:23Z</time>
      </trkpt>
      <trkpt lat="41.801772" lon="2.90585">
        <ele>236.0</ele>
        <time>2021-08-14T15:08:26Z</time>
      </trkpt>
      <trkpt lat="41.8017" lon="2.905802">
        <ele>236.0</ele>
        <time>2021-08-14T15:08:30Z</time>
      </trkpt>
      <trkpt lat="41.80162" lon="2.905802">
        <ele>236.0</ele>
        <time>2021-08-14T15:08:33Z</time>
      </trkpt>
      <trkpt lat="41.801547" lon="2.905865">
        <ele>237.0</ele>
        <time>2021-08-14T15:08:36Z</time>
      </trkpt>
      <trkpt lat="41.801495" lon="2.905965">
        <ele>238.0</ele>
        <time>2021-08-14T15:08:39Z</time>
      </trkpt>
      <trkpt lat="41.80146" lon="2.906072">
        <ele>238.0</ele>
        <time>2021-08-14T15:08:42Z</time>
      </trkpt>
      <trkpt lat="41.801425" lon="2.906177">
        <ele>240.0</ele>
        <time>2021-08-14T15:08:45Z</time>
      </trkpt>
      <trkpt lat="41.80139" lon="2.906275">
        <ele>241.0</ele>
        <time>2021-08-14T15:08:48Z</time>
      </trkpt>
      <trkpt lat="41.801345" lon="2.90639">
        <ele>242.0</ele>
        <time>2021-08-14T15:08:52Z</time>
      </trkpt>
      <trkpt lat="41.801302" lon="2.906475">
        <ele>244.0</ele>
        <time>2021-08-14T15:08:55Z</time>
      </trkpt>
      <trkpt lat="41.801265" lon="2.90657">
        <ele>244.0</ele>
        <time>2021-08-14T15:08:58Z</time>
      </trkpt>
      <trkpt lat="41.801222" lon="2.90667">
        <ele>245.0</ele>
        <time>2021-08-14T15:09:01Z</time>
      </trkpt>
      <trkpt lat="41.80119" lon="2.90677">
        <ele>246.0</ele>
        <time>2021-08-14T15:09:04Z</time>
      </trkpt>
      <trkpt lat="41.801157" lon="2.906887">
        <ele>248.0</ele>
        <time>2021-08-14T15:09:07Z</time>
      </trkpt>
      <trkpt lat="41.801135" lon="2.906993">
        <ele>249.0</ele>
        <time>2021-08-14T15:09:10Z</time>
      </trkpt>
      <trkpt lat="41.801115" lon="2.9071">
        <ele>250.0</ele>
        <time>2021-08-14T15:09:13Z</time>
      </trkpt>
      <trkpt lat="41.801105" lon="2.90721">
        <ele>251.0</ele>
        <time>2021-08-14T15:09:16Z</time>
      </trkpt>
      <trkpt lat="41.80108" lon="2.907305">
        <ele>252.0</ele>
        <time>2021-08-14T15:09:19Z</time>
      </trkpt>
      <trkpt lat="41.801045" lon="2.907405">
        <ele>253.0</ele>
        <time>2021-08-14T15:09:22Z</time>
      </trkpt>
      <trkpt lat="41.800997" lon="2.90752">
        <ele>254.0</ele>
        <time>2021-08-14T15:09:26Z</time>
      </trkpt>
      <trkpt lat="41.800937" lon="2.907607">
        <ele>255.0</ele>
        <time>2021-08-14T15:09:29Z</time>
      </trkpt>
      <trkpt lat="41.80089" lon="2.907692">
        <ele>256.0</ele>
        <time>2021-08-14T15:09:32Z</time>
      </trkpt>
      <trkpt lat="41.800843" lon="2.90777">
        <ele>256.0</ele>
        <time>2021-08-14T15:09:35Z</time>
      </trkpt>
      <trkpt lat="41.800785" lon="2.90785">
        <ele>258.0</ele>
        <time>2021-08-14T15:09:38Z</time>
      </trkpt>
      <trkpt lat="41.80073" lon="2.90792">
        <ele>259.0</ele>
        <time>2021-08-14T15:09:41Z</time>
      </trkpt>
      <trkpt lat="41.800662" lon="2.907995">
        <ele>260.0</ele>
        <time>2021-08-14T15:09:44Z</time>
      </trkpt>
      <trkpt lat="41.80059" lon="2.908063">
        <ele>262.0</ele>
        <time>2021-08-14T15:09:47Z</time>
      </trkpt>
      <trkpt lat="41.800525" lon="2.908127">
        <ele>263.0</ele>
        <time>2021-08-14T15:09:50Z</time>
      </trkpt>
      <trkpt lat="41.800467" lon="2.90819">
        <ele>265.0</ele>
        <time>2021-08-14T15:09:53Z</time>
      </trkpt>
      <trkpt lat="41.800392" lon="2.90825">
        <ele>265.0</ele>
        <time>2021-08-14T15:09:56Z</time>
      </trkpt>
      <trkpt lat="41.800332" lon="2.908325">
        <ele>264.0</ele>
        <time>2021-08-14T15:09:59Z</time>
      </trkpt>
      <trkpt lat="41.80027" lon="2.908405">
        <ele>264.0</ele>
        <time>2021-08-14T15:10:02Z</time>
      </trkpt>
      <trkpt lat="41.800205" lon="2.90847">
        <ele>264.0</ele>
        <time>2021-08-14T15:10:05Z</time>
      </trkpt>
      <trkpt lat="41.800142" lon="2.908532">
        <ele>265.0</ele>
        <time>2021-08-14T15:10:08Z</time>
      </trkpt>
      <trkpt lat="41.80008" lon="2.90859">
        <ele>265.0</ele>
        <time>2021-08-14T15:10:11Z</time>
      </trkpt>
      <trkpt lat="41.80002" lon="2.908677">
        <ele>265.0</ele>
        <time>2021-08-14T15:10:15Z</time>
      </trkpt>
      <trkpt lat="41.799952" lon="2.90874">
        <ele>265.0</ele>
        <time>2021-08-14T15:10:18Z</time>
      </trkpt>
      <trkpt lat="41.799887" lon="2.908805">
        <ele>265.0</ele>
        <time>2021-08-14T15:10:21Z</time>
      </trkpt>
      <trkpt lat="41.799825" lon="2.908867">
        <ele>265.0</ele>
        <time>2021-08-14T15:10:24Z</time>
      </trkpt>
      <trkpt lat="41.79976" lon="2.90893">
        <ele>265.0</ele>
        <time>2021-08-14T15:10:27Z</time>
      </trkpt>
      <trkpt lat="41.7997" lon="2.908995">
        <ele>266.0</ele>
        <time>2021-08-14T15:10:30Z</time>
      </trkpt>
      <trkpt lat="41.799637" lon="2.90907">
        <ele>266.0</ele>
        <time>2021-08-14T15:10:33Z</time>
      </trkpt>
      <trkpt lat="41.799568" lon="2.90913">
        <ele>266.0</ele>
        <time>2021-08-14T15:10:36Z</time>
      </trkpt>
      <trkpt lat="41.799498" lon="2.909195">
        <ele>267.0</ele>
        <time>2021-08-14T15:10:39Z</time>
      </trkpt>
      <trkpt lat="41.79943" lon="2.909262">
        <ele>267.0</ele>
        <time>2021-08-14T15:10:42Z</time>
      </trkpt>
      <trkpt lat="41.79937" lon="2.909317">
        <ele>267.0</ele>
        <time>2021-08-14T15:10:45Z</time>
      </trkpt>
      <trkpt lat="41.799305" lon="2.909372">
        <ele>268.0</ele>
        <time>2021-08-14T15:10:48Z</time>
      </trkpt>
      <trkpt lat="41.79923" lon="2.909415">
        <ele>269.0</ele>
        <time>2021-08-14T15:10:51Z</time>
      </trkpt>
      <trkpt lat="41.79916" lon="2.909465">
        <ele>270.0</ele>
        <time>2021-08-14T15:10:54Z</time>
      </trkpt>
      <trkpt lat="41.799075" lon="2.90951">
        <ele>270.0</ele>
        <time>2021-08-14T15:10:58Z</time>
      </trkpt>
      <trkpt lat="41.798995" lon="2.90955">
        <ele>271.0</ele>
        <time>2021-08-14T15:11:02Z</time>
      </trkpt>
      <trkpt lat="41.798905" lon="2.90959">
        <ele>272.0</ele>
        <time>2021-08-14T15:11:06Z</time>
      </trkpt>
      <trkpt lat="41.79881" lon="2.90963">
        <ele>273.0</ele>
        <time>2021-08-14T15:11:10Z</time>
      </trkpt>
      <trkpt lat="41.798718" lon="2.909675">
        <ele>273.0</ele>
        <time>2021-08-14T15:11:14Z</time>
      </trkpt>
      <trkpt lat="41.798637" lon="2.909702">
        <ele>273.0</ele>
        <time>2021-08-14T15:11:17Z</time>
      </trkpt>
      <trkpt lat="41.798565" lon="2.909703">
        <ele>273.0</ele>
        <time>2021-08-14T15:11:20Z</time>
      </trkpt>
      <trkpt lat="41.798492" lon="2.909712">
        <ele>274.0</ele>
        <time>2021-08-14T15:11:23Z</time>
      </trkpt>
      <trkpt lat="41.7984" lon="2.909715">
        <ele>275.0</ele>
        <time>2021-08-14T15:11:27Z</time>
      </trkpt>
      <trkpt lat="41.798315" lon="2.909725">
        <ele>274.0</ele>
        <time>2021-08-14T15:11:31Z</time>
      </trkpt>
      <trkpt lat="41.79823" lon="2.909777">
        <ele>275.0</ele>
        <time>2021-08-14T15:11:35Z</time>
      </trkpt>
      <trkpt lat="41.79817" lon="2.909843">
        <ele>276.0</ele>
        <time>2021-08-14T15:11:38Z</time>
      </trkpt>
      <trkpt lat="41.79814" lon="2.909965">
        <ele>278.0</ele>
        <time>2021-08-14T15:11:42Z</time>
      </trkpt>
      <trkpt lat="41.79813" lon="2.91007">
        <ele>279.0</ele>
        <time>2021-08-14T15:11:45Z</time>
      </trkpt>
      <trkpt lat="41.798112" lon="2.910175">
        <ele>279.0</ele>
        <time>2021-08-14T15:11:48Z</time>
      </trkpt>
      <trkpt lat="41.798097" lon="2.910275">
        <ele>280.0</ele>
        <time>2021-08-14T15:11:51Z</time>
      </trkpt>
      <trkpt lat="41.79808" lon="2.910375">
        <ele>280.0</ele>
        <time>2021-08-14T15:11:54Z</time>
      </trkpt>
      <trkpt lat="41.79806" lon="2.9105">
        <ele>280.0</ele>
        <time>2021-08-14T15:11:58Z</time>
      </trkpt>
      <trkpt lat="41.798035" lon="2.910607">
        <ele>280.0</ele>
        <time>2021-08-14T15:12:01Z</time>
      </trkpt>
      <trkpt lat="41.79799" lon="2.91071">
        <ele>281.0</ele>
        <time>2021-08-14T15:12:04Z</time>
      </trkpt>
      <trkpt lat="41.79794" lon="2.910805">
        <ele>282.0</ele>
        <time>2021-08-14T15:12:07Z</time>
      </trkpt>
      <trkpt lat="41.79788" lon="2.910887">
        <ele>282.0</ele>
        <time>2021-08-14T15:12:10Z</time>
      </trkpt>
      <trkpt lat="41.797807" lon="2.910955">
        <ele>282.0</ele>
        <time>2021-08-14T15:12:13Z</time>
      </trkpt>
      <trkpt lat="41.79773" lon="2.911022">
        <ele>282.0</ele>
        <time>2021-08-14T15:12:16Z</time>
      </trkpt>
      <trkpt lat="41.797647" lon="2.91108">
        <ele>282.0</ele>
        <time>2021-08-14T15:12:19Z</time>
      </trkpt>
      <trkpt lat="41.797575" lon="2.91114">
        <ele>283.0</ele>
        <time>2021-08-14T15:12:22Z</time>
      </trkpt>
      <trkpt lat="41.797495" lon="2.91122">
        <ele>284.0</ele>
        <time>2021-08-14T15:12:25Z</time>
      </trkpt>
      <trkpt lat="41.797443" lon="2.911292">
        <ele>285.0</ele>
        <time>2021-08-14T15:12:27Z</time>
      </trkpt>
      <trkpt lat="41.79741" lon="2.9114">
        <ele>286.0</ele>
        <time>2021-08-14T15:12:29Z</time>
      </trkpt>
      <trkpt lat="41.797377" lon="2.91153">
        <ele>286.0</ele>
        <time>2021-08-14T15:12:31Z</time>
      </trkpt>
      <trkpt lat="41.79733" lon="2.91166">
        <ele>285.0</ele>
        <time>2021-08-14T15:12:33Z</time>
      </trkpt>
      <trkpt lat="41.79728" lon="2.911812">
        <ele>284.0</ele>
        <time>2021-08-14T15:12:35Z</time>
      </trkpt>
      <trkpt lat="41.797225" lon="2.911982">
        <ele>284.0</ele>
        <time>2021-08-14T15:12:37Z</time>
      </trkpt>
      <trkpt lat="41.79719" lon="2.912072">
        <ele>284.0</ele>
        <time>2021-08-14T15:12:38Z</time>
      </trkpt>
      <trkpt lat="41.79716" lon="2.912162">
        <ele>284.0</ele>
        <time>2021-08-14T15:12:39Z</time>
      </trkpt>
      <trkpt lat="41.797128" lon="2.912257">
        <ele>283.0</ele>
        <time>2021-08-14T15:12:40Z</time>
      </trkpt>
      <trkpt lat="41.797085" lon="2.912352">
        <ele>283.0</ele>
        <time>2021-08-14T15:12:41Z</time>
      </trkpt>
      <trkpt lat="41.79704" lon="2.912447">
        <ele>283.0</ele>
        <time>2021-08-14T15:12:42Z</time>
      </trkpt>
      <trkpt lat="41.796985" lon="2.912542">
        <ele>282.0</ele>
        <time>2021-08-14T15:12:43Z</time>
      </trkpt>
      <trkpt lat="41.79692" lon="2.912635">
        <ele>282.0</ele>
        <time>2021-08-14T15:12:44Z</time>
      </trkpt>
      <trkpt lat="41.796855" lon="2.912713">
        <ele>282.0</ele>
        <time>2021-08-14T15:12:45Z</time>
      </trkpt>
      <trkpt lat="41.79678" lon="2.912795">
        <ele>282.0</ele>
        <time>2021-08-14T15:12:46Z</time>
      </trkpt>
      <trkpt lat="41.796705" lon="2.912883">
        <ele>281.0</ele>
        <time>2021-08-14T15:12:47Z</time>
      </trkpt>
      <trkpt lat="41.796635" lon="2.912965">
        <ele>281.0</ele>
        <time>2021-08-14T15:12:48Z</time>
      </trkpt>
      <trkpt lat="41.79657" lon="2.91305">
        <ele>280.0</ele>
        <time>2021-08-14T15:12:49Z</time>
      </trkpt>
      <trkpt lat="41.7965" lon="2.91313">
        <ele>280.0</ele>
        <time>2021-08-14T15:12:50Z</time>
      </trkpt>
      <trkpt lat="41.796435" lon="2.91321">
        <ele>279.0</ele>
        <time>2021-08-14T15:12:51Z</time>
      </trkpt>
      <trkpt lat="41.79636" lon="2.91328">
        <ele>278.0</ele>
        <time>2021-08-14T15:12:52Z</time>
      </trkpt>
      <trkpt lat="41.796295" lon="2.913352">
        <ele>278.0</ele>
        <time>2021-08-14T15:12:53Z</time>
      </trkpt>
      <trkpt lat="41.796218" lon="2.91343">
        <ele>277.0</ele>
        <time>2021-08-14T15:12:54Z</time>
      </trkpt>
      <trkpt lat="41.796155" lon="2.913495">
        <ele>277.0</ele>
        <time>2021-08-14T15:12:55Z</time>
      </trkpt>
      <trkpt lat="41.79609" lon="2.913555">
        <ele>277.0</ele>
        <time>2021-08-14T15:12:56Z</time>
      </trkpt>
      <trkpt lat="41.79602" lon="2.913607">
        <ele>276.0</ele>
        <time>2021-08-14T15:12:57Z</time>
      </trkpt>
      <trkpt lat="41.795955" lon="2.913652">
        <ele>276.0</ele>
        <time>2021-08-14T15:12:58Z</time>
      </trkpt>
      <trkpt lat="41.795817" lon="2.913712">
        <ele>276.0</ele>
        <time>2021-08-14T15:13:00Z</time>
      </trkpt>
      <trkpt lat="41.795747" lon="2.913742">
        <ele>276.0</ele>
        <time>2021-08-14T15:13:01Z</time>
      </trkpt>
      <trkpt lat="41.79568" lon="2.913775">
        <ele>276.0</ele>
        <time>2021-08-14T15:13:02Z</time>
      </trkpt>
      <trkpt lat="41.795575" lon="2.913837">
        <ele>276.0</ele>
        <time>2021-08-14T15:13:04Z</time>
      </trkpt>
      <trkpt lat="41.795495" lon="2.913902">
        <ele>275.0</ele>
        <time>2021-08-14T15:13:07Z</time>
      </trkpt>
      <trkpt lat="41.795525" lon="2.91397">
        <ele>275.0</ele>
        <time>2021-08-14T15:13:14Z</time>
      </trkpt>
      <trkpt lat="41.795605" lon="2.913935">
        <ele>275.0</ele>
        <time>2021-08-14T15:13:17Z</time>
      </trkpt>
      <trkpt lat="41.79568" lon="2.913885">
        <ele>274.0</ele>
        <time>2021-08-14T15:13:21Z</time>
      </trkpt>
      <trkpt lat="41.795757" lon="2.913832">
        <ele>273.0</ele>
        <time>2021-08-14T15:13:25Z</time>
      </trkpt>
      <trkpt lat="41.79585" lon="2.913775">
        <ele>272.0</ele>
        <time>2021-08-14T15:13:29Z</time>
      </trkpt>
      <trkpt lat="41.795923" lon="2.913742">
        <ele>271.0</ele>
        <time>2021-08-14T15:13:32Z</time>
      </trkpt>
      <trkpt lat="41.796002" lon="2.913687">
        <ele>270.0</ele>
        <time>2021-08-14T15:13:36Z</time>
      </trkpt>
      <trkpt lat="41.796067" lon="2.91363">
        <ele>269.0</ele>
        <time>2021-08-14T15:13:39Z</time>
      </trkpt>
      <trkpt lat="41.79613" lon="2.91358">
        <ele>269.0</ele>
        <time>2021-08-14T15:13:43Z</time>
      </trkpt>
      <trkpt lat="41.796202" lon="2.913522">
        <ele>269.0</ele>
        <time>2021-08-14T15:13:47Z</time>
      </trkpt>
      <trkpt lat="41.79627" lon="2.913455">
        <ele>268.0</ele>
        <time>2021-08-14T15:13:51Z</time>
      </trkpt>
      <trkpt lat="41.796345" lon="2.91339">
        <ele>267.0</ele>
        <time>2021-08-14T15:13:55Z</time>
      </trkpt>
      <trkpt lat="41.796405" lon="2.913332">
        <ele>267.0</ele>
        <time>2021-08-14T15:13:58Z</time>
      </trkpt>
      <trkpt lat="41.796462" lon="2.913272">
        <ele>266.0</ele>
        <time>2021-08-14T15:14:01Z</time>
      </trkpt>
      <trkpt lat="41.796525" lon="2.913195">
        <ele>267.0</ele>
        <time>2021-08-14T15:14:05Z</time>
      </trkpt>
      <trkpt lat="41.796515" lon="2.91314">
        <ele>267.0</ele>
        <time>2021-08-14T15:14:12Z</time>
      </trkpt>
      <trkpt lat="41.796515" lon="2.91314">
        <ele>267.0</ele>
        <time>2021-08-14T15:14:18Z</time>
      </trkpt>
      <trkpt lat="41.79648" lon="2.913135">
        <ele>266.0</ele>
        <time>2021-08-14T15:14:25Z</time>
      </trkpt>
      <trkpt lat="41.796442" lon="2.91313">
        <ele>265.0</ele>
        <time>2021-08-14T15:14:32Z</time>
      </trkpt>
      <trkpt lat="41.79643" lon="2.913145">
        <ele>266.0</ele>
        <time>2021-08-14T15:14:39Z</time>
      </trkpt>
      <trkpt lat="41.79635" lon="2.913157">
        <ele>266.0</ele>
        <time>2021-08-14T15:14:44Z</time>
      </trkpt>
      <trkpt lat="41.796275" lon="2.913152">
        <ele>266.0</ele>
        <time>2021-08-14T15:14:48Z</time>
      </trkpt>
      <trkpt lat="41.7962" lon="2.913157">
        <ele>267.0</ele>
        <time>2021-08-14T15:14:52Z</time>
      </trkpt>
      <trkpt lat="41.796105" lon="2.913157">
        <ele>268.0</ele>
        <time>2021-08-14T15:14:57Z</time>
      </trkpt>
      <trkpt lat="41.79602" lon="2.913157">
        <ele>268.0</ele>
        <time>2021-08-14T15:15:01Z</time>
      </trkpt>
      <trkpt lat="41.79593" lon="2.913165">
        <ele>268.0</ele>
        <time>2021-08-14T15:15:05Z</time>
      </trkpt>
      <trkpt lat="41.79585" lon="2.913175">
        <ele>267.0</ele>
        <time>2021-08-14T15:15:09Z</time>
      </trkpt>
      <trkpt lat="41.795777" lon="2.913152">
        <ele>267.0</ele>
        <time>2021-08-14T15:15:13Z</time>
      </trkpt>
      <trkpt lat="41.795687" lon="2.91313">
        <ele>267.0</ele>
        <time>2021-08-14T15:15:17Z</time>
      </trkpt>
      <trkpt lat="41.795605" lon="2.9131">
        <ele>268.0</ele>
        <time>2021-08-14T15:15:22Z</time>
      </trkpt>
      <trkpt lat="41.795515" lon="2.913137">
        <ele>269.0</ele>
        <time>2021-08-14T15:15:26Z</time>
      </trkpt>
      <trkpt lat="41.795458" lon="2.913205">
        <ele>269.0</ele>
        <time>2021-08-14T15:15:29Z</time>
      </trkpt>
      <trkpt lat="41.795415" lon="2.91329">
        <ele>270.0</ele>
        <time>2021-08-14T15:15:32Z</time>
      </trkpt>
      <trkpt lat="41.79533" lon="2.913305">
        <ele>271.0</ele>
        <time>2021-08-14T15:15:36Z</time>
      </trkpt>
      <trkpt lat="41.79525" lon="2.913295">
        <ele>273.0</ele>
        <time>2021-08-14T15:15:39Z</time>
      </trkpt>
      <trkpt lat="41.795177" lon="2.91328">
        <ele>273.0</ele>
        <time>2021-08-14T15:15:42Z</time>
      </trkpt>
      <trkpt lat="41.7951" lon="2.91325">
        <ele>273.0</ele>
        <time>2021-08-14T15:15:45Z</time>
      </trkpt>
      <trkpt lat="41.79499" lon="2.91323">
        <ele>273.0</ele>
        <time>2021-08-14T15:15:48Z</time>
      </trkpt>
      <trkpt lat="41.79488" lon="2.91323">
        <ele>273.0</ele>
        <time>2021-08-14T15:15:51Z</time>
      </trkpt>
      <trkpt lat="41.794798" lon="2.91322">
        <ele>274.0</ele>
        <time>2021-08-14T15:15:53Z</time>
      </trkpt>
      <trkpt lat="41.794717" lon="2.91321">
        <ele>275.0</ele>
        <time>2021-08-14T15:15:56Z</time>
      </trkpt>
      <trkpt lat="41.794627" lon="2.913205">
        <ele>275.0</ele>
        <time>2021-08-14T15:15:59Z</time>
      </trkpt>
      <trkpt lat="41.794552" lon="2.91321">
        <ele>276.0</ele>
        <time>2021-08-14T15:16:02Z</time>
      </trkpt>
      <trkpt lat="41.794455" lon="2.913217">
        <ele>275.0</ele>
        <time>2021-08-14T15:16:05Z</time>
      </trkpt>
      <trkpt lat="41.79436" lon="2.913225">
        <ele>275.0</ele>
        <time>2021-08-14T15:16:08Z</time>
      </trkpt>
      <trkpt lat="41.79427" lon="2.913242">
        <ele>275.0</ele>
        <time>2021-08-14T15:16:11Z</time>
      </trkpt>
      <trkpt lat="41.79419" lon="2.913267">
        <ele>275.0</ele>
        <time>2021-08-14T15:16:14Z</time>
      </trkpt>
      <trkpt lat="41.794102" lon="2.91324">
        <ele>275.0</ele>
        <time>2021-08-14T15:16:17Z</time>
      </trkpt>
      <trkpt lat="41.79403" lon="2.913178">
        <ele>275.0</ele>
        <time>2021-08-14T15:16:20Z</time>
      </trkpt>
      <trkpt lat="41.793957" lon="2.913087">
        <ele>275.0</ele>
        <time>2021-08-14T15:16:23Z</time>
      </trkpt>
      <trkpt lat="41.793912" lon="2.912982">
        <ele>276.0</ele>
        <time>2021-08-14T15:16:27Z</time>
      </trkpt>
      <trkpt lat="41.793837" lon="2.912945">
        <ele>276.0</ele>
        <time>2021-08-14T15:16:32Z</time>
      </trkpt>
      <trkpt lat="41.793765" lon="2.91296">
        <ele>276.0</ele>
        <time>2021-08-14T15:16:36Z</time>
      </trkpt>
      <trkpt lat="41.793735" lon="2.91302">
        <ele>278.0</ele>
        <time>2021-08-14T15:16:43Z</time>
      </trkpt>
      <trkpt lat="41.79372" lon="2.913025">
        <ele>278.0</ele>
        <time>2021-08-14T15:16:50Z</time>
      </trkpt>
      <trkpt lat="41.79372" lon="2.913025">
        <ele>278.0</ele>
        <time>2021-08-14T15:16:54Z</time>
      </trkpt>
      <trkpt lat="41.793682" lon="2.91305">
        <ele>275.0</ele>
        <time>2021-08-14T15:17:02Z</time>
      </trkpt>
      <trkpt lat="41.793665" lon="2.9131">
        <ele>275.0</ele>
        <time>2021-08-14T15:17:09Z</time>
      </trkpt>
      <trkpt lat="41.793652" lon="2.913145">
        <ele>276.0</ele>
        <time>2021-08-14T15:17:16Z</time>
      </trkpt>
      <trkpt lat="41.79363" lon="2.91317">
        <ele>278.0</ele>
        <time>2021-08-14T15:17:23Z</time>
      </trkpt>
      <trkpt lat="41.793625" lon="2.913205">
        <ele>278.0</ele>
        <time>2021-08-14T15:17:30Z</time>
      </trkpt>
      <trkpt lat="41.79362" lon="2.913235">
        <ele>279.0</ele>
        <time>2021-08-14T15:17:37Z</time>
      </trkpt>
      <trkpt lat="41.793605" lon="2.9133">
        <ele>281.0</ele>
        <time>2021-08-14T15:17:44Z</time>
      </trkpt>
      <trkpt lat="41.793588" lon="2.913335">
        <ele>282.0</ele>
        <time>2021-08-14T15:17:51Z</time>
      </trkpt>
      <trkpt lat="41.79357" lon="2.91336">
        <ele>284.0</ele>
        <time>2021-08-14T15:17:58Z</time>
      </trkpt>
      <trkpt lat="41.793562" lon="2.913362">
        <ele>283.0</ele>
        <time>2021-08-14T15:18:03Z</time>
      </trkpt>
      <trkpt lat="41.79356" lon="2.91337">
        <ele>282.0</ele>
        <time>2021-08-14T15:18:15Z</time>
      </trkpt>
      <trkpt lat="41.79351" lon="2.913407">
        <ele>283.0</ele>
        <time>2021-08-14T15:18:22Z</time>
      </trkpt>
      <trkpt lat="41.79345" lon="2.91349">
        <ele>286.0</ele>
        <time>2021-08-14T15:18:29Z</time>
      </trkpt>
      <trkpt lat="41.7934" lon="2.913587">
        <ele>288.0</ele>
        <time>2021-08-14T15:18:34Z</time>
      </trkpt>
      <trkpt lat="41.793352" lon="2.91367">
        <ele>288.0</ele>
        <time>2021-08-14T15:18:39Z</time>
      </trkpt>
      <trkpt lat="41.79331" lon="2.913765">
        <ele>289.0</ele>
        <time>2021-08-14T15:18:44Z</time>
      </trkpt>
      <trkpt lat="41.793272" lon="2.91385">
        <ele>290.0</ele>
        <time>2021-08-14T15:18:48Z</time>
      </trkpt>
      <trkpt lat="41.793245" lon="2.913945">
        <ele>291.0</ele>
        <time>2021-08-14T15:18:54Z</time>
      </trkpt>
      <trkpt lat="41.7932" lon="2.914015">
        <ele>290.0</ele>
        <time>2021-08-14T15:19:01Z</time>
      </trkpt>
      <trkpt lat="41.793205" lon="2.914035">
        <ele>291.0</ele>
        <time>2021-08-14T15:19:08Z</time>
      </trkpt>
      <trkpt lat="41.793202" lon="2.91404">
        <ele>289.0</ele>
        <time>2021-08-14T15:19:14Z</time>
      </trkpt>
      <trkpt lat="41.793192" lon="2.914035">
        <ele>284.0</ele>
        <time>2021-08-14T15:19:22Z</time>
      </trkpt>
      <trkpt lat="41.793205" lon="2.914015">
        <ele>279.0</ele>
        <time>2021-08-14T15:19:29Z</time>
      </trkpt>
      <trkpt lat="41.793205" lon="2.914015">
        <ele>279.0</ele>
        <time>2021-08-14T15:19:33Z</time>
      </trkpt>
      <trkpt lat="41.793192" lon="2.91403">
        <ele>278.0</ele>
        <time>2021-08-14T15:20:12Z</time>
      </trkpt>
      <trkpt lat="41.793192" lon="2.91403">
        <ele>278.0</ele>
        <time>2021-08-14T15:20:16Z</time>
      </trkpt>
      <trkpt lat="41.793165" lon="2.91403">
        <ele>278.0</ele>
        <time>2021-08-14T15:20:50Z</time>
      </trkpt>
      <trkpt lat="41.793165" lon="2.91403">
        <ele>278.0</ele>
        <time>2021-08-14T15:20:52Z</time>
      </trkpt>
      <trkpt lat="41.793175" lon="2.913995">
        <ele>278.0</ele>
        <time>2021-08-14T15:21:11Z</time>
      </trkpt>
      <trkpt lat="41.793155" lon="2.914015">
        <ele>279.0</ele>
        <time>2021-08-14T15:21:18Z</time>
      </trkpt>
      <trkpt lat="41.793147" lon="2.914005">
        <ele>278.0</ele>
        <time>2021-08-14T15:21:25Z</time>
      </trkpt>
      <trkpt lat="41.79316" lon="2.914015">
        <ele>277.0</ele>
        <time>2021-08-14T15:21:32Z</time>
      </trkpt>
      <trkpt lat="41.793152" lon="2.91401">
        <ele>277.0</ele>
        <time>2021-08-14T15:21:39Z</time>
      </trkpt>
      <trkpt lat="41.793152" lon="2.91401">
        <ele>277.0</ele>
        <time>2021-08-14T15:21:40Z</time>
      </trkpt>
      <trkpt lat="41.793135" lon="2.913997">
        <ele>273.0</ele>
        <time>2021-08-14T15:21:48Z</time>
      </trkpt>
      <trkpt lat="41.79314" lon="2.914005">
        <ele>272.0</ele>
        <time>2021-08-14T15:21:55Z</time>
      </trkpt>
      <trkpt lat="41.79314" lon="2.914005">
        <ele>272.0</ele>
        <time>2021-08-14T15:21:58Z</time>
      </trkpt>
      <trkpt lat="41.793145" lon="2.914025">
        <ele>273.0</ele>
        <time>2021-08-14T15:22:24Z</time>
      </trkpt>
      <trkpt lat="41.793145" lon="2.914025">
        <ele>273.0</ele>
        <time>2021-08-14T15:22:25Z</time>
      </trkpt>
      <trkpt lat="41.79315" lon="2.913995">
        <ele>275.0</ele>
        <time>2021-08-14T15:22:46Z</time>
      </trkpt>
      <trkpt lat="41.79315" lon="2.913995">
        <ele>275.0</ele>
        <time>2021-08-14T15:22:49Z</time>
      </trkpt>
      <trkpt lat="41.793165" lon="2.914005">
        <ele>277.0</ele>
        <time>2021-08-14T15:23:00Z</time>
      </trkpt>
      <trkpt lat="41.793165" lon="2.914005">
        <ele>277.0</ele>
        <time>2021-08-14T15:23:02Z</time>
      </trkpt>
      <trkpt lat="41.7932" lon="2.914025">
        <ele>280.0</ele>
        <time>2021-08-14T15:23:15Z</time>
      </trkpt>
      <trkpt lat="41.793232" lon="2.914015">
        <ele>282.0</ele>
        <time>2021-08-14T15:23:22Z</time>
      </trkpt>
      <trkpt lat="41.793235" lon="2.914015">
        <ele>282.0</ele>
        <time>2021-08-14T15:23:26Z</time>
      </trkpt>
      <trkpt lat="41.79328" lon="2.913925">
        <ele>280.0</ele>
        <time>2021-08-14T15:23:34Z</time>
      </trkpt>
      <trkpt lat="41.79333" lon="2.91383">
        <ele>280.0</ele>
        <time>2021-08-14T15:23:39Z</time>
      </trkpt>
      <trkpt lat="41.793362" lon="2.913735">
        <ele>280.0</ele>
        <time>2021-08-14T15:23:43Z</time>
      </trkpt>
      <trkpt lat="41.793405" lon="2.913633">
        <ele>281.0</ele>
        <time>2021-08-14T15:23:48Z</time>
      </trkpt>
      <trkpt lat="41.79345" lon="2.913555">
        <ele>281.0</ele>
        <time>2021-08-14T15:23:52Z</time>
      </trkpt>
      <trkpt lat="41.79351" lon="2.913465">
        <ele>281.0</ele>
        <time>2021-08-14T15:23:56Z</time>
      </trkpt>
      <trkpt lat="41.793555" lon="2.913385">
        <ele>279.0</ele>
        <time>2021-08-14T15:24:00Z</time>
      </trkpt>
      <trkpt lat="41.793592" lon="2.913295">
        <ele>277.0</ele>
        <time>2021-08-14T15:24:04Z</time>
      </trkpt>
      <trkpt lat="41.79363" lon="2.913205">
        <ele>275.0</ele>
        <time>2021-08-14T15:24:08Z</time>
      </trkpt>
      <trkpt lat="41.79367" lon="2.913115">
        <ele>274.0</ele>
        <time>2021-08-14T15:24:11Z</time>
      </trkpt>
      <trkpt lat="41.793705" lon="2.913025">
        <ele>272.0</ele>
        <time>2021-08-14T15:24:14Z</time>
      </trkpt>
      <trkpt lat="41.79377" lon="2.912925">
        <ele>271.0</ele>
        <time>2021-08-14T15:24:17Z</time>
      </trkpt>
      <trkpt lat="41.79385" lon="2.912865">
        <ele>271.0</ele>
        <time>2021-08-14T15:24:20Z</time>
      </trkpt>
      <trkpt lat="41.793915" lon="2.91293">
        <ele>272.0</ele>
        <time>2021-08-14T15:24:24Z</time>
      </trkpt>
      <trkpt lat="41.79397" lon="2.91303">
        <ele>272.0</ele>
        <time>2021-08-14T15:24:27Z</time>
      </trkpt>
      <trkpt lat="41.794035" lon="2.913135">
        <ele>272.0</ele>
        <time>2021-08-14T15:24:30Z</time>
      </trkpt>
      <trkpt lat="41.794115" lon="2.913225">
        <ele>273.0</ele>
        <time>2021-08-14T15:24:33Z</time>
      </trkpt>
      <trkpt lat="41.794205" lon="2.913242">
        <ele>273.0</ele>
        <time>2021-08-14T15:24:36Z</time>
      </trkpt>
      <trkpt lat="41.79429" lon="2.91322">
        <ele>273.0</ele>
        <time>2021-08-14T15:24:39Z</time>
      </trkpt>
      <trkpt lat="41.794375" lon="2.913195">
        <ele>273.0</ele>
        <time>2021-08-14T15:24:42Z</time>
      </trkpt>
      <trkpt lat="41.79446" lon="2.913177">
        <ele>272.0</ele>
        <time>2021-08-14T15:24:45Z</time>
      </trkpt>
      <trkpt lat="41.79455" lon="2.913185">
        <ele>271.0</ele>
        <time>2021-08-14T15:24:48Z</time>
      </trkpt>
      <trkpt lat="41.794655" lon="2.913205">
        <ele>269.0</ele>
        <time>2021-08-14T15:24:51Z</time>
      </trkpt>
      <trkpt lat="41.79476" lon="2.91322">
        <ele>268.0</ele>
        <time>2021-08-14T15:24:54Z</time>
      </trkpt>
      <trkpt lat="41.794865" lon="2.913215">
        <ele>268.0</ele>
        <time>2021-08-14T15:24:57Z</time>
      </trkpt>
      <trkpt lat="41.794972" lon="2.913215">
        <ele>267.0</ele>
        <time>2021-08-14T15:25:00Z</time>
      </trkpt>
      <trkpt lat="41.795075" lon="2.913202">
        <ele>267.0</ele>
        <time>2021-08-14T15:25:03Z</time>
      </trkpt>
      <trkpt lat="41.795167" lon="2.91321">
        <ele>267.0</ele>
        <time>2021-08-14T15:25:06Z</time>
      </trkpt>
      <trkpt lat="41.795257" lon="2.913248">
        <ele>267.0</ele>
        <time>2021-08-14T15:25:09Z</time>
      </trkpt>
      <trkpt lat="41.79535" lon="2.913265">
        <ele>267.0</ele>
        <time>2021-08-14T15:25:12Z</time>
      </trkpt>
      <trkpt lat="41.795435" lon="2.913265">
        <ele>267.0</ele>
        <time>2021-08-14T15:25:15Z</time>
      </trkpt>
      <trkpt lat="41.79552" lon="2.913247">
        <ele>266.0</ele>
        <time>2021-08-14T15:25:18Z</time>
      </trkpt>
      <trkpt lat="41.795565" lon="2.913148">
        <ele>266.0</ele>
        <time>2021-08-14T15:25:21Z</time>
      </trkpt>
      <trkpt lat="41.795613" lon="2.91308">
        <ele>266.0</ele>
        <time>2021-08-14T15:25:24Z</time>
      </trkpt>
      <trkpt lat="41.795697" lon="2.913055">
        <ele>265.0</ele>
        <time>2021-08-14T15:25:27Z</time>
      </trkpt>
      <trkpt lat="41.795785" lon="2.91309">
        <ele>264.0</ele>
        <time>2021-08-14T15:25:30Z</time>
      </trkpt>
      <trkpt lat="41.79589" lon="2.91312">
        <ele>263.0</ele>
        <time>2021-08-14T15:25:33Z</time>
      </trkpt>
      <trkpt lat="41.79597" lon="2.91314">
        <ele>263.0</ele>
        <time>2021-08-14T15:25:35Z</time>
      </trkpt>
      <trkpt lat="41.796055" lon="2.913135">
        <ele>262.0</ele>
        <time>2021-08-14T15:25:37Z</time>
      </trkpt>
      <trkpt lat="41.79614" lon="2.913125">
        <ele>261.0</ele>
        <time>2021-08-14T15:25:39Z</time>
      </trkpt>
      <trkpt lat="41.796215" lon="2.913115">
        <ele>261.0</ele>
        <time>2021-08-14T15:25:41Z</time>
      </trkpt>
      <trkpt lat="41.79629" lon="2.913112">
        <ele>260.0</ele>
        <time>2021-08-14T15:25:43Z</time>
      </trkpt>
      <trkpt lat="41.796373" lon="2.913105">
        <ele>260.0</ele>
        <time>2021-08-14T15:25:46Z</time>
      </trkpt>
      <trkpt lat="41.796458" lon="2.9131">
        <ele>259.0</ele>
        <time>2021-08-14T15:25:49Z</time>
      </trkpt>
      <trkpt lat="41.796523" lon="2.913105">
        <ele>258.0</ele>
        <time>2021-08-14T15:25:56Z</time>
      </trkpt>
      <trkpt lat="41.79654" lon="2.913105">
        <ele>259.0</ele>
        <time>2021-08-14T15:26:02Z</time>
      </trkpt>
      <trkpt lat="41.796537" lon="2.913152">
        <ele>262.0</ele>
        <time>2021-08-14T15:26:21Z</time>
      </trkpt>
      <trkpt lat="41.79652" lon="2.913175">
        <ele>264.0</ele>
        <time>2021-08-14T15:26:28Z</time>
      </trkpt>
      <trkpt lat="41.79652" lon="2.913175">
        <ele>264.0</ele>
        <time>2021-08-14T15:26:30Z</time>
      </trkpt>
      <trkpt lat="41.79644" lon="2.913262">
        <ele>265.0</ele>
        <time>2021-08-14T15:26:39Z</time>
      </trkpt>
      <trkpt lat="41.79638" lon="2.913312">
        <ele>265.0</ele>
        <time>2021-08-14T15:26:41Z</time>
      </trkpt>
      <trkpt lat="41.796298" lon="2.9134">
        <ele>265.0</ele>
        <time>2021-08-14T15:26:43Z</time>
      </trkpt>
      <trkpt lat="41.796207" lon="2.913475">
        <ele>265.0</ele>
        <time>2021-08-14T15:26:45Z</time>
      </trkpt>
      <trkpt lat="41.79611" lon="2.913552">
        <ele>265.0</ele>
        <time>2021-08-14T15:26:47Z</time>
      </trkpt>
      <trkpt lat="41.795993" lon="2.913633">
        <ele>264.0</ele>
        <time>2021-08-14T15:26:49Z</time>
      </trkpt>
      <trkpt lat="41.795875" lon="2.913692">
        <ele>264.0</ele>
        <time>2021-08-14T15:26:51Z</time>
      </trkpt>
      <trkpt lat="41.79574" lon="2.913755">
        <ele>262.0</ele>
        <time>2021-08-14T15:26:53Z</time>
      </trkpt>
      <trkpt lat="41.795675" lon="2.913787">
        <ele>262.0</ele>
        <time>2021-08-14T15:26:54Z</time>
      </trkpt>
      <trkpt lat="41.7956" lon="2.913822">
        <ele>261.0</ele>
        <time>2021-08-14T15:26:55Z</time>
      </trkpt>
      <trkpt lat="41.795535" lon="2.913872">
        <ele>261.0</ele>
        <time>2021-08-14T15:26:56Z</time>
      </trkpt>
      <trkpt lat="41.795468" lon="2.91393">
        <ele>261.0</ele>
        <time>2021-08-14T15:26:57Z</time>
      </trkpt>
      <trkpt lat="41.795412" lon="2.913995">
        <ele>261.0</ele>
        <time>2021-08-14T15:26:58Z</time>
      </trkpt>
      <trkpt lat="41.79536" lon="2.914065">
        <ele>261.0</ele>
        <time>2021-08-14T15:26:59Z</time>
      </trkpt>
      <trkpt lat="41.795317" lon="2.914142">
        <ele>261.0</ele>
        <time>2021-08-14T15:27:00Z</time>
      </trkpt>
      <trkpt lat="41.79528" lon="2.914228">
        <ele>261.0</ele>
        <time>2021-08-14T15:27:01Z</time>
      </trkpt>
      <trkpt lat="41.795247" lon="2.91432">
        <ele>260.0</ele>
        <time>2021-08-14T15:27:02Z</time>
      </trkpt>
      <trkpt lat="41.79522" lon="2.914405">
        <ele>260.0</ele>
        <time>2021-08-14T15:27:03Z</time>
      </trkpt>
      <trkpt lat="41.795163" lon="2.914575">
        <ele>260.0</ele>
        <time>2021-08-14T15:27:05Z</time>
      </trkpt>
      <trkpt lat="41.795122" lon="2.914725">
        <ele>261.0</ele>
        <time>2021-08-14T15:27:07Z</time>
      </trkpt>
      <trkpt lat="41.79508" lon="2.914855">
        <ele>260.0</ele>
        <time>2021-08-14T15:27:09Z</time>
      </trkpt>
      <trkpt lat="41.79504" lon="2.91497">
        <ele>261.0</ele>
        <time>2021-08-14T15:27:11Z</time>
      </trkpt>
      <trkpt lat="41.794995" lon="2.91509">
        <ele>261.0</ele>
        <time>2021-08-14T15:27:13Z</time>
      </trkpt>
      <trkpt lat="41.794952" lon="2.915205">
        <ele>262.0</ele>
        <time>2021-08-14T15:27:15Z</time>
      </trkpt>
      <trkpt lat="41.794905" lon="2.915308">
        <ele>262.0</ele>
        <time>2021-08-14T15:27:17Z</time>
      </trkpt>
      <trkpt lat="41.794853" lon="2.915417">
        <ele>262.0</ele>
        <time>2021-08-14T15:27:19Z</time>
      </trkpt>
      <trkpt lat="41.79481" lon="2.915522">
        <ele>261.0</ele>
        <time>2021-08-14T15:27:21Z</time>
      </trkpt>
      <trkpt lat="41.794755" lon="2.915625">
        <ele>262.0</ele>
        <time>2021-08-14T15:27:23Z</time>
      </trkpt>
      <trkpt lat="41.7947" lon="2.915715">
        <ele>263.0</ele>
        <time>2021-08-14T15:27:25Z</time>
      </trkpt>
      <trkpt lat="41.794647" lon="2.915815">
        <ele>264.0</ele>
        <time>2021-08-14T15:27:27Z</time>
      </trkpt>
      <trkpt lat="41.794605" lon="2.91592">
        <ele>264.0</ele>
        <time>2021-08-14T15:27:29Z</time>
      </trkpt>
      <trkpt lat="41.794553" lon="2.91602">
        <ele>265.0</ele>
        <time>2021-08-14T15:27:31Z</time>
      </trkpt>
      <trkpt lat="41.794495" lon="2.916097">
        <ele>265.0</ele>
        <time>2021-08-14T15:27:33Z</time>
      </trkpt>
      <trkpt lat="41.794427" lon="2.916185">
        <ele>265.0</ele>
        <time>2021-08-14T15:27:35Z</time>
      </trkpt>
      <trkpt lat="41.794355" lon="2.916252">
        <ele>265.0</ele>
        <time>2021-08-14T15:27:37Z</time>
      </trkpt>
      <trkpt lat="41.79428" lon="2.916322">
        <ele>265.0</ele>
        <time>2021-08-14T15:27:39Z</time>
      </trkpt>
      <trkpt lat="41.79421" lon="2.916385">
        <ele>265.0</ele>
        <time>2021-08-14T15:27:41Z</time>
      </trkpt>
      <trkpt lat="41.794135" lon="2.916445">
        <ele>265.0</ele>
        <time>2021-08-14T15:27:43Z</time>
      </trkpt>
      <trkpt lat="41.794065" lon="2.916507">
        <ele>266.0</ele>
        <time>2021-08-14T15:27:45Z</time>
      </trkpt>
      <trkpt lat="41.794" lon="2.916575">
        <ele>266.0</ele>
        <time>2021-08-14T15:27:47Z</time>
      </trkpt>
      <trkpt lat="41.793925" lon="2.916645">
        <ele>265.0</ele>
        <time>2021-08-14T15:27:49Z</time>
      </trkpt>
      <trkpt lat="41.79385" lon="2.91671">
        <ele>265.0</ele>
        <time>2021-08-14T15:27:51Z</time>
      </trkpt>
      <trkpt lat="41.793775" lon="2.916777">
        <ele>265.0</ele>
        <time>2021-08-14T15:27:53Z</time>
      </trkpt>
      <trkpt lat="41.793715" lon="2.91684">
        <ele>264.0</ele>
        <time>2021-08-14T15:27:55Z</time>
      </trkpt>
      <trkpt lat="41.793635" lon="2.91689">
        <ele>264.0</ele>
        <time>2021-08-14T15:27:57Z</time>
      </trkpt>
      <trkpt lat="41.793555" lon="2.916945">
        <ele>264.0</ele>
        <time>2021-08-14T15:27:59Z</time>
      </trkpt>
      <trkpt lat="41.79348" lon="2.917013">
        <ele>264.0</ele>
        <time>2021-08-14T15:28:01Z</time>
      </trkpt>
      <trkpt lat="41.793405" lon="2.917065">
        <ele>265.0</ele>
        <time>2021-08-14T15:28:03Z</time>
      </trkpt>
      <trkpt lat="41.793325" lon="2.917125">
        <ele>265.0</ele>
        <time>2021-08-14T15:28:05Z</time>
      </trkpt>
      <trkpt lat="41.79325" lon="2.917177">
        <ele>266.0</ele>
        <time>2021-08-14T15:28:07Z</time>
      </trkpt>
      <trkpt lat="41.793175" lon="2.917223">
        <ele>266.0</ele>
        <time>2021-08-14T15:28:09Z</time>
      </trkpt>
      <trkpt lat="41.7931" lon="2.91726">
        <ele>266.0</ele>
        <time>2021-08-14T15:28:11Z</time>
      </trkpt>
      <trkpt lat="41.79301" lon="2.917275">
        <ele>267.0</ele>
        <time>2021-08-14T15:28:13Z</time>
      </trkpt>
      <trkpt lat="41.792915" lon="2.917302">
        <ele>266.0</ele>
        <time>2021-08-14T15:28:15Z</time>
      </trkpt>
      <trkpt lat="41.792825" lon="2.917335">
        <ele>266.0</ele>
        <time>2021-08-14T15:28:17Z</time>
      </trkpt>
      <trkpt lat="41.792735" lon="2.917372">
        <ele>267.0</ele>
        <time>2021-08-14T15:28:19Z</time>
      </trkpt>
      <trkpt lat="41.792645" lon="2.917405">
        <ele>267.0</ele>
        <time>2021-08-14T15:28:21Z</time>
      </trkpt>
      <trkpt lat="41.79256" lon="2.91743">
        <ele>266.0</ele>
        <time>2021-08-14T15:28:23Z</time>
      </trkpt>
      <trkpt lat="41.792465" lon="2.917465">
        <ele>265.0</ele>
        <time>2021-08-14T15:28:25Z</time>
      </trkpt>
      <trkpt lat="41.792375" lon="2.9175">
        <ele>264.0</ele>
        <time>2021-08-14T15:28:27Z</time>
      </trkpt>
      <trkpt lat="41.792295" lon="2.917535">
        <ele>264.0</ele>
        <time>2021-08-14T15:28:29Z</time>
      </trkpt>
      <trkpt lat="41.792202" lon="2.91757">
        <ele>265.0</ele>
        <time>2021-08-14T15:28:31Z</time>
      </trkpt>
      <trkpt lat="41.792115" lon="2.917595">
        <ele>265.0</ele>
        <time>2021-08-14T15:28:33Z</time>
      </trkpt>
      <trkpt lat="41.79202" lon="2.91762">
        <ele>265.0</ele>
        <time>2021-08-14T15:28:35Z</time>
      </trkpt>
      <trkpt lat="41.791937" lon="2.917655">
        <ele>265.0</ele>
        <time>2021-08-14T15:28:37Z</time>
      </trkpt>
      <trkpt lat="41.79186" lon="2.917685">
        <ele>265.0</ele>
        <time>2021-08-14T15:28:39Z</time>
      </trkpt>
      <trkpt lat="41.791775" lon="2.91771">
        <ele>266.0</ele>
        <time>2021-08-14T15:28:41Z</time>
      </trkpt>
      <trkpt lat="41.791687" lon="2.917733">
        <ele>266.0</ele>
        <time>2021-08-14T15:28:43Z</time>
      </trkpt>
      <trkpt lat="41.7916" lon="2.91777">
        <ele>267.0</ele>
        <time>2021-08-14T15:28:45Z</time>
      </trkpt>
      <trkpt lat="41.791518" lon="2.917805">
        <ele>267.0</ele>
        <time>2021-08-14T15:28:47Z</time>
      </trkpt>
      <trkpt lat="41.791437" lon="2.917845">
        <ele>268.0</ele>
        <time>2021-08-14T15:28:49Z</time>
      </trkpt>
      <trkpt lat="41.791365" lon="2.9179">
        <ele>268.0</ele>
        <time>2021-08-14T15:28:51Z</time>
      </trkpt>
      <trkpt lat="41.791285" lon="2.91796">
        <ele>268.0</ele>
        <time>2021-08-14T15:28:53Z</time>
      </trkpt>
      <trkpt lat="41.79121" lon="2.918015">
        <ele>268.0</ele>
        <time>2021-08-14T15:28:55Z</time>
      </trkpt>
      <trkpt lat="41.79113" lon="2.91807">
        <ele>268.0</ele>
        <time>2021-08-14T15:28:57Z</time>
      </trkpt>
      <trkpt lat="41.791055" lon="2.918125">
        <ele>268.0</ele>
        <time>2021-08-14T15:28:59Z</time>
      </trkpt>
      <trkpt lat="41.79098" lon="2.91817">
        <ele>269.0</ele>
        <time>2021-08-14T15:29:01Z</time>
      </trkpt>
      <trkpt lat="41.790905" lon="2.918197">
        <ele>269.0</ele>
        <time>2021-08-14T15:29:03Z</time>
      </trkpt>
      <trkpt lat="41.790827" lon="2.918195">
        <ele>269.0</ele>
        <time>2021-08-14T15:29:05Z</time>
      </trkpt>
      <trkpt lat="41.790745" lon="2.918132">
        <ele>269.0</ele>
        <time>2021-08-14T15:29:08Z</time>
      </trkpt>
      <trkpt lat="41.790675" lon="2.918047">
        <ele>269.0</ele>
        <time>2021-08-14T15:29:11Z</time>
      </trkpt>
      <trkpt lat="41.790615" lon="2.91794">
        <ele>270.0</ele>
        <time>2021-08-14T15:29:14Z</time>
      </trkpt>
      <trkpt lat="41.79055" lon="2.917857">
        <ele>271.0</ele>
        <time>2021-08-14T15:29:17Z</time>
      </trkpt>
      <trkpt lat="41.790482" lon="2.917795">
        <ele>271.0</ele>
        <time>2021-08-14T15:29:20Z</time>
      </trkpt>
      <trkpt lat="41.790405" lon="2.917738">
        <ele>271.0</ele>
        <time>2021-08-14T15:29:23Z</time>
      </trkpt>
      <trkpt lat="41.79032" lon="2.917677">
        <ele>271.0</ele>
        <time>2021-08-14T15:29:26Z</time>
      </trkpt>
      <trkpt lat="41.79023" lon="2.917632">
        <ele>271.0</ele>
        <time>2021-08-14T15:29:29Z</time>
      </trkpt>
      <trkpt lat="41.790145" lon="2.917575">
        <ele>271.0</ele>
        <time>2021-08-14T15:29:32Z</time>
      </trkpt>
      <trkpt lat="41.79007" lon="2.917515">
        <ele>271.0</ele>
        <time>2021-08-14T15:29:35Z</time>
      </trkpt>
      <trkpt lat="41.790005" lon="2.917435">
        <ele>272.0</ele>
        <time>2021-08-14T15:29:38Z</time>
      </trkpt>
      <trkpt lat="41.789917" lon="2.91736">
        <ele>272.0</ele>
        <time>2021-08-14T15:29:41Z</time>
      </trkpt>
      <trkpt lat="41.789852" lon="2.917288">
        <ele>272.0</ele>
        <time>2021-08-14T15:29:44Z</time>
      </trkpt>
      <trkpt lat="41.789775" lon="2.917242">
        <ele>272.0</ele>
        <time>2021-08-14T15:29:47Z</time>
      </trkpt>
      <trkpt lat="41.78969" lon="2.91722">
        <ele>272.0</ele>
        <time>2021-08-14T15:29:50Z</time>
      </trkpt>
      <trkpt lat="41.7896" lon="2.91725">
        <ele>272.0</ele>
        <time>2021-08-14T15:29:53Z</time>
      </trkpt>
      <trkpt lat="41.789525" lon="2.91732">
        <ele>273.0</ele>
        <time>2021-08-14T15:29:56Z</time>
      </trkpt>
      <trkpt lat="41.789465" lon="2.917423">
        <ele>274.0</ele>
        <time>2021-08-14T15:29:59Z</time>
      </trkpt>
      <trkpt lat="41.789445" lon="2.917555">
        <ele>275.0</ele>
        <time>2021-08-14T15:30:02Z</time>
      </trkpt>
      <trkpt lat="41.78944" lon="2.917677">
        <ele>275.0</ele>
        <time>2021-08-14T15:30:05Z</time>
      </trkpt>
      <trkpt lat="41.789437" lon="2.917815">
        <ele>277.0</ele>
        <time>2021-08-14T15:30:08Z</time>
      </trkpt>
      <trkpt lat="41.78942" lon="2.91795">
        <ele>277.0</ele>
        <time>2021-08-14T15:30:11Z</time>
      </trkpt>
      <trkpt lat="41.789392" lon="2.918083">
        <ele>278.0</ele>
        <time>2021-08-14T15:30:14Z</time>
      </trkpt>
      <trkpt lat="41.789355" lon="2.918215">
        <ele>280.0</ele>
        <time>2021-08-14T15:30:17Z</time>
      </trkpt>
      <trkpt lat="41.789322" lon="2.9183">
        <ele>280.0</ele>
        <time>2021-08-14T15:30:19Z</time>
      </trkpt>
      <trkpt lat="41.789262" lon="2.918417">
        <ele>280.0</ele>
        <time>2021-08-14T15:30:22Z</time>
      </trkpt>
      <trkpt lat="41.789185" lon="2.918515">
        <ele>282.0</ele>
        <time>2021-08-14T15:30:25Z</time>
      </trkpt>
      <trkpt lat="41.789125" lon="2.918565">
        <ele>282.0</ele>
        <time>2021-08-14T15:30:27Z</time>
      </trkpt>
      <trkpt lat="41.78905" lon="2.918628">
        <ele>283.0</ele>
        <time>2021-08-14T15:30:29Z</time>
      </trkpt>
      <trkpt lat="41.788975" lon="2.918667">
        <ele>283.0</ele>
        <time>2021-08-14T15:30:31Z</time>
      </trkpt>
      <trkpt lat="41.788882" lon="2.91871">
        <ele>284.0</ele>
        <time>2021-08-14T15:30:33Z</time>
      </trkpt>
      <trkpt lat="41.788802" lon="2.918747">
        <ele>284.0</ele>
        <time>2021-08-14T15:30:35Z</time>
      </trkpt>
      <trkpt lat="41.788717" lon="2.91878">
        <ele>284.0</ele>
        <time>2021-08-14T15:30:37Z</time>
      </trkpt>
      <trkpt lat="41.78864" lon="2.918795">
        <ele>284.0</ele>
        <time>2021-08-14T15:30:39Z</time>
      </trkpt>
      <trkpt lat="41.78856" lon="2.918812">
        <ele>283.0</ele>
        <time>2021-08-14T15:30:41Z</time>
      </trkpt>
      <trkpt lat="41.788485" lon="2.918825">
        <ele>283.0</ele>
        <time>2021-08-14T15:30:43Z</time>
      </trkpt>
      <trkpt lat="41.788405" lon="2.918835">
        <ele>283.0</ele>
        <time>2021-08-14T15:30:45Z</time>
      </trkpt>
      <trkpt lat="41.78833" lon="2.918825">
        <ele>283.0</ele>
        <time>2021-08-14T15:30:47Z</time>
      </trkpt>
      <trkpt lat="41.788247" lon="2.918825">
        <ele>283.0</ele>
        <time>2021-08-14T15:30:49Z</time>
      </trkpt>
      <trkpt lat="41.788165" lon="2.918813">
        <ele>282.0</ele>
        <time>2021-08-14T15:30:51Z</time>
      </trkpt>
      <trkpt lat="41.78807" lon="2.918795">
        <ele>282.0</ele>
        <time>2021-08-14T15:30:54Z</time>
      </trkpt>
      <trkpt lat="41.787957" lon="2.918775">
        <ele>283.0</ele>
        <time>2021-08-14T15:30:57Z</time>
      </trkpt>
      <trkpt lat="41.787867" lon="2.91877">
        <ele>282.0</ele>
        <time>2021-08-14T15:30:59Z</time>
      </trkpt>
      <trkpt lat="41.78777" lon="2.918755">
        <ele>282.0</ele>
        <time>2021-08-14T15:31:01Z</time>
      </trkpt>
      <trkpt lat="41.78768" lon="2.918737">
        <ele>281.0</ele>
        <time>2021-08-14T15:31:03Z</time>
      </trkpt>
      <trkpt lat="41.787585" lon="2.91871">
        <ele>282.0</ele>
        <time>2021-08-14T15:31:06Z</time>
      </trkpt>
      <trkpt lat="41.787507" lon="2.918695">
        <ele>282.0</ele>
        <time>2021-08-14T15:31:08Z</time>
      </trkpt>
      <trkpt lat="41.787437" lon="2.91868">
        <ele>282.0</ele>
        <time>2021-08-14T15:31:10Z</time>
      </trkpt>
      <trkpt lat="41.787353" lon="2.91868">
        <ele>282.0</ele>
        <time>2021-08-14T15:31:12Z</time>
      </trkpt>
      <trkpt lat="41.78725" lon="2.918685">
        <ele>283.0</ele>
        <time>2021-08-14T15:31:15Z</time>
      </trkpt>
      <trkpt lat="41.787177" lon="2.918692">
        <ele>283.0</ele>
        <time>2021-08-14T15:31:17Z</time>
      </trkpt>
      <trkpt lat="41.787082" lon="2.91871">
        <ele>283.0</ele>
        <time>2021-08-14T15:31:19Z</time>
      </trkpt>
      <trkpt lat="41.787005" lon="2.918717">
        <ele>283.0</ele>
        <time>2021-08-14T15:31:21Z</time>
      </trkpt>
      <trkpt lat="41.78693" lon="2.918725">
        <ele>283.0</ele>
        <time>2021-08-14T15:31:23Z</time>
      </trkpt>
      <trkpt lat="41.786825" lon="2.918737">
        <ele>283.0</ele>
        <time>2021-08-14T15:31:26Z</time>
      </trkpt>
      <trkpt lat="41.786755" lon="2.918755">
        <ele>283.0</ele>
        <time>2021-08-14T15:31:28Z</time>
      </trkpt>
      <trkpt lat="41.78666" lon="2.91878">
        <ele>283.0</ele>
        <time>2021-08-14T15:31:30Z</time>
      </trkpt>
      <trkpt lat="41.78658" lon="2.918808">
        <ele>283.0</ele>
        <time>2021-08-14T15:31:32Z</time>
      </trkpt>
      <trkpt lat="41.786515" lon="2.91885">
        <ele>283.0</ele>
        <time>2021-08-14T15:31:34Z</time>
      </trkpt>
      <trkpt lat="41.78643" lon="2.918907">
        <ele>284.0</ele>
        <time>2021-08-14T15:31:37Z</time>
      </trkpt>
      <trkpt lat="41.78634" lon="2.918982">
        <ele>283.0</ele>
        <time>2021-08-14T15:31:40Z</time>
      </trkpt>
      <trkpt lat="41.78628" lon="2.919055">
        <ele>284.0</ele>
        <time>2021-08-14T15:31:42Z</time>
      </trkpt>
      <trkpt lat="41.78622" lon="2.919135">
        <ele>284.0</ele>
        <time>2021-08-14T15:31:44Z</time>
      </trkpt>
      <trkpt lat="41.78617" lon="2.91922">
        <ele>284.0</ele>
        <time>2021-08-14T15:31:46Z</time>
      </trkpt>
      <trkpt lat="41.786125" lon="2.91931">
        <ele>285.0</ele>
        <time>2021-08-14T15:31:48Z</time>
      </trkpt>
      <trkpt lat="41.78608" lon="2.919402">
        <ele>285.0</ele>
        <time>2021-08-14T15:31:50Z</time>
      </trkpt>
      <trkpt lat="41.78604" lon="2.919495">
        <ele>285.0</ele>
        <time>2021-08-14T15:31:52Z</time>
      </trkpt>
      <trkpt lat="41.785988" lon="2.91959">
        <ele>285.0</ele>
        <time>2021-08-14T15:31:54Z</time>
      </trkpt>
      <trkpt lat="41.785945" lon="2.919687">
        <ele>285.0</ele>
        <time>2021-08-14T15:31:56Z</time>
      </trkpt>
      <trkpt lat="41.785895" lon="2.919792">
        <ele>285.0</ele>
        <time>2021-08-14T15:31:58Z</time>
      </trkpt>
      <trkpt lat="41.785855" lon="2.919893">
        <ele>285.0</ele>
        <time>2021-08-14T15:32:00Z</time>
      </trkpt>
      <trkpt lat="41.7858" lon="2.919993">
        <ele>285.0</ele>
        <time>2021-08-14T15:32:02Z</time>
      </trkpt>
      <trkpt lat="41.785742" lon="2.920083">
        <ele>285.0</ele>
        <time>2021-08-14T15:32:04Z</time>
      </trkpt>
      <trkpt lat="41.78568" lon="2.920168">
        <ele>285.0</ele>
        <time>2021-08-14T15:32:06Z</time>
      </trkpt>
      <trkpt lat="41.785612" lon="2.92025">
        <ele>285.0</ele>
        <time>2021-08-14T15:32:08Z</time>
      </trkpt>
      <trkpt lat="41.785532" lon="2.920327">
        <ele>285.0</ele>
        <time>2021-08-14T15:32:10Z</time>
      </trkpt>
      <trkpt lat="41.78546" lon="2.920397">
        <ele>285.0</ele>
        <time>2021-08-14T15:32:12Z</time>
      </trkpt>
      <trkpt lat="41.785392" lon="2.92046">
        <ele>286.0</ele>
        <time>2021-08-14T15:32:14Z</time>
      </trkpt>
      <trkpt lat="41.785325" lon="2.920515">
        <ele>287.0</ele>
        <time>2021-08-14T15:32:16Z</time>
      </trkpt>
      <trkpt lat="41.785255" lon="2.920575">
        <ele>287.0</ele>
        <time>2021-08-14T15:32:18Z</time>
      </trkpt>
      <trkpt lat="41.78519" lon="2.920635">
        <ele>288.0</ele>
        <time>2021-08-14T15:32:20Z</time>
      </trkpt>
      <trkpt lat="41.785125" lon="2.920685">
        <ele>288.0</ele>
        <time>2021-08-14T15:32:22Z</time>
      </trkpt>
      <trkpt lat="41.78505" lon="2.92075">
        <ele>288.0</ele>
        <time>2021-08-14T15:32:24Z</time>
      </trkpt>
      <trkpt lat="41.784965" lon="2.920812">
        <ele>289.0</ele>
        <time>2021-08-14T15:32:26Z</time>
      </trkpt>
      <trkpt lat="41.78488" lon="2.920875">
        <ele>289.0</ele>
        <time>2021-08-14T15:32:28Z</time>
      </trkpt>
      <trkpt lat="41.784805" lon="2.92094">
        <ele>288.0</ele>
        <time>2021-08-14T15:32:30Z</time>
      </trkpt>
      <trkpt lat="41.78472" lon="2.921">
        <ele>288.0</ele>
        <time>2021-08-14T15:32:32Z</time>
      </trkpt>
      <trkpt lat="41.784647" lon="2.921055">
        <ele>289.0</ele>
        <time>2021-08-14T15:32:34Z</time>
      </trkpt>
      <trkpt lat="41.78458" lon="2.92112">
        <ele>290.0</ele>
        <time>2021-08-14T15:32:36Z</time>
      </trkpt>
      <trkpt lat="41.784515" lon="2.921177">
        <ele>290.0</ele>
        <time>2021-08-14T15:32:38Z</time>
      </trkpt>
      <trkpt lat="41.78443" lon="2.921233">
        <ele>290.0</ele>
        <time>2021-08-14T15:32:40Z</time>
      </trkpt>
      <trkpt lat="41.784355" lon="2.921302">
        <ele>290.0</ele>
        <time>2021-08-14T15:32:42Z</time>
      </trkpt>
      <trkpt lat="41.78428" lon="2.92137">
        <ele>290.0</ele>
        <time>2021-08-14T15:32:44Z</time>
      </trkpt>
      <trkpt lat="41.78421" lon="2.92143">
        <ele>290.0</ele>
        <time>2021-08-14T15:32:46Z</time>
      </trkpt>
      <trkpt lat="41.784125" lon="2.921492">
        <ele>290.0</ele>
        <time>2021-08-14T15:32:48Z</time>
      </trkpt>
      <trkpt lat="41.78405" lon="2.92156">
        <ele>291.0</ele>
        <time>2021-08-14T15:32:50Z</time>
      </trkpt>
      <trkpt lat="41.78397" lon="2.92162">
        <ele>291.0</ele>
        <time>2021-08-14T15:32:52Z</time>
      </trkpt>
      <trkpt lat="41.783885" lon="2.921692">
        <ele>292.0</ele>
        <time>2021-08-14T15:32:54Z</time>
      </trkpt>
      <trkpt lat="41.783815" lon="2.921755">
        <ele>293.0</ele>
        <time>2021-08-14T15:32:56Z</time>
      </trkpt>
      <trkpt lat="41.78375" lon="2.921815">
        <ele>293.0</ele>
        <time>2021-08-14T15:32:58Z</time>
      </trkpt>
      <trkpt lat="41.78368" lon="2.921875">
        <ele>293.0</ele>
        <time>2021-08-14T15:33:00Z</time>
      </trkpt>
      <trkpt lat="41.7836" lon="2.92193">
        <ele>292.0</ele>
        <time>2021-08-14T15:33:02Z</time>
      </trkpt>
      <trkpt lat="41.783522" lon="2.921997">
        <ele>291.0</ele>
        <time>2021-08-14T15:33:04Z</time>
      </trkpt>
      <trkpt lat="41.78345" lon="2.922058">
        <ele>292.0</ele>
        <time>2021-08-14T15:33:06Z</time>
      </trkpt>
      <trkpt lat="41.78338" lon="2.922117">
        <ele>291.0</ele>
        <time>2021-08-14T15:33:08Z</time>
      </trkpt>
      <trkpt lat="41.783315" lon="2.92217">
        <ele>291.0</ele>
        <time>2021-08-14T15:33:10Z</time>
      </trkpt>
      <trkpt lat="41.783242" lon="2.922217">
        <ele>291.0</ele>
        <time>2021-08-14T15:33:12Z</time>
      </trkpt>
      <trkpt lat="41.783165" lon="2.92227">
        <ele>291.0</ele>
        <time>2021-08-14T15:33:14Z</time>
      </trkpt>
      <trkpt lat="41.783095" lon="2.922312">
        <ele>290.0</ele>
        <time>2021-08-14T15:33:16Z</time>
      </trkpt>
      <trkpt lat="41.78302" lon="2.922335">
        <ele>290.0</ele>
        <time>2021-08-14T15:33:18Z</time>
      </trkpt>
      <trkpt lat="41.78294" lon="2.922352">
        <ele>290.0</ele>
        <time>2021-08-14T15:33:20Z</time>
      </trkpt>
      <trkpt lat="41.782845" lon="2.922355">
        <ele>290.0</ele>
        <time>2021-08-14T15:33:22Z</time>
      </trkpt>
      <trkpt lat="41.782745" lon="2.922345">
        <ele>290.0</ele>
        <time>2021-08-14T15:33:24Z</time>
      </trkpt>
      <trkpt lat="41.78265" lon="2.92232">
        <ele>290.0</ele>
        <time>2021-08-14T15:33:26Z</time>
      </trkpt>
      <trkpt lat="41.782555" lon="2.922285">
        <ele>290.0</ele>
        <time>2021-08-14T15:33:28Z</time>
      </trkpt>
      <trkpt lat="41.782452" lon="2.922243">
        <ele>289.0</ele>
        <time>2021-08-14T15:33:30Z</time>
      </trkpt>
      <trkpt lat="41.782345" lon="2.922205">
        <ele>289.0</ele>
        <time>2021-08-14T15:33:32Z</time>
      </trkpt>
      <trkpt lat="41.782235" lon="2.922165">
        <ele>289.0</ele>
        <time>2021-08-14T15:33:34Z</time>
      </trkpt>
      <trkpt lat="41.78213" lon="2.922115">
        <ele>288.0</ele>
        <time>2021-08-14T15:33:36Z</time>
      </trkpt>
      <trkpt lat="41.78203" lon="2.922068">
        <ele>288.0</ele>
        <time>2021-08-14T15:33:38Z</time>
      </trkpt>
      <trkpt lat="41.781935" lon="2.922037">
        <ele>288.0</ele>
        <time>2021-08-14T15:33:40Z</time>
      </trkpt>
      <trkpt lat="41.781845" lon="2.92201">
        <ele>288.0</ele>
        <time>2021-08-14T15:33:42Z</time>
      </trkpt>
      <trkpt lat="41.781762" lon="2.92198">
        <ele>288.0</ele>
        <time>2021-08-14T15:33:44Z</time>
      </trkpt>
      <trkpt lat="41.781685" lon="2.921947">
        <ele>287.0</ele>
        <time>2021-08-14T15:33:46Z</time>
      </trkpt>
      <trkpt lat="41.781615" lon="2.921922">
        <ele>287.0</ele>
        <time>2021-08-14T15:33:48Z</time>
      </trkpt>
      <trkpt lat="41.781535" lon="2.921893">
        <ele>287.0</ele>
        <time>2021-08-14T15:33:50Z</time>
      </trkpt>
      <trkpt lat="41.781465" lon="2.921852">
        <ele>288.0</ele>
        <time>2021-08-14T15:33:52Z</time>
      </trkpt>
      <trkpt lat="41.7814" lon="2.921805">
        <ele>288.0</ele>
        <time>2021-08-14T15:33:54Z</time>
      </trkpt>
      <trkpt lat="41.78133" lon="2.921755">
        <ele>288.0</ele>
        <time>2021-08-14T15:33:56Z</time>
      </trkpt>
      <trkpt lat="41.781255" lon="2.92172">
        <ele>289.0</ele>
        <time>2021-08-14T15:33:58Z</time>
      </trkpt>
      <trkpt lat="41.78117" lon="2.92167">
        <ele>288.0</ele>
        <time>2021-08-14T15:34:00Z</time>
      </trkpt>
      <trkpt lat="41.78109" lon="2.92161">
        <ele>288.0</ele>
        <time>2021-08-14T15:34:02Z</time>
      </trkpt>
      <trkpt lat="41.78102" lon="2.92155">
        <ele>288.0</ele>
        <time>2021-08-14T15:34:04Z</time>
      </trkpt>
      <trkpt lat="41.78097" lon="2.921457">
        <ele>288.0</ele>
        <time>2021-08-14T15:34:06Z</time>
      </trkpt>
      <trkpt lat="41.780935" lon="2.921362">
        <ele>288.0</ele>
        <time>2021-08-14T15:34:08Z</time>
      </trkpt>
      <trkpt lat="41.780907" lon="2.921267">
        <ele>288.0</ele>
        <time>2021-08-14T15:34:10Z</time>
      </trkpt>
      <trkpt lat="41.78088" lon="2.921175">
        <ele>289.0</ele>
        <time>2021-08-14T15:34:12Z</time>
      </trkpt>
      <trkpt lat="41.780855" lon="2.92108">
        <ele>289.0</ele>
        <time>2021-08-14T15:34:14Z</time>
      </trkpt>
      <trkpt lat="41.780845" lon="2.920945">
        <ele>289.0</ele>
        <time>2021-08-14T15:34:17Z</time>
      </trkpt>
      <trkpt lat="41.78082" lon="2.92081">
        <ele>289.0</ele>
        <time>2021-08-14T15:34:20Z</time>
      </trkpt>
      <trkpt lat="41.780797" lon="2.920687">
        <ele>290.0</ele>
        <time>2021-08-14T15:34:23Z</time>
      </trkpt>
      <trkpt lat="41.780777" lon="2.92057">
        <ele>290.0</ele>
        <time>2021-08-14T15:34:26Z</time>
      </trkpt>
      <trkpt lat="41.780755" lon="2.92045">
        <ele>291.0</ele>
        <time>2021-08-14T15:34:29Z</time>
      </trkpt>
      <trkpt lat="41.780725" lon="2.920327">
        <ele>291.0</ele>
        <time>2021-08-14T15:34:32Z</time>
      </trkpt>
      <trkpt lat="41.780695" lon="2.92021">
        <ele>292.0</ele>
        <time>2021-08-14T15:34:35Z</time>
      </trkpt>
      <trkpt lat="41.78065" lon="2.920105">
        <ele>293.0</ele>
        <time>2021-08-14T15:34:38Z</time>
      </trkpt>
      <trkpt lat="41.780597" lon="2.920005">
        <ele>293.0</ele>
        <time>2021-08-14T15:34:41Z</time>
      </trkpt>
      <trkpt lat="41.780525" lon="2.91993">
        <ele>293.0</ele>
        <time>2021-08-14T15:34:44Z</time>
      </trkpt>
      <trkpt lat="41.780457" lon="2.919855">
        <ele>293.0</ele>
        <time>2021-08-14T15:34:47Z</time>
      </trkpt>
      <trkpt lat="41.780383" lon="2.919795">
        <ele>293.0</ele>
        <time>2021-08-14T15:34:50Z</time>
      </trkpt>
      <trkpt lat="41.780327" lon="2.91973">
        <ele>293.0</ele>
        <time>2021-08-14T15:34:53Z</time>
      </trkpt>
      <trkpt lat="41.780267" lon="2.919675">
        <ele>293.0</ele>
        <time>2021-08-14T15:34:56Z</time>
      </trkpt>
      <trkpt lat="41.78021" lon="2.919612">
        <ele>293.0</ele>
        <time>2021-08-14T15:34:59Z</time>
      </trkpt>
      <trkpt lat="41.780135" lon="2.919532">
        <ele>293.0</ele>
        <time>2021-08-14T15:35:03Z</time>
      </trkpt>
      <trkpt lat="41.780082" lon="2.91946">
        <ele>293.0</ele>
        <time>2021-08-14T15:35:07Z</time>
      </trkpt>
      <trkpt lat="41.780035" lon="2.91938">
        <ele>294.0</ele>
        <time>2021-08-14T15:35:12Z</time>
      </trkpt>
      <trkpt lat="41.780045" lon="2.919285">
        <ele>294.0</ele>
        <time>2021-08-14T15:35:16Z</time>
      </trkpt>
      <trkpt lat="41.780035" lon="2.91919">
        <ele>295.0</ele>
        <time>2021-08-14T15:35:20Z</time>
      </trkpt>
      <trkpt lat="41.779995" lon="2.919105">
        <ele>296.0</ele>
        <time>2021-08-14T15:35:27Z</time>
      </trkpt>
      <trkpt lat="41.77994" lon="2.919025">
        <ele>299.0</ele>
        <time>2021-08-14T15:35:33Z</time>
      </trkpt>
      <trkpt lat="41.779885" lon="2.91895">
        <ele>299.0</ele>
        <time>2021-08-14T15:35:39Z</time>
      </trkpt>
      <trkpt lat="41.779835" lon="2.91887">
        <ele>301.0</ele>
        <time>2021-08-14T15:35:45Z</time>
      </trkpt>
      <trkpt lat="41.779792" lon="2.918797">
        <ele>301.0</ele>
        <time>2021-08-14T15:35:52Z</time>
      </trkpt>
      <trkpt lat="41.779745" lon="2.9187">
        <ele>303.0</ele>
        <time>2021-08-14T15:35:59Z</time>
      </trkpt>
      <trkpt lat="41.779692" lon="2.91862">
        <ele>304.0</ele>
        <time>2021-08-14T15:36:06Z</time>
      </trkpt>
      <trkpt lat="41.779622" lon="2.918558">
        <ele>304.0</ele>
        <time>2021-08-14T15:36:11Z</time>
      </trkpt>
      <trkpt lat="41.77958" lon="2.918485">
        <ele>306.0</ele>
        <time>2021-08-14T15:36:18Z</time>
      </trkpt>
      <trkpt lat="41.779515" lon="2.91844">
        <ele>306.0</ele>
        <time>2021-08-14T15:36:22Z</time>
      </trkpt>
      <trkpt lat="41.77945" lon="2.91839">
        <ele>308.0</ele>
        <time>2021-08-14T15:36:28Z</time>
      </trkpt>
      <trkpt lat="41.77939" lon="2.91834">
        <ele>310.0</ele>
        <time>2021-08-14T15:36:35Z</time>
      </trkpt>
      <trkpt lat="41.779322" lon="2.918272">
        <ele>310.0</ele>
        <time>2021-08-14T15:36:41Z</time>
      </trkpt>
      <trkpt lat="41.77927" lon="2.918205">
        <ele>312.0</ele>
        <time>2021-08-14T15:36:46Z</time>
      </trkpt>
      <trkpt lat="41.77921" lon="2.918135">
        <ele>313.0</ele>
        <time>2021-08-14T15:36:52Z</time>
      </trkpt>
      <trkpt lat="41.77915" lon="2.918055">
        <ele>315.0</ele>
        <time>2021-08-14T15:36:58Z</time>
      </trkpt>
      <trkpt lat="41.779112" lon="2.91797">
        <ele>315.0</ele>
        <time>2021-08-14T15:37:05Z</time>
      </trkpt>
      <trkpt lat="41.779057" lon="2.91789">
        <ele>316.0</ele>
        <time>2021-08-14T15:37:11Z</time>
      </trkpt>
      <trkpt lat="41.779005" lon="2.917805">
        <ele>317.0</ele>
        <time>2021-08-14T15:37:18Z</time>
      </trkpt>
      <trkpt lat="41.77894" lon="2.91774">
        <ele>319.0</ele>
        <time>2021-08-14T15:37:23Z</time>
      </trkpt>
      <trkpt lat="41.77888" lon="2.917665">
        <ele>321.0</ele>
        <time>2021-08-14T15:37:28Z</time>
      </trkpt>
      <trkpt lat="41.77883" lon="2.917575">
        <ele>322.0</ele>
        <time>2021-08-14T15:37:34Z</time>
      </trkpt>
      <trkpt lat="41.77878" lon="2.91751">
        <ele>323.0</ele>
        <time>2021-08-14T15:37:38Z</time>
      </trkpt>
      <trkpt lat="41.778712" lon="2.91743">
        <ele>324.0</ele>
        <time>2021-08-14T15:37:42Z</time>
      </trkpt>
      <trkpt lat="41.778643" lon="2.91735">
        <ele>324.0</ele>
        <time>2021-08-14T15:37:46Z</time>
      </trkpt>
      <trkpt lat="41.77858" lon="2.917282">
        <ele>325.0</ele>
        <time>2021-08-14T15:37:51Z</time>
      </trkpt>
      <trkpt lat="41.778525" lon="2.917213">
        <ele>327.0</ele>
        <time>2021-08-14T15:37:55Z</time>
      </trkpt>
      <trkpt lat="41.77846" lon="2.917145">
        <ele>328.0</ele>
        <time>2021-08-14T15:38:00Z</time>
      </trkpt>
      <trkpt lat="41.7784" lon="2.91706">
        <ele>328.0</ele>
        <time>2021-08-14T15:38:05Z</time>
      </trkpt>
      <trkpt lat="41.778325" lon="2.917">
        <ele>330.0</ele>
        <time>2021-08-14T15:38:10Z</time>
      </trkpt>
      <trkpt lat="41.778262" lon="2.91692">
        <ele>333.0</ele>
        <time>2021-08-14T15:38:17Z</time>
      </trkpt>
      <trkpt lat="41.778215" lon="2.916855">
        <ele>334.0</ele>
        <time>2021-08-14T15:38:24Z</time>
      </trkpt>
      <trkpt lat="41.778162" lon="2.916778">
        <ele>334.0</ele>
        <time>2021-08-14T15:38:28Z</time>
      </trkpt>
      <trkpt lat="41.7781" lon="2.9167">
        <ele>335.0</ele>
        <time>2021-08-14T15:38:33Z</time>
      </trkpt>
      <trkpt lat="41.778038" lon="2.916615">
        <ele>335.0</ele>
        <time>2021-08-14T15:38:38Z</time>
      </trkpt>
      <trkpt lat="41.778" lon="2.91653">
        <ele>335.0</ele>
        <time>2021-08-14T15:38:43Z</time>
      </trkpt>
      <trkpt lat="41.777962" lon="2.91642">
        <ele>336.0</ele>
        <time>2021-08-14T15:38:48Z</time>
      </trkpt>
      <trkpt lat="41.777935" lon="2.916315">
        <ele>337.0</ele>
        <time>2021-08-14T15:38:53Z</time>
      </trkpt>
      <trkpt lat="41.777907" lon="2.916215">
        <ele>336.0</ele>
        <time>2021-08-14T15:38:57Z</time>
      </trkpt>
      <trkpt lat="41.77787" lon="2.916108">
        <ele>337.0</ele>
        <time>2021-08-14T15:39:02Z</time>
      </trkpt>
      <trkpt lat="41.777825" lon="2.916022">
        <ele>338.0</ele>
        <time>2021-08-14T15:39:06Z</time>
      </trkpt>
      <trkpt lat="41.77777" lon="2.915935">
        <ele>338.0</ele>
        <time>2021-08-14T15:39:11Z</time>
      </trkpt>
      <trkpt lat="41.777727" lon="2.915845">
        <ele>338.0</ele>
        <time>2021-08-14T15:39:16Z</time>
      </trkpt>
      <trkpt lat="41.777665" lon="2.91576">
        <ele>338.0</ele>
        <time>2021-08-14T15:39:21Z</time>
      </trkpt>
      <trkpt lat="41.777595" lon="2.915688">
        <ele>338.0</ele>
        <time>2021-08-14T15:39:26Z</time>
      </trkpt>
      <trkpt lat="41.77754" lon="2.915603">
        <ele>339.0</ele>
        <time>2021-08-14T15:39:31Z</time>
      </trkpt>
      <trkpt lat="41.77748" lon="2.915537">
        <ele>339.0</ele>
        <time>2021-08-14T15:39:35Z</time>
      </trkpt>
      <trkpt lat="41.777415" lon="2.91549">
        <ele>341.0</ele>
        <time>2021-08-14T15:39:40Z</time>
      </trkpt>
      <trkpt lat="41.777345" lon="2.91543">
        <ele>341.0</ele>
        <time>2021-08-14T15:39:45Z</time>
      </trkpt>
      <trkpt lat="41.777277" lon="2.915395">
        <ele>342.0</ele>
        <time>2021-08-14T15:39:49Z</time>
      </trkpt>
      <trkpt lat="41.777207" lon="2.91534">
        <ele>343.0</ele>
        <time>2021-08-14T15:39:55Z</time>
      </trkpt>
      <trkpt lat="41.777135" lon="2.915292">
        <ele>344.0</ele>
        <time>2021-08-14T15:40:01Z</time>
      </trkpt>
      <trkpt lat="41.777065" lon="2.91525">
        <ele>345.0</ele>
        <time>2021-08-14T15:40:06Z</time>
      </trkpt>
      <trkpt lat="41.776995" lon="2.915205">
        <ele>347.0</ele>
        <time>2021-08-14T15:40:11Z</time>
      </trkpt>
      <trkpt lat="41.77691" lon="2.91518">
        <ele>348.0</ele>
        <time>2021-08-14T15:40:16Z</time>
      </trkpt>
      <trkpt lat="41.776823" lon="2.9152">
        <ele>351.0</ele>
        <time>2021-08-14T15:40:20Z</time>
      </trkpt>
      <trkpt lat="41.776743" lon="2.91526">
        <ele>353.0</ele>
        <time>2021-08-14T15:40:23Z</time>
      </trkpt>
      <trkpt lat="41.77668" lon="2.915312">
        <ele>355.0</ele>
        <time>2021-08-14T15:40:26Z</time>
      </trkpt>
      <trkpt lat="41.77662" lon="2.91538">
        <ele>357.0</ele>
        <time>2021-08-14T15:40:29Z</time>
      </trkpt>
      <trkpt lat="41.776555" lon="2.91547">
        <ele>359.0</ele>
        <time>2021-08-14T15:40:33Z</time>
      </trkpt>
      <trkpt lat="41.7765" lon="2.915555">
        <ele>361.0</ele>
        <time>2021-08-14T15:40:37Z</time>
      </trkpt>
      <trkpt lat="41.776455" lon="2.91565">
        <ele>363.0</ele>
        <time>2021-08-14T15:40:41Z</time>
      </trkpt>
      <trkpt lat="41.77642" lon="2.915752">
        <ele>364.0</ele>
        <time>2021-08-14T15:40:45Z</time>
      </trkpt>
      <trkpt lat="41.776372" lon="2.915835">
        <ele>366.0</ele>
        <time>2021-08-14T15:40:49Z</time>
      </trkpt>
      <trkpt lat="41.776305" lon="2.915917">
        <ele>368.0</ele>
        <time>2021-08-14T15:40:53Z</time>
      </trkpt>
      <trkpt lat="41.77624" lon="2.915995">
        <ele>369.0</ele>
        <time>2021-08-14T15:40:57Z</time>
      </trkpt>
      <trkpt lat="41.77618" lon="2.91607">
        <ele>370.0</ele>
        <time>2021-08-14T15:41:01Z</time>
      </trkpt>
      <trkpt lat="41.776125" lon="2.916133">
        <ele>371.0</ele>
        <time>2021-08-14T15:41:05Z</time>
      </trkpt>
      <trkpt lat="41.776055" lon="2.916208">
        <ele>373.0</ele>
        <time>2021-08-14T15:41:10Z</time>
      </trkpt>
      <trkpt lat="41.77598" lon="2.916282">
        <ele>374.0</ele>
        <time>2021-08-14T15:41:14Z</time>
      </trkpt>
      <trkpt lat="41.775912" lon="2.916347">
        <ele>374.0</ele>
        <time>2021-08-14T15:41:18Z</time>
      </trkpt>
      <trkpt lat="41.775852" lon="2.91642">
        <ele>375.0</ele>
        <time>2021-08-14T15:41:22Z</time>
      </trkpt>
      <trkpt lat="41.77579" lon="2.91651">
        <ele>375.0</ele>
        <time>2021-08-14T15:41:26Z</time>
      </trkpt>
      <trkpt lat="41.775715" lon="2.916563">
        <ele>376.0</ele>
        <time>2021-08-14T15:41:30Z</time>
      </trkpt>
      <trkpt lat="41.775627" lon="2.916587">
        <ele>377.0</ele>
        <time>2021-08-14T15:41:34Z</time>
      </trkpt>
      <trkpt lat="41.775545" lon="2.916575">
        <ele>377.0</ele>
        <time>2021-08-14T15:41:38Z</time>
      </trkpt>
      <trkpt lat="41.775462" lon="2.91655">
        <ele>378.0</ele>
        <time>2021-08-14T15:41:42Z</time>
      </trkpt>
      <trkpt lat="41.775392" lon="2.91651">
        <ele>379.0</ele>
        <time>2021-08-14T15:41:46Z</time>
      </trkpt>
      <trkpt lat="41.77532" lon="2.916465">
        <ele>379.0</ele>
        <time>2021-08-14T15:41:50Z</time>
      </trkpt>
      <trkpt lat="41.77526" lon="2.916398">
        <ele>379.0</ele>
        <time>2021-08-14T15:41:55Z</time>
      </trkpt>
      <trkpt lat="41.7752" lon="2.91634">
        <ele>379.0</ele>
        <time>2021-08-14T15:41:59Z</time>
      </trkpt>
      <trkpt lat="41.775125" lon="2.91628">
        <ele>379.0</ele>
        <time>2021-08-14T15:42:03Z</time>
      </trkpt>
      <trkpt lat="41.775055" lon="2.91622">
        <ele>380.0</ele>
        <time>2021-08-14T15:42:07Z</time>
      </trkpt>
      <trkpt lat="41.77499" lon="2.91616">
        <ele>381.0</ele>
        <time>2021-08-14T15:42:12Z</time>
      </trkpt>
      <trkpt lat="41.774915" lon="2.916118">
        <ele>381.0</ele>
        <time>2021-08-14T15:42:16Z</time>
      </trkpt>
      <trkpt lat="41.774837" lon="2.91613">
        <ele>381.0</ele>
        <time>2021-08-14T15:42:20Z</time>
      </trkpt>
      <trkpt lat="41.774765" lon="2.916175">
        <ele>381.0</ele>
        <time>2021-08-14T15:42:24Z</time>
      </trkpt>
      <trkpt lat="41.774695" lon="2.916225">
        <ele>382.0</ele>
        <time>2021-08-14T15:42:28Z</time>
      </trkpt>
      <trkpt lat="41.774615" lon="2.91625">
        <ele>383.0</ele>
        <time>2021-08-14T15:42:32Z</time>
      </trkpt>
      <trkpt lat="41.77454" lon="2.916238">
        <ele>384.0</ele>
        <time>2021-08-14T15:42:36Z</time>
      </trkpt>
      <trkpt lat="41.77446" lon="2.916212">
        <ele>385.0</ele>
        <time>2021-08-14T15:42:40Z</time>
      </trkpt>
      <trkpt lat="41.774393" lon="2.916155">
        <ele>386.0</ele>
        <time>2021-08-14T15:42:44Z</time>
      </trkpt>
      <trkpt lat="41.774332" lon="2.916102">
        <ele>387.0</ele>
        <time>2021-08-14T15:42:48Z</time>
      </trkpt>
      <trkpt lat="41.774265" lon="2.916048">
        <ele>387.0</ele>
        <time>2021-08-14T15:42:52Z</time>
      </trkpt>
      <trkpt lat="41.774195" lon="2.916">
        <ele>388.0</ele>
        <time>2021-08-14T15:42:56Z</time>
      </trkpt>
      <trkpt lat="41.774125" lon="2.915952">
        <ele>388.0</ele>
        <time>2021-08-14T15:43:00Z</time>
      </trkpt>
      <trkpt lat="41.774045" lon="2.9159">
        <ele>388.0</ele>
        <time>2021-08-14T15:43:04Z</time>
      </trkpt>
      <trkpt lat="41.773975" lon="2.915855">
        <ele>388.0</ele>
        <time>2021-08-14T15:43:08Z</time>
      </trkpt>
      <trkpt lat="41.773912" lon="2.915793">
        <ele>388.0</ele>
        <time>2021-08-14T15:43:12Z</time>
      </trkpt>
      <trkpt lat="41.773832" lon="2.915752">
        <ele>389.0</ele>
        <time>2021-08-14T15:43:16Z</time>
      </trkpt>
      <trkpt lat="41.773745" lon="2.91572">
        <ele>389.0</ele>
        <time>2021-08-14T15:43:21Z</time>
      </trkpt>
      <trkpt lat="41.77367" lon="2.915717">
        <ele>390.0</ele>
        <time>2021-08-14T15:43:25Z</time>
      </trkpt>
      <trkpt lat="41.7736" lon="2.9157">
        <ele>391.0</ele>
        <time>2021-08-14T15:43:29Z</time>
      </trkpt>
      <trkpt lat="41.77353" lon="2.915635">
        <ele>392.0</ele>
        <time>2021-08-14T15:43:33Z</time>
      </trkpt>
      <trkpt lat="41.773455" lon="2.915565">
        <ele>391.0</ele>
        <time>2021-08-14T15:43:37Z</time>
      </trkpt>
      <trkpt lat="41.77339" lon="2.915515">
        <ele>391.0</ele>
        <time>2021-08-14T15:43:41Z</time>
      </trkpt>
      <trkpt lat="41.773302" lon="2.915515">
        <ele>391.0</ele>
        <time>2021-08-14T15:43:45Z</time>
      </trkpt>
      <trkpt lat="41.773215" lon="2.915495">
        <ele>391.0</ele>
        <time>2021-08-14T15:43:49Z</time>
      </trkpt>
      <trkpt lat="41.773137" lon="2.915465">
        <ele>391.0</ele>
        <time>2021-08-14T15:43:53Z</time>
      </trkpt>
      <trkpt lat="41.77306" lon="2.915435">
        <ele>392.0</ele>
        <time>2021-08-14T15:43:57Z</time>
      </trkpt>
      <trkpt lat="41.772982" lon="2.91539">
        <ele>394.0</ele>
        <time>2021-08-14T15:44:02Z</time>
      </trkpt>
      <trkpt lat="41.772917" lon="2.91533">
        <ele>394.0</ele>
        <time>2021-08-14T15:44:06Z</time>
      </trkpt>
      <trkpt lat="41.772845" lon="2.915253">
        <ele>394.0</ele>
        <time>2021-08-14T15:44:10Z</time>
      </trkpt>
      <trkpt lat="41.772767" lon="2.915197">
        <ele>394.0</ele>
        <time>2021-08-14T15:44:13Z</time>
      </trkpt>
      <trkpt lat="41.772685" lon="2.915175">
        <ele>395.0</ele>
        <time>2021-08-14T15:44:16Z</time>
      </trkpt>
      <trkpt lat="41.772605" lon="2.915195">
        <ele>396.0</ele>
        <time>2021-08-14T15:44:19Z</time>
      </trkpt>
      <trkpt lat="41.772532" lon="2.915205">
        <ele>397.0</ele>
        <time>2021-08-14T15:44:23Z</time>
      </trkpt>
      <trkpt lat="41.772445" lon="2.915205">
        <ele>399.0</ele>
        <time>2021-08-14T15:44:27Z</time>
      </trkpt>
      <trkpt lat="41.77237" lon="2.915185">
        <ele>401.0</ele>
        <time>2021-08-14T15:44:31Z</time>
      </trkpt>
      <trkpt lat="41.772278" lon="2.915122">
        <ele>399.0</ele>
        <time>2021-08-14T15:44:34Z</time>
      </trkpt>
      <trkpt lat="41.772205" lon="2.91506">
        <ele>396.0</ele>
        <time>2021-08-14T15:44:36Z</time>
      </trkpt>
      <trkpt lat="41.77216" lon="2.91494">
        <ele>394.0</ele>
        <time>2021-08-14T15:44:38Z</time>
      </trkpt>
      <trkpt lat="41.772145" lon="2.914807">
        <ele>393.0</ele>
        <time>2021-08-14T15:44:40Z</time>
      </trkpt>
      <trkpt lat="41.772152" lon="2.914692">
        <ele>392.0</ele>
        <time>2021-08-14T15:44:42Z</time>
      </trkpt>
      <trkpt lat="41.772175" lon="2.91458">
        <ele>391.0</ele>
        <time>2021-08-14T15:44:45Z</time>
      </trkpt>
      <trkpt lat="41.772135" lon="2.91447">
        <ele>390.0</ele>
        <time>2021-08-14T15:44:49Z</time>
      </trkpt>
      <trkpt lat="41.77205" lon="2.9144">
        <ele>390.0</ele>
        <time>2021-08-14T15:44:52Z</time>
      </trkpt>
      <trkpt lat="41.771985" lon="2.91432">
        <ele>390.0</ele>
        <time>2021-08-14T15:44:55Z</time>
      </trkpt>
      <trkpt lat="41.771915" lon="2.914237">
        <ele>388.0</ele>
        <time>2021-08-14T15:44:59Z</time>
      </trkpt>
      <trkpt lat="41.771897" lon="2.914132">
        <ele>388.0</ele>
        <time>2021-08-14T15:45:03Z</time>
      </trkpt>
      <trkpt lat="41.771935" lon="2.91403">
        <ele>388.0</ele>
        <time>2021-08-14T15:45:07Z</time>
      </trkpt>
      <trkpt lat="41.771925" lon="2.913917">
        <ele>388.0</ele>
        <time>2021-08-14T15:45:10Z</time>
      </trkpt>
      <trkpt lat="41.7719" lon="2.913815">
        <ele>387.0</ele>
        <time>2021-08-14T15:45:13Z</time>
      </trkpt>
      <trkpt lat="41.77186" lon="2.913697">
        <ele>387.0</ele>
        <time>2021-08-14T15:45:16Z</time>
      </trkpt>
      <trkpt lat="41.771895" lon="2.913595">
        <ele>387.0</ele>
        <time>2021-08-14T15:45:19Z</time>
      </trkpt>
      <trkpt lat="41.771985" lon="2.913547">
        <ele>386.0</ele>
        <time>2021-08-14T15:45:21Z</time>
      </trkpt>
      <trkpt lat="41.772065" lon="2.913492">
        <ele>385.0</ele>
        <time>2021-08-14T15:45:24Z</time>
      </trkpt>
      <trkpt lat="41.772145" lon="2.913415">
        <ele>384.0</ele>
        <time>2021-08-14T15:45:28Z</time>
      </trkpt>
      <trkpt lat="41.772235" lon="2.913327">
        <ele>383.0</ele>
        <time>2021-08-14T15:45:31Z</time>
      </trkpt>
      <trkpt lat="41.772305" lon="2.913253">
        <ele>382.0</ele>
        <time>2021-08-14T15:45:33Z</time>
      </trkpt>
      <trkpt lat="41.772345" lon="2.913145">
        <ele>380.0</ele>
        <time>2021-08-14T15:45:35Z</time>
      </trkpt>
      <trkpt lat="41.772365" lon="2.913005">
        <ele>379.0</ele>
        <time>2021-08-14T15:45:37Z</time>
      </trkpt>
      <trkpt lat="41.772392" lon="2.912865">
        <ele>377.0</ele>
        <time>2021-08-14T15:45:39Z</time>
      </trkpt>
      <trkpt lat="41.77243" lon="2.91273">
        <ele>375.0</ele>
        <time>2021-08-14T15:45:41Z</time>
      </trkpt>
      <trkpt lat="41.7725" lon="2.912647">
        <ele>375.0</ele>
        <time>2021-08-14T15:45:43Z</time>
      </trkpt>
      <trkpt lat="41.77259" lon="2.91268">
        <ele>375.0</ele>
        <time>2021-08-14T15:45:46Z</time>
      </trkpt>
      <trkpt lat="41.772667" lon="2.91271">
        <ele>375.0</ele>
        <time>2021-08-14T15:45:49Z</time>
      </trkpt>
      <trkpt lat="41.772752" lon="2.91273">
        <ele>375.0</ele>
        <time>2021-08-14T15:45:53Z</time>
      </trkpt>
      <trkpt lat="41.772835" lon="2.912727">
        <ele>376.0</ele>
        <time>2021-08-14T15:45:58Z</time>
      </trkpt>
      <trkpt lat="41.772887" lon="2.912808">
        <ele>376.0</ele>
        <time>2021-08-14T15:46:03Z</time>
      </trkpt>
      <trkpt lat="41.772965" lon="2.912815">
        <ele>376.0</ele>
        <time>2021-08-14T15:46:08Z</time>
      </trkpt>
      <trkpt lat="41.77301" lon="2.912712">
        <ele>376.0</ele>
        <time>2021-08-14T15:46:13Z</time>
      </trkpt>
      <trkpt lat="41.772955" lon="2.912615">
        <ele>376.0</ele>
        <time>2021-08-14T15:46:18Z</time>
      </trkpt>
      <trkpt lat="41.772882" lon="2.912627">
        <ele>378.0</ele>
        <time>2021-08-14T15:46:23Z</time>
      </trkpt>
      <trkpt lat="41.77284" lon="2.912708">
        <ele>379.0</ele>
        <time>2021-08-14T15:46:29Z</time>
      </trkpt>
      <trkpt lat="41.772865" lon="2.912805">
        <ele>378.0</ele>
        <time>2021-08-14T15:46:36Z</time>
      </trkpt>
      <trkpt lat="41.77294" lon="2.912813">
        <ele>378.0</ele>
        <time>2021-08-14T15:46:41Z</time>
      </trkpt>
      <trkpt lat="41.77301" lon="2.912743">
        <ele>378.0</ele>
        <time>2021-08-14T15:46:46Z</time>
      </trkpt>
      <trkpt lat="41.772965" lon="2.912702">
        <ele>379.0</ele>
        <time>2021-08-14T15:46:53Z</time>
      </trkpt>
      <trkpt lat="41.772947" lon="2.912815">
        <ele>379.0</ele>
        <time>2021-08-14T15:46:57Z</time>
      </trkpt>
      <trkpt lat="41.772945" lon="2.912935">
        <ele>380.0</ele>
        <time>2021-08-14T15:47:01Z</time>
      </trkpt>
      <trkpt lat="41.772935" lon="2.913035">
        <ele>380.0</ele>
        <time>2021-08-14T15:47:04Z</time>
      </trkpt>
      <trkpt lat="41.772927" lon="2.913158">
        <ele>380.0</ele>
        <time>2021-08-14T15:47:08Z</time>
      </trkpt>
      <trkpt lat="41.77294" lon="2.913257">
        <ele>380.0</ele>
        <time>2021-08-14T15:47:11Z</time>
      </trkpt>
      <trkpt lat="41.772955" lon="2.913352">
        <ele>380.0</ele>
        <time>2021-08-14T15:47:14Z</time>
      </trkpt>
      <trkpt lat="41.772965" lon="2.91348">
        <ele>382.0</ele>
        <time>2021-08-14T15:47:18Z</time>
      </trkpt>
      <trkpt lat="41.772965" lon="2.913597">
        <ele>384.0</ele>
        <time>2021-08-14T15:47:22Z</time>
      </trkpt>
      <trkpt lat="41.772972" lon="2.91371">
        <ele>385.0</ele>
        <time>2021-08-14T15:47:27Z</time>
      </trkpt>
      <trkpt lat="41.773015" lon="2.913783">
        <ele>385.0</ele>
        <time>2021-08-14T15:47:34Z</time>
      </trkpt>
      <trkpt lat="41.773015" lon="2.913725">
        <ele>385.0</ele>
        <time>2021-08-14T15:47:41Z</time>
      </trkpt>
      <trkpt lat="41.773015" lon="2.913725">
        <ele>385.0</ele>
        <time>2021-08-14T15:47:46Z</time>
      </trkpt>
      <trkpt lat="41.773" lon="2.913692">
        <ele>388.0</ele>
        <time>2021-08-14T15:47:59Z</time>
      </trkpt>
      <trkpt lat="41.773" lon="2.913692">
        <ele>388.0</ele>
        <time>2021-08-14T15:48:02Z</time>
      </trkpt>
      <trkpt lat="41.77302" lon="2.913712">
        <ele>387.0</ele>
        <time>2021-08-14T15:51:55Z</time>
      </trkpt>
      <trkpt lat="41.77302" lon="2.913712">
        <ele>387.0</ele>
        <time>2021-08-14T15:51:56Z</time>
      </trkpt>
      <trkpt lat="41.772985" lon="2.91363">
        <ele>384.0</ele>
        <time>2021-08-14T15:52:10Z</time>
      </trkpt>
      <trkpt lat="41.772975" lon="2.913528">
        <ele>383.0</ele>
        <time>2021-08-14T15:52:13Z</time>
      </trkpt>
      <trkpt lat="41.77297" lon="2.913418">
        <ele>382.0</ele>
        <time>2021-08-14T15:52:15Z</time>
      </trkpt>
      <trkpt lat="41.772958" lon="2.9133">
        <ele>380.0</ele>
        <time>2021-08-14T15:52:17Z</time>
      </trkpt>
      <trkpt lat="41.77295" lon="2.913197">
        <ele>378.0</ele>
        <time>2021-08-14T15:52:19Z</time>
      </trkpt>
      <trkpt lat="41.772935" lon="2.913067">
        <ele>378.0</ele>
        <time>2021-08-14T15:52:22Z</time>
      </trkpt>
      <trkpt lat="41.772937" lon="2.91296">
        <ele>379.0</ele>
        <time>2021-08-14T15:52:25Z</time>
      </trkpt>
      <trkpt lat="41.772945" lon="2.91288">
        <ele>379.0</ele>
        <time>2021-08-14T15:52:32Z</time>
      </trkpt>
      <trkpt lat="41.772945" lon="2.91288">
        <ele>379.0</ele>
        <time>2021-08-14T15:52:35Z</time>
      </trkpt>
      <trkpt lat="41.772945" lon="2.912867">
        <ele>380.0</ele>
        <time>2021-08-14T15:52:53Z</time>
      </trkpt>
      <trkpt lat="41.77295" lon="2.912867">
        <ele>380.0</ele>
        <time>2021-08-14T15:52:54Z</time>
      </trkpt>
      <trkpt lat="41.772985" lon="2.91276">
        <ele>379.0</ele>
        <time>2021-08-14T15:53:07Z</time>
      </trkpt>
      <trkpt lat="41.773005" lon="2.912655">
        <ele>379.0</ele>
        <time>2021-08-14T15:53:11Z</time>
      </trkpt>
      <trkpt lat="41.77293" lon="2.912605">
        <ele>378.0</ele>
        <time>2021-08-14T15:53:14Z</time>
      </trkpt>
      <trkpt lat="41.772827" lon="2.912635">
        <ele>378.0</ele>
        <time>2021-08-14T15:53:17Z</time>
      </trkpt>
      <trkpt lat="41.772725" lon="2.912665">
        <ele>377.0</ele>
        <time>2021-08-14T15:53:19Z</time>
      </trkpt>
      <trkpt lat="41.772622" lon="2.912657">
        <ele>376.0</ele>
        <time>2021-08-14T15:53:21Z</time>
      </trkpt>
      <trkpt lat="41.772515" lon="2.912648">
        <ele>375.0</ele>
        <time>2021-08-14T15:53:23Z</time>
      </trkpt>
      <trkpt lat="41.77239" lon="2.91265">
        <ele>375.0</ele>
        <time>2021-08-14T15:53:25Z</time>
      </trkpt>
      <trkpt lat="41.772265" lon="2.912657">
        <ele>375.0</ele>
        <time>2021-08-14T15:53:27Z</time>
      </trkpt>
      <trkpt lat="41.772145" lon="2.912655">
        <ele>374.0</ele>
        <time>2021-08-14T15:53:29Z</time>
      </trkpt>
      <trkpt lat="41.772045" lon="2.912645">
        <ele>373.0</ele>
        <time>2021-08-14T15:53:31Z</time>
      </trkpt>
      <trkpt lat="41.771945" lon="2.912625">
        <ele>372.0</ele>
        <time>2021-08-14T15:53:33Z</time>
      </trkpt>
      <trkpt lat="41.771835" lon="2.91259">
        <ele>372.0</ele>
        <time>2021-08-14T15:53:35Z</time>
      </trkpt>
      <trkpt lat="41.771705" lon="2.91254">
        <ele>371.0</ele>
        <time>2021-08-14T15:53:37Z</time>
      </trkpt>
      <trkpt lat="41.77158" lon="2.912495">
        <ele>369.0</ele>
        <time>2021-08-14T15:53:39Z</time>
      </trkpt>
      <trkpt lat="41.771452" lon="2.912458">
        <ele>367.0</ele>
        <time>2021-08-14T15:53:41Z</time>
      </trkpt>
      <trkpt lat="41.771315" lon="2.91244">
        <ele>365.0</ele>
        <time>2021-08-14T15:53:43Z</time>
      </trkpt>
      <trkpt lat="41.77117" lon="2.912458">
        <ele>363.0</ele>
        <time>2021-08-14T15:53:45Z</time>
      </trkpt>
      <trkpt lat="41.771095" lon="2.91248">
        <ele>362.0</ele>
        <time>2021-08-14T15:53:46Z</time>
      </trkpt>
      <trkpt lat="41.77102" lon="2.9125">
        <ele>362.0</ele>
        <time>2021-08-14T15:53:47Z</time>
      </trkpt>
      <trkpt lat="41.770945" lon="2.91252">
        <ele>362.0</ele>
        <time>2021-08-14T15:53:48Z</time>
      </trkpt>
      <trkpt lat="41.77087" lon="2.91255">
        <ele>361.0</ele>
        <time>2021-08-14T15:53:49Z</time>
      </trkpt>
      <trkpt lat="41.770735" lon="2.912595">
        <ele>361.0</ele>
        <time>2021-08-14T15:53:51Z</time>
      </trkpt>
      <trkpt lat="41.77066" lon="2.912615">
        <ele>360.0</ele>
        <time>2021-08-14T15:53:52Z</time>
      </trkpt>
      <trkpt lat="41.77059" lon="2.912635">
        <ele>360.0</ele>
        <time>2021-08-14T15:53:53Z</time>
      </trkpt>
      <trkpt lat="41.770452" lon="2.912655">
        <ele>359.0</ele>
        <time>2021-08-14T15:53:55Z</time>
      </trkpt>
      <trkpt lat="41.77032" lon="2.912655">
        <ele>358.0</ele>
        <time>2021-08-14T15:53:57Z</time>
      </trkpt>
      <trkpt lat="41.770215" lon="2.91267">
        <ele>357.0</ele>
        <time>2021-08-14T15:53:59Z</time>
      </trkpt>
      <trkpt lat="41.770125" lon="2.912677">
        <ele>357.0</ele>
        <time>2021-08-14T15:54:01Z</time>
      </trkpt>
      <trkpt lat="41.770017" lon="2.91268">
        <ele>356.0</ele>
        <time>2021-08-14T15:54:04Z</time>
      </trkpt>
      <trkpt lat="41.769933" lon="2.912647">
        <ele>356.0</ele>
        <time>2021-08-14T15:54:06Z</time>
      </trkpt>
      <trkpt lat="41.769847" lon="2.912585">
        <ele>355.0</ele>
        <time>2021-08-14T15:54:08Z</time>
      </trkpt>
      <trkpt lat="41.769755" lon="2.91252">
        <ele>353.0</ele>
        <time>2021-08-14T15:54:10Z</time>
      </trkpt>
      <trkpt lat="41.769645" lon="2.912465">
        <ele>352.0</ele>
        <time>2021-08-14T15:54:12Z</time>
      </trkpt>
      <trkpt lat="41.769542" lon="2.912452">
        <ele>352.0</ele>
        <time>2021-08-14T15:54:14Z</time>
      </trkpt>
      <trkpt lat="41.769465" lon="2.912465">
        <ele>352.0</ele>
        <time>2021-08-14T15:54:16Z</time>
      </trkpt>
      <trkpt lat="41.769392" lon="2.912515">
        <ele>352.0</ele>
        <time>2021-08-14T15:54:18Z</time>
      </trkpt>
      <trkpt lat="41.76929" lon="2.912585">
        <ele>352.0</ele>
        <time>2021-08-14T15:54:20Z</time>
      </trkpt>
      <trkpt lat="41.769195" lon="2.912648">
        <ele>350.0</ele>
        <time>2021-08-14T15:54:22Z</time>
      </trkpt>
      <trkpt lat="41.76913" lon="2.912735">
        <ele>349.0</ele>
        <time>2021-08-14T15:54:24Z</time>
      </trkpt>
      <trkpt lat="41.769105" lon="2.91289">
        <ele>348.0</ele>
        <time>2021-08-14T15:54:26Z</time>
      </trkpt>
      <trkpt lat="41.769105" lon="2.913058">
        <ele>347.0</ele>
        <time>2021-08-14T15:54:28Z</time>
      </trkpt>
      <trkpt lat="41.76911" lon="2.91322">
        <ele>346.0</ele>
        <time>2021-08-14T15:54:30Z</time>
      </trkpt>
      <trkpt lat="41.76912" lon="2.913338">
        <ele>346.0</ele>
        <time>2021-08-14T15:54:32Z</time>
      </trkpt>
      <trkpt lat="41.76914" lon="2.91347">
        <ele>345.0</ele>
        <time>2021-08-14T15:54:34Z</time>
      </trkpt>
      <trkpt lat="41.76912" lon="2.913602">
        <ele>344.0</ele>
        <time>2021-08-14T15:54:36Z</time>
      </trkpt>
      <trkpt lat="41.769075" lon="2.913685">
        <ele>343.0</ele>
        <time>2021-08-14T15:54:38Z</time>
      </trkpt>
      <trkpt lat="41.76898" lon="2.913687">
        <ele>342.0</ele>
        <time>2021-08-14T15:54:41Z</time>
      </trkpt>
      <trkpt lat="41.768875" lon="2.913635">
        <ele>341.0</ele>
        <time>2021-08-14T15:54:44Z</time>
      </trkpt>
      <trkpt lat="41.7688" lon="2.91358">
        <ele>340.0</ele>
        <time>2021-08-14T15:54:46Z</time>
      </trkpt>
      <trkpt lat="41.76873" lon="2.913525">
        <ele>339.0</ele>
        <time>2021-08-14T15:54:48Z</time>
      </trkpt>
      <trkpt lat="41.768653" lon="2.913448">
        <ele>338.0</ele>
        <time>2021-08-14T15:54:50Z</time>
      </trkpt>
      <trkpt lat="41.768565" lon="2.913405">
        <ele>338.0</ele>
        <time>2021-08-14T15:54:52Z</time>
      </trkpt>
      <trkpt lat="41.76845" lon="2.913407">
        <ele>337.0</ele>
        <time>2021-08-14T15:54:54Z</time>
      </trkpt>
      <trkpt lat="41.768335" lon="2.91344">
        <ele>336.0</ele>
        <time>2021-08-14T15:54:56Z</time>
      </trkpt>
      <trkpt lat="41.768237" lon="2.913415">
        <ele>335.0</ele>
        <time>2021-08-14T15:54:58Z</time>
      </trkpt>
      <trkpt lat="41.768165" lon="2.91333">
        <ele>334.0</ele>
        <time>2021-08-14T15:55:00Z</time>
      </trkpt>
      <trkpt lat="41.768082" lon="2.913252">
        <ele>334.0</ele>
        <time>2021-08-14T15:55:02Z</time>
      </trkpt>
      <trkpt lat="41.767982" lon="2.913202">
        <ele>334.0</ele>
        <time>2021-08-14T15:55:04Z</time>
      </trkpt>
      <trkpt lat="41.76786" lon="2.913205">
        <ele>333.0</ele>
        <time>2021-08-14T15:55:06Z</time>
      </trkpt>
      <trkpt lat="41.76775" lon="2.913235">
        <ele>332.0</ele>
        <time>2021-08-14T15:55:08Z</time>
      </trkpt>
      <trkpt lat="41.76765" lon="2.91325">
        <ele>332.0</ele>
        <time>2021-08-14T15:55:10Z</time>
      </trkpt>
      <trkpt lat="41.767562" lon="2.913237">
        <ele>333.0</ele>
        <time>2021-08-14T15:55:12Z</time>
      </trkpt>
      <trkpt lat="41.76747" lon="2.913235">
        <ele>332.0</ele>
        <time>2021-08-14T15:55:14Z</time>
      </trkpt>
      <trkpt lat="41.76738" lon="2.91322">
        <ele>331.0</ele>
        <time>2021-08-14T15:55:16Z</time>
      </trkpt>
      <trkpt lat="41.767305" lon="2.913205">
        <ele>331.0</ele>
        <time>2021-08-14T15:55:18Z</time>
      </trkpt>
      <trkpt lat="41.76722" lon="2.913187">
        <ele>331.0</ele>
        <time>2021-08-14T15:55:21Z</time>
      </trkpt>
      <trkpt lat="41.767137" lon="2.913167">
        <ele>330.0</ele>
        <time>2021-08-14T15:55:23Z</time>
      </trkpt>
      <trkpt lat="41.767055" lon="2.91314">
        <ele>329.0</ele>
        <time>2021-08-14T15:55:25Z</time>
      </trkpt>
      <trkpt lat="41.766977" lon="2.91311">
        <ele>328.0</ele>
        <time>2021-08-14T15:55:27Z</time>
      </trkpt>
      <trkpt lat="41.7669" lon="2.91308">
        <ele>327.0</ele>
        <time>2021-08-14T15:55:29Z</time>
      </trkpt>
      <trkpt lat="41.766815" lon="2.913027">
        <ele>325.0</ele>
        <time>2021-08-14T15:55:31Z</time>
      </trkpt>
      <trkpt lat="41.766745" lon="2.91296">
        <ele>324.0</ele>
        <time>2021-08-14T15:55:33Z</time>
      </trkpt>
      <trkpt lat="41.766675" lon="2.9129">
        <ele>323.0</ele>
        <time>2021-08-14T15:55:35Z</time>
      </trkpt>
      <trkpt lat="41.76658" lon="2.912918">
        <ele>322.0</ele>
        <time>2021-08-14T15:55:37Z</time>
      </trkpt>
      <trkpt lat="41.766492" lon="2.912995">
        <ele>321.0</ele>
        <time>2021-08-14T15:55:39Z</time>
      </trkpt>
      <trkpt lat="41.766412" lon="2.913105">
        <ele>320.0</ele>
        <time>2021-08-14T15:55:41Z</time>
      </trkpt>
      <trkpt lat="41.766342" lon="2.913235">
        <ele>319.0</ele>
        <time>2021-08-14T15:55:43Z</time>
      </trkpt>
      <trkpt lat="41.76628" lon="2.913387">
        <ele>317.0</ele>
        <time>2021-08-14T15:55:45Z</time>
      </trkpt>
      <trkpt lat="41.76621" lon="2.913528">
        <ele>316.0</ele>
        <time>2021-08-14T15:55:47Z</time>
      </trkpt>
      <trkpt lat="41.766145" lon="2.913715">
        <ele>314.0</ele>
        <time>2021-08-14T15:55:49Z</time>
      </trkpt>
      <trkpt lat="41.76611" lon="2.91381">
        <ele>313.0</ele>
        <time>2021-08-14T15:55:50Z</time>
      </trkpt>
      <trkpt lat="41.766085" lon="2.913905">
        <ele>312.0</ele>
        <time>2021-08-14T15:55:51Z</time>
      </trkpt>
      <trkpt lat="41.766067" lon="2.914">
        <ele>312.0</ele>
        <time>2021-08-14T15:55:52Z</time>
      </trkpt>
      <trkpt lat="41.76605" lon="2.91419">
        <ele>311.0</ele>
        <time>2021-08-14T15:55:54Z</time>
      </trkpt>
      <trkpt lat="41.766067" lon="2.914382">
        <ele>310.0</ele>
        <time>2021-08-14T15:55:56Z</time>
      </trkpt>
      <trkpt lat="41.7661" lon="2.914555">
        <ele>309.0</ele>
        <time>2021-08-14T15:55:58Z</time>
      </trkpt>
      <trkpt lat="41.766147" lon="2.914713">
        <ele>309.0</ele>
        <time>2021-08-14T15:56:00Z</time>
      </trkpt>
      <trkpt lat="41.766182" lon="2.91483">
        <ele>308.0</ele>
        <time>2021-08-14T15:56:02Z</time>
      </trkpt>
      <trkpt lat="41.76621" lon="2.914955">
        <ele>307.0</ele>
        <time>2021-08-14T15:56:04Z</time>
      </trkpt>
      <trkpt lat="41.76621" lon="2.915082">
        <ele>307.0</ele>
        <time>2021-08-14T15:56:06Z</time>
      </trkpt>
      <trkpt lat="41.766175" lon="2.91521">
        <ele>306.0</ele>
        <time>2021-08-14T15:56:08Z</time>
      </trkpt>
      <trkpt lat="41.766148" lon="2.915345">
        <ele>305.0</ele>
        <time>2021-08-14T15:56:10Z</time>
      </trkpt>
      <trkpt lat="41.766165" lon="2.91549">
        <ele>305.0</ele>
        <time>2021-08-14T15:56:12Z</time>
      </trkpt>
      <trkpt lat="41.76623" lon="2.915625">
        <ele>303.0</ele>
        <time>2021-08-14T15:56:14Z</time>
      </trkpt>
      <trkpt lat="41.766282" lon="2.915768">
        <ele>303.0</ele>
        <time>2021-08-14T15:56:16Z</time>
      </trkpt>
      <trkpt lat="41.76631" lon="2.91593">
        <ele>302.0</ele>
        <time>2021-08-14T15:56:18Z</time>
      </trkpt>
      <trkpt lat="41.76632" lon="2.916105">
        <ele>303.0</ele>
        <time>2021-08-14T15:56:20Z</time>
      </trkpt>
      <trkpt lat="41.766357" lon="2.91627">
        <ele>302.0</ele>
        <time>2021-08-14T15:56:22Z</time>
      </trkpt>
      <trkpt lat="41.766385" lon="2.91645">
        <ele>301.0</ele>
        <time>2021-08-14T15:56:24Z</time>
      </trkpt>
      <trkpt lat="41.766425" lon="2.916627">
        <ele>300.0</ele>
        <time>2021-08-14T15:56:26Z</time>
      </trkpt>
      <trkpt lat="41.766467" lon="2.91679">
        <ele>299.0</ele>
        <time>2021-08-14T15:56:28Z</time>
      </trkpt>
      <trkpt lat="41.766485" lon="2.916942">
        <ele>298.0</ele>
        <time>2021-08-14T15:56:30Z</time>
      </trkpt>
      <trkpt lat="41.76647" lon="2.91709">
        <ele>298.0</ele>
        <time>2021-08-14T15:56:32Z</time>
      </trkpt>
      <trkpt lat="41.766443" lon="2.91724">
        <ele>298.0</ele>
        <time>2021-08-14T15:56:34Z</time>
      </trkpt>
      <trkpt lat="41.76642" lon="2.917365">
        <ele>297.0</ele>
        <time>2021-08-14T15:56:36Z</time>
      </trkpt>
      <trkpt lat="41.76639" lon="2.917478">
        <ele>297.0</ele>
        <time>2021-08-14T15:56:39Z</time>
      </trkpt>
      <trkpt lat="41.766325" lon="2.917525">
        <ele>297.0</ele>
        <time>2021-08-14T15:56:42Z</time>
      </trkpt>
      <trkpt lat="41.76624" lon="2.917482">
        <ele>296.0</ele>
        <time>2021-08-14T15:56:46Z</time>
      </trkpt>
      <trkpt lat="41.76623" lon="2.91737">
        <ele>297.0</ele>
        <time>2021-08-14T15:56:50Z</time>
      </trkpt>
      <trkpt lat="41.76624" lon="2.91727">
        <ele>297.0</ele>
        <time>2021-08-14T15:56:53Z</time>
      </trkpt>
      <trkpt lat="41.766245" lon="2.917155">
        <ele>297.0</ele>
        <time>2021-08-14T15:56:56Z</time>
      </trkpt>
      <trkpt lat="41.76625" lon="2.91705">
        <ele>298.0</ele>
        <time>2021-08-14T15:56:59Z</time>
      </trkpt>
      <trkpt lat="41.766265" lon="2.916927">
        <ele>298.0</ele>
        <time>2021-08-14T15:57:02Z</time>
      </trkpt>
      <trkpt lat="41.766255" lon="2.916817">
        <ele>298.0</ele>
        <time>2021-08-14T15:57:05Z</time>
      </trkpt>
      <trkpt lat="41.766222" lon="2.9167">
        <ele>299.0</ele>
        <time>2021-08-14T15:57:09Z</time>
      </trkpt>
      <trkpt lat="41.76617" lon="2.91661">
        <ele>299.0</ele>
        <time>2021-08-14T15:57:12Z</time>
      </trkpt>
      <trkpt lat="41.766125" lon="2.91653">
        <ele>299.0</ele>
        <time>2021-08-14T15:57:15Z</time>
      </trkpt>
      <trkpt lat="41.766115" lon="2.91641">
        <ele>299.0</ele>
        <time>2021-08-14T15:57:18Z</time>
      </trkpt>
      <trkpt lat="41.76609" lon="2.916292">
        <ele>299.0</ele>
        <time>2021-08-14T15:57:21Z</time>
      </trkpt>
      <trkpt lat="41.76605" lon="2.916165">
        <ele>299.0</ele>
        <time>2021-08-14T15:57:24Z</time>
      </trkpt>
      <trkpt lat="41.766005" lon="2.916048">
        <ele>298.0</ele>
        <time>2021-08-14T15:57:27Z</time>
      </trkpt>
      <trkpt lat="41.765945" lon="2.915952">
        <ele>298.0</ele>
        <time>2021-08-14T15:57:30Z</time>
      </trkpt>
      <trkpt lat="41.765882" lon="2.915847">
        <ele>299.0</ele>
        <time>2021-08-14T15:57:33Z</time>
      </trkpt>
      <trkpt lat="41.76582" lon="2.91575">
        <ele>298.0</ele>
        <time>2021-08-14T15:57:36Z</time>
      </trkpt>
      <trkpt lat="41.765767" lon="2.915668">
        <ele>298.0</ele>
        <time>2021-08-14T15:57:38Z</time>
      </trkpt>
      <trkpt lat="41.76571" lon="2.915602">
        <ele>298.0</ele>
        <time>2021-08-14T15:57:40Z</time>
      </trkpt>
      <trkpt lat="41.765645" lon="2.915498">
        <ele>299.0</ele>
        <time>2021-08-14T15:57:43Z</time>
      </trkpt>
      <trkpt lat="41.765595" lon="2.915427">
        <ele>298.0</ele>
        <time>2021-08-14T15:57:45Z</time>
      </trkpt>
      <trkpt lat="41.765528" lon="2.915335">
        <ele>298.0</ele>
        <time>2021-08-14T15:57:47Z</time>
      </trkpt>
      <trkpt lat="41.765453" lon="2.915245">
        <ele>297.0</ele>
        <time>2021-08-14T15:57:49Z</time>
      </trkpt>
      <trkpt lat="41.765392" lon="2.91517">
        <ele>297.0</ele>
        <time>2021-08-14T15:57:51Z</time>
      </trkpt>
      <trkpt lat="41.765355" lon="2.91506">
        <ele>297.0</ele>
        <time>2021-08-14T15:57:53Z</time>
      </trkpt>
      <trkpt lat="41.765365" lon="2.91493">
        <ele>297.0</ele>
        <time>2021-08-14T15:57:55Z</time>
      </trkpt>
      <trkpt lat="41.765385" lon="2.914822">
        <ele>298.0</ele>
        <time>2021-08-14T15:57:57Z</time>
      </trkpt>
      <trkpt lat="41.765372" lon="2.91472">
        <ele>299.0</ele>
        <time>2021-08-14T15:57:59Z</time>
      </trkpt>
      <trkpt lat="41.765345" lon="2.914617">
        <ele>299.0</ele>
        <time>2021-08-14T15:58:02Z</time>
      </trkpt>
      <trkpt lat="41.7653" lon="2.914513">
        <ele>299.0</ele>
        <time>2021-08-14T15:58:06Z</time>
      </trkpt>
      <trkpt lat="41.76523" lon="2.914432">
        <ele>299.0</ele>
        <time>2021-08-14T15:58:10Z</time>
      </trkpt>
      <trkpt lat="41.76514" lon="2.914375">
        <ele>299.0</ele>
        <time>2021-08-14T15:58:13Z</time>
      </trkpt>
      <trkpt lat="41.765073" lon="2.914322">
        <ele>299.0</ele>
        <time>2021-08-14T15:58:16Z</time>
      </trkpt>
      <trkpt lat="41.765075" lon="2.914225">
        <ele>298.0</ele>
        <time>2021-08-14T15:58:23Z</time>
      </trkpt>
      <trkpt lat="41.765125" lon="2.914135">
        <ele>298.0</ele>
        <time>2021-08-14T15:58:30Z</time>
      </trkpt>
      <trkpt lat="41.765135" lon="2.914035">
        <ele>298.0</ele>
        <time>2021-08-14T15:58:35Z</time>
      </trkpt>
      <trkpt lat="41.76513" lon="2.91393">
        <ele>298.0</ele>
        <time>2021-08-14T15:58:40Z</time>
      </trkpt>
      <trkpt lat="41.7651" lon="2.91384">
        <ele>298.0</ele>
        <time>2021-08-14T15:58:46Z</time>
      </trkpt>
      <trkpt lat="41.765085" lon="2.91374">
        <ele>298.0</ele>
        <time>2021-08-14T15:58:52Z</time>
      </trkpt>
      <trkpt lat="41.765055" lon="2.913633">
        <ele>299.0</ele>
        <time>2021-08-14T15:58:58Z</time>
      </trkpt>
      <trkpt lat="41.765007" lon="2.91356">
        <ele>299.0</ele>
        <time>2021-08-14T15:59:03Z</time>
      </trkpt>
      <trkpt lat="41.764945" lon="2.913512">
        <ele>299.0</ele>
        <time>2021-08-14T15:59:10Z</time>
      </trkpt>
      <trkpt lat="41.7649" lon="2.9135">
        <ele>300.0</ele>
        <time>2021-08-14T15:59:17Z</time>
      </trkpt>
      <trkpt lat="41.764805" lon="2.913475">
        <ele>301.0</ele>
        <time>2021-08-14T15:59:24Z</time>
      </trkpt>
      <trkpt lat="41.764735" lon="2.91345">
        <ele>302.0</ele>
        <time>2021-08-14T15:59:31Z</time>
      </trkpt>
      <trkpt lat="41.764655" lon="2.913457">
        <ele>304.0</ele>
        <time>2021-08-14T15:59:38Z</time>
      </trkpt>
      <trkpt lat="41.764575" lon="2.913485">
        <ele>304.0</ele>
        <time>2021-08-14T15:59:43Z</time>
      </trkpt>
      <trkpt lat="41.764505" lon="2.913505">
        <ele>305.0</ele>
        <time>2021-08-14T15:59:48Z</time>
      </trkpt>
      <trkpt lat="41.76442" lon="2.913525">
        <ele>306.0</ele>
        <time>2021-08-14T15:59:54Z</time>
      </trkpt>
      <trkpt lat="41.764357" lon="2.91358">
        <ele>309.0</ele>
        <time>2021-08-14T15:59:59Z</time>
      </trkpt>
      <trkpt lat="41.76428" lon="2.913602">
        <ele>310.0</ele>
        <time>2021-08-14T16:00:04Z</time>
      </trkpt>
      <trkpt lat="41.764205" lon="2.91362">
        <ele>313.0</ele>
        <time>2021-08-14T16:00:10Z</time>
      </trkpt>
      <trkpt lat="41.764125" lon="2.913632">
        <ele>315.0</ele>
        <time>2021-08-14T16:00:16Z</time>
      </trkpt>
      <trkpt lat="41.764055" lon="2.913665">
        <ele>317.0</ele>
        <time>2021-08-14T16:00:21Z</time>
      </trkpt>
      <trkpt lat="41.76398" lon="2.913687">
        <ele>320.0</ele>
        <time>2021-08-14T16:00:26Z</time>
      </trkpt>
      <trkpt lat="41.76389" lon="2.913703">
        <ele>321.0</ele>
        <time>2021-08-14T16:00:33Z</time>
      </trkpt>
      <trkpt lat="41.763815" lon="2.913725">
        <ele>324.0</ele>
        <time>2021-08-14T16:00:39Z</time>
      </trkpt>
      <trkpt lat="41.763745" lon="2.91372">
        <ele>325.0</ele>
        <time>2021-08-14T16:00:46Z</time>
      </trkpt>
      <trkpt lat="41.7637" lon="2.913707">
        <ele>325.0</ele>
        <time>2021-08-14T16:00:53Z</time>
      </trkpt>
      <trkpt lat="41.763655" lon="2.91371">
        <ele>325.0</ele>
        <time>2021-08-14T16:01:00Z</time>
      </trkpt>
      <trkpt lat="41.763577" lon="2.913695">
        <ele>326.0</ele>
        <time>2021-08-14T16:01:07Z</time>
      </trkpt>
      <trkpt lat="41.763502" lon="2.913687">
        <ele>325.0</ele>
        <time>2021-08-14T16:01:13Z</time>
      </trkpt>
      <trkpt lat="41.763427" lon="2.913675">
        <ele>324.0</ele>
        <time>2021-08-14T16:01:18Z</time>
      </trkpt>
      <trkpt lat="41.763345" lon="2.91367">
        <ele>325.0</ele>
        <time>2021-08-14T16:01:24Z</time>
      </trkpt>
      <trkpt lat="41.763295" lon="2.913675">
        <ele>325.0</ele>
        <time>2021-08-14T16:01:31Z</time>
      </trkpt>
      <trkpt lat="41.76322" lon="2.913685">
        <ele>325.0</ele>
        <time>2021-08-14T16:01:38Z</time>
      </trkpt>
      <trkpt lat="41.763145" lon="2.913665">
        <ele>325.0</ele>
        <time>2021-08-14T16:01:44Z</time>
      </trkpt>
      <trkpt lat="41.763065" lon="2.913625">
        <ele>325.0</ele>
        <time>2021-08-14T16:01:49Z</time>
      </trkpt>
      <trkpt lat="41.762985" lon="2.913585">
        <ele>325.0</ele>
        <time>2021-08-14T16:01:54Z</time>
      </trkpt>
      <trkpt lat="41.762925" lon="2.913522">
        <ele>325.0</ele>
        <time>2021-08-14T16:02:00Z</time>
      </trkpt>
      <trkpt lat="41.762855" lon="2.913447">
        <ele>325.0</ele>
        <time>2021-08-14T16:02:06Z</time>
      </trkpt>
      <trkpt lat="41.76279" lon="2.91339">
        <ele>325.0</ele>
        <time>2021-08-14T16:02:12Z</time>
      </trkpt>
      <trkpt lat="41.762767" lon="2.91331">
        <ele>325.0</ele>
        <time>2021-08-14T16:02:19Z</time>
      </trkpt>
      <trkpt lat="41.762785" lon="2.913205">
        <ele>324.0</ele>
        <time>2021-08-14T16:02:25Z</time>
      </trkpt>
      <trkpt lat="41.7628" lon="2.913093">
        <ele>325.0</ele>
        <time>2021-08-14T16:02:31Z</time>
      </trkpt>
      <trkpt lat="41.762822" lon="2.912998">
        <ele>324.0</ele>
        <time>2021-08-14T16:02:36Z</time>
      </trkpt>
      <trkpt lat="41.762852" lon="2.912917">
        <ele>323.0</ele>
        <time>2021-08-14T16:02:43Z</time>
      </trkpt>
      <trkpt lat="41.762807" lon="2.912992">
        <ele>322.0</ele>
        <time>2021-08-14T16:02:50Z</time>
      </trkpt>
      <trkpt lat="41.762782" lon="2.913093">
        <ele>323.0</ele>
        <time>2021-08-14T16:02:54Z</time>
      </trkpt>
      <trkpt lat="41.76275" lon="2.9132">
        <ele>323.0</ele>
        <time>2021-08-14T16:02:57Z</time>
      </trkpt>
      <trkpt lat="41.762695" lon="2.913337">
        <ele>323.0</ele>
        <time>2021-08-14T16:03:00Z</time>
      </trkpt>
      <trkpt lat="41.762622" lon="2.91344">
        <ele>323.0</ele>
        <time>2021-08-14T16:03:02Z</time>
      </trkpt>
      <trkpt lat="41.762565" lon="2.91352">
        <ele>324.0</ele>
        <time>2021-08-14T16:03:04Z</time>
      </trkpt>
      <trkpt lat="41.76252" lon="2.913602">
        <ele>325.0</ele>
        <time>2021-08-14T16:03:09Z</time>
      </trkpt>
      <trkpt lat="41.762485" lon="2.913697">
        <ele>326.0</ele>
        <time>2021-08-14T16:03:14Z</time>
      </trkpt>
      <trkpt lat="41.76245" lon="2.91379">
        <ele>327.0</ele>
        <time>2021-08-14T16:03:19Z</time>
      </trkpt>
      <trkpt lat="41.762415" lon="2.913877">
        <ele>329.0</ele>
        <time>2021-08-14T16:03:24Z</time>
      </trkpt>
      <trkpt lat="41.762415" lon="2.913982">
        <ele>330.0</ele>
        <time>2021-08-14T16:03:29Z</time>
      </trkpt>
      <trkpt lat="41.762405" lon="2.9141">
        <ele>331.0</ele>
        <time>2021-08-14T16:03:34Z</time>
      </trkpt>
      <trkpt lat="41.762395" lon="2.914215">
        <ele>333.0</ele>
        <time>2021-08-14T16:03:39Z</time>
      </trkpt>
      <trkpt lat="41.76237" lon="2.914322">
        <ele>334.0</ele>
        <time>2021-08-14T16:03:44Z</time>
      </trkpt>
      <trkpt lat="41.762335" lon="2.914417">
        <ele>336.0</ele>
        <time>2021-08-14T16:03:49Z</time>
      </trkpt>
      <trkpt lat="41.762295" lon="2.914513">
        <ele>338.0</ele>
        <time>2021-08-14T16:03:56Z</time>
      </trkpt>
      <trkpt lat="41.762245" lon="2.914608">
        <ele>339.0</ele>
        <time>2021-08-14T16:04:02Z</time>
      </trkpt>
      <trkpt lat="41.762185" lon="2.9147">
        <ele>341.0</ele>
        <time>2021-08-14T16:04:08Z</time>
      </trkpt>
      <trkpt lat="41.762135" lon="2.914768">
        <ele>343.0</ele>
        <time>2021-08-14T16:04:13Z</time>
      </trkpt>
      <trkpt lat="41.76207" lon="2.914817">
        <ele>345.0</ele>
        <time>2021-08-14T16:04:17Z</time>
      </trkpt>
      <trkpt lat="41.762" lon="2.91485">
        <ele>346.0</ele>
        <time>2021-08-14T16:04:22Z</time>
      </trkpt>
      <trkpt lat="41.761937" lon="2.914905">
        <ele>348.0</ele>
        <time>2021-08-14T16:04:28Z</time>
      </trkpt>
      <trkpt lat="41.76186" lon="2.914943">
        <ele>350.0</ele>
        <time>2021-08-14T16:04:34Z</time>
      </trkpt>
      <trkpt lat="41.761787" lon="2.914972">
        <ele>351.0</ele>
        <time>2021-08-14T16:04:39Z</time>
      </trkpt>
      <trkpt lat="41.761715" lon="2.915">
        <ele>352.0</ele>
        <time>2021-08-14T16:04:45Z</time>
      </trkpt>
      <trkpt lat="41.761635" lon="2.914982">
        <ele>355.0</ele>
        <time>2021-08-14T16:04:52Z</time>
      </trkpt>
      <trkpt lat="41.76156" lon="2.91497">
        <ele>356.0</ele>
        <time>2021-08-14T16:04:59Z</time>
      </trkpt>
      <trkpt lat="41.76148" lon="2.914995">
        <ele>357.0</ele>
        <time>2021-08-14T16:05:06Z</time>
      </trkpt>
      <trkpt lat="41.761425" lon="2.915055">
        <ele>358.0</ele>
        <time>2021-08-14T16:05:12Z</time>
      </trkpt>
      <trkpt lat="41.761363" lon="2.915123">
        <ele>359.0</ele>
        <time>2021-08-14T16:05:18Z</time>
      </trkpt>
      <trkpt lat="41.76132" lon="2.91521">
        <ele>361.0</ele>
        <time>2021-08-14T16:05:24Z</time>
      </trkpt>
      <trkpt lat="41.761293" lon="2.9153">
        <ele>363.0</ele>
        <time>2021-08-14T16:05:29Z</time>
      </trkpt>
      <trkpt lat="41.76126" lon="2.915393">
        <ele>366.0</ele>
        <time>2021-08-14T16:05:34Z</time>
      </trkpt>
      <trkpt lat="41.761225" lon="2.915495">
        <ele>368.0</ele>
        <time>2021-08-14T16:05:40Z</time>
      </trkpt>
      <trkpt lat="41.761195" lon="2.91559">
        <ele>371.0</ele>
        <time>2021-08-14T16:05:46Z</time>
      </trkpt>
      <trkpt lat="41.76117" lon="2.915695">
        <ele>373.0</ele>
        <time>2021-08-14T16:05:52Z</time>
      </trkpt>
      <trkpt lat="41.76117" lon="2.9158">
        <ele>375.0</ele>
        <time>2021-08-14T16:05:58Z</time>
      </trkpt>
      <trkpt lat="41.761155" lon="2.915888">
        <ele>378.0</ele>
        <time>2021-08-14T16:06:05Z</time>
      </trkpt>
      <trkpt lat="41.761177" lon="2.915972">
        <ele>378.0</ele>
        <time>2021-08-14T16:06:12Z</time>
      </trkpt>
      <trkpt lat="41.76118" lon="2.91607">
        <ele>379.0</ele>
        <time>2021-08-14T16:06:18Z</time>
      </trkpt>
      <trkpt lat="41.761162" lon="2.916175">
        <ele>381.0</ele>
        <time>2021-08-14T16:06:25Z</time>
      </trkpt>
      <trkpt lat="41.761137" lon="2.916255">
        <ele>382.0</ele>
        <time>2021-08-14T16:06:32Z</time>
      </trkpt>
      <trkpt lat="41.76111" lon="2.916355">
        <ele>384.0</ele>
        <time>2021-08-14T16:06:39Z</time>
      </trkpt>
      <trkpt lat="41.761095" lon="2.916457">
        <ele>384.0</ele>
        <time>2021-08-14T16:06:45Z</time>
      </trkpt>
      <trkpt lat="41.761075" lon="2.916555">
        <ele>384.0</ele>
        <time>2021-08-14T16:06:50Z</time>
      </trkpt>
      <trkpt lat="41.761065" lon="2.916665">
        <ele>383.0</ele>
        <time>2021-08-14T16:06:55Z</time>
      </trkpt>
      <trkpt lat="41.761092" lon="2.91677">
        <ele>383.0</ele>
        <time>2021-08-14T16:07:01Z</time>
      </trkpt>
      <trkpt lat="41.761105" lon="2.91688">
        <ele>384.0</ele>
        <time>2021-08-14T16:07:07Z</time>
      </trkpt>
      <trkpt lat="41.76112" lon="2.916985">
        <ele>386.0</ele>
        <time>2021-08-14T16:07:13Z</time>
      </trkpt>
      <trkpt lat="41.761117" lon="2.91709">
        <ele>385.0</ele>
        <time>2021-08-14T16:07:19Z</time>
      </trkpt>
      <trkpt lat="41.761115" lon="2.917198">
        <ele>385.0</ele>
        <time>2021-08-14T16:07:24Z</time>
      </trkpt>
      <trkpt lat="41.76111" lon="2.9173">
        <ele>385.0</ele>
        <time>2021-08-14T16:07:28Z</time>
      </trkpt>
      <trkpt lat="41.76111" lon="2.917423">
        <ele>386.0</ele>
        <time>2021-08-14T16:07:33Z</time>
      </trkpt>
      <trkpt lat="41.76113" lon="2.91754">
        <ele>387.0</ele>
        <time>2021-08-14T16:07:37Z</time>
      </trkpt>
      <trkpt lat="41.761142" lon="2.917637">
        <ele>388.0</ele>
        <time>2021-08-14T16:07:42Z</time>
      </trkpt>
      <trkpt lat="41.761105" lon="2.917742">
        <ele>389.0</ele>
        <time>2021-08-14T16:07:48Z</time>
      </trkpt>
      <trkpt lat="41.761085" lon="2.917847">
        <ele>390.0</ele>
        <time>2021-08-14T16:07:53Z</time>
      </trkpt>
      <trkpt lat="41.761052" lon="2.917945">
        <ele>391.0</ele>
        <time>2021-08-14T16:07:58Z</time>
      </trkpt>
      <trkpt lat="41.76101" lon="2.918022">
        <ele>391.0</ele>
        <time>2021-08-14T16:08:03Z</time>
      </trkpt>
      <trkpt lat="41.76097" lon="2.91812">
        <ele>392.0</ele>
        <time>2021-08-14T16:08:09Z</time>
      </trkpt>
      <trkpt lat="41.760925" lon="2.918222">
        <ele>391.0</ele>
        <time>2021-08-14T16:08:14Z</time>
      </trkpt>
      <trkpt lat="41.76088" lon="2.918317">
        <ele>392.0</ele>
        <time>2021-08-14T16:08:19Z</time>
      </trkpt>
      <trkpt lat="41.760842" lon="2.918408">
        <ele>393.0</ele>
        <time>2021-08-14T16:08:24Z</time>
      </trkpt>
      <trkpt lat="41.760805" lon="2.918492">
        <ele>393.0</ele>
        <time>2021-08-14T16:08:29Z</time>
      </trkpt>
      <trkpt lat="41.760785" lon="2.918602">
        <ele>393.0</ele>
        <time>2021-08-14T16:08:35Z</time>
      </trkpt>
      <trkpt lat="41.760785" lon="2.918718">
        <ele>394.0</ele>
        <time>2021-08-14T16:08:40Z</time>
      </trkpt>
      <trkpt lat="41.76077" lon="2.918825">
        <ele>395.0</ele>
        <time>2021-08-14T16:08:45Z</time>
      </trkpt>
      <trkpt lat="41.760777" lon="2.91892">
        <ele>396.0</ele>
        <time>2021-08-14T16:08:52Z</time>
      </trkpt>
      <trkpt lat="41.760752" lon="2.919007">
        <ele>396.0</ele>
        <time>2021-08-14T16:08:59Z</time>
      </trkpt>
      <trkpt lat="41.760727" lon="2.919105">
        <ele>396.0</ele>
        <time>2021-08-14T16:09:04Z</time>
      </trkpt>
      <trkpt lat="41.760685" lon="2.919207">
        <ele>396.0</ele>
        <time>2021-08-14T16:09:10Z</time>
      </trkpt>
      <trkpt lat="41.760655" lon="2.9193">
        <ele>398.0</ele>
        <time>2021-08-14T16:09:15Z</time>
      </trkpt>
      <trkpt lat="41.76061" lon="2.919375">
        <ele>399.0</ele>
        <time>2021-08-14T16:09:20Z</time>
      </trkpt>
      <trkpt lat="41.760547" lon="2.919465">
        <ele>402.0</ele>
        <time>2021-08-14T16:09:25Z</time>
      </trkpt>
      <trkpt lat="41.760505" lon="2.91956">
        <ele>404.0</ele>
        <time>2021-08-14T16:09:30Z</time>
      </trkpt>
      <trkpt lat="41.76046" lon="2.919652">
        <ele>406.0</ele>
        <time>2021-08-14T16:09:37Z</time>
      </trkpt>
      <trkpt lat="41.76043" lon="2.919745">
        <ele>407.0</ele>
        <time>2021-08-14T16:09:44Z</time>
      </trkpt>
      <trkpt lat="41.76037" lon="2.919817">
        <ele>406.0</ele>
        <time>2021-08-14T16:09:49Z</time>
      </trkpt>
      <trkpt lat="41.760302" lon="2.919855">
        <ele>407.0</ele>
        <time>2021-08-14T16:09:52Z</time>
      </trkpt>
      <trkpt lat="41.760217" lon="2.919887">
        <ele>409.0</ele>
        <time>2021-08-14T16:09:55Z</time>
      </trkpt>
      <trkpt lat="41.760145" lon="2.919932">
        <ele>409.0</ele>
        <time>2021-08-14T16:09:57Z</time>
      </trkpt>
      <trkpt lat="41.760055" lon="2.920015">
        <ele>410.0</ele>
        <time>2021-08-14T16:09:59Z</time>
      </trkpt>
      <trkpt lat="41.759985" lon="2.92011">
        <ele>411.0</ele>
        <time>2021-08-14T16:10:01Z</time>
      </trkpt>
      <trkpt lat="41.75994" lon="2.92019">
        <ele>412.0</ele>
        <time>2021-08-14T16:10:03Z</time>
      </trkpt>
      <trkpt lat="41.759897" lon="2.920263">
        <ele>411.0</ele>
        <time>2021-08-14T16:10:05Z</time>
      </trkpt>
      <trkpt lat="41.75982" lon="2.920347">
        <ele>411.0</ele>
        <time>2021-08-14T16:10:08Z</time>
      </trkpt>
      <trkpt lat="41.75975" lon="2.9204">
        <ele>411.0</ele>
        <time>2021-08-14T16:10:11Z</time>
      </trkpt>
      <trkpt lat="41.759675" lon="2.920405">
        <ele>411.0</ele>
        <time>2021-08-14T16:10:14Z</time>
      </trkpt>
      <trkpt lat="41.759615" lon="2.920332">
        <ele>411.0</ele>
        <time>2021-08-14T16:10:19Z</time>
      </trkpt>
      <trkpt lat="41.759595" lon="2.920215">
        <ele>411.0</ele>
        <time>2021-08-14T16:10:24Z</time>
      </trkpt>
      <trkpt lat="41.75957" lon="2.92012">
        <ele>412.0</ele>
        <time>2021-08-14T16:10:29Z</time>
      </trkpt>
      <trkpt lat="41.759515" lon="2.920015">
        <ele>411.0</ele>
        <time>2021-08-14T16:10:33Z</time>
      </trkpt>
      <trkpt lat="41.75947" lon="2.91993">
        <ele>412.0</ele>
        <time>2021-08-14T16:10:36Z</time>
      </trkpt>
      <trkpt lat="41.75946" lon="2.919828">
        <ele>412.0</ele>
        <time>2021-08-14T16:10:39Z</time>
      </trkpt>
      <trkpt lat="41.759425" lon="2.91974">
        <ele>413.0</ele>
        <time>2021-08-14T16:10:43Z</time>
      </trkpt>
      <trkpt lat="41.759402" lon="2.919632">
        <ele>413.0</ele>
        <time>2021-08-14T16:10:48Z</time>
      </trkpt>
      <trkpt lat="41.759357" lon="2.919533">
        <ele>413.0</ele>
        <time>2021-08-14T16:10:52Z</time>
      </trkpt>
      <trkpt lat="41.759318" lon="2.919432">
        <ele>412.0</ele>
        <time>2021-08-14T16:10:56Z</time>
      </trkpt>
      <trkpt lat="41.75926" lon="2.91934">
        <ele>413.0</ele>
        <time>2021-08-14T16:11:01Z</time>
      </trkpt>
      <trkpt lat="41.75919" lon="2.919257">
        <ele>413.0</ele>
        <time>2021-08-14T16:11:06Z</time>
      </trkpt>
      <trkpt lat="41.759125" lon="2.919175">
        <ele>412.0</ele>
        <time>2021-08-14T16:11:10Z</time>
      </trkpt>
      <trkpt lat="41.75907" lon="2.919095">
        <ele>412.0</ele>
        <time>2021-08-14T16:11:14Z</time>
      </trkpt>
      <trkpt lat="41.759013" lon="2.919">
        <ele>412.0</ele>
        <time>2021-08-14T16:11:18Z</time>
      </trkpt>
      <trkpt lat="41.758955" lon="2.918935">
        <ele>411.0</ele>
        <time>2021-08-14T16:11:22Z</time>
      </trkpt>
      <trkpt lat="41.75895" lon="2.918925">
        <ele>411.0</ele>
        <time>2021-08-14T16:11:29Z</time>
      </trkpt>
      <trkpt lat="41.758977" lon="2.918945">
        <ele>415.0</ele>
        <time>2021-08-14T16:11:36Z</time>
      </trkpt>
      <trkpt lat="41.758965" lon="2.918965">
        <ele>417.0</ele>
        <time>2021-08-14T16:11:43Z</time>
      </trkpt>
      <trkpt lat="41.758965" lon="2.918965">
        <ele>417.0</ele>
        <time>2021-08-14T16:11:49Z</time>
      </trkpt>
      <trkpt lat="41.758937" lon="2.918865">
        <ele>417.0</ele>
        <time>2021-08-14T16:11:54Z</time>
      </trkpt>
      <trkpt lat="41.758895" lon="2.918782">
        <ele>417.0</ele>
        <time>2021-08-14T16:11:58Z</time>
      </trkpt>
      <trkpt lat="41.758845" lon="2.91868">
        <ele>416.0</ele>
        <time>2021-08-14T16:12:02Z</time>
      </trkpt>
      <trkpt lat="41.758787" lon="2.918615">
        <ele>416.0</ele>
        <time>2021-08-14T16:12:06Z</time>
      </trkpt>
      <trkpt lat="41.758735" lon="2.918547">
        <ele>415.0</ele>
        <time>2021-08-14T16:12:10Z</time>
      </trkpt>
      <trkpt lat="41.75871" lon="2.91851">
        <ele>415.0</ele>
        <time>2021-08-14T16:12:17Z</time>
      </trkpt>
      <trkpt lat="41.75871" lon="2.91851">
        <ele>415.0</ele>
        <time>2021-08-14T16:12:19Z</time>
      </trkpt>
      <trkpt lat="41.75869" lon="2.918475">
        <ele>415.0</ele>
        <time>2021-08-14T16:12:33Z</time>
      </trkpt>
      <trkpt lat="41.75869" lon="2.918475">
        <ele>415.0</ele>
        <time>2021-08-14T16:12:34Z</time>
      </trkpt>
      <trkpt lat="41.75866" lon="2.91847">
        <ele>412.0</ele>
        <time>2021-08-14T16:12:41Z</time>
      </trkpt>
      <trkpt lat="41.758647" lon="2.91843">
        <ele>416.0</ele>
        <time>2021-08-14T16:12:48Z</time>
      </trkpt>
      <trkpt lat="41.758595" lon="2.918355">
        <ele>416.0</ele>
        <time>2021-08-14T16:12:53Z</time>
      </trkpt>
      <trkpt lat="41.758535" lon="2.918292">
        <ele>416.0</ele>
        <time>2021-08-14T16:12:58Z</time>
      </trkpt>
      <trkpt lat="41.758465" lon="2.91826">
        <ele>415.0</ele>
        <time>2021-08-14T16:13:02Z</time>
      </trkpt>
      <trkpt lat="41.758392" lon="2.918255">
        <ele>417.0</ele>
        <time>2021-08-14T16:13:09Z</time>
      </trkpt>
      <trkpt lat="41.758322" lon="2.91829">
        <ele>419.0</ele>
        <time>2021-08-14T16:13:13Z</time>
      </trkpt>
      <trkpt lat="41.75824" lon="2.91832">
        <ele>421.0</ele>
        <time>2021-08-14T16:13:17Z</time>
      </trkpt>
      <trkpt lat="41.75816" lon="2.918355">
        <ele>422.0</ele>
        <time>2021-08-14T16:13:21Z</time>
      </trkpt>
      <trkpt lat="41.758085" lon="2.918368">
        <ele>423.0</ele>
        <time>2021-08-14T16:13:24Z</time>
      </trkpt>
      <trkpt lat="41.758007" lon="2.918387">
        <ele>423.0</ele>
        <time>2021-08-14T16:13:27Z</time>
      </trkpt>
      <trkpt lat="41.75792" lon="2.918405">
        <ele>423.0</ele>
        <time>2021-08-14T16:13:30Z</time>
      </trkpt>
      <trkpt lat="41.75784" lon="2.91843">
        <ele>424.0</ele>
        <time>2021-08-14T16:13:34Z</time>
      </trkpt>
      <trkpt lat="41.75777" lon="2.91847">
        <ele>423.0</ele>
        <time>2021-08-14T16:13:37Z</time>
      </trkpt>
      <trkpt lat="41.757685" lon="2.918505">
        <ele>424.0</ele>
        <time>2021-08-14T16:13:40Z</time>
      </trkpt>
      <trkpt lat="41.75761" lon="2.918585">
        <ele>425.0</ele>
        <time>2021-08-14T16:13:43Z</time>
      </trkpt>
      <trkpt lat="41.757555" lon="2.918675">
        <ele>425.0</ele>
        <time>2021-08-14T16:13:46Z</time>
      </trkpt>
      <trkpt lat="41.75751" lon="2.918765">
        <ele>426.0</ele>
        <time>2021-08-14T16:13:50Z</time>
      </trkpt>
      <trkpt lat="41.757475" lon="2.918872">
        <ele>427.0</ele>
        <time>2021-08-14T16:13:56Z</time>
      </trkpt>
      <trkpt lat="41.75742" lon="2.918957">
        <ele>427.0</ele>
        <time>2021-08-14T16:14:00Z</time>
      </trkpt>
      <trkpt lat="41.75737" lon="2.919055">
        <ele>426.0</ele>
        <time>2021-08-14T16:14:04Z</time>
      </trkpt>
      <trkpt lat="41.757305" lon="2.91912">
        <ele>426.0</ele>
        <time>2021-08-14T16:14:08Z</time>
      </trkpt>
      <trkpt lat="41.75724" lon="2.919175">
        <ele>426.0</ele>
        <time>2021-08-14T16:14:12Z</time>
      </trkpt>
      <trkpt lat="41.757192" lon="2.919253">
        <ele>426.0</ele>
        <time>2021-08-14T16:14:16Z</time>
      </trkpt>
      <trkpt lat="41.75714" lon="2.91934">
        <ele>427.0</ele>
        <time>2021-08-14T16:14:21Z</time>
      </trkpt>
      <trkpt lat="41.757082" lon="2.919405">
        <ele>427.0</ele>
        <time>2021-08-14T16:14:26Z</time>
      </trkpt>
      <trkpt lat="41.757005" lon="2.919447">
        <ele>429.0</ele>
        <time>2021-08-14T16:14:33Z</time>
      </trkpt>
      <trkpt lat="41.756945" lon="2.919383">
        <ele>429.0</ele>
        <time>2021-08-14T16:14:38Z</time>
      </trkpt>
      <trkpt lat="41.75696" lon="2.919435">
        <ele>430.0</ele>
        <time>2021-08-14T16:14:45Z</time>
      </trkpt>
      <trkpt lat="41.757" lon="2.919522">
        <ele>429.0</ele>
        <time>2021-08-14T16:14:49Z</time>
      </trkpt>
      <trkpt lat="41.75702" lon="2.919617">
        <ele>430.0</ele>
        <time>2021-08-14T16:14:53Z</time>
      </trkpt>
      <trkpt lat="41.757015" lon="2.91972">
        <ele>433.0</ele>
        <time>2021-08-14T16:14:57Z</time>
      </trkpt>
      <trkpt lat="41.757015" lon="2.91984">
        <ele>435.0</ele>
        <time>2021-08-14T16:15:03Z</time>
      </trkpt>
      <trkpt lat="41.757015" lon="2.919945">
        <ele>435.0</ele>
        <time>2021-08-14T16:15:08Z</time>
      </trkpt>
      <trkpt lat="41.757025" lon="2.92005">
        <ele>436.0</ele>
        <time>2021-08-14T16:15:13Z</time>
      </trkpt>
      <trkpt lat="41.757025" lon="2.920162">
        <ele>436.0</ele>
        <time>2021-08-14T16:15:18Z</time>
      </trkpt>
      <trkpt lat="41.757043" lon="2.92027">
        <ele>437.0</ele>
        <time>2021-08-14T16:15:23Z</time>
      </trkpt>
      <trkpt lat="41.757085" lon="2.920355">
        <ele>436.0</ele>
        <time>2021-08-14T16:15:28Z</time>
      </trkpt>
      <trkpt lat="41.757128" lon="2.920445">
        <ele>437.0</ele>
        <time>2021-08-14T16:15:34Z</time>
      </trkpt>
      <trkpt lat="41.757195" lon="2.920515">
        <ele>438.0</ele>
        <time>2021-08-14T16:15:40Z</time>
      </trkpt>
      <trkpt lat="41.757265" lon="2.920575">
        <ele>438.0</ele>
        <time>2021-08-14T16:15:46Z</time>
      </trkpt>
      <trkpt lat="41.757325" lon="2.92063">
        <ele>438.0</ele>
        <time>2021-08-14T16:15:52Z</time>
      </trkpt>
      <trkpt lat="41.757365" lon="2.920715">
        <ele>438.0</ele>
        <time>2021-08-14T16:15:58Z</time>
      </trkpt>
      <trkpt lat="41.757405" lon="2.92079">
        <ele>439.0</ele>
        <time>2021-08-14T16:16:05Z</time>
      </trkpt>
      <trkpt lat="41.757422" lon="2.920897">
        <ele>441.0</ele>
        <time>2021-08-14T16:16:11Z</time>
      </trkpt>
      <trkpt lat="41.75742" lon="2.920995">
        <ele>443.0</ele>
        <time>2021-08-14T16:16:16Z</time>
      </trkpt>
      <trkpt lat="41.757442" lon="2.921095">
        <ele>445.0</ele>
        <time>2021-08-14T16:16:23Z</time>
      </trkpt>
      <trkpt lat="41.75748" lon="2.921175">
        <ele>446.0</ele>
        <time>2021-08-14T16:16:30Z</time>
      </trkpt>
      <trkpt lat="41.75752" lon="2.921277">
        <ele>446.0</ele>
        <time>2021-08-14T16:16:36Z</time>
      </trkpt>
      <trkpt lat="41.757577" lon="2.921345">
        <ele>446.0</ele>
        <time>2021-08-14T16:16:42Z</time>
      </trkpt>
      <trkpt lat="41.757645" lon="2.921395">
        <ele>447.0</ele>
        <time>2021-08-14T16:16:49Z</time>
      </trkpt>
      <trkpt lat="41.757705" lon="2.921425">
        <ele>450.0</ele>
        <time>2021-08-14T16:16:56Z</time>
      </trkpt>
      <trkpt lat="41.757765" lon="2.92144">
        <ele>449.0</ele>
        <time>2021-08-14T16:17:03Z</time>
      </trkpt>
      <trkpt lat="41.757775" lon="2.92147">
        <ele>449.0</ele>
        <time>2021-08-14T16:17:10Z</time>
      </trkpt>
      <trkpt lat="41.757775" lon="2.92147">
        <ele>449.0</ele>
        <time>2021-08-14T16:17:12Z</time>
      </trkpt>
      <trkpt lat="41.75777" lon="2.921475">
        <ele>451.0</ele>
        <time>2021-08-14T16:17:22Z</time>
      </trkpt>
      <trkpt lat="41.757775" lon="2.92148">
        <ele>453.0</ele>
        <time>2021-08-14T16:17:29Z</time>
      </trkpt>
      <trkpt lat="41.7578" lon="2.92156">
        <ele>454.0</ele>
        <time>2021-08-14T16:17:36Z</time>
      </trkpt>
      <trkpt lat="41.757815" lon="2.921575">
        <ele>454.0</ele>
        <time>2021-08-14T16:17:43Z</time>
      </trkpt>
      <trkpt lat="41.757815" lon="2.921575">
        <ele>454.0</ele>
        <time>2021-08-14T16:17:45Z</time>
      </trkpt>
      <trkpt lat="41.757765" lon="2.92154">
        <ele>457.0</ele>
        <time>2021-08-14T16:17:54Z</time>
      </trkpt>
      <trkpt lat="41.757765" lon="2.921475">
        <ele>459.0</ele>
        <time>2021-08-14T16:18:01Z</time>
      </trkpt>
      <trkpt lat="41.75777" lon="2.921465">
        <ele>458.0</ele>
        <time>2021-08-14T16:18:07Z</time>
      </trkpt>
      <trkpt lat="41.75778" lon="2.921465">
        <ele>460.0</ele>
        <time>2021-08-14T16:18:23Z</time>
      </trkpt>
      <trkpt lat="41.75778" lon="2.921465">
        <ele>460.0</ele>
        <time>2021-08-14T16:18:24Z</time>
      </trkpt>
      <trkpt lat="41.757795" lon="2.921445">
        <ele>462.0</ele>
        <time>2021-08-14T16:18:33Z</time>
      </trkpt>
      <trkpt lat="41.75781" lon="2.921435">
        <ele>463.0</ele>
        <time>2021-08-14T16:18:40Z</time>
      </trkpt>
      <trkpt lat="41.75781" lon="2.921435">
        <ele>463.0</ele>
        <time>2021-08-14T16:18:41Z</time>
      </trkpt>
      <trkpt lat="41.7578" lon="2.921457">
        <ele>463.0</ele>
        <time>2021-08-14T16:19:09Z</time>
      </trkpt>
      <trkpt lat="41.757802" lon="2.921465">
        <ele>464.0</ele>
        <time>2021-08-14T16:19:16Z</time>
      </trkpt>
      <trkpt lat="41.757795" lon="2.92147">
        <ele>463.0</ele>
        <time>2021-08-14T16:19:23Z</time>
      </trkpt>
      <trkpt lat="41.757795" lon="2.921465">
        <ele>463.0</ele>
        <time>2021-08-14T16:19:29Z</time>
      </trkpt>
      <trkpt lat="41.75779" lon="2.921455">
        <ele>464.0</ele>
        <time>2021-08-14T16:19:37Z</time>
      </trkpt>
      <trkpt lat="41.75779" lon="2.921455">
        <ele>464.0</ele>
        <time>2021-08-14T16:19:38Z</time>
      </trkpt>
      <trkpt lat="41.757775" lon="2.921417">
        <ele>465.0</ele>
        <time>2021-08-14T16:20:54Z</time>
      </trkpt>
      <trkpt lat="41.757775" lon="2.921417">
        <ele>465.0</ele>
        <time>2021-08-14T16:20:55Z</time>
      </trkpt>
      <trkpt lat="41.75776" lon="2.9214">
        <ele>465.0</ele>
        <time>2021-08-14T16:21:06Z</time>
      </trkpt>
      <trkpt lat="41.75776" lon="2.9214">
        <ele>465.0</ele>
        <time>2021-08-14T16:21:07Z</time>
      </trkpt>
      <trkpt lat="41.75773" lon="2.9214">
        <ele>466.0</ele>
        <time>2021-08-14T16:21:17Z</time>
      </trkpt>
      <trkpt lat="41.757715" lon="2.921395">
        <ele>468.0</ele>
        <time>2021-08-14T16:21:24Z</time>
      </trkpt>
      <trkpt lat="41.757705" lon="2.921395">
        <ele>469.0</ele>
        <time>2021-08-14T16:21:31Z</time>
      </trkpt>
      <trkpt lat="41.757705" lon="2.921395">
        <ele>469.0</ele>
        <time>2021-08-14T16:21:33Z</time>
      </trkpt>
      <trkpt lat="41.757687" lon="2.921408">
        <ele>472.0</ele>
        <time>2021-08-14T16:22:19Z</time>
      </trkpt>
      <trkpt lat="41.757685" lon="2.921435">
        <ele>475.0</ele>
        <time>2021-08-14T16:22:26Z</time>
      </trkpt>
      <trkpt lat="41.757685" lon="2.921435">
        <ele>475.0</ele>
        <time>2021-08-14T16:22:30Z</time>
      </trkpt>
      <trkpt lat="41.757705" lon="2.921425">
        <ele>475.0</ele>
        <time>2021-08-14T16:23:09Z</time>
      </trkpt>
      <trkpt lat="41.757705" lon="2.921425">
        <ele>475.0</ele>
        <time>2021-08-14T16:23:10Z</time>
      </trkpt>
      <trkpt lat="41.757695" lon="2.92143">
        <ele>473.0</ele>
        <time>2021-08-14T16:24:45Z</time>
      </trkpt>
      <trkpt lat="41.757695" lon="2.92143">
        <ele>473.0</ele>
        <time>2021-08-14T16:24:46Z</time>
      </trkpt>
      <trkpt lat="41.7577" lon="2.921417">
        <ele>474.0</ele>
        <time>2021-08-14T16:24:54Z</time>
      </trkpt>
      <trkpt lat="41.7577" lon="2.921417">
        <ele>474.0</ele>
        <time>2021-08-14T16:24:55Z</time>
      </trkpt>
      <trkpt lat="41.757702" lon="2.921402">
        <ele>472.0</ele>
        <time>2021-08-14T16:26:20Z</time>
      </trkpt>
      <trkpt lat="41.757702" lon="2.921402">
        <ele>472.0</ele>
        <time>2021-08-14T16:26:21Z</time>
      </trkpt>
      <trkpt lat="41.757715" lon="2.9214">
        <ele>471.0</ele>
        <time>2021-08-14T16:26:30Z</time>
      </trkpt>
      <trkpt lat="41.757715" lon="2.9214">
        <ele>471.0</ele>
        <time>2021-08-14T16:26:31Z</time>
      </trkpt>
      <trkpt lat="41.757728" lon="2.921352">
        <ele>470.0</ele>
        <time>2021-08-14T16:26:50Z</time>
      </trkpt>
      <trkpt lat="41.757728" lon="2.921352">
        <ele>470.0</ele>
        <time>2021-08-14T16:26:53Z</time>
      </trkpt>
      <trkpt lat="41.757732" lon="2.92134">
        <ele>470.0</ele>
        <time>2021-08-14T16:27:11Z</time>
      </trkpt>
      <trkpt lat="41.757732" lon="2.92134">
        <ele>470.0</ele>
        <time>2021-08-14T16:27:12Z</time>
      </trkpt>
      <trkpt lat="41.757727" lon="2.921322">
        <ele>470.0</ele>
        <time>2021-08-14T16:27:31Z</time>
      </trkpt>
      <trkpt lat="41.757727" lon="2.921322">
        <ele>470.0</ele>
        <time>2021-08-14T16:27:32Z</time>
      </trkpt>
      <trkpt lat="41.757717" lon="2.921335">
        <ele>467.0</ele>
        <time>2021-08-14T16:27:54Z</time>
      </trkpt>
      <trkpt lat="41.757717" lon="2.921335">
        <ele>467.0</ele>
        <time>2021-08-14T16:27:55Z</time>
      </trkpt>
      <trkpt lat="41.757705" lon="2.92136">
        <ele>463.0</ele>
        <time>2021-08-14T16:28:05Z</time>
      </trkpt>
      <trkpt lat="41.757705" lon="2.92137">
        <ele>462.0</ele>
        <time>2021-08-14T16:28:12Z</time>
      </trkpt>
      <trkpt lat="41.757715" lon="2.92137">
        <ele>461.0</ele>
        <time>2021-08-14T16:28:36Z</time>
      </trkpt>
      <trkpt lat="41.757715" lon="2.921375">
        <ele>461.0</ele>
        <time>2021-08-14T16:28:37Z</time>
      </trkpt>
      <trkpt lat="41.757747" lon="2.921345">
        <ele>462.0</ele>
        <time>2021-08-14T16:28:46Z</time>
      </trkpt>
      <trkpt lat="41.75776" lon="2.921323">
        <ele>462.0</ele>
        <time>2021-08-14T16:28:53Z</time>
      </trkpt>
      <trkpt lat="41.75776" lon="2.921323">
        <ele>462.0</ele>
        <time>2021-08-14T16:28:57Z</time>
      </trkpt>
      <trkpt lat="41.757745" lon="2.92136">
        <ele>462.0</ele>
        <time>2021-08-14T16:29:30Z</time>
      </trkpt>
      <trkpt lat="41.757745" lon="2.92136">
        <ele>462.0</ele>
        <time>2021-08-14T16:29:33Z</time>
      </trkpt>
      <trkpt lat="41.75773" lon="2.92137">
        <ele>461.0</ele>
        <time>2021-08-14T16:29:46Z</time>
      </trkpt>
      <trkpt lat="41.757732" lon="2.921375">
        <ele>461.0</ele>
        <time>2021-08-14T16:29:52Z</time>
      </trkpt>
      <trkpt lat="41.757727" lon="2.921397">
        <ele>460.0</ele>
        <time>2021-08-14T16:30:39Z</time>
      </trkpt>
      <trkpt lat="41.757727" lon="2.921397">
        <ele>460.0</ele>
        <time>2021-08-14T16:30:40Z</time>
      </trkpt>
      <trkpt lat="41.757712" lon="2.921405">
        <ele>460.0</ele>
        <time>2021-08-14T16:30:48Z</time>
      </trkpt>
      <trkpt lat="41.757712" lon="2.921405">
        <ele>460.0</ele>
        <time>2021-08-14T16:30:49Z</time>
      </trkpt>
      <trkpt lat="41.757715" lon="2.921408">
        <ele>460.0</ele>
        <time>2021-08-14T16:32:26Z</time>
      </trkpt>
      <trkpt lat="41.7577" lon="2.92144">
        <ele>461.0</ele>
        <time>2021-08-14T16:32:33Z</time>
      </trkpt>
      <trkpt lat="41.757705" lon="2.921445">
        <ele>461.0</ele>
        <time>2021-08-14T16:32:40Z</time>
      </trkpt>
      <trkpt lat="41.757705" lon="2.92144">
        <ele>462.0</ele>
        <time>2021-08-14T16:32:47Z</time>
      </trkpt>
      <trkpt lat="41.75771" lon="2.921417">
        <ele>462.0</ele>
        <time>2021-08-14T16:33:00Z</time>
      </trkpt>
      <trkpt lat="41.75771" lon="2.921417">
        <ele>462.0</ele>
        <time>2021-08-14T16:33:01Z</time>
      </trkpt>
      <trkpt lat="41.7577" lon="2.921405">
        <ele>465.0</ele>
        <time>2021-08-14T16:33:12Z</time>
      </trkpt>
      <trkpt lat="41.7577" lon="2.921405">
        <ele>466.0</ele>
        <time>2021-08-14T16:33:13Z</time>
      </trkpt>
      <trkpt lat="41.75771" lon="2.92143">
        <ele>469.0</ele>
        <time>2021-08-14T16:33:25Z</time>
      </trkpt>
      <trkpt lat="41.757715" lon="2.92143">
        <ele>470.0</ele>
        <time>2021-08-14T16:33:32Z</time>
      </trkpt>
      <trkpt lat="41.75774" lon="2.92144">
        <ele>469.0</ele>
        <time>2021-08-14T16:33:39Z</time>
      </trkpt>
      <trkpt lat="41.757745" lon="2.921435">
        <ele>468.0</ele>
        <time>2021-08-14T16:33:45Z</time>
      </trkpt>
      <trkpt lat="41.757762" lon="2.921372">
        <ele>465.0</ele>
        <time>2021-08-14T16:33:53Z</time>
      </trkpt>
      <trkpt lat="41.75776" lon="2.921458">
        <ele>465.0</ele>
        <time>2021-08-14T16:34:00Z</time>
      </trkpt>
      <trkpt lat="41.757765" lon="2.921527">
        <ele>464.0</ele>
        <time>2021-08-14T16:34:07Z</time>
      </trkpt>
      <trkpt lat="41.757798" lon="2.921605">
        <ele>465.0</ele>
        <time>2021-08-14T16:34:14Z</time>
      </trkpt>
      <trkpt lat="41.75782" lon="2.921645">
        <ele>464.0</ele>
        <time>2021-08-14T16:34:21Z</time>
      </trkpt>
      <trkpt lat="41.757812" lon="2.921637">
        <ele>464.0</ele>
        <time>2021-08-14T16:34:28Z</time>
      </trkpt>
      <trkpt lat="41.75781" lon="2.921598">
        <ele>466.0</ele>
        <time>2021-08-14T16:34:35Z</time>
      </trkpt>
      <trkpt lat="41.75784" lon="2.921565">
        <ele>467.0</ele>
        <time>2021-08-14T16:34:42Z</time>
      </trkpt>
      <trkpt lat="41.757835" lon="2.921542">
        <ele>468.0</ele>
        <time>2021-08-14T16:34:49Z</time>
      </trkpt>
      <trkpt lat="41.757835" lon="2.921542">
        <ele>468.0</ele>
        <time>2021-08-14T16:34:51Z</time>
      </trkpt>
      <trkpt lat="41.75778" lon="2.921555">
        <ele>470.0</ele>
        <time>2021-08-14T16:35:03Z</time>
      </trkpt>
      <trkpt lat="41.757757" lon="2.92157">
        <ele>471.0</ele>
        <time>2021-08-14T16:35:10Z</time>
      </trkpt>
      <trkpt lat="41.75772" lon="2.921597">
        <ele>471.0</ele>
        <time>2021-08-14T16:35:17Z</time>
      </trkpt>
      <trkpt lat="41.757687" lon="2.921687">
        <ele>470.0</ele>
        <time>2021-08-14T16:35:24Z</time>
      </trkpt>
      <trkpt lat="41.75766" lon="2.921715">
        <ele>471.0</ele>
        <time>2021-08-14T16:35:31Z</time>
      </trkpt>
      <trkpt lat="41.757675" lon="2.921715">
        <ele>472.0</ele>
        <time>2021-08-14T16:35:38Z</time>
      </trkpt>
      <trkpt lat="41.757645" lon="2.921703">
        <ele>472.0</ele>
        <time>2021-08-14T16:35:45Z</time>
      </trkpt>
      <trkpt lat="41.757605" lon="2.921798">
        <ele>472.0</ele>
        <time>2021-08-14T16:35:52Z</time>
      </trkpt>
      <trkpt lat="41.757602" lon="2.921905">
        <ele>473.0</ele>
        <time>2021-08-14T16:35:57Z</time>
      </trkpt>
      <trkpt lat="41.7576" lon="2.92201">
        <ele>475.0</ele>
        <time>2021-08-14T16:36:02Z</time>
      </trkpt>
      <trkpt lat="41.757597" lon="2.922115">
        <ele>476.0</ele>
        <time>2021-08-14T16:36:08Z</time>
      </trkpt>
      <trkpt lat="41.757573" lon="2.922192">
        <ele>476.0</ele>
        <time>2021-08-14T16:36:15Z</time>
      </trkpt>
      <trkpt lat="41.757595" lon="2.922212">
        <ele>477.0</ele>
        <time>2021-08-14T16:36:22Z</time>
      </trkpt>
      <trkpt lat="41.757585" lon="2.92218">
        <ele>476.0</ele>
        <time>2021-08-14T16:36:29Z</time>
      </trkpt>
      <trkpt lat="41.757587" lon="2.922195">
        <ele>477.0</ele>
        <time>2021-08-14T16:36:36Z</time>
      </trkpt>
      <trkpt lat="41.7576" lon="2.92227">
        <ele>478.0</ele>
        <time>2021-08-14T16:36:43Z</time>
      </trkpt>
      <trkpt lat="41.757595" lon="2.922365">
        <ele>479.0</ele>
        <time>2021-08-14T16:36:50Z</time>
      </trkpt>
      <trkpt lat="41.757648" lon="2.922433">
        <ele>480.0</ele>
        <time>2021-08-14T16:36:56Z</time>
      </trkpt>
      <trkpt lat="41.757645" lon="2.922535">
        <ele>481.0</ele>
        <time>2021-08-14T16:37:03Z</time>
      </trkpt>
      <trkpt lat="41.75764" lon="2.922635">
        <ele>483.0</ele>
        <time>2021-08-14T16:37:09Z</time>
      </trkpt>
      <trkpt lat="41.757593" lon="2.922715">
        <ele>483.0</ele>
        <time>2021-08-14T16:37:14Z</time>
      </trkpt>
      <trkpt lat="41.75757" lon="2.922825">
        <ele>487.0</ele>
        <time>2021-08-14T16:37:20Z</time>
      </trkpt>
      <trkpt lat="41.757508" lon="2.92292">
        <ele>487.0</ele>
        <time>2021-08-14T16:37:24Z</time>
      </trkpt>
      <trkpt lat="41.757465" lon="2.923038">
        <ele>487.0</ele>
        <time>2021-08-14T16:37:27Z</time>
      </trkpt>
      <trkpt lat="41.757475" lon="2.92316">
        <ele>487.0</ele>
        <time>2021-08-14T16:37:30Z</time>
      </trkpt>
      <trkpt lat="41.757485" lon="2.92328">
        <ele>488.0</ele>
        <time>2021-08-14T16:37:34Z</time>
      </trkpt>
      <trkpt lat="41.75751" lon="2.923387">
        <ele>489.0</ele>
        <time>2021-08-14T16:37:38Z</time>
      </trkpt>
      <trkpt lat="41.75752" lon="2.923512">
        <ele>489.0</ele>
        <time>2021-08-14T16:37:42Z</time>
      </trkpt>
      <trkpt lat="41.75755" lon="2.923615">
        <ele>490.0</ele>
        <time>2021-08-14T16:37:48Z</time>
      </trkpt>
      <trkpt lat="41.757635" lon="2.923672">
        <ele>489.0</ele>
        <time>2021-08-14T16:37:52Z</time>
      </trkpt>
      <trkpt lat="41.75769" lon="2.923732">
        <ele>489.0</ele>
        <time>2021-08-14T16:37:56Z</time>
      </trkpt>
      <trkpt lat="41.75774" lon="2.92382">
        <ele>489.0</ele>
        <time>2021-08-14T16:38:01Z</time>
      </trkpt>
      <trkpt lat="41.757785" lon="2.923895">
        <ele>489.0</ele>
        <time>2021-08-14T16:38:06Z</time>
      </trkpt>
      <trkpt lat="41.757817" lon="2.924">
        <ele>490.0</ele>
        <time>2021-08-14T16:38:11Z</time>
      </trkpt>
      <trkpt lat="41.757845" lon="2.924093">
        <ele>489.0</ele>
        <time>2021-08-14T16:38:15Z</time>
      </trkpt>
      <trkpt lat="41.757882" lon="2.924177">
        <ele>489.0</ele>
        <time>2021-08-14T16:38:18Z</time>
      </trkpt>
      <trkpt lat="41.757895" lon="2.924277">
        <ele>490.0</ele>
        <time>2021-08-14T16:38:24Z</time>
      </trkpt>
      <trkpt lat="41.757905" lon="2.924395">
        <ele>492.0</ele>
        <time>2021-08-14T16:38:29Z</time>
      </trkpt>
      <trkpt lat="41.75795" lon="2.924468">
        <ele>491.0</ele>
        <time>2021-08-14T16:38:35Z</time>
      </trkpt>
      <trkpt lat="41.758015" lon="2.92453">
        <ele>492.0</ele>
        <time>2021-08-14T16:38:40Z</time>
      </trkpt>
      <trkpt lat="41.75809" lon="2.924568">
        <ele>493.0</ele>
        <time>2021-08-14T16:38:47Z</time>
      </trkpt>
      <trkpt lat="41.758155" lon="2.92464">
        <ele>493.0</ele>
        <time>2021-08-14T16:38:53Z</time>
      </trkpt>
      <trkpt lat="41.758205" lon="2.924718">
        <ele>494.0</ele>
        <time>2021-08-14T16:38:58Z</time>
      </trkpt>
      <trkpt lat="41.758252" lon="2.9248">
        <ele>495.0</ele>
        <time>2021-08-14T16:39:04Z</time>
      </trkpt>
      <trkpt lat="41.758292" lon="2.924902">
        <ele>495.0</ele>
        <time>2021-08-14T16:39:11Z</time>
      </trkpt>
      <trkpt lat="41.758332" lon="2.924987">
        <ele>496.0</ele>
        <time>2021-08-14T16:39:18Z</time>
      </trkpt>
      <trkpt lat="41.75838" lon="2.92507">
        <ele>496.0</ele>
        <time>2021-08-14T16:39:25Z</time>
      </trkpt>
      <trkpt lat="41.75839" lon="2.925093">
        <ele>496.0</ele>
        <time>2021-08-14T16:39:32Z</time>
      </trkpt>
      <trkpt lat="41.758375" lon="2.925165">
        <ele>498.0</ele>
        <time>2021-08-14T16:39:39Z</time>
      </trkpt>
      <trkpt lat="41.75837" lon="2.92519">
        <ele>500.0</ele>
        <time>2021-08-14T16:39:46Z</time>
      </trkpt>
      <trkpt lat="41.758408" lon="2.925235">
        <ele>503.0</ele>
        <time>2021-08-14T16:39:53Z</time>
      </trkpt>
      <trkpt lat="41.758425" lon="2.925225">
        <ele>502.0</ele>
        <time>2021-08-14T16:40:00Z</time>
      </trkpt>
      <trkpt lat="41.758423" lon="2.925235">
        <ele>502.0</ele>
        <time>2021-08-14T16:40:07Z</time>
      </trkpt>
      <trkpt lat="41.75842" lon="2.92532">
        <ele>501.0</ele>
        <time>2021-08-14T16:40:14Z</time>
      </trkpt>
      <trkpt lat="41.75843" lon="2.925325">
        <ele>500.0</ele>
        <time>2021-08-14T16:40:21Z</time>
      </trkpt>
      <trkpt lat="41.75843" lon="2.925325">
        <ele>500.0</ele>
        <time>2021-08-14T16:40:23Z</time>
      </trkpt>
      <trkpt lat="41.758445" lon="2.925305">
        <ele>502.0</ele>
        <time>2021-08-14T16:40:31Z</time>
      </trkpt>
      <trkpt lat="41.758455" lon="2.92531">
        <ele>505.0</ele>
        <time>2021-08-14T16:40:38Z</time>
      </trkpt>
      <trkpt lat="41.758505" lon="2.925397">
        <ele>506.0</ele>
        <time>2021-08-14T16:40:43Z</time>
      </trkpt>
      <trkpt lat="41.758525" lon="2.9255">
        <ele>509.0</ele>
        <time>2021-08-14T16:40:50Z</time>
      </trkpt>
      <trkpt lat="41.758525" lon="2.92561">
        <ele>509.0</ele>
        <time>2021-08-14T16:40:56Z</time>
      </trkpt>
      <trkpt lat="41.75854" lon="2.925708">
        <ele>511.0</ele>
        <time>2021-08-14T16:41:03Z</time>
      </trkpt>
      <trkpt lat="41.758545" lon="2.925807">
        <ele>512.0</ele>
        <time>2021-08-14T16:41:09Z</time>
      </trkpt>
      <trkpt lat="41.758558" lon="2.925912">
        <ele>514.0</ele>
        <time>2021-08-14T16:41:15Z</time>
      </trkpt>
      <trkpt lat="41.75856" lon="2.92601">
        <ele>515.0</ele>
        <time>2021-08-14T16:41:21Z</time>
      </trkpt>
      <trkpt lat="41.75857" lon="2.926107">
        <ele>516.0</ele>
        <time>2021-08-14T16:41:27Z</time>
      </trkpt>
      <trkpt lat="41.758577" lon="2.926215">
        <ele>517.0</ele>
        <time>2021-08-14T16:41:34Z</time>
      </trkpt>
      <trkpt lat="41.75857" lon="2.92624">
        <ele>518.0</ele>
        <time>2021-08-14T16:41:41Z</time>
      </trkpt>
      <trkpt lat="41.75857" lon="2.926248">
        <ele>519.0</ele>
        <time>2021-08-14T16:41:48Z</time>
      </trkpt>
      <trkpt lat="41.758563" lon="2.926227">
        <ele>523.0</ele>
        <time>2021-08-14T16:41:58Z</time>
      </trkpt>
      <trkpt lat="41.758558" lon="2.926247">
        <ele>524.0</ele>
        <time>2021-08-14T16:42:05Z</time>
      </trkpt>
      <trkpt lat="41.75854" lon="2.9263">
        <ele>525.0</ele>
        <time>2021-08-14T16:42:12Z</time>
      </trkpt>
      <trkpt lat="41.758525" lon="2.926365">
        <ele>524.0</ele>
        <time>2021-08-14T16:42:19Z</time>
      </trkpt>
      <trkpt lat="41.75852" lon="2.92642">
        <ele>525.0</ele>
        <time>2021-08-14T16:42:26Z</time>
      </trkpt>
      <trkpt lat="41.758522" lon="2.926437">
        <ele>526.0</ele>
        <time>2021-08-14T16:42:33Z</time>
      </trkpt>
      <trkpt lat="41.75851" lon="2.926467">
        <ele>528.0</ele>
        <time>2021-08-14T16:42:40Z</time>
      </trkpt>
      <trkpt lat="41.75851" lon="2.9265">
        <ele>528.0</ele>
        <time>2021-08-14T16:42:47Z</time>
      </trkpt>
      <trkpt lat="41.75851" lon="2.926573">
        <ele>529.0</ele>
        <time>2021-08-14T16:42:54Z</time>
      </trkpt>
      <trkpt lat="41.75855" lon="2.926645">
        <ele>529.0</ele>
        <time>2021-08-14T16:43:01Z</time>
      </trkpt>
      <trkpt lat="41.758587" lon="2.926712">
        <ele>529.0</ele>
        <time>2021-08-14T16:43:08Z</time>
      </trkpt>
      <trkpt lat="41.7586" lon="2.92677">
        <ele>530.0</ele>
        <time>2021-08-14T16:43:15Z</time>
      </trkpt>
      <trkpt lat="41.758615" lon="2.926815">
        <ele>530.0</ele>
        <time>2021-08-14T16:43:22Z</time>
      </trkpt>
      <trkpt lat="41.758632" lon="2.926852">
        <ele>530.0</ele>
        <time>2021-08-14T16:43:29Z</time>
      </trkpt>
      <trkpt lat="41.758632" lon="2.926852">
        <ele>530.0</ele>
        <time>2021-08-14T16:43:35Z</time>
      </trkpt>
      <trkpt lat="41.75865" lon="2.92687">
        <ele>531.0</ele>
        <time>2021-08-14T16:43:48Z</time>
      </trkpt>
      <trkpt lat="41.75865" lon="2.92687">
        <ele>531.0</ele>
        <time>2021-08-14T16:43:49Z</time>
      </trkpt>
      <trkpt lat="41.75869" lon="2.92686">
        <ele>530.0</ele>
        <time>2021-08-14T16:43:56Z</time>
      </trkpt>
      <trkpt lat="41.75876" lon="2.92691">
        <ele>530.0</ele>
        <time>2021-08-14T16:44:02Z</time>
      </trkpt>
      <trkpt lat="41.758845" lon="2.926947">
        <ele>531.0</ele>
        <time>2021-08-14T16:44:08Z</time>
      </trkpt>
      <trkpt lat="41.75891" lon="2.927">
        <ele>531.0</ele>
        <time>2021-08-14T16:44:13Z</time>
      </trkpt>
      <trkpt lat="41.75899" lon="2.927055">
        <ele>532.0</ele>
        <time>2021-08-14T16:44:19Z</time>
      </trkpt>
      <trkpt lat="41.759045" lon="2.92714">
        <ele>533.0</ele>
        <time>2021-08-14T16:44:25Z</time>
      </trkpt>
      <trkpt lat="41.759122" lon="2.927172">
        <ele>534.0</ele>
        <time>2021-08-14T16:44:32Z</time>
      </trkpt>
      <trkpt lat="41.7592" lon="2.92723">
        <ele>533.0</ele>
        <time>2021-08-14T16:44:37Z</time>
      </trkpt>
      <trkpt lat="41.759265" lon="2.927295">
        <ele>534.0</ele>
        <time>2021-08-14T16:44:44Z</time>
      </trkpt>
      <trkpt lat="41.75933" lon="2.927355">
        <ele>534.0</ele>
        <time>2021-08-14T16:44:48Z</time>
      </trkpt>
      <trkpt lat="41.759405" lon="2.927375">
        <ele>534.0</ele>
        <time>2021-08-14T16:44:52Z</time>
      </trkpt>
      <trkpt lat="41.75946" lon="2.92747">
        <ele>534.0</ele>
        <time>2021-08-14T16:44:57Z</time>
      </trkpt>
      <trkpt lat="41.75952" lon="2.92754">
        <ele>534.0</ele>
        <time>2021-08-14T16:45:01Z</time>
      </trkpt>
      <trkpt lat="41.75957" lon="2.927625">
        <ele>534.0</ele>
        <time>2021-08-14T16:45:06Z</time>
      </trkpt>
      <trkpt lat="41.759633" lon="2.927675">
        <ele>534.0</ele>
        <time>2021-08-14T16:45:11Z</time>
      </trkpt>
      <trkpt lat="41.759685" lon="2.92776">
        <ele>535.0</ele>
        <time>2021-08-14T16:45:16Z</time>
      </trkpt>
      <trkpt lat="41.759715" lon="2.927858">
        <ele>536.0</ele>
        <time>2021-08-14T16:45:21Z</time>
      </trkpt>
      <trkpt lat="41.759703" lon="2.927885">
        <ele>539.0</ele>
        <time>2021-08-14T16:45:28Z</time>
      </trkpt>
      <trkpt lat="41.75971" lon="2.927885">
        <ele>541.0</ele>
        <time>2021-08-14T16:45:35Z</time>
      </trkpt>
      <trkpt lat="41.75972" lon="2.927925">
        <ele>542.0</ele>
        <time>2021-08-14T16:45:42Z</time>
      </trkpt>
      <trkpt lat="41.759665" lon="2.92802">
        <ele>543.0</ele>
        <time>2021-08-14T16:45:47Z</time>
      </trkpt>
      <trkpt lat="41.759575" lon="2.928065">
        <ele>545.0</ele>
        <time>2021-08-14T16:45:51Z</time>
      </trkpt>
      <trkpt lat="41.759507" lon="2.928058">
        <ele>547.0</ele>
        <time>2021-08-14T16:45:58Z</time>
      </trkpt>
      <trkpt lat="41.759425" lon="2.928128">
        <ele>548.0</ele>
        <time>2021-08-14T16:46:04Z</time>
      </trkpt>
      <trkpt lat="41.759335" lon="2.928165">
        <ele>548.0</ele>
        <time>2021-08-14T16:46:07Z</time>
      </trkpt>
      <trkpt lat="41.75926" lon="2.928195">
        <ele>549.0</ele>
        <time>2021-08-14T16:46:10Z</time>
      </trkpt>
      <trkpt lat="41.759175" lon="2.92821">
        <ele>549.0</ele>
        <time>2021-08-14T16:46:13Z</time>
      </trkpt>
      <trkpt lat="41.759075" lon="2.928237">
        <ele>550.0</ele>
        <time>2021-08-14T16:46:16Z</time>
      </trkpt>
      <trkpt lat="41.758982" lon="2.92829">
        <ele>550.0</ele>
        <time>2021-08-14T16:46:19Z</time>
      </trkpt>
      <trkpt lat="41.7589" lon="2.928335">
        <ele>551.0</ele>
        <time>2021-08-14T16:46:22Z</time>
      </trkpt>
      <trkpt lat="41.75883" lon="2.928397">
        <ele>552.0</ele>
        <time>2021-08-14T16:46:25Z</time>
      </trkpt>
      <trkpt lat="41.75877" lon="2.92848">
        <ele>551.0</ele>
        <time>2021-08-14T16:46:28Z</time>
      </trkpt>
      <trkpt lat="41.758717" lon="2.92857">
        <ele>551.0</ele>
        <time>2021-08-14T16:46:31Z</time>
      </trkpt>
      <trkpt lat="41.758647" lon="2.92863">
        <ele>551.0</ele>
        <time>2021-08-14T16:46:34Z</time>
      </trkpt>
      <trkpt lat="41.758575" lon="2.928705">
        <ele>553.0</ele>
        <time>2021-08-14T16:46:38Z</time>
      </trkpt>
      <trkpt lat="41.7585" lon="2.92875">
        <ele>553.0</ele>
        <time>2021-08-14T16:46:41Z</time>
      </trkpt>
      <trkpt lat="41.75842" lon="2.928785">
        <ele>553.0</ele>
        <time>2021-08-14T16:46:44Z</time>
      </trkpt>
      <trkpt lat="41.758352" lon="2.92885">
        <ele>554.0</ele>
        <time>2021-08-14T16:46:48Z</time>
      </trkpt>
      <trkpt lat="41.758285" lon="2.928905">
        <ele>555.0</ele>
        <time>2021-08-14T16:46:52Z</time>
      </trkpt>
      <trkpt lat="41.758237" lon="2.928978">
        <ele>555.0</ele>
        <time>2021-08-14T16:46:56Z</time>
      </trkpt>
      <trkpt lat="41.758195" lon="2.92907">
        <ele>556.0</ele>
        <time>2021-08-14T16:47:00Z</time>
      </trkpt>
      <trkpt lat="41.758175" lon="2.929175">
        <ele>557.0</ele>
        <time>2021-08-14T16:47:04Z</time>
      </trkpt>
      <trkpt lat="41.75817" lon="2.929293">
        <ele>556.0</ele>
        <time>2021-08-14T16:47:09Z</time>
      </trkpt>
      <trkpt lat="41.758155" lon="2.929405">
        <ele>556.0</ele>
        <time>2021-08-14T16:47:15Z</time>
      </trkpt>
      <trkpt lat="41.75811" lon="2.929488">
        <ele>556.0</ele>
        <time>2021-08-14T16:47:19Z</time>
      </trkpt>
      <trkpt lat="41.75805" lon="2.92957">
        <ele>557.0</ele>
        <time>2021-08-14T16:47:24Z</time>
      </trkpt>
      <trkpt lat="41.757997" lon="2.929518">
        <ele>558.0</ele>
        <time>2021-08-14T16:47:31Z</time>
      </trkpt>
      <trkpt lat="41.757995" lon="2.929555">
        <ele>556.0</ele>
        <time>2021-08-14T16:47:38Z</time>
      </trkpt>
      <trkpt lat="41.757945" lon="2.929475">
        <ele>557.0</ele>
        <time>2021-08-14T16:47:45Z</time>
      </trkpt>
      <trkpt lat="41.757872" lon="2.92945">
        <ele>557.0</ele>
        <time>2021-08-14T16:47:51Z</time>
      </trkpt>
      <trkpt lat="41.75785" lon="2.929507">
        <ele>557.0</ele>
        <time>2021-08-14T16:47:58Z</time>
      </trkpt>
      <trkpt lat="41.7578" lon="2.929432">
        <ele>557.0</ele>
        <time>2021-08-14T16:48:05Z</time>
      </trkpt>
      <trkpt lat="41.75774" lon="2.929435">
        <ele>558.0</ele>
        <time>2021-08-14T16:48:12Z</time>
      </trkpt>
      <trkpt lat="41.75772" lon="2.929432">
        <ele>558.0</ele>
        <time>2021-08-14T16:48:19Z</time>
      </trkpt>
      <trkpt lat="41.75772" lon="2.92945">
        <ele>560.0</ele>
        <time>2021-08-14T16:48:26Z</time>
      </trkpt>
      <trkpt lat="41.757733" lon="2.929365">
        <ele>561.0</ele>
        <time>2021-08-14T16:48:33Z</time>
      </trkpt>
      <trkpt lat="41.757727" lon="2.929285">
        <ele>565.0</ele>
        <time>2021-08-14T16:48:40Z</time>
      </trkpt>
      <trkpt lat="41.757727" lon="2.92925">
        <ele>567.0</ele>
        <time>2021-08-14T16:48:47Z</time>
      </trkpt>
      <trkpt lat="41.757727" lon="2.92925">
        <ele>567.0</ele>
        <time>2021-08-14T16:48:53Z</time>
      </trkpt>
      <trkpt lat="41.757692" lon="2.929155">
        <ele>569.0</ele>
        <time>2021-08-14T16:49:04Z</time>
      </trkpt>
      <trkpt lat="41.75766" lon="2.929087">
        <ele>572.0</ele>
        <time>2021-08-14T16:49:11Z</time>
      </trkpt>
      <trkpt lat="41.757645" lon="2.928995">
        <ele>572.0</ele>
        <time>2021-08-14T16:49:17Z</time>
      </trkpt>
      <trkpt lat="41.757595" lon="2.928905">
        <ele>572.0</ele>
        <time>2021-08-14T16:49:24Z</time>
      </trkpt>
      <trkpt lat="41.757593" lon="2.928848">
        <ele>573.0</ele>
        <time>2021-08-14T16:49:31Z</time>
      </trkpt>
      <trkpt lat="41.757577" lon="2.92883">
        <ele>573.0</ele>
        <time>2021-08-14T16:49:38Z</time>
      </trkpt>
      <trkpt lat="41.757565" lon="2.928825">
        <ele>573.0</ele>
        <time>2021-08-14T16:49:45Z</time>
      </trkpt>
      <trkpt lat="41.757565" lon="2.928812">
        <ele>574.0</ele>
        <time>2021-08-14T16:49:52Z</time>
      </trkpt>
      <trkpt lat="41.757565" lon="2.928767">
        <ele>575.0</ele>
        <time>2021-08-14T16:49:59Z</time>
      </trkpt>
      <trkpt lat="41.75752" lon="2.928725">
        <ele>576.0</ele>
        <time>2021-08-14T16:50:06Z</time>
      </trkpt>
      <trkpt lat="41.7575" lon="2.92869">
        <ele>575.0</ele>
        <time>2021-08-14T16:50:13Z</time>
      </trkpt>
      <trkpt lat="41.757485" lon="2.92863">
        <ele>574.0</ele>
        <time>2021-08-14T16:50:20Z</time>
      </trkpt>
      <trkpt lat="41.75748" lon="2.928605">
        <ele>574.0</ele>
        <time>2021-08-14T16:50:27Z</time>
      </trkpt>
      <trkpt lat="41.75746" lon="2.928585">
        <ele>575.0</ele>
        <time>2021-08-14T16:50:34Z</time>
      </trkpt>
      <trkpt lat="41.757405" lon="2.92855">
        <ele>577.0</ele>
        <time>2021-08-14T16:50:41Z</time>
      </trkpt>
      <trkpt lat="41.757365" lon="2.928507">
        <ele>577.0</ele>
        <time>2021-08-14T16:50:48Z</time>
      </trkpt>
      <trkpt lat="41.757325" lon="2.92846">
        <ele>576.0</ele>
        <time>2021-08-14T16:50:55Z</time>
      </trkpt>
      <trkpt lat="41.75729" lon="2.928408">
        <ele>575.0</ele>
        <time>2021-08-14T16:51:02Z</time>
      </trkpt>
      <trkpt lat="41.757315" lon="2.928408">
        <ele>576.0</ele>
        <time>2021-08-14T16:51:09Z</time>
      </trkpt>
      <trkpt lat="41.757305" lon="2.92839">
        <ele>578.0</ele>
        <time>2021-08-14T16:51:16Z</time>
      </trkpt>
      <trkpt lat="41.757295" lon="2.928397">
        <ele>578.0</ele>
        <time>2021-08-14T16:51:23Z</time>
      </trkpt>
      <trkpt lat="41.75729" lon="2.928395">
        <ele>577.0</ele>
        <time>2021-08-14T16:51:30Z</time>
      </trkpt>
      <trkpt lat="41.75729" lon="2.928395">
        <ele>577.0</ele>
        <time>2021-08-14T16:51:36Z</time>
      </trkpt>
      <trkpt lat="41.757265" lon="2.928365">
        <ele>579.0</ele>
        <time>2021-08-14T16:51:44Z</time>
      </trkpt>
      <trkpt lat="41.757255" lon="2.928302">
        <ele>579.0</ele>
        <time>2021-08-14T16:51:51Z</time>
      </trkpt>
      <trkpt lat="41.757245" lon="2.928275">
        <ele>581.0</ele>
        <time>2021-08-14T16:51:58Z</time>
      </trkpt>
      <trkpt lat="41.757255" lon="2.928248">
        <ele>582.0</ele>
        <time>2021-08-14T16:52:05Z</time>
      </trkpt>
      <trkpt lat="41.757252" lon="2.928245">
        <ele>581.0</ele>
        <time>2021-08-14T16:52:12Z</time>
      </trkpt>
      <trkpt lat="41.757252" lon="2.928245">
        <ele>581.0</ele>
        <time>2021-08-14T16:52:13Z</time>
      </trkpt>
      <trkpt lat="41.757255" lon="2.928248">
        <ele>580.0</ele>
        <time>2021-08-14T16:52:23Z</time>
      </trkpt>
      <trkpt lat="41.757255" lon="2.928248">
        <ele>580.0</ele>
        <time>2021-08-14T16:52:24Z</time>
      </trkpt>
      <trkpt lat="41.757213" lon="2.92824">
        <ele>581.0</ele>
        <time>2021-08-14T16:52:39Z</time>
      </trkpt>
      <trkpt lat="41.757182" lon="2.928245">
        <ele>580.0</ele>
        <time>2021-08-14T16:52:46Z</time>
      </trkpt>
      <trkpt lat="41.757177" lon="2.928245">
        <ele>579.0</ele>
        <time>2021-08-14T16:52:53Z</time>
      </trkpt>
      <trkpt lat="41.757177" lon="2.928245">
        <ele>579.0</ele>
        <time>2021-08-14T16:52:54Z</time>
      </trkpt>
      <trkpt lat="41.75716" lon="2.928265">
        <ele>579.0</ele>
        <time>2021-08-14T16:53:01Z</time>
      </trkpt>
      <trkpt lat="41.757165" lon="2.928255">
        <ele>578.0</ele>
        <time>2021-08-14T16:53:08Z</time>
      </trkpt>
      <trkpt lat="41.757165" lon="2.928255">
        <ele>576.0</ele>
        <time>2021-08-14T16:53:09Z</time>
      </trkpt>
      <trkpt lat="41.757152" lon="2.928245">
        <ele>576.0</ele>
        <time>2021-08-14T16:53:16Z</time>
      </trkpt>
      <trkpt lat="41.757152" lon="2.928245">
        <ele>576.0</ele>
        <time>2021-08-14T16:53:18Z</time>
      </trkpt>
      <trkpt lat="41.757128" lon="2.92826">
        <ele>572.0</ele>
        <time>2021-08-14T16:53:33Z</time>
      </trkpt>
      <trkpt lat="41.75715" lon="2.92826">
        <ele>572.0</ele>
        <time>2021-08-14T16:53:40Z</time>
      </trkpt>
      <trkpt lat="41.75715" lon="2.92826">
        <ele>572.0</ele>
        <time>2021-08-14T16:53:45Z</time>
      </trkpt>
      <trkpt lat="41.75718" lon="2.928305">
        <ele>572.0</ele>
        <time>2021-08-14T16:54:05Z</time>
      </trkpt>
      <trkpt lat="41.757165" lon="2.928318">
        <ele>574.0</ele>
        <time>2021-08-14T16:54:12Z</time>
      </trkpt>
      <trkpt lat="41.757165" lon="2.928318">
        <ele>574.0</ele>
        <time>2021-08-14T16:54:13Z</time>
      </trkpt>
      <trkpt lat="41.757155" lon="2.928355">
        <ele>574.0</ele>
        <time>2021-08-14T16:54:20Z</time>
      </trkpt>
      <trkpt lat="41.75717" lon="2.92838">
        <ele>575.0</ele>
        <time>2021-08-14T16:54:27Z</time>
      </trkpt>
      <trkpt lat="41.757162" lon="2.928375">
        <ele>575.0</ele>
        <time>2021-08-14T16:54:30Z</time>
      </trkpt>
      <trkpt lat="41.75715" lon="2.92838">
        <ele>575.0</ele>
        <time>2021-08-14T16:54:38Z</time>
      </trkpt>
      <trkpt lat="41.757167" lon="2.92834">
        <ele>573.0</ele>
        <time>2021-08-14T16:54:45Z</time>
      </trkpt>
      <trkpt lat="41.757185" lon="2.928295">
        <ele>573.0</ele>
        <time>2021-08-14T16:54:52Z</time>
      </trkpt>
      <trkpt lat="41.757185" lon="2.928295">
        <ele>572.0</ele>
        <time>2021-08-14T16:54:55Z</time>
      </trkpt>
      <trkpt lat="41.757192" lon="2.9283">
        <ele>571.0</ele>
        <time>2021-08-14T16:55:03Z</time>
      </trkpt>
      <trkpt lat="41.75719" lon="2.928307">
        <ele>572.0</ele>
        <time>2021-08-14T16:55:10Z</time>
      </trkpt>
      <trkpt lat="41.75719" lon="2.928307">
        <ele>572.0</ele>
        <time>2021-08-14T16:55:12Z</time>
      </trkpt>
      <trkpt lat="41.75722" lon="2.928332">
        <ele>570.0</ele>
        <time>2021-08-14T16:55:19Z</time>
      </trkpt>
      <trkpt lat="41.757212" lon="2.92834">
        <ele>569.0</ele>
        <time>2021-08-14T16:55:26Z</time>
      </trkpt>
      <trkpt lat="41.757242" lon="2.928375">
        <ele>568.0</ele>
        <time>2021-08-14T16:55:35Z</time>
      </trkpt>
      <trkpt lat="41.757282" lon="2.928397">
        <ele>569.0</ele>
        <time>2021-08-14T16:55:42Z</time>
      </trkpt>
      <trkpt lat="41.757295" lon="2.92844">
        <ele>569.0</ele>
        <time>2021-08-14T16:55:49Z</time>
      </trkpt>
      <trkpt lat="41.75732" lon="2.928445">
        <ele>569.0</ele>
        <time>2021-08-14T16:55:56Z</time>
      </trkpt>
      <trkpt lat="41.757347" lon="2.928493">
        <ele>569.0</ele>
        <time>2021-08-14T16:56:03Z</time>
      </trkpt>
      <trkpt lat="41.75737" lon="2.928492">
        <ele>569.0</ele>
        <time>2021-08-14T16:56:10Z</time>
      </trkpt>
      <trkpt lat="41.757417" lon="2.92849">
        <ele>568.0</ele>
        <time>2021-08-14T16:56:17Z</time>
      </trkpt>
      <trkpt lat="41.757455" lon="2.928467">
        <ele>569.0</ele>
        <time>2021-08-14T16:56:24Z</time>
      </trkpt>
      <trkpt lat="41.75747" lon="2.928438">
        <ele>570.0</ele>
        <time>2021-08-14T16:56:31Z</time>
      </trkpt>
      <trkpt lat="41.757517" lon="2.928425">
        <ele>571.0</ele>
        <time>2021-08-14T16:56:38Z</time>
      </trkpt>
      <trkpt lat="41.75753" lon="2.928402">
        <ele>572.0</ele>
        <time>2021-08-14T16:56:45Z</time>
      </trkpt>
      <trkpt lat="41.75753" lon="2.928395">
        <ele>572.0</ele>
        <time>2021-08-14T16:56:49Z</time>
      </trkpt>
      <trkpt lat="41.75756" lon="2.928313">
        <ele>575.0</ele>
        <time>2021-08-14T16:57:07Z</time>
      </trkpt>
      <trkpt lat="41.75757" lon="2.92829">
        <ele>576.0</ele>
        <time>2021-08-14T16:57:14Z</time>
      </trkpt>
      <trkpt lat="41.75757" lon="2.92829">
        <ele>576.0</ele>
        <time>2021-08-14T16:57:17Z</time>
      </trkpt>
      <trkpt lat="41.757555" lon="2.928275">
        <ele>576.0</ele>
        <time>2021-08-14T16:57:27Z</time>
      </trkpt>
      <trkpt lat="41.75755" lon="2.928247">
        <ele>575.0</ele>
        <time>2021-08-14T16:57:34Z</time>
      </trkpt>
      <trkpt lat="41.75755" lon="2.928247">
        <ele>575.0</ele>
        <time>2021-08-14T16:57:37Z</time>
      </trkpt>
      <trkpt lat="41.757547" lon="2.928247">
        <ele>576.0</ele>
        <time>2021-08-14T16:57:46Z</time>
      </trkpt>
      <trkpt lat="41.757547" lon="2.928247">
        <ele>576.0</ele>
        <time>2021-08-14T16:57:47Z</time>
      </trkpt>
      <trkpt lat="41.75756" lon="2.928248">
        <ele>575.0</ele>
        <time>2021-08-14T16:58:07Z</time>
      </trkpt>
      <trkpt lat="41.75756" lon="2.928248">
        <ele>575.0</ele>
        <time>2021-08-14T16:58:08Z</time>
      </trkpt>
      <trkpt lat="41.757585" lon="2.928235">
        <ele>575.0</ele>
        <time>2021-08-14T16:58:18Z</time>
      </trkpt>
      <trkpt lat="41.75759" lon="2.928237">
        <ele>574.0</ele>
        <time>2021-08-14T16:58:25Z</time>
      </trkpt>
      <trkpt lat="41.75762" lon="2.928222">
        <ele>574.0</ele>
        <time>2021-08-14T16:58:47Z</time>
      </trkpt>
      <trkpt lat="41.75763" lon="2.928218">
        <ele>575.0</ele>
        <time>2021-08-14T16:58:54Z</time>
      </trkpt>
      <trkpt lat="41.75763" lon="2.928218">
        <ele>575.0</ele>
        <time>2021-08-14T16:58:56Z</time>
      </trkpt>
      <trkpt lat="41.75763" lon="2.928207">
        <ele>576.0</ele>
        <time>2021-08-14T16:59:15Z</time>
      </trkpt>
      <trkpt lat="41.75763" lon="2.928207">
        <ele>576.0</ele>
        <time>2021-08-14T16:59:16Z</time>
      </trkpt>
      <trkpt lat="41.757655" lon="2.928205">
        <ele>575.0</ele>
        <time>2021-08-14T16:59:25Z</time>
      </trkpt>
      <trkpt lat="41.757655" lon="2.928205">
        <ele>575.0</ele>
        <time>2021-08-14T16:59:26Z</time>
      </trkpt>
      <trkpt lat="41.757647" lon="2.928165">
        <ele>576.0</ele>
        <time>2021-08-14T16:59:35Z</time>
      </trkpt>
      <trkpt lat="41.75763" lon="2.928135">
        <ele>576.0</ele>
        <time>2021-08-14T16:59:42Z</time>
      </trkpt>
      <trkpt lat="41.757642" lon="2.928143">
        <ele>575.0</ele>
        <time>2021-08-14T16:59:49Z</time>
      </trkpt>
      <trkpt lat="41.757645" lon="2.92814">
        <ele>575.0</ele>
        <time>2021-08-14T16:59:52Z</time>
      </trkpt>
      <trkpt lat="41.757645" lon="2.92814">
        <ele>575.0</ele>
        <time>2021-08-14T17:00:02Z</time>
      </trkpt>
      <trkpt lat="41.757648" lon="2.92811">
        <ele>576.0</ele>
        <time>2021-08-14T17:00:09Z</time>
      </trkpt>
      <trkpt lat="41.757655" lon="2.928132">
        <ele>576.0</ele>
        <time>2021-08-14T17:00:16Z</time>
      </trkpt>
      <trkpt lat="41.757648" lon="2.928157">
        <ele>574.0</ele>
        <time>2021-08-14T17:00:23Z</time>
      </trkpt>
      <trkpt lat="41.757648" lon="2.928157">
        <ele>574.0</ele>
        <time>2021-08-14T17:00:26Z</time>
      </trkpt>
      <trkpt lat="41.757665" lon="2.928142">
        <ele>573.0</ele>
        <time>2021-08-14T17:00:40Z</time>
      </trkpt>
      <trkpt lat="41.757665" lon="2.928142">
        <ele>573.0</ele>
        <time>2021-08-14T17:00:41Z</time>
      </trkpt>
      <trkpt lat="41.75764" lon="2.928175">
        <ele>574.0</ele>
        <time>2021-08-14T17:00:48Z</time>
      </trkpt>
      <trkpt lat="41.757615" lon="2.928175">
        <ele>574.0</ele>
        <time>2021-08-14T17:00:55Z</time>
      </trkpt>
      <trkpt lat="41.757615" lon="2.928175">
        <ele>574.0</ele>
        <time>2021-08-14T17:00:56Z</time>
      </trkpt>
      <trkpt lat="41.7576" lon="2.92819">
        <ele>573.0</ele>
        <time>2021-08-14T17:01:07Z</time>
      </trkpt>
      <trkpt lat="41.757585" lon="2.92818">
        <ele>573.0</ele>
        <time>2021-08-14T17:01:14Z</time>
      </trkpt>
      <trkpt lat="41.757585" lon="2.92818">
        <ele>573.0</ele>
        <time>2021-08-14T17:01:16Z</time>
      </trkpt>
      <trkpt lat="41.757557" lon="2.928222">
        <ele>572.0</ele>
        <time>2021-08-14T17:01:31Z</time>
      </trkpt>
      <trkpt lat="41.757555" lon="2.928217">
        <ele>572.0</ele>
        <time>2021-08-14T17:01:38Z</time>
      </trkpt>
      <trkpt lat="41.757535" lon="2.928215">
        <ele>572.0</ele>
        <time>2021-08-14T17:01:52Z</time>
      </trkpt>
      <trkpt lat="41.757535" lon="2.928215">
        <ele>572.0</ele>
        <time>2021-08-14T17:01:56Z</time>
      </trkpt>
      <trkpt lat="41.757555" lon="2.92819">
        <ele>572.0</ele>
        <time>2021-08-14T17:02:03Z</time>
      </trkpt>
      <trkpt lat="41.757545" lon="2.928195">
        <ele>573.0</ele>
        <time>2021-08-14T17:02:09Z</time>
      </trkpt>
      <trkpt lat="41.75754" lon="2.92821">
        <ele>574.0</ele>
        <time>2021-08-14T17:02:21Z</time>
      </trkpt>
      <trkpt lat="41.75754" lon="2.92821">
        <ele>574.0</ele>
        <time>2021-08-14T17:02:22Z</time>
      </trkpt>
      <trkpt lat="41.75754" lon="2.928235">
        <ele>574.0</ele>
        <time>2021-08-14T17:02:53Z</time>
      </trkpt>
      <trkpt lat="41.75754" lon="2.928235">
        <ele>574.0</ele>
        <time>2021-08-14T17:02:54Z</time>
      </trkpt>
      <trkpt lat="41.757557" lon="2.928255">
        <ele>575.0</ele>
        <time>2021-08-14T17:03:03Z</time>
      </trkpt>
      <trkpt lat="41.75757" lon="2.928247">
        <ele>576.0</ele>
        <time>2021-08-14T17:03:10Z</time>
      </trkpt>
      <trkpt lat="41.757565" lon="2.928245">
        <ele>575.0</ele>
        <time>2021-08-14T17:03:12Z</time>
      </trkpt>
      <trkpt lat="41.757585" lon="2.928232">
        <ele>578.0</ele>
        <time>2021-08-14T17:03:30Z</time>
      </trkpt>
      <trkpt lat="41.75763" lon="2.92843">
        <ele>563.0</ele>
        <time>2021-08-15T05:35:09Z</time>
      </trkpt>
      <trkpt lat="41.757573" lon="2.92836">
        <ele>554.0</ele>
        <time>2021-08-15T05:35:09Z</time>
      </trkpt>
      <trkpt lat="41.75766" lon="2.928402">
        <ele>552.0</ele>
        <time>2021-08-15T05:35:11Z</time>
      </trkpt>
      <trkpt lat="41.757605" lon="2.928355">
        <ele>552.0</ele>
        <time>2021-08-15T05:35:18Z</time>
      </trkpt>
      <trkpt lat="41.757605" lon="2.928355">
        <ele>552.0</ele>
        <time>2021-08-15T05:35:21Z</time>
      </trkpt>
      <trkpt lat="41.75764" lon="2.928445">
        <ele>551.0</ele>
        <time>2021-08-15T05:35:32Z</time>
      </trkpt>
      <trkpt lat="41.757655" lon="2.928465">
        <ele>553.0</ele>
        <time>2021-08-15T05:35:39Z</time>
      </trkpt>
      <trkpt lat="41.75762" lon="2.928375">
        <ele>553.0</ele>
        <time>2021-08-15T05:35:46Z</time>
      </trkpt>
      <trkpt lat="41.75761" lon="2.92836">
        <ele>553.0</ele>
        <time>2021-08-15T05:35:53Z</time>
      </trkpt>
      <trkpt lat="41.75761" lon="2.92836">
        <ele>553.0</ele>
        <time>2021-08-15T05:35:54Z</time>
      </trkpt>
      <trkpt lat="41.7576" lon="2.928395">
        <ele>551.0</ele>
        <time>2021-08-15T05:36:04Z</time>
      </trkpt>
      <trkpt lat="41.75761" lon="2.92836">
        <ele>551.0</ele>
        <time>2021-08-15T05:36:11Z</time>
      </trkpt>
      <trkpt lat="41.757605" lon="2.92836">
        <ele>551.0</ele>
        <time>2021-08-15T05:36:17Z</time>
      </trkpt>
      <trkpt lat="41.75759" lon="2.92836">
        <ele>554.0</ele>
        <time>2021-08-15T05:36:30Z</time>
      </trkpt>
      <trkpt lat="41.757585" lon="2.92836">
        <ele>553.0</ele>
        <time>2021-08-15T05:36:34Z</time>
      </trkpt>
      <trkpt lat="41.757592" lon="2.92835">
        <ele>553.0</ele>
        <time>2021-08-15T05:36:47Z</time>
      </trkpt>
      <trkpt lat="41.757592" lon="2.92835">
        <ele>553.0</ele>
        <time>2021-08-15T05:36:48Z</time>
      </trkpt>
      <trkpt lat="41.757573" lon="2.928395">
        <ele>553.0</ele>
        <time>2021-08-15T05:37:23Z</time>
      </trkpt>
      <trkpt lat="41.75757" lon="2.928395">
        <ele>554.0</ele>
        <time>2021-08-15T05:37:30Z</time>
      </trkpt>
      <trkpt lat="41.75757" lon="2.928395">
        <ele>554.0</ele>
        <time>2021-08-15T05:37:36Z</time>
      </trkpt>
      <trkpt lat="41.75756" lon="2.928395">
        <ele>552.0</ele>
        <time>2021-08-15T05:38:02Z</time>
      </trkpt>
      <trkpt lat="41.75756" lon="2.928395">
        <ele>552.0</ele>
        <time>2021-08-15T05:38:06Z</time>
      </trkpt>
      <trkpt lat="41.757535" lon="2.92839">
        <ele>552.0</ele>
        <time>2021-08-15T05:38:14Z</time>
      </trkpt>
      <trkpt lat="41.757535" lon="2.92839">
        <ele>552.0</ele>
        <time>2021-08-15T05:38:17Z</time>
      </trkpt>
      <trkpt lat="41.757525" lon="2.928403">
        <ele>553.0</ele>
        <time>2021-08-15T05:38:24Z</time>
      </trkpt>
      <trkpt lat="41.757525" lon="2.928403">
        <ele>553.0</ele>
        <time>2021-08-15T05:38:25Z</time>
      </trkpt>
      <trkpt lat="41.75754" lon="2.928395">
        <ele>556.0</ele>
        <time>2021-08-15T05:38:36Z</time>
      </trkpt>
      <trkpt lat="41.757545" lon="2.928385">
        <ele>558.0</ele>
        <time>2021-08-15T05:38:42Z</time>
      </trkpt>
      <trkpt lat="41.757535" lon="2.92836">
        <ele>558.0</ele>
        <time>2021-08-15T05:38:50Z</time>
      </trkpt>
      <trkpt lat="41.757535" lon="2.92835">
        <ele>558.0</ele>
        <time>2021-08-15T05:38:57Z</time>
      </trkpt>
      <trkpt lat="41.757535" lon="2.92835">
        <ele>558.0</ele>
        <time>2021-08-15T05:38:58Z</time>
      </trkpt>
      <trkpt lat="41.75752" lon="2.92835">
        <ele>561.0</ele>
        <time>2021-08-15T05:39:08Z</time>
      </trkpt>
      <trkpt lat="41.757495" lon="2.92837">
        <ele>563.0</ele>
        <time>2021-08-15T05:39:15Z</time>
      </trkpt>
      <trkpt lat="41.757465" lon="2.928375">
        <ele>564.0</ele>
        <time>2021-08-15T05:39:22Z</time>
      </trkpt>
      <trkpt lat="41.757437" lon="2.928397">
        <ele>563.0</ele>
        <time>2021-08-15T05:39:29Z</time>
      </trkpt>
      <trkpt lat="41.75743" lon="2.928405">
        <ele>562.0</ele>
        <time>2021-08-15T05:39:36Z</time>
      </trkpt>
      <trkpt lat="41.75743" lon="2.928405">
        <ele>562.0</ele>
        <time>2021-08-15T05:39:42Z</time>
      </trkpt>
      <trkpt lat="41.75737" lon="2.92845">
        <ele>560.0</ele>
        <time>2021-08-15T05:39:51Z</time>
      </trkpt>
      <trkpt lat="41.75737" lon="2.928475">
        <ele>559.0</ele>
        <time>2021-08-15T05:39:58Z</time>
      </trkpt>
      <trkpt lat="41.75735" lon="2.92849">
        <ele>558.0</ele>
        <time>2021-08-15T05:40:05Z</time>
      </trkpt>
      <trkpt lat="41.75737" lon="2.928525">
        <ele>557.0</ele>
        <time>2021-08-15T05:40:12Z</time>
      </trkpt>
      <trkpt lat="41.757375" lon="2.928565">
        <ele>558.0</ele>
        <time>2021-08-15T05:40:19Z</time>
      </trkpt>
      <trkpt lat="41.7574" lon="2.928585">
        <ele>559.0</ele>
        <time>2021-08-15T05:40:26Z</time>
      </trkpt>
      <trkpt lat="41.75742" lon="2.928595">
        <ele>559.0</ele>
        <time>2021-08-15T05:40:33Z</time>
      </trkpt>
      <trkpt lat="41.75742" lon="2.928595">
        <ele>557.0</ele>
        <time>2021-08-15T05:40:40Z</time>
      </trkpt>
      <trkpt lat="41.75742" lon="2.928595">
        <ele>557.0</ele>
        <time>2021-08-15T05:40:41Z</time>
      </trkpt>
      <trkpt lat="41.75745" lon="2.928615">
        <ele>558.0</ele>
        <time>2021-08-15T05:40:50Z</time>
      </trkpt>
      <trkpt lat="41.75745" lon="2.928655">
        <ele>558.0</ele>
        <time>2021-08-15T05:40:57Z</time>
      </trkpt>
      <trkpt lat="41.75748" lon="2.92869">
        <ele>560.0</ele>
        <time>2021-08-15T05:41:04Z</time>
      </trkpt>
      <trkpt lat="41.7575" lon="2.92871">
        <ele>560.0</ele>
        <time>2021-08-15T05:41:11Z</time>
      </trkpt>
      <trkpt lat="41.75752" lon="2.928775">
        <ele>560.0</ele>
        <time>2021-08-15T05:41:18Z</time>
      </trkpt>
      <trkpt lat="41.757515" lon="2.92883">
        <ele>559.0</ele>
        <time>2021-08-15T05:41:25Z</time>
      </trkpt>
      <trkpt lat="41.75754" lon="2.92889">
        <ele>558.0</ele>
        <time>2021-08-15T05:41:32Z</time>
      </trkpt>
      <trkpt lat="41.757555" lon="2.928995">
        <ele>557.0</ele>
        <time>2021-08-15T05:41:39Z</time>
      </trkpt>
      <trkpt lat="41.75757" lon="2.92906">
        <ele>557.0</ele>
        <time>2021-08-15T05:41:46Z</time>
      </trkpt>
      <trkpt lat="41.75757" lon="2.9291">
        <ele>556.0</ele>
        <time>2021-08-15T05:41:53Z</time>
      </trkpt>
      <trkpt lat="41.757592" lon="2.92919">
        <ele>556.0</ele>
        <time>2021-08-15T05:42:00Z</time>
      </trkpt>
      <trkpt lat="41.757592" lon="2.92923">
        <ele>556.0</ele>
        <time>2021-08-15T05:42:07Z</time>
      </trkpt>
      <trkpt lat="41.757615" lon="2.92928">
        <ele>556.0</ele>
        <time>2021-08-15T05:42:14Z</time>
      </trkpt>
      <trkpt lat="41.75763" lon="2.929315">
        <ele>555.0</ele>
        <time>2021-08-15T05:42:21Z</time>
      </trkpt>
      <trkpt lat="41.75764" lon="2.929325">
        <ele>556.0</ele>
        <time>2021-08-15T05:42:28Z</time>
      </trkpt>
      <trkpt lat="41.757645" lon="2.929375">
        <ele>555.0</ele>
        <time>2021-08-15T05:42:35Z</time>
      </trkpt>
      <trkpt lat="41.75767" lon="2.929398">
        <ele>554.0</ele>
        <time>2021-08-15T05:42:42Z</time>
      </trkpt>
      <trkpt lat="41.757695" lon="2.92946">
        <ele>556.0</ele>
        <time>2021-08-15T05:42:49Z</time>
      </trkpt>
      <trkpt lat="41.75774" lon="2.92956">
        <ele>556.0</ele>
        <time>2021-08-15T05:42:53Z</time>
      </trkpt>
      <trkpt lat="41.75777" lon="2.929665">
        <ele>554.0</ele>
        <time>2021-08-15T05:43:00Z</time>
      </trkpt>
      <trkpt lat="41.757725" lon="2.929748">
        <ele>553.0</ele>
        <time>2021-08-15T05:43:04Z</time>
      </trkpt>
      <trkpt lat="41.757675" lon="2.929833">
        <ele>552.0</ele>
        <time>2021-08-15T05:43:07Z</time>
      </trkpt>
      <trkpt lat="41.7576" lon="2.92993">
        <ele>550.0</ele>
        <time>2021-08-15T05:43:10Z</time>
      </trkpt>
      <trkpt lat="41.757545" lon="2.930023">
        <ele>548.0</ele>
        <time>2021-08-15T05:43:12Z</time>
      </trkpt>
      <trkpt lat="41.7575" lon="2.93012">
        <ele>548.0</ele>
        <time>2021-08-15T05:43:14Z</time>
      </trkpt>
      <trkpt lat="41.757415" lon="2.930208">
        <ele>547.0</ele>
        <time>2021-08-15T05:43:17Z</time>
      </trkpt>
      <trkpt lat="41.757365" lon="2.930287">
        <ele>546.0</ele>
        <time>2021-08-15T05:43:19Z</time>
      </trkpt>
      <trkpt lat="41.75731" lon="2.93039">
        <ele>544.0</ele>
        <time>2021-08-15T05:43:21Z</time>
      </trkpt>
      <trkpt lat="41.757245" lon="2.93049">
        <ele>545.0</ele>
        <time>2021-08-15T05:43:23Z</time>
      </trkpt>
      <trkpt lat="41.757175" lon="2.930595">
        <ele>545.0</ele>
        <time>2021-08-15T05:43:25Z</time>
      </trkpt>
      <trkpt lat="41.757115" lon="2.930695">
        <ele>544.0</ele>
        <time>2021-08-15T05:43:27Z</time>
      </trkpt>
      <trkpt lat="41.757065" lon="2.93077">
        <ele>544.0</ele>
        <time>2021-08-15T05:43:29Z</time>
      </trkpt>
      <trkpt lat="41.756995" lon="2.93087">
        <ele>543.0</ele>
        <time>2021-08-15T05:43:32Z</time>
      </trkpt>
      <trkpt lat="41.756925" lon="2.930945">
        <ele>543.0</ele>
        <time>2021-08-15T05:43:35Z</time>
      </trkpt>
      <trkpt lat="41.756865" lon="2.93103">
        <ele>543.0</ele>
        <time>2021-08-15T05:43:39Z</time>
      </trkpt>
      <trkpt lat="41.7568" lon="2.931085">
        <ele>542.0</ele>
        <time>2021-08-15T05:43:43Z</time>
      </trkpt>
      <trkpt lat="41.756735" lon="2.93114">
        <ele>542.0</ele>
        <time>2021-08-15T05:43:47Z</time>
      </trkpt>
      <trkpt lat="41.75666" lon="2.93117">
        <ele>540.0</ele>
        <time>2021-08-15T05:43:52Z</time>
      </trkpt>
      <trkpt lat="41.756575" lon="2.931192">
        <ele>539.0</ele>
        <time>2021-08-15T05:43:55Z</time>
      </trkpt>
      <trkpt lat="41.756485" lon="2.931245">
        <ele>538.0</ele>
        <time>2021-08-15T05:43:57Z</time>
      </trkpt>
      <trkpt lat="41.75638" lon="2.931295">
        <ele>536.0</ele>
        <time>2021-08-15T05:43:59Z</time>
      </trkpt>
      <trkpt lat="41.75628" lon="2.931355">
        <ele>534.0</ele>
        <time>2021-08-15T05:44:01Z</time>
      </trkpt>
      <trkpt lat="41.75617" lon="2.931415">
        <ele>533.0</ele>
        <time>2021-08-15T05:44:03Z</time>
      </trkpt>
      <trkpt lat="41.75604" lon="2.9315">
        <ele>532.0</ele>
        <time>2021-08-15T05:44:05Z</time>
      </trkpt>
      <trkpt lat="41.75593" lon="2.931557">
        <ele>531.0</ele>
        <time>2021-08-15T05:44:07Z</time>
      </trkpt>
      <trkpt lat="41.755855" lon="2.931593">
        <ele>530.0</ele>
        <time>2021-08-15T05:44:09Z</time>
      </trkpt>
      <trkpt lat="41.75577" lon="2.931635">
        <ele>529.0</ele>
        <time>2021-08-15T05:44:13Z</time>
      </trkpt>
      <trkpt lat="41.755735" lon="2.93166">
        <ele>528.0</ele>
        <time>2021-08-15T05:44:20Z</time>
      </trkpt>
      <trkpt lat="41.755735" lon="2.93166">
        <ele>528.0</ele>
        <time>2021-08-15T05:44:23Z</time>
      </trkpt>
      <trkpt lat="41.75571" lon="2.93167">
        <ele>529.0</ele>
        <time>2021-08-15T05:44:55Z</time>
      </trkpt>
      <trkpt lat="41.75571" lon="2.93167">
        <ele>529.0</ele>
        <time>2021-08-15T05:44:58Z</time>
      </trkpt>
      <trkpt lat="41.75573" lon="2.93177">
        <ele>528.0</ele>
        <time>2021-08-15T05:45:07Z</time>
      </trkpt>
      <trkpt lat="41.755775" lon="2.931865">
        <ele>528.0</ele>
        <time>2021-08-15T05:45:11Z</time>
      </trkpt>
      <trkpt lat="41.755805" lon="2.931967">
        <ele>528.0</ele>
        <time>2021-08-15T05:45:14Z</time>
      </trkpt>
      <trkpt lat="41.75584" lon="2.932097">
        <ele>528.0</ele>
        <time>2021-08-15T05:45:17Z</time>
      </trkpt>
      <trkpt lat="41.75587" lon="2.932225">
        <ele>528.0</ele>
        <time>2021-08-15T05:45:20Z</time>
      </trkpt>
      <trkpt lat="41.755885" lon="2.932365">
        <ele>527.0</ele>
        <time>2021-08-15T05:45:23Z</time>
      </trkpt>
      <trkpt lat="41.755895" lon="2.93247">
        <ele>527.0</ele>
        <time>2021-08-15T05:45:25Z</time>
      </trkpt>
      <trkpt lat="41.755895" lon="2.93261">
        <ele>527.0</ele>
        <time>2021-08-15T05:45:28Z</time>
      </trkpt>
      <trkpt lat="41.75588" lon="2.932745">
        <ele>526.0</ele>
        <time>2021-08-15T05:45:31Z</time>
      </trkpt>
      <trkpt lat="41.755865" lon="2.932875">
        <ele>525.0</ele>
        <time>2021-08-15T05:45:34Z</time>
      </trkpt>
      <trkpt lat="41.755855" lon="2.93301">
        <ele>524.0</ele>
        <time>2021-08-15T05:45:37Z</time>
      </trkpt>
      <trkpt lat="41.755865" lon="2.93313">
        <ele>521.0</ele>
        <time>2021-08-15T05:45:39Z</time>
      </trkpt>
      <trkpt lat="41.755885" lon="2.933255">
        <ele>520.0</ele>
        <time>2021-08-15T05:45:41Z</time>
      </trkpt>
      <trkpt lat="41.75591" lon="2.93339">
        <ele>519.0</ele>
        <time>2021-08-15T05:45:43Z</time>
      </trkpt>
      <trkpt lat="41.755955" lon="2.93351">
        <ele>519.0</ele>
        <time>2021-08-15T05:45:45Z</time>
      </trkpt>
      <trkpt lat="41.75598" lon="2.933635">
        <ele>519.0</ele>
        <time>2021-08-15T05:45:47Z</time>
      </trkpt>
      <trkpt lat="41.756015" lon="2.93376">
        <ele>518.0</ele>
        <time>2021-08-15T05:45:49Z</time>
      </trkpt>
      <trkpt lat="41.756065" lon="2.933877">
        <ele>518.0</ele>
        <time>2021-08-15T05:45:51Z</time>
      </trkpt>
      <trkpt lat="41.75613" lon="2.93398">
        <ele>517.0</ele>
        <time>2021-08-15T05:45:53Z</time>
      </trkpt>
      <trkpt lat="41.756208" lon="2.93405">
        <ele>516.0</ele>
        <time>2021-08-15T05:45:56Z</time>
      </trkpt>
      <trkpt lat="41.756282" lon="2.934105">
        <ele>517.0</ele>
        <time>2021-08-15T05:46:01Z</time>
      </trkpt>
      <trkpt lat="41.75636" lon="2.934058">
        <ele>517.0</ele>
        <time>2021-08-15T05:46:05Z</time>
      </trkpt>
      <trkpt lat="41.75643" lon="2.934015">
        <ele>517.0</ele>
        <time>2021-08-15T05:46:09Z</time>
      </trkpt>
      <trkpt lat="41.756518" lon="2.933995">
        <ele>518.0</ele>
        <time>2021-08-15T05:46:13Z</time>
      </trkpt>
      <trkpt lat="41.756607" lon="2.93398">
        <ele>519.0</ele>
        <time>2021-08-15T05:46:18Z</time>
      </trkpt>
      <trkpt lat="41.75669" lon="2.93398">
        <ele>520.0</ele>
        <time>2021-08-15T05:46:24Z</time>
      </trkpt>
      <trkpt lat="41.756765" lon="2.933955">
        <ele>521.0</ele>
        <time>2021-08-15T05:46:28Z</time>
      </trkpt>
      <trkpt lat="41.75685" lon="2.933958">
        <ele>522.0</ele>
        <time>2021-08-15T05:46:32Z</time>
      </trkpt>
      <trkpt lat="41.75693" lon="2.934005">
        <ele>522.0</ele>
        <time>2021-08-15T05:46:36Z</time>
      </trkpt>
      <trkpt lat="41.75696" lon="2.934015">
        <ele>522.0</ele>
        <time>2021-08-15T05:46:43Z</time>
      </trkpt>
      <trkpt lat="41.75696" lon="2.934015">
        <ele>522.0</ele>
        <time>2021-08-15T05:46:46Z</time>
      </trkpt>
      <trkpt lat="41.757025" lon="2.93409">
        <ele>524.0</ele>
        <time>2021-08-15T05:47:07Z</time>
      </trkpt>
      <trkpt lat="41.7571" lon="2.934155">
        <ele>525.0</ele>
        <time>2021-08-15T05:47:11Z</time>
      </trkpt>
      <trkpt lat="41.757175" lon="2.93424">
        <ele>525.0</ele>
        <time>2021-08-15T05:47:15Z</time>
      </trkpt>
      <trkpt lat="41.757225" lon="2.934335">
        <ele>526.0</ele>
        <time>2021-08-15T05:47:19Z</time>
      </trkpt>
      <trkpt lat="41.75726" lon="2.934412">
        <ele>527.0</ele>
        <time>2021-08-15T05:47:22Z</time>
      </trkpt>
      <trkpt lat="41.757282" lon="2.934507">
        <ele>527.0</ele>
        <time>2021-08-15T05:47:25Z</time>
      </trkpt>
      <trkpt lat="41.75731" lon="2.93462">
        <ele>528.0</ele>
        <time>2021-08-15T05:47:28Z</time>
      </trkpt>
      <trkpt lat="41.757347" lon="2.934735">
        <ele>528.0</ele>
        <time>2021-08-15T05:47:32Z</time>
      </trkpt>
      <trkpt lat="41.757395" lon="2.93483">
        <ele>528.0</ele>
        <time>2021-08-15T05:47:35Z</time>
      </trkpt>
      <trkpt lat="41.757435" lon="2.934905">
        <ele>526.0</ele>
        <time>2021-08-15T05:47:38Z</time>
      </trkpt>
      <trkpt lat="41.7575" lon="2.93498">
        <ele>526.0</ele>
        <time>2021-08-15T05:47:41Z</time>
      </trkpt>
      <trkpt lat="41.75757" lon="2.935035">
        <ele>527.0</ele>
        <time>2021-08-15T05:47:44Z</time>
      </trkpt>
      <trkpt lat="41.757655" lon="2.935105">
        <ele>527.0</ele>
        <time>2021-08-15T05:47:48Z</time>
      </trkpt>
      <trkpt lat="41.757732" lon="2.93517">
        <ele>527.0</ele>
        <time>2021-08-15T05:47:51Z</time>
      </trkpt>
      <trkpt lat="41.75784" lon="2.935225">
        <ele>525.0</ele>
        <time>2021-08-15T05:47:54Z</time>
      </trkpt>
      <trkpt lat="41.757915" lon="2.93525">
        <ele>525.0</ele>
        <time>2021-08-15T05:47:56Z</time>
      </trkpt>
      <trkpt lat="41.758" lon="2.93528">
        <ele>524.0</ele>
        <time>2021-08-15T05:47:58Z</time>
      </trkpt>
      <trkpt lat="41.75809" lon="2.9353">
        <ele>524.0</ele>
        <time>2021-08-15T05:48:00Z</time>
      </trkpt>
      <trkpt lat="41.758177" lon="2.9353">
        <ele>523.0</ele>
        <time>2021-08-15T05:48:02Z</time>
      </trkpt>
      <trkpt lat="41.75828" lon="2.9353">
        <ele>522.0</ele>
        <time>2021-08-15T05:48:04Z</time>
      </trkpt>
      <trkpt lat="41.75839" lon="2.93529">
        <ele>522.0</ele>
        <time>2021-08-15T05:48:06Z</time>
      </trkpt>
      <trkpt lat="41.7585" lon="2.935265">
        <ele>522.0</ele>
        <time>2021-08-15T05:48:08Z</time>
      </trkpt>
      <trkpt lat="41.7586" lon="2.935225">
        <ele>522.0</ele>
        <time>2021-08-15T05:48:10Z</time>
      </trkpt>
      <trkpt lat="41.758675" lon="2.935165">
        <ele>522.0</ele>
        <time>2021-08-15T05:48:12Z</time>
      </trkpt>
      <trkpt lat="41.758745" lon="2.935085">
        <ele>522.0</ele>
        <time>2021-08-15T05:48:15Z</time>
      </trkpt>
      <trkpt lat="41.7588" lon="2.93501">
        <ele>522.0</ele>
        <time>2021-08-15T05:48:18Z</time>
      </trkpt>
      <trkpt lat="41.75889" lon="2.934995">
        <ele>522.0</ele>
        <time>2021-08-15T05:48:22Z</time>
      </trkpt>
      <trkpt lat="41.758958" lon="2.935035">
        <ele>523.0</ele>
        <time>2021-08-15T05:48:26Z</time>
      </trkpt>
      <trkpt lat="41.759005" lon="2.93511">
        <ele>523.0</ele>
        <time>2021-08-15T05:48:33Z</time>
      </trkpt>
      <trkpt lat="41.75908" lon="2.935115">
        <ele>524.0</ele>
        <time>2021-08-15T05:48:40Z</time>
      </trkpt>
      <trkpt lat="41.759025" lon="2.935095">
        <ele>525.0</ele>
        <time>2021-08-15T05:48:47Z</time>
      </trkpt>
      <trkpt lat="41.759097" lon="2.93514">
        <ele>525.0</ele>
        <time>2021-08-15T05:48:53Z</time>
      </trkpt>
      <trkpt lat="41.759175" lon="2.93514">
        <ele>525.0</ele>
        <time>2021-08-15T05:48:56Z</time>
      </trkpt>
      <trkpt lat="41.759252" lon="2.93514">
        <ele>526.0</ele>
        <time>2021-08-15T05:48:59Z</time>
      </trkpt>
      <trkpt lat="41.75933" lon="2.93518">
        <ele>526.0</ele>
        <time>2021-08-15T05:49:02Z</time>
      </trkpt>
      <trkpt lat="41.759405" lon="2.935185">
        <ele>527.0</ele>
        <time>2021-08-15T05:49:05Z</time>
      </trkpt>
      <trkpt lat="41.759485" lon="2.93521">
        <ele>527.0</ele>
        <time>2021-08-15T05:49:08Z</time>
      </trkpt>
      <trkpt lat="41.759563" lon="2.935225">
        <ele>527.0</ele>
        <time>2021-08-15T05:49:11Z</time>
      </trkpt>
      <trkpt lat="41.759645" lon="2.935275">
        <ele>527.0</ele>
        <time>2021-08-15T05:49:14Z</time>
      </trkpt>
      <trkpt lat="41.759715" lon="2.93533">
        <ele>528.0</ele>
        <time>2021-08-15T05:49:17Z</time>
      </trkpt>
      <trkpt lat="41.759765" lon="2.935415">
        <ele>529.0</ele>
        <time>2021-08-15T05:49:20Z</time>
      </trkpt>
      <trkpt lat="41.759815" lon="2.93551">
        <ele>529.0</ele>
        <time>2021-08-15T05:49:24Z</time>
      </trkpt>
      <trkpt lat="41.759855" lon="2.935625">
        <ele>528.0</ele>
        <time>2021-08-15T05:49:28Z</time>
      </trkpt>
      <trkpt lat="41.7599" lon="2.93571">
        <ele>528.0</ele>
        <time>2021-08-15T05:49:30Z</time>
      </trkpt>
      <trkpt lat="41.75994" lon="2.935825">
        <ele>526.0</ele>
        <time>2021-08-15T05:49:32Z</time>
      </trkpt>
      <trkpt lat="41.759985" lon="2.935932">
        <ele>526.0</ele>
        <time>2021-08-15T05:49:34Z</time>
      </trkpt>
      <trkpt lat="41.760025" lon="2.93606">
        <ele>525.0</ele>
        <time>2021-08-15T05:49:36Z</time>
      </trkpt>
      <trkpt lat="41.76006" lon="2.93619">
        <ele>524.0</ele>
        <time>2021-08-15T05:49:38Z</time>
      </trkpt>
      <trkpt lat="41.760095" lon="2.936335">
        <ele>523.0</ele>
        <time>2021-08-15T05:49:40Z</time>
      </trkpt>
      <trkpt lat="41.760148" lon="2.93646">
        <ele>522.0</ele>
        <time>2021-08-15T05:49:42Z</time>
      </trkpt>
      <trkpt lat="41.76022" lon="2.936585">
        <ele>522.0</ele>
        <time>2021-08-15T05:49:44Z</time>
      </trkpt>
      <trkpt lat="41.7603" lon="2.93668">
        <ele>521.0</ele>
        <time>2021-08-15T05:49:46Z</time>
      </trkpt>
      <trkpt lat="41.760365" lon="2.93679">
        <ele>521.0</ele>
        <time>2021-08-15T05:49:48Z</time>
      </trkpt>
      <trkpt lat="41.76039" lon="2.936915">
        <ele>521.0</ele>
        <time>2021-08-15T05:49:50Z</time>
      </trkpt>
      <trkpt lat="41.76042" lon="2.937035">
        <ele>521.0</ele>
        <time>2021-08-15T05:49:52Z</time>
      </trkpt>
      <trkpt lat="41.76044" lon="2.93714">
        <ele>520.0</ele>
        <time>2021-08-15T05:49:54Z</time>
      </trkpt>
      <trkpt lat="41.76046" lon="2.93723">
        <ele>521.0</ele>
        <time>2021-08-15T05:49:56Z</time>
      </trkpt>
      <trkpt lat="41.76051" lon="2.93736">
        <ele>521.0</ele>
        <time>2021-08-15T05:49:59Z</time>
      </trkpt>
      <trkpt lat="41.760547" lon="2.93748">
        <ele>522.0</ele>
        <time>2021-08-15T05:50:02Z</time>
      </trkpt>
      <trkpt lat="41.7606" lon="2.937585">
        <ele>523.0</ele>
        <time>2021-08-15T05:50:05Z</time>
      </trkpt>
      <trkpt lat="41.76065" lon="2.93769">
        <ele>523.0</ele>
        <time>2021-08-15T05:50:08Z</time>
      </trkpt>
      <trkpt lat="41.760715" lon="2.937775">
        <ele>523.0</ele>
        <time>2021-08-15T05:50:11Z</time>
      </trkpt>
      <trkpt lat="41.76079" lon="2.93785">
        <ele>524.0</ele>
        <time>2021-08-15T05:50:14Z</time>
      </trkpt>
      <trkpt lat="41.76088" lon="2.937903">
        <ele>524.0</ele>
        <time>2021-08-15T05:50:17Z</time>
      </trkpt>
      <trkpt lat="41.760975" lon="2.937955">
        <ele>524.0</ele>
        <time>2021-08-15T05:50:20Z</time>
      </trkpt>
      <trkpt lat="41.761075" lon="2.937995">
        <ele>524.0</ele>
        <time>2021-08-15T05:50:23Z</time>
      </trkpt>
      <trkpt lat="41.76117" lon="2.93806">
        <ele>525.0</ele>
        <time>2021-08-15T05:50:26Z</time>
      </trkpt>
      <trkpt lat="41.761255" lon="2.93812">
        <ele>525.0</ele>
        <time>2021-08-15T05:50:29Z</time>
      </trkpt>
      <trkpt lat="41.76133" lon="2.93819">
        <ele>525.0</ele>
        <time>2021-08-15T05:50:32Z</time>
      </trkpt>
      <trkpt lat="41.7614" lon="2.938255">
        <ele>525.0</ele>
        <time>2021-08-15T05:50:35Z</time>
      </trkpt>
      <trkpt lat="41.761465" lon="2.938325">
        <ele>526.0</ele>
        <time>2021-08-15T05:50:39Z</time>
      </trkpt>
      <trkpt lat="41.761525" lon="2.938405">
        <ele>527.0</ele>
        <time>2021-08-15T05:50:43Z</time>
      </trkpt>
      <trkpt lat="41.761585" lon="2.938495">
        <ele>528.0</ele>
        <time>2021-08-15T05:50:46Z</time>
      </trkpt>
      <trkpt lat="41.76163" lon="2.93857">
        <ele>527.0</ele>
        <time>2021-08-15T05:50:48Z</time>
      </trkpt>
      <trkpt lat="41.76169" lon="2.93865">
        <ele>525.0</ele>
        <time>2021-08-15T05:50:50Z</time>
      </trkpt>
      <trkpt lat="41.76174" lon="2.93873">
        <ele>525.0</ele>
        <time>2021-08-15T05:50:52Z</time>
      </trkpt>
      <trkpt lat="41.7618" lon="2.938795">
        <ele>525.0</ele>
        <time>2021-08-15T05:50:54Z</time>
      </trkpt>
      <trkpt lat="41.76185" lon="2.93887">
        <ele>525.0</ele>
        <time>2021-08-15T05:50:58Z</time>
      </trkpt>
      <trkpt lat="41.761855" lon="2.93888">
        <ele>525.0</ele>
        <time>2021-08-15T05:51:05Z</time>
      </trkpt>
      <trkpt lat="41.761855" lon="2.93888">
        <ele>525.0</ele>
        <time>2021-08-15T05:51:06Z</time>
      </trkpt>
      <trkpt lat="41.76187" lon="2.938885">
        <ele>526.0</ele>
        <time>2021-08-15T05:53:18Z</time>
      </trkpt>
      <trkpt lat="41.76187" lon="2.938885">
        <ele>526.0</ele>
        <time>2021-08-15T05:53:19Z</time>
      </trkpt>
      <trkpt lat="41.76196" lon="2.93891">
        <ele>526.0</ele>
        <time>2021-08-15T05:53:30Z</time>
      </trkpt>
      <trkpt lat="41.76205" lon="2.93897">
        <ele>525.0</ele>
        <time>2021-08-15T05:53:33Z</time>
      </trkpt>
      <trkpt lat="41.762135" lon="2.938983">
        <ele>523.0</ele>
        <time>2021-08-15T05:53:35Z</time>
      </trkpt>
      <trkpt lat="41.76222" lon="2.938983">
        <ele>521.0</ele>
        <time>2021-08-15T05:53:37Z</time>
      </trkpt>
      <trkpt lat="41.762315" lon="2.939">
        <ele>519.0</ele>
        <time>2021-08-15T05:53:39Z</time>
      </trkpt>
      <trkpt lat="41.76241" lon="2.939035">
        <ele>519.0</ele>
        <time>2021-08-15T05:53:41Z</time>
      </trkpt>
      <trkpt lat="41.76249" lon="2.939095">
        <ele>516.0</ele>
        <time>2021-08-15T05:53:43Z</time>
      </trkpt>
      <trkpt lat="41.76257" lon="2.939165">
        <ele>515.0</ele>
        <time>2021-08-15T05:53:45Z</time>
      </trkpt>
      <trkpt lat="41.76265" lon="2.93922">
        <ele>515.0</ele>
        <time>2021-08-15T05:53:47Z</time>
      </trkpt>
      <trkpt lat="41.76274" lon="2.939253">
        <ele>514.0</ele>
        <time>2021-08-15T05:53:49Z</time>
      </trkpt>
      <trkpt lat="41.76283" lon="2.939272">
        <ele>514.0</ele>
        <time>2021-08-15T05:53:51Z</time>
      </trkpt>
      <trkpt lat="41.762915" lon="2.93927">
        <ele>513.0</ele>
        <time>2021-08-15T05:53:53Z</time>
      </trkpt>
      <trkpt lat="41.762985" lon="2.939287">
        <ele>512.0</ele>
        <time>2021-08-15T05:53:55Z</time>
      </trkpt>
      <trkpt lat="41.76306" lon="2.93932">
        <ele>512.0</ele>
        <time>2021-08-15T05:53:58Z</time>
      </trkpt>
      <trkpt lat="41.763065" lon="2.93934">
        <ele>511.0</ele>
        <time>2021-08-15T05:54:05Z</time>
      </trkpt>
      <trkpt lat="41.763065" lon="2.93934">
        <ele>511.0</ele>
        <time>2021-08-15T05:54:07Z</time>
      </trkpt>
      <trkpt lat="41.763065" lon="2.939343">
        <ele>510.0</ele>
        <time>2021-08-15T05:54:17Z</time>
      </trkpt>
      <trkpt lat="41.763065" lon="2.939343">
        <ele>510.0</ele>
        <time>2021-08-15T05:54:18Z</time>
      </trkpt>
      <trkpt lat="41.76307" lon="2.939357">
        <ele>510.0</ele>
        <time>2021-08-15T05:54:52Z</time>
      </trkpt>
      <trkpt lat="41.76307" lon="2.939357">
        <ele>510.0</ele>
        <time>2021-08-15T05:54:53Z</time>
      </trkpt>
      <trkpt lat="41.763075" lon="2.939365">
        <ele>510.0</ele>
        <time>2021-08-15T05:55:14Z</time>
      </trkpt>
      <trkpt lat="41.763075" lon="2.939365">
        <ele>510.0</ele>
        <time>2021-08-15T05:55:15Z</time>
      </trkpt>
      <trkpt lat="41.76312" lon="2.939445">
        <ele>507.0</ele>
        <time>2021-08-15T05:56:10Z</time>
      </trkpt>
      <trkpt lat="41.76308" lon="2.939545">
        <ele>508.0</ele>
        <time>2021-08-15T05:56:14Z</time>
      </trkpt>
      <trkpt lat="41.763025" lon="2.939622">
        <ele>508.0</ele>
        <time>2021-08-15T05:56:19Z</time>
      </trkpt>
      <trkpt lat="41.762975" lon="2.939715">
        <ele>509.0</ele>
        <time>2021-08-15T05:56:24Z</time>
      </trkpt>
      <trkpt lat="41.762925" lon="2.9398">
        <ele>509.0</ele>
        <time>2021-08-15T05:56:28Z</time>
      </trkpt>
      <trkpt lat="41.76287" lon="2.939882">
        <ele>509.0</ele>
        <time>2021-08-15T05:56:32Z</time>
      </trkpt>
      <trkpt lat="41.762812" lon="2.939968">
        <ele>510.0</ele>
        <time>2021-08-15T05:56:36Z</time>
      </trkpt>
      <trkpt lat="41.76276" lon="2.940057">
        <ele>511.0</ele>
        <time>2021-08-15T05:56:40Z</time>
      </trkpt>
      <trkpt lat="41.762695" lon="2.940152">
        <ele>512.0</ele>
        <time>2021-08-15T05:56:44Z</time>
      </trkpt>
      <trkpt lat="41.76264" lon="2.940245">
        <ele>512.0</ele>
        <time>2021-08-15T05:56:48Z</time>
      </trkpt>
      <trkpt lat="41.76258" lon="2.940333">
        <ele>514.0</ele>
        <time>2021-08-15T05:56:52Z</time>
      </trkpt>
      <trkpt lat="41.762525" lon="2.940415">
        <ele>515.0</ele>
        <time>2021-08-15T05:56:56Z</time>
      </trkpt>
      <trkpt lat="41.76245" lon="2.94048">
        <ele>517.0</ele>
        <time>2021-08-15T05:57:00Z</time>
      </trkpt>
      <trkpt lat="41.76238" lon="2.94055">
        <ele>517.0</ele>
        <time>2021-08-15T05:57:04Z</time>
      </trkpt>
      <trkpt lat="41.762335" lon="2.94063">
        <ele>518.0</ele>
        <time>2021-08-15T05:57:07Z</time>
      </trkpt>
      <trkpt lat="41.76231" lon="2.94072">
        <ele>519.0</ele>
        <time>2021-08-15T05:57:10Z</time>
      </trkpt>
      <trkpt lat="41.76232" lon="2.94082">
        <ele>518.0</ele>
        <time>2021-08-15T05:57:13Z</time>
      </trkpt>
      <trkpt lat="41.76233" lon="2.940945">
        <ele>518.0</ele>
        <time>2021-08-15T05:57:17Z</time>
      </trkpt>
      <trkpt lat="41.762315" lon="2.941065">
        <ele>518.0</ele>
        <time>2021-08-15T05:57:21Z</time>
      </trkpt>
      <trkpt lat="41.762273" lon="2.941147">
        <ele>519.0</ele>
        <time>2021-08-15T05:57:24Z</time>
      </trkpt>
      <trkpt lat="41.76224" lon="2.941247">
        <ele>518.0</ele>
        <time>2021-08-15T05:57:27Z</time>
      </trkpt>
      <trkpt lat="41.76219" lon="2.941325">
        <ele>519.0</ele>
        <time>2021-08-15T05:57:30Z</time>
      </trkpt>
      <trkpt lat="41.76213" lon="2.9414">
        <ele>518.0</ele>
        <time>2021-08-15T05:57:36Z</time>
      </trkpt>
      <trkpt lat="41.762065" lon="2.94149">
        <ele>518.0</ele>
        <time>2021-08-15T05:57:39Z</time>
      </trkpt>
      <trkpt lat="41.76198" lon="2.941582">
        <ele>516.0</ele>
        <time>2021-08-15T05:57:42Z</time>
      </trkpt>
      <trkpt lat="41.76192" lon="2.941645">
        <ele>514.0</ele>
        <time>2021-08-15T05:57:44Z</time>
      </trkpt>
      <trkpt lat="41.76187" lon="2.941715">
        <ele>514.0</ele>
        <time>2021-08-15T05:57:47Z</time>
      </trkpt>
      <trkpt lat="41.761805" lon="2.94178">
        <ele>514.0</ele>
        <time>2021-08-15T05:57:52Z</time>
      </trkpt>
      <trkpt lat="41.76175" lon="2.94185">
        <ele>515.0</ele>
        <time>2021-08-15T05:57:56Z</time>
      </trkpt>
      <trkpt lat="41.76169" lon="2.941915">
        <ele>515.0</ele>
        <time>2021-08-15T05:57:59Z</time>
      </trkpt>
      <trkpt lat="41.7616" lon="2.94201">
        <ele>516.0</ele>
        <time>2021-08-15T05:58:02Z</time>
      </trkpt>
      <trkpt lat="41.761525" lon="2.942085">
        <ele>516.0</ele>
        <time>2021-08-15T05:58:04Z</time>
      </trkpt>
      <trkpt lat="41.761435" lon="2.942145">
        <ele>515.0</ele>
        <time>2021-08-15T05:58:06Z</time>
      </trkpt>
      <trkpt lat="41.76133" lon="2.94218">
        <ele>515.0</ele>
        <time>2021-08-15T05:58:08Z</time>
      </trkpt>
      <trkpt lat="41.76123" lon="2.94219">
        <ele>514.0</ele>
        <time>2021-08-15T05:58:10Z</time>
      </trkpt>
      <trkpt lat="41.761115" lon="2.94217">
        <ele>513.0</ele>
        <time>2021-08-15T05:58:12Z</time>
      </trkpt>
      <trkpt lat="41.76101" lon="2.942122">
        <ele>513.0</ele>
        <time>2021-08-15T05:58:14Z</time>
      </trkpt>
      <trkpt lat="41.760905" lon="2.942128">
        <ele>512.0</ele>
        <time>2021-08-15T05:58:16Z</time>
      </trkpt>
      <trkpt lat="41.760815" lon="2.942175">
        <ele>512.0</ele>
        <time>2021-08-15T05:58:18Z</time>
      </trkpt>
      <trkpt lat="41.760735" lon="2.94227">
        <ele>511.0</ele>
        <time>2021-08-15T05:58:20Z</time>
      </trkpt>
      <trkpt lat="41.760675" lon="2.942415">
        <ele>509.0</ele>
        <time>2021-08-15T05:58:22Z</time>
      </trkpt>
      <trkpt lat="41.76061" lon="2.942565">
        <ele>508.0</ele>
        <time>2021-08-15T05:58:24Z</time>
      </trkpt>
      <trkpt lat="41.760565" lon="2.94265">
        <ele>507.0</ele>
        <time>2021-08-15T05:58:25Z</time>
      </trkpt>
      <trkpt lat="41.76047" lon="2.942795">
        <ele>505.0</ele>
        <time>2021-08-15T05:58:27Z</time>
      </trkpt>
      <trkpt lat="41.76042" lon="2.942867">
        <ele>504.0</ele>
        <time>2021-08-15T05:58:28Z</time>
      </trkpt>
      <trkpt lat="41.760375" lon="2.942945">
        <ele>504.0</ele>
        <time>2021-08-15T05:58:29Z</time>
      </trkpt>
      <trkpt lat="41.760315" lon="2.943095">
        <ele>502.0</ele>
        <time>2021-08-15T05:58:31Z</time>
      </trkpt>
      <trkpt lat="41.760265" lon="2.94324">
        <ele>501.0</ele>
        <time>2021-08-15T05:58:33Z</time>
      </trkpt>
      <trkpt lat="41.76022" lon="2.943375">
        <ele>500.0</ele>
        <time>2021-08-15T05:58:35Z</time>
      </trkpt>
      <trkpt lat="41.76016" lon="2.943468">
        <ele>500.0</ele>
        <time>2021-08-15T05:58:37Z</time>
      </trkpt>
      <trkpt lat="41.760075" lon="2.943525">
        <ele>500.0</ele>
        <time>2021-08-15T05:58:39Z</time>
      </trkpt>
      <trkpt lat="41.759995" lon="2.943555">
        <ele>499.0</ele>
        <time>2021-08-15T05:58:41Z</time>
      </trkpt>
      <trkpt lat="41.75992" lon="2.943575">
        <ele>499.0</ele>
        <time>2021-08-15T05:58:43Z</time>
      </trkpt>
      <trkpt lat="41.75983" lon="2.94361">
        <ele>499.0</ele>
        <time>2021-08-15T05:58:45Z</time>
      </trkpt>
      <trkpt lat="41.75972" lon="2.943645">
        <ele>499.0</ele>
        <time>2021-08-15T05:58:47Z</time>
      </trkpt>
      <trkpt lat="41.759595" lon="2.943685">
        <ele>498.0</ele>
        <time>2021-08-15T05:58:49Z</time>
      </trkpt>
      <trkpt lat="41.759525" lon="2.94372">
        <ele>497.0</ele>
        <time>2021-08-15T05:58:50Z</time>
      </trkpt>
      <trkpt lat="41.759455" lon="2.943752">
        <ele>496.0</ele>
        <time>2021-08-15T05:58:51Z</time>
      </trkpt>
      <trkpt lat="41.75938" lon="2.94379">
        <ele>496.0</ele>
        <time>2021-08-15T05:58:52Z</time>
      </trkpt>
      <trkpt lat="41.759305" lon="2.943825">
        <ele>495.0</ele>
        <time>2021-08-15T05:58:53Z</time>
      </trkpt>
      <trkpt lat="41.75923" lon="2.943848">
        <ele>494.0</ele>
        <time>2021-08-15T05:58:54Z</time>
      </trkpt>
      <trkpt lat="41.75915" lon="2.94388">
        <ele>493.0</ele>
        <time>2021-08-15T05:58:55Z</time>
      </trkpt>
      <trkpt lat="41.759075" lon="2.9439">
        <ele>493.0</ele>
        <time>2021-08-15T05:58:56Z</time>
      </trkpt>
      <trkpt lat="41.759005" lon="2.943915">
        <ele>492.0</ele>
        <time>2021-08-15T05:58:57Z</time>
      </trkpt>
      <trkpt lat="41.75889" lon="2.943965">
        <ele>492.0</ele>
        <time>2021-08-15T05:58:59Z</time>
      </trkpt>
      <trkpt lat="41.758803" lon="2.944005">
        <ele>491.0</ele>
        <time>2021-08-15T05:59:01Z</time>
      </trkpt>
      <trkpt lat="41.758715" lon="2.944055">
        <ele>490.0</ele>
        <time>2021-08-15T05:59:04Z</time>
      </trkpt>
      <trkpt lat="41.75863" lon="2.944115">
        <ele>489.0</ele>
        <time>2021-08-15T05:59:07Z</time>
      </trkpt>
      <trkpt lat="41.758585" lon="2.94422">
        <ele>487.0</ele>
        <time>2021-08-15T05:59:10Z</time>
      </trkpt>
      <trkpt lat="41.758557" lon="2.94432">
        <ele>486.0</ele>
        <time>2021-08-15T05:59:14Z</time>
      </trkpt>
      <trkpt lat="41.75855" lon="2.944445">
        <ele>484.0</ele>
        <time>2021-08-15T05:59:19Z</time>
      </trkpt>
      <trkpt lat="41.75851" lon="2.944547">
        <ele>483.0</ele>
        <time>2021-08-15T05:59:22Z</time>
      </trkpt>
      <trkpt lat="41.758485" lon="2.944638">
        <ele>483.0</ele>
        <time>2021-08-15T05:59:24Z</time>
      </trkpt>
      <trkpt lat="41.75846" lon="2.944735">
        <ele>482.0</ele>
        <time>2021-08-15T05:59:26Z</time>
      </trkpt>
      <trkpt lat="41.75846" lon="2.944845">
        <ele>481.0</ele>
        <time>2021-08-15T05:59:30Z</time>
      </trkpt>
      <trkpt lat="41.75847" lon="2.944865">
        <ele>482.0</ele>
        <time>2021-08-15T05:59:37Z</time>
      </trkpt>
      <trkpt lat="41.75847" lon="2.944865">
        <ele>482.0</ele>
        <time>2021-08-15T05:59:39Z</time>
      </trkpt>
      <trkpt lat="41.758475" lon="2.94497">
        <ele>482.0</ele>
        <time>2021-08-15T05:59:46Z</time>
      </trkpt>
      <trkpt lat="41.758488" lon="2.94508">
        <ele>481.0</ele>
        <time>2021-08-15T05:59:49Z</time>
      </trkpt>
      <trkpt lat="41.758535" lon="2.94518">
        <ele>480.0</ele>
        <time>2021-08-15T05:59:52Z</time>
      </trkpt>
      <trkpt lat="41.75859" lon="2.945265">
        <ele>480.0</ele>
        <time>2021-08-15T05:59:55Z</time>
      </trkpt>
      <trkpt lat="41.75866" lon="2.945345">
        <ele>480.0</ele>
        <time>2021-08-15T05:59:58Z</time>
      </trkpt>
      <trkpt lat="41.758755" lon="2.945415">
        <ele>480.0</ele>
        <time>2021-08-15T06:00:01Z</time>
      </trkpt>
      <trkpt lat="41.758825" lon="2.945455">
        <ele>479.0</ele>
        <time>2021-08-15T06:00:03Z</time>
      </trkpt>
      <trkpt lat="41.758935" lon="2.94548">
        <ele>478.0</ele>
        <time>2021-08-15T06:00:06Z</time>
      </trkpt>
      <trkpt lat="41.759025" lon="2.945485">
        <ele>478.0</ele>
        <time>2021-08-15T06:00:08Z</time>
      </trkpt>
      <trkpt lat="41.759125" lon="2.945457">
        <ele>477.0</ele>
        <time>2021-08-15T06:00:10Z</time>
      </trkpt>
      <trkpt lat="41.75921" lon="2.945435">
        <ele>475.0</ele>
        <time>2021-08-15T06:00:12Z</time>
      </trkpt>
      <trkpt lat="41.75929" lon="2.945435">
        <ele>475.0</ele>
        <time>2021-08-15T06:00:14Z</time>
      </trkpt>
      <trkpt lat="41.759365" lon="2.945458">
        <ele>475.0</ele>
        <time>2021-08-15T06:00:16Z</time>
      </trkpt>
      <trkpt lat="41.75944" lon="2.945527">
        <ele>474.0</ele>
        <time>2021-08-15T06:00:18Z</time>
      </trkpt>
      <trkpt lat="41.75951" lon="2.945665">
        <ele>474.0</ele>
        <time>2021-08-15T06:00:20Z</time>
      </trkpt>
      <trkpt lat="41.759575" lon="2.945805">
        <ele>474.0</ele>
        <time>2021-08-15T06:00:22Z</time>
      </trkpt>
      <trkpt lat="41.75963" lon="2.945935">
        <ele>474.0</ele>
        <time>2021-08-15T06:00:24Z</time>
      </trkpt>
      <trkpt lat="41.75969" lon="2.946085">
        <ele>473.0</ele>
        <time>2021-08-15T06:00:26Z</time>
      </trkpt>
      <trkpt lat="41.759755" lon="2.94626">
        <ele>471.0</ele>
        <time>2021-08-15T06:00:28Z</time>
      </trkpt>
      <trkpt lat="41.759787" lon="2.94637">
        <ele>470.0</ele>
        <time>2021-08-15T06:00:29Z</time>
      </trkpt>
      <trkpt lat="41.759825" lon="2.946465">
        <ele>469.0</ele>
        <time>2021-08-15T06:00:30Z</time>
      </trkpt>
      <trkpt lat="41.759853" lon="2.946545">
        <ele>468.0</ele>
        <time>2021-08-15T06:00:31Z</time>
      </trkpt>
      <trkpt lat="41.759895" lon="2.94664">
        <ele>466.0</ele>
        <time>2021-08-15T06:00:32Z</time>
      </trkpt>
      <trkpt lat="41.759955" lon="2.946803">
        <ele>462.0</ele>
        <time>2021-08-15T06:00:34Z</time>
      </trkpt>
      <trkpt lat="41.759995" lon="2.94696">
        <ele>460.0</ele>
        <time>2021-08-15T06:00:36Z</time>
      </trkpt>
      <trkpt lat="41.76006" lon="2.947085">
        <ele>458.0</ele>
        <time>2021-08-15T06:00:38Z</time>
      </trkpt>
      <trkpt lat="41.76016" lon="2.94715">
        <ele>456.0</ele>
        <time>2021-08-15T06:00:40Z</time>
      </trkpt>
      <trkpt lat="41.760235" lon="2.947147">
        <ele>455.0</ele>
        <time>2021-08-15T06:00:41Z</time>
      </trkpt>
      <trkpt lat="41.7603" lon="2.94712">
        <ele>455.0</ele>
        <time>2021-08-15T06:00:42Z</time>
      </trkpt>
      <trkpt lat="41.76037" lon="2.947075">
        <ele>454.0</ele>
        <time>2021-08-15T06:00:43Z</time>
      </trkpt>
      <trkpt lat="41.76043" lon="2.947015">
        <ele>454.0</ele>
        <time>2021-08-15T06:00:44Z</time>
      </trkpt>
      <trkpt lat="41.76048" lon="2.946945">
        <ele>454.0</ele>
        <time>2021-08-15T06:00:45Z</time>
      </trkpt>
      <trkpt lat="41.760547" lon="2.94679">
        <ele>453.0</ele>
        <time>2021-08-15T06:00:47Z</time>
      </trkpt>
      <trkpt lat="41.760585" lon="2.94663">
        <ele>452.0</ele>
        <time>2021-08-15T06:00:49Z</time>
      </trkpt>
      <trkpt lat="41.760615" lon="2.946505">
        <ele>451.0</ele>
        <time>2021-08-15T06:00:51Z</time>
      </trkpt>
      <trkpt lat="41.760675" lon="2.946425">
        <ele>450.0</ele>
        <time>2021-08-15T06:00:53Z</time>
      </trkpt>
      <trkpt lat="41.760765" lon="2.946465">
        <ele>449.0</ele>
        <time>2021-08-15T06:00:55Z</time>
      </trkpt>
      <trkpt lat="41.760815" lon="2.946613">
        <ele>449.0</ele>
        <time>2021-08-15T06:00:57Z</time>
      </trkpt>
      <trkpt lat="41.760835" lon="2.946785">
        <ele>447.0</ele>
        <time>2021-08-15T06:00:59Z</time>
      </trkpt>
      <trkpt lat="41.760875" lon="2.94696">
        <ele>446.0</ele>
        <time>2021-08-15T06:01:01Z</time>
      </trkpt>
      <trkpt lat="41.76088" lon="2.947115">
        <ele>445.0</ele>
        <time>2021-08-15T06:01:03Z</time>
      </trkpt>
      <trkpt lat="41.76083" lon="2.947275">
        <ele>444.0</ele>
        <time>2021-08-15T06:01:05Z</time>
      </trkpt>
      <trkpt lat="41.760735" lon="2.947395">
        <ele>443.0</ele>
        <time>2021-08-15T06:01:07Z</time>
      </trkpt>
      <trkpt lat="41.760618" lon="2.94748">
        <ele>442.0</ele>
        <time>2021-08-15T06:01:09Z</time>
      </trkpt>
      <trkpt lat="41.76052" lon="2.94757">
        <ele>440.0</ele>
        <time>2021-08-15T06:01:11Z</time>
      </trkpt>
      <trkpt lat="41.76042" lon="2.947675">
        <ele>439.0</ele>
        <time>2021-08-15T06:01:13Z</time>
      </trkpt>
      <trkpt lat="41.76032" lon="2.94776">
        <ele>439.0</ele>
        <time>2021-08-15T06:01:15Z</time>
      </trkpt>
      <trkpt lat="41.7602" lon="2.947825">
        <ele>437.0</ele>
        <time>2021-08-15T06:01:17Z</time>
      </trkpt>
      <trkpt lat="41.760065" lon="2.947862">
        <ele>436.0</ele>
        <time>2021-08-15T06:01:19Z</time>
      </trkpt>
      <trkpt lat="41.75994" lon="2.947887">
        <ele>436.0</ele>
        <time>2021-08-15T06:01:21Z</time>
      </trkpt>
      <trkpt lat="41.75983" lon="2.947925">
        <ele>435.0</ele>
        <time>2021-08-15T06:01:23Z</time>
      </trkpt>
      <trkpt lat="41.759745" lon="2.94795">
        <ele>435.0</ele>
        <time>2021-08-15T06:01:25Z</time>
      </trkpt>
      <trkpt lat="41.759675" lon="2.947965">
        <ele>435.0</ele>
        <time>2021-08-15T06:01:27Z</time>
      </trkpt>
      <trkpt lat="41.75961" lon="2.94802">
        <ele>435.0</ele>
        <time>2021-08-15T06:01:30Z</time>
      </trkpt>
      <trkpt lat="41.75958" lon="2.94812">
        <ele>434.0</ele>
        <time>2021-08-15T06:01:33Z</time>
      </trkpt>
      <trkpt lat="41.75951" lon="2.948157">
        <ele>434.0</ele>
        <time>2021-08-15T06:01:36Z</time>
      </trkpt>
      <trkpt lat="41.75944" lon="2.948185">
        <ele>434.0</ele>
        <time>2021-08-15T06:01:39Z</time>
      </trkpt>
      <trkpt lat="41.759365" lon="2.94815">
        <ele>434.0</ele>
        <time>2021-08-15T06:01:45Z</time>
      </trkpt>
      <trkpt lat="41.759315" lon="2.94822">
        <ele>434.0</ele>
        <time>2021-08-15T06:01:50Z</time>
      </trkpt>
      <trkpt lat="41.759235" lon="2.948195">
        <ele>434.0</ele>
        <time>2021-08-15T06:01:55Z</time>
      </trkpt>
      <trkpt lat="41.759175" lon="2.94815">
        <ele>435.0</ele>
        <time>2021-08-15T06:02:02Z</time>
      </trkpt>
      <trkpt lat="41.75918" lon="2.94825">
        <ele>431.0</ele>
        <time>2021-08-15T06:02:09Z</time>
      </trkpt>
      <trkpt lat="41.759265" lon="2.94821">
        <ele>429.0</ele>
        <time>2021-08-15T06:02:15Z</time>
      </trkpt>
      <trkpt lat="41.759345" lon="2.948195">
        <ele>429.0</ele>
        <time>2021-08-15T06:02:19Z</time>
      </trkpt>
      <trkpt lat="41.75942" lon="2.948165">
        <ele>429.0</ele>
        <time>2021-08-15T06:02:23Z</time>
      </trkpt>
      <trkpt lat="41.75952" lon="2.94815">
        <ele>429.0</ele>
        <time>2021-08-15T06:02:27Z</time>
      </trkpt>
      <trkpt lat="41.759605" lon="2.948155">
        <ele>429.0</ele>
        <time>2021-08-15T06:02:30Z</time>
      </trkpt>
      <trkpt lat="41.759685" lon="2.948175">
        <ele>429.0</ele>
        <time>2021-08-15T06:02:33Z</time>
      </trkpt>
      <trkpt lat="41.75975" lon="2.94822">
        <ele>428.0</ele>
        <time>2021-08-15T06:02:38Z</time>
      </trkpt>
      <trkpt lat="41.75983" lon="2.948195">
        <ele>428.0</ele>
        <time>2021-08-15T06:02:45Z</time>
      </trkpt>
      <trkpt lat="41.7599" lon="2.948165">
        <ele>428.0</ele>
        <time>2021-08-15T06:02:51Z</time>
      </trkpt>
      <trkpt lat="41.759905" lon="2.948165">
        <ele>428.0</ele>
        <time>2021-08-15T06:02:57Z</time>
      </trkpt>
      <trkpt lat="41.75991" lon="2.948155">
        <ele>427.0</ele>
        <time>2021-08-15T06:03:30Z</time>
      </trkpt>
      <trkpt lat="41.75991" lon="2.948155">
        <ele>427.0</ele>
        <time>2021-08-15T06:03:31Z</time>
      </trkpt>
      <trkpt lat="41.75983" lon="2.948175">
        <ele>429.0</ele>
        <time>2021-08-15T06:03:58Z</time>
      </trkpt>
      <trkpt lat="41.759755" lon="2.94821">
        <ele>430.0</ele>
        <time>2021-08-15T06:04:04Z</time>
      </trkpt>
      <trkpt lat="41.759702" lon="2.948133">
        <ele>431.0</ele>
        <time>2021-08-15T06:04:10Z</time>
      </trkpt>
      <trkpt lat="41.759735" lon="2.94803">
        <ele>431.0</ele>
        <time>2021-08-15T06:04:15Z</time>
      </trkpt>
      <trkpt lat="41.759655" lon="2.947985">
        <ele>431.0</ele>
        <time>2021-08-15T06:04:22Z</time>
      </trkpt>
      <trkpt lat="41.75961" lon="2.94806">
        <ele>431.0</ele>
        <time>2021-08-15T06:04:25Z</time>
      </trkpt>
      <trkpt lat="41.759555" lon="2.948138">
        <ele>431.0</ele>
        <time>2021-08-15T06:04:28Z</time>
      </trkpt>
      <trkpt lat="41.759495" lon="2.94822">
        <ele>430.0</ele>
        <time>2021-08-15T06:04:32Z</time>
      </trkpt>
      <trkpt lat="41.759445" lon="2.948325">
        <ele>431.0</ele>
        <time>2021-08-15T06:04:37Z</time>
      </trkpt>
      <trkpt lat="41.759415" lon="2.94841">
        <ele>428.0</ele>
        <time>2021-08-15T06:04:43Z</time>
      </trkpt>
      <trkpt lat="41.759465" lon="2.948445">
        <ele>426.0</ele>
        <time>2021-08-15T06:04:50Z</time>
      </trkpt>
      <trkpt lat="41.75951" lon="2.94842">
        <ele>425.0</ele>
        <time>2021-08-15T06:04:57Z</time>
      </trkpt>
      <trkpt lat="41.75951" lon="2.94842">
        <ele>424.0</ele>
        <time>2021-08-15T06:05:03Z</time>
      </trkpt>
      <trkpt lat="41.759505" lon="2.94834">
        <ele>425.0</ele>
        <time>2021-08-15T06:05:10Z</time>
      </trkpt>
      <trkpt lat="41.7595" lon="2.948232">
        <ele>425.0</ele>
        <time>2021-08-15T06:05:15Z</time>
      </trkpt>
      <trkpt lat="41.759465" lon="2.948175">
        <ele>429.0</ele>
        <time>2021-08-15T06:05:22Z</time>
      </trkpt>
      <trkpt lat="41.759385" lon="2.9482">
        <ele>429.0</ele>
        <time>2021-08-15T06:05:27Z</time>
      </trkpt>
      <trkpt lat="41.759305" lon="2.9482">
        <ele>430.0</ele>
        <time>2021-08-15T06:05:32Z</time>
      </trkpt>
      <trkpt lat="41.75923" lon="2.94818">
        <ele>431.0</ele>
        <time>2021-08-15T06:05:36Z</time>
      </trkpt>
      <trkpt lat="41.75916" lon="2.948155">
        <ele>432.0</ele>
        <time>2021-08-15T06:05:40Z</time>
      </trkpt>
      <trkpt lat="41.759085" lon="2.94815">
        <ele>432.0</ele>
        <time>2021-08-15T06:05:44Z</time>
      </trkpt>
      <trkpt lat="41.75901" lon="2.94813">
        <ele>432.0</ele>
        <time>2021-08-15T06:05:48Z</time>
      </trkpt>
      <trkpt lat="41.758938" lon="2.94807">
        <ele>432.0</ele>
        <time>2021-08-15T06:05:52Z</time>
      </trkpt>
      <trkpt lat="41.75892" lon="2.94801">
        <ele>430.0</ele>
        <time>2021-08-15T06:05:59Z</time>
      </trkpt>
      <trkpt lat="41.75893" lon="2.94799">
        <ele>430.0</ele>
        <time>2021-08-15T06:06:06Z</time>
      </trkpt>
      <trkpt lat="41.75893" lon="2.94799">
        <ele>430.0</ele>
        <time>2021-08-15T06:06:10Z</time>
      </trkpt>
      <trkpt lat="41.758935" lon="2.947985">
        <ele>427.0</ele>
        <time>2021-08-15T06:06:21Z</time>
      </trkpt>
      <trkpt lat="41.758938" lon="2.947995">
        <ele>426.0</ele>
        <time>2021-08-15T06:06:28Z</time>
      </trkpt>
      <trkpt lat="41.758938" lon="2.947995">
        <ele>426.0</ele>
        <time>2021-08-15T06:06:29Z</time>
      </trkpt>
      <trkpt lat="41.758985" lon="2.948085">
        <ele>424.0</ele>
        <time>2021-08-15T06:06:38Z</time>
      </trkpt>
      <trkpt lat="41.75905" lon="2.94813">
        <ele>423.0</ele>
        <time>2021-08-15T06:06:42Z</time>
      </trkpt>
      <trkpt lat="41.759125" lon="2.948165">
        <ele>423.0</ele>
        <time>2021-08-15T06:06:46Z</time>
      </trkpt>
      <trkpt lat="41.7592" lon="2.9482">
        <ele>423.0</ele>
        <time>2021-08-15T06:06:50Z</time>
      </trkpt>
      <trkpt lat="41.759275" lon="2.94822">
        <ele>422.0</ele>
        <time>2021-08-15T06:06:54Z</time>
      </trkpt>
      <trkpt lat="41.759355" lon="2.9482">
        <ele>423.0</ele>
        <time>2021-08-15T06:06:58Z</time>
      </trkpt>
      <trkpt lat="41.75939" lon="2.948115">
        <ele>424.0</ele>
        <time>2021-08-15T06:07:04Z</time>
      </trkpt>
      <trkpt lat="41.759405" lon="2.948">
        <ele>426.0</ele>
        <time>2021-08-15T06:07:09Z</time>
      </trkpt>
      <trkpt lat="41.759435" lon="2.947895">
        <ele>427.0</ele>
        <time>2021-08-15T06:07:14Z</time>
      </trkpt>
      <trkpt lat="41.759465" lon="2.947787">
        <ele>428.0</ele>
        <time>2021-08-15T06:07:19Z</time>
      </trkpt>
      <trkpt lat="41.75947" lon="2.94776">
        <ele>429.0</ele>
        <time>2021-08-15T06:07:26Z</time>
      </trkpt>
      <trkpt lat="41.75947" lon="2.94776">
        <ele>429.0</ele>
        <time>2021-08-15T06:07:28Z</time>
      </trkpt>
      <trkpt lat="41.759435" lon="2.94768">
        <ele>430.0</ele>
        <time>2021-08-15T06:07:37Z</time>
      </trkpt>
      <trkpt lat="41.75944" lon="2.947675">
        <ele>430.0</ele>
        <time>2021-08-15T06:07:44Z</time>
      </trkpt>
      <trkpt lat="41.75944" lon="2.947675">
        <ele>430.0</ele>
        <time>2021-08-15T06:07:48Z</time>
      </trkpt>
      <trkpt lat="41.75944" lon="2.94768">
        <ele>430.0</ele>
        <time>2021-08-15T06:08:04Z</time>
      </trkpt>
      <trkpt lat="41.75944" lon="2.94768">
        <ele>430.0</ele>
        <time>2021-08-15T06:08:08Z</time>
      </trkpt>
      <trkpt lat="41.759445" lon="2.94768">
        <ele>428.0</ele>
        <time>2021-08-15T06:08:28Z</time>
      </trkpt>
      <trkpt lat="41.759445" lon="2.94766">
        <ele>428.0</ele>
        <time>2021-08-15T06:08:35Z</time>
      </trkpt>
      <trkpt lat="41.759445" lon="2.94766">
        <ele>428.0</ele>
        <time>2021-08-15T06:08:38Z</time>
      </trkpt>
      <trkpt lat="41.759425" lon="2.94766">
        <ele>426.0</ele>
        <time>2021-08-15T06:08:55Z</time>
      </trkpt>
      <trkpt lat="41.759425" lon="2.94766">
        <ele>426.0</ele>
        <time>2021-08-15T06:08:56Z</time>
      </trkpt>
      <trkpt lat="41.759435" lon="2.94768">
        <ele>427.0</ele>
        <time>2021-08-15T06:09:11Z</time>
      </trkpt>
      <trkpt lat="41.759435" lon="2.94768">
        <ele>430.0</ele>
        <time>2021-08-15T06:09:18Z</time>
      </trkpt>
      <trkpt lat="41.75945" lon="2.94768">
        <ele>431.0</ele>
        <time>2021-08-15T06:09:29Z</time>
      </trkpt>
      <trkpt lat="41.75945" lon="2.94768">
        <ele>431.0</ele>
        <time>2021-08-15T06:09:31Z</time>
      </trkpt>
      <trkpt lat="41.759445" lon="2.947692">
        <ele>431.0</ele>
        <time>2021-08-15T06:09:40Z</time>
      </trkpt>
      <trkpt lat="41.759455" lon="2.947693">
        <ele>433.0</ele>
        <time>2021-08-15T06:09:47Z</time>
      </trkpt>
      <trkpt lat="41.759445" lon="2.947692">
        <ele>431.0</ele>
        <time>2021-08-15T06:10:53Z</time>
      </trkpt>
      <trkpt lat="41.759445" lon="2.947692">
        <ele>431.0</ele>
        <time>2021-08-15T06:10:55Z</time>
      </trkpt>
      <trkpt lat="41.75944" lon="2.947692">
        <ele>431.0</ele>
        <time>2021-08-15T06:11:06Z</time>
      </trkpt>
      <trkpt lat="41.75944" lon="2.94769">
        <ele>430.0</ele>
        <time>2021-08-15T06:11:08Z</time>
      </trkpt>
      <trkpt lat="41.75942" lon="2.94768">
        <ele>429.0</ele>
        <time>2021-08-15T06:11:19Z</time>
      </trkpt>
      <trkpt lat="41.75945" lon="2.947697">
        <ele>428.0</ele>
        <time>2021-08-15T06:11:26Z</time>
      </trkpt>
      <trkpt lat="41.759455" lon="2.947735">
        <ele>428.0</ele>
        <time>2021-08-15T06:11:33Z</time>
      </trkpt>
      <trkpt lat="41.759445" lon="2.94786">
        <ele>428.0</ele>
        <time>2021-08-15T06:11:38Z</time>
      </trkpt>
      <trkpt lat="41.759407" lon="2.947945">
        <ele>428.0</ele>
        <time>2021-08-15T06:11:41Z</time>
      </trkpt>
      <trkpt lat="41.759375" lon="2.948042">
        <ele>428.0</ele>
        <time>2021-08-15T06:11:45Z</time>
      </trkpt>
      <trkpt lat="41.7594" lon="2.948138">
        <ele>428.0</ele>
        <time>2021-08-15T06:11:50Z</time>
      </trkpt>
      <trkpt lat="41.759465" lon="2.948195">
        <ele>428.0</ele>
        <time>2021-08-15T06:11:54Z</time>
      </trkpt>
      <trkpt lat="41.759525" lon="2.94827">
        <ele>427.0</ele>
        <time>2021-08-15T06:12:01Z</time>
      </trkpt>
      <trkpt lat="41.759525" lon="2.94838">
        <ele>427.0</ele>
        <time>2021-08-15T06:12:06Z</time>
      </trkpt>
      <trkpt lat="41.759543" lon="2.948395">
        <ele>426.0</ele>
        <time>2021-08-15T06:12:13Z</time>
      </trkpt>
      <trkpt lat="41.759543" lon="2.948395">
        <ele>426.0</ele>
        <time>2021-08-15T06:12:15Z</time>
      </trkpt>
      <trkpt lat="41.75957" lon="2.948402">
        <ele>425.0</ele>
        <time>2021-08-15T06:12:25Z</time>
      </trkpt>
      <trkpt lat="41.75956" lon="2.94842">
        <ele>427.0</ele>
        <time>2021-08-15T06:12:32Z</time>
      </trkpt>
      <trkpt lat="41.759605" lon="2.94841">
        <ele>427.0</ele>
        <time>2021-08-15T06:12:39Z</time>
      </trkpt>
      <trkpt lat="41.759625" lon="2.94842">
        <ele>426.0</ele>
        <time>2021-08-15T06:12:46Z</time>
      </trkpt>
      <trkpt lat="41.7596" lon="2.94842">
        <ele>423.0</ele>
        <time>2021-08-15T06:12:53Z</time>
      </trkpt>
      <trkpt lat="41.759585" lon="2.94842">
        <ele>423.0</ele>
        <time>2021-08-15T06:13:00Z</time>
      </trkpt>
      <trkpt lat="41.759585" lon="2.94842">
        <ele>423.0</ele>
        <time>2021-08-15T06:13:02Z</time>
      </trkpt>
      <trkpt lat="41.759585" lon="2.948425">
        <ele>421.0</ele>
        <time>2021-08-15T06:13:11Z</time>
      </trkpt>
      <trkpt lat="41.75954" lon="2.948465">
        <ele>421.0</ele>
        <time>2021-08-15T06:13:18Z</time>
      </trkpt>
      <trkpt lat="41.75951" lon="2.948497">
        <ele>421.0</ele>
        <time>2021-08-15T06:13:25Z</time>
      </trkpt>
      <trkpt lat="41.759485" lon="2.948515">
        <ele>421.0</ele>
        <time>2021-08-15T06:13:32Z</time>
      </trkpt>
      <trkpt lat="41.759485" lon="2.948515">
        <ele>421.0</ele>
        <time>2021-08-15T06:13:36Z</time>
      </trkpt>
      <trkpt lat="41.759455" lon="2.94854">
        <ele>418.0</ele>
        <time>2021-08-15T06:13:45Z</time>
      </trkpt>
      <trkpt lat="41.759455" lon="2.94854">
        <ele>418.0</ele>
        <time>2021-08-15T06:13:49Z</time>
      </trkpt>
      <trkpt lat="41.75949" lon="2.948497">
        <ele>417.0</ele>
        <time>2021-08-15T06:14:36Z</time>
      </trkpt>
      <trkpt lat="41.75953" lon="2.948485">
        <ele>417.0</ele>
        <time>2021-08-15T06:14:43Z</time>
      </trkpt>
      <trkpt lat="41.759555" lon="2.948498">
        <ele>418.0</ele>
        <time>2021-08-15T06:14:50Z</time>
      </trkpt>
      <trkpt lat="41.759555" lon="2.948498">
        <ele>418.0</ele>
        <time>2021-08-15T06:14:55Z</time>
      </trkpt>
      <trkpt lat="41.759575" lon="2.948485">
        <ele>419.0</ele>
        <time>2021-08-15T06:15:08Z</time>
      </trkpt>
      <trkpt lat="41.759575" lon="2.948485">
        <ele>419.0</ele>
        <time>2021-08-15T06:15:14Z</time>
      </trkpt>
      <trkpt lat="41.759585" lon="2.94846">
        <ele>418.0</ele>
        <time>2021-08-15T06:15:57Z</time>
      </trkpt>
      <trkpt lat="41.759585" lon="2.94846">
        <ele>418.0</ele>
        <time>2021-08-15T06:15:58Z</time>
      </trkpt>
      <trkpt lat="41.75958" lon="2.94845">
        <ele>420.0</ele>
        <time>2021-08-15T06:16:38Z</time>
      </trkpt>
      <trkpt lat="41.75958" lon="2.94845">
        <ele>420.0</ele>
        <time>2021-08-15T06:16:39Z</time>
      </trkpt>
      <trkpt lat="41.759575" lon="2.948455">
        <ele>418.0</ele>
        <time>2021-08-15T06:17:29Z</time>
      </trkpt>
      <trkpt lat="41.759575" lon="2.948455">
        <ele>418.0</ele>
        <time>2021-08-15T06:17:30Z</time>
      </trkpt>
      <trkpt lat="41.759595" lon="2.94847">
        <ele>419.0</ele>
        <time>2021-08-15T06:19:23Z</time>
      </trkpt>
      <trkpt lat="41.759595" lon="2.94847">
        <ele>419.0</ele>
        <time>2021-08-15T06:19:24Z</time>
      </trkpt>
      <trkpt lat="41.75959" lon="2.94845">
        <ele>418.0</ele>
        <time>2021-08-15T06:19:34Z</time>
      </trkpt>
      <trkpt lat="41.75959" lon="2.94845">
        <ele>418.0</ele>
        <time>2021-08-15T06:19:35Z</time>
      </trkpt>
      <trkpt lat="41.759595" lon="2.948455">
        <ele>415.0</ele>
        <time>2021-08-15T06:19:59Z</time>
      </trkpt>
      <trkpt lat="41.759595" lon="2.948455">
        <ele>415.0</ele>
        <time>2021-08-15T06:20:02Z</time>
      </trkpt>
      <trkpt lat="41.759585" lon="2.94847">
        <ele>418.0</ele>
        <time>2021-08-15T06:20:28Z</time>
      </trkpt>
      <trkpt lat="41.75958" lon="2.948475">
        <ele>418.0</ele>
        <time>2021-08-15T06:20:35Z</time>
      </trkpt>
      <trkpt lat="41.75958" lon="2.948475">
        <ele>418.0</ele>
        <time>2021-08-15T06:20:37Z</time>
      </trkpt>
      <trkpt lat="41.75958" lon="2.948485">
        <ele>417.0</ele>
        <time>2021-08-15T06:21:06Z</time>
      </trkpt>
      <trkpt lat="41.759563" lon="2.948455">
        <ele>420.0</ele>
        <time>2021-08-15T06:21:13Z</time>
      </trkpt>
      <trkpt lat="41.75957" lon="2.948427">
        <ele>421.0</ele>
        <time>2021-08-15T06:21:20Z</time>
      </trkpt>
      <trkpt lat="41.75958" lon="2.94842">
        <ele>420.0</ele>
        <time>2021-08-15T06:21:27Z</time>
      </trkpt>
      <trkpt lat="41.759575" lon="2.94841">
        <ele>420.0</ele>
        <time>2021-08-15T06:21:33Z</time>
      </trkpt>
      <trkpt lat="41.75956" lon="2.948425">
        <ele>424.0</ele>
        <time>2021-08-15T06:22:28Z</time>
      </trkpt>
      <trkpt lat="41.75952" lon="2.948437">
        <ele>423.0</ele>
        <time>2021-08-15T06:22:35Z</time>
      </trkpt>
      <trkpt lat="41.759495" lon="2.948485">
        <ele>421.0</ele>
        <time>2021-08-15T06:22:42Z</time>
      </trkpt>
      <trkpt lat="41.759455" lon="2.948505">
        <ele>421.0</ele>
        <time>2021-08-15T06:22:49Z</time>
      </trkpt>
      <trkpt lat="41.759455" lon="2.948505">
        <ele>422.0</ele>
        <time>2021-08-15T06:22:54Z</time>
      </trkpt>
      <trkpt lat="41.75946" lon="2.948517">
        <ele>421.0</ele>
        <time>2021-08-15T06:23:03Z</time>
      </trkpt>
      <trkpt lat="41.75946" lon="2.948517">
        <ele>421.0</ele>
        <time>2021-08-15T06:23:04Z</time>
      </trkpt>
      <trkpt lat="41.75946" lon="2.948545">
        <ele>418.0</ele>
        <time>2021-08-15T06:23:17Z</time>
      </trkpt>
      <trkpt lat="41.759465" lon="2.94856">
        <ele>417.0</ele>
        <time>2021-08-15T06:23:19Z</time>
      </trkpt>
      <trkpt lat="41.75947" lon="2.948577">
        <ele>414.0</ele>
        <time>2021-08-15T06:23:26Z</time>
      </trkpt>
      <trkpt lat="41.759485" lon="2.94855">
        <ele>413.0</ele>
        <time>2021-08-15T06:23:33Z</time>
      </trkpt>
      <trkpt lat="41.759473" lon="2.948505">
        <ele>415.0</ele>
        <time>2021-08-15T06:23:40Z</time>
      </trkpt>
      <trkpt lat="41.75949" lon="2.948437">
        <ele>417.0</ele>
        <time>2021-08-15T06:23:47Z</time>
      </trkpt>
      <trkpt lat="41.759525" lon="2.948327">
        <ele>418.0</ele>
        <time>2021-08-15T06:23:52Z</time>
      </trkpt>
      <trkpt lat="41.759543" lon="2.948228">
        <ele>419.0</ele>
        <time>2021-08-15T06:23:57Z</time>
      </trkpt>
      <trkpt lat="41.759615" lon="2.94819">
        <ele>419.0</ele>
        <time>2021-08-15T06:24:01Z</time>
      </trkpt>
      <trkpt lat="41.75971" lon="2.948167">
        <ele>421.0</ele>
        <time>2021-08-15T06:24:06Z</time>
      </trkpt>
      <trkpt lat="41.759785" lon="2.948137">
        <ele>421.0</ele>
        <time>2021-08-15T06:24:09Z</time>
      </trkpt>
      <trkpt lat="41.75983" lon="2.94806">
        <ele>422.0</ele>
        <time>2021-08-15T06:24:12Z</time>
      </trkpt>
      <trkpt lat="41.7599" lon="2.94799">
        <ele>423.0</ele>
        <time>2021-08-15T06:24:16Z</time>
      </trkpt>
      <trkpt lat="41.75998" lon="2.94794">
        <ele>424.0</ele>
        <time>2021-08-15T06:24:20Z</time>
      </trkpt>
      <trkpt lat="41.76006" lon="2.947915">
        <ele>426.0</ele>
        <time>2021-08-15T06:24:24Z</time>
      </trkpt>
      <trkpt lat="41.76014" lon="2.94788">
        <ele>428.0</ele>
        <time>2021-08-15T06:24:28Z</time>
      </trkpt>
      <trkpt lat="41.76022" lon="2.94785">
        <ele>429.0</ele>
        <time>2021-08-15T06:24:32Z</time>
      </trkpt>
      <trkpt lat="41.7603" lon="2.947805">
        <ele>431.0</ele>
        <time>2021-08-15T06:24:36Z</time>
      </trkpt>
      <trkpt lat="41.76037" lon="2.94775">
        <ele>431.0</ele>
        <time>2021-08-15T06:24:40Z</time>
      </trkpt>
      <trkpt lat="41.76044" lon="2.94768">
        <ele>432.0</ele>
        <time>2021-08-15T06:24:44Z</time>
      </trkpt>
      <trkpt lat="41.76051" lon="2.947615">
        <ele>433.0</ele>
        <time>2021-08-15T06:24:48Z</time>
      </trkpt>
      <trkpt lat="41.760585" lon="2.947555">
        <ele>433.0</ele>
        <time>2021-08-15T06:24:52Z</time>
      </trkpt>
      <trkpt lat="41.76066" lon="2.947495">
        <ele>435.0</ele>
        <time>2021-08-15T06:24:56Z</time>
      </trkpt>
      <trkpt lat="41.760735" lon="2.947435">
        <ele>436.0</ele>
        <time>2021-08-15T06:25:00Z</time>
      </trkpt>
      <trkpt lat="41.76079" lon="2.94737">
        <ele>437.0</ele>
        <time>2021-08-15T06:25:03Z</time>
      </trkpt>
      <trkpt lat="41.760842" lon="2.94727">
        <ele>438.0</ele>
        <time>2021-08-15T06:25:07Z</time>
      </trkpt>
      <trkpt lat="41.76087" lon="2.94718">
        <ele>438.0</ele>
        <time>2021-08-15T06:25:10Z</time>
      </trkpt>
      <trkpt lat="41.76089" lon="2.94705">
        <ele>439.0</ele>
        <time>2021-08-15T06:25:14Z</time>
      </trkpt>
      <trkpt lat="41.760875" lon="2.94693">
        <ele>439.0</ele>
        <time>2021-08-15T06:25:18Z</time>
      </trkpt>
      <trkpt lat="41.760855" lon="2.94683">
        <ele>439.0</ele>
        <time>2021-08-15T06:25:21Z</time>
      </trkpt>
      <trkpt lat="41.760835" lon="2.946735">
        <ele>440.0</ele>
        <time>2021-08-15T06:25:24Z</time>
      </trkpt>
      <trkpt lat="41.76081" lon="2.946625">
        <ele>441.0</ele>
        <time>2021-08-15T06:25:28Z</time>
      </trkpt>
      <trkpt lat="41.76081" lon="2.946517">
        <ele>441.0</ele>
        <time>2021-08-15T06:25:31Z</time>
      </trkpt>
      <trkpt lat="41.76079" lon="2.946405">
        <ele>441.0</ele>
        <time>2021-08-15T06:25:35Z</time>
      </trkpt>
      <trkpt lat="41.76074" lon="2.94633">
        <ele>441.0</ele>
        <time>2021-08-15T06:25:39Z</time>
      </trkpt>
      <trkpt lat="41.760655" lon="2.946315">
        <ele>442.0</ele>
        <time>2021-08-15T06:25:43Z</time>
      </trkpt>
      <trkpt lat="41.760615" lon="2.946395">
        <ele>442.0</ele>
        <time>2021-08-15T06:25:46Z</time>
      </trkpt>
      <trkpt lat="41.760585" lon="2.94649">
        <ele>442.0</ele>
        <time>2021-08-15T06:25:49Z</time>
      </trkpt>
      <trkpt lat="41.76057" lon="2.94659">
        <ele>442.0</ele>
        <time>2021-08-15T06:25:52Z</time>
      </trkpt>
      <trkpt lat="41.760547" lon="2.94669">
        <ele>443.0</ele>
        <time>2021-08-15T06:25:55Z</time>
      </trkpt>
      <trkpt lat="41.76052" lon="2.94679">
        <ele>444.0</ele>
        <time>2021-08-15T06:25:58Z</time>
      </trkpt>
      <trkpt lat="41.760485" lon="2.946875">
        <ele>444.0</ele>
        <time>2021-08-15T06:26:01Z</time>
      </trkpt>
      <trkpt lat="41.760445" lon="2.94696">
        <ele>444.0</ele>
        <time>2021-08-15T06:26:04Z</time>
      </trkpt>
      <trkpt lat="41.760385" lon="2.94703">
        <ele>444.0</ele>
        <time>2021-08-15T06:26:07Z</time>
      </trkpt>
      <trkpt lat="41.76032" lon="2.947075">
        <ele>444.0</ele>
        <time>2021-08-15T06:26:10Z</time>
      </trkpt>
      <trkpt lat="41.76025" lon="2.947105">
        <ele>444.0</ele>
        <time>2021-08-15T06:26:13Z</time>
      </trkpt>
      <trkpt lat="41.76016" lon="2.94711">
        <ele>445.0</ele>
        <time>2021-08-15T06:26:17Z</time>
      </trkpt>
      <trkpt lat="41.7601" lon="2.947052">
        <ele>446.0</ele>
        <time>2021-08-15T06:26:21Z</time>
      </trkpt>
      <trkpt lat="41.760065" lon="2.94696">
        <ele>448.0</ele>
        <time>2021-08-15T06:26:25Z</time>
      </trkpt>
      <trkpt lat="41.76002" lon="2.946855">
        <ele>450.0</ele>
        <time>2021-08-15T06:26:29Z</time>
      </trkpt>
      <trkpt lat="41.75999" lon="2.946755">
        <ele>451.0</ele>
        <time>2021-08-15T06:26:33Z</time>
      </trkpt>
      <trkpt lat="41.75995" lon="2.946665">
        <ele>453.0</ele>
        <time>2021-08-15T06:26:37Z</time>
      </trkpt>
      <trkpt lat="41.75992" lon="2.946555">
        <ele>456.0</ele>
        <time>2021-08-15T06:26:42Z</time>
      </trkpt>
      <trkpt lat="41.759885" lon="2.946465">
        <ele>457.0</ele>
        <time>2021-08-15T06:26:46Z</time>
      </trkpt>
      <trkpt lat="41.759845" lon="2.94638">
        <ele>458.0</ele>
        <time>2021-08-15T06:26:50Z</time>
      </trkpt>
      <trkpt lat="41.75981" lon="2.94629">
        <ele>459.0</ele>
        <time>2021-08-15T06:26:54Z</time>
      </trkpt>
      <trkpt lat="41.75978" lon="2.946185">
        <ele>460.0</ele>
        <time>2021-08-15T06:26:59Z</time>
      </trkpt>
      <trkpt lat="41.759735" lon="2.946085">
        <ele>461.0</ele>
        <time>2021-08-15T06:27:04Z</time>
      </trkpt>
      <trkpt lat="41.759695" lon="2.945975">
        <ele>462.0</ele>
        <time>2021-08-15T06:27:09Z</time>
      </trkpt>
      <trkpt lat="41.759655" lon="2.945875">
        <ele>463.0</ele>
        <time>2021-08-15T06:27:14Z</time>
      </trkpt>
      <trkpt lat="41.759615" lon="2.945775">
        <ele>466.0</ele>
        <time>2021-08-15T06:27:19Z</time>
      </trkpt>
      <trkpt lat="41.75957" lon="2.94569">
        <ele>467.0</ele>
        <time>2021-08-15T06:27:23Z</time>
      </trkpt>
      <trkpt lat="41.75953" lon="2.945585">
        <ele>469.0</ele>
        <time>2021-08-15T06:27:28Z</time>
      </trkpt>
      <trkpt lat="41.759485" lon="2.9455">
        <ele>469.0</ele>
        <time>2021-08-15T06:27:32Z</time>
      </trkpt>
      <trkpt lat="41.759415" lon="2.94544">
        <ele>472.0</ele>
        <time>2021-08-15T06:27:36Z</time>
      </trkpt>
      <trkpt lat="41.759345" lon="2.945405">
        <ele>472.0</ele>
        <time>2021-08-15T06:27:40Z</time>
      </trkpt>
      <trkpt lat="41.759265" lon="2.9454">
        <ele>471.0</ele>
        <time>2021-08-15T06:27:45Z</time>
      </trkpt>
      <trkpt lat="41.75919" lon="2.945415">
        <ele>471.0</ele>
        <time>2021-08-15T06:27:48Z</time>
      </trkpt>
      <trkpt lat="41.759105" lon="2.945435">
        <ele>472.0</ele>
        <time>2021-08-15T06:27:52Z</time>
      </trkpt>
      <trkpt lat="41.75902" lon="2.945455">
        <ele>472.0</ele>
        <time>2021-08-15T06:27:56Z</time>
      </trkpt>
      <trkpt lat="41.758935" lon="2.94544">
        <ele>472.0</ele>
        <time>2021-08-15T06:28:00Z</time>
      </trkpt>
      <trkpt lat="41.75885" lon="2.94541">
        <ele>472.0</ele>
        <time>2021-08-15T06:28:04Z</time>
      </trkpt>
      <trkpt lat="41.758782" lon="2.945362">
        <ele>473.0</ele>
        <time>2021-08-15T06:28:07Z</time>
      </trkpt>
      <trkpt lat="41.75871" lon="2.945315">
        <ele>472.0</ele>
        <time>2021-08-15T06:28:10Z</time>
      </trkpt>
      <trkpt lat="41.758648" lon="2.945255">
        <ele>472.0</ele>
        <time>2021-08-15T06:28:13Z</time>
      </trkpt>
      <trkpt lat="41.758605" lon="2.94516">
        <ele>473.0</ele>
        <time>2021-08-15T06:28:16Z</time>
      </trkpt>
      <trkpt lat="41.758555" lon="2.94506">
        <ele>473.0</ele>
        <time>2021-08-15T06:28:19Z</time>
      </trkpt>
      <trkpt lat="41.75852" lon="2.94496">
        <ele>474.0</ele>
        <time>2021-08-15T06:28:22Z</time>
      </trkpt>
      <trkpt lat="41.758505" lon="2.944855">
        <ele>475.0</ele>
        <time>2021-08-15T06:28:25Z</time>
      </trkpt>
      <trkpt lat="41.758515" lon="2.94475">
        <ele>476.0</ele>
        <time>2021-08-15T06:28:28Z</time>
      </trkpt>
      <trkpt lat="41.758535" lon="2.944638">
        <ele>477.0</ele>
        <time>2021-08-15T06:28:31Z</time>
      </trkpt>
      <trkpt lat="41.758555" lon="2.94454">
        <ele>477.0</ele>
        <time>2021-08-15T06:28:34Z</time>
      </trkpt>
      <trkpt lat="41.75857" lon="2.944435">
        <ele>478.0</ele>
        <time>2021-08-15T06:28:37Z</time>
      </trkpt>
      <trkpt lat="41.75859" lon="2.94434">
        <ele>477.0</ele>
        <time>2021-08-15T06:28:40Z</time>
      </trkpt>
      <trkpt lat="41.75861" lon="2.944245">
        <ele>478.0</ele>
        <time>2021-08-15T06:28:43Z</time>
      </trkpt>
      <trkpt lat="41.75864" lon="2.944155">
        <ele>477.0</ele>
        <time>2021-08-15T06:28:46Z</time>
      </trkpt>
      <trkpt lat="41.758685" lon="2.94408">
        <ele>478.0</ele>
        <time>2021-08-15T06:28:49Z</time>
      </trkpt>
      <trkpt lat="41.75875" lon="2.944035">
        <ele>478.0</ele>
        <time>2021-08-15T06:28:52Z</time>
      </trkpt>
      <trkpt lat="41.758825" lon="2.944005">
        <ele>478.0</ele>
        <time>2021-08-15T06:28:55Z</time>
      </trkpt>
      <trkpt lat="41.758905" lon="2.943995">
        <ele>479.0</ele>
        <time>2021-08-15T06:28:58Z</time>
      </trkpt>
      <trkpt lat="41.758995" lon="2.943965">
        <ele>481.0</ele>
        <time>2021-08-15T06:29:02Z</time>
      </trkpt>
      <trkpt lat="41.75907" lon="2.943955">
        <ele>480.0</ele>
        <time>2021-08-15T06:29:05Z</time>
      </trkpt>
      <trkpt lat="41.75914" lon="2.943918">
        <ele>480.0</ele>
        <time>2021-08-15T06:29:08Z</time>
      </trkpt>
      <trkpt lat="41.75922" lon="2.943905">
        <ele>480.0</ele>
        <time>2021-08-15T06:29:11Z</time>
      </trkpt>
      <trkpt lat="41.7593" lon="2.94388">
        <ele>479.0</ele>
        <time>2021-08-15T06:29:14Z</time>
      </trkpt>
      <trkpt lat="41.759375" lon="2.943845">
        <ele>480.0</ele>
        <time>2021-08-15T06:29:17Z</time>
      </trkpt>
      <trkpt lat="41.75946" lon="2.943815">
        <ele>479.0</ele>
        <time>2021-08-15T06:29:20Z</time>
      </trkpt>
      <trkpt lat="41.75953" lon="2.94379">
        <ele>480.0</ele>
        <time>2021-08-15T06:29:23Z</time>
      </trkpt>
      <trkpt lat="41.759605" lon="2.943765">
        <ele>480.0</ele>
        <time>2021-08-15T06:29:26Z</time>
      </trkpt>
      <trkpt lat="41.75968" lon="2.94374">
        <ele>481.0</ele>
        <time>2021-08-15T06:29:29Z</time>
      </trkpt>
      <trkpt lat="41.75977" lon="2.943705">
        <ele>482.0</ele>
        <time>2021-08-15T06:29:33Z</time>
      </trkpt>
      <trkpt lat="41.759845" lon="2.94368">
        <ele>482.0</ele>
        <time>2021-08-15T06:29:36Z</time>
      </trkpt>
      <trkpt lat="41.759915" lon="2.943647">
        <ele>484.0</ele>
        <time>2021-08-15T06:29:39Z</time>
      </trkpt>
      <trkpt lat="41.760005" lon="2.94362">
        <ele>485.0</ele>
        <time>2021-08-15T06:29:43Z</time>
      </trkpt>
      <trkpt lat="41.760095" lon="2.94358">
        <ele>486.0</ele>
        <time>2021-08-15T06:29:47Z</time>
      </trkpt>
      <trkpt lat="41.760167" lon="2.94352">
        <ele>488.0</ele>
        <time>2021-08-15T06:29:53Z</time>
      </trkpt>
      <trkpt lat="41.760235" lon="2.943445">
        <ele>489.0</ele>
        <time>2021-08-15T06:29:57Z</time>
      </trkpt>
      <trkpt lat="41.76028" lon="2.94334">
        <ele>490.0</ele>
        <time>2021-08-15T06:30:01Z</time>
      </trkpt>
      <trkpt lat="41.760315" lon="2.943217">
        <ele>491.0</ele>
        <time>2021-08-15T06:30:05Z</time>
      </trkpt>
      <trkpt lat="41.76034" lon="2.943105">
        <ele>492.0</ele>
        <time>2021-08-15T06:30:09Z</time>
      </trkpt>
      <trkpt lat="41.760385" lon="2.942995">
        <ele>493.0</ele>
        <time>2021-08-15T06:30:13Z</time>
      </trkpt>
      <trkpt lat="41.760425" lon="2.942915">
        <ele>495.0</ele>
        <time>2021-08-15T06:30:16Z</time>
      </trkpt>
      <trkpt lat="41.76047" lon="2.94283">
        <ele>495.0</ele>
        <time>2021-08-15T06:30:19Z</time>
      </trkpt>
      <trkpt lat="41.76051" lon="2.942745">
        <ele>495.0</ele>
        <time>2021-08-15T06:30:22Z</time>
      </trkpt>
      <trkpt lat="41.760548" lon="2.942662">
        <ele>496.0</ele>
        <time>2021-08-15T06:30:25Z</time>
      </trkpt>
      <trkpt lat="41.760595" lon="2.942573">
        <ele>497.0</ele>
        <time>2021-08-15T06:30:28Z</time>
      </trkpt>
      <trkpt lat="41.760645" lon="2.942478">
        <ele>499.0</ele>
        <time>2021-08-15T06:30:32Z</time>
      </trkpt>
      <trkpt lat="41.76068" lon="2.942393">
        <ele>500.0</ele>
        <time>2021-08-15T06:30:35Z</time>
      </trkpt>
      <trkpt lat="41.76073" lon="2.94232">
        <ele>501.0</ele>
        <time>2021-08-15T06:30:38Z</time>
      </trkpt>
      <trkpt lat="41.760785" lon="2.942215">
        <ele>502.0</ele>
        <time>2021-08-15T06:30:42Z</time>
      </trkpt>
      <trkpt lat="41.76085" lon="2.94216">
        <ele>502.0</ele>
        <time>2021-08-15T06:30:45Z</time>
      </trkpt>
      <trkpt lat="41.760925" lon="2.94213">
        <ele>502.0</ele>
        <time>2021-08-15T06:30:48Z</time>
      </trkpt>
      <trkpt lat="41.760998" lon="2.942145">
        <ele>502.0</ele>
        <time>2021-08-15T06:30:51Z</time>
      </trkpt>
      <trkpt lat="41.76108" lon="2.94217">
        <ele>502.0</ele>
        <time>2021-08-15T06:30:54Z</time>
      </trkpt>
      <trkpt lat="41.761153" lon="2.942205">
        <ele>501.0</ele>
        <time>2021-08-15T06:30:57Z</time>
      </trkpt>
      <trkpt lat="41.76123" lon="2.942215">
        <ele>502.0</ele>
        <time>2021-08-15T06:31:00Z</time>
      </trkpt>
      <trkpt lat="41.761315" lon="2.942217">
        <ele>501.0</ele>
        <time>2021-08-15T06:31:03Z</time>
      </trkpt>
      <trkpt lat="41.76139" lon="2.94221">
        <ele>501.0</ele>
        <time>2021-08-15T06:31:06Z</time>
      </trkpt>
      <trkpt lat="41.761465" lon="2.942185">
        <ele>501.0</ele>
        <time>2021-08-15T06:31:09Z</time>
      </trkpt>
      <trkpt lat="41.761532" lon="2.942145">
        <ele>502.0</ele>
        <time>2021-08-15T06:31:12Z</time>
      </trkpt>
      <trkpt lat="41.7616" lon="2.94209">
        <ele>502.0</ele>
        <time>2021-08-15T06:31:15Z</time>
      </trkpt>
      <trkpt lat="41.761655" lon="2.942015">
        <ele>503.0</ele>
        <time>2021-08-15T06:31:18Z</time>
      </trkpt>
      <trkpt lat="41.761715" lon="2.94196">
        <ele>504.0</ele>
        <time>2021-08-15T06:31:21Z</time>
      </trkpt>
      <trkpt lat="41.761775" lon="2.941905">
        <ele>505.0</ele>
        <time>2021-08-15T06:31:24Z</time>
      </trkpt>
      <trkpt lat="41.761835" lon="2.94185">
        <ele>505.0</ele>
        <time>2021-08-15T06:31:27Z</time>
      </trkpt>
      <trkpt lat="41.76189" lon="2.94178">
        <ele>506.0</ele>
        <time>2021-08-15T06:31:30Z</time>
      </trkpt>
      <trkpt lat="41.761945" lon="2.941715">
        <ele>506.0</ele>
        <time>2021-08-15T06:31:33Z</time>
      </trkpt>
      <trkpt lat="41.762005" lon="2.94163">
        <ele>508.0</ele>
        <time>2021-08-15T06:31:37Z</time>
      </trkpt>
      <trkpt lat="41.76208" lon="2.941555">
        <ele>509.0</ele>
        <time>2021-08-15T06:31:41Z</time>
      </trkpt>
      <trkpt lat="41.762145" lon="2.94147">
        <ele>510.0</ele>
        <time>2021-08-15T06:31:45Z</time>
      </trkpt>
      <trkpt lat="41.762205" lon="2.941402">
        <ele>511.0</ele>
        <time>2021-08-15T06:31:48Z</time>
      </trkpt>
      <trkpt lat="41.76226" lon="2.941335">
        <ele>512.0</ele>
        <time>2021-08-15T06:31:51Z</time>
      </trkpt>
      <trkpt lat="41.762305" lon="2.941255">
        <ele>513.0</ele>
        <time>2021-08-15T06:31:54Z</time>
      </trkpt>
      <trkpt lat="41.76236" lon="2.941145">
        <ele>514.0</ele>
        <time>2021-08-15T06:31:58Z</time>
      </trkpt>
      <trkpt lat="41.762375" lon="2.94104">
        <ele>515.0</ele>
        <time>2021-08-15T06:32:02Z</time>
      </trkpt>
      <trkpt lat="41.76238" lon="2.94094">
        <ele>516.0</ele>
        <time>2021-08-15T06:32:05Z</time>
      </trkpt>
      <trkpt lat="41.762363" lon="2.940815">
        <ele>516.0</ele>
        <time>2021-08-15T06:32:09Z</time>
      </trkpt>
      <trkpt lat="41.76236" lon="2.94072">
        <ele>516.0</ele>
        <time>2021-08-15T06:32:12Z</time>
      </trkpt>
      <trkpt lat="41.762405" lon="2.940595">
        <ele>515.0</ele>
        <time>2021-08-15T06:32:15Z</time>
      </trkpt>
      <trkpt lat="41.762465" lon="2.940525">
        <ele>516.0</ele>
        <time>2021-08-15T06:32:17Z</time>
      </trkpt>
      <trkpt lat="41.762535" lon="2.940455">
        <ele>516.0</ele>
        <time>2021-08-15T06:32:19Z</time>
      </trkpt>
      <trkpt lat="41.76261" lon="2.940375">
        <ele>517.0</ele>
        <time>2021-08-15T06:32:21Z</time>
      </trkpt>
      <trkpt lat="41.76268" lon="2.940245">
        <ele>517.0</ele>
        <time>2021-08-15T06:32:23Z</time>
      </trkpt>
      <trkpt lat="41.762755" lon="2.940115">
        <ele>517.0</ele>
        <time>2021-08-15T06:32:25Z</time>
      </trkpt>
      <trkpt lat="41.762845" lon="2.939968">
        <ele>517.0</ele>
        <time>2021-08-15T06:32:27Z</time>
      </trkpt>
      <trkpt lat="41.76293" lon="2.939825">
        <ele>518.0</ele>
        <time>2021-08-15T06:32:29Z</time>
      </trkpt>
      <trkpt lat="41.76298" lon="2.93974">
        <ele>518.0</ele>
        <time>2021-08-15T06:32:30Z</time>
      </trkpt>
      <trkpt lat="41.76302" lon="2.93966">
        <ele>517.0</ele>
        <time>2021-08-15T06:32:31Z</time>
      </trkpt>
      <trkpt lat="41.763055" lon="2.93957">
        <ele>516.0</ele>
        <time>2021-08-15T06:32:32Z</time>
      </trkpt>
      <trkpt lat="41.763095" lon="2.93949">
        <ele>515.0</ele>
        <time>2021-08-15T06:32:33Z</time>
      </trkpt>
      <trkpt lat="41.763175" lon="2.93934">
        <ele>514.0</ele>
        <time>2021-08-15T06:32:35Z</time>
      </trkpt>
      <trkpt lat="41.763295" lon="2.93925">
        <ele>512.0</ele>
        <time>2021-08-15T06:32:37Z</time>
      </trkpt>
      <trkpt lat="41.763405" lon="2.939205">
        <ele>511.0</ele>
        <time>2021-08-15T06:32:39Z</time>
      </trkpt>
      <trkpt lat="41.763487" lon="2.939182">
        <ele>510.0</ele>
        <time>2021-08-15T06:32:41Z</time>
      </trkpt>
      <trkpt lat="41.763572" lon="2.939167">
        <ele>509.0</ele>
        <time>2021-08-15T06:32:45Z</time>
      </trkpt>
      <trkpt lat="41.76365" lon="2.939145">
        <ele>508.0</ele>
        <time>2021-08-15T06:32:52Z</time>
      </trkpt>
      <trkpt lat="41.76374" lon="2.93912">
        <ele>509.0</ele>
        <time>2021-08-15T06:32:56Z</time>
      </trkpt>
      <trkpt lat="41.76383" lon="2.939105">
        <ele>509.0</ele>
        <time>2021-08-15T06:32:59Z</time>
      </trkpt>
      <trkpt lat="41.763925" lon="2.93907">
        <ele>509.0</ele>
        <time>2021-08-15T06:33:02Z</time>
      </trkpt>
      <trkpt lat="41.764015" lon="2.939065">
        <ele>508.0</ele>
        <time>2021-08-15T06:33:05Z</time>
      </trkpt>
      <trkpt lat="41.764085" lon="2.93912">
        <ele>508.0</ele>
        <time>2021-08-15T06:33:08Z</time>
      </trkpt>
      <trkpt lat="41.764115" lon="2.93924">
        <ele>508.0</ele>
        <time>2021-08-15T06:33:11Z</time>
      </trkpt>
      <trkpt lat="41.764178" lon="2.93931">
        <ele>508.0</ele>
        <time>2021-08-15T06:33:15Z</time>
      </trkpt>
      <trkpt lat="41.764245" lon="2.93934">
        <ele>507.0</ele>
        <time>2021-08-15T06:33:18Z</time>
      </trkpt>
      <trkpt lat="41.764315" lon="2.939415">
        <ele>508.0</ele>
        <time>2021-08-15T06:33:23Z</time>
      </trkpt>
      <trkpt lat="41.76439" lon="2.939485">
        <ele>507.0</ele>
        <time>2021-08-15T06:33:29Z</time>
      </trkpt>
      <trkpt lat="41.76446" lon="2.93943">
        <ele>509.0</ele>
        <time>2021-08-15T06:33:34Z</time>
      </trkpt>
      <trkpt lat="41.764525" lon="2.939355">
        <ele>510.0</ele>
        <time>2021-08-15T06:33:39Z</time>
      </trkpt>
      <trkpt lat="41.76458" lon="2.93926">
        <ele>511.0</ele>
        <time>2021-08-15T06:33:43Z</time>
      </trkpt>
      <trkpt lat="41.764622" lon="2.939165">
        <ele>512.0</ele>
        <time>2021-08-15T06:33:47Z</time>
      </trkpt>
      <trkpt lat="41.76468" lon="2.93908">
        <ele>512.0</ele>
        <time>2021-08-15T06:33:51Z</time>
      </trkpt>
      <trkpt lat="41.764755" lon="2.93903">
        <ele>512.0</ele>
        <time>2021-08-15T06:33:55Z</time>
      </trkpt>
      <trkpt lat="41.764835" lon="2.93898">
        <ele>512.0</ele>
        <time>2021-08-15T06:33:59Z</time>
      </trkpt>
      <trkpt lat="41.764915" lon="2.938945">
        <ele>512.0</ele>
        <time>2021-08-15T06:34:03Z</time>
      </trkpt>
      <trkpt lat="41.765003" lon="2.93891">
        <ele>513.0</ele>
        <time>2021-08-15T06:34:07Z</time>
      </trkpt>
      <trkpt lat="41.76509" lon="2.938897">
        <ele>512.0</ele>
        <time>2021-08-15T06:34:10Z</time>
      </trkpt>
      <trkpt lat="41.765162" lon="2.93891">
        <ele>512.0</ele>
        <time>2021-08-15T06:34:13Z</time>
      </trkpt>
      <trkpt lat="41.765227" lon="2.938955">
        <ele>514.0</ele>
        <time>2021-08-15T06:34:16Z</time>
      </trkpt>
      <trkpt lat="41.7653" lon="2.93903">
        <ele>515.0</ele>
        <time>2021-08-15T06:34:20Z</time>
      </trkpt>
      <trkpt lat="41.76536" lon="2.93911">
        <ele>516.0</ele>
        <time>2021-08-15T06:34:24Z</time>
      </trkpt>
      <trkpt lat="41.765405" lon="2.93919">
        <ele>516.0</ele>
        <time>2021-08-15T06:34:27Z</time>
      </trkpt>
      <trkpt lat="41.765455" lon="2.93927">
        <ele>516.0</ele>
        <time>2021-08-15T06:34:30Z</time>
      </trkpt>
      <trkpt lat="41.765515" lon="2.939355">
        <ele>516.0</ele>
        <time>2021-08-15T06:34:33Z</time>
      </trkpt>
      <trkpt lat="41.765585" lon="2.939425">
        <ele>516.0</ele>
        <time>2021-08-15T06:34:37Z</time>
      </trkpt>
      <trkpt lat="41.765655" lon="2.939495">
        <ele>517.0</ele>
        <time>2021-08-15T06:34:41Z</time>
      </trkpt>
      <trkpt lat="41.765725" lon="2.939555">
        <ele>517.0</ele>
        <time>2021-08-15T06:34:45Z</time>
      </trkpt>
      <trkpt lat="41.76578" lon="2.93966">
        <ele>516.0</ele>
        <time>2021-08-15T06:34:49Z</time>
      </trkpt>
      <trkpt lat="41.765833" lon="2.93977">
        <ele>515.0</ele>
        <time>2021-08-15T06:34:52Z</time>
      </trkpt>
      <trkpt lat="41.765905" lon="2.93986">
        <ele>515.0</ele>
        <time>2021-08-15T06:34:54Z</time>
      </trkpt>
      <trkpt lat="41.76597" lon="2.939955">
        <ele>514.0</ele>
        <time>2021-08-15T06:34:56Z</time>
      </trkpt>
      <trkpt lat="41.76602" lon="2.940058">
        <ele>514.0</ele>
        <time>2021-08-15T06:34:59Z</time>
      </trkpt>
      <trkpt lat="41.766075" lon="2.940132">
        <ele>514.0</ele>
        <time>2021-08-15T06:35:02Z</time>
      </trkpt>
      <trkpt lat="41.766085" lon="2.940235">
        <ele>514.0</ele>
        <time>2021-08-15T06:35:08Z</time>
      </trkpt>
      <trkpt lat="41.76607" lon="2.940365">
        <ele>513.0</ele>
        <time>2021-08-15T06:35:12Z</time>
      </trkpt>
      <trkpt lat="41.76611" lon="2.940465">
        <ele>512.0</ele>
        <time>2021-08-15T06:35:15Z</time>
      </trkpt>
      <trkpt lat="41.766195" lon="2.940475">
        <ele>512.0</ele>
        <time>2021-08-15T06:35:19Z</time>
      </trkpt>
      <trkpt lat="41.766285" lon="2.940495">
        <ele>512.0</ele>
        <time>2021-08-15T06:35:23Z</time>
      </trkpt>
      <trkpt lat="41.766365" lon="2.94053">
        <ele>512.0</ele>
        <time>2021-08-15T06:35:26Z</time>
      </trkpt>
      <trkpt lat="41.766455" lon="2.94054">
        <ele>513.0</ele>
        <time>2021-08-15T06:35:29Z</time>
      </trkpt>
      <trkpt lat="41.766528" lon="2.940512">
        <ele>512.0</ele>
        <time>2021-08-15T06:35:32Z</time>
      </trkpt>
      <trkpt lat="41.76662" lon="2.9405">
        <ele>511.0</ele>
        <time>2021-08-15T06:35:37Z</time>
      </trkpt>
      <trkpt lat="41.766705" lon="2.940485">
        <ele>512.0</ele>
        <time>2021-08-15T06:35:42Z</time>
      </trkpt>
      <trkpt lat="41.766765" lon="2.9404">
        <ele>513.0</ele>
        <time>2021-08-15T06:35:48Z</time>
      </trkpt>
      <trkpt lat="41.766815" lon="2.940325">
        <ele>514.0</ele>
        <time>2021-08-15T06:35:53Z</time>
      </trkpt>
      <trkpt lat="41.76687" lon="2.940255">
        <ele>514.0</ele>
        <time>2021-08-15T06:35:57Z</time>
      </trkpt>
      <trkpt lat="41.76693" lon="2.940158">
        <ele>513.0</ele>
        <time>2021-08-15T06:36:01Z</time>
      </trkpt>
      <trkpt lat="41.766985" lon="2.940067">
        <ele>514.0</ele>
        <time>2021-08-15T06:36:04Z</time>
      </trkpt>
      <trkpt lat="41.767055" lon="2.939968">
        <ele>514.0</ele>
        <time>2021-08-15T06:36:07Z</time>
      </trkpt>
      <trkpt lat="41.76711" lon="2.939897">
        <ele>514.0</ele>
        <time>2021-08-15T06:36:10Z</time>
      </trkpt>
      <trkpt lat="41.767165" lon="2.93985">
        <ele>514.0</ele>
        <time>2021-08-15T06:36:17Z</time>
      </trkpt>
      <trkpt lat="41.767225" lon="2.939785">
        <ele>514.0</ele>
        <time>2021-08-15T06:36:23Z</time>
      </trkpt>
      <trkpt lat="41.767285" lon="2.939745">
        <ele>514.0</ele>
        <time>2021-08-15T06:36:30Z</time>
      </trkpt>
      <trkpt lat="41.76733" lon="2.939695">
        <ele>513.0</ele>
        <time>2021-08-15T06:36:37Z</time>
      </trkpt>
      <trkpt lat="41.767395" lon="2.93965">
        <ele>511.0</ele>
        <time>2021-08-15T06:36:44Z</time>
      </trkpt>
      <trkpt lat="41.767475" lon="2.9396">
        <ele>507.0</ele>
        <time>2021-08-15T06:36:51Z</time>
      </trkpt>
      <trkpt lat="41.76756" lon="2.939555">
        <ele>507.0</ele>
        <time>2021-08-15T06:36:55Z</time>
      </trkpt>
      <trkpt lat="41.767595" lon="2.939532">
        <ele>504.0</ele>
        <time>2021-08-15T06:37:02Z</time>
      </trkpt>
      <trkpt lat="41.767645" lon="2.939565">
        <ele>502.0</ele>
        <time>2021-08-15T06:37:09Z</time>
      </trkpt>
      <trkpt lat="41.767685" lon="2.939675">
        <ele>502.0</ele>
        <time>2021-08-15T06:37:12Z</time>
      </trkpt>
      <trkpt lat="41.767733" lon="2.939788">
        <ele>503.0</ele>
        <time>2021-08-15T06:37:15Z</time>
      </trkpt>
      <trkpt lat="41.767755" lon="2.939905">
        <ele>502.0</ele>
        <time>2021-08-15T06:37:18Z</time>
      </trkpt>
      <trkpt lat="41.76776" lon="2.940015">
        <ele>503.0</ele>
        <time>2021-08-15T06:37:21Z</time>
      </trkpt>
      <trkpt lat="41.76777" lon="2.94013">
        <ele>503.0</ele>
        <time>2021-08-15T06:37:24Z</time>
      </trkpt>
      <trkpt lat="41.767795" lon="2.94022">
        <ele>502.0</ele>
        <time>2021-08-15T06:37:31Z</time>
      </trkpt>
      <trkpt lat="41.767795" lon="2.940215">
        <ele>502.0</ele>
        <time>2021-08-15T06:37:35Z</time>
      </trkpt>
      <trkpt lat="41.767803" lon="2.940315">
        <ele>501.0</ele>
        <time>2021-08-15T06:37:57Z</time>
      </trkpt>
      <trkpt lat="41.76786" lon="2.94041">
        <ele>501.0</ele>
        <time>2021-08-15T06:38:00Z</time>
      </trkpt>
      <trkpt lat="41.76793" lon="2.9405">
        <ele>501.0</ele>
        <time>2021-08-15T06:38:03Z</time>
      </trkpt>
      <trkpt lat="41.767985" lon="2.94057">
        <ele>501.0</ele>
        <time>2021-08-15T06:38:05Z</time>
      </trkpt>
      <trkpt lat="41.76803" lon="2.940647">
        <ele>502.0</ele>
        <time>2021-08-15T06:38:07Z</time>
      </trkpt>
      <trkpt lat="41.76808" lon="2.94076">
        <ele>502.0</ele>
        <time>2021-08-15T06:38:09Z</time>
      </trkpt>
      <trkpt lat="41.768115" lon="2.94088">
        <ele>502.0</ele>
        <time>2021-08-15T06:38:11Z</time>
      </trkpt>
      <trkpt lat="41.76818" lon="2.940975">
        <ele>501.0</ele>
        <time>2021-08-15T06:38:13Z</time>
      </trkpt>
      <trkpt lat="41.768245" lon="2.94107">
        <ele>501.0</ele>
        <time>2021-08-15T06:38:15Z</time>
      </trkpt>
      <trkpt lat="41.768305" lon="2.941175">
        <ele>501.0</ele>
        <time>2021-08-15T06:38:17Z</time>
      </trkpt>
      <trkpt lat="41.768365" lon="2.941257">
        <ele>501.0</ele>
        <time>2021-08-15T06:38:19Z</time>
      </trkpt>
      <trkpt lat="41.768412" lon="2.941337">
        <ele>501.0</ele>
        <time>2021-08-15T06:38:21Z</time>
      </trkpt>
      <trkpt lat="41.768495" lon="2.94142">
        <ele>501.0</ele>
        <time>2021-08-15T06:38:23Z</time>
      </trkpt>
      <trkpt lat="41.76858" lon="2.94149">
        <ele>501.0</ele>
        <time>2021-08-15T06:38:25Z</time>
      </trkpt>
      <trkpt lat="41.76868" lon="2.941582">
        <ele>500.0</ele>
        <time>2021-08-15T06:38:27Z</time>
      </trkpt>
      <trkpt lat="41.768765" lon="2.9417">
        <ele>499.0</ele>
        <time>2021-08-15T06:38:29Z</time>
      </trkpt>
      <trkpt lat="41.768855" lon="2.94178">
        <ele>499.0</ele>
        <time>2021-08-15T06:38:31Z</time>
      </trkpt>
      <trkpt lat="41.768945" lon="2.941845">
        <ele>499.0</ele>
        <time>2021-08-15T06:38:33Z</time>
      </trkpt>
      <trkpt lat="41.769055" lon="2.941895">
        <ele>498.0</ele>
        <time>2021-08-15T06:38:35Z</time>
      </trkpt>
      <trkpt lat="41.76916" lon="2.941952">
        <ele>498.0</ele>
        <time>2021-08-15T06:38:37Z</time>
      </trkpt>
      <trkpt lat="41.769255" lon="2.94203">
        <ele>497.0</ele>
        <time>2021-08-15T06:38:39Z</time>
      </trkpt>
      <trkpt lat="41.76935" lon="2.94212">
        <ele>498.0</ele>
        <time>2021-08-15T06:38:41Z</time>
      </trkpt>
      <trkpt lat="41.769445" lon="2.942195">
        <ele>497.0</ele>
        <time>2021-08-15T06:38:43Z</time>
      </trkpt>
      <trkpt lat="41.76954" lon="2.942245">
        <ele>497.0</ele>
        <time>2021-08-15T06:38:45Z</time>
      </trkpt>
      <trkpt lat="41.76962" lon="2.942265">
        <ele>497.0</ele>
        <time>2021-08-15T06:38:47Z</time>
      </trkpt>
      <trkpt lat="41.769695" lon="2.94228">
        <ele>497.0</ele>
        <time>2021-08-15T06:38:49Z</time>
      </trkpt>
      <trkpt lat="41.76979" lon="2.94232">
        <ele>497.0</ele>
        <time>2021-08-15T06:38:52Z</time>
      </trkpt>
      <trkpt lat="41.76986" lon="2.942392">
        <ele>498.0</ele>
        <time>2021-08-15T06:38:55Z</time>
      </trkpt>
      <trkpt lat="41.76991" lon="2.942495">
        <ele>497.0</ele>
        <time>2021-08-15T06:38:58Z</time>
      </trkpt>
      <trkpt lat="41.769985" lon="2.942595">
        <ele>497.0</ele>
        <time>2021-08-15T06:39:01Z</time>
      </trkpt>
      <trkpt lat="41.770055" lon="2.942663">
        <ele>497.0</ele>
        <time>2021-08-15T06:39:03Z</time>
      </trkpt>
      <trkpt lat="41.77014" lon="2.942735">
        <ele>496.0</ele>
        <time>2021-08-15T06:39:05Z</time>
      </trkpt>
      <trkpt lat="41.770215" lon="2.9428">
        <ele>496.0</ele>
        <time>2021-08-15T06:39:07Z</time>
      </trkpt>
      <trkpt lat="41.770275" lon="2.94286">
        <ele>496.0</ele>
        <time>2021-08-15T06:39:09Z</time>
      </trkpt>
      <trkpt lat="41.77034" lon="2.942927">
        <ele>495.0</ele>
        <time>2021-08-15T06:39:11Z</time>
      </trkpt>
      <trkpt lat="41.770395" lon="2.943027">
        <ele>495.0</ele>
        <time>2021-08-15T06:39:13Z</time>
      </trkpt>
      <trkpt lat="41.77044" lon="2.943135">
        <ele>495.0</ele>
        <time>2021-08-15T06:39:15Z</time>
      </trkpt>
      <trkpt lat="41.77048" lon="2.94323">
        <ele>495.0</ele>
        <time>2021-08-15T06:39:17Z</time>
      </trkpt>
      <trkpt lat="41.770545" lon="2.94334">
        <ele>494.0</ele>
        <time>2021-08-15T06:39:20Z</time>
      </trkpt>
      <trkpt lat="41.770565" lon="2.94345">
        <ele>494.0</ele>
        <time>2021-08-15T06:39:22Z</time>
      </trkpt>
      <trkpt lat="41.770532" lon="2.94358">
        <ele>494.0</ele>
        <time>2021-08-15T06:39:24Z</time>
      </trkpt>
      <trkpt lat="41.770445" lon="2.94371">
        <ele>493.0</ele>
        <time>2021-08-15T06:39:26Z</time>
      </trkpt>
      <trkpt lat="41.770335" lon="2.943815">
        <ele>492.0</ele>
        <time>2021-08-15T06:39:28Z</time>
      </trkpt>
      <trkpt lat="41.770215" lon="2.943915">
        <ele>492.0</ele>
        <time>2021-08-15T06:39:30Z</time>
      </trkpt>
      <trkpt lat="41.770153" lon="2.943975">
        <ele>492.0</ele>
        <time>2021-08-15T06:39:31Z</time>
      </trkpt>
      <trkpt lat="41.7701" lon="2.944035">
        <ele>492.0</ele>
        <time>2021-08-15T06:39:32Z</time>
      </trkpt>
      <trkpt lat="41.769995" lon="2.94414">
        <ele>492.0</ele>
        <time>2021-08-15T06:39:34Z</time>
      </trkpt>
      <trkpt lat="41.76988" lon="2.944225">
        <ele>491.0</ele>
        <time>2021-08-15T06:39:36Z</time>
      </trkpt>
      <trkpt lat="41.76975" lon="2.94432">
        <ele>492.0</ele>
        <time>2021-08-15T06:39:38Z</time>
      </trkpt>
      <trkpt lat="41.769635" lon="2.944425">
        <ele>491.0</ele>
        <time>2021-08-15T06:39:40Z</time>
      </trkpt>
      <trkpt lat="41.76957" lon="2.94448">
        <ele>492.0</ele>
        <time>2021-08-15T06:39:41Z</time>
      </trkpt>
      <trkpt lat="41.769455" lon="2.9446">
        <ele>491.0</ele>
        <time>2021-08-15T06:39:43Z</time>
      </trkpt>
      <trkpt lat="41.769355" lon="2.94472">
        <ele>491.0</ele>
        <time>2021-08-15T06:39:45Z</time>
      </trkpt>
      <trkpt lat="41.769265" lon="2.94486">
        <ele>490.0</ele>
        <time>2021-08-15T06:39:47Z</time>
      </trkpt>
      <trkpt lat="41.769205" lon="2.94499">
        <ele>489.0</ele>
        <time>2021-08-15T06:39:49Z</time>
      </trkpt>
      <trkpt lat="41.769165" lon="2.945107">
        <ele>488.0</ele>
        <time>2021-08-15T06:39:51Z</time>
      </trkpt>
      <trkpt lat="41.76913" lon="2.94521">
        <ele>488.0</ele>
        <time>2021-08-15T06:39:53Z</time>
      </trkpt>
      <trkpt lat="41.769102" lon="2.945307">
        <ele>488.0</ele>
        <time>2021-08-15T06:39:55Z</time>
      </trkpt>
      <trkpt lat="41.769097" lon="2.94541">
        <ele>488.0</ele>
        <time>2021-08-15T06:39:57Z</time>
      </trkpt>
      <trkpt lat="41.769085" lon="2.94555">
        <ele>487.0</ele>
        <time>2021-08-15T06:40:00Z</time>
      </trkpt>
      <trkpt lat="41.769085" lon="2.945655">
        <ele>486.0</ele>
        <time>2021-08-15T06:40:02Z</time>
      </trkpt>
      <trkpt lat="41.769075" lon="2.94577">
        <ele>486.0</ele>
        <time>2021-08-15T06:40:04Z</time>
      </trkpt>
      <trkpt lat="41.769065" lon="2.94591">
        <ele>485.0</ele>
        <time>2021-08-15T06:40:07Z</time>
      </trkpt>
      <trkpt lat="41.769055" lon="2.946045">
        <ele>485.0</ele>
        <time>2021-08-15T06:40:10Z</time>
      </trkpt>
      <trkpt lat="41.76903" lon="2.946115">
        <ele>484.0</ele>
        <time>2021-08-15T06:40:17Z</time>
      </trkpt>
      <trkpt lat="41.769045" lon="2.94619">
        <ele>483.0</ele>
        <time>2021-08-15T06:40:24Z</time>
      </trkpt>
      <trkpt lat="41.769045" lon="2.946195">
        <ele>482.0</ele>
        <time>2021-08-15T06:40:30Z</time>
      </trkpt>
      <trkpt lat="41.769075" lon="2.946068">
        <ele>482.0</ele>
        <time>2021-08-15T06:40:38Z</time>
      </trkpt>
      <trkpt lat="41.769095" lon="2.945965">
        <ele>482.0</ele>
        <time>2021-08-15T06:40:41Z</time>
      </trkpt>
      <trkpt lat="41.769103" lon="2.945855">
        <ele>483.0</ele>
        <time>2021-08-15T06:40:44Z</time>
      </trkpt>
      <trkpt lat="41.76911" lon="2.94575">
        <ele>483.0</ele>
        <time>2021-08-15T06:40:48Z</time>
      </trkpt>
      <trkpt lat="41.769115" lon="2.945655">
        <ele>483.0</ele>
        <time>2021-08-15T06:40:51Z</time>
      </trkpt>
      <trkpt lat="41.769185" lon="2.945695">
        <ele>483.0</ele>
        <time>2021-08-15T06:40:58Z</time>
      </trkpt>
      <trkpt lat="41.76921" lon="2.945785">
        <ele>483.0</ele>
        <time>2021-08-15T06:41:01Z</time>
      </trkpt>
      <trkpt lat="41.76924" lon="2.94588">
        <ele>483.0</ele>
        <time>2021-08-15T06:41:04Z</time>
      </trkpt>
      <trkpt lat="41.76928" lon="2.94594">
        <ele>482.0</ele>
        <time>2021-08-15T06:41:11Z</time>
      </trkpt>
      <trkpt lat="41.76928" lon="2.945945">
        <ele>482.0</ele>
        <time>2021-08-15T06:41:18Z</time>
      </trkpt>
      <trkpt lat="41.76928" lon="2.945945">
        <ele>482.0</ele>
        <time>2021-08-15T06:41:23Z</time>
      </trkpt>
      <trkpt lat="41.769285" lon="2.94596">
        <ele>480.0</ele>
        <time>2021-08-15T06:45:17Z</time>
      </trkpt>
      <trkpt lat="41.769285" lon="2.94596">
        <ele>480.0</ele>
        <time>2021-08-15T06:45:18Z</time>
      </trkpt>
      <trkpt lat="41.76928" lon="2.945955">
        <ele>481.0</ele>
        <time>2021-08-15T06:46:33Z</time>
      </trkpt>
      <trkpt lat="41.76928" lon="2.945955">
        <ele>481.0</ele>
        <time>2021-08-15T06:46:34Z</time>
      </trkpt>
      <trkpt lat="41.769295" lon="2.94596">
        <ele>483.0</ele>
        <time>2021-08-15T06:48:08Z</time>
      </trkpt>
      <trkpt lat="41.769295" lon="2.94596">
        <ele>483.0</ele>
        <time>2021-08-15T06:48:09Z</time>
      </trkpt>
      <trkpt lat="41.769295" lon="2.94596">
        <ele>484.0</ele>
        <time>2021-08-15T06:49:41Z</time>
      </trkpt>
      <trkpt lat="41.769315" lon="2.946065">
        <ele>484.0</ele>
        <time>2021-08-15T06:49:45Z</time>
      </trkpt>
      <trkpt lat="41.76934" lon="2.946158">
        <ele>483.0</ele>
        <time>2021-08-15T06:49:51Z</time>
      </trkpt>
      <trkpt lat="41.769345" lon="2.946155">
        <ele>484.0</ele>
        <time>2021-08-15T06:49:58Z</time>
      </trkpt>
      <trkpt lat="41.76934" lon="2.946157">
        <ele>484.0</ele>
        <time>2021-08-15T06:50:05Z</time>
      </trkpt>
      <trkpt lat="41.76934" lon="2.946157">
        <ele>484.0</ele>
        <time>2021-08-15T06:50:06Z</time>
      </trkpt>
      <trkpt lat="41.76934" lon="2.94615">
        <ele>483.0</ele>
        <time>2021-08-15T06:51:11Z</time>
      </trkpt>
      <trkpt lat="41.76934" lon="2.94615">
        <ele>483.0</ele>
        <time>2021-08-15T06:51:14Z</time>
      </trkpt>
      <trkpt lat="41.769345" lon="2.946165">
        <ele>481.0</ele>
        <time>2021-08-15T06:52:05Z</time>
      </trkpt>
      <trkpt lat="41.769345" lon="2.946165">
        <ele>481.0</ele>
        <time>2021-08-15T06:52:06Z</time>
      </trkpt>
      <trkpt lat="41.769365" lon="2.9463">
        <ele>484.0</ele>
        <time>2021-08-15T06:52:34Z</time>
      </trkpt>
      <trkpt lat="41.769397" lon="2.9464">
        <ele>483.0</ele>
        <time>2021-08-15T06:52:37Z</time>
      </trkpt>
      <trkpt lat="41.76943" lon="2.94651">
        <ele>485.0</ele>
        <time>2021-08-15T06:52:40Z</time>
      </trkpt>
      <trkpt lat="41.76946" lon="2.946625">
        <ele>484.0</ele>
        <time>2021-08-15T06:52:43Z</time>
      </trkpt>
      <trkpt lat="41.76949" lon="2.946735">
        <ele>484.0</ele>
        <time>2021-08-15T06:52:46Z</time>
      </trkpt>
      <trkpt lat="41.769515" lon="2.94686">
        <ele>485.0</ele>
        <time>2021-08-15T06:52:49Z</time>
      </trkpt>
      <trkpt lat="41.76954" lon="2.946965">
        <ele>485.0</ele>
        <time>2021-08-15T06:52:51Z</time>
      </trkpt>
      <trkpt lat="41.769565" lon="2.947085">
        <ele>484.0</ele>
        <time>2021-08-15T06:52:53Z</time>
      </trkpt>
      <trkpt lat="41.76958" lon="2.94721">
        <ele>484.0</ele>
        <time>2021-08-15T06:52:55Z</time>
      </trkpt>
      <trkpt lat="41.7696" lon="2.94732">
        <ele>482.0</ele>
        <time>2021-08-15T06:52:57Z</time>
      </trkpt>
      <trkpt lat="41.76962" lon="2.947435">
        <ele>482.0</ele>
        <time>2021-08-15T06:52:59Z</time>
      </trkpt>
      <trkpt lat="41.769645" lon="2.94754">
        <ele>482.0</ele>
        <time>2021-08-15T06:53:01Z</time>
      </trkpt>
      <trkpt lat="41.769675" lon="2.947655">
        <ele>482.0</ele>
        <time>2021-08-15T06:53:03Z</time>
      </trkpt>
      <trkpt lat="41.7697" lon="2.94776">
        <ele>482.0</ele>
        <time>2021-08-15T06:53:05Z</time>
      </trkpt>
      <trkpt lat="41.769745" lon="2.947887">
        <ele>483.0</ele>
        <time>2021-08-15T06:53:08Z</time>
      </trkpt>
      <trkpt lat="41.769785" lon="2.948005">
        <ele>483.0</ele>
        <time>2021-08-15T06:53:11Z</time>
      </trkpt>
      <trkpt lat="41.769815" lon="2.94813">
        <ele>483.0</ele>
        <time>2021-08-15T06:53:14Z</time>
      </trkpt>
      <trkpt lat="41.769855" lon="2.94826">
        <ele>483.0</ele>
        <time>2021-08-15T06:53:17Z</time>
      </trkpt>
      <trkpt lat="41.769915" lon="2.948365">
        <ele>483.0</ele>
        <time>2021-08-15T06:53:20Z</time>
      </trkpt>
      <trkpt lat="41.769995" lon="2.948425">
        <ele>484.0</ele>
        <time>2021-08-15T06:53:23Z</time>
      </trkpt>
      <trkpt lat="41.770083" lon="2.94848">
        <ele>484.0</ele>
        <time>2021-08-15T06:53:26Z</time>
      </trkpt>
      <trkpt lat="41.770155" lon="2.948508">
        <ele>484.0</ele>
        <time>2021-08-15T06:53:28Z</time>
      </trkpt>
      <trkpt lat="41.77026" lon="2.94856">
        <ele>484.0</ele>
        <time>2021-08-15T06:53:31Z</time>
      </trkpt>
      <trkpt lat="41.77033" lon="2.948655">
        <ele>484.0</ele>
        <time>2021-08-15T06:53:34Z</time>
      </trkpt>
      <trkpt lat="41.770395" lon="2.94873">
        <ele>483.0</ele>
        <time>2021-08-15T06:53:36Z</time>
      </trkpt>
      <trkpt lat="41.77049" lon="2.948785">
        <ele>483.0</ele>
        <time>2021-08-15T06:53:38Z</time>
      </trkpt>
      <trkpt lat="41.770575" lon="2.948845">
        <ele>483.0</ele>
        <time>2021-08-15T06:53:40Z</time>
      </trkpt>
      <trkpt lat="41.770645" lon="2.94888">
        <ele>483.0</ele>
        <time>2021-08-15T06:53:42Z</time>
      </trkpt>
      <trkpt lat="41.770715" lon="2.948925">
        <ele>482.0</ele>
        <time>2021-08-15T06:53:44Z</time>
      </trkpt>
      <trkpt lat="41.77079" lon="2.94901">
        <ele>481.0</ele>
        <time>2021-08-15T06:53:46Z</time>
      </trkpt>
      <trkpt lat="41.770832" lon="2.949115">
        <ele>481.0</ele>
        <time>2021-08-15T06:53:48Z</time>
      </trkpt>
      <trkpt lat="41.77086" lon="2.949213">
        <ele>480.0</ele>
        <time>2021-08-15T06:53:50Z</time>
      </trkpt>
      <trkpt lat="41.77082" lon="2.949335">
        <ele>480.0</ele>
        <time>2021-08-15T06:53:53Z</time>
      </trkpt>
      <trkpt lat="41.77077" lon="2.94942">
        <ele>479.0</ele>
        <time>2021-08-15T06:53:55Z</time>
      </trkpt>
      <trkpt lat="41.770688" lon="2.949502">
        <ele>478.0</ele>
        <time>2021-08-15T06:53:57Z</time>
      </trkpt>
      <trkpt lat="41.770605" lon="2.949595">
        <ele>478.0</ele>
        <time>2021-08-15T06:53:59Z</time>
      </trkpt>
      <trkpt lat="41.77052" lon="2.949655">
        <ele>478.0</ele>
        <time>2021-08-15T06:54:01Z</time>
      </trkpt>
      <trkpt lat="41.77044" lon="2.94969">
        <ele>477.0</ele>
        <time>2021-08-15T06:54:03Z</time>
      </trkpt>
      <trkpt lat="41.770355" lon="2.949705">
        <ele>477.0</ele>
        <time>2021-08-15T06:54:05Z</time>
      </trkpt>
      <trkpt lat="41.77027" lon="2.9497">
        <ele>477.0</ele>
        <time>2021-08-15T06:54:07Z</time>
      </trkpt>
      <trkpt lat="41.77017" lon="2.949667">
        <ele>477.0</ele>
        <time>2021-08-15T06:54:09Z</time>
      </trkpt>
      <trkpt lat="41.77006" lon="2.94963">
        <ele>477.0</ele>
        <time>2021-08-15T06:54:11Z</time>
      </trkpt>
      <trkpt lat="41.76996" lon="2.949585">
        <ele>476.0</ele>
        <time>2021-08-15T06:54:13Z</time>
      </trkpt>
      <trkpt lat="41.769855" lon="2.949565">
        <ele>475.0</ele>
        <time>2021-08-15T06:54:15Z</time>
      </trkpt>
      <trkpt lat="41.76974" lon="2.949572">
        <ele>475.0</ele>
        <time>2021-08-15T06:54:17Z</time>
      </trkpt>
      <trkpt lat="41.76965" lon="2.94963">
        <ele>475.0</ele>
        <time>2021-08-15T06:54:19Z</time>
      </trkpt>
      <trkpt lat="41.769552" lon="2.94973">
        <ele>474.0</ele>
        <time>2021-08-15T06:54:21Z</time>
      </trkpt>
      <trkpt lat="41.769515" lon="2.94987">
        <ele>473.0</ele>
        <time>2021-08-15T06:54:23Z</time>
      </trkpt>
      <trkpt lat="41.769483" lon="2.95003">
        <ele>472.0</ele>
        <time>2021-08-15T06:54:25Z</time>
      </trkpt>
      <trkpt lat="41.769465" lon="2.950175">
        <ele>472.0</ele>
        <time>2021-08-15T06:54:27Z</time>
      </trkpt>
      <trkpt lat="41.769495" lon="2.950315">
        <ele>471.0</ele>
        <time>2021-08-15T06:54:29Z</time>
      </trkpt>
      <trkpt lat="41.76954" lon="2.950445">
        <ele>470.0</ele>
        <time>2021-08-15T06:54:31Z</time>
      </trkpt>
      <trkpt lat="41.7696" lon="2.950615">
        <ele>468.0</ele>
        <time>2021-08-15T06:54:33Z</time>
      </trkpt>
      <trkpt lat="41.769637" lon="2.95071">
        <ele>467.0</ele>
        <time>2021-08-15T06:54:34Z</time>
      </trkpt>
      <trkpt lat="41.76968" lon="2.950815">
        <ele>467.0</ele>
        <time>2021-08-15T06:54:35Z</time>
      </trkpt>
      <trkpt lat="41.769707" lon="2.95092">
        <ele>466.0</ele>
        <time>2021-08-15T06:54:36Z</time>
      </trkpt>
      <trkpt lat="41.76974" lon="2.951027">
        <ele>466.0</ele>
        <time>2021-08-15T06:54:37Z</time>
      </trkpt>
      <trkpt lat="41.76977" lon="2.951135">
        <ele>465.0</ele>
        <time>2021-08-15T06:54:38Z</time>
      </trkpt>
      <trkpt lat="41.76979" lon="2.951235">
        <ele>465.0</ele>
        <time>2021-08-15T06:54:39Z</time>
      </trkpt>
      <trkpt lat="41.76982" lon="2.951335">
        <ele>464.0</ele>
        <time>2021-08-15T06:54:40Z</time>
      </trkpt>
      <trkpt lat="41.76984" lon="2.95144">
        <ele>464.0</ele>
        <time>2021-08-15T06:54:41Z</time>
      </trkpt>
      <trkpt lat="41.769855" lon="2.951542">
        <ele>463.0</ele>
        <time>2021-08-15T06:54:42Z</time>
      </trkpt>
      <trkpt lat="41.769863" lon="2.951645">
        <ele>462.0</ele>
        <time>2021-08-15T06:54:43Z</time>
      </trkpt>
      <trkpt lat="41.769885" lon="2.951745">
        <ele>462.0</ele>
        <time>2021-08-15T06:54:44Z</time>
      </trkpt>
      <trkpt lat="41.76992" lon="2.951835">
        <ele>462.0</ele>
        <time>2021-08-15T06:54:45Z</time>
      </trkpt>
      <trkpt lat="41.769995" lon="2.951987">
        <ele>462.0</ele>
        <time>2021-08-15T06:54:47Z</time>
      </trkpt>
      <trkpt lat="41.770085" lon="2.952095">
        <ele>462.0</ele>
        <time>2021-08-15T06:54:49Z</time>
      </trkpt>
      <trkpt lat="41.770185" lon="2.952145">
        <ele>461.0</ele>
        <time>2021-08-15T06:54:51Z</time>
      </trkpt>
      <trkpt lat="41.770265" lon="2.9522">
        <ele>461.0</ele>
        <time>2021-08-15T06:54:53Z</time>
      </trkpt>
      <trkpt lat="41.770335" lon="2.952268">
        <ele>461.0</ele>
        <time>2021-08-15T06:54:55Z</time>
      </trkpt>
      <trkpt lat="41.770378" lon="2.952357">
        <ele>461.0</ele>
        <time>2021-08-15T06:54:57Z</time>
      </trkpt>
      <trkpt lat="41.77044" lon="2.952472">
        <ele>461.0</ele>
        <time>2021-08-15T06:55:00Z</time>
      </trkpt>
      <trkpt lat="41.77049" lon="2.952585">
        <ele>461.0</ele>
        <time>2021-08-15T06:55:03Z</time>
      </trkpt>
      <trkpt lat="41.77053" lon="2.952705">
        <ele>461.0</ele>
        <time>2021-08-15T06:55:06Z</time>
      </trkpt>
      <trkpt lat="41.77055" lon="2.952847">
        <ele>461.0</ele>
        <time>2021-08-15T06:55:09Z</time>
      </trkpt>
      <trkpt lat="41.77057" lon="2.952985">
        <ele>460.0</ele>
        <time>2021-08-15T06:55:12Z</time>
      </trkpt>
      <trkpt lat="41.7706" lon="2.95308">
        <ele>460.0</ele>
        <time>2021-08-15T06:55:15Z</time>
      </trkpt>
      <trkpt lat="41.770688" lon="2.953145">
        <ele>460.0</ele>
        <time>2021-08-15T06:55:18Z</time>
      </trkpt>
      <trkpt lat="41.770775" lon="2.953157">
        <ele>459.0</ele>
        <time>2021-08-15T06:55:20Z</time>
      </trkpt>
      <trkpt lat="41.770865" lon="2.95317">
        <ele>458.0</ele>
        <time>2021-08-15T06:55:22Z</time>
      </trkpt>
      <trkpt lat="41.770983" lon="2.953125">
        <ele>459.0</ele>
        <time>2021-08-15T06:55:24Z</time>
      </trkpt>
      <trkpt lat="41.77112" lon="2.95309">
        <ele>459.0</ele>
        <time>2021-08-15T06:55:26Z</time>
      </trkpt>
      <trkpt lat="41.771245" lon="2.95308">
        <ele>459.0</ele>
        <time>2021-08-15T06:55:28Z</time>
      </trkpt>
      <trkpt lat="41.77135" lon="2.953072">
        <ele>459.0</ele>
        <time>2021-08-15T06:55:30Z</time>
      </trkpt>
      <trkpt lat="41.771435" lon="2.95313">
        <ele>457.0</ele>
        <time>2021-08-15T06:55:33Z</time>
      </trkpt>
      <trkpt lat="41.771485" lon="2.95321">
        <ele>456.0</ele>
        <time>2021-08-15T06:55:37Z</time>
      </trkpt>
      <trkpt lat="41.771537" lon="2.95329">
        <ele>454.0</ele>
        <time>2021-08-15T06:55:41Z</time>
      </trkpt>
      <trkpt lat="41.771625" lon="2.953295">
        <ele>452.0</ele>
        <time>2021-08-15T06:55:47Z</time>
      </trkpt>
      <trkpt lat="41.771725" lon="2.95328">
        <ele>450.0</ele>
        <time>2021-08-15T06:55:50Z</time>
      </trkpt>
      <trkpt lat="41.77181" lon="2.95327">
        <ele>449.0</ele>
        <time>2021-08-15T06:55:52Z</time>
      </trkpt>
      <trkpt lat="41.7719" lon="2.953215">
        <ele>448.0</ele>
        <time>2021-08-15T06:55:55Z</time>
      </trkpt>
      <trkpt lat="41.771995" lon="2.953175">
        <ele>446.0</ele>
        <time>2021-08-15T06:55:57Z</time>
      </trkpt>
      <trkpt lat="41.772065" lon="2.95313">
        <ele>446.0</ele>
        <time>2021-08-15T06:55:59Z</time>
      </trkpt>
      <trkpt lat="41.77215" lon="2.95308">
        <ele>446.0</ele>
        <time>2021-08-15T06:56:02Z</time>
      </trkpt>
      <trkpt lat="41.772205" lon="2.95302">
        <ele>445.0</ele>
        <time>2021-08-15T06:56:06Z</time>
      </trkpt>
      <trkpt lat="41.772265" lon="2.952955">
        <ele>444.0</ele>
        <time>2021-08-15T06:56:09Z</time>
      </trkpt>
      <trkpt lat="41.77235" lon="2.952925">
        <ele>441.0</ele>
        <time>2021-08-15T06:56:13Z</time>
      </trkpt>
      <trkpt lat="41.772435" lon="2.952915">
        <ele>439.0</ele>
        <time>2021-08-15T06:56:16Z</time>
      </trkpt>
      <trkpt lat="41.772485" lon="2.952925">
        <ele>438.0</ele>
        <time>2021-08-15T06:56:23Z</time>
      </trkpt>
      <trkpt lat="41.77256" lon="2.952955">
        <ele>437.0</ele>
        <time>2021-08-15T06:56:28Z</time>
      </trkpt>
      <trkpt lat="41.772645" lon="2.952977">
        <ele>436.0</ele>
        <time>2021-08-15T06:56:31Z</time>
      </trkpt>
      <trkpt lat="41.77272" lon="2.953025">
        <ele>434.0</ele>
        <time>2021-08-15T06:56:35Z</time>
      </trkpt>
      <trkpt lat="41.772795" lon="2.953068">
        <ele>433.0</ele>
        <time>2021-08-15T06:56:39Z</time>
      </trkpt>
      <trkpt lat="41.772855" lon="2.953177">
        <ele>433.0</ele>
        <time>2021-08-15T06:56:42Z</time>
      </trkpt>
      <trkpt lat="41.7729" lon="2.953265">
        <ele>433.0</ele>
        <time>2021-08-15T06:56:44Z</time>
      </trkpt>
      <trkpt lat="41.772935" lon="2.953353">
        <ele>432.0</ele>
        <time>2021-08-15T06:56:46Z</time>
      </trkpt>
      <trkpt lat="41.772965" lon="2.953465">
        <ele>430.0</ele>
        <time>2021-08-15T06:56:48Z</time>
      </trkpt>
      <trkpt lat="41.77298" lon="2.9536">
        <ele>429.0</ele>
        <time>2021-08-15T06:56:50Z</time>
      </trkpt>
      <trkpt lat="41.772955" lon="2.95374">
        <ele>428.0</ele>
        <time>2021-08-15T06:56:52Z</time>
      </trkpt>
      <trkpt lat="41.772985" lon="2.953875">
        <ele>428.0</ele>
        <time>2021-08-15T06:56:54Z</time>
      </trkpt>
      <trkpt lat="41.773025" lon="2.953987">
        <ele>427.0</ele>
        <time>2021-08-15T06:56:56Z</time>
      </trkpt>
      <trkpt lat="41.77306" lon="2.954105">
        <ele>426.0</ele>
        <time>2021-08-15T06:56:59Z</time>
      </trkpt>
      <trkpt lat="41.77306" lon="2.95423">
        <ele>425.0</ele>
        <time>2021-08-15T06:57:02Z</time>
      </trkpt>
      <trkpt lat="41.773035" lon="2.95437">
        <ele>423.0</ele>
        <time>2021-08-15T06:57:05Z</time>
      </trkpt>
      <trkpt lat="41.772995" lon="2.954475">
        <ele>423.0</ele>
        <time>2021-08-15T06:57:07Z</time>
      </trkpt>
      <trkpt lat="41.77294" lon="2.954575">
        <ele>422.0</ele>
        <time>2021-08-15T06:57:09Z</time>
      </trkpt>
      <trkpt lat="41.77287" lon="2.954675">
        <ele>422.0</ele>
        <time>2021-08-15T06:57:11Z</time>
      </trkpt>
      <trkpt lat="41.772815" lon="2.954768">
        <ele>421.0</ele>
        <time>2021-08-15T06:57:13Z</time>
      </trkpt>
      <trkpt lat="41.772815" lon="2.9549">
        <ele>420.0</ele>
        <time>2021-08-15T06:57:15Z</time>
      </trkpt>
      <trkpt lat="41.77283" lon="2.955035">
        <ele>419.0</ele>
        <time>2021-08-15T06:57:17Z</time>
      </trkpt>
      <trkpt lat="41.77286" lon="2.955175">
        <ele>419.0</ele>
        <time>2021-08-15T06:57:19Z</time>
      </trkpt>
      <trkpt lat="41.772883" lon="2.9553">
        <ele>418.0</ele>
        <time>2021-08-15T06:57:21Z</time>
      </trkpt>
      <trkpt lat="41.772915" lon="2.9554">
        <ele>417.0</ele>
        <time>2021-08-15T06:57:23Z</time>
      </trkpt>
      <trkpt lat="41.772925" lon="2.95554">
        <ele>416.0</ele>
        <time>2021-08-15T06:57:25Z</time>
      </trkpt>
      <trkpt lat="41.772925" lon="2.955685">
        <ele>415.0</ele>
        <time>2021-08-15T06:57:27Z</time>
      </trkpt>
      <trkpt lat="41.7729" lon="2.95583">
        <ele>413.0</ele>
        <time>2021-08-15T06:57:29Z</time>
      </trkpt>
      <trkpt lat="41.772895" lon="2.955975">
        <ele>411.0</ele>
        <time>2021-08-15T06:57:31Z</time>
      </trkpt>
      <trkpt lat="41.77292" lon="2.95611">
        <ele>410.0</ele>
        <time>2021-08-15T06:57:33Z</time>
      </trkpt>
      <trkpt lat="41.772952" lon="2.95629">
        <ele>409.0</ele>
        <time>2021-08-15T06:57:35Z</time>
      </trkpt>
      <trkpt lat="41.772965" lon="2.95648">
        <ele>408.0</ele>
        <time>2021-08-15T06:57:37Z</time>
      </trkpt>
      <trkpt lat="41.77297" lon="2.956653">
        <ele>407.0</ele>
        <time>2021-08-15T06:57:39Z</time>
      </trkpt>
      <trkpt lat="41.773" lon="2.95683">
        <ele>406.0</ele>
        <time>2021-08-15T06:57:41Z</time>
      </trkpt>
      <trkpt lat="41.773037" lon="2.956975">
        <ele>406.0</ele>
        <time>2021-08-15T06:57:43Z</time>
      </trkpt>
      <trkpt lat="41.773035" lon="2.9571">
        <ele>406.0</ele>
        <time>2021-08-15T06:57:46Z</time>
      </trkpt>
      <trkpt lat="41.773037" lon="2.95722">
        <ele>405.0</ele>
        <time>2021-08-15T06:57:49Z</time>
      </trkpt>
      <trkpt lat="41.773105" lon="2.957275">
        <ele>405.0</ele>
        <time>2021-08-15T06:57:53Z</time>
      </trkpt>
      <trkpt lat="41.773195" lon="2.957245">
        <ele>404.0</ele>
        <time>2021-08-15T06:57:56Z</time>
      </trkpt>
      <trkpt lat="41.77329" lon="2.95724">
        <ele>404.0</ele>
        <time>2021-08-15T06:57:58Z</time>
      </trkpt>
      <trkpt lat="41.773385" lon="2.957255">
        <ele>403.0</ele>
        <time>2021-08-15T06:58:01Z</time>
      </trkpt>
      <trkpt lat="41.773445" lon="2.957325">
        <ele>403.0</ele>
        <time>2021-08-15T06:58:04Z</time>
      </trkpt>
      <trkpt lat="41.773405" lon="2.957435">
        <ele>402.0</ele>
        <time>2021-08-15T06:58:08Z</time>
      </trkpt>
      <trkpt lat="41.77333" lon="2.957545">
        <ele>401.0</ele>
        <time>2021-08-15T06:58:11Z</time>
      </trkpt>
      <trkpt lat="41.77328" lon="2.957635">
        <ele>400.0</ele>
        <time>2021-08-15T06:58:13Z</time>
      </trkpt>
      <trkpt lat="41.773225" lon="2.95777">
        <ele>399.0</ele>
        <time>2021-08-15T06:58:15Z</time>
      </trkpt>
      <trkpt lat="41.77318" lon="2.9579">
        <ele>398.0</ele>
        <time>2021-08-15T06:58:17Z</time>
      </trkpt>
      <trkpt lat="41.773145" lon="2.958005">
        <ele>398.0</ele>
        <time>2021-08-15T06:58:19Z</time>
      </trkpt>
      <trkpt lat="41.77316" lon="2.95815">
        <ele>397.0</ele>
        <time>2021-08-15T06:58:22Z</time>
      </trkpt>
      <trkpt lat="41.77321" lon="2.958255">
        <ele>396.0</ele>
        <time>2021-08-15T06:58:24Z</time>
      </trkpt>
      <trkpt lat="41.77326" lon="2.958325">
        <ele>395.0</ele>
        <time>2021-08-15T06:58:26Z</time>
      </trkpt>
      <trkpt lat="41.773315" lon="2.95844">
        <ele>394.0</ele>
        <time>2021-08-15T06:58:29Z</time>
      </trkpt>
      <trkpt lat="41.77335" lon="2.958545">
        <ele>391.0</ele>
        <time>2021-08-15T06:58:31Z</time>
      </trkpt>
      <trkpt lat="41.7734" lon="2.958642">
        <ele>390.0</ele>
        <time>2021-08-15T06:58:33Z</time>
      </trkpt>
      <trkpt lat="41.77345" lon="2.958765">
        <ele>388.0</ele>
        <time>2021-08-15T06:58:35Z</time>
      </trkpt>
      <trkpt lat="41.773485" lon="2.958902">
        <ele>386.0</ele>
        <time>2021-08-15T06:58:37Z</time>
      </trkpt>
      <trkpt lat="41.773525" lon="2.959055">
        <ele>385.0</ele>
        <time>2021-08-15T06:58:39Z</time>
      </trkpt>
      <trkpt lat="41.77356" lon="2.95918">
        <ele>384.0</ele>
        <time>2021-08-15T06:58:41Z</time>
      </trkpt>
      <trkpt lat="41.7736" lon="2.95927">
        <ele>383.0</ele>
        <time>2021-08-15T06:58:44Z</time>
      </trkpt>
      <trkpt lat="41.77366" lon="2.959357">
        <ele>383.0</ele>
        <time>2021-08-15T06:58:46Z</time>
      </trkpt>
      <trkpt lat="41.773713" lon="2.959477">
        <ele>383.0</ele>
        <time>2021-08-15T06:58:48Z</time>
      </trkpt>
      <trkpt lat="41.773755" lon="2.959585">
        <ele>382.0</ele>
        <time>2021-08-15T06:58:50Z</time>
      </trkpt>
      <trkpt lat="41.7738" lon="2.959665">
        <ele>381.0</ele>
        <time>2021-08-15T06:58:52Z</time>
      </trkpt>
      <trkpt lat="41.77383" lon="2.95977">
        <ele>380.0</ele>
        <time>2021-08-15T06:58:55Z</time>
      </trkpt>
      <trkpt lat="41.77386" lon="2.959835">
        <ele>380.0</ele>
        <time>2021-08-15T06:59:02Z</time>
      </trkpt>
      <trkpt lat="41.773885" lon="2.959865">
        <ele>379.0</ele>
        <time>2021-08-15T06:59:09Z</time>
      </trkpt>
      <trkpt lat="41.773885" lon="2.959865">
        <ele>379.0</ele>
        <time>2021-08-15T06:59:14Z</time>
      </trkpt>
      <trkpt lat="41.77388" lon="2.959875">
        <ele>379.0</ele>
        <time>2021-08-15T06:59:58Z</time>
      </trkpt>
      <trkpt lat="41.77387" lon="2.959875">
        <ele>379.0</ele>
        <time>2021-08-15T06:59:59Z</time>
      </trkpt>
      <trkpt lat="41.77388" lon="2.959875">
        <ele>378.0</ele>
        <time>2021-08-15T07:00:15Z</time>
      </trkpt>
      <trkpt lat="41.77388" lon="2.959875">
        <ele>378.0</ele>
        <time>2021-08-15T07:00:16Z</time>
      </trkpt>
      <trkpt lat="41.77387" lon="2.95987">
        <ele>376.0</ele>
        <time>2021-08-15T07:00:23Z</time>
      </trkpt>
      <trkpt lat="41.77387" lon="2.95987">
        <ele>376.0</ele>
        <time>2021-08-15T07:00:24Z</time>
      </trkpt>
      <trkpt lat="41.77384" lon="2.95988">
        <ele>376.0</ele>
        <time>2021-08-15T07:00:31Z</time>
      </trkpt>
      <trkpt lat="41.77384" lon="2.959888">
        <ele>376.0</ele>
        <time>2021-08-15T07:00:38Z</time>
      </trkpt>
      <trkpt lat="41.77384" lon="2.959888">
        <ele>376.0</ele>
        <time>2021-08-15T07:00:39Z</time>
      </trkpt>
      <trkpt lat="41.77384" lon="2.95988">
        <ele>375.0</ele>
        <time>2021-08-15T07:02:08Z</time>
      </trkpt>
      <trkpt lat="41.77384" lon="2.95988">
        <ele>375.0</ele>
        <time>2021-08-15T07:02:09Z</time>
      </trkpt>
      <trkpt lat="41.773845" lon="2.959875">
        <ele>374.0</ele>
        <time>2021-08-15T07:02:24Z</time>
      </trkpt>
      <trkpt lat="41.77386" lon="2.959888">
        <ele>375.0</ele>
        <time>2021-08-15T07:02:31Z</time>
      </trkpt>
      <trkpt lat="41.77386" lon="2.959888">
        <ele>375.0</ele>
        <time>2021-08-15T07:02:33Z</time>
      </trkpt>
      <trkpt lat="41.773915" lon="2.959983">
        <ele>373.0</ele>
        <time>2021-08-15T07:03:14Z</time>
      </trkpt>
      <trkpt lat="41.774" lon="2.960015">
        <ele>372.0</ele>
        <time>2021-08-15T07:03:17Z</time>
      </trkpt>
      <trkpt lat="41.77409" lon="2.96008">
        <ele>372.0</ele>
        <time>2021-08-15T07:03:20Z</time>
      </trkpt>
      <trkpt lat="41.774165" lon="2.96011">
        <ele>372.0</ele>
        <time>2021-08-15T07:03:22Z</time>
      </trkpt>
      <trkpt lat="41.774245" lon="2.96012">
        <ele>372.0</ele>
        <time>2021-08-15T07:03:24Z</time>
      </trkpt>
      <trkpt lat="41.774355" lon="2.96011">
        <ele>372.0</ele>
        <time>2021-08-15T07:03:27Z</time>
      </trkpt>
      <trkpt lat="41.774435" lon="2.960083">
        <ele>373.0</ele>
        <time>2021-08-15T07:03:29Z</time>
      </trkpt>
      <trkpt lat="41.77451" lon="2.960055">
        <ele>374.0</ele>
        <time>2021-08-15T07:03:31Z</time>
      </trkpt>
      <trkpt lat="41.7746" lon="2.96004">
        <ele>374.0</ele>
        <time>2021-08-15T07:03:33Z</time>
      </trkpt>
      <trkpt lat="41.77468" lon="2.960045">
        <ele>374.0</ele>
        <time>2021-08-15T07:03:35Z</time>
      </trkpt>
      <trkpt lat="41.77476" lon="2.960027">
        <ele>374.0</ele>
        <time>2021-08-15T07:03:37Z</time>
      </trkpt>
      <trkpt lat="41.774835" lon="2.960015">
        <ele>375.0</ele>
        <time>2021-08-15T07:03:39Z</time>
      </trkpt>
      <trkpt lat="41.77494" lon="2.96001">
        <ele>376.0</ele>
        <time>2021-08-15T07:03:42Z</time>
      </trkpt>
      <trkpt lat="41.775025" lon="2.96006">
        <ele>375.0</ele>
        <time>2021-08-15T07:03:45Z</time>
      </trkpt>
      <trkpt lat="41.77507" lon="2.960165">
        <ele>376.0</ele>
        <time>2021-08-15T07:03:48Z</time>
      </trkpt>
      <trkpt lat="41.77507" lon="2.96028">
        <ele>375.0</ele>
        <time>2021-08-15T07:03:50Z</time>
      </trkpt>
      <trkpt lat="41.77507" lon="2.96041">
        <ele>374.0</ele>
        <time>2021-08-15T07:03:52Z</time>
      </trkpt>
      <trkpt lat="41.77505" lon="2.960533">
        <ele>373.0</ele>
        <time>2021-08-15T07:03:54Z</time>
      </trkpt>
      <trkpt lat="41.77502" lon="2.960665">
        <ele>372.0</ele>
        <time>2021-08-15T07:03:56Z</time>
      </trkpt>
      <trkpt lat="41.775" lon="2.9608">
        <ele>371.0</ele>
        <time>2021-08-15T07:03:58Z</time>
      </trkpt>
      <trkpt lat="41.775007" lon="2.96094">
        <ele>370.0</ele>
        <time>2021-08-15T07:04:00Z</time>
      </trkpt>
      <trkpt lat="41.77505" lon="2.961068">
        <ele>370.0</ele>
        <time>2021-08-15T07:04:02Z</time>
      </trkpt>
      <trkpt lat="41.775097" lon="2.961195">
        <ele>370.0</ele>
        <time>2021-08-15T07:04:04Z</time>
      </trkpt>
      <trkpt lat="41.77513" lon="2.961315">
        <ele>370.0</ele>
        <time>2021-08-15T07:04:06Z</time>
      </trkpt>
      <trkpt lat="41.77514" lon="2.961455">
        <ele>370.0</ele>
        <time>2021-08-15T07:04:08Z</time>
      </trkpt>
      <trkpt lat="41.77513" lon="2.961588">
        <ele>371.0</ele>
        <time>2021-08-15T07:04:10Z</time>
      </trkpt>
      <trkpt lat="41.77512" lon="2.96174">
        <ele>370.0</ele>
        <time>2021-08-15T07:04:12Z</time>
      </trkpt>
      <trkpt lat="41.775105" lon="2.96191">
        <ele>369.0</ele>
        <time>2021-08-15T07:04:14Z</time>
      </trkpt>
      <trkpt lat="41.775077" lon="2.962085">
        <ele>368.0</ele>
        <time>2021-08-15T07:04:16Z</time>
      </trkpt>
      <trkpt lat="41.775055" lon="2.962265">
        <ele>368.0</ele>
        <time>2021-08-15T07:04:18Z</time>
      </trkpt>
      <trkpt lat="41.77506" lon="2.96243">
        <ele>367.0</ele>
        <time>2021-08-15T07:04:20Z</time>
      </trkpt>
      <trkpt lat="41.77509" lon="2.962597">
        <ele>366.0</ele>
        <time>2021-08-15T07:04:22Z</time>
      </trkpt>
      <trkpt lat="41.775135" lon="2.96275">
        <ele>367.0</ele>
        <time>2021-08-15T07:04:24Z</time>
      </trkpt>
      <trkpt lat="41.775165" lon="2.9629">
        <ele>367.0</ele>
        <time>2021-08-15T07:04:26Z</time>
      </trkpt>
      <trkpt lat="41.77519" lon="2.963035">
        <ele>368.0</ele>
        <time>2021-08-15T07:04:28Z</time>
      </trkpt>
      <trkpt lat="41.775215" lon="2.96318">
        <ele>368.0</ele>
        <time>2021-08-15T07:04:30Z</time>
      </trkpt>
      <trkpt lat="41.775235" lon="2.963322">
        <ele>368.0</ele>
        <time>2021-08-15T07:04:32Z</time>
      </trkpt>
      <trkpt lat="41.77526" lon="2.963472">
        <ele>369.0</ele>
        <time>2021-08-15T07:04:34Z</time>
      </trkpt>
      <trkpt lat="41.77527" lon="2.963625">
        <ele>368.0</ele>
        <time>2021-08-15T07:04:36Z</time>
      </trkpt>
      <trkpt lat="41.77529" lon="2.963775">
        <ele>368.0</ele>
        <time>2021-08-15T07:04:38Z</time>
      </trkpt>
      <trkpt lat="41.7753" lon="2.963905">
        <ele>368.0</ele>
        <time>2021-08-15T07:04:40Z</time>
      </trkpt>
      <trkpt lat="41.77528" lon="2.964005">
        <ele>369.0</ele>
        <time>2021-08-15T07:04:42Z</time>
      </trkpt>
      <trkpt lat="41.77525" lon="2.964095">
        <ele>368.0</ele>
        <time>2021-08-15T07:04:44Z</time>
      </trkpt>
      <trkpt lat="41.775255" lon="2.964192">
        <ele>368.0</ele>
        <time>2021-08-15T07:04:46Z</time>
      </trkpt>
      <trkpt lat="41.7753" lon="2.964305">
        <ele>368.0</ele>
        <time>2021-08-15T07:04:48Z</time>
      </trkpt>
      <trkpt lat="41.77537" lon="2.964415">
        <ele>367.0</ele>
        <time>2021-08-15T07:04:50Z</time>
      </trkpt>
      <trkpt lat="41.775445" lon="2.964535">
        <ele>366.0</ele>
        <time>2021-08-15T07:04:52Z</time>
      </trkpt>
      <trkpt lat="41.77552" lon="2.964658">
        <ele>366.0</ele>
        <time>2021-08-15T07:04:54Z</time>
      </trkpt>
      <trkpt lat="41.77558" lon="2.96481">
        <ele>366.0</ele>
        <time>2021-08-15T07:04:56Z</time>
      </trkpt>
      <trkpt lat="41.775625" lon="2.96499">
        <ele>365.0</ele>
        <time>2021-08-15T07:04:58Z</time>
      </trkpt>
      <trkpt lat="41.77566" lon="2.96516">
        <ele>366.0</ele>
        <time>2021-08-15T07:05:00Z</time>
      </trkpt>
      <trkpt lat="41.77566" lon="2.96531">
        <ele>365.0</ele>
        <time>2021-08-15T07:05:02Z</time>
      </trkpt>
      <trkpt lat="41.775635" lon="2.965435">
        <ele>365.0</ele>
        <time>2021-08-15T07:05:04Z</time>
      </trkpt>
      <trkpt lat="41.77563" lon="2.965553">
        <ele>364.0</ele>
        <time>2021-08-15T07:05:07Z</time>
      </trkpt>
      <trkpt lat="41.77566" lon="2.965665">
        <ele>363.0</ele>
        <time>2021-08-15T07:05:11Z</time>
      </trkpt>
      <trkpt lat="41.77575" lon="2.965735">
        <ele>363.0</ele>
        <time>2021-08-15T07:05:14Z</time>
      </trkpt>
      <trkpt lat="41.775835" lon="2.965765">
        <ele>363.0</ele>
        <time>2021-08-15T07:05:16Z</time>
      </trkpt>
      <trkpt lat="41.77592" lon="2.965795">
        <ele>362.0</ele>
        <time>2021-08-15T07:05:18Z</time>
      </trkpt>
      <trkpt lat="41.77599" lon="2.965875">
        <ele>362.0</ele>
        <time>2021-08-15T07:05:20Z</time>
      </trkpt>
      <trkpt lat="41.776035" lon="2.965997">
        <ele>362.0</ele>
        <time>2021-08-15T07:05:22Z</time>
      </trkpt>
      <trkpt lat="41.776075" lon="2.966125">
        <ele>361.0</ele>
        <time>2021-08-15T07:05:24Z</time>
      </trkpt>
      <trkpt lat="41.7761" lon="2.966275">
        <ele>361.0</ele>
        <time>2021-08-15T07:05:26Z</time>
      </trkpt>
      <trkpt lat="41.77609" lon="2.966443">
        <ele>361.0</ele>
        <time>2021-08-15T07:05:28Z</time>
      </trkpt>
      <trkpt lat="41.776075" lon="2.966615">
        <ele>360.0</ele>
        <time>2021-08-15T07:05:30Z</time>
      </trkpt>
      <trkpt lat="41.776082" lon="2.966792">
        <ele>359.0</ele>
        <time>2021-08-15T07:05:32Z</time>
      </trkpt>
      <trkpt lat="41.776135" lon="2.966955">
        <ele>359.0</ele>
        <time>2021-08-15T07:05:34Z</time>
      </trkpt>
      <trkpt lat="41.776217" lon="2.96706">
        <ele>358.0</ele>
        <time>2021-08-15T07:05:36Z</time>
      </trkpt>
      <trkpt lat="41.77632" lon="2.967095">
        <ele>358.0</ele>
        <time>2021-08-15T07:05:38Z</time>
      </trkpt>
      <trkpt lat="41.77641" lon="2.96709">
        <ele>357.0</ele>
        <time>2021-08-15T07:05:40Z</time>
      </trkpt>
      <trkpt lat="41.776495" lon="2.967055">
        <ele>358.0</ele>
        <time>2021-08-15T07:05:42Z</time>
      </trkpt>
      <trkpt lat="41.776575" lon="2.967025">
        <ele>357.0</ele>
        <time>2021-08-15T07:05:44Z</time>
      </trkpt>
      <trkpt lat="41.77667" lon="2.966973">
        <ele>357.0</ele>
        <time>2021-08-15T07:05:47Z</time>
      </trkpt>
      <trkpt lat="41.776755" lon="2.966968">
        <ele>357.0</ele>
        <time>2021-08-15T07:05:49Z</time>
      </trkpt>
      <trkpt lat="41.776845" lon="2.966965">
        <ele>358.0</ele>
        <time>2021-08-15T07:05:51Z</time>
      </trkpt>
      <trkpt lat="41.776925" lon="2.96693">
        <ele>357.0</ele>
        <time>2021-08-15T07:05:53Z</time>
      </trkpt>
      <trkpt lat="41.777015" lon="2.966882">
        <ele>357.0</ele>
        <time>2021-08-15T07:05:55Z</time>
      </trkpt>
      <trkpt lat="41.7771" lon="2.96686">
        <ele>356.0</ele>
        <time>2021-08-15T07:05:57Z</time>
      </trkpt>
      <trkpt lat="41.77717" lon="2.966875">
        <ele>356.0</ele>
        <time>2021-08-15T07:05:59Z</time>
      </trkpt>
      <trkpt lat="41.77724" lon="2.96693">
        <ele>356.0</ele>
        <time>2021-08-15T07:06:02Z</time>
      </trkpt>
      <trkpt lat="41.777292" lon="2.967015">
        <ele>357.0</ele>
        <time>2021-08-15T07:06:05Z</time>
      </trkpt>
      <trkpt lat="41.777355" lon="2.96711">
        <ele>358.0</ele>
        <time>2021-08-15T07:06:08Z</time>
      </trkpt>
      <trkpt lat="41.777425" lon="2.96719">
        <ele>358.0</ele>
        <time>2021-08-15T07:06:11Z</time>
      </trkpt>
      <trkpt lat="41.777485" lon="2.96725">
        <ele>359.0</ele>
        <time>2021-08-15T07:06:14Z</time>
      </trkpt>
      <trkpt lat="41.777565" lon="2.967315">
        <ele>359.0</ele>
        <time>2021-08-15T07:06:18Z</time>
      </trkpt>
      <trkpt lat="41.777615" lon="2.967423">
        <ele>361.0</ele>
        <time>2021-08-15T07:06:22Z</time>
      </trkpt>
      <trkpt lat="41.777565" lon="2.967535">
        <ele>361.0</ele>
        <time>2021-08-15T07:06:25Z</time>
      </trkpt>
      <trkpt lat="41.77747" lon="2.96758">
        <ele>361.0</ele>
        <time>2021-08-15T07:06:28Z</time>
      </trkpt>
      <trkpt lat="41.77739" lon="2.96763">
        <ele>361.0</ele>
        <time>2021-08-15T07:06:31Z</time>
      </trkpt>
      <trkpt lat="41.77733" lon="2.967687">
        <ele>361.0</ele>
        <time>2021-08-15T07:06:33Z</time>
      </trkpt>
      <trkpt lat="41.77726" lon="2.96776">
        <ele>361.0</ele>
        <time>2021-08-15T07:06:35Z</time>
      </trkpt>
      <trkpt lat="41.7772" lon="2.967825">
        <ele>361.0</ele>
        <time>2021-08-15T07:06:37Z</time>
      </trkpt>
      <trkpt lat="41.77717" lon="2.96793">
        <ele>361.0</ele>
        <time>2021-08-15T07:06:39Z</time>
      </trkpt>
      <trkpt lat="41.777195" lon="2.968045">
        <ele>361.0</ele>
        <time>2021-08-15T07:06:41Z</time>
      </trkpt>
      <trkpt lat="41.77724" lon="2.968132">
        <ele>360.0</ele>
        <time>2021-08-15T07:06:43Z</time>
      </trkpt>
      <trkpt lat="41.77729" lon="2.968215">
        <ele>360.0</ele>
        <time>2021-08-15T07:06:45Z</time>
      </trkpt>
      <trkpt lat="41.777335" lon="2.9683">
        <ele>360.0</ele>
        <time>2021-08-15T07:06:47Z</time>
      </trkpt>
      <trkpt lat="41.777363" lon="2.96839">
        <ele>360.0</ele>
        <time>2021-08-15T07:06:49Z</time>
      </trkpt>
      <trkpt lat="41.77739" lon="2.968485">
        <ele>360.0</ele>
        <time>2021-08-15T07:06:51Z</time>
      </trkpt>
      <trkpt lat="41.77741" lon="2.96861">
        <ele>359.0</ele>
        <time>2021-08-15T07:06:53Z</time>
      </trkpt>
      <trkpt lat="41.77743" lon="2.968735">
        <ele>359.0</ele>
        <time>2021-08-15T07:06:55Z</time>
      </trkpt>
      <trkpt lat="41.777515" lon="2.96881">
        <ele>358.0</ele>
        <time>2021-08-15T07:06:57Z</time>
      </trkpt>
      <trkpt lat="41.777605" lon="2.968825">
        <ele>356.0</ele>
        <time>2021-08-15T07:06:59Z</time>
      </trkpt>
      <trkpt lat="41.77771" lon="2.968795">
        <ele>356.0</ele>
        <time>2021-08-15T07:07:01Z</time>
      </trkpt>
      <trkpt lat="41.777807" lon="2.968755">
        <ele>357.0</ele>
        <time>2021-08-15T07:07:03Z</time>
      </trkpt>
      <trkpt lat="41.777925" lon="2.96874">
        <ele>355.0</ele>
        <time>2021-08-15T07:07:05Z</time>
      </trkpt>
      <trkpt lat="41.77805" lon="2.9688">
        <ele>355.0</ele>
        <time>2021-08-15T07:07:07Z</time>
      </trkpt>
      <trkpt lat="41.778155" lon="2.968915">
        <ele>355.0</ele>
        <time>2021-08-15T07:07:09Z</time>
      </trkpt>
      <trkpt lat="41.778258" lon="2.96901">
        <ele>354.0</ele>
        <time>2021-08-15T07:07:11Z</time>
      </trkpt>
      <trkpt lat="41.77836" lon="2.96909">
        <ele>354.0</ele>
        <time>2021-08-15T07:07:13Z</time>
      </trkpt>
      <trkpt lat="41.77841" lon="2.96919">
        <ele>354.0</ele>
        <time>2021-08-15T07:07:15Z</time>
      </trkpt>
      <trkpt lat="41.77843" lon="2.969325">
        <ele>355.0</ele>
        <time>2021-08-15T07:07:18Z</time>
      </trkpt>
      <trkpt lat="41.778395" lon="2.96944">
        <ele>356.0</ele>
        <time>2021-08-15T07:07:21Z</time>
      </trkpt>
      <trkpt lat="41.778355" lon="2.96953">
        <ele>356.0</ele>
        <time>2021-08-15T07:07:24Z</time>
      </trkpt>
      <trkpt lat="41.77831" lon="2.96963">
        <ele>356.0</ele>
        <time>2021-08-15T07:07:27Z</time>
      </trkpt>
      <trkpt lat="41.778275" lon="2.969748">
        <ele>356.0</ele>
        <time>2021-08-15T07:07:30Z</time>
      </trkpt>
      <trkpt lat="41.778258" lon="2.969858">
        <ele>357.0</ele>
        <time>2021-08-15T07:07:33Z</time>
      </trkpt>
      <trkpt lat="41.778295" lon="2.96996">
        <ele>357.0</ele>
        <time>2021-08-15T07:07:36Z</time>
      </trkpt>
      <trkpt lat="41.778345" lon="2.970055">
        <ele>358.0</ele>
        <time>2021-08-15T07:07:39Z</time>
      </trkpt>
      <trkpt lat="41.77841" lon="2.97012">
        <ele>358.0</ele>
        <time>2021-08-15T07:07:43Z</time>
      </trkpt>
      <trkpt lat="41.77846" lon="2.970215">
        <ele>358.0</ele>
        <time>2021-08-15T07:07:47Z</time>
      </trkpt>
      <trkpt lat="41.778465" lon="2.97033">
        <ele>359.0</ele>
        <time>2021-08-15T07:07:51Z</time>
      </trkpt>
      <trkpt lat="41.778433" lon="2.970425">
        <ele>360.0</ele>
        <time>2021-08-15T07:07:55Z</time>
      </trkpt>
      <trkpt lat="41.778413" lon="2.970525">
        <ele>360.0</ele>
        <time>2021-08-15T07:07:59Z</time>
      </trkpt>
      <trkpt lat="41.778415" lon="2.970643">
        <ele>361.0</ele>
        <time>2021-08-15T07:08:03Z</time>
      </trkpt>
      <trkpt lat="41.778405" lon="2.970755">
        <ele>361.0</ele>
        <time>2021-08-15T07:08:07Z</time>
      </trkpt>
      <trkpt lat="41.778385" lon="2.97087">
        <ele>362.0</ele>
        <time>2021-08-15T07:08:11Z</time>
      </trkpt>
      <trkpt lat="41.7784" lon="2.970975">
        <ele>363.0</ele>
        <time>2021-08-15T07:08:15Z</time>
      </trkpt>
      <trkpt lat="41.77845" lon="2.97106">
        <ele>364.0</ele>
        <time>2021-08-15T07:08:19Z</time>
      </trkpt>
      <trkpt lat="41.7785" lon="2.971135">
        <ele>365.0</ele>
        <time>2021-08-15T07:08:23Z</time>
      </trkpt>
      <trkpt lat="41.778555" lon="2.97123">
        <ele>366.0</ele>
        <time>2021-08-15T07:08:27Z</time>
      </trkpt>
      <trkpt lat="41.778555" lon="2.971325">
        <ele>368.0</ele>
        <time>2021-08-15T07:08:32Z</time>
      </trkpt>
      <trkpt lat="41.77851" lon="2.971415">
        <ele>369.0</ele>
        <time>2021-08-15T07:08:37Z</time>
      </trkpt>
      <trkpt lat="41.778445" lon="2.971475">
        <ele>370.0</ele>
        <time>2021-08-15T07:08:41Z</time>
      </trkpt>
      <trkpt lat="41.77838" lon="2.97153">
        <ele>371.0</ele>
        <time>2021-08-15T07:08:45Z</time>
      </trkpt>
      <trkpt lat="41.7783" lon="2.97158">
        <ele>371.0</ele>
        <time>2021-08-15T07:08:50Z</time>
      </trkpt>
      <trkpt lat="41.77823" lon="2.971635">
        <ele>371.0</ele>
        <time>2021-08-15T07:08:54Z</time>
      </trkpt>
      <trkpt lat="41.77817" lon="2.971695">
        <ele>371.0</ele>
        <time>2021-08-15T07:08:57Z</time>
      </trkpt>
      <trkpt lat="41.77813" lon="2.971805">
        <ele>370.0</ele>
        <time>2021-08-15T07:09:00Z</time>
      </trkpt>
      <trkpt lat="41.778123" lon="2.97194">
        <ele>370.0</ele>
        <time>2021-08-15T07:09:03Z</time>
      </trkpt>
      <trkpt lat="41.77816" lon="2.97206">
        <ele>372.0</ele>
        <time>2021-08-15T07:09:06Z</time>
      </trkpt>
      <trkpt lat="41.7782" lon="2.972175">
        <ele>372.0</ele>
        <time>2021-08-15T07:09:09Z</time>
      </trkpt>
      <trkpt lat="41.778188" lon="2.9723">
        <ele>372.0</ele>
        <time>2021-08-15T07:09:12Z</time>
      </trkpt>
      <trkpt lat="41.778155" lon="2.972395">
        <ele>373.0</ele>
        <time>2021-08-15T07:09:15Z</time>
      </trkpt>
      <trkpt lat="41.7781" lon="2.97248">
        <ele>373.0</ele>
        <time>2021-08-15T07:09:18Z</time>
      </trkpt>
      <trkpt lat="41.77805" lon="2.972565">
        <ele>373.0</ele>
        <time>2021-08-15T07:09:21Z</time>
      </trkpt>
      <trkpt lat="41.77798" lon="2.97265">
        <ele>373.0</ele>
        <time>2021-08-15T07:09:25Z</time>
      </trkpt>
      <trkpt lat="41.77792" lon="2.972707">
        <ele>374.0</ele>
        <time>2021-08-15T07:09:29Z</time>
      </trkpt>
      <trkpt lat="41.777865" lon="2.972795">
        <ele>374.0</ele>
        <time>2021-08-15T07:09:33Z</time>
      </trkpt>
      <trkpt lat="41.777825" lon="2.972887">
        <ele>375.0</ele>
        <time>2021-08-15T07:09:37Z</time>
      </trkpt>
      <trkpt lat="41.77782" lon="2.973002">
        <ele>375.0</ele>
        <time>2021-08-15T07:09:41Z</time>
      </trkpt>
      <trkpt lat="41.77783" lon="2.973105">
        <ele>375.0</ele>
        <time>2021-08-15T07:09:44Z</time>
      </trkpt>
      <trkpt lat="41.77785" lon="2.97322">
        <ele>376.0</ele>
        <time>2021-08-15T07:09:48Z</time>
      </trkpt>
      <trkpt lat="41.777882" lon="2.973335">
        <ele>377.0</ele>
        <time>2021-08-15T07:09:52Z</time>
      </trkpt>
      <trkpt lat="41.77793" lon="2.97342">
        <ele>378.0</ele>
        <time>2021-08-15T07:09:56Z</time>
      </trkpt>
      <trkpt lat="41.777985" lon="2.97352">
        <ele>377.0</ele>
        <time>2021-08-15T07:10:00Z</time>
      </trkpt>
      <trkpt lat="41.77803" lon="2.973605">
        <ele>378.0</ele>
        <time>2021-08-15T07:10:02Z</time>
      </trkpt>
      <trkpt lat="41.778035" lon="2.973735">
        <ele>377.0</ele>
        <time>2021-08-15T07:10:04Z</time>
      </trkpt>
      <trkpt lat="41.777995" lon="2.973835">
        <ele>378.0</ele>
        <time>2021-08-15T07:10:06Z</time>
      </trkpt>
      <trkpt lat="41.77792" lon="2.9739">
        <ele>378.0</ele>
        <time>2021-08-15T07:10:08Z</time>
      </trkpt>
      <trkpt lat="41.777845" lon="2.973963">
        <ele>378.0</ele>
        <time>2021-08-15T07:10:10Z</time>
      </trkpt>
      <trkpt lat="41.77778" lon="2.97405">
        <ele>377.0</ele>
        <time>2021-08-15T07:10:12Z</time>
      </trkpt>
      <trkpt lat="41.777715" lon="2.97413">
        <ele>377.0</ele>
        <time>2021-08-15T07:10:14Z</time>
      </trkpt>
      <trkpt lat="41.77765" lon="2.97422">
        <ele>376.0</ele>
        <time>2021-08-15T07:10:16Z</time>
      </trkpt>
      <trkpt lat="41.777605" lon="2.97432">
        <ele>377.0</ele>
        <time>2021-08-15T07:10:18Z</time>
      </trkpt>
      <trkpt lat="41.777583" lon="2.974412">
        <ele>376.0</ele>
        <time>2021-08-15T07:10:20Z</time>
      </trkpt>
      <trkpt lat="41.7776" lon="2.974525">
        <ele>377.0</ele>
        <time>2021-08-15T07:10:23Z</time>
      </trkpt>
      <trkpt lat="41.777625" lon="2.97463">
        <ele>377.0</ele>
        <time>2021-08-15T07:10:26Z</time>
      </trkpt>
      <trkpt lat="41.77764" lon="2.97474">
        <ele>379.0</ele>
        <time>2021-08-15T07:10:29Z</time>
      </trkpt>
      <trkpt lat="41.777645" lon="2.974845">
        <ele>379.0</ele>
        <time>2021-08-15T07:10:32Z</time>
      </trkpt>
      <trkpt lat="41.777645" lon="2.974945">
        <ele>380.0</ele>
        <time>2021-08-15T07:10:35Z</time>
      </trkpt>
      <trkpt lat="41.777625" lon="2.975038">
        <ele>381.0</ele>
        <time>2021-08-15T07:10:38Z</time>
      </trkpt>
      <trkpt lat="41.777605" lon="2.975148">
        <ele>381.0</ele>
        <time>2021-08-15T07:10:41Z</time>
      </trkpt>
      <trkpt lat="41.777588" lon="2.97525">
        <ele>382.0</ele>
        <time>2021-08-15T07:10:44Z</time>
      </trkpt>
      <trkpt lat="41.77755" lon="2.975345">
        <ele>382.0</ele>
        <time>2021-08-15T07:10:47Z</time>
      </trkpt>
      <trkpt lat="41.7775" lon="2.975425">
        <ele>382.0</ele>
        <time>2021-08-15T07:10:50Z</time>
      </trkpt>
      <trkpt lat="41.777455" lon="2.97551">
        <ele>382.0</ele>
        <time>2021-08-15T07:10:53Z</time>
      </trkpt>
      <trkpt lat="41.777415" lon="2.975593">
        <ele>383.0</ele>
        <time>2021-08-15T07:10:56Z</time>
      </trkpt>
      <trkpt lat="41.777385" lon="2.975695">
        <ele>382.0</ele>
        <time>2021-08-15T07:10:59Z</time>
      </trkpt>
      <trkpt lat="41.77738" lon="2.975805">
        <ele>382.0</ele>
        <time>2021-08-15T07:11:02Z</time>
      </trkpt>
      <trkpt lat="41.777385" lon="2.975915">
        <ele>383.0</ele>
        <time>2021-08-15T07:11:05Z</time>
      </trkpt>
      <trkpt lat="41.777395" lon="2.97601">
        <ele>384.0</ele>
        <time>2021-08-15T07:11:08Z</time>
      </trkpt>
      <trkpt lat="41.777385" lon="2.97611">
        <ele>384.0</ele>
        <time>2021-08-15T07:11:11Z</time>
      </trkpt>
      <trkpt lat="41.77736" lon="2.97621">
        <ele>384.0</ele>
        <time>2021-08-15T07:11:15Z</time>
      </trkpt>
      <trkpt lat="41.777335" lon="2.97633">
        <ele>385.0</ele>
        <time>2021-08-15T07:11:19Z</time>
      </trkpt>
      <trkpt lat="41.77734" lon="2.976445">
        <ele>386.0</ele>
        <time>2021-08-15T07:11:23Z</time>
      </trkpt>
      <trkpt lat="41.777375" lon="2.976545">
        <ele>386.0</ele>
        <time>2021-08-15T07:11:28Z</time>
      </trkpt>
      <trkpt lat="41.77738" lon="2.976555">
        <ele>386.0</ele>
        <time>2021-08-15T07:11:35Z</time>
      </trkpt>
      <trkpt lat="41.77739" lon="2.976655">
        <ele>387.0</ele>
        <time>2021-08-15T07:11:58Z</time>
      </trkpt>
      <trkpt lat="41.77738" lon="2.976785">
        <ele>388.0</ele>
        <time>2021-08-15T07:12:02Z</time>
      </trkpt>
      <trkpt lat="41.777355" lon="2.97689">
        <ele>389.0</ele>
        <time>2021-08-15T07:12:05Z</time>
      </trkpt>
      <trkpt lat="41.77731" lon="2.97698">
        <ele>389.0</ele>
        <time>2021-08-15T07:12:08Z</time>
      </trkpt>
      <trkpt lat="41.77725" lon="2.977055">
        <ele>390.0</ele>
        <time>2021-08-15T07:12:11Z</time>
      </trkpt>
      <trkpt lat="41.77719" lon="2.97713">
        <ele>390.0</ele>
        <time>2021-08-15T07:12:14Z</time>
      </trkpt>
      <trkpt lat="41.777122" lon="2.97718">
        <ele>390.0</ele>
        <time>2021-08-15T07:12:17Z</time>
      </trkpt>
      <trkpt lat="41.777048" lon="2.97723">
        <ele>391.0</ele>
        <time>2021-08-15T07:12:20Z</time>
      </trkpt>
      <trkpt lat="41.776975" lon="2.977282">
        <ele>390.0</ele>
        <time>2021-08-15T07:12:23Z</time>
      </trkpt>
      <trkpt lat="41.77691" lon="2.977345">
        <ele>390.0</ele>
        <time>2021-08-15T07:12:26Z</time>
      </trkpt>
      <trkpt lat="41.776865" lon="2.97742">
        <ele>391.0</ele>
        <time>2021-08-15T07:12:29Z</time>
      </trkpt>
      <trkpt lat="41.77681" lon="2.97752">
        <ele>391.0</ele>
        <time>2021-08-15T07:12:33Z</time>
      </trkpt>
      <trkpt lat="41.77677" lon="2.977615">
        <ele>391.0</ele>
        <time>2021-08-15T07:12:36Z</time>
      </trkpt>
      <trkpt lat="41.77675" lon="2.977705">
        <ele>392.0</ele>
        <time>2021-08-15T07:12:39Z</time>
      </trkpt>
      <trkpt lat="41.776735" lon="2.977805">
        <ele>392.0</ele>
        <time>2021-08-15T07:12:42Z</time>
      </trkpt>
      <trkpt lat="41.77671" lon="2.9779">
        <ele>392.0</ele>
        <time>2021-08-15T07:12:45Z</time>
      </trkpt>
      <trkpt lat="41.77668" lon="2.978002">
        <ele>394.0</ele>
        <time>2021-08-15T07:12:49Z</time>
      </trkpt>
      <trkpt lat="41.77666" lon="2.97811">
        <ele>394.0</ele>
        <time>2021-08-15T07:12:53Z</time>
      </trkpt>
      <trkpt lat="41.776625" lon="2.978192">
        <ele>395.0</ele>
        <time>2021-08-15T07:12:57Z</time>
      </trkpt>
      <trkpt lat="41.776585" lon="2.978292">
        <ele>397.0</ele>
        <time>2021-08-15T07:13:02Z</time>
      </trkpt>
      <trkpt lat="41.776555" lon="2.978383">
        <ele>397.0</ele>
        <time>2021-08-15T07:13:06Z</time>
      </trkpt>
      <trkpt lat="41.776515" lon="2.978485">
        <ele>398.0</ele>
        <time>2021-08-15T07:13:10Z</time>
      </trkpt>
      <trkpt lat="41.776462" lon="2.97858">
        <ele>399.0</ele>
        <time>2021-08-15T07:13:14Z</time>
      </trkpt>
      <trkpt lat="41.776405" lon="2.978643">
        <ele>399.0</ele>
        <time>2021-08-15T07:13:18Z</time>
      </trkpt>
      <trkpt lat="41.77633" lon="2.9787">
        <ele>400.0</ele>
        <time>2021-08-15T07:13:24Z</time>
      </trkpt>
      <trkpt lat="41.77627" lon="2.97877">
        <ele>401.0</ele>
        <time>2021-08-15T07:13:28Z</time>
      </trkpt>
      <trkpt lat="41.77621" lon="2.978833">
        <ele>401.0</ele>
        <time>2021-08-15T07:13:32Z</time>
      </trkpt>
      <trkpt lat="41.77616" lon="2.97891">
        <ele>401.0</ele>
        <time>2021-08-15T07:13:36Z</time>
      </trkpt>
      <trkpt lat="41.776115" lon="2.978992">
        <ele>402.0</ele>
        <time>2021-08-15T07:13:40Z</time>
      </trkpt>
      <trkpt lat="41.77608" lon="2.9791">
        <ele>402.0</ele>
        <time>2021-08-15T07:13:44Z</time>
      </trkpt>
      <trkpt lat="41.77606" lon="2.979205">
        <ele>403.0</ele>
        <time>2021-08-15T07:13:48Z</time>
      </trkpt>
      <trkpt lat="41.776055" lon="2.979325">
        <ele>403.0</ele>
        <time>2021-08-15T07:13:52Z</time>
      </trkpt>
      <trkpt lat="41.77603" lon="2.97942">
        <ele>403.0</ele>
        <time>2021-08-15T07:13:56Z</time>
      </trkpt>
      <trkpt lat="41.77602" lon="2.979523">
        <ele>404.0</ele>
        <time>2021-08-15T07:14:03Z</time>
      </trkpt>
      <trkpt lat="41.776015" lon="2.979665">
        <ele>403.0</ele>
        <time>2021-08-15T07:14:06Z</time>
      </trkpt>
      <trkpt lat="41.77602" lon="2.97979">
        <ele>403.0</ele>
        <time>2021-08-15T07:14:08Z</time>
      </trkpt>
      <trkpt lat="41.77601" lon="2.97994">
        <ele>402.0</ele>
        <time>2021-08-15T07:14:10Z</time>
      </trkpt>
      <trkpt lat="41.77601" lon="2.980115">
        <ele>401.0</ele>
        <time>2021-08-15T07:14:12Z</time>
      </trkpt>
      <trkpt lat="41.776005" lon="2.98028">
        <ele>401.0</ele>
        <time>2021-08-15T07:14:14Z</time>
      </trkpt>
      <trkpt lat="41.77597" lon="2.98042">
        <ele>400.0</ele>
        <time>2021-08-15T07:14:16Z</time>
      </trkpt>
      <trkpt lat="41.775895" lon="2.98051">
        <ele>398.0</ele>
        <time>2021-08-15T07:14:18Z</time>
      </trkpt>
      <trkpt lat="41.77579" lon="2.98055">
        <ele>397.0</ele>
        <time>2021-08-15T07:14:20Z</time>
      </trkpt>
      <trkpt lat="41.775675" lon="2.98058">
        <ele>396.0</ele>
        <time>2021-08-15T07:14:22Z</time>
      </trkpt>
      <trkpt lat="41.775545" lon="2.98062">
        <ele>395.0</ele>
        <time>2021-08-15T07:14:24Z</time>
      </trkpt>
      <trkpt lat="41.775435" lon="2.980693">
        <ele>394.0</ele>
        <time>2021-08-15T07:14:26Z</time>
      </trkpt>
      <trkpt lat="41.77533" lon="2.980803">
        <ele>393.0</ele>
        <time>2021-08-15T07:14:28Z</time>
      </trkpt>
      <trkpt lat="41.775245" lon="2.980945">
        <ele>392.0</ele>
        <time>2021-08-15T07:14:30Z</time>
      </trkpt>
      <trkpt lat="41.775152" lon="2.981052">
        <ele>391.0</ele>
        <time>2021-08-15T07:14:32Z</time>
      </trkpt>
      <trkpt lat="41.775065" lon="2.981135">
        <ele>391.0</ele>
        <time>2021-08-15T07:14:34Z</time>
      </trkpt>
      <trkpt lat="41.77499" lon="2.98119">
        <ele>390.0</ele>
        <time>2021-08-15T07:14:36Z</time>
      </trkpt>
      <trkpt lat="41.77495" lon="2.981205">
        <ele>389.0</ele>
        <time>2021-08-15T07:14:43Z</time>
      </trkpt>
      <trkpt lat="41.77495" lon="2.981205">
        <ele>389.0</ele>
        <time>2021-08-15T07:14:46Z</time>
      </trkpt>
      <trkpt lat="41.77495" lon="2.981215">
        <ele>390.0</ele>
        <time>2021-08-15T07:14:54Z</time>
      </trkpt>
      <trkpt lat="41.774942" lon="2.98121">
        <ele>390.0</ele>
        <time>2021-08-15T07:14:55Z</time>
      </trkpt>
      <trkpt lat="41.774922" lon="2.98119">
        <ele>389.0</ele>
        <time>2021-08-15T07:15:02Z</time>
      </trkpt>
      <trkpt lat="41.774922" lon="2.98119">
        <ele>389.0</ele>
        <time>2021-08-15T07:15:06Z</time>
      </trkpt>
      <trkpt lat="41.774875" lon="2.981248">
        <ele>388.0</ele>
        <time>2021-08-15T07:15:26Z</time>
      </trkpt>
      <trkpt lat="41.774805" lon="2.981317">
        <ele>388.0</ele>
        <time>2021-08-15T07:15:29Z</time>
      </trkpt>
      <trkpt lat="41.774735" lon="2.98142">
        <ele>388.0</ele>
        <time>2021-08-15T07:15:32Z</time>
      </trkpt>
      <trkpt lat="41.774675" lon="2.981495">
        <ele>387.0</ele>
        <time>2021-08-15T07:15:34Z</time>
      </trkpt>
      <trkpt lat="41.774625" lon="2.981588">
        <ele>387.0</ele>
        <time>2021-08-15T07:15:36Z</time>
      </trkpt>
      <trkpt lat="41.774562" lon="2.981715">
        <ele>386.0</ele>
        <time>2021-08-15T07:15:38Z</time>
      </trkpt>
      <trkpt lat="41.774493" lon="2.98184">
        <ele>385.0</ele>
        <time>2021-08-15T07:15:40Z</time>
      </trkpt>
      <trkpt lat="41.774425" lon="2.981962">
        <ele>385.0</ele>
        <time>2021-08-15T07:15:42Z</time>
      </trkpt>
      <trkpt lat="41.774315" lon="2.982037">
        <ele>384.0</ele>
        <time>2021-08-15T07:15:44Z</time>
      </trkpt>
      <trkpt lat="41.7742" lon="2.982075">
        <ele>384.0</ele>
        <time>2021-08-15T07:15:46Z</time>
      </trkpt>
      <trkpt lat="41.77407" lon="2.982125">
        <ele>383.0</ele>
        <time>2021-08-15T07:15:48Z</time>
      </trkpt>
      <trkpt lat="41.774005" lon="2.98216">
        <ele>382.0</ele>
        <time>2021-08-15T07:15:49Z</time>
      </trkpt>
      <trkpt lat="41.77393" lon="2.98221">
        <ele>382.0</ele>
        <time>2021-08-15T07:15:50Z</time>
      </trkpt>
      <trkpt lat="41.77386" lon="2.982255">
        <ele>381.0</ele>
        <time>2021-08-15T07:15:51Z</time>
      </trkpt>
      <trkpt lat="41.773795" lon="2.9823">
        <ele>381.0</ele>
        <time>2021-08-15T07:15:52Z</time>
      </trkpt>
      <trkpt lat="41.77373" lon="2.98235">
        <ele>380.0</ele>
        <time>2021-08-15T07:15:53Z</time>
      </trkpt>
      <trkpt lat="41.77367" lon="2.982398">
        <ele>379.0</ele>
        <time>2021-08-15T07:15:54Z</time>
      </trkpt>
      <trkpt lat="41.77355" lon="2.9825">
        <ele>378.0</ele>
        <time>2021-08-15T07:15:56Z</time>
      </trkpt>
      <trkpt lat="41.77342" lon="2.982565">
        <ele>377.0</ele>
        <time>2021-08-15T07:15:58Z</time>
      </trkpt>
      <trkpt lat="41.773285" lon="2.982595">
        <ele>376.0</ele>
        <time>2021-08-15T07:16:00Z</time>
      </trkpt>
      <trkpt lat="41.77315" lon="2.98263">
        <ele>375.0</ele>
        <time>2021-08-15T07:16:02Z</time>
      </trkpt>
      <trkpt lat="41.773025" lon="2.982668">
        <ele>375.0</ele>
        <time>2021-08-15T07:16:04Z</time>
      </trkpt>
      <trkpt lat="41.77291" lon="2.98273">
        <ele>375.0</ele>
        <time>2021-08-15T07:16:06Z</time>
      </trkpt>
      <trkpt lat="41.77279" lon="2.98279">
        <ele>374.0</ele>
        <time>2021-08-15T07:16:08Z</time>
      </trkpt>
      <trkpt lat="41.77266" lon="2.98285">
        <ele>373.0</ele>
        <time>2021-08-15T07:16:10Z</time>
      </trkpt>
      <trkpt lat="41.7726" lon="2.98292">
        <ele>373.0</ele>
        <time>2021-08-15T07:16:11Z</time>
      </trkpt>
      <trkpt lat="41.772535" lon="2.98299">
        <ele>372.0</ele>
        <time>2021-08-15T07:16:12Z</time>
      </trkpt>
      <trkpt lat="41.77247" lon="2.98305">
        <ele>371.0</ele>
        <time>2021-08-15T07:16:13Z</time>
      </trkpt>
      <trkpt lat="41.772405" lon="2.98311">
        <ele>370.0</ele>
        <time>2021-08-15T07:16:14Z</time>
      </trkpt>
      <trkpt lat="41.772335" lon="2.983165">
        <ele>370.0</ele>
        <time>2021-08-15T07:16:15Z</time>
      </trkpt>
      <trkpt lat="41.772265" lon="2.9832">
        <ele>368.0</ele>
        <time>2021-08-15T07:16:16Z</time>
      </trkpt>
      <trkpt lat="41.772185" lon="2.98323">
        <ele>368.0</ele>
        <time>2021-08-15T07:16:17Z</time>
      </trkpt>
      <trkpt lat="41.772105" lon="2.98324">
        <ele>367.0</ele>
        <time>2021-08-15T07:16:18Z</time>
      </trkpt>
      <trkpt lat="41.772025" lon="2.98324">
        <ele>367.0</ele>
        <time>2021-08-15T07:16:19Z</time>
      </trkpt>
      <trkpt lat="41.771945" lon="2.983212">
        <ele>367.0</ele>
        <time>2021-08-15T07:16:20Z</time>
      </trkpt>
      <trkpt lat="41.77187" lon="2.983195">
        <ele>367.0</ele>
        <time>2021-08-15T07:16:21Z</time>
      </trkpt>
      <trkpt lat="41.771795" lon="2.983175">
        <ele>366.0</ele>
        <time>2021-08-15T07:16:22Z</time>
      </trkpt>
      <trkpt lat="41.77166" lon="2.983145">
        <ele>365.0</ele>
        <time>2021-08-15T07:16:24Z</time>
      </trkpt>
      <trkpt lat="41.77153" lon="2.983105">
        <ele>364.0</ele>
        <time>2021-08-15T07:16:26Z</time>
      </trkpt>
      <trkpt lat="41.771415" lon="2.983033">
        <ele>364.0</ele>
        <time>2021-08-15T07:16:28Z</time>
      </trkpt>
      <trkpt lat="41.771315" lon="2.98297">
        <ele>364.0</ele>
        <time>2021-08-15T07:16:30Z</time>
      </trkpt>
      <trkpt lat="41.77122" lon="2.982905">
        <ele>363.0</ele>
        <time>2021-08-15T07:16:32Z</time>
      </trkpt>
      <trkpt lat="41.771125" lon="2.98286">
        <ele>363.0</ele>
        <time>2021-08-15T07:16:34Z</time>
      </trkpt>
      <trkpt lat="41.77103" lon="2.982815">
        <ele>362.0</ele>
        <time>2021-08-15T07:16:36Z</time>
      </trkpt>
      <trkpt lat="41.770935" lon="2.98281">
        <ele>362.0</ele>
        <time>2021-08-15T07:16:38Z</time>
      </trkpt>
      <trkpt lat="41.770825" lon="2.982852">
        <ele>362.0</ele>
        <time>2021-08-15T07:16:40Z</time>
      </trkpt>
      <trkpt lat="41.77071" lon="2.98293">
        <ele>361.0</ele>
        <time>2021-08-15T07:16:42Z</time>
      </trkpt>
      <trkpt lat="41.770585" lon="2.98297">
        <ele>361.0</ele>
        <time>2021-08-15T07:16:44Z</time>
      </trkpt>
      <trkpt lat="41.77045" lon="2.983015">
        <ele>359.0</ele>
        <time>2021-08-15T07:16:46Z</time>
      </trkpt>
      <trkpt lat="41.77033" lon="2.98304">
        <ele>357.0</ele>
        <time>2021-08-15T07:16:48Z</time>
      </trkpt>
      <trkpt lat="41.770205" lon="2.98307">
        <ele>355.0</ele>
        <time>2021-08-15T07:16:50Z</time>
      </trkpt>
      <trkpt lat="41.770135" lon="2.983095">
        <ele>354.0</ele>
        <time>2021-08-15T07:16:51Z</time>
      </trkpt>
      <trkpt lat="41.770055" lon="2.983135">
        <ele>353.0</ele>
        <time>2021-08-15T07:16:52Z</time>
      </trkpt>
      <trkpt lat="41.769975" lon="2.983185">
        <ele>352.0</ele>
        <time>2021-08-15T07:16:53Z</time>
      </trkpt>
      <trkpt lat="41.769895" lon="2.983255">
        <ele>350.0</ele>
        <time>2021-08-15T07:16:54Z</time>
      </trkpt>
      <trkpt lat="41.76981" lon="2.983335">
        <ele>349.0</ele>
        <time>2021-08-15T07:16:55Z</time>
      </trkpt>
      <trkpt lat="41.76972" lon="2.983415">
        <ele>348.0</ele>
        <time>2021-08-15T07:16:56Z</time>
      </trkpt>
      <trkpt lat="41.769615" lon="2.983485">
        <ele>347.0</ele>
        <time>2021-08-15T07:16:57Z</time>
      </trkpt>
      <trkpt lat="41.769505" lon="2.98355">
        <ele>346.0</ele>
        <time>2021-08-15T07:16:58Z</time>
      </trkpt>
      <trkpt lat="41.769395" lon="2.98359">
        <ele>345.0</ele>
        <time>2021-08-15T07:16:59Z</time>
      </trkpt>
      <trkpt lat="41.769305" lon="2.983635">
        <ele>345.0</ele>
        <time>2021-08-15T07:17:00Z</time>
      </trkpt>
      <trkpt lat="41.769215" lon="2.983677">
        <ele>346.0</ele>
        <time>2021-08-15T07:17:01Z</time>
      </trkpt>
      <trkpt lat="41.769135" lon="2.983735">
        <ele>345.0</ele>
        <time>2021-08-15T07:17:02Z</time>
      </trkpt>
      <trkpt lat="41.769055" lon="2.983795">
        <ele>345.0</ele>
        <time>2021-08-15T07:17:03Z</time>
      </trkpt>
      <trkpt lat="41.76898" lon="2.98386">
        <ele>344.0</ele>
        <time>2021-08-15T07:17:04Z</time>
      </trkpt>
      <trkpt lat="41.76891" lon="2.983915">
        <ele>343.0</ele>
        <time>2021-08-15T07:17:05Z</time>
      </trkpt>
      <trkpt lat="41.768835" lon="2.983975">
        <ele>342.0</ele>
        <time>2021-08-15T07:17:06Z</time>
      </trkpt>
      <trkpt lat="41.76877" lon="2.984025">
        <ele>341.0</ele>
        <time>2021-08-15T07:17:07Z</time>
      </trkpt>
      <trkpt lat="41.768705" lon="2.984065">
        <ele>340.0</ele>
        <time>2021-08-15T07:17:08Z</time>
      </trkpt>
      <trkpt lat="41.76863" lon="2.984102">
        <ele>339.0</ele>
        <time>2021-08-15T07:17:09Z</time>
      </trkpt>
      <trkpt lat="41.76856" lon="2.984155">
        <ele>339.0</ele>
        <time>2021-08-15T07:17:10Z</time>
      </trkpt>
      <trkpt lat="41.76849" lon="2.984197">
        <ele>338.0</ele>
        <time>2021-08-15T07:17:11Z</time>
      </trkpt>
      <trkpt lat="41.768425" lon="2.984245">
        <ele>338.0</ele>
        <time>2021-08-15T07:17:12Z</time>
      </trkpt>
      <trkpt lat="41.768325" lon="2.984332">
        <ele>337.0</ele>
        <time>2021-08-15T07:17:14Z</time>
      </trkpt>
      <trkpt lat="41.768265" lon="2.98444">
        <ele>335.0</ele>
        <time>2021-08-15T07:17:16Z</time>
      </trkpt>
      <trkpt lat="41.768235" lon="2.984545">
        <ele>334.0</ele>
        <time>2021-08-15T07:17:18Z</time>
      </trkpt>
      <trkpt lat="41.768195" lon="2.984638">
        <ele>333.0</ele>
        <time>2021-08-15T07:17:20Z</time>
      </trkpt>
      <trkpt lat="41.768125" lon="2.984685">
        <ele>331.0</ele>
        <time>2021-08-15T07:17:22Z</time>
      </trkpt>
      <trkpt lat="41.76802" lon="2.98467">
        <ele>329.0</ele>
        <time>2021-08-15T07:17:24Z</time>
      </trkpt>
      <trkpt lat="41.767875" lon="2.98462">
        <ele>326.0</ele>
        <time>2021-08-15T07:17:26Z</time>
      </trkpt>
      <trkpt lat="41.767795" lon="2.9846">
        <ele>325.0</ele>
        <time>2021-08-15T07:17:27Z</time>
      </trkpt>
      <trkpt lat="41.76766" lon="2.984585">
        <ele>324.0</ele>
        <time>2021-08-15T07:17:29Z</time>
      </trkpt>
      <trkpt lat="41.767535" lon="2.984575">
        <ele>323.0</ele>
        <time>2021-08-15T07:17:31Z</time>
      </trkpt>
      <trkpt lat="41.76744" lon="2.984547">
        <ele>322.0</ele>
        <time>2021-08-15T07:17:33Z</time>
      </trkpt>
      <trkpt lat="41.7674" lon="2.98452">
        <ele>322.0</ele>
        <time>2021-08-15T07:17:40Z</time>
      </trkpt>
      <trkpt lat="41.7674" lon="2.98452">
        <ele>322.0</ele>
        <time>2021-08-15T07:17:43Z</time>
      </trkpt>
      <trkpt lat="41.767423" lon="2.984545">
        <ele>323.0</ele>
        <time>2021-08-15T07:18:04Z</time>
      </trkpt>
      <trkpt lat="41.767512" lon="2.984595">
        <ele>323.0</ele>
        <time>2021-08-15T07:18:10Z</time>
      </trkpt>
      <trkpt lat="41.767605" lon="2.984605">
        <ele>323.0</ele>
        <time>2021-08-15T07:18:13Z</time>
      </trkpt>
      <trkpt lat="41.76768" lon="2.984567">
        <ele>323.0</ele>
        <time>2021-08-15T07:18:16Z</time>
      </trkpt>
      <trkpt lat="41.767745" lon="2.98448">
        <ele>323.0</ele>
        <time>2021-08-15T07:18:20Z</time>
      </trkpt>
      <trkpt lat="41.767795" lon="2.984375">
        <ele>323.0</ele>
        <time>2021-08-15T07:18:23Z</time>
      </trkpt>
      <trkpt lat="41.767815" lon="2.984265">
        <ele>323.0</ele>
        <time>2021-08-15T07:18:25Z</time>
      </trkpt>
      <trkpt lat="41.767855" lon="2.984165">
        <ele>322.0</ele>
        <time>2021-08-15T07:18:27Z</time>
      </trkpt>
      <trkpt lat="41.76791" lon="2.98407">
        <ele>321.0</ele>
        <time>2021-08-15T07:18:30Z</time>
      </trkpt>
      <trkpt lat="41.767985" lon="2.984035">
        <ele>321.0</ele>
        <time>2021-08-15T07:18:33Z</time>
      </trkpt>
      <trkpt lat="41.76806" lon="2.984027">
        <ele>320.0</ele>
        <time>2021-08-15T07:18:35Z</time>
      </trkpt>
      <trkpt lat="41.768155" lon="2.984017">
        <ele>319.0</ele>
        <time>2021-08-15T07:18:37Z</time>
      </trkpt>
      <trkpt lat="41.768235" lon="2.983942">
        <ele>318.0</ele>
        <time>2021-08-15T07:18:39Z</time>
      </trkpt>
      <trkpt lat="41.76832" lon="2.983845">
        <ele>317.0</ele>
        <time>2021-08-15T07:18:41Z</time>
      </trkpt>
      <trkpt lat="41.768405" lon="2.983742">
        <ele>316.0</ele>
        <time>2021-08-15T07:18:43Z</time>
      </trkpt>
      <trkpt lat="41.768495" lon="2.983635">
        <ele>315.0</ele>
        <time>2021-08-15T07:18:45Z</time>
      </trkpt>
      <trkpt lat="41.768575" lon="2.983515">
        <ele>316.0</ele>
        <time>2021-08-15T07:18:47Z</time>
      </trkpt>
      <trkpt lat="41.768625" lon="2.98338">
        <ele>315.0</ele>
        <time>2021-08-15T07:18:49Z</time>
      </trkpt>
      <trkpt lat="41.768665" lon="2.983225">
        <ele>314.0</ele>
        <time>2021-08-15T07:18:51Z</time>
      </trkpt>
      <trkpt lat="41.768717" lon="2.983075">
        <ele>313.0</ele>
        <time>2021-08-15T07:18:53Z</time>
      </trkpt>
      <trkpt lat="41.768808" lon="2.98298">
        <ele>313.0</ele>
        <time>2021-08-15T07:18:55Z</time>
      </trkpt>
      <trkpt lat="41.768925" lon="2.982895">
        <ele>312.0</ele>
        <time>2021-08-15T07:18:57Z</time>
      </trkpt>
      <trkpt lat="41.769045" lon="2.98281">
        <ele>311.0</ele>
        <time>2021-08-15T07:18:59Z</time>
      </trkpt>
      <trkpt lat="41.769135" lon="2.982677">
        <ele>310.0</ele>
        <time>2021-08-15T07:19:01Z</time>
      </trkpt>
      <trkpt lat="41.769167" lon="2.9825">
        <ele>310.0</ele>
        <time>2021-08-15T07:19:03Z</time>
      </trkpt>
      <trkpt lat="41.769185" lon="2.98232">
        <ele>309.0</ele>
        <time>2021-08-15T07:19:05Z</time>
      </trkpt>
      <trkpt lat="41.769205" lon="2.98215">
        <ele>309.0</ele>
        <time>2021-08-15T07:19:07Z</time>
      </trkpt>
      <trkpt lat="41.769215" lon="2.981985">
        <ele>308.0</ele>
        <time>2021-08-15T07:19:09Z</time>
      </trkpt>
      <trkpt lat="41.769225" lon="2.98182">
        <ele>309.0</ele>
        <time>2021-08-15T07:19:11Z</time>
      </trkpt>
      <trkpt lat="41.76923" lon="2.981655">
        <ele>307.0</ele>
        <time>2021-08-15T07:19:13Z</time>
      </trkpt>
      <trkpt lat="41.76924" lon="2.981475">
        <ele>307.0</ele>
        <time>2021-08-15T07:19:15Z</time>
      </trkpt>
      <trkpt lat="41.76922" lon="2.98131">
        <ele>305.0</ele>
        <time>2021-08-15T07:19:17Z</time>
      </trkpt>
      <trkpt lat="41.769165" lon="2.981152">
        <ele>304.0</ele>
        <time>2021-08-15T07:19:19Z</time>
      </trkpt>
      <trkpt lat="41.769095" lon="2.981052">
        <ele>302.0</ele>
        <time>2021-08-15T07:19:21Z</time>
      </trkpt>
      <trkpt lat="41.769" lon="2.981035">
        <ele>300.0</ele>
        <time>2021-08-15T07:19:24Z</time>
      </trkpt>
      <trkpt lat="41.768975" lon="2.981142">
        <ele>297.0</ele>
        <time>2021-08-15T07:19:28Z</time>
      </trkpt>
      <trkpt lat="41.76899" lon="2.981238">
        <ele>296.0</ele>
        <time>2021-08-15T07:19:30Z</time>
      </trkpt>
      <trkpt lat="41.76901" lon="2.98135">
        <ele>295.0</ele>
        <time>2021-08-15T07:19:32Z</time>
      </trkpt>
      <trkpt lat="41.769025" lon="2.981475">
        <ele>295.0</ele>
        <time>2021-08-15T07:19:34Z</time>
      </trkpt>
      <trkpt lat="41.76904" lon="2.981622">
        <ele>294.0</ele>
        <time>2021-08-15T07:19:36Z</time>
      </trkpt>
      <trkpt lat="41.769045" lon="2.981795">
        <ele>294.0</ele>
        <time>2021-08-15T07:19:38Z</time>
      </trkpt>
      <trkpt lat="41.76903" lon="2.98196">
        <ele>294.0</ele>
        <time>2021-08-15T07:19:40Z</time>
      </trkpt>
      <trkpt lat="41.769" lon="2.982055">
        <ele>293.0</ele>
        <time>2021-08-15T07:19:41Z</time>
      </trkpt>
      <trkpt lat="41.768955" lon="2.982228">
        <ele>292.0</ele>
        <time>2021-08-15T07:19:43Z</time>
      </trkpt>
      <trkpt lat="41.76887" lon="2.98236">
        <ele>291.0</ele>
        <time>2021-08-15T07:19:45Z</time>
      </trkpt>
      <trkpt lat="41.768805" lon="2.982397">
        <ele>290.0</ele>
        <time>2021-08-15T07:19:46Z</time>
      </trkpt>
      <trkpt lat="41.76873" lon="2.982415">
        <ele>290.0</ele>
        <time>2021-08-15T07:19:47Z</time>
      </trkpt>
      <trkpt lat="41.76865" lon="2.98243">
        <ele>289.0</ele>
        <time>2021-08-15T07:19:48Z</time>
      </trkpt>
      <trkpt lat="41.768567" lon="2.98244">
        <ele>288.0</ele>
        <time>2021-08-15T07:19:49Z</time>
      </trkpt>
      <trkpt lat="41.768497" lon="2.982475">
        <ele>287.0</ele>
        <time>2021-08-15T07:19:50Z</time>
      </trkpt>
      <trkpt lat="41.768435" lon="2.982525">
        <ele>286.0</ele>
        <time>2021-08-15T07:19:51Z</time>
      </trkpt>
      <trkpt lat="41.76838" lon="2.98259">
        <ele>286.0</ele>
        <time>2021-08-15T07:19:52Z</time>
      </trkpt>
      <trkpt lat="41.768325" lon="2.982662">
        <ele>285.0</ele>
        <time>2021-08-15T07:19:53Z</time>
      </trkpt>
      <trkpt lat="41.76828" lon="2.982755">
        <ele>284.0</ele>
        <time>2021-08-15T07:19:54Z</time>
      </trkpt>
      <trkpt lat="41.76821" lon="2.98291">
        <ele>282.0</ele>
        <time>2021-08-15T07:19:56Z</time>
      </trkpt>
      <trkpt lat="41.768145" lon="2.98304">
        <ele>281.0</ele>
        <time>2021-08-15T07:19:58Z</time>
      </trkpt>
      <trkpt lat="41.76806" lon="2.983135">
        <ele>280.0</ele>
        <time>2021-08-15T07:20:00Z</time>
      </trkpt>
      <trkpt lat="41.76797" lon="2.983145">
        <ele>279.0</ele>
        <time>2021-08-15T07:20:02Z</time>
      </trkpt>
      <trkpt lat="41.76787" lon="2.98311">
        <ele>279.0</ele>
        <time>2021-08-15T07:20:04Z</time>
      </trkpt>
      <trkpt lat="41.767765" lon="2.983022">
        <ele>278.0</ele>
        <time>2021-08-15T07:20:06Z</time>
      </trkpt>
      <trkpt lat="41.767695" lon="2.98298">
        <ele>278.0</ele>
        <time>2021-08-15T07:20:08Z</time>
      </trkpt>
      <trkpt lat="41.76762" lon="2.98298">
        <ele>277.0</ele>
        <time>2021-08-15T07:20:10Z</time>
      </trkpt>
      <trkpt lat="41.76753" lon="2.98304">
        <ele>276.0</ele>
        <time>2021-08-15T07:20:12Z</time>
      </trkpt>
      <trkpt lat="41.767455" lon="2.98311">
        <ele>275.0</ele>
        <time>2021-08-15T07:20:14Z</time>
      </trkpt>
      <trkpt lat="41.767355" lon="2.98317">
        <ele>273.0</ele>
        <time>2021-08-15T07:20:16Z</time>
      </trkpt>
      <trkpt lat="41.76727" lon="2.98317">
        <ele>271.0</ele>
        <time>2021-08-15T07:20:18Z</time>
      </trkpt>
      <trkpt lat="41.76717" lon="2.98309">
        <ele>270.0</ele>
        <time>2021-08-15T07:20:20Z</time>
      </trkpt>
      <trkpt lat="41.767075" lon="2.983015">
        <ele>270.0</ele>
        <time>2021-08-15T07:20:22Z</time>
      </trkpt>
      <trkpt lat="41.767" lon="2.982945">
        <ele>269.0</ele>
        <time>2021-08-15T07:20:24Z</time>
      </trkpt>
      <trkpt lat="41.766925" lon="2.98284">
        <ele>268.0</ele>
        <time>2021-08-15T07:20:26Z</time>
      </trkpt>
      <trkpt lat="41.766838" lon="2.982737">
        <ele>267.0</ele>
        <time>2021-08-15T07:20:28Z</time>
      </trkpt>
      <trkpt lat="41.766752" lon="2.98265">
        <ele>266.0</ele>
        <time>2021-08-15T07:20:30Z</time>
      </trkpt>
      <trkpt lat="41.766645" lon="2.98259">
        <ele>265.0</ele>
        <time>2021-08-15T07:20:32Z</time>
      </trkpt>
      <trkpt lat="41.766528" lon="2.98255">
        <ele>264.0</ele>
        <time>2021-08-15T07:20:34Z</time>
      </trkpt>
      <trkpt lat="41.766385" lon="2.982502">
        <ele>263.0</ele>
        <time>2021-08-15T07:20:36Z</time>
      </trkpt>
      <trkpt lat="41.766303" lon="2.98248">
        <ele>263.0</ele>
        <time>2021-08-15T07:20:37Z</time>
      </trkpt>
      <trkpt lat="41.76623" lon="2.98244">
        <ele>262.0</ele>
        <time>2021-08-15T07:20:38Z</time>
      </trkpt>
      <trkpt lat="41.76616" lon="2.98239">
        <ele>261.0</ele>
        <time>2021-08-15T07:20:39Z</time>
      </trkpt>
      <trkpt lat="41.766078" lon="2.982335">
        <ele>261.0</ele>
        <time>2021-08-15T07:20:40Z</time>
      </trkpt>
      <trkpt lat="41.76601" lon="2.98228">
        <ele>260.0</ele>
        <time>2021-08-15T07:20:41Z</time>
      </trkpt>
      <trkpt lat="41.765885" lon="2.9822">
        <ele>259.0</ele>
        <time>2021-08-15T07:20:43Z</time>
      </trkpt>
      <trkpt lat="41.765735" lon="2.98216">
        <ele>257.0</ele>
        <time>2021-08-15T07:20:45Z</time>
      </trkpt>
      <trkpt lat="41.765645" lon="2.98216">
        <ele>256.0</ele>
        <time>2021-08-15T07:20:46Z</time>
      </trkpt>
      <trkpt lat="41.765555" lon="2.98215">
        <ele>255.0</ele>
        <time>2021-08-15T07:20:47Z</time>
      </trkpt>
      <trkpt lat="41.76547" lon="2.982125">
        <ele>255.0</ele>
        <time>2021-08-15T07:20:48Z</time>
      </trkpt>
      <trkpt lat="41.765383" lon="2.98209">
        <ele>254.0</ele>
        <time>2021-08-15T07:20:49Z</time>
      </trkpt>
      <trkpt lat="41.76531" lon="2.982037">
        <ele>253.0</ele>
        <time>2021-08-15T07:20:50Z</time>
      </trkpt>
      <trkpt lat="41.76524" lon="2.981985">
        <ele>252.0</ele>
        <time>2021-08-15T07:20:51Z</time>
      </trkpt>
      <trkpt lat="41.76518" lon="2.981935">
        <ele>251.0</ele>
        <time>2021-08-15T07:20:52Z</time>
      </trkpt>
      <trkpt lat="41.765065" lon="2.98184">
        <ele>250.0</ele>
        <time>2021-08-15T07:20:54Z</time>
      </trkpt>
      <trkpt lat="41.764945" lon="2.98181">
        <ele>248.0</ele>
        <time>2021-08-15T07:20:56Z</time>
      </trkpt>
      <trkpt lat="41.764845" lon="2.9819">
        <ele>247.0</ele>
        <time>2021-08-15T07:20:58Z</time>
      </trkpt>
      <trkpt lat="41.76477" lon="2.982058">
        <ele>246.0</ele>
        <time>2021-08-15T07:21:00Z</time>
      </trkpt>
      <trkpt lat="41.764755" lon="2.98216">
        <ele>246.0</ele>
        <time>2021-08-15T07:21:01Z</time>
      </trkpt>
      <trkpt lat="41.76475" lon="2.982323">
        <ele>245.0</ele>
        <time>2021-08-15T07:21:03Z</time>
      </trkpt>
      <trkpt lat="41.764755" lon="2.982455">
        <ele>243.0</ele>
        <time>2021-08-15T07:21:05Z</time>
      </trkpt>
      <trkpt lat="41.764765" lon="2.982583">
        <ele>242.0</ele>
        <time>2021-08-15T07:21:07Z</time>
      </trkpt>
      <trkpt lat="41.764765" lon="2.982735">
        <ele>241.0</ele>
        <time>2021-08-15T07:21:09Z</time>
      </trkpt>
      <trkpt lat="41.764778" lon="2.982915">
        <ele>240.0</ele>
        <time>2021-08-15T07:21:11Z</time>
      </trkpt>
      <trkpt lat="41.764795" lon="2.98301">
        <ele>239.0</ele>
        <time>2021-08-15T07:21:12Z</time>
      </trkpt>
      <trkpt lat="41.76483" lon="2.983195">
        <ele>237.0</ele>
        <time>2021-08-15T07:21:14Z</time>
      </trkpt>
      <trkpt lat="41.764848" lon="2.98329">
        <ele>237.0</ele>
        <time>2021-08-15T07:21:15Z</time>
      </trkpt>
      <trkpt lat="41.764915" lon="2.983445">
        <ele>236.0</ele>
        <time>2021-08-15T07:21:17Z</time>
      </trkpt>
      <trkpt lat="41.76496" lon="2.98358">
        <ele>235.0</ele>
        <time>2021-08-15T07:21:19Z</time>
      </trkpt>
      <trkpt lat="41.76495" lon="2.983687">
        <ele>234.0</ele>
        <time>2021-08-15T07:21:21Z</time>
      </trkpt>
      <trkpt lat="41.76486" lon="2.98371">
        <ele>231.0</ele>
        <time>2021-08-15T07:21:24Z</time>
      </trkpt>
      <trkpt lat="41.764775" lon="2.98373">
        <ele>230.0</ele>
        <time>2021-08-15T07:21:28Z</time>
      </trkpt>
      <trkpt lat="41.764735" lon="2.983747">
        <ele>229.0</ele>
        <time>2021-08-15T07:21:35Z</time>
      </trkpt>
      <trkpt lat="41.76473" lon="2.98374">
        <ele>229.0</ele>
        <time>2021-08-15T07:21:39Z</time>
      </trkpt>
      <trkpt lat="41.764725" lon="2.98374">
        <ele>229.0</ele>
        <time>2021-08-15T07:21:46Z</time>
      </trkpt>
      <trkpt lat="41.764725" lon="2.98374">
        <ele>229.0</ele>
        <time>2021-08-15T07:21:47Z</time>
      </trkpt>
      <trkpt lat="41.76473" lon="2.983735">
        <ele>229.0</ele>
        <time>2021-08-15T07:22:13Z</time>
      </trkpt>
      <trkpt lat="41.76473" lon="2.983735">
        <ele>229.0</ele>
        <time>2021-08-15T07:22:14Z</time>
      </trkpt>
      <trkpt lat="41.764725" lon="2.983735">
        <ele>228.0</ele>
        <time>2021-08-15T07:22:52Z</time>
      </trkpt>
      <trkpt lat="41.764725" lon="2.983735">
        <ele>228.0</ele>
        <time>2021-08-15T07:22:53Z</time>
      </trkpt>
      <trkpt lat="41.76474" lon="2.983753">
        <ele>224.0</ele>
        <time>2021-08-15T07:23:30Z</time>
      </trkpt>
      <trkpt lat="41.76474" lon="2.983742">
        <ele>225.0</ele>
        <time>2021-08-15T07:23:37Z</time>
      </trkpt>
      <trkpt lat="41.76476" lon="2.983615">
        <ele>226.0</ele>
        <time>2021-08-15T07:23:42Z</time>
      </trkpt>
      <trkpt lat="41.76474" lon="2.983505">
        <ele>225.0</ele>
        <time>2021-08-15T07:23:45Z</time>
      </trkpt>
      <trkpt lat="41.764685" lon="2.983403">
        <ele>223.0</ele>
        <time>2021-08-15T07:23:47Z</time>
      </trkpt>
      <trkpt lat="41.764622" lon="2.983303">
        <ele>222.0</ele>
        <time>2021-08-15T07:23:49Z</time>
      </trkpt>
      <trkpt lat="41.76457" lon="2.983175">
        <ele>222.0</ele>
        <time>2021-08-15T07:23:51Z</time>
      </trkpt>
      <trkpt lat="41.764525" lon="2.983015">
        <ele>221.0</ele>
        <time>2021-08-15T07:23:53Z</time>
      </trkpt>
      <trkpt lat="41.764485" lon="2.98285">
        <ele>221.0</ele>
        <time>2021-08-15T07:23:55Z</time>
      </trkpt>
      <trkpt lat="41.764455" lon="2.98269">
        <ele>220.0</ele>
        <time>2021-08-15T07:23:57Z</time>
      </trkpt>
      <trkpt lat="41.764425" lon="2.98252">
        <ele>220.0</ele>
        <time>2021-08-15T07:23:59Z</time>
      </trkpt>
      <trkpt lat="41.764385" lon="2.98235">
        <ele>219.0</ele>
        <time>2021-08-15T07:24:01Z</time>
      </trkpt>
      <trkpt lat="41.764332" lon="2.982185">
        <ele>219.0</ele>
        <time>2021-08-15T07:24:03Z</time>
      </trkpt>
      <trkpt lat="41.764285" lon="2.98203">
        <ele>218.0</ele>
        <time>2021-08-15T07:24:05Z</time>
      </trkpt>
      <trkpt lat="41.76424" lon="2.981855">
        <ele>218.0</ele>
        <time>2021-08-15T07:24:07Z</time>
      </trkpt>
      <trkpt lat="41.76422" lon="2.98176">
        <ele>217.0</ele>
        <time>2021-08-15T07:24:08Z</time>
      </trkpt>
      <trkpt lat="41.764175" lon="2.981585">
        <ele>217.0</ele>
        <time>2021-08-15T07:24:10Z</time>
      </trkpt>
      <trkpt lat="41.764135" lon="2.98142">
        <ele>217.0</ele>
        <time>2021-08-15T07:24:12Z</time>
      </trkpt>
      <trkpt lat="41.764107" lon="2.981325">
        <ele>215.0</ele>
        <time>2021-08-15T07:24:13Z</time>
      </trkpt>
      <trkpt lat="41.764085" lon="2.981232">
        <ele>214.0</ele>
        <time>2021-08-15T07:24:14Z</time>
      </trkpt>
      <trkpt lat="41.76406" lon="2.981138">
        <ele>214.0</ele>
        <time>2021-08-15T07:24:15Z</time>
      </trkpt>
      <trkpt lat="41.764015" lon="2.980968">
        <ele>213.0</ele>
        <time>2021-08-15T07:24:17Z</time>
      </trkpt>
      <trkpt lat="41.764005" lon="2.980787">
        <ele>212.0</ele>
        <time>2021-08-15T07:24:19Z</time>
      </trkpt>
      <trkpt lat="41.76404" lon="2.980603">
        <ele>210.0</ele>
        <time>2021-08-15T07:24:21Z</time>
      </trkpt>
      <trkpt lat="41.764107" lon="2.980455">
        <ele>208.0</ele>
        <time>2021-08-15T07:24:23Z</time>
      </trkpt>
      <trkpt lat="41.764215" lon="2.98033">
        <ele>206.0</ele>
        <time>2021-08-15T07:24:25Z</time>
      </trkpt>
      <trkpt lat="41.764332" lon="2.98028">
        <ele>204.0</ele>
        <time>2021-08-15T07:24:27Z</time>
      </trkpt>
      <trkpt lat="41.76446" lon="2.980305">
        <ele>202.0</ele>
        <time>2021-08-15T07:24:29Z</time>
      </trkpt>
      <trkpt lat="41.76455" lon="2.980365">
        <ele>202.0</ele>
        <time>2021-08-15T07:24:31Z</time>
      </trkpt>
      <trkpt lat="41.76462" lon="2.98034">
        <ele>201.0</ele>
        <time>2021-08-15T07:24:34Z</time>
      </trkpt>
      <trkpt lat="41.764575" lon="2.980235">
        <ele>200.0</ele>
        <time>2021-08-15T07:24:37Z</time>
      </trkpt>
      <trkpt lat="41.764468" lon="2.98013">
        <ele>198.0</ele>
        <time>2021-08-15T07:24:39Z</time>
      </trkpt>
      <trkpt lat="41.76441" lon="2.980068">
        <ele>197.0</ele>
        <time>2021-08-15T07:24:40Z</time>
      </trkpt>
      <trkpt lat="41.764345" lon="2.980025">
        <ele>195.0</ele>
        <time>2021-08-15T07:24:41Z</time>
      </trkpt>
      <trkpt lat="41.76427" lon="2.97997">
        <ele>194.0</ele>
        <time>2021-08-15T07:24:42Z</time>
      </trkpt>
      <trkpt lat="41.7642" lon="2.97992">
        <ele>193.0</ele>
        <time>2021-08-15T07:24:43Z</time>
      </trkpt>
      <trkpt lat="41.76413" lon="2.979875">
        <ele>193.0</ele>
        <time>2021-08-15T07:24:44Z</time>
      </trkpt>
      <trkpt lat="41.764065" lon="2.979825">
        <ele>193.0</ele>
        <time>2021-08-15T07:24:45Z</time>
      </trkpt>
      <trkpt lat="41.763952" lon="2.97979">
        <ele>191.0</ele>
        <time>2021-08-15T07:24:47Z</time>
      </trkpt>
      <trkpt lat="41.76388" lon="2.979865">
        <ele>189.0</ele>
        <time>2021-08-15T07:24:49Z</time>
      </trkpt>
      <trkpt lat="41.763835" lon="2.97997">
        <ele>188.0</ele>
        <time>2021-08-15T07:24:51Z</time>
      </trkpt>
      <trkpt lat="41.76379" lon="2.980095">
        <ele>186.0</ele>
        <time>2021-08-15T07:24:53Z</time>
      </trkpt>
      <trkpt lat="41.76372" lon="2.98022">
        <ele>184.0</ele>
        <time>2021-08-15T07:24:55Z</time>
      </trkpt>
      <trkpt lat="41.763635" lon="2.980325">
        <ele>181.0</ele>
        <time>2021-08-15T07:24:57Z</time>
      </trkpt>
      <trkpt lat="41.76355" lon="2.980435">
        <ele>180.0</ele>
        <time>2021-08-15T07:24:59Z</time>
      </trkpt>
      <trkpt lat="41.763487" lon="2.980585">
        <ele>178.0</ele>
        <time>2021-08-15T07:25:01Z</time>
      </trkpt>
      <trkpt lat="41.763425" lon="2.980745">
        <ele>176.0</ele>
        <time>2021-08-15T07:25:03Z</time>
      </trkpt>
      <trkpt lat="41.76337" lon="2.980893">
        <ele>175.0</ele>
        <time>2021-08-15T07:25:05Z</time>
      </trkpt>
      <trkpt lat="41.763355" lon="2.981047">
        <ele>173.0</ele>
        <time>2021-08-15T07:25:07Z</time>
      </trkpt>
      <trkpt lat="41.763395" lon="2.98119">
        <ele>173.0</ele>
        <time>2021-08-15T07:25:09Z</time>
      </trkpt>
      <trkpt lat="41.76348" lon="2.981315">
        <ele>172.0</ele>
        <time>2021-08-15T07:25:11Z</time>
      </trkpt>
      <trkpt lat="41.763555" lon="2.981405">
        <ele>172.0</ele>
        <time>2021-08-15T07:25:13Z</time>
      </trkpt>
      <trkpt lat="41.763605" lon="2.981515">
        <ele>171.0</ele>
        <time>2021-08-15T07:25:16Z</time>
      </trkpt>
      <trkpt lat="41.76353" lon="2.981555">
        <ele>170.0</ele>
        <time>2021-08-15T07:25:22Z</time>
      </trkpt>
      <trkpt lat="41.76345" lon="2.981455">
        <ele>169.0</ele>
        <time>2021-08-15T07:25:25Z</time>
      </trkpt>
      <trkpt lat="41.763385" lon="2.981385">
        <ele>168.0</ele>
        <time>2021-08-15T07:25:27Z</time>
      </trkpt>
      <trkpt lat="41.763305" lon="2.9813">
        <ele>167.0</ele>
        <time>2021-08-15T07:25:29Z</time>
      </trkpt>
      <trkpt lat="41.76324" lon="2.981175">
        <ele>167.0</ele>
        <time>2021-08-15T07:25:31Z</time>
      </trkpt>
      <trkpt lat="41.76319" lon="2.98103">
        <ele>166.0</ele>
        <time>2021-08-15T07:25:33Z</time>
      </trkpt>
      <trkpt lat="41.763185" lon="2.980845">
        <ele>166.0</ele>
        <time>2021-08-15T07:25:35Z</time>
      </trkpt>
      <trkpt lat="41.763192" lon="2.98075">
        <ele>165.0</ele>
        <time>2021-08-15T07:25:36Z</time>
      </trkpt>
      <trkpt lat="41.7632" lon="2.98057">
        <ele>165.0</ele>
        <time>2021-08-15T07:25:38Z</time>
      </trkpt>
      <trkpt lat="41.763193" lon="2.98047">
        <ele>165.0</ele>
        <time>2021-08-15T07:25:39Z</time>
      </trkpt>
      <trkpt lat="41.763193" lon="2.980275">
        <ele>163.0</ele>
        <time>2021-08-15T07:25:41Z</time>
      </trkpt>
      <trkpt lat="41.76322" lon="2.98016">
        <ele>163.0</ele>
        <time>2021-08-15T07:25:42Z</time>
      </trkpt>
      <trkpt lat="41.763257" lon="2.980067">
        <ele>162.0</ele>
        <time>2021-08-15T07:25:43Z</time>
      </trkpt>
      <trkpt lat="41.763315" lon="2.979978">
        <ele>161.0</ele>
        <time>2021-08-15T07:25:44Z</time>
      </trkpt>
      <trkpt lat="41.763348" lon="2.97988">
        <ele>161.0</ele>
        <time>2021-08-15T07:25:45Z</time>
      </trkpt>
      <trkpt lat="41.763375" lon="2.97977">
        <ele>160.0</ele>
        <time>2021-08-15T07:25:46Z</time>
      </trkpt>
      <trkpt lat="41.763375" lon="2.97965">
        <ele>159.0</ele>
        <time>2021-08-15T07:25:47Z</time>
      </trkpt>
      <trkpt lat="41.76337" lon="2.979528">
        <ele>159.0</ele>
        <time>2021-08-15T07:25:48Z</time>
      </trkpt>
      <trkpt lat="41.763365" lon="2.97942">
        <ele>158.0</ele>
        <time>2021-08-15T07:25:49Z</time>
      </trkpt>
      <trkpt lat="41.763375" lon="2.9793">
        <ele>158.0</ele>
        <time>2021-08-15T07:25:50Z</time>
      </trkpt>
      <trkpt lat="41.763405" lon="2.97919">
        <ele>157.0</ele>
        <time>2021-08-15T07:25:51Z</time>
      </trkpt>
      <trkpt lat="41.763445" lon="2.979082">
        <ele>157.0</ele>
        <time>2021-08-15T07:25:52Z</time>
      </trkpt>
      <trkpt lat="41.7635" lon="2.978988">
        <ele>156.0</ele>
        <time>2021-08-15T07:25:53Z</time>
      </trkpt>
      <trkpt lat="41.763565" lon="2.97891">
        <ele>155.0</ele>
        <time>2021-08-15T07:25:54Z</time>
      </trkpt>
      <trkpt lat="41.763638" lon="2.978825">
        <ele>154.0</ele>
        <time>2021-08-15T07:25:55Z</time>
      </trkpt>
      <trkpt lat="41.763712" lon="2.978745">
        <ele>153.0</ele>
        <time>2021-08-15T07:25:56Z</time>
      </trkpt>
      <trkpt lat="41.763792" lon="2.97868">
        <ele>153.0</ele>
        <time>2021-08-15T07:25:57Z</time>
      </trkpt>
      <trkpt lat="41.76388" lon="2.978628">
        <ele>151.0</ele>
        <time>2021-08-15T07:25:58Z</time>
      </trkpt>
      <trkpt lat="41.763985" lon="2.978615">
        <ele>151.0</ele>
        <time>2021-08-15T07:25:59Z</time>
      </trkpt>
      <trkpt lat="41.764085" lon="2.978605">
        <ele>150.0</ele>
        <time>2021-08-15T07:26:00Z</time>
      </trkpt>
      <trkpt lat="41.764177" lon="2.978643">
        <ele>150.0</ele>
        <time>2021-08-15T07:26:01Z</time>
      </trkpt>
      <trkpt lat="41.76426" lon="2.978715">
        <ele>149.0</ele>
        <time>2021-08-15T07:26:02Z</time>
      </trkpt>
      <trkpt lat="41.76433" lon="2.97879">
        <ele>148.0</ele>
        <time>2021-08-15T07:26:03Z</time>
      </trkpt>
      <trkpt lat="41.764395" lon="2.978875">
        <ele>148.0</ele>
        <time>2021-08-15T07:26:04Z</time>
      </trkpt>
      <trkpt lat="41.76445" lon="2.978975">
        <ele>148.0</ele>
        <time>2021-08-15T07:26:05Z</time>
      </trkpt>
      <trkpt lat="41.7645" lon="2.979065">
        <ele>148.0</ele>
        <time>2021-08-15T07:26:06Z</time>
      </trkpt>
      <trkpt lat="41.764557" lon="2.979135">
        <ele>148.0</ele>
        <time>2021-08-15T07:26:07Z</time>
      </trkpt>
      <trkpt lat="41.764635" lon="2.979183">
        <ele>147.0</ele>
        <time>2021-08-15T07:26:08Z</time>
      </trkpt>
      <trkpt lat="41.764712" lon="2.979217">
        <ele>147.0</ele>
        <time>2021-08-15T07:26:09Z</time>
      </trkpt>
      <trkpt lat="41.764795" lon="2.979245">
        <ele>146.0</ele>
        <time>2021-08-15T07:26:10Z</time>
      </trkpt>
      <trkpt lat="41.764867" lon="2.97923">
        <ele>145.0</ele>
        <time>2021-08-15T07:26:11Z</time>
      </trkpt>
      <trkpt lat="41.764975" lon="2.97912">
        <ele>145.0</ele>
        <time>2021-08-15T07:26:13Z</time>
      </trkpt>
      <trkpt lat="41.765" lon="2.978945">
        <ele>142.0</ele>
        <time>2021-08-15T07:26:15Z</time>
      </trkpt>
      <trkpt lat="41.764985" lon="2.97885">
        <ele>142.0</ele>
        <time>2021-08-15T07:26:16Z</time>
      </trkpt>
      <trkpt lat="41.764965" lon="2.97875">
        <ele>141.0</ele>
        <time>2021-08-15T07:26:17Z</time>
      </trkpt>
      <trkpt lat="41.764935" lon="2.978655">
        <ele>140.0</ele>
        <time>2021-08-15T07:26:18Z</time>
      </trkpt>
      <trkpt lat="41.764905" lon="2.978542">
        <ele>140.0</ele>
        <time>2021-08-15T07:26:19Z</time>
      </trkpt>
      <trkpt lat="41.764885" lon="2.97844">
        <ele>139.0</ele>
        <time>2021-08-15T07:26:20Z</time>
      </trkpt>
      <trkpt lat="41.76485" lon="2.978335">
        <ele>139.0</ele>
        <time>2021-08-15T07:26:21Z</time>
      </trkpt>
      <trkpt lat="41.764825" lon="2.97823">
        <ele>138.0</ele>
        <time>2021-08-15T07:26:22Z</time>
      </trkpt>
      <trkpt lat="41.76479" lon="2.978115">
        <ele>138.0</ele>
        <time>2021-08-15T07:26:23Z</time>
      </trkpt>
      <trkpt lat="41.764745" lon="2.978015">
        <ele>138.0</ele>
        <time>2021-08-15T07:26:24Z</time>
      </trkpt>
      <trkpt lat="41.764695" lon="2.97791">
        <ele>138.0</ele>
        <time>2021-08-15T07:26:25Z</time>
      </trkpt>
      <trkpt lat="41.764655" lon="2.9778">
        <ele>137.0</ele>
        <time>2021-08-15T07:26:26Z</time>
      </trkpt>
      <trkpt lat="41.76462" lon="2.97768">
        <ele>137.0</ele>
        <time>2021-08-15T07:26:27Z</time>
      </trkpt>
      <trkpt lat="41.764585" lon="2.977557">
        <ele>137.0</ele>
        <time>2021-08-15T07:26:28Z</time>
      </trkpt>
      <trkpt lat="41.764555" lon="2.977435">
        <ele>136.0</ele>
        <time>2021-08-15T07:26:29Z</time>
      </trkpt>
      <trkpt lat="41.764525" lon="2.977315">
        <ele>136.0</ele>
        <time>2021-08-15T07:26:30Z</time>
      </trkpt>
      <trkpt lat="41.764485" lon="2.977195">
        <ele>135.0</ele>
        <time>2021-08-15T07:26:31Z</time>
      </trkpt>
      <trkpt lat="41.76444" lon="2.97708">
        <ele>134.0</ele>
        <time>2021-08-15T07:26:32Z</time>
      </trkpt>
      <trkpt lat="41.764395" lon="2.97698">
        <ele>134.0</ele>
        <time>2021-08-15T07:26:33Z</time>
      </trkpt>
      <trkpt lat="41.76437" lon="2.976885">
        <ele>133.0</ele>
        <time>2021-08-15T07:26:34Z</time>
      </trkpt>
      <trkpt lat="41.76434" lon="2.97679">
        <ele>132.0</ele>
        <time>2021-08-15T07:26:35Z</time>
      </trkpt>
      <trkpt lat="41.764315" lon="2.976695">
        <ele>132.0</ele>
        <time>2021-08-15T07:26:36Z</time>
      </trkpt>
      <trkpt lat="41.76431" lon="2.97659">
        <ele>132.0</ele>
        <time>2021-08-15T07:26:37Z</time>
      </trkpt>
      <trkpt lat="41.764325" lon="2.976482">
        <ele>131.0</ele>
        <time>2021-08-15T07:26:38Z</time>
      </trkpt>
      <trkpt lat="41.764365" lon="2.976385">
        <ele>130.0</ele>
        <time>2021-08-15T07:26:39Z</time>
      </trkpt>
      <trkpt lat="41.76442" lon="2.97629">
        <ele>130.0</ele>
        <time>2021-08-15T07:26:40Z</time>
      </trkpt>
      <trkpt lat="41.76448" lon="2.976212">
        <ele>129.0</ele>
        <time>2021-08-15T07:26:41Z</time>
      </trkpt>
      <trkpt lat="41.76455" lon="2.976155">
        <ele>128.0</ele>
        <time>2021-08-15T07:26:42Z</time>
      </trkpt>
      <trkpt lat="41.764625" lon="2.976115">
        <ele>128.0</ele>
        <time>2021-08-15T07:26:43Z</time>
      </trkpt>
      <trkpt lat="41.764712" lon="2.97608">
        <ele>127.0</ele>
        <time>2021-08-15T07:26:44Z</time>
      </trkpt>
      <trkpt lat="41.76481" lon="2.97606">
        <ele>126.0</ele>
        <time>2021-08-15T07:26:45Z</time>
      </trkpt>
      <trkpt lat="41.764905" lon="2.97605">
        <ele>125.0</ele>
        <time>2021-08-15T07:26:46Z</time>
      </trkpt>
      <trkpt lat="41.764985" lon="2.976027">
        <ele>124.0</ele>
        <time>2021-08-15T07:26:47Z</time>
      </trkpt>
      <trkpt lat="41.765072" lon="2.97601">
        <ele>124.0</ele>
        <time>2021-08-15T07:26:48Z</time>
      </trkpt>
      <trkpt lat="41.76516" lon="2.976005">
        <ele>123.0</ele>
        <time>2021-08-15T07:26:49Z</time>
      </trkpt>
      <trkpt lat="41.765245" lon="2.976032">
        <ele>123.0</ele>
        <time>2021-08-15T07:26:50Z</time>
      </trkpt>
      <trkpt lat="41.76533" lon="2.976085">
        <ele>122.0</ele>
        <time>2021-08-15T07:26:51Z</time>
      </trkpt>
      <trkpt lat="41.76541" lon="2.976145">
        <ele>122.0</ele>
        <time>2021-08-15T07:26:52Z</time>
      </trkpt>
      <trkpt lat="41.76549" lon="2.976185">
        <ele>121.0</ele>
        <time>2021-08-15T07:26:53Z</time>
      </trkpt>
      <trkpt lat="41.76557" lon="2.976212">
        <ele>120.0</ele>
        <time>2021-08-15T07:26:54Z</time>
      </trkpt>
      <trkpt lat="41.76565" lon="2.976235">
        <ele>120.0</ele>
        <time>2021-08-15T07:26:55Z</time>
      </trkpt>
      <trkpt lat="41.765735" lon="2.97624">
        <ele>119.0</ele>
        <time>2021-08-15T07:26:56Z</time>
      </trkpt>
      <trkpt lat="41.76581" lon="2.976223">
        <ele>118.0</ele>
        <time>2021-08-15T07:26:57Z</time>
      </trkpt>
      <trkpt lat="41.765885" lon="2.97619">
        <ele>117.0</ele>
        <time>2021-08-15T07:26:58Z</time>
      </trkpt>
      <trkpt lat="41.76596" lon="2.976045">
        <ele>115.0</ele>
        <time>2021-08-15T07:27:00Z</time>
      </trkpt>
      <trkpt lat="41.76595" lon="2.975947">
        <ele>115.0</ele>
        <time>2021-08-15T07:27:01Z</time>
      </trkpt>
      <trkpt lat="41.76593" lon="2.975853">
        <ele>115.0</ele>
        <time>2021-08-15T07:27:02Z</time>
      </trkpt>
      <trkpt lat="41.765825" lon="2.975725">
        <ele>114.0</ele>
        <time>2021-08-15T07:27:04Z</time>
      </trkpt>
      <trkpt lat="41.76576" lon="2.97566">
        <ele>113.0</ele>
        <time>2021-08-15T07:27:05Z</time>
      </trkpt>
      <trkpt lat="41.76571" lon="2.975577">
        <ele>113.0</ele>
        <time>2021-08-15T07:27:06Z</time>
      </trkpt>
      <trkpt lat="41.765677" lon="2.975485">
        <ele>112.0</ele>
        <time>2021-08-15T07:27:07Z</time>
      </trkpt>
      <trkpt lat="41.76572" lon="2.975307">
        <ele>112.0</ele>
        <time>2021-08-15T07:27:09Z</time>
      </trkpt>
      <trkpt lat="41.765763" lon="2.975235">
        <ele>112.0</ele>
        <time>2021-08-15T07:27:10Z</time>
      </trkpt>
      <trkpt lat="41.76581" lon="2.97516">
        <ele>112.0</ele>
        <time>2021-08-15T07:27:11Z</time>
      </trkpt>
      <trkpt lat="41.76585" lon="2.97497">
        <ele>111.0</ele>
        <time>2021-08-15T07:27:13Z</time>
      </trkpt>
      <trkpt lat="41.76583" lon="2.97486">
        <ele>111.0</ele>
        <time>2021-08-15T07:27:14Z</time>
      </trkpt>
      <trkpt lat="41.76579" lon="2.97477">
        <ele>111.0</ele>
        <time>2021-08-15T07:27:15Z</time>
      </trkpt>
      <trkpt lat="41.76573" lon="2.974688">
        <ele>111.0</ele>
        <time>2021-08-15T07:27:16Z</time>
      </trkpt>
      <trkpt lat="41.76566" lon="2.974632">
        <ele>110.0</ele>
        <time>2021-08-15T07:27:17Z</time>
      </trkpt>
      <trkpt lat="41.7656" lon="2.97458">
        <ele>110.0</ele>
        <time>2021-08-15T07:27:18Z</time>
      </trkpt>
      <trkpt lat="41.76548" lon="2.974505">
        <ele>110.0</ele>
        <time>2021-08-15T07:27:20Z</time>
      </trkpt>
      <trkpt lat="41.76537" lon="2.97456">
        <ele>110.0</ele>
        <time>2021-08-15T07:27:22Z</time>
      </trkpt>
      <trkpt lat="41.76528" lon="2.974603">
        <ele>109.0</ele>
        <time>2021-08-15T07:27:24Z</time>
      </trkpt>
      <trkpt lat="41.76521" lon="2.97464">
        <ele>108.0</ele>
        <time>2021-08-15T07:27:26Z</time>
      </trkpt>
      <trkpt lat="41.76513" lon="2.974665">
        <ele>108.0</ele>
        <time>2021-08-15T07:27:29Z</time>
      </trkpt>
      <trkpt lat="41.765045" lon="2.97468">
        <ele>108.0</ele>
        <time>2021-08-15T07:27:32Z</time>
      </trkpt>
      <trkpt lat="41.764965" lon="2.974685">
        <ele>108.0</ele>
        <time>2021-08-15T07:27:35Z</time>
      </trkpt>
      <trkpt lat="41.764885" lon="2.974725">
        <ele>108.0</ele>
        <time>2021-08-15T07:27:40Z</time>
      </trkpt>
      <trkpt lat="41.7648" lon="2.974687">
        <ele>109.0</ele>
        <time>2021-08-15T07:27:44Z</time>
      </trkpt>
      <trkpt lat="41.76472" lon="2.974645">
        <ele>109.0</ele>
        <time>2021-08-15T07:27:48Z</time>
      </trkpt>
      <trkpt lat="41.764645" lon="2.97458">
        <ele>109.0</ele>
        <time>2021-08-15T07:27:52Z</time>
      </trkpt>
      <trkpt lat="41.764595" lon="2.974507">
        <ele>109.0</ele>
        <time>2021-08-15T07:27:56Z</time>
      </trkpt>
      <trkpt lat="41.76455" lon="2.974418">
        <ele>109.0</ele>
        <time>2021-08-15T07:28:02Z</time>
      </trkpt>
      <trkpt lat="41.764525" lon="2.97432">
        <ele>108.0</ele>
        <time>2021-08-15T07:28:09Z</time>
      </trkpt>
      <trkpt lat="41.764505" lon="2.97422">
        <ele>108.0</ele>
        <time>2021-08-15T07:28:16Z</time>
      </trkpt>
      <trkpt lat="41.764505" lon="2.974158">
        <ele>109.0</ele>
        <time>2021-08-15T07:28:23Z</time>
      </trkpt>
      <trkpt lat="41.764555" lon="2.974205">
        <ele>111.0</ele>
        <time>2021-08-15T07:28:30Z</time>
      </trkpt>
      <trkpt lat="41.7645" lon="2.9743">
        <ele>112.0</ele>
        <time>2021-08-15T07:28:34Z</time>
      </trkpt>
      <trkpt lat="41.76443" lon="2.9744">
        <ele>111.0</ele>
        <time>2021-08-15T07:28:37Z</time>
      </trkpt>
      <trkpt lat="41.764365" lon="2.97445">
        <ele>111.0</ele>
        <time>2021-08-15T07:28:39Z</time>
      </trkpt>
      <trkpt lat="41.76429" lon="2.97447">
        <ele>110.0</ele>
        <time>2021-08-15T07:28:41Z</time>
      </trkpt>
      <trkpt lat="41.76421" lon="2.974525">
        <ele>110.0</ele>
        <time>2021-08-15T07:28:44Z</time>
      </trkpt>
      <trkpt lat="41.76422" lon="2.97464">
        <ele>109.0</ele>
        <time>2021-08-15T07:28:48Z</time>
      </trkpt>
      <trkpt lat="41.764215" lon="2.97471">
        <ele>108.0</ele>
        <time>2021-08-15T07:28:55Z</time>
      </trkpt>
      <trkpt lat="41.76422" lon="2.97471">
        <ele>108.0</ele>
        <time>2021-08-15T07:29:00Z</time>
      </trkpt>
      <trkpt lat="41.764285" lon="2.97468">
        <ele>109.0</ele>
        <time>2021-08-15T07:29:25Z</time>
      </trkpt>
      <trkpt lat="41.76434" lon="2.97459">
        <ele>110.0</ele>
        <time>2021-08-15T07:29:29Z</time>
      </trkpt>
      <trkpt lat="41.764425" lon="2.97457">
        <ele>110.0</ele>
        <time>2021-08-15T07:29:33Z</time>
      </trkpt>
      <trkpt lat="41.7645" lon="2.97452">
        <ele>111.0</ele>
        <time>2021-08-15T07:29:37Z</time>
      </trkpt>
      <trkpt lat="41.76454" lon="2.97447">
        <ele>112.0</ele>
        <time>2021-08-15T07:29:44Z</time>
      </trkpt>
      <trkpt lat="41.76455" lon="2.97444">
        <ele>112.0</ele>
        <time>2021-08-15T07:29:51Z</time>
      </trkpt>
      <trkpt lat="41.76455" lon="2.97444">
        <ele>112.0</ele>
        <time>2021-08-15T07:29:52Z</time>
      </trkpt>
      <trkpt lat="41.764565" lon="2.97432">
        <ele>113.0</ele>
        <time>2021-08-15T07:29:58Z</time>
      </trkpt>
      <trkpt lat="41.764575" lon="2.974205">
        <ele>113.0</ele>
        <time>2021-08-15T07:30:01Z</time>
      </trkpt>
      <trkpt lat="41.764555" lon="2.97409">
        <ele>112.0</ele>
        <time>2021-08-15T07:30:04Z</time>
      </trkpt>
      <trkpt lat="41.76454" lon="2.97398">
        <ele>113.0</ele>
        <time>2021-08-15T07:30:07Z</time>
      </trkpt>
      <trkpt lat="41.76452" lon="2.973872">
        <ele>114.0</ele>
        <time>2021-08-15T07:30:10Z</time>
      </trkpt>
      <trkpt lat="41.764465" lon="2.97378">
        <ele>114.0</ele>
        <time>2021-08-15T07:30:13Z</time>
      </trkpt>
      <trkpt lat="41.76438" lon="2.97371">
        <ele>114.0</ele>
        <time>2021-08-15T07:30:16Z</time>
      </trkpt>
      <trkpt lat="41.764285" lon="2.973735">
        <ele>114.0</ele>
        <time>2021-08-15T07:30:19Z</time>
      </trkpt>
      <trkpt lat="41.76419" lon="2.973795">
        <ele>114.0</ele>
        <time>2021-08-15T07:30:22Z</time>
      </trkpt>
      <trkpt lat="41.76409" lon="2.973835">
        <ele>114.0</ele>
        <time>2021-08-15T07:30:25Z</time>
      </trkpt>
      <trkpt lat="41.764" lon="2.973872">
        <ele>113.0</ele>
        <time>2021-08-15T07:30:28Z</time>
      </trkpt>
      <trkpt lat="41.763905" lon="2.97386">
        <ele>113.0</ele>
        <time>2021-08-15T07:30:31Z</time>
      </trkpt>
      <trkpt lat="41.763815" lon="2.973805">
        <ele>114.0</ele>
        <time>2021-08-15T07:30:34Z</time>
      </trkpt>
      <trkpt lat="41.763727" lon="2.973725">
        <ele>113.0</ele>
        <time>2021-08-15T07:30:37Z</time>
      </trkpt>
      <trkpt lat="41.76367" lon="2.973645">
        <ele>114.0</ele>
        <time>2021-08-15T07:30:39Z</time>
      </trkpt>
      <trkpt lat="41.76362" lon="2.97358">
        <ele>114.0</ele>
        <time>2021-08-15T07:30:41Z</time>
      </trkpt>
      <trkpt lat="41.763555" lon="2.973475">
        <ele>113.0</ele>
        <time>2021-08-15T07:30:44Z</time>
      </trkpt>
      <trkpt lat="41.76346" lon="2.973415">
        <ele>113.0</ele>
        <time>2021-08-15T07:30:47Z</time>
      </trkpt>
      <trkpt lat="41.76336" lon="2.973447">
        <ele>114.0</ele>
        <time>2021-08-15T07:30:50Z</time>
      </trkpt>
      <trkpt lat="41.7633" lon="2.97351">
        <ele>115.0</ele>
        <time>2021-08-15T07:30:52Z</time>
      </trkpt>
      <trkpt lat="41.76324" lon="2.97357">
        <ele>115.0</ele>
        <time>2021-08-15T07:30:54Z</time>
      </trkpt>
      <trkpt lat="41.763145" lon="2.97364">
        <ele>115.0</ele>
        <time>2021-08-15T07:30:57Z</time>
      </trkpt>
      <trkpt lat="41.763075" lon="2.973645">
        <ele>116.0</ele>
        <time>2021-08-15T07:30:59Z</time>
      </trkpt>
      <trkpt lat="41.763" lon="2.973618">
        <ele>116.0</ele>
        <time>2021-08-15T07:31:01Z</time>
      </trkpt>
      <trkpt lat="41.762915" lon="2.97355">
        <ele>117.0</ele>
        <time>2021-08-15T07:31:04Z</time>
      </trkpt>
      <trkpt lat="41.76283" lon="2.973457">
        <ele>117.0</ele>
        <time>2021-08-15T07:31:07Z</time>
      </trkpt>
      <trkpt lat="41.762742" lon="2.973375">
        <ele>118.0</ele>
        <time>2021-08-15T07:31:10Z</time>
      </trkpt>
      <trkpt lat="41.76267" lon="2.97328">
        <ele>119.0</ele>
        <time>2021-08-15T07:31:13Z</time>
      </trkpt>
      <trkpt lat="41.762595" lon="2.97319">
        <ele>120.0</ele>
        <time>2021-08-15T07:31:16Z</time>
      </trkpt>
      <trkpt lat="41.76253" lon="2.973073">
        <ele>120.0</ele>
        <time>2021-08-15T07:31:19Z</time>
      </trkpt>
      <trkpt lat="41.762475" lon="2.97301">
        <ele>120.0</ele>
        <time>2021-08-15T07:31:21Z</time>
      </trkpt>
      <trkpt lat="41.762385" lon="2.972955">
        <ele>121.0</ele>
        <time>2021-08-15T07:31:24Z</time>
      </trkpt>
      <trkpt lat="41.762285" lon="2.97294">
        <ele>121.0</ele>
        <time>2021-08-15T07:31:27Z</time>
      </trkpt>
      <trkpt lat="41.76219" lon="2.972995">
        <ele>121.0</ele>
        <time>2021-08-15T07:31:30Z</time>
      </trkpt>
      <trkpt lat="41.762135" lon="2.97306">
        <ele>122.0</ele>
        <time>2021-08-15T07:31:32Z</time>
      </trkpt>
      <trkpt lat="41.7621" lon="2.97316">
        <ele>122.0</ele>
        <time>2021-08-15T07:31:34Z</time>
      </trkpt>
      <trkpt lat="41.762075" lon="2.973255">
        <ele>122.0</ele>
        <time>2021-08-15T07:31:36Z</time>
      </trkpt>
      <trkpt lat="41.762045" lon="2.97339">
        <ele>123.0</ele>
        <time>2021-08-15T07:31:39Z</time>
      </trkpt>
      <trkpt lat="41.762025" lon="2.973518">
        <ele>124.0</ele>
        <time>2021-08-15T07:31:42Z</time>
      </trkpt>
      <trkpt lat="41.762025" lon="2.97366">
        <ele>125.0</ele>
        <time>2021-08-15T07:31:45Z</time>
      </trkpt>
      <trkpt lat="41.76206" lon="2.973782">
        <ele>126.0</ele>
        <time>2021-08-15T07:31:48Z</time>
      </trkpt>
      <trkpt lat="41.762095" lon="2.97392">
        <ele>127.0</ele>
        <time>2021-08-15T07:31:51Z</time>
      </trkpt>
      <trkpt lat="41.76211" lon="2.97406">
        <ele>129.0</ele>
        <time>2021-08-15T07:31:54Z</time>
      </trkpt>
      <trkpt lat="41.762095" lon="2.97417">
        <ele>129.0</ele>
        <time>2021-08-15T07:31:56Z</time>
      </trkpt>
      <trkpt lat="41.762065" lon="2.97427">
        <ele>129.0</ele>
        <time>2021-08-15T07:31:58Z</time>
      </trkpt>
      <trkpt lat="41.76202" lon="2.974355">
        <ele>129.0</ele>
        <time>2021-08-15T07:32:00Z</time>
      </trkpt>
      <trkpt lat="41.761935" lon="2.97443">
        <ele>131.0</ele>
        <time>2021-08-15T07:32:03Z</time>
      </trkpt>
      <trkpt lat="41.761845" lon="2.9745">
        <ele>132.0</ele>
        <time>2021-08-15T07:32:06Z</time>
      </trkpt>
      <trkpt lat="41.761738" lon="2.974535">
        <ele>132.0</ele>
        <time>2021-08-15T07:32:09Z</time>
      </trkpt>
      <trkpt lat="41.761665" lon="2.974537">
        <ele>132.0</ele>
        <time>2021-08-15T07:32:11Z</time>
      </trkpt>
      <trkpt lat="41.76156" lon="2.974535">
        <ele>133.0</ele>
        <time>2021-08-15T07:32:14Z</time>
      </trkpt>
      <trkpt lat="41.761455" lon="2.974535">
        <ele>133.0</ele>
        <time>2021-08-15T07:32:17Z</time>
      </trkpt>
      <trkpt lat="41.76135" lon="2.974545">
        <ele>133.0</ele>
        <time>2021-08-15T07:32:20Z</time>
      </trkpt>
      <trkpt lat="41.76127" lon="2.97457">
        <ele>133.0</ele>
        <time>2021-08-15T07:32:22Z</time>
      </trkpt>
      <trkpt lat="41.761195" lon="2.97463">
        <ele>133.0</ele>
        <time>2021-08-15T07:32:24Z</time>
      </trkpt>
      <trkpt lat="41.761145" lon="2.974725">
        <ele>133.0</ele>
        <time>2021-08-15T07:32:26Z</time>
      </trkpt>
      <trkpt lat="41.761125" lon="2.97484">
        <ele>134.0</ele>
        <time>2021-08-15T07:32:28Z</time>
      </trkpt>
      <trkpt lat="41.76113" lon="2.97495">
        <ele>134.0</ele>
        <time>2021-08-15T07:32:30Z</time>
      </trkpt>
      <trkpt lat="41.76113" lon="2.975075">
        <ele>136.0</ele>
        <time>2021-08-15T07:32:32Z</time>
      </trkpt>
      <trkpt lat="41.76111" lon="2.975195">
        <ele>136.0</ele>
        <time>2021-08-15T07:32:34Z</time>
      </trkpt>
      <trkpt lat="41.76105" lon="2.97529">
        <ele>138.0</ele>
        <time>2021-08-15T07:32:36Z</time>
      </trkpt>
      <trkpt lat="41.76097" lon="2.97533">
        <ele>139.0</ele>
        <time>2021-08-15T07:32:38Z</time>
      </trkpt>
      <trkpt lat="41.76088" lon="2.97532">
        <ele>139.0</ele>
        <time>2021-08-15T07:32:40Z</time>
      </trkpt>
      <trkpt lat="41.7608" lon="2.97529">
        <ele>139.0</ele>
        <time>2021-08-15T07:32:42Z</time>
      </trkpt>
      <trkpt lat="41.760725" lon="2.975255">
        <ele>140.0</ele>
        <time>2021-08-15T07:32:44Z</time>
      </trkpt>
      <trkpt lat="41.76063" lon="2.975195">
        <ele>141.0</ele>
        <time>2021-08-15T07:32:47Z</time>
      </trkpt>
      <trkpt lat="41.760555" lon="2.975155">
        <ele>141.0</ele>
        <time>2021-08-15T07:32:49Z</time>
      </trkpt>
      <trkpt lat="41.76049" lon="2.97513">
        <ele>141.0</ele>
        <time>2021-08-15T07:32:51Z</time>
      </trkpt>
      <trkpt lat="41.760385" lon="2.975095">
        <ele>142.0</ele>
        <time>2021-08-15T07:32:54Z</time>
      </trkpt>
      <trkpt lat="41.76029" lon="2.97509">
        <ele>142.0</ele>
        <time>2021-08-15T07:32:57Z</time>
      </trkpt>
      <trkpt lat="41.760195" lon="2.975147">
        <ele>142.0</ele>
        <time>2021-08-15T07:33:00Z</time>
      </trkpt>
      <trkpt lat="41.76014" lon="2.975265">
        <ele>142.0</ele>
        <time>2021-08-15T07:33:03Z</time>
      </trkpt>
      <trkpt lat="41.76009" lon="2.975395">
        <ele>143.0</ele>
        <time>2021-08-15T07:33:06Z</time>
      </trkpt>
      <trkpt lat="41.76004" lon="2.97547">
        <ele>144.0</ele>
        <time>2021-08-15T07:33:08Z</time>
      </trkpt>
      <trkpt lat="41.759955" lon="2.975505">
        <ele>144.0</ele>
        <time>2021-08-15T07:33:11Z</time>
      </trkpt>
      <trkpt lat="41.759865" lon="2.975485">
        <ele>144.0</ele>
        <time>2021-08-15T07:33:14Z</time>
      </trkpt>
      <trkpt lat="41.75978" lon="2.975435">
        <ele>144.0</ele>
        <time>2021-08-15T07:33:17Z</time>
      </trkpt>
      <trkpt lat="41.75969" lon="2.975395">
        <ele>144.0</ele>
        <time>2021-08-15T07:33:20Z</time>
      </trkpt>
      <trkpt lat="41.7596" lon="2.975415">
        <ele>144.0</ele>
        <time>2021-08-15T07:33:23Z</time>
      </trkpt>
      <trkpt lat="41.759525" lon="2.975487">
        <ele>144.0</ele>
        <time>2021-08-15T07:33:26Z</time>
      </trkpt>
      <trkpt lat="41.759495" lon="2.975575">
        <ele>144.0</ele>
        <time>2021-08-15T07:33:28Z</time>
      </trkpt>
      <trkpt lat="41.759472" lon="2.97567">
        <ele>144.0</ele>
        <time>2021-08-15T07:33:30Z</time>
      </trkpt>
      <trkpt lat="41.75946" lon="2.975775">
        <ele>145.0</ele>
        <time>2021-08-15T07:33:32Z</time>
      </trkpt>
      <trkpt lat="41.75943" lon="2.975895">
        <ele>146.0</ele>
        <time>2021-08-15T07:33:35Z</time>
      </trkpt>
      <trkpt lat="41.759365" lon="2.97599">
        <ele>147.0</ele>
        <time>2021-08-15T07:33:38Z</time>
      </trkpt>
      <trkpt lat="41.759295" lon="2.97605">
        <ele>147.0</ele>
        <time>2021-08-15T07:33:41Z</time>
      </trkpt>
      <trkpt lat="41.75922" lon="2.97611">
        <ele>147.0</ele>
        <time>2021-08-15T07:33:44Z</time>
      </trkpt>
      <trkpt lat="41.759162" lon="2.976205">
        <ele>146.0</ele>
        <time>2021-08-15T07:33:47Z</time>
      </trkpt>
      <trkpt lat="41.759145" lon="2.976315">
        <ele>147.0</ele>
        <time>2021-08-15T07:33:50Z</time>
      </trkpt>
      <trkpt lat="41.75914" lon="2.97644">
        <ele>148.0</ele>
        <time>2021-08-15T07:33:53Z</time>
      </trkpt>
      <trkpt lat="41.75913" lon="2.97656">
        <ele>149.0</ele>
        <time>2021-08-15T07:33:56Z</time>
      </trkpt>
      <trkpt lat="41.759115" lon="2.976695">
        <ele>149.0</ele>
        <time>2021-08-15T07:33:59Z</time>
      </trkpt>
      <trkpt lat="41.75909" lon="2.97681">
        <ele>149.0</ele>
        <time>2021-08-15T07:34:02Z</time>
      </trkpt>
      <trkpt lat="41.759025" lon="2.97688">
        <ele>150.0</ele>
        <time>2021-08-15T07:34:05Z</time>
      </trkpt>
      <trkpt lat="41.758938" lon="2.97687">
        <ele>150.0</ele>
        <time>2021-08-15T07:34:08Z</time>
      </trkpt>
      <trkpt lat="41.75886" lon="2.976825">
        <ele>151.0</ele>
        <time>2021-08-15T07:34:11Z</time>
      </trkpt>
      <trkpt lat="41.758795" lon="2.976775">
        <ele>152.0</ele>
        <time>2021-08-15T07:34:14Z</time>
      </trkpt>
      <trkpt lat="41.758735" lon="2.97671">
        <ele>154.0</ele>
        <time>2021-08-15T07:34:17Z</time>
      </trkpt>
      <trkpt lat="41.758665" lon="2.976645">
        <ele>155.0</ele>
        <time>2021-08-15T07:34:20Z</time>
      </trkpt>
      <trkpt lat="41.7586" lon="2.976555">
        <ele>155.0</ele>
        <time>2021-08-15T07:34:23Z</time>
      </trkpt>
      <trkpt lat="41.758557" lon="2.976455">
        <ele>155.0</ele>
        <time>2021-08-15T07:34:26Z</time>
      </trkpt>
      <trkpt lat="41.758525" lon="2.97634">
        <ele>156.0</ele>
        <time>2021-08-15T07:34:29Z</time>
      </trkpt>
      <trkpt lat="41.75848" lon="2.97622">
        <ele>157.0</ele>
        <time>2021-08-15T07:34:32Z</time>
      </trkpt>
      <trkpt lat="41.758435" lon="2.97611">
        <ele>158.0</ele>
        <time>2021-08-15T07:34:35Z</time>
      </trkpt>
      <trkpt lat="41.758405" lon="2.97602">
        <ele>159.0</ele>
        <time>2021-08-15T07:34:37Z</time>
      </trkpt>
      <trkpt lat="41.758375" lon="2.97593">
        <ele>159.0</ele>
        <time>2021-08-15T07:34:39Z</time>
      </trkpt>
      <trkpt lat="41.758333" lon="2.97579">
        <ele>161.0</ele>
        <time>2021-08-15T07:34:42Z</time>
      </trkpt>
      <trkpt lat="41.75833" lon="2.975688">
        <ele>162.0</ele>
        <time>2021-08-15T07:34:44Z</time>
      </trkpt>
      <trkpt lat="41.75835" lon="2.97557">
        <ele>163.0</ele>
        <time>2021-08-15T07:34:46Z</time>
      </trkpt>
      <trkpt lat="41.7584" lon="2.975445">
        <ele>164.0</ele>
        <time>2021-08-15T07:34:48Z</time>
      </trkpt>
      <trkpt lat="41.758435" lon="2.975295">
        <ele>164.0</ele>
        <time>2021-08-15T07:34:50Z</time>
      </trkpt>
      <trkpt lat="41.758455" lon="2.975125">
        <ele>163.0</ele>
        <time>2021-08-15T07:34:52Z</time>
      </trkpt>
      <trkpt lat="41.75848" lon="2.97494">
        <ele>163.0</ele>
        <time>2021-08-15T07:34:54Z</time>
      </trkpt>
      <trkpt lat="41.75849" lon="2.97484">
        <ele>164.0</ele>
        <time>2021-08-15T07:34:55Z</time>
      </trkpt>
      <trkpt lat="41.75852" lon="2.97474">
        <ele>163.0</ele>
        <time>2021-08-15T07:34:56Z</time>
      </trkpt>
      <trkpt lat="41.75855" lon="2.974645">
        <ele>163.0</ele>
        <time>2021-08-15T07:34:57Z</time>
      </trkpt>
      <trkpt lat="41.758578" lon="2.974545">
        <ele>163.0</ele>
        <time>2021-08-15T07:34:58Z</time>
      </trkpt>
      <trkpt lat="41.75861" lon="2.97443">
        <ele>163.0</ele>
        <time>2021-08-15T07:34:59Z</time>
      </trkpt>
      <trkpt lat="41.758625" lon="2.97432">
        <ele>162.0</ele>
        <time>2021-08-15T07:35:00Z</time>
      </trkpt>
      <trkpt lat="41.75863" lon="2.974205">
        <ele>161.0</ele>
        <time>2021-08-15T07:35:01Z</time>
      </trkpt>
      <trkpt lat="41.75863" lon="2.97408">
        <ele>160.0</ele>
        <time>2021-08-15T07:35:02Z</time>
      </trkpt>
      <trkpt lat="41.758655" lon="2.973962">
        <ele>161.0</ele>
        <time>2021-08-15T07:35:03Z</time>
      </trkpt>
      <trkpt lat="41.7587" lon="2.973855">
        <ele>161.0</ele>
        <time>2021-08-15T07:35:04Z</time>
      </trkpt>
      <trkpt lat="41.758755" lon="2.973745">
        <ele>160.0</ele>
        <time>2021-08-15T07:35:05Z</time>
      </trkpt>
      <trkpt lat="41.7588" lon="2.97364">
        <ele>159.0</ele>
        <time>2021-08-15T07:35:06Z</time>
      </trkpt>
      <trkpt lat="41.758835" lon="2.97352">
        <ele>159.0</ele>
        <time>2021-08-15T07:35:07Z</time>
      </trkpt>
      <trkpt lat="41.758835" lon="2.973405">
        <ele>159.0</ele>
        <time>2021-08-15T07:35:08Z</time>
      </trkpt>
      <trkpt lat="41.75882" lon="2.97328">
        <ele>159.0</ele>
        <time>2021-08-15T07:35:09Z</time>
      </trkpt>
      <trkpt lat="41.7588" lon="2.973155">
        <ele>158.0</ele>
        <time>2021-08-15T07:35:10Z</time>
      </trkpt>
      <trkpt lat="41.758775" lon="2.973025">
        <ele>157.0</ele>
        <time>2021-08-15T07:35:11Z</time>
      </trkpt>
      <trkpt lat="41.75874" lon="2.972905">
        <ele>157.0</ele>
        <time>2021-08-15T07:35:12Z</time>
      </trkpt>
      <trkpt lat="41.758705" lon="2.972775">
        <ele>156.0</ele>
        <time>2021-08-15T07:35:13Z</time>
      </trkpt>
      <trkpt lat="41.75867" lon="2.972645">
        <ele>155.0</ele>
        <time>2021-08-15T07:35:14Z</time>
      </trkpt>
      <trkpt lat="41.75863" lon="2.972505">
        <ele>155.0</ele>
        <time>2021-08-15T07:35:15Z</time>
      </trkpt>
      <trkpt lat="41.758585" lon="2.972375">
        <ele>154.0</ele>
        <time>2021-08-15T07:35:16Z</time>
      </trkpt>
      <trkpt lat="41.75854" lon="2.97225">
        <ele>154.0</ele>
        <time>2021-08-15T07:35:17Z</time>
      </trkpt>
      <trkpt lat="41.75848" lon="2.97212">
        <ele>154.0</ele>
        <time>2021-08-15T07:35:18Z</time>
      </trkpt>
      <trkpt lat="41.758405" lon="2.97201">
        <ele>153.0</ele>
        <time>2021-08-15T07:35:19Z</time>
      </trkpt>
      <trkpt lat="41.758333" lon="2.971895">
        <ele>153.0</ele>
        <time>2021-08-15T07:35:20Z</time>
      </trkpt>
      <trkpt lat="41.758265" lon="2.971785">
        <ele>152.0</ele>
        <time>2021-08-15T07:35:21Z</time>
      </trkpt>
      <trkpt lat="41.758195" lon="2.971665">
        <ele>151.0</ele>
        <time>2021-08-15T07:35:22Z</time>
      </trkpt>
      <trkpt lat="41.75813" lon="2.97155">
        <ele>151.0</ele>
        <time>2021-08-15T07:35:23Z</time>
      </trkpt>
      <trkpt lat="41.758065" lon="2.971455">
        <ele>151.0</ele>
        <time>2021-08-15T07:35:24Z</time>
      </trkpt>
      <trkpt lat="41.758015" lon="2.971373">
        <ele>150.0</ele>
        <time>2021-08-15T07:35:25Z</time>
      </trkpt>
      <trkpt lat="41.757955" lon="2.971295">
        <ele>150.0</ele>
        <time>2021-08-15T07:35:26Z</time>
      </trkpt>
      <trkpt lat="41.75784" lon="2.97122">
        <ele>148.0</ele>
        <time>2021-08-15T07:35:28Z</time>
      </trkpt>
      <trkpt lat="41.757765" lon="2.97124">
        <ele>148.0</ele>
        <time>2021-08-15T07:35:29Z</time>
      </trkpt>
      <trkpt lat="41.75769" lon="2.971277">
        <ele>148.0</ele>
        <time>2021-08-15T07:35:30Z</time>
      </trkpt>
      <trkpt lat="41.757635" lon="2.97136">
        <ele>148.0</ele>
        <time>2021-08-15T07:35:31Z</time>
      </trkpt>
      <trkpt lat="41.75761" lon="2.97155">
        <ele>146.0</ele>
        <time>2021-08-15T07:35:33Z</time>
      </trkpt>
      <trkpt lat="41.757615" lon="2.97174">
        <ele>144.0</ele>
        <time>2021-08-15T07:35:35Z</time>
      </trkpt>
      <trkpt lat="41.757605" lon="2.97192">
        <ele>143.0</ele>
        <time>2021-08-15T07:35:37Z</time>
      </trkpt>
      <trkpt lat="41.757605" lon="2.972092">
        <ele>142.0</ele>
        <time>2021-08-15T07:35:39Z</time>
      </trkpt>
      <trkpt lat="41.75763" lon="2.97227">
        <ele>142.0</ele>
        <time>2021-08-15T07:35:41Z</time>
      </trkpt>
      <trkpt lat="41.757625" lon="2.97244">
        <ele>141.0</ele>
        <time>2021-08-15T07:35:43Z</time>
      </trkpt>
      <trkpt lat="41.757565" lon="2.972595">
        <ele>141.0</ele>
        <time>2021-08-15T07:35:45Z</time>
      </trkpt>
      <trkpt lat="41.75747" lon="2.9727">
        <ele>141.0</ele>
        <time>2021-08-15T07:35:47Z</time>
      </trkpt>
      <trkpt lat="41.75736" lon="2.972785">
        <ele>141.0</ele>
        <time>2021-08-15T07:35:49Z</time>
      </trkpt>
      <trkpt lat="41.75725" lon="2.972837">
        <ele>141.0</ele>
        <time>2021-08-15T07:35:51Z</time>
      </trkpt>
      <trkpt lat="41.757145" lon="2.972887">
        <ele>141.0</ele>
        <time>2021-08-15T07:35:53Z</time>
      </trkpt>
      <trkpt lat="41.757055" lon="2.972978">
        <ele>141.0</ele>
        <time>2021-08-15T07:35:55Z</time>
      </trkpt>
      <trkpt lat="41.756985" lon="2.973095">
        <ele>140.0</ele>
        <time>2021-08-15T07:35:57Z</time>
      </trkpt>
      <trkpt lat="41.75692" lon="2.973195">
        <ele>140.0</ele>
        <time>2021-08-15T07:35:59Z</time>
      </trkpt>
      <trkpt lat="41.75685" lon="2.973265">
        <ele>139.0</ele>
        <time>2021-08-15T07:36:01Z</time>
      </trkpt>
      <trkpt lat="41.756775" lon="2.973315">
        <ele>139.0</ele>
        <time>2021-08-15T07:36:03Z</time>
      </trkpt>
      <trkpt lat="41.756695" lon="2.973342">
        <ele>139.0</ele>
        <time>2021-08-15T07:36:05Z</time>
      </trkpt>
      <trkpt lat="41.75662" lon="2.97336">
        <ele>139.0</ele>
        <time>2021-08-15T07:36:07Z</time>
      </trkpt>
      <trkpt lat="41.756545" lon="2.97337">
        <ele>138.0</ele>
        <time>2021-08-15T07:36:09Z</time>
      </trkpt>
      <trkpt lat="41.756465" lon="2.97338">
        <ele>138.0</ele>
        <time>2021-08-15T07:36:11Z</time>
      </trkpt>
      <trkpt lat="41.75639" lon="2.97341">
        <ele>138.0</ele>
        <time>2021-08-15T07:36:13Z</time>
      </trkpt>
      <trkpt lat="41.75632" lon="2.973447">
        <ele>138.0</ele>
        <time>2021-08-15T07:36:15Z</time>
      </trkpt>
      <trkpt lat="41.756245" lon="2.9735">
        <ele>138.0</ele>
        <time>2021-08-15T07:36:17Z</time>
      </trkpt>
      <trkpt lat="41.756185" lon="2.97356">
        <ele>138.0</ele>
        <time>2021-08-15T07:36:19Z</time>
      </trkpt>
      <trkpt lat="41.75611" lon="2.973635">
        <ele>138.0</ele>
        <time>2021-08-15T07:36:22Z</time>
      </trkpt>
      <trkpt lat="41.756045" lon="2.97367">
        <ele>139.0</ele>
        <time>2021-08-15T07:36:24Z</time>
      </trkpt>
      <trkpt lat="41.755955" lon="2.973735">
        <ele>139.0</ele>
        <time>2021-08-15T07:36:27Z</time>
      </trkpt>
      <trkpt lat="41.755865" lon="2.973782">
        <ele>140.0</ele>
        <time>2021-08-15T07:36:30Z</time>
      </trkpt>
      <trkpt lat="41.755775" lon="2.97385">
        <ele>140.0</ele>
        <time>2021-08-15T07:36:33Z</time>
      </trkpt>
      <trkpt lat="41.755685" lon="2.9739">
        <ele>141.0</ele>
        <time>2021-08-15T07:36:36Z</time>
      </trkpt>
      <trkpt lat="41.755585" lon="2.97394">
        <ele>141.0</ele>
        <time>2021-08-15T07:36:39Z</time>
      </trkpt>
      <trkpt lat="41.755485" lon="2.97393">
        <ele>142.0</ele>
        <time>2021-08-15T07:36:42Z</time>
      </trkpt>
      <trkpt lat="41.755405" lon="2.97387">
        <ele>142.0</ele>
        <time>2021-08-15T07:36:45Z</time>
      </trkpt>
      <trkpt lat="41.75535" lon="2.97375">
        <ele>142.0</ele>
        <time>2021-08-15T07:36:48Z</time>
      </trkpt>
      <trkpt lat="41.755335" lon="2.973645">
        <ele>142.0</ele>
        <time>2021-08-15T07:36:50Z</time>
      </trkpt>
      <trkpt lat="41.75531" lon="2.973518">
        <ele>143.0</ele>
        <time>2021-08-15T07:36:52Z</time>
      </trkpt>
      <trkpt lat="41.755275" lon="2.973405">
        <ele>143.0</ele>
        <time>2021-08-15T07:36:54Z</time>
      </trkpt>
      <trkpt lat="41.755235" lon="2.973285">
        <ele>143.0</ele>
        <time>2021-08-15T07:36:56Z</time>
      </trkpt>
      <trkpt lat="41.755195" lon="2.973168">
        <ele>144.0</ele>
        <time>2021-08-15T07:36:58Z</time>
      </trkpt>
      <trkpt lat="41.75515" lon="2.97306">
        <ele>144.0</ele>
        <time>2021-08-15T07:37:00Z</time>
      </trkpt>
      <trkpt lat="41.75514" lon="2.972925">
        <ele>144.0</ele>
        <time>2021-08-15T07:37:02Z</time>
      </trkpt>
      <trkpt lat="41.755175" lon="2.972775">
        <ele>143.0</ele>
        <time>2021-08-15T07:37:04Z</time>
      </trkpt>
      <trkpt lat="41.75525" lon="2.97267">
        <ele>143.0</ele>
        <time>2021-08-15T07:37:06Z</time>
      </trkpt>
      <trkpt lat="41.755355" lon="2.9726">
        <ele>143.0</ele>
        <time>2021-08-15T07:37:08Z</time>
      </trkpt>
      <trkpt lat="41.755465" lon="2.972555">
        <ele>143.0</ele>
        <time>2021-08-15T07:37:10Z</time>
      </trkpt>
      <trkpt lat="41.75558" lon="2.97249">
        <ele>143.0</ele>
        <time>2021-08-15T07:37:12Z</time>
      </trkpt>
      <trkpt lat="41.75569" lon="2.97243">
        <ele>143.0</ele>
        <time>2021-08-15T07:37:14Z</time>
      </trkpt>
      <trkpt lat="41.755815" lon="2.972357">
        <ele>142.0</ele>
        <time>2021-08-15T07:37:16Z</time>
      </trkpt>
      <trkpt lat="41.755925" lon="2.97228">
        <ele>142.0</ele>
        <time>2021-08-15T07:37:18Z</time>
      </trkpt>
      <trkpt lat="41.75602" lon="2.97216">
        <ele>142.0</ele>
        <time>2021-08-15T07:37:20Z</time>
      </trkpt>
      <trkpt lat="41.756072" lon="2.972002">
        <ele>142.0</ele>
        <time>2021-08-15T07:37:22Z</time>
      </trkpt>
      <trkpt lat="41.756125" lon="2.971835">
        <ele>141.0</ele>
        <time>2021-08-15T07:37:24Z</time>
      </trkpt>
      <trkpt lat="41.75616" lon="2.97166">
        <ele>142.0</ele>
        <time>2021-08-15T07:37:26Z</time>
      </trkpt>
      <trkpt lat="41.756175" lon="2.97147">
        <ele>142.0</ele>
        <time>2021-08-15T07:37:28Z</time>
      </trkpt>
      <trkpt lat="41.75614" lon="2.971287">
        <ele>142.0</ele>
        <time>2021-08-15T07:37:30Z</time>
      </trkpt>
      <trkpt lat="41.756095" lon="2.97112">
        <ele>142.0</ele>
        <time>2021-08-15T07:37:32Z</time>
      </trkpt>
      <trkpt lat="41.756065" lon="2.970935">
        <ele>142.0</ele>
        <time>2021-08-15T07:37:34Z</time>
      </trkpt>
      <trkpt lat="41.756045" lon="2.970755">
        <ele>142.0</ele>
        <time>2021-08-15T07:37:36Z</time>
      </trkpt>
      <trkpt lat="41.756045" lon="2.97065">
        <ele>142.0</ele>
        <time>2021-08-15T07:37:37Z</time>
      </trkpt>
      <trkpt lat="41.75605" lon="2.970555">
        <ele>142.0</ele>
        <time>2021-08-15T07:37:38Z</time>
      </trkpt>
      <trkpt lat="41.756065" lon="2.970378">
        <ele>142.0</ele>
        <time>2021-08-15T07:37:40Z</time>
      </trkpt>
      <trkpt lat="41.756073" lon="2.97023">
        <ele>143.0</ele>
        <time>2021-08-15T07:37:42Z</time>
      </trkpt>
      <trkpt lat="41.75604" lon="2.97009">
        <ele>143.0</ele>
        <time>2021-08-15T07:37:44Z</time>
      </trkpt>
      <trkpt lat="41.75596" lon="2.96997">
        <ele>143.0</ele>
        <time>2021-08-15T07:37:46Z</time>
      </trkpt>
      <trkpt lat="41.755875" lon="2.969858">
        <ele>143.0</ele>
        <time>2021-08-15T07:37:48Z</time>
      </trkpt>
      <trkpt lat="41.75579" lon="2.96974">
        <ele>143.0</ele>
        <time>2021-08-15T07:37:50Z</time>
      </trkpt>
      <trkpt lat="41.75573" lon="2.9696">
        <ele>142.0</ele>
        <time>2021-08-15T07:37:52Z</time>
      </trkpt>
      <trkpt lat="41.75573" lon="2.969445">
        <ele>142.0</ele>
        <time>2021-08-15T07:37:54Z</time>
      </trkpt>
      <trkpt lat="41.75577" lon="2.969307">
        <ele>142.0</ele>
        <time>2021-08-15T07:37:56Z</time>
      </trkpt>
      <trkpt lat="41.755832" lon="2.969205">
        <ele>142.0</ele>
        <time>2021-08-15T07:37:58Z</time>
      </trkpt>
      <trkpt lat="41.75589" lon="2.969083">
        <ele>142.0</ele>
        <time>2021-08-15T07:38:00Z</time>
      </trkpt>
      <trkpt lat="41.755925" lon="2.968943">
        <ele>141.0</ele>
        <time>2021-08-15T07:38:02Z</time>
      </trkpt>
      <trkpt lat="41.75595" lon="2.96881">
        <ele>140.0</ele>
        <time>2021-08-15T07:38:04Z</time>
      </trkpt>
      <trkpt lat="41.755945" lon="2.96866">
        <ele>140.0</ele>
        <time>2021-08-15T07:38:06Z</time>
      </trkpt>
      <trkpt lat="41.755925" lon="2.968507">
        <ele>140.0</ele>
        <time>2021-08-15T07:38:08Z</time>
      </trkpt>
      <trkpt lat="41.7559" lon="2.968365">
        <ele>140.0</ele>
        <time>2021-08-15T07:38:10Z</time>
      </trkpt>
      <trkpt lat="41.75586" lon="2.968235">
        <ele>140.0</ele>
        <time>2021-08-15T07:38:12Z</time>
      </trkpt>
      <trkpt lat="41.75579" lon="2.96814">
        <ele>140.0</ele>
        <time>2021-08-15T07:38:14Z</time>
      </trkpt>
      <trkpt lat="41.75569" lon="2.968095">
        <ele>140.0</ele>
        <time>2021-08-15T07:38:16Z</time>
      </trkpt>
      <trkpt lat="41.75559" lon="2.968045">
        <ele>140.0</ele>
        <time>2021-08-15T07:38:18Z</time>
      </trkpt>
      <trkpt lat="41.75551" lon="2.967958">
        <ele>140.0</ele>
        <time>2021-08-15T07:38:20Z</time>
      </trkpt>
      <trkpt lat="41.75548" lon="2.967845">
        <ele>141.0</ele>
        <time>2021-08-15T07:38:22Z</time>
      </trkpt>
      <trkpt lat="41.755467" lon="2.967712">
        <ele>140.0</ele>
        <time>2021-08-15T07:38:24Z</time>
      </trkpt>
      <trkpt lat="41.755445" lon="2.967585">
        <ele>141.0</ele>
        <time>2021-08-15T07:38:26Z</time>
      </trkpt>
      <trkpt lat="41.755382" lon="2.967475">
        <ele>140.0</ele>
        <time>2021-08-15T07:38:28Z</time>
      </trkpt>
      <trkpt lat="41.75531" lon="2.967375">
        <ele>141.0</ele>
        <time>2021-08-15T07:38:30Z</time>
      </trkpt>
      <trkpt lat="41.755255" lon="2.96726">
        <ele>141.0</ele>
        <time>2021-08-15T07:38:32Z</time>
      </trkpt>
      <trkpt lat="41.755222" lon="2.96713">
        <ele>140.0</ele>
        <time>2021-08-15T07:38:34Z</time>
      </trkpt>
      <trkpt lat="41.755225" lon="2.966982">
        <ele>140.0</ele>
        <time>2021-08-15T07:38:36Z</time>
      </trkpt>
      <trkpt lat="41.755255" lon="2.966855">
        <ele>140.0</ele>
        <time>2021-08-15T07:38:38Z</time>
      </trkpt>
      <trkpt lat="41.755295" lon="2.966725">
        <ele>139.0</ele>
        <time>2021-08-15T07:38:40Z</time>
      </trkpt>
      <trkpt lat="41.755355" lon="2.966615">
        <ele>139.0</ele>
        <time>2021-08-15T07:38:42Z</time>
      </trkpt>
      <trkpt lat="41.75542" lon="2.966495">
        <ele>139.0</ele>
        <time>2021-08-15T07:38:44Z</time>
      </trkpt>
      <trkpt lat="41.75549" lon="2.96639">
        <ele>139.0</ele>
        <time>2021-08-15T07:38:46Z</time>
      </trkpt>
      <trkpt lat="41.75557" lon="2.966285">
        <ele>139.0</ele>
        <time>2021-08-15T07:38:48Z</time>
      </trkpt>
      <trkpt lat="41.755645" lon="2.96618">
        <ele>139.0</ele>
        <time>2021-08-15T07:38:50Z</time>
      </trkpt>
      <trkpt lat="41.755715" lon="2.96606">
        <ele>138.0</ele>
        <time>2021-08-15T07:38:52Z</time>
      </trkpt>
      <trkpt lat="41.755795" lon="2.96594">
        <ele>137.0</ele>
        <time>2021-08-15T07:38:54Z</time>
      </trkpt>
      <trkpt lat="41.75588" lon="2.965822">
        <ele>137.0</ele>
        <time>2021-08-15T07:38:56Z</time>
      </trkpt>
      <trkpt lat="41.755955" lon="2.965705">
        <ele>136.0</ele>
        <time>2021-08-15T07:38:58Z</time>
      </trkpt>
      <trkpt lat="41.756015" lon="2.965565">
        <ele>136.0</ele>
        <time>2021-08-15T07:39:00Z</time>
      </trkpt>
      <trkpt lat="41.756065" lon="2.965415">
        <ele>135.0</ele>
        <time>2021-08-15T07:39:02Z</time>
      </trkpt>
      <trkpt lat="41.75609" lon="2.965255">
        <ele>135.0</ele>
        <time>2021-08-15T07:39:04Z</time>
      </trkpt>
      <trkpt lat="41.75608" lon="2.96509">
        <ele>135.0</ele>
        <time>2021-08-15T07:39:06Z</time>
      </trkpt>
      <trkpt lat="41.75605" lon="2.964925">
        <ele>134.0</ele>
        <time>2021-08-15T07:39:08Z</time>
      </trkpt>
      <trkpt lat="41.756025" lon="2.96476">
        <ele>134.0</ele>
        <time>2021-08-15T07:39:10Z</time>
      </trkpt>
      <trkpt lat="41.755982" lon="2.96459">
        <ele>133.0</ele>
        <time>2021-08-15T07:39:12Z</time>
      </trkpt>
      <trkpt lat="41.755935" lon="2.964425">
        <ele>133.0</ele>
        <time>2021-08-15T07:39:14Z</time>
      </trkpt>
      <trkpt lat="41.75589" lon="2.964265">
        <ele>132.0</ele>
        <time>2021-08-15T07:39:16Z</time>
      </trkpt>
      <trkpt lat="41.755865" lon="2.96413">
        <ele>132.0</ele>
        <time>2021-08-15T07:39:18Z</time>
      </trkpt>
      <trkpt lat="41.755845" lon="2.964017">
        <ele>132.0</ele>
        <time>2021-08-15T07:39:20Z</time>
      </trkpt>
      <trkpt lat="41.755832" lon="2.963885">
        <ele>131.0</ele>
        <time>2021-08-15T07:39:23Z</time>
      </trkpt>
      <trkpt lat="41.755805" lon="2.963775">
        <ele>131.0</ele>
        <time>2021-08-15T07:39:27Z</time>
      </trkpt>
      <trkpt lat="41.75581" lon="2.96367">
        <ele>130.0</ele>
        <time>2021-08-15T07:39:32Z</time>
      </trkpt>
      <trkpt lat="41.755775" lon="2.96359">
        <ele>130.0</ele>
        <time>2021-08-15T07:39:38Z</time>
      </trkpt>
      <trkpt lat="41.7557" lon="2.963575">
        <ele>130.0</ele>
        <time>2021-08-15T07:39:42Z</time>
      </trkpt>
      <trkpt lat="41.75562" lon="2.96361">
        <ele>128.0</ele>
        <time>2021-08-15T07:39:47Z</time>
      </trkpt>
      <trkpt lat="41.75562" lon="2.96371">
        <ele>127.0</ele>
        <time>2021-08-15T07:39:52Z</time>
      </trkpt>
      <trkpt lat="41.755615" lon="2.963755">
        <ele>126.0</ele>
        <time>2021-08-15T07:39:59Z</time>
      </trkpt>
      <trkpt lat="41.755622" lon="2.96382">
        <ele>125.0</ele>
        <time>2021-08-15T07:40:06Z</time>
      </trkpt>
      <trkpt lat="41.755603" lon="2.96388">
        <ele>125.0</ele>
        <time>2021-08-15T07:40:13Z</time>
      </trkpt>
      <trkpt lat="41.75562" lon="2.9639">
        <ele>125.0</ele>
        <time>2021-08-15T07:40:20Z</time>
      </trkpt>
      <trkpt lat="41.75563" lon="2.963932">
        <ele>123.0</ele>
        <time>2021-08-15T07:40:27Z</time>
      </trkpt>
      <trkpt lat="41.755635" lon="2.964052">
        <ele>122.0</ele>
        <time>2021-08-15T07:40:31Z</time>
      </trkpt>
      <trkpt lat="41.755645" lon="2.964165">
        <ele>121.0</ele>
        <time>2021-08-15T07:40:34Z</time>
      </trkpt>
      <trkpt lat="41.755655" lon="2.964265">
        <ele>122.0</ele>
        <time>2021-08-15T07:40:37Z</time>
      </trkpt>
      <trkpt lat="41.755675" lon="2.96441">
        <ele>123.0</ele>
        <time>2021-08-15T07:40:40Z</time>
      </trkpt>
      <trkpt lat="41.75569" lon="2.964515">
        <ele>123.0</ele>
        <time>2021-08-15T07:40:42Z</time>
      </trkpt>
      <trkpt lat="41.75572" lon="2.964615">
        <ele>123.0</ele>
        <time>2021-08-15T07:40:44Z</time>
      </trkpt>
      <trkpt lat="41.755745" lon="2.96472">
        <ele>123.0</ele>
        <time>2021-08-15T07:40:46Z</time>
      </trkpt>
      <trkpt lat="41.755755" lon="2.964845">
        <ele>123.0</ele>
        <time>2021-08-15T07:40:49Z</time>
      </trkpt>
      <trkpt lat="41.75578" lon="2.96494">
        <ele>123.0</ele>
        <time>2021-08-15T07:40:52Z</time>
      </trkpt>
      <trkpt lat="41.755758" lon="2.965055">
        <ele>123.0</ele>
        <time>2021-08-15T07:40:56Z</time>
      </trkpt>
      <trkpt lat="41.75572" lon="2.96515">
        <ele>123.0</ele>
        <time>2021-08-15T07:41:00Z</time>
      </trkpt>
      <trkpt lat="41.7557" lon="2.96525">
        <ele>122.0</ele>
        <time>2021-08-15T07:41:04Z</time>
      </trkpt>
      <trkpt lat="41.75569" lon="2.96528">
        <ele>121.0</ele>
        <time>2021-08-15T07:41:11Z</time>
      </trkpt>
      <trkpt lat="41.75567" lon="2.965385">
        <ele>120.0</ele>
        <time>2021-08-15T07:41:18Z</time>
      </trkpt>
      <trkpt lat="41.755645" lon="2.96544">
        <ele>119.0</ele>
        <time>2021-08-15T07:41:25Z</time>
      </trkpt>
      <trkpt lat="41.755585" lon="2.96549">
        <ele>118.0</ele>
        <time>2021-08-15T07:41:32Z</time>
      </trkpt>
      <trkpt lat="41.755535" lon="2.965515">
        <ele>115.0</ele>
        <time>2021-08-15T07:41:39Z</time>
      </trkpt>
      <trkpt lat="41.755533" lon="2.965505">
        <ele>115.0</ele>
        <time>2021-08-15T07:41:45Z</time>
      </trkpt>
      <trkpt lat="41.755525" lon="2.965547">
        <ele>114.0</ele>
        <time>2021-08-15T07:41:57Z</time>
      </trkpt>
      <trkpt lat="41.755505" lon="2.96557">
        <ele>113.0</ele>
        <time>2021-08-15T07:42:04Z</time>
      </trkpt>
      <trkpt lat="41.75551" lon="2.965585">
        <ele>112.0</ele>
        <time>2021-08-15T07:42:11Z</time>
      </trkpt>
      <trkpt lat="41.75544" lon="2.965655">
        <ele>110.0</ele>
        <time>2021-08-15T07:42:18Z</time>
      </trkpt>
      <trkpt lat="41.75541" lon="2.96569">
        <ele>109.0</ele>
        <time>2021-08-15T07:42:25Z</time>
      </trkpt>
      <trkpt lat="41.755355" lon="2.965725">
        <ele>106.0</ele>
        <time>2021-08-15T07:42:32Z</time>
      </trkpt>
      <trkpt lat="41.755305" lon="2.965745">
        <ele>105.0</ele>
        <time>2021-08-15T07:42:39Z</time>
      </trkpt>
      <trkpt lat="41.75528" lon="2.96578">
        <ele>104.0</ele>
        <time>2021-08-15T07:42:46Z</time>
      </trkpt>
      <trkpt lat="41.75526" lon="2.965785">
        <ele>103.0</ele>
        <time>2021-08-15T07:42:53Z</time>
      </trkpt>
      <trkpt lat="41.755195" lon="2.965822">
        <ele>105.0</ele>
        <time>2021-08-15T07:43:00Z</time>
      </trkpt>
      <trkpt lat="41.75514" lon="2.965845">
        <ele>104.0</ele>
        <time>2021-08-15T07:43:07Z</time>
      </trkpt>
      <trkpt lat="41.75513" lon="2.96588">
        <ele>102.0</ele>
        <time>2021-08-15T07:43:14Z</time>
      </trkpt>
      <trkpt lat="41.75506" lon="2.965915">
        <ele>102.0</ele>
        <time>2021-08-15T07:43:18Z</time>
      </trkpt>
      <trkpt lat="41.754985" lon="2.96597">
        <ele>101.0</ele>
        <time>2021-08-15T07:43:24Z</time>
      </trkpt>
      <trkpt lat="41.75493" lon="2.966032">
        <ele>101.0</ele>
        <time>2021-08-15T07:43:29Z</time>
      </trkpt>
      <trkpt lat="41.75488" lon="2.96614">
        <ele>99.0</ele>
        <time>2021-08-15T07:43:33Z</time>
      </trkpt>
      <trkpt lat="41.754825" lon="2.966235">
        <ele>99.0</ele>
        <time>2021-08-15T07:43:36Z</time>
      </trkpt>
      <trkpt lat="41.754775" lon="2.96634">
        <ele>98.0</ele>
        <time>2021-08-15T07:43:40Z</time>
      </trkpt>
      <trkpt lat="41.75472" lon="2.966425">
        <ele>97.0</ele>
        <time>2021-08-15T07:43:43Z</time>
      </trkpt>
      <trkpt lat="41.754675" lon="2.96651">
        <ele>96.0</ele>
        <time>2021-08-15T07:43:47Z</time>
      </trkpt>
      <trkpt lat="41.754645" lon="2.966533">
        <ele>96.0</ele>
        <time>2021-08-15T07:43:54Z</time>
      </trkpt>
      <trkpt lat="41.754575" lon="2.966615">
        <ele>95.0</ele>
        <time>2021-08-15T07:44:00Z</time>
      </trkpt>
      <trkpt lat="41.754495" lon="2.96665">
        <ele>95.0</ele>
        <time>2021-08-15T07:44:04Z</time>
      </trkpt>
      <trkpt lat="41.754455" lon="2.96666">
        <ele>94.0</ele>
        <time>2021-08-15T07:44:11Z</time>
      </trkpt>
      <trkpt lat="41.754405" lon="2.966625">
        <ele>94.0</ele>
        <time>2021-08-15T07:44:18Z</time>
      </trkpt>
      <trkpt lat="41.75432" lon="2.96656">
        <ele>94.0</ele>
        <time>2021-08-15T07:44:22Z</time>
      </trkpt>
      <trkpt lat="41.75423" lon="2.966537">
        <ele>92.0</ele>
        <time>2021-08-15T07:44:25Z</time>
      </trkpt>
      <trkpt lat="41.75414" lon="2.96656">
        <ele>92.0</ele>
        <time>2021-08-15T07:44:28Z</time>
      </trkpt>
      <trkpt lat="41.75407" lon="2.966625">
        <ele>91.0</ele>
        <time>2021-08-15T07:44:31Z</time>
      </trkpt>
      <trkpt lat="41.75401" lon="2.966735">
        <ele>90.0</ele>
        <time>2021-08-15T07:44:34Z</time>
      </trkpt>
      <trkpt lat="41.753955" lon="2.966865">
        <ele>91.0</ele>
        <time>2021-08-15T07:44:38Z</time>
      </trkpt>
      <trkpt lat="41.75392" lon="2.966965">
        <ele>92.0</ele>
        <time>2021-08-15T07:44:40Z</time>
      </trkpt>
      <trkpt lat="41.753875" lon="2.9671">
        <ele>95.0</ele>
        <time>2021-08-15T07:44:43Z</time>
      </trkpt>
      <trkpt lat="41.753835" lon="2.967195">
        <ele>94.0</ele>
        <time>2021-08-15T07:44:45Z</time>
      </trkpt>
      <trkpt lat="41.753788" lon="2.967305">
        <ele>94.0</ele>
        <time>2021-08-15T07:44:47Z</time>
      </trkpt>
      <trkpt lat="41.75376" lon="2.967405">
        <ele>93.0</ele>
        <time>2021-08-15T07:44:49Z</time>
      </trkpt>
      <trkpt lat="41.75374" lon="2.967507">
        <ele>92.0</ele>
        <time>2021-08-15T07:44:51Z</time>
      </trkpt>
      <trkpt lat="41.753722" lon="2.967618">
        <ele>92.0</ele>
        <time>2021-08-15T07:44:53Z</time>
      </trkpt>
      <trkpt lat="41.75372" lon="2.96776">
        <ele>92.0</ele>
        <time>2021-08-15T07:44:56Z</time>
      </trkpt>
      <trkpt lat="41.753755" lon="2.96788">
        <ele>92.0</ele>
        <time>2021-08-15T07:44:59Z</time>
      </trkpt>
      <trkpt lat="41.7538" lon="2.967982">
        <ele>92.0</ele>
        <time>2021-08-15T07:45:02Z</time>
      </trkpt>
      <trkpt lat="41.753825" lon="2.968098">
        <ele>93.0</ele>
        <time>2021-08-15T07:45:06Z</time>
      </trkpt>
      <trkpt lat="41.753855" lon="2.968205">
        <ele>92.0</ele>
        <time>2021-08-15T07:45:10Z</time>
      </trkpt>
      <trkpt lat="41.753885" lon="2.96831">
        <ele>92.0</ele>
        <time>2021-08-15T07:45:13Z</time>
      </trkpt>
      <trkpt lat="41.75391" lon="2.968412">
        <ele>92.0</ele>
        <time>2021-08-15T07:45:15Z</time>
      </trkpt>
      <trkpt lat="41.75392" lon="2.968555">
        <ele>91.0</ele>
        <time>2021-08-15T07:45:18Z</time>
      </trkpt>
      <trkpt lat="41.75393" lon="2.96867">
        <ele>90.0</ele>
        <time>2021-08-15T07:45:20Z</time>
      </trkpt>
      <trkpt lat="41.753905" lon="2.968785">
        <ele>90.0</ele>
        <time>2021-08-15T07:45:23Z</time>
      </trkpt>
      <trkpt lat="41.753915" lon="2.96887">
        <ele>88.0</ele>
        <time>2021-08-15T07:45:30Z</time>
      </trkpt>
      <trkpt lat="41.753885" lon="2.96887">
        <ele>86.0</ele>
        <time>2021-08-15T07:45:37Z</time>
      </trkpt>
      <trkpt lat="41.75391" lon="2.96894">
        <ele>85.0</ele>
        <time>2021-08-15T07:45:44Z</time>
      </trkpt>
      <trkpt lat="41.753915" lon="2.969048">
        <ele>85.0</ele>
        <time>2021-08-15T07:45:48Z</time>
      </trkpt>
      <trkpt lat="41.75391" lon="2.96915">
        <ele>84.0</ele>
        <time>2021-08-15T07:45:51Z</time>
      </trkpt>
      <trkpt lat="41.75391" lon="2.96923">
        <ele>83.0</ele>
        <time>2021-08-15T07:45:58Z</time>
      </trkpt>
      <trkpt lat="41.753905" lon="2.96926">
        <ele>83.0</ele>
        <time>2021-08-15T07:46:05Z</time>
      </trkpt>
      <trkpt lat="41.75385" lon="2.96935">
        <ele>83.0</ele>
        <time>2021-08-15T07:46:10Z</time>
      </trkpt>
      <trkpt lat="41.753805" lon="2.96945">
        <ele>82.0</ele>
        <time>2021-08-15T07:46:15Z</time>
      </trkpt>
      <trkpt lat="41.753765" lon="2.969545">
        <ele>82.0</ele>
        <time>2021-08-15T07:46:19Z</time>
      </trkpt>
      <trkpt lat="41.753705" lon="2.96961">
        <ele>81.0</ele>
        <time>2021-08-15T07:46:22Z</time>
      </trkpt>
      <trkpt lat="41.753633" lon="2.969665">
        <ele>81.0</ele>
        <time>2021-08-15T07:46:26Z</time>
      </trkpt>
      <trkpt lat="41.753575" lon="2.969745">
        <ele>80.0</ele>
        <time>2021-08-15T07:46:31Z</time>
      </trkpt>
      <trkpt lat="41.75353" lon="2.969865">
        <ele>78.0</ele>
        <time>2021-08-15T07:46:34Z</time>
      </trkpt>
      <trkpt lat="41.753495" lon="2.969995">
        <ele>78.0</ele>
        <time>2021-08-15T07:46:37Z</time>
      </trkpt>
      <trkpt lat="41.75347" lon="2.9701">
        <ele>78.0</ele>
        <time>2021-08-15T07:46:40Z</time>
      </trkpt>
      <trkpt lat="41.753465" lon="2.970215">
        <ele>78.0</ele>
        <time>2021-08-15T07:46:44Z</time>
      </trkpt>
      <trkpt lat="41.75346" lon="2.97035">
        <ele>76.0</ele>
        <time>2021-08-15T07:46:49Z</time>
      </trkpt>
      <trkpt lat="41.753478" lon="2.97047">
        <ele>75.0</ele>
        <time>2021-08-15T07:46:53Z</time>
      </trkpt>
      <trkpt lat="41.753525" lon="2.970563">
        <ele>75.0</ele>
        <time>2021-08-15T07:46:57Z</time>
      </trkpt>
      <trkpt lat="41.753565" lon="2.97061">
        <ele>75.0</ele>
        <time>2021-08-15T07:47:04Z</time>
      </trkpt>
      <trkpt lat="41.753562" lon="2.970643">
        <ele>74.0</ele>
        <time>2021-08-15T07:47:11Z</time>
      </trkpt>
      <trkpt lat="41.753605" lon="2.970733">
        <ele>72.0</ele>
        <time>2021-08-15T07:47:17Z</time>
      </trkpt>
      <trkpt lat="41.75362" lon="2.970795">
        <ele>71.0</ele>
        <time>2021-08-15T07:47:24Z</time>
      </trkpt>
      <trkpt lat="41.75363" lon="2.97081">
        <ele>71.0</ele>
        <time>2021-08-15T07:47:31Z</time>
      </trkpt>
      <trkpt lat="41.75361" lon="2.97091">
        <ele>70.0</ele>
        <time>2021-08-15T07:47:35Z</time>
      </trkpt>
      <trkpt lat="41.75353" lon="2.970975">
        <ele>69.0</ele>
        <time>2021-08-15T07:47:38Z</time>
      </trkpt>
      <trkpt lat="41.75346" lon="2.971025">
        <ele>67.0</ele>
        <time>2021-08-15T07:47:42Z</time>
      </trkpt>
      <trkpt lat="41.75344" lon="2.97107">
        <ele>64.0</ele>
        <time>2021-08-15T07:47:49Z</time>
      </trkpt>
      <trkpt lat="41.75343" lon="2.971055">
        <ele>63.0</ele>
        <time>2021-08-15T07:47:56Z</time>
      </trkpt>
      <trkpt lat="41.753435" lon="2.97105">
        <ele>60.0</ele>
        <time>2021-08-15T07:48:03Z</time>
      </trkpt>
      <trkpt lat="41.753435" lon="2.97105">
        <ele>60.0</ele>
        <time>2021-08-15T07:48:05Z</time>
      </trkpt>
      <trkpt lat="41.753445" lon="2.97106">
        <ele>59.0</ele>
        <time>2021-08-15T07:48:12Z</time>
      </trkpt>
      <trkpt lat="41.753445" lon="2.97106">
        <ele>59.0</ele>
        <time>2021-08-15T07:48:17Z</time>
      </trkpt>
      <trkpt lat="41.75342" lon="2.97106">
        <ele>59.0</ele>
        <time>2021-08-15T07:48:34Z</time>
      </trkpt>
      <trkpt lat="41.75341" lon="2.971075">
        <ele>59.0</ele>
        <time>2021-08-15T07:48:43Z</time>
      </trkpt>
      <trkpt lat="41.75341" lon="2.971075">
        <ele>59.0</ele>
        <time>2021-08-15T07:48:44Z</time>
      </trkpt>
      <trkpt lat="41.753407" lon="2.971112">
        <ele>59.0</ele>
        <time>2021-08-15T07:48:57Z</time>
      </trkpt>
      <trkpt lat="41.753412" lon="2.971105">
        <ele>59.0</ele>
        <time>2021-08-15T07:49:04Z</time>
      </trkpt>
      <trkpt lat="41.753412" lon="2.971105">
        <ele>59.0</ele>
        <time>2021-08-15T07:49:05Z</time>
      </trkpt>
      <trkpt lat="41.753475" lon="2.971075">
        <ele>61.0</ele>
        <time>2021-08-15T07:49:12Z</time>
      </trkpt>
      <trkpt lat="41.75355" lon="2.97103">
        <ele>63.0</ele>
        <time>2021-08-15T07:49:18Z</time>
      </trkpt>
      <trkpt lat="41.75358" lon="2.970965">
        <ele>63.0</ele>
        <time>2021-08-15T07:49:25Z</time>
      </trkpt>
      <trkpt lat="41.75361" lon="2.97091">
        <ele>64.0</ele>
        <time>2021-08-15T07:49:32Z</time>
      </trkpt>
      <trkpt lat="41.75362" lon="2.970828">
        <ele>65.0</ele>
        <time>2021-08-15T07:49:39Z</time>
      </trkpt>
      <trkpt lat="41.75359" lon="2.970773">
        <ele>64.0</ele>
        <time>2021-08-15T07:49:46Z</time>
      </trkpt>
      <trkpt lat="41.753562" lon="2.97072">
        <ele>64.0</ele>
        <time>2021-08-15T07:49:53Z</time>
      </trkpt>
      <trkpt lat="41.753515" lon="2.97065">
        <ele>64.0</ele>
        <time>2021-08-15T07:50:00Z</time>
      </trkpt>
      <trkpt lat="41.753495" lon="2.97058">
        <ele>65.0</ele>
        <time>2021-08-15T07:50:07Z</time>
      </trkpt>
      <trkpt lat="41.75347" lon="2.97053">
        <ele>65.0</ele>
        <time>2021-08-15T07:50:14Z</time>
      </trkpt>
      <trkpt lat="41.75345" lon="2.970425">
        <ele>63.0</ele>
        <time>2021-08-15T07:50:21Z</time>
      </trkpt>
      <trkpt lat="41.753455" lon="2.97031">
        <ele>62.0</ele>
        <time>2021-08-15T07:50:26Z</time>
      </trkpt>
      <trkpt lat="41.753465" lon="2.97025">
        <ele>63.0</ele>
        <time>2021-08-15T07:50:33Z</time>
      </trkpt>
      <trkpt lat="41.753475" lon="2.970185">
        <ele>64.0</ele>
        <time>2021-08-15T07:50:40Z</time>
      </trkpt>
      <trkpt lat="41.753497" lon="2.970095">
        <ele>65.0</ele>
        <time>2021-08-15T07:50:47Z</time>
      </trkpt>
      <trkpt lat="41.753505" lon="2.969995">
        <ele>64.0</ele>
        <time>2021-08-15T07:50:54Z</time>
      </trkpt>
      <trkpt lat="41.75354" lon="2.969915">
        <ele>64.0</ele>
        <time>2021-08-15T07:51:01Z</time>
      </trkpt>
      <trkpt lat="41.75356" lon="2.96982">
        <ele>64.0</ele>
        <time>2021-08-15T07:51:08Z</time>
      </trkpt>
      <trkpt lat="41.75356" lon="2.969805">
        <ele>64.0</ele>
        <time>2021-08-15T07:51:15Z</time>
      </trkpt>
      <trkpt lat="41.75356" lon="2.969805">
        <ele>64.0</ele>
        <time>2021-08-15T07:51:16Z</time>
      </trkpt>
      <trkpt lat="41.753563" lon="2.96974">
        <ele>69.0</ele>
        <time>2021-08-15T07:51:25Z</time>
      </trkpt>
      <trkpt lat="41.753605" lon="2.969693">
        <ele>69.0</ele>
        <time>2021-08-15T07:51:32Z</time>
      </trkpt>
      <trkpt lat="41.753652" lon="2.969657">
        <ele>70.0</ele>
        <time>2021-08-15T07:51:39Z</time>
      </trkpt>
      <trkpt lat="41.753645" lon="2.969655">
        <ele>70.0</ele>
        <time>2021-08-15T07:51:46Z</time>
      </trkpt>
      <trkpt lat="41.753585" lon="2.9697">
        <ele>71.0</ele>
        <time>2021-08-15T07:51:53Z</time>
      </trkpt>
      <trkpt lat="41.753575" lon="2.96973">
        <ele>71.0</ele>
        <time>2021-08-15T07:52:00Z</time>
      </trkpt>
      <trkpt lat="41.753535" lon="2.969785">
        <ele>71.0</ele>
        <time>2021-08-15T07:52:07Z</time>
      </trkpt>
      <trkpt lat="41.75352" lon="2.969885">
        <ele>72.0</ele>
        <time>2021-08-15T07:52:13Z</time>
      </trkpt>
      <trkpt lat="41.753505" lon="2.96996">
        <ele>73.0</ele>
        <time>2021-08-15T07:52:20Z</time>
      </trkpt>
      <trkpt lat="41.75349" lon="2.97004">
        <ele>73.0</ele>
        <time>2021-08-15T07:52:27Z</time>
      </trkpt>
      <trkpt lat="41.753455" lon="2.97012">
        <ele>74.0</ele>
        <time>2021-08-15T07:52:34Z</time>
      </trkpt>
      <trkpt lat="41.753455" lon="2.970205">
        <ele>72.0</ele>
        <time>2021-08-15T07:52:41Z</time>
      </trkpt>
      <trkpt lat="41.753445" lon="2.97031">
        <ele>72.0</ele>
        <time>2021-08-15T07:52:46Z</time>
      </trkpt>
      <trkpt lat="41.753465" lon="2.970407">
        <ele>72.0</ele>
        <time>2021-08-15T07:52:53Z</time>
      </trkpt>
      <trkpt lat="41.753497" lon="2.970492">
        <ele>72.0</ele>
        <time>2021-08-15T07:52:59Z</time>
      </trkpt>
      <trkpt lat="41.75354" lon="2.970545">
        <ele>72.0</ele>
        <time>2021-08-15T07:53:06Z</time>
      </trkpt>
      <trkpt lat="41.753565" lon="2.97064">
        <ele>72.0</ele>
        <time>2021-08-15T07:53:13Z</time>
      </trkpt>
      <trkpt lat="41.753585" lon="2.970705">
        <ele>73.0</ele>
        <time>2021-08-15T07:53:20Z</time>
      </trkpt>
      <trkpt lat="41.75359" lon="2.970755">
        <ele>76.0</ele>
        <time>2021-08-15T07:53:27Z</time>
      </trkpt>
      <trkpt lat="41.753535" lon="2.9708">
        <ele>71.0</ele>
        <time>2021-08-15T07:53:34Z</time>
      </trkpt>
      <trkpt lat="41.75351" lon="2.9708">
        <ele>68.0</ele>
        <time>2021-08-15T07:53:41Z</time>
      </trkpt>
      <trkpt lat="41.75346" lon="2.970805">
        <ele>64.0</ele>
        <time>2021-08-15T07:53:48Z</time>
      </trkpt>
      <trkpt lat="41.75342" lon="2.97076">
        <ele>64.0</ele>
        <time>2021-08-15T07:53:55Z</time>
      </trkpt>
      <trkpt lat="41.75342" lon="2.97076">
        <ele>64.0</ele>
        <time>2021-08-15T07:54:01Z</time>
      </trkpt>
      <trkpt lat="41.75344" lon="2.97081">
        <ele>65.0</ele>
        <time>2021-08-15T07:54:08Z</time>
      </trkpt>
      <trkpt lat="41.753495" lon="2.970822">
        <ele>66.0</ele>
        <time>2021-08-15T07:54:15Z</time>
      </trkpt>
      <trkpt lat="41.753545" lon="2.97087">
        <ele>66.0</ele>
        <time>2021-08-15T07:54:22Z</time>
      </trkpt>
      <trkpt lat="41.75358" lon="2.970912">
        <ele>66.0</ele>
        <time>2021-08-15T07:54:29Z</time>
      </trkpt>
      <trkpt lat="41.75225" lon="2.966402">
        <ele>175.0</ele>
        <time>2021-08-15T10:10:50Z</time>
      </trkpt>
      <trkpt lat="41.75225" lon="2.966402">
        <ele>175.0</ele>
        <time>2021-08-15T10:10:51Z</time>
      </trkpt>
      <trkpt lat="41.75215" lon="2.96633">
        <ele>182.0</ele>
        <time>2021-08-15T10:10:52Z</time>
      </trkpt>
      <trkpt lat="41.752145" lon="2.966235">
        <ele>160.0</ele>
        <time>2021-08-15T10:10:59Z</time>
      </trkpt>
      <trkpt lat="41.752117" lon="2.966295">
        <ele>155.0</ele>
        <time>2021-08-15T10:11:06Z</time>
      </trkpt>
      <trkpt lat="41.752122" lon="2.966405">
        <ele>153.0</ele>
        <time>2021-08-15T10:11:10Z</time>
      </trkpt>
      <trkpt lat="41.752117" lon="2.96653">
        <ele>154.0</ele>
        <time>2021-08-15T10:11:14Z</time>
      </trkpt>
      <trkpt lat="41.75207" lon="2.966627">
        <ele>153.0</ele>
        <time>2021-08-15T10:11:18Z</time>
      </trkpt>
      <trkpt lat="41.752015" lon="2.96671">
        <ele>154.0</ele>
        <time>2021-08-15T10:11:21Z</time>
      </trkpt>
      <trkpt lat="41.75196" lon="2.966775">
        <ele>154.0</ele>
        <time>2021-08-15T10:11:24Z</time>
      </trkpt>
      <trkpt lat="41.751905" lon="2.96685">
        <ele>154.0</ele>
        <time>2021-08-15T10:11:27Z</time>
      </trkpt>
      <trkpt lat="41.751852" lon="2.96694">
        <ele>155.0</ele>
        <time>2021-08-15T10:11:30Z</time>
      </trkpt>
      <trkpt lat="41.751815" lon="2.96704">
        <ele>157.0</ele>
        <time>2021-08-15T10:11:33Z</time>
      </trkpt>
      <trkpt lat="41.75178" lon="2.967135">
        <ele>158.0</ele>
        <time>2021-08-15T10:11:36Z</time>
      </trkpt>
      <trkpt lat="41.751738" lon="2.967235">
        <ele>158.0</ele>
        <time>2021-08-15T10:11:39Z</time>
      </trkpt>
      <trkpt lat="41.751705" lon="2.96734">
        <ele>158.0</ele>
        <time>2021-08-15T10:11:42Z</time>
      </trkpt>
      <trkpt lat="41.751687" lon="2.967453">
        <ele>158.0</ele>
        <time>2021-08-15T10:11:45Z</time>
      </trkpt>
      <trkpt lat="41.751668" lon="2.967565">
        <ele>158.0</ele>
        <time>2021-08-15T10:11:48Z</time>
      </trkpt>
      <trkpt lat="41.75163" lon="2.967675">
        <ele>160.0</ele>
        <time>2021-08-15T10:11:51Z</time>
      </trkpt>
      <trkpt lat="41.751575" lon="2.967755">
        <ele>161.0</ele>
        <time>2021-08-15T10:11:54Z</time>
      </trkpt>
      <trkpt lat="41.7515" lon="2.967815">
        <ele>162.0</ele>
        <time>2021-08-15T10:11:57Z</time>
      </trkpt>
      <trkpt lat="41.75141" lon="2.967825">
        <ele>162.0</ele>
        <time>2021-08-15T10:12:00Z</time>
      </trkpt>
      <trkpt lat="41.75133" lon="2.967778">
        <ele>163.0</ele>
        <time>2021-08-15T10:12:03Z</time>
      </trkpt>
      <trkpt lat="41.751265" lon="2.967707">
        <ele>165.0</ele>
        <time>2021-08-15T10:12:06Z</time>
      </trkpt>
      <trkpt lat="41.75121" lon="2.967625">
        <ele>165.0</ele>
        <time>2021-08-15T10:12:09Z</time>
      </trkpt>
      <trkpt lat="41.751155" lon="2.967518">
        <ele>166.0</ele>
        <time>2021-08-15T10:12:12Z</time>
      </trkpt>
      <trkpt lat="41.75109" lon="2.96746">
        <ele>166.0</ele>
        <time>2021-08-15T10:12:15Z</time>
      </trkpt>
      <trkpt lat="41.75102" lon="2.967418">
        <ele>167.0</ele>
        <time>2021-08-15T10:12:20Z</time>
      </trkpt>
      <trkpt lat="41.751015" lon="2.967405">
        <ele>166.0</ele>
        <time>2021-08-15T10:12:27Z</time>
      </trkpt>
      <trkpt lat="41.75097" lon="2.96731">
        <ele>166.0</ele>
        <time>2021-08-15T10:12:31Z</time>
      </trkpt>
      <trkpt lat="41.750915" lon="2.96722">
        <ele>166.0</ele>
        <time>2021-08-15T10:12:36Z</time>
      </trkpt>
      <trkpt lat="41.75087" lon="2.967113">
        <ele>166.0</ele>
        <time>2021-08-15T10:12:40Z</time>
      </trkpt>
      <trkpt lat="41.750842" lon="2.967025">
        <ele>165.0</ele>
        <time>2021-08-15T10:12:43Z</time>
      </trkpt>
      <trkpt lat="41.75085" lon="2.966925">
        <ele>164.0</ele>
        <time>2021-08-15T10:12:46Z</time>
      </trkpt>
      <trkpt lat="41.750797" lon="2.966815">
        <ele>165.0</ele>
        <time>2021-08-15T10:12:49Z</time>
      </trkpt>
      <trkpt lat="41.750715" lon="2.96672">
        <ele>162.0</ele>
        <time>2021-08-15T10:12:51Z</time>
      </trkpt>
      <trkpt lat="41.75063" lon="2.966642">
        <ele>162.0</ele>
        <time>2021-08-15T10:12:53Z</time>
      </trkpt>
      <trkpt lat="41.750543" lon="2.96655">
        <ele>162.0</ele>
        <time>2021-08-15T10:12:55Z</time>
      </trkpt>
      <trkpt lat="41.750465" lon="2.966442">
        <ele>162.0</ele>
        <time>2021-08-15T10:12:57Z</time>
      </trkpt>
      <trkpt lat="41.750412" lon="2.966327">
        <ele>161.0</ele>
        <time>2021-08-15T10:12:59Z</time>
      </trkpt>
      <trkpt lat="41.75041" lon="2.9662">
        <ele>160.0</ele>
        <time>2021-08-15T10:13:01Z</time>
      </trkpt>
      <trkpt lat="41.750497" lon="2.966095">
        <ele>158.0</ele>
        <time>2021-08-15T10:13:03Z</time>
      </trkpt>
      <trkpt lat="41.750617" lon="2.966055">
        <ele>159.0</ele>
        <time>2021-08-15T10:13:05Z</time>
      </trkpt>
      <trkpt lat="41.750737" lon="2.966015">
        <ele>158.0</ele>
        <time>2021-08-15T10:13:07Z</time>
      </trkpt>
      <trkpt lat="41.750835" lon="2.965898">
        <ele>158.0</ele>
        <time>2021-08-15T10:13:09Z</time>
      </trkpt>
      <trkpt lat="41.75088" lon="2.96582">
        <ele>158.0</ele>
        <time>2021-08-15T10:13:10Z</time>
      </trkpt>
      <trkpt lat="41.750945" lon="2.96565">
        <ele>157.0</ele>
        <time>2021-08-15T10:13:12Z</time>
      </trkpt>
      <trkpt lat="41.75101" lon="2.965475">
        <ele>157.0</ele>
        <time>2021-08-15T10:13:14Z</time>
      </trkpt>
      <trkpt lat="41.751055" lon="2.965307">
        <ele>156.0</ele>
        <time>2021-08-15T10:13:16Z</time>
      </trkpt>
      <trkpt lat="41.751055" lon="2.965115">
        <ele>156.0</ele>
        <time>2021-08-15T10:13:18Z</time>
      </trkpt>
      <trkpt lat="41.75103" lon="2.964933">
        <ele>155.0</ele>
        <time>2021-08-15T10:13:20Z</time>
      </trkpt>
      <trkpt lat="41.751005" lon="2.964845">
        <ele>155.0</ele>
        <time>2021-08-15T10:13:21Z</time>
      </trkpt>
      <trkpt lat="41.750977" lon="2.964752">
        <ele>154.0</ele>
        <time>2021-08-15T10:13:22Z</time>
      </trkpt>
      <trkpt lat="41.75095" lon="2.964662">
        <ele>155.0</ele>
        <time>2021-08-15T10:13:23Z</time>
      </trkpt>
      <trkpt lat="41.750895" lon="2.964495">
        <ele>154.0</ele>
        <time>2021-08-15T10:13:25Z</time>
      </trkpt>
      <trkpt lat="41.75079" lon="2.96436">
        <ele>153.0</ele>
        <time>2021-08-15T10:13:27Z</time>
      </trkpt>
      <trkpt lat="41.75069" lon="2.964235">
        <ele>153.0</ele>
        <time>2021-08-15T10:13:29Z</time>
      </trkpt>
      <trkpt lat="41.750617" lon="2.964115">
        <ele>151.0</ele>
        <time>2021-08-15T10:13:31Z</time>
      </trkpt>
      <trkpt lat="41.750552" lon="2.963997">
        <ele>150.0</ele>
        <time>2021-08-15T10:13:33Z</time>
      </trkpt>
      <trkpt lat="41.750485" lon="2.963905">
        <ele>149.0</ele>
        <time>2021-08-15T10:13:35Z</time>
      </trkpt>
      <trkpt lat="41.750442" lon="2.96382">
        <ele>148.0</ele>
        <time>2021-08-15T10:13:37Z</time>
      </trkpt>
      <trkpt lat="41.750405" lon="2.963735">
        <ele>148.0</ele>
        <time>2021-08-15T10:13:40Z</time>
      </trkpt>
      <trkpt lat="41.75037" lon="2.96364">
        <ele>148.0</ele>
        <time>2021-08-15T10:13:45Z</time>
      </trkpt>
      <trkpt lat="41.750355" lon="2.963605">
        <ele>147.0</ele>
        <time>2021-08-15T10:13:52Z</time>
      </trkpt>
      <trkpt lat="41.750355" lon="2.963615">
        <ele>147.0</ele>
        <time>2021-08-15T10:13:59Z</time>
      </trkpt>
      <trkpt lat="41.750357" lon="2.96361">
        <ele>147.0</ele>
        <time>2021-08-15T10:14:01Z</time>
      </trkpt>
      <trkpt lat="41.750365" lon="2.96351">
        <ele>146.0</ele>
        <time>2021-08-15T10:14:11Z</time>
      </trkpt>
      <trkpt lat="41.750373" lon="2.963388">
        <ele>146.0</ele>
        <time>2021-08-15T10:14:14Z</time>
      </trkpt>
      <trkpt lat="41.750372" lon="2.963285">
        <ele>145.0</ele>
        <time>2021-08-15T10:14:16Z</time>
      </trkpt>
      <trkpt lat="41.75037" lon="2.96316">
        <ele>143.0</ele>
        <time>2021-08-15T10:14:18Z</time>
      </trkpt>
      <trkpt lat="41.7504" lon="2.96302">
        <ele>142.0</ele>
        <time>2021-08-15T10:14:20Z</time>
      </trkpt>
      <trkpt lat="41.750465" lon="2.96289">
        <ele>142.0</ele>
        <time>2021-08-15T10:14:22Z</time>
      </trkpt>
      <trkpt lat="41.750555" lon="2.96279">
        <ele>141.0</ele>
        <time>2021-08-15T10:14:24Z</time>
      </trkpt>
      <trkpt lat="41.75064" lon="2.96267">
        <ele>141.0</ele>
        <time>2021-08-15T10:14:26Z</time>
      </trkpt>
      <trkpt lat="41.750687" lon="2.962517">
        <ele>140.0</ele>
        <time>2021-08-15T10:14:28Z</time>
      </trkpt>
      <trkpt lat="41.75066" lon="2.96235">
        <ele>140.0</ele>
        <time>2021-08-15T10:14:30Z</time>
      </trkpt>
      <trkpt lat="41.75056" lon="2.962223">
        <ele>140.0</ele>
        <time>2021-08-15T10:14:32Z</time>
      </trkpt>
      <trkpt lat="41.7505" lon="2.962165">
        <ele>140.0</ele>
        <time>2021-08-15T10:14:33Z</time>
      </trkpt>
      <trkpt lat="41.75044" lon="2.962095">
        <ele>139.0</ele>
        <time>2021-08-15T10:14:34Z</time>
      </trkpt>
      <trkpt lat="41.750385" lon="2.962025">
        <ele>139.0</ele>
        <time>2021-08-15T10:14:35Z</time>
      </trkpt>
      <trkpt lat="41.750327" lon="2.961952">
        <ele>138.0</ele>
        <time>2021-08-15T10:14:36Z</time>
      </trkpt>
      <trkpt lat="41.750265" lon="2.961885">
        <ele>138.0</ele>
        <time>2021-08-15T10:14:37Z</time>
      </trkpt>
      <trkpt lat="41.750205" lon="2.961815">
        <ele>137.0</ele>
        <time>2021-08-15T10:14:38Z</time>
      </trkpt>
      <trkpt lat="41.750147" lon="2.96174">
        <ele>137.0</ele>
        <time>2021-08-15T10:14:39Z</time>
      </trkpt>
      <trkpt lat="41.750092" lon="2.961665">
        <ele>137.0</ele>
        <time>2021-08-15T10:14:40Z</time>
      </trkpt>
      <trkpt lat="41.750045" lon="2.96159">
        <ele>136.0</ele>
        <time>2021-08-15T10:14:41Z</time>
      </trkpt>
      <trkpt lat="41.75" lon="2.961503">
        <ele>136.0</ele>
        <time>2021-08-15T10:14:42Z</time>
      </trkpt>
      <trkpt lat="41.74997" lon="2.9614">
        <ele>135.0</ele>
        <time>2021-08-15T10:14:43Z</time>
      </trkpt>
      <trkpt lat="41.749955" lon="2.96129">
        <ele>135.0</ele>
        <time>2021-08-15T10:14:44Z</time>
      </trkpt>
      <trkpt lat="41.749955" lon="2.961175">
        <ele>135.0</ele>
        <time>2021-08-15T10:14:45Z</time>
      </trkpt>
      <trkpt lat="41.749985" lon="2.961067">
        <ele>135.0</ele>
        <time>2021-08-15T10:14:46Z</time>
      </trkpt>
      <trkpt lat="41.750045" lon="2.960982">
        <ele>135.0</ele>
        <time>2021-08-15T10:14:47Z</time>
      </trkpt>
      <trkpt lat="41.750115" lon="2.960907">
        <ele>134.0</ele>
        <time>2021-08-15T10:14:48Z</time>
      </trkpt>
      <trkpt lat="41.750195" lon="2.96085">
        <ele>134.0</ele>
        <time>2021-08-15T10:14:49Z</time>
      </trkpt>
      <trkpt lat="41.750275" lon="2.960795">
        <ele>134.0</ele>
        <time>2021-08-15T10:14:50Z</time>
      </trkpt>
      <trkpt lat="41.75035" lon="2.960755">
        <ele>135.0</ele>
        <time>2021-08-15T10:14:51Z</time>
      </trkpt>
      <trkpt lat="41.75041" lon="2.960685">
        <ele>134.0</ele>
        <time>2021-08-15T10:14:52Z</time>
      </trkpt>
      <trkpt lat="41.75044" lon="2.960595">
        <ele>134.0</ele>
        <time>2021-08-15T10:14:53Z</time>
      </trkpt>
      <trkpt lat="41.750453" lon="2.960485">
        <ele>134.0</ele>
        <time>2021-08-15T10:14:54Z</time>
      </trkpt>
      <trkpt lat="41.750445" lon="2.960375">
        <ele>134.0</ele>
        <time>2021-08-15T10:14:55Z</time>
      </trkpt>
      <trkpt lat="41.750415" lon="2.960273">
        <ele>133.0</ele>
        <time>2021-08-15T10:14:56Z</time>
      </trkpt>
      <trkpt lat="41.75037" lon="2.960177">
        <ele>133.0</ele>
        <time>2021-08-15T10:14:57Z</time>
      </trkpt>
      <trkpt lat="41.750317" lon="2.96009">
        <ele>132.0</ele>
        <time>2021-08-15T10:14:58Z</time>
      </trkpt>
      <trkpt lat="41.75026" lon="2.96001">
        <ele>132.0</ele>
        <time>2021-08-15T10:14:59Z</time>
      </trkpt>
      <trkpt lat="41.75019" lon="2.959935">
        <ele>131.0</ele>
        <time>2021-08-15T10:15:00Z</time>
      </trkpt>
      <trkpt lat="41.750115" lon="2.95988">
        <ele>130.0</ele>
        <time>2021-08-15T10:15:01Z</time>
      </trkpt>
      <trkpt lat="41.75003" lon="2.959837">
        <ele>130.0</ele>
        <time>2021-08-15T10:15:02Z</time>
      </trkpt>
      <trkpt lat="41.749945" lon="2.959815">
        <ele>129.0</ele>
        <time>2021-08-15T10:15:03Z</time>
      </trkpt>
      <trkpt lat="41.74987" lon="2.959797">
        <ele>127.0</ele>
        <time>2021-08-15T10:15:04Z</time>
      </trkpt>
      <trkpt lat="41.749795" lon="2.959777">
        <ele>127.0</ele>
        <time>2021-08-15T10:15:05Z</time>
      </trkpt>
      <trkpt lat="41.749725" lon="2.95974">
        <ele>127.0</ele>
        <time>2021-08-15T10:15:06Z</time>
      </trkpt>
      <trkpt lat="41.749627" lon="2.95959">
        <ele>126.0</ele>
        <time>2021-08-15T10:15:08Z</time>
      </trkpt>
      <trkpt lat="41.749597" lon="2.9595">
        <ele>127.0</ele>
        <time>2021-08-15T10:15:09Z</time>
      </trkpt>
      <trkpt lat="41.749575" lon="2.959395">
        <ele>126.0</ele>
        <time>2021-08-15T10:15:10Z</time>
      </trkpt>
      <trkpt lat="41.749555" lon="2.959302">
        <ele>126.0</ele>
        <time>2021-08-15T10:15:11Z</time>
      </trkpt>
      <trkpt lat="41.74954" lon="2.959192">
        <ele>126.0</ele>
        <time>2021-08-15T10:15:12Z</time>
      </trkpt>
      <trkpt lat="41.749535" lon="2.959077">
        <ele>125.0</ele>
        <time>2021-08-15T10:15:13Z</time>
      </trkpt>
      <trkpt lat="41.749535" lon="2.958955">
        <ele>124.0</ele>
        <time>2021-08-15T10:15:14Z</time>
      </trkpt>
      <trkpt lat="41.749543" lon="2.958833">
        <ele>124.0</ele>
        <time>2021-08-15T10:15:15Z</time>
      </trkpt>
      <trkpt lat="41.749562" lon="2.95871">
        <ele>123.0</ele>
        <time>2021-08-15T10:15:16Z</time>
      </trkpt>
      <trkpt lat="41.74958" lon="2.958585">
        <ele>123.0</ele>
        <time>2021-08-15T10:15:17Z</time>
      </trkpt>
      <trkpt lat="41.7496" lon="2.958453">
        <ele>122.0</ele>
        <time>2021-08-15T10:15:18Z</time>
      </trkpt>
      <trkpt lat="41.749625" lon="2.958335">
        <ele>121.0</ele>
        <time>2021-08-15T10:15:19Z</time>
      </trkpt>
      <trkpt lat="41.749655" lon="2.95823">
        <ele>121.0</ele>
        <time>2021-08-15T10:15:20Z</time>
      </trkpt>
      <trkpt lat="41.74969" lon="2.95814">
        <ele>120.0</ele>
        <time>2021-08-15T10:15:21Z</time>
      </trkpt>
      <trkpt lat="41.74973" lon="2.95806">
        <ele>120.0</ele>
        <time>2021-08-15T10:15:22Z</time>
      </trkpt>
      <trkpt lat="41.74979" lon="2.957995">
        <ele>121.0</ele>
        <time>2021-08-15T10:15:23Z</time>
      </trkpt>
      <trkpt lat="41.749927" lon="2.95791">
        <ele>120.0</ele>
        <time>2021-08-15T10:15:25Z</time>
      </trkpt>
      <trkpt lat="41.74999" lon="2.957865">
        <ele>120.0</ele>
        <time>2021-08-15T10:15:26Z</time>
      </trkpt>
      <trkpt lat="41.750055" lon="2.957815">
        <ele>120.0</ele>
        <time>2021-08-15T10:15:27Z</time>
      </trkpt>
      <trkpt lat="41.750115" lon="2.95776">
        <ele>120.0</ele>
        <time>2021-08-15T10:15:28Z</time>
      </trkpt>
      <trkpt lat="41.750215" lon="2.957635">
        <ele>119.0</ele>
        <time>2021-08-15T10:15:30Z</time>
      </trkpt>
      <trkpt lat="41.750262" lon="2.957468">
        <ele>117.0</ele>
        <time>2021-08-15T10:15:32Z</time>
      </trkpt>
      <trkpt lat="41.750237" lon="2.957308">
        <ele>117.0</ele>
        <time>2021-08-15T10:15:34Z</time>
      </trkpt>
      <trkpt lat="41.75016" lon="2.957192">
        <ele>116.0</ele>
        <time>2021-08-15T10:15:36Z</time>
      </trkpt>
      <trkpt lat="41.750065" lon="2.957165">
        <ele>116.0</ele>
        <time>2021-08-15T10:15:38Z</time>
      </trkpt>
      <trkpt lat="41.749975" lon="2.95717">
        <ele>116.0</ele>
        <time>2021-08-15T10:15:40Z</time>
      </trkpt>
      <trkpt lat="41.7499" lon="2.95719">
        <ele>115.0</ele>
        <time>2021-08-15T10:15:42Z</time>
      </trkpt>
      <trkpt lat="41.74981" lon="2.957235">
        <ele>114.0</ele>
        <time>2021-08-15T10:15:44Z</time>
      </trkpt>
      <trkpt lat="41.74973" lon="2.95727">
        <ele>114.0</ele>
        <time>2021-08-15T10:15:46Z</time>
      </trkpt>
      <trkpt lat="41.74965" lon="2.957292">
        <ele>114.0</ele>
        <time>2021-08-15T10:15:48Z</time>
      </trkpt>
      <trkpt lat="41.749565" lon="2.957288">
        <ele>114.0</ele>
        <time>2021-08-15T10:15:50Z</time>
      </trkpt>
      <trkpt lat="41.749473" lon="2.957267">
        <ele>113.0</ele>
        <time>2021-08-15T10:15:52Z</time>
      </trkpt>
      <trkpt lat="41.7494" lon="2.957205">
        <ele>113.0</ele>
        <time>2021-08-15T10:15:54Z</time>
      </trkpt>
      <trkpt lat="41.749345" lon="2.957102">
        <ele>113.0</ele>
        <time>2021-08-15T10:15:56Z</time>
      </trkpt>
      <trkpt lat="41.7493" lon="2.956985">
        <ele>113.0</ele>
        <time>2021-08-15T10:15:58Z</time>
      </trkpt>
      <trkpt lat="41.749265" lon="2.95687">
        <ele>113.0</ele>
        <time>2021-08-15T10:16:00Z</time>
      </trkpt>
      <trkpt lat="41.74923" lon="2.956752">
        <ele>113.0</ele>
        <time>2021-08-15T10:16:02Z</time>
      </trkpt>
      <trkpt lat="41.749185" lon="2.956647">
        <ele>113.0</ele>
        <time>2021-08-15T10:16:04Z</time>
      </trkpt>
      <trkpt lat="41.7491" lon="2.956563">
        <ele>112.0</ele>
        <time>2021-08-15T10:16:06Z</time>
      </trkpt>
      <trkpt lat="41.748995" lon="2.956557">
        <ele>113.0</ele>
        <time>2021-08-15T10:16:08Z</time>
      </trkpt>
      <trkpt lat="41.748905" lon="2.956615">
        <ele>113.0</ele>
        <time>2021-08-15T10:16:10Z</time>
      </trkpt>
      <trkpt lat="41.748835" lon="2.956695">
        <ele>113.0</ele>
        <time>2021-08-15T10:16:12Z</time>
      </trkpt>
      <trkpt lat="41.748775" lon="2.956785">
        <ele>113.0</ele>
        <time>2021-08-15T10:16:14Z</time>
      </trkpt>
      <trkpt lat="41.748713" lon="2.956872">
        <ele>114.0</ele>
        <time>2021-08-15T10:16:16Z</time>
      </trkpt>
      <trkpt lat="41.748662" lon="2.95695">
        <ele>115.0</ele>
        <time>2021-08-15T10:16:18Z</time>
      </trkpt>
      <trkpt lat="41.74861" lon="2.957017">
        <ele>115.0</ele>
        <time>2021-08-15T10:16:20Z</time>
      </trkpt>
      <trkpt lat="41.74853" lon="2.95711">
        <ele>115.0</ele>
        <time>2021-08-15T10:16:23Z</time>
      </trkpt>
      <trkpt lat="41.74847" lon="2.95716">
        <ele>115.0</ele>
        <time>2021-08-15T10:16:25Z</time>
      </trkpt>
      <trkpt lat="41.748395" lon="2.957255">
        <ele>115.0</ele>
        <time>2021-08-15T10:16:28Z</time>
      </trkpt>
      <trkpt lat="41.74834" lon="2.957373">
        <ele>115.0</ele>
        <time>2021-08-15T10:16:31Z</time>
      </trkpt>
      <trkpt lat="41.748327" lon="2.9575">
        <ele>115.0</ele>
        <time>2021-08-15T10:16:34Z</time>
      </trkpt>
      <trkpt lat="41.748325" lon="2.95763">
        <ele>115.0</ele>
        <time>2021-08-15T10:16:37Z</time>
      </trkpt>
      <trkpt lat="41.748327" lon="2.957755">
        <ele>116.0</ele>
        <time>2021-08-15T10:16:40Z</time>
      </trkpt>
      <trkpt lat="41.748325" lon="2.957887">
        <ele>116.0</ele>
        <time>2021-08-15T10:16:43Z</time>
      </trkpt>
      <trkpt lat="41.74831" lon="2.958005">
        <ele>116.0</ele>
        <time>2021-08-15T10:16:46Z</time>
      </trkpt>
      <trkpt lat="41.74829" lon="2.958125">
        <ele>116.0</ele>
        <time>2021-08-15T10:16:49Z</time>
      </trkpt>
      <trkpt lat="41.748255" lon="2.958247">
        <ele>117.0</ele>
        <time>2021-08-15T10:16:52Z</time>
      </trkpt>
      <trkpt lat="41.748215" lon="2.958362">
        <ele>117.0</ele>
        <time>2021-08-15T10:16:55Z</time>
      </trkpt>
      <trkpt lat="41.748165" lon="2.958468">
        <ele>118.0</ele>
        <time>2021-08-15T10:16:58Z</time>
      </trkpt>
      <trkpt lat="41.748105" lon="2.958555">
        <ele>118.0</ele>
        <time>2021-08-15T10:17:01Z</time>
      </trkpt>
      <trkpt lat="41.748047" lon="2.958645">
        <ele>118.0</ele>
        <time>2021-08-15T10:17:04Z</time>
      </trkpt>
      <trkpt lat="41.747985" lon="2.958722">
        <ele>119.0</ele>
        <time>2021-08-15T10:17:07Z</time>
      </trkpt>
      <trkpt lat="41.74792" lon="2.9588">
        <ele>120.0</ele>
        <time>2021-08-15T10:17:10Z</time>
      </trkpt>
      <trkpt lat="41.747855" lon="2.95889">
        <ele>120.0</ele>
        <time>2021-08-15T10:17:13Z</time>
      </trkpt>
      <trkpt lat="41.747812" lon="2.958992">
        <ele>120.0</ele>
        <time>2021-08-15T10:17:16Z</time>
      </trkpt>
      <trkpt lat="41.747775" lon="2.959103">
        <ele>120.0</ele>
        <time>2021-08-15T10:17:19Z</time>
      </trkpt>
      <trkpt lat="41.74777" lon="2.95923">
        <ele>121.0</ele>
        <time>2021-08-15T10:17:22Z</time>
      </trkpt>
      <trkpt lat="41.747775" lon="2.95935">
        <ele>121.0</ele>
        <time>2021-08-15T10:17:25Z</time>
      </trkpt>
      <trkpt lat="41.747775" lon="2.959467">
        <ele>122.0</ele>
        <time>2021-08-15T10:17:28Z</time>
      </trkpt>
      <trkpt lat="41.74776" lon="2.959572">
        <ele>122.0</ele>
        <time>2021-08-15T10:17:31Z</time>
      </trkpt>
      <trkpt lat="41.747715" lon="2.95967">
        <ele>125.0</ele>
        <time>2021-08-15T10:17:35Z</time>
      </trkpt>
      <trkpt lat="41.74766" lon="2.959745">
        <ele>125.0</ele>
        <time>2021-08-15T10:17:38Z</time>
      </trkpt>
      <trkpt lat="41.747567" lon="2.95977">
        <ele>126.0</ele>
        <time>2021-08-15T10:17:42Z</time>
      </trkpt>
      <trkpt lat="41.74747" lon="2.959765">
        <ele>126.0</ele>
        <time>2021-08-15T10:17:45Z</time>
      </trkpt>
      <trkpt lat="41.747395" lon="2.959755">
        <ele>127.0</ele>
        <time>2021-08-15T10:17:47Z</time>
      </trkpt>
      <trkpt lat="41.74732" lon="2.959732">
        <ele>127.0</ele>
        <time>2021-08-15T10:17:49Z</time>
      </trkpt>
      <trkpt lat="41.747245" lon="2.959725">
        <ele>126.0</ele>
        <time>2021-08-15T10:17:51Z</time>
      </trkpt>
      <trkpt lat="41.74715" lon="2.959722">
        <ele>127.0</ele>
        <time>2021-08-15T10:17:54Z</time>
      </trkpt>
      <trkpt lat="41.747065" lon="2.959787">
        <ele>127.0</ele>
        <time>2021-08-15T10:17:57Z</time>
      </trkpt>
      <trkpt lat="41.747015" lon="2.959855">
        <ele>127.0</ele>
        <time>2021-08-15T10:17:59Z</time>
      </trkpt>
      <trkpt lat="41.746977" lon="2.95994">
        <ele>128.0</ele>
        <time>2021-08-15T10:18:01Z</time>
      </trkpt>
      <trkpt lat="41.74696" lon="2.960072">
        <ele>129.0</ele>
        <time>2021-08-15T10:18:04Z</time>
      </trkpt>
      <trkpt lat="41.746967" lon="2.960167">
        <ele>130.0</ele>
        <time>2021-08-15T10:18:06Z</time>
      </trkpt>
      <trkpt lat="41.746982" lon="2.960265">
        <ele>131.0</ele>
        <time>2021-08-15T10:18:08Z</time>
      </trkpt>
      <trkpt lat="41.74703" lon="2.960395">
        <ele>132.0</ele>
        <time>2021-08-15T10:18:11Z</time>
      </trkpt>
      <trkpt lat="41.74708" lon="2.96051">
        <ele>132.0</ele>
        <time>2021-08-15T10:18:14Z</time>
      </trkpt>
      <trkpt lat="41.747135" lon="2.96062">
        <ele>135.0</ele>
        <time>2021-08-15T10:18:17Z</time>
      </trkpt>
      <trkpt lat="41.747185" lon="2.96073">
        <ele>136.0</ele>
        <time>2021-08-15T10:18:20Z</time>
      </trkpt>
      <trkpt lat="41.747245" lon="2.96082">
        <ele>137.0</ele>
        <time>2021-08-15T10:18:23Z</time>
      </trkpt>
      <trkpt lat="41.747285" lon="2.96093">
        <ele>138.0</ele>
        <time>2021-08-15T10:18:26Z</time>
      </trkpt>
      <trkpt lat="41.74733" lon="2.96104">
        <ele>138.0</ele>
        <time>2021-08-15T10:18:29Z</time>
      </trkpt>
      <trkpt lat="41.74739" lon="2.961143">
        <ele>137.0</ele>
        <time>2021-08-15T10:18:32Z</time>
      </trkpt>
      <trkpt lat="41.747437" lon="2.961222">
        <ele>138.0</ele>
        <time>2021-08-15T10:18:34Z</time>
      </trkpt>
      <trkpt lat="41.747497" lon="2.961335">
        <ele>138.0</ele>
        <time>2021-08-15T10:18:37Z</time>
      </trkpt>
      <trkpt lat="41.747522" lon="2.961455">
        <ele>138.0</ele>
        <time>2021-08-15T10:18:40Z</time>
      </trkpt>
      <trkpt lat="41.747482" lon="2.961543">
        <ele>139.0</ele>
        <time>2021-08-15T10:18:43Z</time>
      </trkpt>
      <trkpt lat="41.747418" lon="2.961613">
        <ele>139.0</ele>
        <time>2021-08-15T10:18:46Z</time>
      </trkpt>
      <trkpt lat="41.747357" lon="2.96169">
        <ele>139.0</ele>
        <time>2021-08-15T10:18:49Z</time>
      </trkpt>
      <trkpt lat="41.747287" lon="2.96178">
        <ele>139.0</ele>
        <time>2021-08-15T10:18:52Z</time>
      </trkpt>
      <trkpt lat="41.74722" lon="2.961862">
        <ele>140.0</ele>
        <time>2021-08-15T10:18:55Z</time>
      </trkpt>
      <trkpt lat="41.747135" lon="2.961915">
        <ele>141.0</ele>
        <time>2021-08-15T10:18:58Z</time>
      </trkpt>
      <trkpt lat="41.74705" lon="2.961915">
        <ele>141.0</ele>
        <time>2021-08-15T10:19:01Z</time>
      </trkpt>
      <trkpt lat="41.746968" lon="2.96189">
        <ele>141.0</ele>
        <time>2021-08-15T10:19:04Z</time>
      </trkpt>
      <trkpt lat="41.746875" lon="2.961867">
        <ele>141.0</ele>
        <time>2021-08-15T10:19:07Z</time>
      </trkpt>
      <trkpt lat="41.74677" lon="2.96184">
        <ele>142.0</ele>
        <time>2021-08-15T10:19:10Z</time>
      </trkpt>
      <trkpt lat="41.746672" lon="2.96185">
        <ele>141.0</ele>
        <time>2021-08-15T10:19:13Z</time>
      </trkpt>
      <trkpt lat="41.746587" lon="2.961893">
        <ele>141.0</ele>
        <time>2021-08-15T10:19:16Z</time>
      </trkpt>
      <trkpt lat="41.746515" lon="2.961985">
        <ele>141.0</ele>
        <time>2021-08-15T10:19:19Z</time>
      </trkpt>
      <trkpt lat="41.746475" lon="2.96211">
        <ele>141.0</ele>
        <time>2021-08-15T10:19:22Z</time>
      </trkpt>
      <trkpt lat="41.746425" lon="2.962232">
        <ele>142.0</ele>
        <time>2021-08-15T10:19:25Z</time>
      </trkpt>
      <trkpt lat="41.746372" lon="2.962335">
        <ele>142.0</ele>
        <time>2021-08-15T10:19:28Z</time>
      </trkpt>
      <trkpt lat="41.746315" lon="2.96243">
        <ele>143.0</ele>
        <time>2021-08-15T10:19:31Z</time>
      </trkpt>
      <trkpt lat="41.746262" lon="2.96252">
        <ele>143.0</ele>
        <time>2021-08-15T10:19:34Z</time>
      </trkpt>
      <trkpt lat="41.74622" lon="2.9626">
        <ele>144.0</ele>
        <time>2021-08-15T10:19:37Z</time>
      </trkpt>
      <trkpt lat="41.74619" lon="2.962695">
        <ele>144.0</ele>
        <time>2021-08-15T10:19:40Z</time>
      </trkpt>
      <trkpt lat="41.746137" lon="2.9628">
        <ele>145.0</ele>
        <time>2021-08-15T10:19:44Z</time>
      </trkpt>
      <trkpt lat="41.746125" lon="2.962905">
        <ele>145.0</ele>
        <time>2021-08-15T10:19:48Z</time>
      </trkpt>
      <trkpt lat="41.7461" lon="2.962995">
        <ele>145.0</ele>
        <time>2021-08-15T10:19:53Z</time>
      </trkpt>
      <trkpt lat="41.74605" lon="2.963038">
        <ele>148.0</ele>
        <time>2021-08-15T10:20:00Z</time>
      </trkpt>
      <trkpt lat="41.745998" lon="2.96311">
        <ele>149.0</ele>
        <time>2021-08-15T10:20:05Z</time>
      </trkpt>
      <trkpt lat="41.74595" lon="2.963027">
        <ele>151.0</ele>
        <time>2021-08-15T10:20:09Z</time>
      </trkpt>
      <trkpt lat="41.74593" lon="2.962927">
        <ele>151.0</ele>
        <time>2021-08-15T10:20:12Z</time>
      </trkpt>
      <trkpt lat="41.745855" lon="2.962842">
        <ele>152.0</ele>
        <time>2021-08-15T10:20:15Z</time>
      </trkpt>
      <trkpt lat="41.74578" lon="2.96275">
        <ele>152.0</ele>
        <time>2021-08-15T10:20:18Z</time>
      </trkpt>
      <trkpt lat="41.745705" lon="2.96266">
        <ele>152.0</ele>
        <time>2021-08-15T10:20:21Z</time>
      </trkpt>
      <trkpt lat="41.745655" lon="2.962545">
        <ele>152.0</ele>
        <time>2021-08-15T10:20:24Z</time>
      </trkpt>
      <trkpt lat="41.745595" lon="2.962467">
        <ele>151.0</ele>
        <time>2021-08-15T10:20:26Z</time>
      </trkpt>
      <trkpt lat="41.745525" lon="2.962385">
        <ele>151.0</ele>
        <time>2021-08-15T10:20:28Z</time>
      </trkpt>
      <trkpt lat="41.745445" lon="2.962305">
        <ele>151.0</ele>
        <time>2021-08-15T10:20:30Z</time>
      </trkpt>
      <trkpt lat="41.745365" lon="2.96224">
        <ele>151.0</ele>
        <time>2021-08-15T10:20:32Z</time>
      </trkpt>
      <trkpt lat="41.74529" lon="2.962152">
        <ele>152.0</ele>
        <time>2021-08-15T10:20:34Z</time>
      </trkpt>
      <trkpt lat="41.74522" lon="2.962057">
        <ele>151.0</ele>
        <time>2021-08-15T10:20:36Z</time>
      </trkpt>
      <trkpt lat="41.74514" lon="2.96198">
        <ele>151.0</ele>
        <time>2021-08-15T10:20:38Z</time>
      </trkpt>
      <trkpt lat="41.745065" lon="2.961905">
        <ele>151.0</ele>
        <time>2021-08-15T10:20:40Z</time>
      </trkpt>
      <trkpt lat="41.745007" lon="2.961825">
        <ele>151.0</ele>
        <time>2021-08-15T10:20:43Z</time>
      </trkpt>
      <trkpt lat="41.74495" lon="2.96176">
        <ele>151.0</ele>
        <time>2021-08-15T10:20:46Z</time>
      </trkpt>
      <trkpt lat="41.744895" lon="2.96167">
        <ele>151.0</ele>
        <time>2021-08-15T10:20:49Z</time>
      </trkpt>
      <trkpt lat="41.74483" lon="2.961575">
        <ele>151.0</ele>
        <time>2021-08-15T10:20:52Z</time>
      </trkpt>
      <trkpt lat="41.74478" lon="2.9615">
        <ele>151.0</ele>
        <time>2021-08-15T10:20:55Z</time>
      </trkpt>
      <trkpt lat="41.744737" lon="2.961418">
        <ele>151.0</ele>
        <time>2021-08-15T10:20:59Z</time>
      </trkpt>
      <trkpt lat="41.744695" lon="2.961395">
        <ele>151.0</ele>
        <time>2021-08-15T10:21:06Z</time>
      </trkpt>
      <trkpt lat="41.74468" lon="2.961323">
        <ele>151.0</ele>
        <time>2021-08-15T10:21:13Z</time>
      </trkpt>
      <trkpt lat="41.744662" lon="2.961205">
        <ele>151.0</ele>
        <time>2021-08-15T10:21:16Z</time>
      </trkpt>
      <trkpt lat="41.74463" lon="2.961105">
        <ele>151.0</ele>
        <time>2021-08-15T10:21:18Z</time>
      </trkpt>
      <trkpt lat="41.744585" lon="2.960995">
        <ele>150.0</ele>
        <time>2021-08-15T10:21:20Z</time>
      </trkpt>
      <trkpt lat="41.74452" lon="2.9609">
        <ele>150.0</ele>
        <time>2021-08-15T10:21:22Z</time>
      </trkpt>
      <trkpt lat="41.74444" lon="2.960825">
        <ele>149.0</ele>
        <time>2021-08-15T10:21:24Z</time>
      </trkpt>
      <trkpt lat="41.74434" lon="2.960795">
        <ele>149.0</ele>
        <time>2021-08-15T10:21:26Z</time>
      </trkpt>
      <trkpt lat="41.744238" lon="2.9608">
        <ele>149.0</ele>
        <time>2021-08-15T10:21:28Z</time>
      </trkpt>
      <trkpt lat="41.744135" lon="2.960815">
        <ele>149.0</ele>
        <time>2021-08-15T10:21:30Z</time>
      </trkpt>
      <trkpt lat="41.744025" lon="2.960845">
        <ele>148.0</ele>
        <time>2021-08-15T10:21:32Z</time>
      </trkpt>
      <trkpt lat="41.743907" lon="2.960873">
        <ele>148.0</ele>
        <time>2021-08-15T10:21:34Z</time>
      </trkpt>
      <trkpt lat="41.743795" lon="2.960908">
        <ele>147.0</ele>
        <time>2021-08-15T10:21:36Z</time>
      </trkpt>
      <trkpt lat="41.74367" lon="2.96093">
        <ele>147.0</ele>
        <time>2021-08-15T10:21:38Z</time>
      </trkpt>
      <trkpt lat="41.74354" lon="2.960907">
        <ele>147.0</ele>
        <time>2021-08-15T10:21:40Z</time>
      </trkpt>
      <trkpt lat="41.743415" lon="2.96082">
        <ele>147.0</ele>
        <time>2021-08-15T10:21:42Z</time>
      </trkpt>
      <trkpt lat="41.743317" lon="2.96068">
        <ele>146.0</ele>
        <time>2021-08-15T10:21:44Z</time>
      </trkpt>
      <trkpt lat="41.743267" lon="2.960602">
        <ele>146.0</ele>
        <time>2021-08-15T10:21:45Z</time>
      </trkpt>
      <trkpt lat="41.743217" lon="2.960525">
        <ele>145.0</ele>
        <time>2021-08-15T10:21:46Z</time>
      </trkpt>
      <trkpt lat="41.74317" lon="2.960447">
        <ele>145.0</ele>
        <time>2021-08-15T10:21:47Z</time>
      </trkpt>
      <trkpt lat="41.74313" lon="2.960367">
        <ele>145.0</ele>
        <time>2021-08-15T10:21:48Z</time>
      </trkpt>
      <trkpt lat="41.743095" lon="2.96028">
        <ele>145.0</ele>
        <time>2021-08-15T10:21:49Z</time>
      </trkpt>
      <trkpt lat="41.743067" lon="2.96018">
        <ele>145.0</ele>
        <time>2021-08-15T10:21:50Z</time>
      </trkpt>
      <trkpt lat="41.743055" lon="2.96008">
        <ele>144.0</ele>
        <time>2021-08-15T10:21:51Z</time>
      </trkpt>
      <trkpt lat="41.743045" lon="2.959977">
        <ele>144.0</ele>
        <time>2021-08-15T10:21:52Z</time>
      </trkpt>
      <trkpt lat="41.743042" lon="2.959865">
        <ele>144.0</ele>
        <time>2021-08-15T10:21:53Z</time>
      </trkpt>
      <trkpt lat="41.74305" lon="2.959757">
        <ele>144.0</ele>
        <time>2021-08-15T10:21:54Z</time>
      </trkpt>
      <trkpt lat="41.743055" lon="2.95965">
        <ele>144.0</ele>
        <time>2021-08-15T10:21:55Z</time>
      </trkpt>
      <trkpt lat="41.74306" lon="2.959543">
        <ele>144.0</ele>
        <time>2021-08-15T10:21:56Z</time>
      </trkpt>
      <trkpt lat="41.74306" lon="2.959442">
        <ele>143.0</ele>
        <time>2021-08-15T10:21:57Z</time>
      </trkpt>
      <trkpt lat="41.743052" lon="2.959335">
        <ele>143.0</ele>
        <time>2021-08-15T10:21:58Z</time>
      </trkpt>
      <trkpt lat="41.743042" lon="2.95923">
        <ele>143.0</ele>
        <time>2021-08-15T10:21:59Z</time>
      </trkpt>
      <trkpt lat="41.743027" lon="2.95913">
        <ele>143.0</ele>
        <time>2021-08-15T10:22:00Z</time>
      </trkpt>
      <trkpt lat="41.74301" lon="2.95903">
        <ele>143.0</ele>
        <time>2021-08-15T10:22:01Z</time>
      </trkpt>
      <trkpt lat="41.742995" lon="2.95892">
        <ele>142.0</ele>
        <time>2021-08-15T10:22:02Z</time>
      </trkpt>
      <trkpt lat="41.74298" lon="2.958817">
        <ele>142.0</ele>
        <time>2021-08-15T10:22:03Z</time>
      </trkpt>
      <trkpt lat="41.742952" lon="2.958717">
        <ele>142.0</ele>
        <time>2021-08-15T10:22:04Z</time>
      </trkpt>
      <trkpt lat="41.74291" lon="2.958627">
        <ele>142.0</ele>
        <time>2021-08-15T10:22:05Z</time>
      </trkpt>
      <trkpt lat="41.742845" lon="2.958557">
        <ele>142.0</ele>
        <time>2021-08-15T10:22:06Z</time>
      </trkpt>
      <trkpt lat="41.742775" lon="2.958505">
        <ele>141.0</ele>
        <time>2021-08-15T10:22:07Z</time>
      </trkpt>
      <trkpt lat="41.742697" lon="2.95848">
        <ele>140.0</ele>
        <time>2021-08-15T10:22:08Z</time>
      </trkpt>
      <trkpt lat="41.742625" lon="2.95848">
        <ele>140.0</ele>
        <time>2021-08-15T10:22:09Z</time>
      </trkpt>
      <trkpt lat="41.742502" lon="2.958547">
        <ele>139.0</ele>
        <time>2021-08-15T10:22:11Z</time>
      </trkpt>
      <trkpt lat="41.7424" lon="2.958642">
        <ele>139.0</ele>
        <time>2021-08-15T10:22:13Z</time>
      </trkpt>
      <trkpt lat="41.742295" lon="2.95873">
        <ele>139.0</ele>
        <time>2021-08-15T10:22:15Z</time>
      </trkpt>
      <trkpt lat="41.74219" lon="2.95877">
        <ele>139.0</ele>
        <time>2021-08-15T10:22:17Z</time>
      </trkpt>
      <trkpt lat="41.74208" lon="2.95877">
        <ele>138.0</ele>
        <time>2021-08-15T10:22:19Z</time>
      </trkpt>
      <trkpt lat="41.741973" lon="2.958748">
        <ele>139.0</ele>
        <time>2021-08-15T10:22:21Z</time>
      </trkpt>
      <trkpt lat="41.74188" lon="2.95873">
        <ele>138.0</ele>
        <time>2021-08-15T10:22:23Z</time>
      </trkpt>
      <trkpt lat="41.741797" lon="2.9587">
        <ele>138.0</ele>
        <time>2021-08-15T10:22:25Z</time>
      </trkpt>
      <trkpt lat="41.741717" lon="2.958632">
        <ele>138.0</ele>
        <time>2021-08-15T10:22:27Z</time>
      </trkpt>
      <trkpt lat="41.741672" lon="2.958512">
        <ele>138.0</ele>
        <time>2021-08-15T10:22:29Z</time>
      </trkpt>
      <trkpt lat="41.741652" lon="2.958405">
        <ele>139.0</ele>
        <time>2021-08-15T10:22:31Z</time>
      </trkpt>
      <trkpt lat="41.74163" lon="2.958265">
        <ele>138.0</ele>
        <time>2021-08-15T10:22:34Z</time>
      </trkpt>
      <trkpt lat="41.74164" lon="2.95815">
        <ele>138.0</ele>
        <time>2021-08-15T10:22:36Z</time>
      </trkpt>
      <trkpt lat="41.741677" lon="2.95804">
        <ele>138.0</ele>
        <time>2021-08-15T10:22:38Z</time>
      </trkpt>
      <trkpt lat="41.74172" lon="2.957922">
        <ele>138.0</ele>
        <time>2021-08-15T10:22:40Z</time>
      </trkpt>
      <trkpt lat="41.741732" lon="2.957795">
        <ele>138.0</ele>
        <time>2021-08-15T10:22:42Z</time>
      </trkpt>
      <trkpt lat="41.741727" lon="2.957665">
        <ele>138.0</ele>
        <time>2021-08-15T10:22:44Z</time>
      </trkpt>
      <trkpt lat="41.741715" lon="2.957517">
        <ele>138.0</ele>
        <time>2021-08-15T10:22:46Z</time>
      </trkpt>
      <trkpt lat="41.741717" lon="2.95736">
        <ele>137.0</ele>
        <time>2021-08-15T10:22:48Z</time>
      </trkpt>
      <trkpt lat="41.741747" lon="2.957197">
        <ele>137.0</ele>
        <time>2021-08-15T10:22:50Z</time>
      </trkpt>
      <trkpt lat="41.74179" lon="2.957045">
        <ele>136.0</ele>
        <time>2021-08-15T10:22:52Z</time>
      </trkpt>
      <trkpt lat="41.741795" lon="2.956885">
        <ele>136.0</ele>
        <time>2021-08-15T10:22:54Z</time>
      </trkpt>
      <trkpt lat="41.74176" lon="2.956732">
        <ele>136.0</ele>
        <time>2021-08-15T10:22:56Z</time>
      </trkpt>
      <trkpt lat="41.741705" lon="2.95659">
        <ele>136.0</ele>
        <time>2021-08-15T10:22:58Z</time>
      </trkpt>
      <trkpt lat="41.741662" lon="2.956455">
        <ele>136.0</ele>
        <time>2021-08-15T10:23:00Z</time>
      </trkpt>
      <trkpt lat="41.74162" lon="2.95632">
        <ele>136.0</ele>
        <time>2021-08-15T10:23:02Z</time>
      </trkpt>
      <trkpt lat="41.74155" lon="2.956215">
        <ele>135.0</ele>
        <time>2021-08-15T10:23:04Z</time>
      </trkpt>
      <trkpt lat="41.741465" lon="2.956142">
        <ele>134.0</ele>
        <time>2021-08-15T10:23:06Z</time>
      </trkpt>
      <trkpt lat="41.741363" lon="2.956132">
        <ele>134.0</ele>
        <time>2021-08-15T10:23:08Z</time>
      </trkpt>
      <trkpt lat="41.741262" lon="2.956175">
        <ele>134.0</ele>
        <time>2021-08-15T10:23:10Z</time>
      </trkpt>
      <trkpt lat="41.74116" lon="2.956222">
        <ele>134.0</ele>
        <time>2021-08-15T10:23:12Z</time>
      </trkpt>
      <trkpt lat="41.741057" lon="2.95627">
        <ele>134.0</ele>
        <time>2021-08-15T10:23:14Z</time>
      </trkpt>
      <trkpt lat="41.740955" lon="2.95631">
        <ele>133.0</ele>
        <time>2021-08-15T10:23:16Z</time>
      </trkpt>
      <trkpt lat="41.740842" lon="2.956347">
        <ele>133.0</ele>
        <time>2021-08-15T10:23:18Z</time>
      </trkpt>
      <trkpt lat="41.740735" lon="2.956375">
        <ele>132.0</ele>
        <time>2021-08-15T10:23:20Z</time>
      </trkpt>
      <trkpt lat="41.74063" lon="2.956405">
        <ele>132.0</ele>
        <time>2021-08-15T10:23:22Z</time>
      </trkpt>
      <trkpt lat="41.740545" lon="2.95648">
        <ele>131.0</ele>
        <time>2021-08-15T10:23:24Z</time>
      </trkpt>
      <trkpt lat="41.740465" lon="2.956575">
        <ele>131.0</ele>
        <time>2021-08-15T10:23:26Z</time>
      </trkpt>
      <trkpt lat="41.7404" lon="2.95668">
        <ele>131.0</ele>
        <time>2021-08-15T10:23:28Z</time>
      </trkpt>
      <trkpt lat="41.740325" lon="2.95679">
        <ele>131.0</ele>
        <time>2021-08-15T10:23:31Z</time>
      </trkpt>
      <trkpt lat="41.740255" lon="2.956895">
        <ele>131.0</ele>
        <time>2021-08-15T10:23:32Z</time>
      </trkpt>
      <trkpt lat="41.740165" lon="2.956968">
        <ele>131.0</ele>
        <time>2021-08-15T10:23:34Z</time>
      </trkpt>
      <trkpt lat="41.740065" lon="2.956995">
        <ele>130.0</ele>
        <time>2021-08-15T10:23:36Z</time>
      </trkpt>
      <trkpt lat="41.73996" lon="2.956957">
        <ele>130.0</ele>
        <time>2021-08-15T10:23:38Z</time>
      </trkpt>
      <trkpt lat="41.739847" lon="2.956885">
        <ele>129.0</ele>
        <time>2021-08-15T10:23:40Z</time>
      </trkpt>
      <trkpt lat="41.739747" lon="2.956795">
        <ele>128.0</ele>
        <time>2021-08-15T10:23:42Z</time>
      </trkpt>
      <trkpt lat="41.739665" lon="2.9567">
        <ele>127.0</ele>
        <time>2021-08-15T10:23:44Z</time>
      </trkpt>
      <trkpt lat="41.73959" lon="2.956595">
        <ele>127.0</ele>
        <time>2021-08-15T10:23:46Z</time>
      </trkpt>
      <trkpt lat="41.73951" lon="2.956497">
        <ele>127.0</ele>
        <time>2021-08-15T10:23:48Z</time>
      </trkpt>
      <trkpt lat="41.739415" lon="2.95644">
        <ele>127.0</ele>
        <time>2021-08-15T10:23:50Z</time>
      </trkpt>
      <trkpt lat="41.739312" lon="2.95645">
        <ele>127.0</ele>
        <time>2021-08-15T10:23:52Z</time>
      </trkpt>
      <trkpt lat="41.73921" lon="2.95651">
        <ele>126.0</ele>
        <time>2021-08-15T10:23:54Z</time>
      </trkpt>
      <trkpt lat="41.7391" lon="2.956585">
        <ele>124.0</ele>
        <time>2021-08-15T10:23:56Z</time>
      </trkpt>
      <trkpt lat="41.739002" lon="2.95665">
        <ele>123.0</ele>
        <time>2021-08-15T10:23:58Z</time>
      </trkpt>
      <trkpt lat="41.738885" lon="2.956672">
        <ele>122.0</ele>
        <time>2021-08-15T10:24:00Z</time>
      </trkpt>
      <trkpt lat="41.738775" lon="2.956625">
        <ele>121.0</ele>
        <time>2021-08-15T10:24:02Z</time>
      </trkpt>
      <trkpt lat="41.738685" lon="2.95653">
        <ele>122.0</ele>
        <time>2021-08-15T10:24:04Z</time>
      </trkpt>
      <trkpt lat="41.738632" lon="2.95638">
        <ele>121.0</ele>
        <time>2021-08-15T10:24:06Z</time>
      </trkpt>
      <trkpt lat="41.73865" lon="2.956208">
        <ele>121.0</ele>
        <time>2021-08-15T10:24:08Z</time>
      </trkpt>
      <trkpt lat="41.738697" lon="2.956045">
        <ele>121.0</ele>
        <time>2021-08-15T10:24:10Z</time>
      </trkpt>
      <trkpt lat="41.738715" lon="2.95595">
        <ele>120.0</ele>
        <time>2021-08-15T10:24:11Z</time>
      </trkpt>
      <trkpt lat="41.73875" lon="2.95577">
        <ele>120.0</ele>
        <time>2021-08-15T10:24:13Z</time>
      </trkpt>
      <trkpt lat="41.738762" lon="2.955672">
        <ele>120.0</ele>
        <time>2021-08-15T10:24:14Z</time>
      </trkpt>
      <trkpt lat="41.738775" lon="2.955575">
        <ele>120.0</ele>
        <time>2021-08-15T10:24:15Z</time>
      </trkpt>
      <trkpt lat="41.738777" lon="2.955475">
        <ele>120.0</ele>
        <time>2021-08-15T10:24:16Z</time>
      </trkpt>
      <trkpt lat="41.738778" lon="2.95537">
        <ele>120.0</ele>
        <time>2021-08-15T10:24:17Z</time>
      </trkpt>
      <trkpt lat="41.738787" lon="2.955265">
        <ele>119.0</ele>
        <time>2021-08-15T10:24:18Z</time>
      </trkpt>
      <trkpt lat="41.7388" lon="2.955165">
        <ele>119.0</ele>
        <time>2021-08-15T10:24:19Z</time>
      </trkpt>
      <trkpt lat="41.738812" lon="2.955067">
        <ele>119.0</ele>
        <time>2021-08-15T10:24:20Z</time>
      </trkpt>
      <trkpt lat="41.73884" lon="2.95491">
        <ele>119.0</ele>
        <time>2021-08-15T10:24:22Z</time>
      </trkpt>
      <trkpt lat="41.738858" lon="2.954808">
        <ele>119.0</ele>
        <time>2021-08-15T10:24:24Z</time>
      </trkpt>
      <trkpt lat="41.738878" lon="2.954695">
        <ele>119.0</ele>
        <time>2021-08-15T10:24:27Z</time>
      </trkpt>
      <trkpt lat="41.738885" lon="2.954592">
        <ele>118.0</ele>
        <time>2021-08-15T10:24:29Z</time>
      </trkpt>
      <trkpt lat="41.73889" lon="2.95446">
        <ele>117.0</ele>
        <time>2021-08-15T10:24:32Z</time>
      </trkpt>
      <trkpt lat="41.738862" lon="2.95437">
        <ele>117.0</ele>
        <time>2021-08-15T10:24:36Z</time>
      </trkpt>
      <trkpt lat="41.738817" lon="2.954282">
        <ele>117.0</ele>
        <time>2021-08-15T10:24:41Z</time>
      </trkpt>
      <trkpt lat="41.73881" lon="2.95427">
        <ele>117.0</ele>
        <time>2021-08-15T10:24:48Z</time>
      </trkpt>
      <trkpt lat="41.73881" lon="2.95427">
        <ele>117.0</ele>
        <time>2021-08-15T10:24:49Z</time>
      </trkpt>
      <trkpt lat="41.73882" lon="2.95417">
        <ele>116.0</ele>
        <time>2021-08-15T10:24:59Z</time>
      </trkpt>
      <trkpt lat="41.738845" lon="2.954052">
        <ele>116.0</ele>
        <time>2021-08-15T10:25:02Z</time>
      </trkpt>
      <trkpt lat="41.738847" lon="2.953928">
        <ele>116.0</ele>
        <time>2021-08-15T10:25:04Z</time>
      </trkpt>
      <trkpt lat="41.738855" lon="2.9538">
        <ele>115.0</ele>
        <time>2021-08-15T10:25:06Z</time>
      </trkpt>
      <trkpt lat="41.738855" lon="2.95366">
        <ele>115.0</ele>
        <time>2021-08-15T10:25:08Z</time>
      </trkpt>
      <trkpt lat="41.738822" lon="2.953513">
        <ele>114.0</ele>
        <time>2021-08-15T10:25:10Z</time>
      </trkpt>
      <trkpt lat="41.73877" lon="2.95336">
        <ele>114.0</ele>
        <time>2021-08-15T10:25:12Z</time>
      </trkpt>
      <trkpt lat="41.738708" lon="2.953188">
        <ele>113.0</ele>
        <time>2021-08-15T10:25:14Z</time>
      </trkpt>
      <trkpt lat="41.73869" lon="2.953092">
        <ele>112.0</ele>
        <time>2021-08-15T10:25:15Z</time>
      </trkpt>
      <trkpt lat="41.73867" lon="2.952995">
        <ele>112.0</ele>
        <time>2021-08-15T10:25:16Z</time>
      </trkpt>
      <trkpt lat="41.738647" lon="2.952893">
        <ele>111.0</ele>
        <time>2021-08-15T10:25:17Z</time>
      </trkpt>
      <trkpt lat="41.738625" lon="2.952798">
        <ele>111.0</ele>
        <time>2021-08-15T10:25:18Z</time>
      </trkpt>
      <trkpt lat="41.738602" lon="2.9527">
        <ele>110.0</ele>
        <time>2021-08-15T10:25:19Z</time>
      </trkpt>
      <trkpt lat="41.738585" lon="2.952595">
        <ele>109.0</ele>
        <time>2021-08-15T10:25:20Z</time>
      </trkpt>
      <trkpt lat="41.73856" lon="2.952492">
        <ele>109.0</ele>
        <time>2021-08-15T10:25:21Z</time>
      </trkpt>
      <trkpt lat="41.73853" lon="2.95232">
        <ele>108.0</ele>
        <time>2021-08-15T10:25:23Z</time>
      </trkpt>
      <trkpt lat="41.738535" lon="2.952173">
        <ele>107.0</ele>
        <time>2021-08-15T10:25:25Z</time>
      </trkpt>
      <trkpt lat="41.73862" lon="2.95209">
        <ele>106.0</ele>
        <time>2021-08-15T10:25:27Z</time>
      </trkpt>
      <trkpt lat="41.738742" lon="2.95213">
        <ele>106.0</ele>
        <time>2021-08-15T10:25:29Z</time>
      </trkpt>
      <trkpt lat="41.73887" lon="2.952187">
        <ele>106.0</ele>
        <time>2021-08-15T10:25:31Z</time>
      </trkpt>
      <trkpt lat="41.73894" lon="2.952215">
        <ele>105.0</ele>
        <time>2021-08-15T10:25:32Z</time>
      </trkpt>
      <trkpt lat="41.739012" lon="2.952235">
        <ele>104.0</ele>
        <time>2021-08-15T10:25:33Z</time>
      </trkpt>
      <trkpt lat="41.739087" lon="2.95225">
        <ele>103.0</ele>
        <time>2021-08-15T10:25:34Z</time>
      </trkpt>
      <trkpt lat="41.739165" lon="2.952257">
        <ele>102.0</ele>
        <time>2021-08-15T10:25:35Z</time>
      </trkpt>
      <trkpt lat="41.739238" lon="2.952258">
        <ele>102.0</ele>
        <time>2021-08-15T10:25:36Z</time>
      </trkpt>
      <trkpt lat="41.73932" lon="2.952267">
        <ele>101.0</ele>
        <time>2021-08-15T10:25:37Z</time>
      </trkpt>
      <trkpt lat="41.739395" lon="2.952307">
        <ele>101.0</ele>
        <time>2021-08-15T10:25:38Z</time>
      </trkpt>
      <trkpt lat="41.739467" lon="2.952362">
        <ele>101.0</ele>
        <time>2021-08-15T10:25:39Z</time>
      </trkpt>
      <trkpt lat="41.739537" lon="2.95242">
        <ele>100.0</ele>
        <time>2021-08-15T10:25:40Z</time>
      </trkpt>
      <trkpt lat="41.739602" lon="2.952477">
        <ele>100.0</ele>
        <time>2021-08-15T10:25:41Z</time>
      </trkpt>
      <trkpt lat="41.739665" lon="2.952533">
        <ele>99.0</ele>
        <time>2021-08-15T10:25:42Z</time>
      </trkpt>
      <trkpt lat="41.739775" lon="2.952638">
        <ele>97.0</ele>
        <time>2021-08-15T10:25:44Z</time>
      </trkpt>
      <trkpt lat="41.739875" lon="2.952685">
        <ele>96.0</ele>
        <time>2021-08-15T10:25:46Z</time>
      </trkpt>
      <trkpt lat="41.739985" lon="2.952615">
        <ele>95.0</ele>
        <time>2021-08-15T10:25:48Z</time>
      </trkpt>
      <trkpt lat="41.740035" lon="2.952485">
        <ele>94.0</ele>
        <time>2021-08-15T10:25:50Z</time>
      </trkpt>
      <trkpt lat="41.740025" lon="2.952327">
        <ele>93.0</ele>
        <time>2021-08-15T10:25:52Z</time>
      </trkpt>
      <trkpt lat="41.739995" lon="2.952157">
        <ele>92.0</ele>
        <time>2021-08-15T10:25:54Z</time>
      </trkpt>
      <trkpt lat="41.739965" lon="2.951967">
        <ele>91.0</ele>
        <time>2021-08-15T10:25:56Z</time>
      </trkpt>
      <trkpt lat="41.73996" lon="2.951867">
        <ele>91.0</ele>
        <time>2021-08-15T10:25:57Z</time>
      </trkpt>
      <trkpt lat="41.739965" lon="2.95177">
        <ele>91.0</ele>
        <time>2021-08-15T10:25:58Z</time>
      </trkpt>
      <trkpt lat="41.739975" lon="2.95167">
        <ele>91.0</ele>
        <time>2021-08-15T10:25:59Z</time>
      </trkpt>
      <trkpt lat="41.740002" lon="2.95158">
        <ele>90.0</ele>
        <time>2021-08-15T10:26:00Z</time>
      </trkpt>
      <trkpt lat="41.74004" lon="2.95149">
        <ele>90.0</ele>
        <time>2021-08-15T10:26:01Z</time>
      </trkpt>
      <trkpt lat="41.74008" lon="2.951405">
        <ele>90.0</ele>
        <time>2021-08-15T10:26:02Z</time>
      </trkpt>
      <trkpt lat="41.740125" lon="2.951313">
        <ele>89.0</ele>
        <time>2021-08-15T10:26:03Z</time>
      </trkpt>
      <trkpt lat="41.740165" lon="2.95123">
        <ele>89.0</ele>
        <time>2021-08-15T10:26:04Z</time>
      </trkpt>
      <trkpt lat="41.740212" lon="2.951137">
        <ele>88.0</ele>
        <time>2021-08-15T10:26:05Z</time>
      </trkpt>
      <trkpt lat="41.740255" lon="2.95105">
        <ele>88.0</ele>
        <time>2021-08-15T10:26:06Z</time>
      </trkpt>
      <trkpt lat="41.740298" lon="2.950965">
        <ele>87.0</ele>
        <time>2021-08-15T10:26:07Z</time>
      </trkpt>
      <trkpt lat="41.74035" lon="2.950885">
        <ele>87.0</ele>
        <time>2021-08-15T10:26:08Z</time>
      </trkpt>
      <trkpt lat="41.740402" lon="2.950805">
        <ele>87.0</ele>
        <time>2021-08-15T10:26:09Z</time>
      </trkpt>
      <trkpt lat="41.740452" lon="2.950725">
        <ele>87.0</ele>
        <time>2021-08-15T10:26:10Z</time>
      </trkpt>
      <trkpt lat="41.7405" lon="2.950642">
        <ele>87.0</ele>
        <time>2021-08-15T10:26:11Z</time>
      </trkpt>
      <trkpt lat="41.74057" lon="2.950475">
        <ele>87.0</ele>
        <time>2021-08-15T10:26:13Z</time>
      </trkpt>
      <trkpt lat="41.740575" lon="2.950298">
        <ele>86.0</ele>
        <time>2021-08-15T10:26:15Z</time>
      </trkpt>
      <trkpt lat="41.740497" lon="2.95017">
        <ele>85.0</ele>
        <time>2021-08-15T10:26:17Z</time>
      </trkpt>
      <trkpt lat="41.740385" lon="2.95009">
        <ele>85.0</ele>
        <time>2021-08-15T10:26:19Z</time>
      </trkpt>
      <trkpt lat="41.740285" lon="2.950032">
        <ele>84.0</ele>
        <time>2021-08-15T10:26:21Z</time>
      </trkpt>
      <trkpt lat="41.74019" lon="2.949985">
        <ele>85.0</ele>
        <time>2021-08-15T10:26:23Z</time>
      </trkpt>
      <trkpt lat="41.740162" lon="2.949885">
        <ele>85.0</ele>
        <time>2021-08-15T10:26:26Z</time>
      </trkpt>
      <trkpt lat="41.740215" lon="2.949815">
        <ele>85.0</ele>
        <time>2021-08-15T10:26:29Z</time>
      </trkpt>
      <trkpt lat="41.740282" lon="2.949745">
        <ele>85.0</ele>
        <time>2021-08-15T10:26:32Z</time>
      </trkpt>
      <trkpt lat="41.740355" lon="2.949705">
        <ele>85.0</ele>
        <time>2021-08-15T10:26:36Z</time>
      </trkpt>
      <trkpt lat="41.74044" lon="2.9497">
        <ele>84.0</ele>
        <time>2021-08-15T10:26:39Z</time>
      </trkpt>
      <trkpt lat="41.740453" lon="2.94982">
        <ele>84.0</ele>
        <time>2021-08-15T10:26:42Z</time>
      </trkpt>
      <trkpt lat="41.740395" lon="2.949953">
        <ele>82.0</ele>
        <time>2021-08-15T10:26:44Z</time>
      </trkpt>
      <trkpt lat="41.740335" lon="2.950075">
        <ele>81.0</ele>
        <time>2021-08-15T10:26:46Z</time>
      </trkpt>
      <trkpt lat="41.740255" lon="2.95022">
        <ele>81.0</ele>
        <time>2021-08-15T10:26:48Z</time>
      </trkpt>
      <trkpt lat="41.740195" lon="2.95035">
        <ele>81.0</ele>
        <time>2021-08-15T10:26:50Z</time>
      </trkpt>
      <trkpt lat="41.740142" lon="2.950455">
        <ele>81.0</ele>
        <time>2021-08-15T10:26:52Z</time>
      </trkpt>
      <trkpt lat="41.740072" lon="2.950525">
        <ele>80.0</ele>
        <time>2021-08-15T10:26:54Z</time>
      </trkpt>
      <trkpt lat="41.74001" lon="2.950615">
        <ele>79.0</ele>
        <time>2021-08-15T10:26:56Z</time>
      </trkpt>
      <trkpt lat="41.739965" lon="2.95072">
        <ele>78.0</ele>
        <time>2021-08-15T10:26:58Z</time>
      </trkpt>
      <trkpt lat="41.73991" lon="2.950842">
        <ele>78.0</ele>
        <time>2021-08-15T10:27:00Z</time>
      </trkpt>
      <trkpt lat="41.73984" lon="2.950965">
        <ele>78.0</ele>
        <time>2021-08-15T10:27:02Z</time>
      </trkpt>
      <trkpt lat="41.739747" lon="2.951072">
        <ele>78.0</ele>
        <time>2021-08-15T10:27:04Z</time>
      </trkpt>
      <trkpt lat="41.739635" lon="2.95115">
        <ele>77.0</ele>
        <time>2021-08-15T10:27:06Z</time>
      </trkpt>
      <trkpt lat="41.739502" lon="2.951217">
        <ele>76.0</ele>
        <time>2021-08-15T10:27:08Z</time>
      </trkpt>
      <trkpt lat="41.73937" lon="2.95127">
        <ele>75.0</ele>
        <time>2021-08-15T10:27:10Z</time>
      </trkpt>
      <trkpt lat="41.739252" lon="2.951325">
        <ele>74.0</ele>
        <time>2021-08-15T10:27:12Z</time>
      </trkpt>
      <trkpt lat="41.739165" lon="2.95135">
        <ele>74.0</ele>
        <time>2021-08-15T10:27:14Z</time>
      </trkpt>
      <trkpt lat="41.739095" lon="2.951375">
        <ele>73.0</ele>
        <time>2021-08-15T10:27:16Z</time>
      </trkpt>
      <trkpt lat="41.73901" lon="2.951408">
        <ele>73.0</ele>
        <time>2021-08-15T10:27:19Z</time>
      </trkpt>
      <trkpt lat="41.73891" lon="2.951425">
        <ele>72.0</ele>
        <time>2021-08-15T10:27:22Z</time>
      </trkpt>
      <trkpt lat="41.738825" lon="2.95141">
        <ele>72.0</ele>
        <time>2021-08-15T10:27:24Z</time>
      </trkpt>
      <trkpt lat="41.738735" lon="2.951377">
        <ele>71.0</ele>
        <time>2021-08-15T10:27:26Z</time>
      </trkpt>
      <trkpt lat="41.738638" lon="2.95135">
        <ele>71.0</ele>
        <time>2021-08-15T10:27:28Z</time>
      </trkpt>
      <trkpt lat="41.73855" lon="2.951305">
        <ele>71.0</ele>
        <time>2021-08-15T10:27:30Z</time>
      </trkpt>
      <trkpt lat="41.73846" lon="2.95126">
        <ele>71.0</ele>
        <time>2021-08-15T10:27:32Z</time>
      </trkpt>
      <trkpt lat="41.738365" lon="2.951245">
        <ele>71.0</ele>
        <time>2021-08-15T10:27:34Z</time>
      </trkpt>
      <trkpt lat="41.738275" lon="2.95125">
        <ele>70.0</ele>
        <time>2021-08-15T10:27:36Z</time>
      </trkpt>
      <trkpt lat="41.73819" lon="2.95127">
        <ele>69.0</ele>
        <time>2021-08-15T10:27:38Z</time>
      </trkpt>
      <trkpt lat="41.738103" lon="2.951325">
        <ele>68.0</ele>
        <time>2021-08-15T10:27:40Z</time>
      </trkpt>
      <trkpt lat="41.738033" lon="2.9514">
        <ele>67.0</ele>
        <time>2021-08-15T10:27:42Z</time>
      </trkpt>
      <trkpt lat="41.73798" lon="2.9515">
        <ele>66.0</ele>
        <time>2021-08-15T10:27:44Z</time>
      </trkpt>
      <trkpt lat="41.737947" lon="2.9516">
        <ele>66.0</ele>
        <time>2021-08-15T10:27:46Z</time>
      </trkpt>
      <trkpt lat="41.737925" lon="2.95171">
        <ele>66.0</ele>
        <time>2021-08-15T10:27:48Z</time>
      </trkpt>
      <trkpt lat="41.73792" lon="2.951822">
        <ele>66.0</ele>
        <time>2021-08-15T10:27:50Z</time>
      </trkpt>
      <trkpt lat="41.73792" lon="2.95194">
        <ele>66.0</ele>
        <time>2021-08-15T10:27:52Z</time>
      </trkpt>
      <trkpt lat="41.73793" lon="2.952057">
        <ele>65.0</ele>
        <time>2021-08-15T10:27:54Z</time>
      </trkpt>
      <trkpt lat="41.73792" lon="2.952185">
        <ele>65.0</ele>
        <time>2021-08-15T10:27:56Z</time>
      </trkpt>
      <trkpt lat="41.73793" lon="2.952307">
        <ele>65.0</ele>
        <time>2021-08-15T10:27:58Z</time>
      </trkpt>
      <trkpt lat="41.737935" lon="2.95243">
        <ele>64.0</ele>
        <time>2021-08-15T10:28:00Z</time>
      </trkpt>
      <trkpt lat="41.73794" lon="2.952553">
        <ele>64.0</ele>
        <time>2021-08-15T10:28:02Z</time>
      </trkpt>
      <trkpt lat="41.73794" lon="2.952685">
        <ele>63.0</ele>
        <time>2021-08-15T10:28:04Z</time>
      </trkpt>
      <trkpt lat="41.737945" lon="2.952825">
        <ele>62.0</ele>
        <time>2021-08-15T10:28:06Z</time>
      </trkpt>
      <trkpt lat="41.737947" lon="2.952982">
        <ele>62.0</ele>
        <time>2021-08-15T10:28:08Z</time>
      </trkpt>
      <trkpt lat="41.737942" lon="2.953145">
        <ele>61.0</ele>
        <time>2021-08-15T10:28:10Z</time>
      </trkpt>
      <trkpt lat="41.73793" lon="2.9533">
        <ele>60.0</ele>
        <time>2021-08-15T10:28:12Z</time>
      </trkpt>
      <trkpt lat="41.73791" lon="2.953455">
        <ele>59.0</ele>
        <time>2021-08-15T10:28:14Z</time>
      </trkpt>
      <trkpt lat="41.737885" lon="2.953602">
        <ele>58.0</ele>
        <time>2021-08-15T10:28:16Z</time>
      </trkpt>
      <trkpt lat="41.737842" lon="2.95375">
        <ele>58.0</ele>
        <time>2021-08-15T10:28:18Z</time>
      </trkpt>
      <trkpt lat="41.73781" lon="2.953875">
        <ele>58.0</ele>
        <time>2021-08-15T10:28:20Z</time>
      </trkpt>
      <trkpt lat="41.73777" lon="2.95398">
        <ele>57.0</ele>
        <time>2021-08-15T10:28:23Z</time>
      </trkpt>
      <trkpt lat="41.73773" lon="2.954035">
        <ele>57.0</ele>
        <time>2021-08-15T10:28:30Z</time>
      </trkpt>
      <trkpt lat="41.737735" lon="2.954042">
        <ele>56.0</ele>
        <time>2021-08-15T10:28:33Z</time>
      </trkpt>
      <trkpt lat="41.737702" lon="2.95406">
        <ele>56.0</ele>
        <time>2021-08-15T10:28:41Z</time>
      </trkpt>
      <trkpt lat="41.737685" lon="2.954062">
        <ele>56.0</ele>
        <time>2021-08-15T10:28:48Z</time>
      </trkpt>
      <trkpt lat="41.737685" lon="2.954062">
        <ele>56.0</ele>
        <time>2021-08-15T10:28:50Z</time>
      </trkpt>
      <trkpt lat="41.737625" lon="2.954045">
        <ele>55.0</ele>
        <time>2021-08-15T10:29:57Z</time>
      </trkpt>
      <trkpt lat="41.737605" lon="2.954025">
        <ele>54.0</ele>
        <time>2021-08-15T10:30:04Z</time>
      </trkpt>
      <trkpt lat="41.73761" lon="2.954027">
        <ele>55.0</ele>
        <time>2021-08-15T10:30:10Z</time>
      </trkpt>
      <trkpt lat="41.737665" lon="2.954045">
        <ele>57.0</ele>
        <time>2021-08-15T10:30:18Z</time>
      </trkpt>
      <trkpt lat="41.7377" lon="2.954035">
        <ele>57.0</ele>
        <time>2021-08-15T10:30:25Z</time>
      </trkpt>
      <trkpt lat="41.737722" lon="2.954045">
        <ele>58.0</ele>
        <time>2021-08-15T10:30:32Z</time>
      </trkpt>
      <trkpt lat="41.737745" lon="2.95402">
        <ele>57.0</ele>
        <time>2021-08-15T10:30:39Z</time>
      </trkpt>
      <trkpt lat="41.737792" lon="2.953983">
        <ele>56.0</ele>
        <time>2021-08-15T10:30:46Z</time>
      </trkpt>
      <trkpt lat="41.737807" lon="2.954015">
        <ele>56.0</ele>
        <time>2021-08-15T10:30:53Z</time>
      </trkpt>
      <trkpt lat="41.737805" lon="2.954035">
        <ele>55.0</ele>
        <time>2021-08-15T10:31:00Z</time>
      </trkpt>
      <trkpt lat="41.73778" lon="2.954052">
        <ele>55.0</ele>
        <time>2021-08-15T10:31:07Z</time>
      </trkpt>
      <trkpt lat="41.737765" lon="2.95409">
        <ele>55.0</ele>
        <time>2021-08-15T10:31:14Z</time>
      </trkpt>
      <trkpt lat="41.737775" lon="2.954095">
        <ele>53.0</ele>
        <time>2021-08-15T10:31:21Z</time>
      </trkpt>
      <trkpt lat="41.73777" lon="2.954092">
        <ele>54.0</ele>
        <time>2021-08-15T10:31:27Z</time>
      </trkpt>
      <trkpt lat="41.737772" lon="2.954052">
        <ele>54.0</ele>
        <time>2021-08-15T10:32:03Z</time>
      </trkpt>
      <trkpt lat="41.737772" lon="2.954012">
        <ele>54.0</ele>
        <time>2021-08-15T10:32:10Z</time>
      </trkpt>
      <trkpt lat="41.737745" lon="2.954002">
        <ele>53.0</ele>
        <time>2021-08-15T10:32:17Z</time>
      </trkpt>
      <trkpt lat="41.7377" lon="2.954027">
        <ele>53.0</ele>
        <time>2021-08-15T10:32:24Z</time>
      </trkpt>
      <trkpt lat="41.73764" lon="2.954045">
        <ele>51.0</ele>
        <time>2021-08-15T10:32:31Z</time>
      </trkpt>
      <trkpt lat="41.7376" lon="2.954032">
        <ele>53.0</ele>
        <time>2021-08-15T10:32:38Z</time>
      </trkpt>
      <trkpt lat="41.73758" lon="2.95403">
        <ele>56.0</ele>
        <time>2021-08-15T10:32:45Z</time>
      </trkpt>
      <trkpt lat="41.73758" lon="2.95403">
        <ele>56.0</ele>
        <time>2021-08-15T10:32:46Z</time>
      </trkpt>
      <trkpt lat="41.737547" lon="2.954035">
        <ele>56.0</ele>
        <time>2021-08-15T10:32:59Z</time>
      </trkpt>
      <trkpt lat="41.737547" lon="2.954035">
        <ele>56.0</ele>
        <time>2021-08-15T10:33:00Z</time>
      </trkpt>
      <trkpt lat="41.737555" lon="2.95404">
        <ele>55.0</ele>
        <time>2021-08-15T10:33:15Z</time>
      </trkpt>
      <trkpt lat="41.737555" lon="2.95404">
        <ele>55.0</ele>
        <time>2021-08-15T10:33:16Z</time>
      </trkpt>
      <trkpt lat="41.737625" lon="2.95405">
        <ele>54.0</ele>
        <time>2021-08-15T10:33:25Z</time>
      </trkpt>
      <trkpt lat="41.73769" lon="2.954025">
        <ele>54.0</ele>
        <time>2021-08-15T10:33:32Z</time>
      </trkpt>
      <trkpt lat="41.737727" lon="2.953962">
        <ele>54.0</ele>
        <time>2021-08-15T10:33:39Z</time>
      </trkpt>
      <trkpt lat="41.737755" lon="2.953862">
        <ele>55.0</ele>
        <time>2021-08-15T10:33:45Z</time>
      </trkpt>
      <trkpt lat="41.737792" lon="2.95376">
        <ele>58.0</ele>
        <time>2021-08-15T10:33:51Z</time>
      </trkpt>
      <trkpt lat="41.73782" lon="2.953677">
        <ele>58.0</ele>
        <time>2021-08-15T10:33:58Z</time>
      </trkpt>
      <trkpt lat="41.737845" lon="2.95358">
        <ele>61.0</ele>
        <time>2021-08-15T10:34:05Z</time>
      </trkpt>
      <trkpt lat="41.73785" lon="2.9535">
        <ele>62.0</ele>
        <time>2021-08-15T10:34:12Z</time>
      </trkpt>
      <trkpt lat="41.737855" lon="2.953443">
        <ele>63.0</ele>
        <time>2021-08-15T10:34:19Z</time>
      </trkpt>
      <trkpt lat="41.737885" lon="2.95338">
        <ele>62.0</ele>
        <time>2021-08-15T10:34:26Z</time>
      </trkpt>
      <trkpt lat="41.73789" lon="2.953337">
        <ele>61.0</ele>
        <time>2021-08-15T10:34:33Z</time>
      </trkpt>
      <trkpt lat="41.73789" lon="2.953337">
        <ele>61.0</ele>
        <time>2021-08-15T10:34:36Z</time>
      </trkpt>
      <trkpt lat="41.737877" lon="2.953305">
        <ele>62.0</ele>
        <time>2021-08-15T10:34:45Z</time>
      </trkpt>
      <trkpt lat="41.737877" lon="2.953305">
        <ele>62.0</ele>
        <time>2021-08-15T10:34:47Z</time>
      </trkpt>
      <trkpt lat="41.737877" lon="2.95329">
        <ele>62.0</ele>
        <time>2021-08-15T10:34:55Z</time>
      </trkpt>
      <trkpt lat="41.737877" lon="2.95329">
        <ele>62.0</ele>
        <time>2021-08-15T10:34:56Z</time>
      </trkpt>
      <trkpt lat="41.73789" lon="2.953332">
        <ele>59.0</ele>
        <time>2021-08-15T10:35:09Z</time>
      </trkpt>
      <trkpt lat="41.73787" lon="2.953417">
        <ele>57.0</ele>
        <time>2021-08-15T10:35:16Z</time>
      </trkpt>
      <trkpt lat="41.737892" lon="2.953505">
        <ele>56.0</ele>
        <time>2021-08-15T10:35:23Z</time>
      </trkpt>
      <trkpt lat="41.737885" lon="2.953607">
        <ele>57.0</ele>
        <time>2021-08-15T10:35:29Z</time>
      </trkpt>
      <trkpt lat="41.73789" lon="2.953707">
        <ele>58.0</ele>
        <time>2021-08-15T10:35:36Z</time>
      </trkpt>
      <trkpt lat="41.73783" lon="2.953782">
        <ele>58.0</ele>
        <time>2021-08-15T10:35:42Z</time>
      </trkpt>
      <trkpt lat="41.737805" lon="2.953885">
        <ele>59.0</ele>
        <time>2021-08-15T10:35:48Z</time>
      </trkpt>
      <trkpt lat="41.737755" lon="2.953967">
        <ele>60.0</ele>
        <time>2021-08-15T10:35:54Z</time>
      </trkpt>
      <trkpt lat="41.737695" lon="2.95402">
        <ele>57.0</ele>
        <time>2021-08-15T10:36:01Z</time>
      </trkpt>
      <trkpt lat="41.737642" lon="2.95409">
        <ele>57.0</ele>
        <time>2021-08-15T10:36:07Z</time>
      </trkpt>
      <trkpt lat="41.737615" lon="2.954187">
        <ele>56.0</ele>
        <time>2021-08-15T10:36:14Z</time>
      </trkpt>
      <trkpt lat="41.73756" lon="2.954237">
        <ele>56.0</ele>
        <time>2021-08-15T10:36:21Z</time>
      </trkpt>
      <trkpt lat="41.737505" lon="2.95425">
        <ele>58.0</ele>
        <time>2021-08-15T10:36:28Z</time>
      </trkpt>
      <trkpt lat="41.737493" lon="2.95418">
        <ele>57.0</ele>
        <time>2021-08-15T10:36:35Z</time>
      </trkpt>
      <trkpt lat="41.737517" lon="2.954105">
        <ele>56.0</ele>
        <time>2021-08-15T10:36:42Z</time>
      </trkpt>
      <trkpt lat="41.737505" lon="2.954015">
        <ele>55.0</ele>
        <time>2021-08-15T10:36:49Z</time>
      </trkpt>
      <trkpt lat="41.737505" lon="2.95394">
        <ele>55.0</ele>
        <time>2021-08-15T10:36:56Z</time>
      </trkpt>
      <trkpt lat="41.718557" lon="2.928725">
        <ele>49.0</ele>
        <time>2021-08-15T12:31:53Z</time>
      </trkpt>
      <trkpt lat="41.718557" lon="2.928725">
        <ele>49.0</ele>
        <time>2021-08-15T12:32:03Z</time>
      </trkpt>
      <trkpt lat="41.71853" lon="2.928635">
        <ele>49.0</ele>
        <time>2021-08-15T12:32:08Z</time>
      </trkpt>
      <trkpt lat="41.718545" lon="2.928533">
        <ele>58.0</ele>
        <time>2021-08-15T12:32:13Z</time>
      </trkpt>
      <trkpt lat="41.718527" lon="2.928435">
        <ele>63.0</ele>
        <time>2021-08-15T12:32:18Z</time>
      </trkpt>
      <trkpt lat="41.71851" lon="2.92833">
        <ele>65.0</ele>
        <time>2021-08-15T12:32:24Z</time>
      </trkpt>
      <trkpt lat="41.718485" lon="2.92824">
        <ele>67.0</ele>
        <time>2021-08-15T12:32:30Z</time>
      </trkpt>
      <trkpt lat="41.718435" lon="2.928157">
        <ele>67.0</ele>
        <time>2021-08-15T12:32:36Z</time>
      </trkpt>
      <trkpt lat="41.71839" lon="2.928085">
        <ele>68.0</ele>
        <time>2021-08-15T12:32:41Z</time>
      </trkpt>
      <trkpt lat="41.718333" lon="2.928005">
        <ele>67.0</ele>
        <time>2021-08-15T12:32:46Z</time>
      </trkpt>
      <trkpt lat="41.718267" lon="2.927953">
        <ele>68.0</ele>
        <time>2021-08-15T12:32:52Z</time>
      </trkpt>
      <trkpt lat="41.718215" lon="2.927885">
        <ele>69.0</ele>
        <time>2021-08-15T12:32:58Z</time>
      </trkpt>
      <trkpt lat="41.718165" lon="2.927805">
        <ele>69.0</ele>
        <time>2021-08-15T12:33:03Z</time>
      </trkpt>
      <trkpt lat="41.718115" lon="2.92772">
        <ele>70.0</ele>
        <time>2021-08-15T12:33:09Z</time>
      </trkpt>
      <trkpt lat="41.71805" lon="2.92765">
        <ele>70.0</ele>
        <time>2021-08-15T12:33:15Z</time>
      </trkpt>
      <trkpt lat="41.718027" lon="2.927557">
        <ele>70.0</ele>
        <time>2021-08-15T12:33:21Z</time>
      </trkpt>
      <trkpt lat="41.718005" lon="2.927463">
        <ele>71.0</ele>
        <time>2021-08-15T12:33:27Z</time>
      </trkpt>
      <trkpt lat="41.71795" lon="2.927385">
        <ele>73.0</ele>
        <time>2021-08-15T12:33:33Z</time>
      </trkpt>
      <trkpt lat="41.71792" lon="2.92729">
        <ele>73.0</ele>
        <time>2021-08-15T12:33:39Z</time>
      </trkpt>
      <trkpt lat="41.717902" lon="2.92718">
        <ele>74.0</ele>
        <time>2021-08-15T12:33:46Z</time>
      </trkpt>
      <trkpt lat="41.71792" lon="2.927077">
        <ele>78.0</ele>
        <time>2021-08-15T12:33:52Z</time>
      </trkpt>
      <trkpt lat="41.717972" lon="2.927007">
        <ele>81.0</ele>
        <time>2021-08-15T12:33:58Z</time>
      </trkpt>
      <trkpt lat="41.71804" lon="2.926962">
        <ele>84.0</ele>
        <time>2021-08-15T12:34:04Z</time>
      </trkpt>
      <trkpt lat="41.718108" lon="2.926903">
        <ele>87.0</ele>
        <time>2021-08-15T12:34:11Z</time>
      </trkpt>
      <trkpt lat="41.718173" lon="2.926865">
        <ele>90.0</ele>
        <time>2021-08-15T12:34:17Z</time>
      </trkpt>
      <trkpt lat="41.718237" lon="2.926807">
        <ele>93.0</ele>
        <time>2021-08-15T12:34:23Z</time>
      </trkpt>
      <trkpt lat="41.718295" lon="2.926755">
        <ele>94.0</ele>
        <time>2021-08-15T12:34:31Z</time>
      </trkpt>
      <trkpt lat="41.718292" lon="2.92668">
        <ele>95.0</ele>
        <time>2021-08-15T12:34:38Z</time>
      </trkpt>
      <trkpt lat="41.718227" lon="2.926628">
        <ele>96.0</ele>
        <time>2021-08-15T12:34:44Z</time>
      </trkpt>
      <trkpt lat="41.71815" lon="2.92658">
        <ele>98.0</ele>
        <time>2021-08-15T12:34:50Z</time>
      </trkpt>
      <trkpt lat="41.71808" lon="2.926545">
        <ele>100.0</ele>
        <time>2021-08-15T12:34:55Z</time>
      </trkpt>
      <trkpt lat="41.717995" lon="2.92653">
        <ele>101.0</ele>
        <time>2021-08-15T12:35:00Z</time>
      </trkpt>
      <trkpt lat="41.71792" lon="2.92651">
        <ele>102.0</ele>
        <time>2021-08-15T12:35:06Z</time>
      </trkpt>
      <trkpt lat="41.717835" lon="2.926505">
        <ele>103.0</ele>
        <time>2021-08-15T12:35:13Z</time>
      </trkpt>
      <trkpt lat="41.71776" lon="2.926485">
        <ele>104.0</ele>
        <time>2021-08-15T12:35:19Z</time>
      </trkpt>
      <trkpt lat="41.71769" lon="2.92646">
        <ele>106.0</ele>
        <time>2021-08-15T12:35:25Z</time>
      </trkpt>
      <trkpt lat="41.71761" lon="2.926452">
        <ele>107.0</ele>
        <time>2021-08-15T12:35:31Z</time>
      </trkpt>
      <trkpt lat="41.71753" lon="2.926427">
        <ele>108.0</ele>
        <time>2021-08-15T12:35:37Z</time>
      </trkpt>
      <trkpt lat="41.717452" lon="2.9264">
        <ele>109.0</ele>
        <time>2021-08-15T12:35:42Z</time>
      </trkpt>
      <trkpt lat="41.71738" lon="2.926385">
        <ele>110.0</ele>
        <time>2021-08-15T12:35:47Z</time>
      </trkpt>
      <trkpt lat="41.717307" lon="2.926355">
        <ele>112.0</ele>
        <time>2021-08-15T12:35:53Z</time>
      </trkpt>
      <trkpt lat="41.717235" lon="2.92633">
        <ele>113.0</ele>
        <time>2021-08-15T12:35:59Z</time>
      </trkpt>
      <trkpt lat="41.717155" lon="2.92632">
        <ele>114.0</ele>
        <time>2021-08-15T12:36:05Z</time>
      </trkpt>
      <trkpt lat="41.717085" lon="2.926285">
        <ele>116.0</ele>
        <time>2021-08-15T12:36:11Z</time>
      </trkpt>
      <trkpt lat="41.71701" lon="2.926278">
        <ele>117.0</ele>
        <time>2021-08-15T12:36:17Z</time>
      </trkpt>
      <trkpt lat="41.71694" lon="2.926267">
        <ele>119.0</ele>
        <time>2021-08-15T12:36:24Z</time>
      </trkpt>
      <trkpt lat="41.71686" lon="2.926247">
        <ele>120.0</ele>
        <time>2021-08-15T12:36:30Z</time>
      </trkpt>
      <trkpt lat="41.71678" lon="2.926248">
        <ele>122.0</ele>
        <time>2021-08-15T12:36:35Z</time>
      </trkpt>
      <trkpt lat="41.7167" lon="2.926272">
        <ele>125.0</ele>
        <time>2021-08-15T12:36:42Z</time>
      </trkpt>
      <trkpt lat="41.716635" lon="2.926295">
        <ele>127.0</ele>
        <time>2021-08-15T12:36:49Z</time>
      </trkpt>
      <trkpt lat="41.71656" lon="2.926305">
        <ele>129.0</ele>
        <time>2021-08-15T12:36:56Z</time>
      </trkpt>
      <trkpt lat="41.716492" lon="2.926363">
        <ele>130.0</ele>
        <time>2021-08-15T12:37:03Z</time>
      </trkpt>
      <trkpt lat="41.716415" lon="2.9264">
        <ele>132.0</ele>
        <time>2021-08-15T12:37:09Z</time>
      </trkpt>
      <trkpt lat="41.716345" lon="2.926422">
        <ele>133.0</ele>
        <time>2021-08-15T12:37:16Z</time>
      </trkpt>
      <trkpt lat="41.716272" lon="2.926465">
        <ele>134.0</ele>
        <time>2021-08-15T12:37:23Z</time>
      </trkpt>
      <trkpt lat="41.71619" lon="2.92645">
        <ele>135.0</ele>
        <time>2021-08-15T12:37:30Z</time>
      </trkpt>
      <trkpt lat="41.716115" lon="2.926465">
        <ele>136.0</ele>
        <time>2021-08-15T12:37:35Z</time>
      </trkpt>
      <trkpt lat="41.716035" lon="2.926475">
        <ele>136.0</ele>
        <time>2021-08-15T12:37:42Z</time>
      </trkpt>
      <trkpt lat="41.71595" lon="2.926455">
        <ele>137.0</ele>
        <time>2021-08-15T12:37:48Z</time>
      </trkpt>
      <trkpt lat="41.71587" lon="2.926427">
        <ele>139.0</ele>
        <time>2021-08-15T12:37:54Z</time>
      </trkpt>
      <trkpt lat="41.715787" lon="2.926425">
        <ele>139.0</ele>
        <time>2021-08-15T12:38:00Z</time>
      </trkpt>
      <trkpt lat="41.715705" lon="2.926405">
        <ele>139.0</ele>
        <time>2021-08-15T12:38:06Z</time>
      </trkpt>
      <trkpt lat="41.715622" lon="2.926387">
        <ele>141.0</ele>
        <time>2021-08-15T12:38:12Z</time>
      </trkpt>
      <trkpt lat="41.715545" lon="2.92638">
        <ele>142.0</ele>
        <time>2021-08-15T12:38:18Z</time>
      </trkpt>
      <trkpt lat="41.71547" lon="2.92637">
        <ele>144.0</ele>
        <time>2021-08-15T12:38:24Z</time>
      </trkpt>
      <trkpt lat="41.71539" lon="2.92635">
        <ele>146.0</ele>
        <time>2021-08-15T12:38:30Z</time>
      </trkpt>
      <trkpt lat="41.715315" lon="2.9263">
        <ele>146.0</ele>
        <time>2021-08-15T12:38:37Z</time>
      </trkpt>
      <trkpt lat="41.715245" lon="2.92624">
        <ele>146.0</ele>
        <time>2021-08-15T12:38:39Z</time>
      </trkpt>
      <trkpt lat="41.715185" lon="2.92617">
        <ele>146.0</ele>
        <time>2021-08-15T12:38:42Z</time>
      </trkpt>
      <trkpt lat="41.715115" lon="2.92607">
        <ele>146.0</ele>
        <time>2021-08-15T12:38:43Z</time>
      </trkpt>
      <trkpt lat="41.715045" lon="2.925942">
        <ele>145.0</ele>
        <time>2021-08-15T12:38:45Z</time>
      </trkpt>
      <trkpt lat="41.71498" lon="2.925815">
        <ele>143.0</ele>
        <time>2021-08-15T12:38:47Z</time>
      </trkpt>
      <trkpt lat="41.71496" lon="2.925675">
        <ele>143.0</ele>
        <time>2021-08-15T12:38:50Z</time>
      </trkpt>
      <trkpt lat="41.71499" lon="2.925548">
        <ele>142.0</ele>
        <time>2021-08-15T12:38:52Z</time>
      </trkpt>
      <trkpt lat="41.71504" lon="2.925457">
        <ele>142.0</ele>
        <time>2021-08-15T12:38:54Z</time>
      </trkpt>
      <trkpt lat="41.71509" lon="2.925385">
        <ele>142.0</ele>
        <time>2021-08-15T12:38:55Z</time>
      </trkpt>
      <trkpt lat="41.71516" lon="2.92531">
        <ele>142.0</ele>
        <time>2021-08-15T12:39:00Z</time>
      </trkpt>
      <trkpt lat="41.71522" lon="2.925245">
        <ele>143.0</ele>
        <time>2021-08-15T12:39:05Z</time>
      </trkpt>
      <trkpt lat="41.715275" lon="2.925173">
        <ele>143.0</ele>
        <time>2021-08-15T12:39:10Z</time>
      </trkpt>
      <trkpt lat="41.715327" lon="2.925103">
        <ele>143.0</ele>
        <time>2021-08-15T12:39:14Z</time>
      </trkpt>
      <trkpt lat="41.715387" lon="2.925023">
        <ele>144.0</ele>
        <time>2021-08-15T12:39:21Z</time>
      </trkpt>
      <trkpt lat="41.715425" lon="2.924935">
        <ele>145.0</ele>
        <time>2021-08-15T12:39:27Z</time>
      </trkpt>
      <trkpt lat="41.715455" lon="2.924847">
        <ele>146.0</ele>
        <time>2021-08-15T12:39:33Z</time>
      </trkpt>
      <trkpt lat="41.715487" lon="2.92476">
        <ele>147.0</ele>
        <time>2021-08-15T12:39:38Z</time>
      </trkpt>
      <trkpt lat="41.71549" lon="2.924655">
        <ele>148.0</ele>
        <time>2021-08-15T12:39:44Z</time>
      </trkpt>
      <trkpt lat="41.715482" lon="2.924553">
        <ele>149.0</ele>
        <time>2021-08-15T12:39:50Z</time>
      </trkpt>
      <trkpt lat="41.715447" lon="2.924457">
        <ele>151.0</ele>
        <time>2021-08-15T12:39:56Z</time>
      </trkpt>
      <trkpt lat="41.715415" lon="2.92435">
        <ele>152.0</ele>
        <time>2021-08-15T12:40:03Z</time>
      </trkpt>
      <trkpt lat="41.715395" lon="2.924245">
        <ele>152.0</ele>
        <time>2021-08-15T12:40:09Z</time>
      </trkpt>
      <trkpt lat="41.715385" lon="2.92414">
        <ele>153.0</ele>
        <time>2021-08-15T12:40:15Z</time>
      </trkpt>
      <trkpt lat="41.715405" lon="2.923997">
        <ele>152.0</ele>
        <time>2021-08-15T12:40:18Z</time>
      </trkpt>
      <trkpt lat="41.71543" lon="2.92387">
        <ele>151.0</ele>
        <time>2021-08-15T12:40:20Z</time>
      </trkpt>
      <trkpt lat="41.715475" lon="2.923752">
        <ele>151.0</ele>
        <time>2021-08-15T12:40:22Z</time>
      </trkpt>
      <trkpt lat="41.715537" lon="2.92364">
        <ele>151.0</ele>
        <time>2021-08-15T12:40:24Z</time>
      </trkpt>
      <trkpt lat="41.715635" lon="2.923535">
        <ele>150.0</ele>
        <time>2021-08-15T12:40:26Z</time>
      </trkpt>
      <trkpt lat="41.71575" lon="2.923447">
        <ele>150.0</ele>
        <time>2021-08-15T12:40:28Z</time>
      </trkpt>
      <trkpt lat="41.71586" lon="2.92335">
        <ele>149.0</ele>
        <time>2021-08-15T12:40:30Z</time>
      </trkpt>
      <trkpt lat="41.715975" lon="2.923255">
        <ele>148.0</ele>
        <time>2021-08-15T12:40:32Z</time>
      </trkpt>
      <trkpt lat="41.716067" lon="2.923197">
        <ele>148.0</ele>
        <time>2021-08-15T12:40:34Z</time>
      </trkpt>
      <trkpt lat="41.716155" lon="2.923175">
        <ele>149.0</ele>
        <time>2021-08-15T12:40:36Z</time>
      </trkpt>
      <trkpt lat="41.716242" lon="2.923228">
        <ele>149.0</ele>
        <time>2021-08-15T12:40:39Z</time>
      </trkpt>
      <trkpt lat="41.71632" lon="2.923277">
        <ele>149.0</ele>
        <time>2021-08-15T12:40:42Z</time>
      </trkpt>
      <trkpt lat="41.716387" lon="2.92332">
        <ele>149.0</ele>
        <time>2021-08-15T12:40:45Z</time>
      </trkpt>
      <trkpt lat="41.716475" lon="2.923312">
        <ele>150.0</ele>
        <time>2021-08-15T12:40:48Z</time>
      </trkpt>
      <trkpt lat="41.716552" lon="2.923265">
        <ele>151.0</ele>
        <time>2021-08-15T12:40:53Z</time>
      </trkpt>
      <trkpt lat="41.716625" lon="2.923235">
        <ele>151.0</ele>
        <time>2021-08-15T12:40:57Z</time>
      </trkpt>
      <trkpt lat="41.716697" lon="2.923175">
        <ele>151.0</ele>
        <time>2021-08-15T12:41:01Z</time>
      </trkpt>
      <trkpt lat="41.716765" lon="2.923133">
        <ele>152.0</ele>
        <time>2021-08-15T12:41:04Z</time>
      </trkpt>
      <trkpt lat="41.71685" lon="2.923075">
        <ele>152.0</ele>
        <time>2021-08-15T12:41:08Z</time>
      </trkpt>
      <trkpt lat="41.716935" lon="2.923015">
        <ele>152.0</ele>
        <time>2021-08-15T12:41:12Z</time>
      </trkpt>
      <trkpt lat="41.717007" lon="2.922943">
        <ele>153.0</ele>
        <time>2021-08-15T12:41:16Z</time>
      </trkpt>
      <trkpt lat="41.717045" lon="2.922842">
        <ele>154.0</ele>
        <time>2021-08-15T12:41:20Z</time>
      </trkpt>
      <trkpt lat="41.71706" lon="2.92274">
        <ele>155.0</ele>
        <time>2021-08-15T12:41:24Z</time>
      </trkpt>
      <trkpt lat="41.717015" lon="2.92267">
        <ele>155.0</ele>
        <time>2021-08-15T12:41:31Z</time>
      </trkpt>
      <trkpt lat="41.71696" lon="2.922567">
        <ele>155.0</ele>
        <time>2021-08-15T12:41:33Z</time>
      </trkpt>
      <trkpt lat="41.716897" lon="2.922485">
        <ele>155.0</ele>
        <time>2021-08-15T12:41:36Z</time>
      </trkpt>
      <trkpt lat="41.71684" lon="2.922392">
        <ele>155.0</ele>
        <time>2021-08-15T12:41:39Z</time>
      </trkpt>
      <trkpt lat="41.716782" lon="2.922307">
        <ele>155.0</ele>
        <time>2021-08-15T12:41:43Z</time>
      </trkpt>
      <trkpt lat="41.716725" lon="2.922195">
        <ele>154.0</ele>
        <time>2021-08-15T12:41:46Z</time>
      </trkpt>
      <trkpt lat="41.71667" lon="2.9221">
        <ele>154.0</ele>
        <time>2021-08-15T12:41:48Z</time>
      </trkpt>
      <trkpt lat="41.71663" lon="2.92199">
        <ele>153.0</ele>
        <time>2021-08-15T12:41:50Z</time>
      </trkpt>
      <trkpt lat="41.716588" lon="2.921905">
        <ele>153.0</ele>
        <time>2021-08-15T12:41:52Z</time>
      </trkpt>
      <trkpt lat="41.716567" lon="2.921798">
        <ele>153.0</ele>
        <time>2021-08-15T12:41:57Z</time>
      </trkpt>
      <trkpt lat="41.716537" lon="2.92171">
        <ele>153.0</ele>
        <time>2021-08-15T12:42:01Z</time>
      </trkpt>
      <trkpt lat="41.7165" lon="2.921607">
        <ele>153.0</ele>
        <time>2021-08-15T12:42:06Z</time>
      </trkpt>
      <trkpt lat="41.716465" lon="2.921513">
        <ele>154.0</ele>
        <time>2021-08-15T12:42:11Z</time>
      </trkpt>
      <trkpt lat="41.71644" lon="2.921415">
        <ele>154.0</ele>
        <time>2021-08-15T12:42:16Z</time>
      </trkpt>
      <trkpt lat="41.716417" lon="2.921305">
        <ele>154.0</ele>
        <time>2021-08-15T12:42:21Z</time>
      </trkpt>
      <trkpt lat="41.71642" lon="2.9212">
        <ele>154.0</ele>
        <time>2021-08-15T12:42:27Z</time>
      </trkpt>
      <trkpt lat="41.716415" lon="2.921177">
        <ele>154.0</ele>
        <time>2021-08-15T12:42:34Z</time>
      </trkpt>
      <trkpt lat="41.71644" lon="2.92116">
        <ele>152.0</ele>
        <time>2021-08-15T12:42:41Z</time>
      </trkpt>
      <trkpt lat="41.71646" lon="2.92116">
        <ele>152.0</ele>
        <time>2021-08-15T12:42:48Z</time>
      </trkpt>
      <trkpt lat="41.716495" lon="2.92116">
        <ele>152.0</ele>
        <time>2021-08-15T12:42:55Z</time>
      </trkpt>
      <trkpt lat="41.716495" lon="2.921143">
        <ele>154.0</ele>
        <time>2021-08-15T12:43:03Z</time>
      </trkpt>
      <trkpt lat="41.71655" lon="2.921142">
        <ele>155.0</ele>
        <time>2021-08-15T12:43:09Z</time>
      </trkpt>
      <trkpt lat="41.716605" lon="2.92117">
        <ele>156.0</ele>
        <time>2021-08-15T12:43:16Z</time>
      </trkpt>
      <trkpt lat="41.71665" lon="2.921195">
        <ele>156.0</ele>
        <time>2021-08-15T12:43:24Z</time>
      </trkpt>
      <trkpt lat="41.716695" lon="2.921217">
        <ele>155.0</ele>
        <time>2021-08-15T12:43:30Z</time>
      </trkpt>
      <trkpt lat="41.716727" lon="2.92127">
        <ele>154.0</ele>
        <time>2021-08-15T12:43:38Z</time>
      </trkpt>
      <trkpt lat="41.716755" lon="2.921285">
        <ele>153.0</ele>
        <time>2021-08-15T12:43:44Z</time>
      </trkpt>
      <trkpt lat="41.716775" lon="2.921205">
        <ele>157.0</ele>
        <time>2021-08-15T12:43:51Z</time>
      </trkpt>
      <trkpt lat="41.716795" lon="2.921115">
        <ele>160.0</ele>
        <time>2021-08-15T12:43:58Z</time>
      </trkpt>
      <trkpt lat="41.716845" lon="2.921042">
        <ele>161.0</ele>
        <time>2021-08-15T12:44:05Z</time>
      </trkpt>
      <trkpt lat="41.716865" lon="2.920995">
        <ele>162.0</ele>
        <time>2021-08-15T12:44:12Z</time>
      </trkpt>
      <trkpt lat="41.716862" lon="2.921">
        <ele>162.0</ele>
        <time>2021-08-15T12:44:17Z</time>
      </trkpt>
      <trkpt lat="41.716905" lon="2.920922">
        <ele>162.0</ele>
        <time>2021-08-15T12:44:24Z</time>
      </trkpt>
      <trkpt lat="41.716972" lon="2.92082">
        <ele>162.0</ele>
        <time>2021-08-15T12:44:29Z</time>
      </trkpt>
      <trkpt lat="41.717052" lon="2.92073">
        <ele>163.0</ele>
        <time>2021-08-15T12:44:32Z</time>
      </trkpt>
      <trkpt lat="41.71714" lon="2.92064">
        <ele>163.0</ele>
        <time>2021-08-15T12:44:34Z</time>
      </trkpt>
      <trkpt lat="41.717185" lon="2.920518">
        <ele>164.0</ele>
        <time>2021-08-15T12:44:37Z</time>
      </trkpt>
      <trkpt lat="41.717193" lon="2.920412">
        <ele>164.0</ele>
        <time>2021-08-15T12:44:40Z</time>
      </trkpt>
      <trkpt lat="41.717185" lon="2.920305">
        <ele>166.0</ele>
        <time>2021-08-15T12:44:43Z</time>
      </trkpt>
      <trkpt lat="41.71718" lon="2.920195">
        <ele>166.0</ele>
        <time>2021-08-15T12:44:46Z</time>
      </trkpt>
      <trkpt lat="41.717165" lon="2.920095">
        <ele>167.0</ele>
        <time>2021-08-15T12:44:49Z</time>
      </trkpt>
      <trkpt lat="41.717145" lon="2.91997">
        <ele>167.0</ele>
        <time>2021-08-15T12:44:53Z</time>
      </trkpt>
      <trkpt lat="41.717122" lon="2.91986">
        <ele>167.0</ele>
        <time>2021-08-15T12:44:56Z</time>
      </trkpt>
      <trkpt lat="41.7171" lon="2.91973">
        <ele>168.0</ele>
        <time>2021-08-15T12:44:59Z</time>
      </trkpt>
      <trkpt lat="41.717085" lon="2.919595">
        <ele>167.0</ele>
        <time>2021-08-15T12:45:02Z</time>
      </trkpt>
      <trkpt lat="41.717075" lon="2.919467">
        <ele>167.0</ele>
        <time>2021-08-15T12:45:05Z</time>
      </trkpt>
      <trkpt lat="41.71706" lon="2.919335">
        <ele>167.0</ele>
        <time>2021-08-15T12:45:08Z</time>
      </trkpt>
      <trkpt lat="41.717032" lon="2.919205">
        <ele>167.0</ele>
        <time>2021-08-15T12:45:11Z</time>
      </trkpt>
      <trkpt lat="41.716997" lon="2.919072">
        <ele>166.0</ele>
        <time>2021-08-15T12:45:14Z</time>
      </trkpt>
      <trkpt lat="41.71697" lon="2.91895">
        <ele>166.0</ele>
        <time>2021-08-15T12:45:17Z</time>
      </trkpt>
      <trkpt lat="41.716945" lon="2.918832">
        <ele>166.0</ele>
        <time>2021-08-15T12:45:21Z</time>
      </trkpt>
      <trkpt lat="41.71694" lon="2.918713">
        <ele>166.0</ele>
        <time>2021-08-15T12:45:23Z</time>
      </trkpt>
      <trkpt lat="41.716935" lon="2.918605">
        <ele>166.0</ele>
        <time>2021-08-15T12:45:26Z</time>
      </trkpt>
      <trkpt lat="41.716915" lon="2.91849">
        <ele>166.0</ele>
        <time>2021-08-15T12:45:29Z</time>
      </trkpt>
      <trkpt lat="41.71689" lon="2.918367">
        <ele>167.0</ele>
        <time>2021-08-15T12:45:32Z</time>
      </trkpt>
      <trkpt lat="41.716862" lon="2.91824">
        <ele>167.0</ele>
        <time>2021-08-15T12:45:35Z</time>
      </trkpt>
      <trkpt lat="41.71684" lon="2.91812">
        <ele>167.0</ele>
        <time>2021-08-15T12:45:38Z</time>
      </trkpt>
      <trkpt lat="41.716825" lon="2.918008">
        <ele>166.0</ele>
        <time>2021-08-15T12:45:42Z</time>
      </trkpt>
      <trkpt lat="41.71681" lon="2.91791">
        <ele>165.0</ele>
        <time>2021-08-15T12:45:45Z</time>
      </trkpt>
      <trkpt lat="41.71682" lon="2.9178">
        <ele>164.0</ele>
        <time>2021-08-15T12:45:50Z</time>
      </trkpt>
      <trkpt lat="41.716847" lon="2.9177">
        <ele>164.0</ele>
        <time>2021-08-15T12:45:56Z</time>
      </trkpt>
      <trkpt lat="41.71686" lon="2.917692">
        <ele>165.0</ele>
        <time>2021-08-15T12:46:02Z</time>
      </trkpt>
      <trkpt lat="41.71686" lon="2.917687">
        <ele>165.0</ele>
        <time>2021-08-15T12:46:04Z</time>
      </trkpt>
      <trkpt lat="41.71686" lon="2.917715">
        <ele>163.0</ele>
        <time>2021-08-15T12:46:20Z</time>
      </trkpt>
      <trkpt lat="41.71686" lon="2.917715">
        <ele>163.0</ele>
        <time>2021-08-15T12:46:20Z</time>
      </trkpt>
      <trkpt lat="41.716845" lon="2.91772">
        <ele>164.0</ele>
        <time>2021-08-15T12:46:38Z</time>
      </trkpt>
      <trkpt lat="41.716845" lon="2.91772">
        <ele>164.0</ele>
        <time>2021-08-15T12:46:40Z</time>
      </trkpt>
      <trkpt lat="41.716835" lon="2.91768">
        <ele>165.0</ele>
        <time>2021-08-15T12:46:55Z</time>
      </trkpt>
      <trkpt lat="41.71679" lon="2.91776">
        <ele>167.0</ele>
        <time>2021-08-15T12:46:59Z</time>
      </trkpt>
      <trkpt lat="41.716695" lon="2.917753">
        <ele>167.0</ele>
        <time>2021-08-15T12:47:04Z</time>
      </trkpt>
      <trkpt lat="41.716635" lon="2.917682">
        <ele>167.0</ele>
        <time>2021-08-15T12:47:07Z</time>
      </trkpt>
      <trkpt lat="41.716587" lon="2.917605">
        <ele>167.0</ele>
        <time>2021-08-15T12:47:10Z</time>
      </trkpt>
      <trkpt lat="41.716545" lon="2.91751">
        <ele>166.0</ele>
        <time>2021-08-15T12:47:12Z</time>
      </trkpt>
      <trkpt lat="41.71649" lon="2.917413">
        <ele>166.0</ele>
        <time>2021-08-15T12:47:16Z</time>
      </trkpt>
      <trkpt lat="41.71644" lon="2.917318">
        <ele>166.0</ele>
        <time>2021-08-15T12:47:18Z</time>
      </trkpt>
      <trkpt lat="41.7164" lon="2.917223">
        <ele>166.0</ele>
        <time>2021-08-15T12:47:20Z</time>
      </trkpt>
      <trkpt lat="41.716352" lon="2.917125">
        <ele>166.0</ele>
        <time>2021-08-15T12:47:22Z</time>
      </trkpt>
      <trkpt lat="41.71632" lon="2.91702">
        <ele>166.0</ele>
        <time>2021-08-15T12:47:24Z</time>
      </trkpt>
      <trkpt lat="41.716285" lon="2.916927">
        <ele>166.0</ele>
        <time>2021-08-15T12:47:26Z</time>
      </trkpt>
      <trkpt lat="41.71623" lon="2.91686">
        <ele>167.0</ele>
        <time>2021-08-15T12:47:30Z</time>
      </trkpt>
      <trkpt lat="41.716175" lon="2.91679">
        <ele>166.0</ele>
        <time>2021-08-15T12:47:33Z</time>
      </trkpt>
      <trkpt lat="41.716095" lon="2.916705">
        <ele>166.0</ele>
        <time>2021-08-15T12:47:36Z</time>
      </trkpt>
      <trkpt lat="41.716042" lon="2.916625">
        <ele>165.0</ele>
        <time>2021-08-15T12:47:38Z</time>
      </trkpt>
      <trkpt lat="41.71601" lon="2.91653">
        <ele>165.0</ele>
        <time>2021-08-15T12:47:40Z</time>
      </trkpt>
      <trkpt lat="41.715987" lon="2.916395">
        <ele>165.0</ele>
        <time>2021-08-15T12:47:42Z</time>
      </trkpt>
      <trkpt lat="41.715995" lon="2.916297">
        <ele>164.0</ele>
        <time>2021-08-15T12:47:45Z</time>
      </trkpt>
      <trkpt lat="41.71603" lon="2.916175">
        <ele>163.0</ele>
        <time>2021-08-15T12:47:48Z</time>
      </trkpt>
      <trkpt lat="41.716067" lon="2.91607">
        <ele>163.0</ele>
        <time>2021-08-15T12:47:51Z</time>
      </trkpt>
      <trkpt lat="41.716105" lon="2.915975">
        <ele>163.0</ele>
        <time>2021-08-15T12:47:54Z</time>
      </trkpt>
      <trkpt lat="41.71616" lon="2.915865">
        <ele>162.0</ele>
        <time>2021-08-15T12:47:57Z</time>
      </trkpt>
      <trkpt lat="41.716215" lon="2.915793">
        <ele>161.0</ele>
        <time>2021-08-15T12:47:59Z</time>
      </trkpt>
      <trkpt lat="41.716275" lon="2.915745">
        <ele>161.0</ele>
        <time>2021-08-15T12:48:01Z</time>
      </trkpt>
      <trkpt lat="41.716367" lon="2.9157">
        <ele>160.0</ele>
        <time>2021-08-15T12:48:04Z</time>
      </trkpt>
      <trkpt lat="41.716445" lon="2.915668">
        <ele>159.0</ele>
        <time>2021-08-15T12:48:07Z</time>
      </trkpt>
      <trkpt lat="41.7165" lon="2.915605">
        <ele>159.0</ele>
        <time>2021-08-15T12:48:10Z</time>
      </trkpt>
      <trkpt lat="41.71648" lon="2.915508">
        <ele>159.0</ele>
        <time>2021-08-15T12:48:12Z</time>
      </trkpt>
      <trkpt lat="41.7164" lon="2.915435">
        <ele>157.0</ele>
        <time>2021-08-15T12:48:16Z</time>
      </trkpt>
      <trkpt lat="41.716315" lon="2.915422">
        <ele>157.0</ele>
        <time>2021-08-15T12:48:19Z</time>
      </trkpt>
      <trkpt lat="41.716205" lon="2.915402">
        <ele>156.0</ele>
        <time>2021-08-15T12:48:22Z</time>
      </trkpt>
      <trkpt lat="41.71611" lon="2.91539">
        <ele>156.0</ele>
        <time>2021-08-15T12:48:25Z</time>
      </trkpt>
      <trkpt lat="41.716032" lon="2.91534">
        <ele>157.0</ele>
        <time>2021-08-15T12:48:28Z</time>
      </trkpt>
      <trkpt lat="41.715975" lon="2.915275">
        <ele>156.0</ele>
        <time>2021-08-15T12:48:31Z</time>
      </trkpt>
      <trkpt lat="41.71591" lon="2.91522">
        <ele>156.0</ele>
        <time>2021-08-15T12:48:34Z</time>
      </trkpt>
      <trkpt lat="41.715845" lon="2.915175">
        <ele>155.0</ele>
        <time>2021-08-15T12:48:37Z</time>
      </trkpt>
      <trkpt lat="41.715755" lon="2.915155">
        <ele>155.0</ele>
        <time>2021-08-15T12:48:41Z</time>
      </trkpt>
      <trkpt lat="41.71566" lon="2.915127">
        <ele>155.0</ele>
        <time>2021-08-15T12:48:45Z</time>
      </trkpt>
      <trkpt lat="41.715565" lon="2.915085">
        <ele>155.0</ele>
        <time>2021-08-15T12:48:48Z</time>
      </trkpt>
      <trkpt lat="41.7155" lon="2.91503">
        <ele>154.0</ele>
        <time>2021-08-15T12:48:50Z</time>
      </trkpt>
      <trkpt lat="41.715435" lon="2.914965">
        <ele>153.0</ele>
        <time>2021-08-15T12:48:52Z</time>
      </trkpt>
      <trkpt lat="41.715375" lon="2.91488">
        <ele>153.0</ele>
        <time>2021-08-15T12:48:54Z</time>
      </trkpt>
      <trkpt lat="41.71532" lon="2.9148">
        <ele>153.0</ele>
        <time>2021-08-15T12:48:56Z</time>
      </trkpt>
      <trkpt lat="41.71527" lon="2.914727">
        <ele>152.0</ele>
        <time>2021-08-15T12:48:58Z</time>
      </trkpt>
      <trkpt lat="41.71523" lon="2.914587">
        <ele>152.0</ele>
        <time>2021-08-15T12:49:01Z</time>
      </trkpt>
      <trkpt lat="41.715245" lon="2.914475">
        <ele>152.0</ele>
        <time>2021-08-15T12:49:03Z</time>
      </trkpt>
      <trkpt lat="41.71528" lon="2.91437">
        <ele>152.0</ele>
        <time>2021-08-15T12:49:04Z</time>
      </trkpt>
      <trkpt lat="41.715305" lon="2.914277">
        <ele>152.0</ele>
        <time>2021-08-15T12:49:07Z</time>
      </trkpt>
      <trkpt lat="41.7153" lon="2.914148">
        <ele>152.0</ele>
        <time>2021-08-15T12:49:10Z</time>
      </trkpt>
      <trkpt lat="41.71525" lon="2.914045">
        <ele>153.0</ele>
        <time>2021-08-15T12:49:13Z</time>
      </trkpt>
      <trkpt lat="41.715165" lon="2.913972">
        <ele>153.0</ele>
        <time>2021-08-15T12:49:16Z</time>
      </trkpt>
      <trkpt lat="41.715082" lon="2.913915">
        <ele>154.0</ele>
        <time>2021-08-15T12:49:19Z</time>
      </trkpt>
      <trkpt lat="41.71502" lon="2.913822">
        <ele>155.0</ele>
        <time>2021-08-15T12:49:23Z</time>
      </trkpt>
      <trkpt lat="41.71499" lon="2.913735">
        <ele>155.0</ele>
        <time>2021-08-15T12:49:26Z</time>
      </trkpt>
      <trkpt lat="41.714975" lon="2.913633">
        <ele>155.0</ele>
        <time>2021-08-15T12:49:31Z</time>
      </trkpt>
      <trkpt lat="41.71497" lon="2.913507">
        <ele>154.0</ele>
        <time>2021-08-15T12:49:34Z</time>
      </trkpt>
      <trkpt lat="41.714965" lon="2.91339">
        <ele>153.0</ele>
        <time>2021-08-15T12:49:37Z</time>
      </trkpt>
      <trkpt lat="41.71497" lon="2.913265">
        <ele>153.0</ele>
        <time>2021-08-15T12:49:40Z</time>
      </trkpt>
      <trkpt lat="41.714985" lon="2.913135">
        <ele>152.0</ele>
        <time>2021-08-15T12:49:42Z</time>
      </trkpt>
      <trkpt lat="41.715005" lon="2.913025">
        <ele>150.0</ele>
        <time>2021-08-15T12:49:45Z</time>
      </trkpt>
      <trkpt lat="41.715015" lon="2.912902">
        <ele>148.0</ele>
        <time>2021-08-15T12:49:47Z</time>
      </trkpt>
      <trkpt lat="41.71504" lon="2.912787">
        <ele>147.0</ele>
        <time>2021-08-15T12:49:49Z</time>
      </trkpt>
      <trkpt lat="41.71508" lon="2.91268">
        <ele>147.0</ele>
        <time>2021-08-15T12:49:51Z</time>
      </trkpt>
      <trkpt lat="41.71513" lon="2.9126">
        <ele>146.0</ele>
        <time>2021-08-15T12:49:53Z</time>
      </trkpt>
      <trkpt lat="41.71518" lon="2.912515">
        <ele>146.0</ele>
        <time>2021-08-15T12:49:56Z</time>
      </trkpt>
      <trkpt lat="41.71512" lon="2.912447">
        <ele>145.0</ele>
        <time>2021-08-15T12:50:02Z</time>
      </trkpt>
      <trkpt lat="41.715035" lon="2.912495">
        <ele>144.0</ele>
        <time>2021-08-15T12:50:06Z</time>
      </trkpt>
      <trkpt lat="41.71494" lon="2.91255">
        <ele>144.0</ele>
        <time>2021-08-15T12:50:09Z</time>
      </trkpt>
      <trkpt lat="41.714865" lon="2.912585">
        <ele>143.0</ele>
        <time>2021-08-15T12:50:11Z</time>
      </trkpt>
      <trkpt lat="41.714785" lon="2.912618">
        <ele>143.0</ele>
        <time>2021-08-15T12:50:13Z</time>
      </trkpt>
      <trkpt lat="41.714695" lon="2.91268">
        <ele>143.0</ele>
        <time>2021-08-15T12:50:16Z</time>
      </trkpt>
      <trkpt lat="41.714605" lon="2.91273">
        <ele>143.0</ele>
        <time>2021-08-15T12:50:19Z</time>
      </trkpt>
      <trkpt lat="41.714525" lon="2.912757">
        <ele>141.0</ele>
        <time>2021-08-15T12:50:24Z</time>
      </trkpt>
      <trkpt lat="41.71448" lon="2.912675">
        <ele>140.0</ele>
        <time>2021-08-15T12:50:29Z</time>
      </trkpt>
      <trkpt lat="41.714505" lon="2.91257">
        <ele>139.0</ele>
        <time>2021-08-15T12:50:34Z</time>
      </trkpt>
      <trkpt lat="41.714542" lon="2.912465">
        <ele>138.0</ele>
        <time>2021-08-15T12:50:38Z</time>
      </trkpt>
      <trkpt lat="41.71449" lon="2.912377">
        <ele>138.0</ele>
        <time>2021-08-15T12:50:42Z</time>
      </trkpt>
      <trkpt lat="41.7144" lon="2.912385">
        <ele>138.0</ele>
        <time>2021-08-15T12:50:45Z</time>
      </trkpt>
      <trkpt lat="41.714307" lon="2.912382">
        <ele>138.0</ele>
        <time>2021-08-15T12:50:48Z</time>
      </trkpt>
      <trkpt lat="41.714233" lon="2.912335">
        <ele>138.0</ele>
        <time>2021-08-15T12:50:51Z</time>
      </trkpt>
      <trkpt lat="41.71416" lon="2.912285">
        <ele>137.0</ele>
        <time>2021-08-15T12:50:54Z</time>
      </trkpt>
      <trkpt lat="41.7141" lon="2.912178">
        <ele>136.0</ele>
        <time>2021-08-15T12:50:58Z</time>
      </trkpt>
      <trkpt lat="41.71406" lon="2.91206">
        <ele>135.0</ele>
        <time>2021-08-15T12:51:02Z</time>
      </trkpt>
      <trkpt lat="41.714035" lon="2.91194">
        <ele>135.0</ele>
        <time>2021-08-15T12:51:06Z</time>
      </trkpt>
      <trkpt lat="41.714012" lon="2.911823">
        <ele>135.0</ele>
        <time>2021-08-15T12:51:10Z</time>
      </trkpt>
      <trkpt lat="41.714002" lon="2.911717">
        <ele>137.0</ele>
        <time>2021-08-15T12:51:15Z</time>
      </trkpt>
      <trkpt lat="41.714015" lon="2.911615">
        <ele>137.0</ele>
        <time>2021-08-15T12:51:21Z</time>
      </trkpt>
      <trkpt lat="41.714013" lon="2.91149">
        <ele>136.0</ele>
        <time>2021-08-15T12:51:24Z</time>
      </trkpt>
      <trkpt lat="41.71403" lon="2.911375">
        <ele>133.0</ele>
        <time>2021-08-15T12:51:26Z</time>
      </trkpt>
      <trkpt lat="41.71404" lon="2.91124">
        <ele>132.0</ele>
        <time>2021-08-15T12:51:28Z</time>
      </trkpt>
      <trkpt lat="41.71405" lon="2.911105">
        <ele>131.0</ele>
        <time>2021-08-15T12:51:30Z</time>
      </trkpt>
      <trkpt lat="41.71404" lon="2.910992">
        <ele>131.0</ele>
        <time>2021-08-15T12:51:32Z</time>
      </trkpt>
      <trkpt lat="41.714005" lon="2.910895">
        <ele>130.0</ele>
        <time>2021-08-15T12:51:33Z</time>
      </trkpt>
      <trkpt lat="41.71396" lon="2.91081">
        <ele>130.0</ele>
        <time>2021-08-15T12:51:36Z</time>
      </trkpt>
      <trkpt lat="41.71389" lon="2.910742">
        <ele>129.0</ele>
        <time>2021-08-15T12:51:38Z</time>
      </trkpt>
      <trkpt lat="41.7138" lon="2.910685">
        <ele>129.0</ele>
        <time>2021-08-15T12:51:40Z</time>
      </trkpt>
      <trkpt lat="41.71371" lon="2.910637">
        <ele>129.0</ele>
        <time>2021-08-15T12:51:42Z</time>
      </trkpt>
      <trkpt lat="41.71361" lon="2.910612">
        <ele>128.0</ele>
        <time>2021-08-15T12:51:44Z</time>
      </trkpt>
      <trkpt lat="41.71352" lon="2.910565">
        <ele>128.0</ele>
        <time>2021-08-15T12:51:45Z</time>
      </trkpt>
      <trkpt lat="41.71344" lon="2.910517">
        <ele>128.0</ele>
        <time>2021-08-15T12:51:48Z</time>
      </trkpt>
      <trkpt lat="41.71337" lon="2.910455">
        <ele>127.0</ele>
        <time>2021-08-15T12:51:50Z</time>
      </trkpt>
      <trkpt lat="41.7133" lon="2.910398">
        <ele>126.0</ele>
        <time>2021-08-15T12:51:53Z</time>
      </trkpt>
      <trkpt lat="41.713225" lon="2.91034">
        <ele>126.0</ele>
        <time>2021-08-15T12:51:57Z</time>
      </trkpt>
      <trkpt lat="41.713175" lon="2.910255">
        <ele>125.0</ele>
        <time>2021-08-15T12:52:01Z</time>
      </trkpt>
      <trkpt lat="41.713135" lon="2.91017">
        <ele>124.0</ele>
        <time>2021-08-15T12:52:06Z</time>
      </trkpt>
      <trkpt lat="41.713085" lon="2.910087">
        <ele>122.0</ele>
        <time>2021-08-15T12:52:09Z</time>
      </trkpt>
      <trkpt lat="41.713025" lon="2.910007">
        <ele>121.0</ele>
        <time>2021-08-15T12:52:11Z</time>
      </trkpt>
      <trkpt lat="41.712985" lon="2.909922">
        <ele>120.0</ele>
        <time>2021-08-15T12:52:14Z</time>
      </trkpt>
      <trkpt lat="41.712977" lon="2.909815">
        <ele>119.0</ele>
        <time>2021-08-15T12:52:19Z</time>
      </trkpt>
      <trkpt lat="41.71293" lon="2.909692">
        <ele>117.0</ele>
        <time>2021-08-15T12:52:24Z</time>
      </trkpt>
      <trkpt lat="41.712855" lon="2.90962">
        <ele>115.0</ele>
        <time>2021-08-15T12:52:28Z</time>
      </trkpt>
      <trkpt lat="41.712787" lon="2.909585">
        <ele>114.0</ele>
        <time>2021-08-15T12:52:31Z</time>
      </trkpt>
      <trkpt lat="41.71273" lon="2.909502">
        <ele>113.0</ele>
        <time>2021-08-15T12:52:34Z</time>
      </trkpt>
      <trkpt lat="41.712695" lon="2.909387">
        <ele>112.0</ele>
        <time>2021-08-15T12:52:37Z</time>
      </trkpt>
      <trkpt lat="41.71268" lon="2.909285">
        <ele>109.0</ele>
        <time>2021-08-15T12:52:40Z</time>
      </trkpt>
      <trkpt lat="41.71267" lon="2.90918">
        <ele>108.0</ele>
        <time>2021-08-15T12:52:42Z</time>
      </trkpt>
      <trkpt lat="41.71268" lon="2.909052">
        <ele>107.0</ele>
        <time>2021-08-15T12:52:44Z</time>
      </trkpt>
      <trkpt lat="41.712685" lon="2.908933">
        <ele>106.0</ele>
        <time>2021-08-15T12:52:47Z</time>
      </trkpt>
      <trkpt lat="41.71263" lon="2.908868">
        <ele>105.0</ele>
        <time>2021-08-15T12:52:54Z</time>
      </trkpt>
      <trkpt lat="41.712615" lon="2.90889">
        <ele>105.0</ele>
        <time>2021-08-15T12:53:01Z</time>
      </trkpt>
      <trkpt lat="41.712615" lon="2.90889">
        <ele>105.0</ele>
        <time>2021-08-15T12:53:05Z</time>
      </trkpt>
      <trkpt lat="41.71257" lon="2.908995">
        <ele>105.0</ele>
        <time>2021-08-15T12:53:18Z</time>
      </trkpt>
      <trkpt lat="41.71252" lon="2.90908">
        <ele>105.0</ele>
        <time>2021-08-15T12:53:22Z</time>
      </trkpt>
      <trkpt lat="41.71248" lon="2.909165">
        <ele>105.0</ele>
        <time>2021-08-15T12:53:27Z</time>
      </trkpt>
      <trkpt lat="41.712435" lon="2.909235">
        <ele>105.0</ele>
        <time>2021-08-15T12:53:30Z</time>
      </trkpt>
      <trkpt lat="41.712372" lon="2.90932">
        <ele>104.0</ele>
        <time>2021-08-15T12:53:34Z</time>
      </trkpt>
      <trkpt lat="41.712337" lon="2.909355">
        <ele>103.0</ele>
        <time>2021-08-15T12:53:41Z</time>
      </trkpt>
      <trkpt lat="41.712333" lon="2.90936">
        <ele>102.0</ele>
        <time>2021-08-15T12:53:44Z</time>
      </trkpt>
      <trkpt lat="41.71233" lon="2.909365">
        <ele>98.0</ele>
        <time>2021-08-15T12:53:57Z</time>
      </trkpt>
      <trkpt lat="41.712345" lon="2.90937">
        <ele>98.0</ele>
        <time>2021-08-15T12:54:04Z</time>
      </trkpt>
      <trkpt lat="41.712345" lon="2.909375">
        <ele>97.0</ele>
        <time>2021-08-15T12:54:11Z</time>
      </trkpt>
      <trkpt lat="41.71235" lon="2.90938">
        <ele>97.0</ele>
        <time>2021-08-15T12:54:15Z</time>
      </trkpt>
      <trkpt lat="41.71237" lon="2.90937">
        <ele>96.0</ele>
        <time>2021-08-15T12:54:22Z</time>
      </trkpt>
      <trkpt lat="41.71236" lon="2.90937">
        <ele>95.0</ele>
        <time>2021-08-15T12:54:29Z</time>
      </trkpt>
      <trkpt lat="41.71236" lon="2.909375">
        <ele>94.0</ele>
        <time>2021-08-15T12:54:34Z</time>
      </trkpt>
      <trkpt lat="41.712315" lon="2.90938">
        <ele>94.0</ele>
        <time>2021-08-15T12:54:50Z</time>
      </trkpt>
      <trkpt lat="41.712255" lon="2.90935">
        <ele>94.0</ele>
        <time>2021-08-15T12:54:57Z</time>
      </trkpt>
      <trkpt lat="41.712182" lon="2.90933">
        <ele>94.0</ele>
        <time>2021-08-15T12:55:01Z</time>
      </trkpt>
      <trkpt lat="41.712192" lon="2.909398">
        <ele>94.0</ele>
        <time>2021-08-15T12:55:08Z</time>
      </trkpt>
      <trkpt lat="41.712255" lon="2.909445">
        <ele>93.0</ele>
        <time>2021-08-15T12:55:15Z</time>
      </trkpt>
      <trkpt lat="41.712255" lon="2.909445">
        <ele>94.0</ele>
        <time>2021-08-15T12:55:22Z</time>
      </trkpt>
      <trkpt lat="41.712235" lon="2.909415">
        <ele>94.0</ele>
        <time>2021-08-15T12:55:29Z</time>
      </trkpt>
      <trkpt lat="41.712162" lon="2.909477">
        <ele>93.0</ele>
        <time>2021-08-15T12:55:34Z</time>
      </trkpt>
      <trkpt lat="41.71209" lon="2.909545">
        <ele>92.0</ele>
        <time>2021-08-15T12:55:37Z</time>
      </trkpt>
      <trkpt lat="41.712037" lon="2.909625">
        <ele>92.0</ele>
        <time>2021-08-15T12:55:40Z</time>
      </trkpt>
      <trkpt lat="41.711995" lon="2.909745">
        <ele>92.0</ele>
        <time>2021-08-15T12:55:43Z</time>
      </trkpt>
      <trkpt lat="41.71195" lon="2.909825">
        <ele>92.0</ele>
        <time>2021-08-15T12:55:46Z</time>
      </trkpt>
      <trkpt lat="41.711887" lon="2.909915">
        <ele>92.0</ele>
        <time>2021-08-15T12:55:51Z</time>
      </trkpt>
      <trkpt lat="41.711807" lon="2.909935">
        <ele>91.0</ele>
        <time>2021-08-15T12:55:54Z</time>
      </trkpt>
      <trkpt lat="41.711728" lon="2.909948">
        <ele>91.0</ele>
        <time>2021-08-15T12:55:57Z</time>
      </trkpt>
      <trkpt lat="41.711655" lon="2.909992">
        <ele>90.0</ele>
        <time>2021-08-15T12:56:00Z</time>
      </trkpt>
      <trkpt lat="41.71159" lon="2.910065">
        <ele>90.0</ele>
        <time>2021-08-15T12:56:04Z</time>
      </trkpt>
      <trkpt lat="41.711567" lon="2.91016">
        <ele>89.0</ele>
        <time>2021-08-15T12:56:10Z</time>
      </trkpt>
      <trkpt lat="41.711505" lon="2.91022">
        <ele>89.0</ele>
        <time>2021-08-15T12:56:13Z</time>
      </trkpt>
      <trkpt lat="41.711422" lon="2.910265">
        <ele>89.0</ele>
        <time>2021-08-15T12:56:17Z</time>
      </trkpt>
      <trkpt lat="41.711342" lon="2.910298">
        <ele>89.0</ele>
        <time>2021-08-15T12:56:20Z</time>
      </trkpt>
      <trkpt lat="41.71126" lon="2.910302">
        <ele>88.0</ele>
        <time>2021-08-15T12:56:27Z</time>
      </trkpt>
      <trkpt lat="41.711195" lon="2.910365">
        <ele>86.0</ele>
        <time>2021-08-15T12:56:33Z</time>
      </trkpt>
      <trkpt lat="41.71114" lon="2.910455">
        <ele>85.0</ele>
        <time>2021-08-15T12:56:39Z</time>
      </trkpt>
      <trkpt lat="41.711085" lon="2.910535">
        <ele>84.0</ele>
        <time>2021-08-15T12:56:42Z</time>
      </trkpt>
      <trkpt lat="41.710987" lon="2.910615">
        <ele>84.0</ele>
        <time>2021-08-15T12:56:45Z</time>
      </trkpt>
      <trkpt lat="41.71089" lon="2.910678">
        <ele>84.0</ele>
        <time>2021-08-15T12:56:47Z</time>
      </trkpt>
      <trkpt lat="41.7108" lon="2.91073">
        <ele>84.0</ele>
        <time>2021-08-15T12:56:49Z</time>
      </trkpt>
      <trkpt lat="41.710695" lon="2.910785">
        <ele>82.0</ele>
        <time>2021-08-15T12:56:51Z</time>
      </trkpt>
      <trkpt lat="41.710607" lon="2.910827">
        <ele>81.0</ele>
        <time>2021-08-15T12:56:53Z</time>
      </trkpt>
      <trkpt lat="41.71054" lon="2.9109">
        <ele>80.0</ele>
        <time>2021-08-15T12:56:55Z</time>
      </trkpt>
      <trkpt lat="41.71048" lon="2.91096">
        <ele>79.0</ele>
        <time>2021-08-15T12:56:57Z</time>
      </trkpt>
      <trkpt lat="41.710405" lon="2.910995">
        <ele>78.0</ele>
        <time>2021-08-15T12:56:59Z</time>
      </trkpt>
      <trkpt lat="41.710325" lon="2.911003">
        <ele>77.0</ele>
        <time>2021-08-15T12:57:01Z</time>
      </trkpt>
      <trkpt lat="41.71022" lon="2.911015">
        <ele>76.0</ele>
        <time>2021-08-15T12:57:03Z</time>
      </trkpt>
      <trkpt lat="41.710115" lon="2.911007">
        <ele>75.0</ele>
        <time>2021-08-15T12:57:05Z</time>
      </trkpt>
      <trkpt lat="41.710012" lon="2.910995">
        <ele>75.0</ele>
        <time>2021-08-15T12:57:07Z</time>
      </trkpt>
      <trkpt lat="41.709902" lon="2.910998">
        <ele>74.0</ele>
        <time>2021-08-15T12:57:09Z</time>
      </trkpt>
      <trkpt lat="41.709805" lon="2.911045">
        <ele>72.0</ele>
        <time>2021-08-15T12:57:11Z</time>
      </trkpt>
      <trkpt lat="41.709715" lon="2.911055">
        <ele>71.0</ele>
        <time>2021-08-15T12:57:13Z</time>
      </trkpt>
      <trkpt lat="41.70964" lon="2.911007">
        <ele>71.0</ele>
        <time>2021-08-15T12:57:15Z</time>
      </trkpt>
      <trkpt lat="41.709575" lon="2.910945">
        <ele>70.0</ele>
        <time>2021-08-15T12:57:17Z</time>
      </trkpt>
      <trkpt lat="41.709495" lon="2.91087">
        <ele>68.0</ele>
        <time>2021-08-15T12:57:19Z</time>
      </trkpt>
      <trkpt lat="41.70943" lon="2.9108">
        <ele>66.0</ele>
        <time>2021-08-15T12:57:21Z</time>
      </trkpt>
      <trkpt lat="41.70937" lon="2.910725">
        <ele>65.0</ele>
        <time>2021-08-15T12:57:24Z</time>
      </trkpt>
      <trkpt lat="41.70932" lon="2.91063">
        <ele>63.0</ele>
        <time>2021-08-15T12:57:28Z</time>
      </trkpt>
      <trkpt lat="41.7093" lon="2.910535">
        <ele>62.0</ele>
        <time>2021-08-15T12:57:32Z</time>
      </trkpt>
      <trkpt lat="41.709252" lon="2.91045">
        <ele>59.0</ele>
        <time>2021-08-15T12:57:37Z</time>
      </trkpt>
      <trkpt lat="41.70917" lon="2.91041">
        <ele>58.0</ele>
        <time>2021-08-15T12:57:41Z</time>
      </trkpt>
      <trkpt lat="41.709095" lon="2.910335">
        <ele>55.0</ele>
        <time>2021-08-15T12:57:48Z</time>
      </trkpt>
      <trkpt lat="41.709027" lon="2.910247">
        <ele>55.0</ele>
        <time>2021-08-15T12:57:52Z</time>
      </trkpt>
      <trkpt lat="41.709" lon="2.910128">
        <ele>54.0</ele>
        <time>2021-08-15T12:57:55Z</time>
      </trkpt>
      <trkpt lat="41.70899" lon="2.910017">
        <ele>53.0</ele>
        <time>2021-08-15T12:57:58Z</time>
      </trkpt>
      <trkpt lat="41.708937" lon="2.909915">
        <ele>53.0</ele>
        <time>2021-08-15T12:58:02Z</time>
      </trkpt>
      <trkpt lat="41.708867" lon="2.909847">
        <ele>52.0</ele>
        <time>2021-08-15T12:58:07Z</time>
      </trkpt>
      <trkpt lat="41.70882" lon="2.909747">
        <ele>52.0</ele>
        <time>2021-08-15T12:58:11Z</time>
      </trkpt>
      <trkpt lat="41.70882" lon="2.909632">
        <ele>51.0</ele>
        <time>2021-08-15T12:58:16Z</time>
      </trkpt>
      <trkpt lat="41.708835" lon="2.909555">
        <ele>51.0</ele>
        <time>2021-08-15T12:58:23Z</time>
      </trkpt>
      <trkpt lat="41.708848" lon="2.909545">
        <ele>49.0</ele>
        <time>2021-08-15T12:58:30Z</time>
      </trkpt>
      <trkpt lat="41.708875" lon="2.909512">
        <ele>46.0</ele>
        <time>2021-08-15T12:58:37Z</time>
      </trkpt>
      <trkpt lat="41.70888" lon="2.90947">
        <ele>44.0</ele>
        <time>2021-08-15T12:58:44Z</time>
      </trkpt>
      <trkpt lat="41.70889" lon="2.909477">
        <ele>41.0</ele>
        <time>2021-08-15T12:58:51Z</time>
      </trkpt>
      <trkpt lat="41.70889" lon="2.909477">
        <ele>41.0</ele>
        <time>2021-08-15T12:58:55Z</time>
      </trkpt>
      <trkpt lat="41.70888" lon="2.909525">
        <ele>43.0</ele>
        <time>2021-08-15T12:59:20Z</time>
      </trkpt>
      <trkpt lat="41.708885" lon="2.909535">
        <ele>44.0</ele>
        <time>2021-08-15T12:59:27Z</time>
      </trkpt>
      <trkpt lat="41.708885" lon="2.90951">
        <ele>44.0</ele>
        <time>2021-08-15T12:59:34Z</time>
      </trkpt>
      <trkpt lat="41.708895" lon="2.909493">
        <ele>43.0</ele>
        <time>2021-08-15T12:59:41Z</time>
      </trkpt>
      <trkpt lat="41.7089" lon="2.90949">
        <ele>43.0</ele>
        <time>2021-08-15T12:59:48Z</time>
      </trkpt>
      <trkpt lat="41.70898" lon="2.909482">
        <ele>45.0</ele>
        <time>2021-08-15T12:59:54Z</time>
      </trkpt>
      <trkpt lat="41.70904" lon="2.909425">
        <ele>46.0</ele>
        <time>2021-08-15T12:59:58Z</time>
      </trkpt>
      <trkpt lat="41.70908" lon="2.909332">
        <ele>46.0</ele>
        <time>2021-08-15T13:00:04Z</time>
      </trkpt>
      <trkpt lat="41.70913" lon="2.909225">
        <ele>45.0</ele>
        <time>2021-08-15T13:00:08Z</time>
      </trkpt>
      <trkpt lat="41.709157" lon="2.909123">
        <ele>45.0</ele>
        <time>2021-08-15T13:00:14Z</time>
      </trkpt>
      <trkpt lat="41.70918" lon="2.909028">
        <ele>45.0</ele>
        <time>2021-08-15T13:00:18Z</time>
      </trkpt>
      <trkpt lat="41.709235" lon="2.90895">
        <ele>45.0</ele>
        <time>2021-08-15T13:00:21Z</time>
      </trkpt>
      <trkpt lat="41.709305" lon="2.908847">
        <ele>43.0</ele>
        <time>2021-08-15T13:00:24Z</time>
      </trkpt>
      <trkpt lat="41.709367" lon="2.908762">
        <ele>42.0</ele>
        <time>2021-08-15T13:00:28Z</time>
      </trkpt>
      <trkpt lat="41.70944" lon="2.908705">
        <ele>42.0</ele>
        <time>2021-08-15T13:00:33Z</time>
      </trkpt>
      <trkpt lat="41.70953" lon="2.908682">
        <ele>41.0</ele>
        <time>2021-08-15T13:00:37Z</time>
      </trkpt>
      <trkpt lat="41.709605" lon="2.908662">
        <ele>42.0</ele>
        <time>2021-08-15T13:00:40Z</time>
      </trkpt>
      <trkpt lat="41.709692" lon="2.90866">
        <ele>42.0</ele>
        <time>2021-08-15T13:00:43Z</time>
      </trkpt>
      <trkpt lat="41.709763" lon="2.90864">
        <ele>42.0</ele>
        <time>2021-08-15T13:00:46Z</time>
      </trkpt>
      <trkpt lat="41.709832" lon="2.908583">
        <ele>42.0</ele>
        <time>2021-08-15T13:00:50Z</time>
      </trkpt>
      <trkpt lat="41.709905" lon="2.908545">
        <ele>42.0</ele>
        <time>2021-08-15T13:00:54Z</time>
      </trkpt>
      <trkpt lat="41.70998" lon="2.908508">
        <ele>42.0</ele>
        <time>2021-08-15T13:00:57Z</time>
      </trkpt>
      <trkpt lat="41.710065" lon="2.908475">
        <ele>42.0</ele>
        <time>2021-08-15T13:01:01Z</time>
      </trkpt>
      <trkpt lat="41.710135" lon="2.90841">
        <ele>42.0</ele>
        <time>2021-08-15T13:01:06Z</time>
      </trkpt>
      <trkpt lat="41.710185" lon="2.90834">
        <ele>41.0</ele>
        <time>2021-08-15T13:01:09Z</time>
      </trkpt>
      <trkpt lat="41.71021" lon="2.908238">
        <ele>40.0</ele>
        <time>2021-08-15T13:01:13Z</time>
      </trkpt>
      <trkpt lat="41.71024" lon="2.908142">
        <ele>40.0</ele>
        <time>2021-08-15T13:01:19Z</time>
      </trkpt>
      <trkpt lat="41.710255" lon="2.908038">
        <ele>40.0</ele>
        <time>2021-08-15T13:01:24Z</time>
      </trkpt>
      <trkpt lat="41.710295" lon="2.907952">
        <ele>40.0</ele>
        <time>2021-08-15T13:01:29Z</time>
      </trkpt>
      <trkpt lat="41.710325" lon="2.90785">
        <ele>39.0</ele>
        <time>2021-08-15T13:01:35Z</time>
      </trkpt>
      <trkpt lat="41.710355" lon="2.90784">
        <ele>36.0</ele>
        <time>2021-08-15T13:01:42Z</time>
      </trkpt>
      <trkpt lat="41.710325" lon="2.90782">
        <ele>36.0</ele>
        <time>2021-08-15T13:01:49Z</time>
      </trkpt>
      <trkpt lat="41.710255" lon="2.907835">
        <ele>40.0</ele>
        <time>2021-08-15T13:01:54Z</time>
      </trkpt>
      <trkpt lat="41.71018" lon="2.90784">
        <ele>43.0</ele>
        <time>2021-08-15T13:02:00Z</time>
      </trkpt>
      <trkpt lat="41.710175" lon="2.90783">
        <ele>44.0</ele>
        <time>2021-08-15T13:02:07Z</time>
      </trkpt>
      <trkpt lat="41.71022" lon="2.90783">
        <ele>45.0</ele>
        <time>2021-08-15T13:02:14Z</time>
      </trkpt>
      <trkpt lat="41.710252" lon="2.907872">
        <ele>50.0</ele>
        <time>2021-08-15T13:02:21Z</time>
      </trkpt>
      <trkpt lat="41.710235" lon="2.907958">
        <ele>53.0</ele>
        <time>2021-08-15T13:02:28Z</time>
      </trkpt>
      <trkpt lat="41.71021" lon="2.907972">
        <ele>55.0</ele>
        <time>2021-08-15T13:02:35Z</time>
      </trkpt>
      <trkpt lat="41.71021" lon="2.907972">
        <ele>55.0</ele>
        <time>2021-08-15T13:02:38Z</time>
      </trkpt>
      <trkpt lat="41.710185" lon="2.907978">
        <ele>57.0</ele>
        <time>2021-08-15T13:02:59Z</time>
      </trkpt>
      <trkpt lat="41.710165" lon="2.907952">
        <ele>57.0</ele>
        <time>2021-08-15T13:03:06Z</time>
      </trkpt>
      <trkpt lat="41.71014" lon="2.907967">
        <ele>56.0</ele>
        <time>2021-08-15T13:03:13Z</time>
      </trkpt>
      <trkpt lat="41.71014" lon="2.907962">
        <ele>56.0</ele>
        <time>2021-08-15T13:03:20Z</time>
      </trkpt>
      <trkpt lat="41.71014" lon="2.907962">
        <ele>56.0</ele>
        <time>2021-08-15T13:03:22Z</time>
      </trkpt>
      <trkpt lat="41.71011" lon="2.908038">
        <ele>56.0</ele>
        <time>2021-08-15T13:03:45Z</time>
      </trkpt>
      <trkpt lat="41.7101" lon="2.908147">
        <ele>56.0</ele>
        <time>2021-08-15T13:03:53Z</time>
      </trkpt>
      <trkpt lat="41.710075" lon="2.908207">
        <ele>56.0</ele>
        <time>2021-08-15T13:04:00Z</time>
      </trkpt>
      <trkpt lat="41.710025" lon="2.908195">
        <ele>54.0</ele>
        <time>2021-08-15T13:04:06Z</time>
      </trkpt>
      <trkpt lat="41.710045" lon="2.908168">
        <ele>55.0</ele>
        <time>2021-08-15T13:04:13Z</time>
      </trkpt>
      <trkpt lat="41.710055" lon="2.908155">
        <ele>55.0</ele>
        <time>2021-08-15T13:04:20Z</time>
      </trkpt>
      <trkpt lat="41.7101" lon="2.908137">
        <ele>54.0</ele>
        <time>2021-08-15T13:04:27Z</time>
      </trkpt>
      <trkpt lat="41.71008" lon="2.908155">
        <ele>54.0</ele>
        <time>2021-08-15T13:04:34Z</time>
      </trkpt>
      <trkpt lat="41.710068" lon="2.908117">
        <ele>54.0</ele>
        <time>2021-08-15T13:04:41Z</time>
      </trkpt>
      <trkpt lat="41.71009" lon="2.908133">
        <ele>54.0</ele>
        <time>2021-08-15T13:04:48Z</time>
      </trkpt>
      <trkpt lat="41.71009" lon="2.908133">
        <ele>54.0</ele>
        <time>2021-08-15T13:04:51Z</time>
      </trkpt>
      <trkpt lat="41.710095" lon="2.908143">
        <ele>54.0</ele>
        <time>2021-08-15T13:05:01Z</time>
      </trkpt>
      <trkpt lat="41.710095" lon="2.908143">
        <ele>54.0</ele>
        <time>2021-08-15T13:05:02Z</time>
      </trkpt>
      <trkpt lat="41.71013" lon="2.90811">
        <ele>53.0</ele>
        <time>2021-08-15T13:05:12Z</time>
      </trkpt>
      <trkpt lat="41.710175" lon="2.90806">
        <ele>54.0</ele>
        <time>2021-08-15T13:05:18Z</time>
      </trkpt>
      <trkpt lat="41.71021" lon="2.907985">
        <ele>53.0</ele>
        <time>2021-08-15T13:05:25Z</time>
      </trkpt>
      <trkpt lat="41.710235" lon="2.907898">
        <ele>51.0</ele>
        <time>2021-08-15T13:05:32Z</time>
      </trkpt>
      <trkpt lat="41.710282" lon="2.907825">
        <ele>51.0</ele>
        <time>2021-08-15T13:05:38Z</time>
      </trkpt>
      <trkpt lat="41.71036" lon="2.907825">
        <ele>47.0</ele>
        <time>2021-08-15T13:05:45Z</time>
      </trkpt>
      <trkpt lat="41.710437" lon="2.907845">
        <ele>42.0</ele>
        <time>2021-08-15T13:05:52Z</time>
      </trkpt>
      <trkpt lat="41.710455" lon="2.907825">
        <ele>42.0</ele>
        <time>2021-08-15T13:05:59Z</time>
      </trkpt>
      <trkpt lat="41.71048" lon="2.9078">
        <ele>42.0</ele>
        <time>2021-08-15T13:06:06Z</time>
      </trkpt>
      <trkpt lat="41.71052" lon="2.90777">
        <ele>42.0</ele>
        <time>2021-08-15T13:06:13Z</time>
      </trkpt>
      <trkpt lat="41.710535" lon="2.90774">
        <ele>44.0</ele>
        <time>2021-08-15T13:06:20Z</time>
      </trkpt>
      <trkpt lat="41.710545" lon="2.907712">
        <ele>44.0</ele>
        <time>2021-08-15T13:06:27Z</time>
      </trkpt>
      <trkpt lat="41.71055" lon="2.907705">
        <ele>44.0</ele>
        <time>2021-08-15T13:06:34Z</time>
      </trkpt>
      <trkpt lat="41.71055" lon="2.907705">
        <ele>44.0</ele>
        <time>2021-08-15T13:06:38Z</time>
      </trkpt>
      <trkpt lat="41.710538" lon="2.907675">
        <ele>46.0</ele>
        <time>2021-08-15T13:06:57Z</time>
      </trkpt>
      <trkpt lat="41.710538" lon="2.907675">
        <ele>46.0</ele>
        <time>2021-08-15T13:06:58Z</time>
      </trkpt>
      <trkpt lat="41.710522" lon="2.907628">
        <ele>49.0</ele>
        <time>2021-08-15T13:07:10Z</time>
      </trkpt>
      <trkpt lat="41.71049" lon="2.907588">
        <ele>51.0</ele>
        <time>2021-08-15T13:07:17Z</time>
      </trkpt>
      <trkpt lat="41.710438" lon="2.907577">
        <ele>54.0</ele>
        <time>2021-08-15T13:07:24Z</time>
      </trkpt>
      <trkpt lat="41.7104" lon="2.907535">
        <ele>59.0</ele>
        <time>2021-08-15T13:07:31Z</time>
      </trkpt>
      <trkpt lat="41.710407" lon="2.907532">
        <ele>59.0</ele>
        <time>2021-08-15T13:07:38Z</time>
      </trkpt>
      <trkpt lat="41.710407" lon="2.907532">
        <ele>59.0</ele>
        <time>2021-08-15T13:07:39Z</time>
      </trkpt>
      <trkpt lat="41.710382" lon="2.907532">
        <ele>61.0</ele>
        <time>2021-08-15T13:07:55Z</time>
      </trkpt>
      <trkpt lat="41.710382" lon="2.907532">
        <ele>61.0</ele>
        <time>2021-08-15T13:07:57Z</time>
      </trkpt>
      <trkpt lat="41.710368" lon="2.907532">
        <ele>62.0</ele>
        <time>2021-08-15T13:08:05Z</time>
      </trkpt>
      <trkpt lat="41.710368" lon="2.907532">
        <ele>62.0</ele>
        <time>2021-08-15T13:08:06Z</time>
      </trkpt>
      <trkpt lat="41.710365" lon="2.907515">
        <ele>63.0</ele>
        <time>2021-08-15T13:08:18Z</time>
      </trkpt>
      <trkpt lat="41.710365" lon="2.907515">
        <ele>63.0</ele>
        <time>2021-08-15T13:08:22Z</time>
      </trkpt>
      <trkpt lat="41.71036" lon="2.907495">
        <ele>64.0</ele>
        <time>2021-08-15T13:08:31Z</time>
      </trkpt>
      <trkpt lat="41.71036" lon="2.907495">
        <ele>64.0</ele>
        <time>2021-08-15T13:08:35Z</time>
      </trkpt>
      <trkpt lat="41.71041" lon="2.90752">
        <ele>65.0</ele>
        <time>2021-08-15T13:08:43Z</time>
      </trkpt>
      <trkpt lat="41.71041" lon="2.907525">
        <ele>65.0</ele>
        <time>2021-08-15T13:08:50Z</time>
      </trkpt>
      <trkpt lat="41.710485" lon="2.90756">
        <ele>66.0</ele>
        <time>2021-08-15T13:08:57Z</time>
      </trkpt>
      <trkpt lat="41.71048" lon="2.90761">
        <ele>64.0</ele>
        <time>2021-08-15T13:09:05Z</time>
      </trkpt>
      <trkpt lat="41.71049" lon="2.907635">
        <ele>63.0</ele>
        <time>2021-08-15T13:09:12Z</time>
      </trkpt>
      <trkpt lat="41.710492" lon="2.90766">
        <ele>62.0</ele>
        <time>2021-08-15T13:09:19Z</time>
      </trkpt>
      <trkpt lat="41.710492" lon="2.90766">
        <ele>62.0</ele>
        <time>2021-08-15T13:09:23Z</time>
      </trkpt>
      <trkpt lat="41.710465" lon="2.907592">
        <ele>64.0</ele>
        <time>2021-08-15T13:09:31Z</time>
      </trkpt>
      <trkpt lat="41.71046" lon="2.907587">
        <ele>64.0</ele>
        <time>2021-08-15T13:09:38Z</time>
      </trkpt>
      <trkpt lat="41.71042" lon="2.907565">
        <ele>65.0</ele>
        <time>2021-08-15T13:09:45Z</time>
      </trkpt>
      <trkpt lat="41.710375" lon="2.907527">
        <ele>65.0</ele>
        <time>2021-08-15T13:09:53Z</time>
      </trkpt>
      <trkpt lat="41.71038" lon="2.907527">
        <ele>64.0</ele>
        <time>2021-08-15T13:09:59Z</time>
      </trkpt>
      <trkpt lat="41.71038" lon="2.907527">
        <ele>64.0</ele>
        <time>2021-08-15T13:10:01Z</time>
      </trkpt>
      <trkpt lat="41.710385" lon="2.90756">
        <ele>64.0</ele>
        <time>2021-08-15T13:10:08Z</time>
      </trkpt>
      <trkpt lat="41.710382" lon="2.907565">
        <ele>64.0</ele>
        <time>2021-08-15T13:10:11Z</time>
      </trkpt>
      <trkpt lat="41.710385" lon="2.907575">
        <ele>64.0</ele>
        <time>2021-08-15T13:10:17Z</time>
      </trkpt>
      <trkpt lat="41.71039" lon="2.907577">
        <ele>64.0</ele>
        <time>2021-08-15T13:10:18Z</time>
      </trkpt>
      <trkpt lat="41.710365" lon="2.907555">
        <ele>65.0</ele>
        <time>2021-08-15T13:10:26Z</time>
      </trkpt>
      <trkpt lat="41.710325" lon="2.90756">
        <ele>66.0</ele>
        <time>2021-08-15T13:10:33Z</time>
      </trkpt>
      <trkpt lat="41.710297" lon="2.907593">
        <ele>65.0</ele>
        <time>2021-08-15T13:10:41Z</time>
      </trkpt>
      <trkpt lat="41.710293" lon="2.90766">
        <ele>64.0</ele>
        <time>2021-08-15T13:10:48Z</time>
      </trkpt>
      <trkpt lat="41.710305" lon="2.90765">
        <ele>64.0</ele>
        <time>2021-08-15T13:10:55Z</time>
      </trkpt>
      <trkpt lat="41.710305" lon="2.90764">
        <ele>66.0</ele>
        <time>2021-08-15T13:11:01Z</time>
      </trkpt>
      <trkpt lat="41.71027" lon="2.907667">
        <ele>67.0</ele>
        <time>2021-08-15T13:11:09Z</time>
      </trkpt>
      <trkpt lat="41.710285" lon="2.907588">
        <ele>68.0</ele>
        <time>2021-08-15T13:11:15Z</time>
      </trkpt>
      <trkpt lat="41.71028" lon="2.907598">
        <ele>68.0</ele>
        <time>2021-08-15T13:11:22Z</time>
      </trkpt>
      <trkpt lat="41.71031" lon="2.907572">
        <ele>68.0</ele>
        <time>2021-08-15T13:11:30Z</time>
      </trkpt>
      <trkpt lat="41.71035" lon="2.907545">
        <ele>68.0</ele>
        <time>2021-08-15T13:11:37Z</time>
      </trkpt>
      <trkpt lat="41.71033" lon="2.907545">
        <ele>68.0</ele>
        <time>2021-08-15T13:11:43Z</time>
      </trkpt>
      <trkpt lat="41.71029" lon="2.90758">
        <ele>67.0</ele>
        <time>2021-08-15T13:11:50Z</time>
      </trkpt>
      <trkpt lat="41.710292" lon="2.907555">
        <ele>67.0</ele>
        <time>2021-08-15T13:11:57Z</time>
      </trkpt>
      <trkpt lat="41.71025" lon="2.907485">
        <ele>68.0</ele>
        <time>2021-08-15T13:12:05Z</time>
      </trkpt>
      <trkpt lat="41.710285" lon="2.907485">
        <ele>68.0</ele>
        <time>2021-08-15T13:12:12Z</time>
      </trkpt>
      <trkpt lat="41.71027" lon="2.907515">
        <ele>69.0</ele>
        <time>2021-08-15T13:12:18Z</time>
      </trkpt>
      <trkpt lat="41.710265" lon="2.907567">
        <ele>69.0</ele>
        <time>2021-08-15T13:12:25Z</time>
      </trkpt>
      <trkpt lat="41.710247" lon="2.907585">
        <ele>69.0</ele>
        <time>2021-08-15T13:12:32Z</time>
      </trkpt>
      <trkpt lat="41.710232" lon="2.907595">
        <ele>70.0</ele>
        <time>2021-08-15T13:12:40Z</time>
      </trkpt>
      <trkpt lat="41.71024" lon="2.907588">
        <ele>71.0</ele>
        <time>2021-08-15T13:12:46Z</time>
      </trkpt>
      <trkpt lat="41.710255" lon="2.907602">
        <ele>69.0</ele>
        <time>2021-08-15T13:12:53Z</time>
      </trkpt>
      <trkpt lat="41.71025" lon="2.907592">
        <ele>69.0</ele>
        <time>2021-08-15T13:13:00Z</time>
      </trkpt>
      <trkpt lat="41.710265" lon="2.907612">
        <ele>66.0</ele>
        <time>2021-08-15T13:13:07Z</time>
      </trkpt>
      <trkpt lat="41.710285" lon="2.907617">
        <ele>63.0</ele>
        <time>2021-08-15T13:13:14Z</time>
      </trkpt>
      <trkpt lat="41.710295" lon="2.907635">
        <ele>59.0</ele>
        <time>2021-08-15T13:13:21Z</time>
      </trkpt>
      <trkpt lat="41.710325" lon="2.907592">
        <ele>60.0</ele>
        <time>2021-08-15T13:13:28Z</time>
      </trkpt>
      <trkpt lat="41.710285" lon="2.90761">
        <ele>61.0</ele>
        <time>2021-08-15T13:13:35Z</time>
      </trkpt>
      <trkpt lat="41.710287" lon="2.90762">
        <ele>60.0</ele>
        <time>2021-08-15T13:13:42Z</time>
      </trkpt>
      <trkpt lat="41.710327" lon="2.907618">
        <ele>59.0</ele>
        <time>2021-08-15T13:13:49Z</time>
      </trkpt>
      <trkpt lat="41.71036" lon="2.907602">
        <ele>60.0</ele>
        <time>2021-08-15T13:13:56Z</time>
      </trkpt>
      <trkpt lat="41.71039" lon="2.907545">
        <ele>59.0</ele>
        <time>2021-08-15T13:14:03Z</time>
      </trkpt>
      <trkpt lat="41.710422" lon="2.907555">
        <ele>59.0</ele>
        <time>2021-08-15T13:14:10Z</time>
      </trkpt>
      <trkpt lat="41.710437" lon="2.907575">
        <ele>59.0</ele>
        <time>2021-08-15T13:14:17Z</time>
      </trkpt>
      <trkpt lat="41.710437" lon="2.907605">
        <ele>58.0</ele>
        <time>2021-08-15T13:14:24Z</time>
      </trkpt>
      <trkpt lat="41.710425" lon="2.907575">
        <ele>58.0</ele>
        <time>2021-08-15T13:14:32Z</time>
      </trkpt>
      <trkpt lat="41.710465" lon="2.907555">
        <ele>60.0</ele>
        <time>2021-08-15T13:14:38Z</time>
      </trkpt>
      <trkpt lat="41.71048" lon="2.90752">
        <ele>62.0</ele>
        <time>2021-08-15T13:14:45Z</time>
      </trkpt>
      <trkpt lat="41.710515" lon="2.90757">
        <ele>62.0</ele>
        <time>2021-08-15T13:14:52Z</time>
      </trkpt>
      <trkpt lat="41.710557" lon="2.907533">
        <ele>63.0</ele>
        <time>2021-08-15T13:14:59Z</time>
      </trkpt>
      <trkpt lat="41.71057" lon="2.90754">
        <ele>63.0</ele>
        <time>2021-08-15T13:15:07Z</time>
      </trkpt>
      <trkpt lat="41.710575" lon="2.90754">
        <ele>63.0</ele>
        <time>2021-08-15T13:15:08Z</time>
      </trkpt>
      <trkpt lat="41.7106" lon="2.90752">
        <ele>64.0</ele>
        <time>2021-08-15T13:15:15Z</time>
      </trkpt>
      <trkpt lat="41.71066" lon="2.907507">
        <ele>64.0</ele>
        <time>2021-08-15T13:15:21Z</time>
      </trkpt>
      <trkpt lat="41.71065" lon="2.907532">
        <ele>66.0</ele>
        <time>2021-08-15T13:15:29Z</time>
      </trkpt>
      <trkpt lat="41.710647" lon="2.907572">
        <ele>69.0</ele>
        <time>2021-08-15T13:15:36Z</time>
      </trkpt>
      <trkpt lat="41.71065" lon="2.907567">
        <ele>69.0</ele>
        <time>2021-08-15T13:15:38Z</time>
      </trkpt>
      <trkpt lat="41.71066" lon="2.907592">
        <ele>69.0</ele>
        <time>2021-08-15T13:15:48Z</time>
      </trkpt>
      <trkpt lat="41.71067" lon="2.90764">
        <ele>70.0</ele>
        <time>2021-08-15T13:15:54Z</time>
      </trkpt>
      <trkpt lat="41.710715" lon="2.907692">
        <ele>72.0</ele>
        <time>2021-08-15T13:16:01Z</time>
      </trkpt>
      <trkpt lat="41.71073" lon="2.907692">
        <ele>71.0</ele>
        <time>2021-08-15T13:16:08Z</time>
      </trkpt>
      <trkpt lat="41.710782" lon="2.907723">
        <ele>67.0</ele>
        <time>2021-08-15T13:16:15Z</time>
      </trkpt>
      <trkpt lat="41.710805" lon="2.90774">
        <ele>69.0</ele>
        <time>2021-08-15T13:16:23Z</time>
      </trkpt>
      <trkpt lat="41.710832" lon="2.90775">
        <ele>70.0</ele>
        <time>2021-08-15T13:16:29Z</time>
      </trkpt>
      <trkpt lat="41.710855" lon="2.907795">
        <ele>65.0</ele>
        <time>2021-08-15T13:16:37Z</time>
      </trkpt>
      <trkpt lat="41.7109" lon="2.90784">
        <ele>62.0</ele>
        <time>2021-08-15T13:16:44Z</time>
      </trkpt>
      <trkpt lat="41.710967" lon="2.907857">
        <ele>63.0</ele>
        <time>2021-08-15T13:16:50Z</time>
      </trkpt>
      <trkpt lat="41.711042" lon="2.90784">
        <ele>61.0</ele>
        <time>2021-08-15T13:16:57Z</time>
      </trkpt>
      <trkpt lat="41.71111" lon="2.907797">
        <ele>61.0</ele>
        <time>2021-08-15T13:17:03Z</time>
      </trkpt>
      <trkpt lat="41.711182" lon="2.907765">
        <ele>61.0</ele>
        <time>2021-08-15T13:17:08Z</time>
      </trkpt>
      <trkpt lat="41.71125" lon="2.90773">
        <ele>61.0</ele>
        <time>2021-08-15T13:17:14Z</time>
      </trkpt>
      <trkpt lat="41.711322" lon="2.90773">
        <ele>61.0</ele>
        <time>2021-08-15T13:17:22Z</time>
      </trkpt>
      <trkpt lat="41.711375" lon="2.90776">
        <ele>63.0</ele>
        <time>2021-08-15T13:17:28Z</time>
      </trkpt>
      <trkpt lat="41.711445" lon="2.907722">
        <ele>65.0</ele>
        <time>2021-08-15T13:17:35Z</time>
      </trkpt>
      <trkpt lat="41.711508" lon="2.90774">
        <ele>66.0</ele>
        <time>2021-08-15T13:17:42Z</time>
      </trkpt>
      <trkpt lat="41.711577" lon="2.90775">
        <ele>67.0</ele>
        <time>2021-08-15T13:17:50Z</time>
      </trkpt>
      <trkpt lat="41.711655" lon="2.907698">
        <ele>67.0</ele>
        <time>2021-08-15T13:17:55Z</time>
      </trkpt>
      <trkpt lat="41.711715" lon="2.90771">
        <ele>70.0</ele>
        <time>2021-08-15T13:18:02Z</time>
      </trkpt>
      <trkpt lat="41.711745" lon="2.907618">
        <ele>70.0</ele>
        <time>2021-08-15T13:18:06Z</time>
      </trkpt>
      <trkpt lat="41.711815" lon="2.90758">
        <ele>71.0</ele>
        <time>2021-08-15T13:18:12Z</time>
      </trkpt>
      <trkpt lat="41.711877" lon="2.907523">
        <ele>73.0</ele>
        <time>2021-08-15T13:18:19Z</time>
      </trkpt>
      <trkpt lat="41.71194" lon="2.907435">
        <ele>76.0</ele>
        <time>2021-08-15T13:18:27Z</time>
      </trkpt>
      <trkpt lat="41.711962" lon="2.90734">
        <ele>76.0</ele>
        <time>2021-08-15T13:18:30Z</time>
      </trkpt>
      <trkpt lat="41.711945" lon="2.907235">
        <ele>77.0</ele>
        <time>2021-08-15T13:18:34Z</time>
      </trkpt>
      <trkpt lat="41.711895" lon="2.90715">
        <ele>81.0</ele>
        <time>2021-08-15T13:18:39Z</time>
      </trkpt>
      <trkpt lat="41.711915" lon="2.907053">
        <ele>83.0</ele>
        <time>2021-08-15T13:18:45Z</time>
      </trkpt>
      <trkpt lat="41.711985" lon="2.906993">
        <ele>83.0</ele>
        <time>2021-08-15T13:18:50Z</time>
      </trkpt>
      <trkpt lat="41.71206" lon="2.90696">
        <ele>84.0</ele>
        <time>2021-08-15T13:18:56Z</time>
      </trkpt>
      <trkpt lat="41.71212" lon="2.906945">
        <ele>85.0</ele>
        <time>2021-08-15T13:19:04Z</time>
      </trkpt>
      <trkpt lat="41.712195" lon="2.906898">
        <ele>86.0</ele>
        <time>2021-08-15T13:19:08Z</time>
      </trkpt>
      <trkpt lat="41.712275" lon="2.90687">
        <ele>86.0</ele>
        <time>2021-08-15T13:19:14Z</time>
      </trkpt>
      <trkpt lat="41.712345" lon="2.906897">
        <ele>87.0</ele>
        <time>2021-08-15T13:19:20Z</time>
      </trkpt>
      <trkpt lat="41.712425" lon="2.906915">
        <ele>89.0</ele>
        <time>2021-08-15T13:19:26Z</time>
      </trkpt>
      <trkpt lat="41.712475" lon="2.90699">
        <ele>90.0</ele>
        <time>2021-08-15T13:19:32Z</time>
      </trkpt>
      <trkpt lat="41.7125" lon="2.907085">
        <ele>91.0</ele>
        <time>2021-08-15T13:19:35Z</time>
      </trkpt>
      <trkpt lat="41.712532" lon="2.907182">
        <ele>94.0</ele>
        <time>2021-08-15T13:19:40Z</time>
      </trkpt>
      <trkpt lat="41.712505" lon="2.907252">
        <ele>96.0</ele>
        <time>2021-08-15T13:19:48Z</time>
      </trkpt>
      <trkpt lat="41.712457" lon="2.907337">
        <ele>97.0</ele>
        <time>2021-08-15T13:19:53Z</time>
      </trkpt>
      <trkpt lat="41.71242" lon="2.907425">
        <ele>97.0</ele>
        <time>2021-08-15T13:19:57Z</time>
      </trkpt>
      <trkpt lat="41.7124" lon="2.907507">
        <ele>101.0</ele>
        <time>2021-08-15T13:20:04Z</time>
      </trkpt>
      <trkpt lat="41.71238" lon="2.907615">
        <ele>103.0</ele>
        <time>2021-08-15T13:20:10Z</time>
      </trkpt>
      <trkpt lat="41.712377" lon="2.907737">
        <ele>104.0</ele>
        <time>2021-08-15T13:20:16Z</time>
      </trkpt>
      <trkpt lat="41.71236" lon="2.90784">
        <ele>106.0</ele>
        <time>2021-08-15T13:20:21Z</time>
      </trkpt>
      <trkpt lat="41.712352" lon="2.907935">
        <ele>107.0</ele>
        <time>2021-08-15T13:20:29Z</time>
      </trkpt>
      <trkpt lat="41.712375" lon="2.90803">
        <ele>109.0</ele>
        <time>2021-08-15T13:20:34Z</time>
      </trkpt>
      <trkpt lat="41.712445" lon="2.908095">
        <ele>111.0</ele>
        <time>2021-08-15T13:20:41Z</time>
      </trkpt>
      <trkpt lat="41.712512" lon="2.908047">
        <ele>112.0</ele>
        <time>2021-08-15T13:20:48Z</time>
      </trkpt>
      <trkpt lat="41.712562" lon="2.907975">
        <ele>112.0</ele>
        <time>2021-08-15T13:20:54Z</time>
      </trkpt>
      <trkpt lat="41.712615" lon="2.907885">
        <ele>112.0</ele>
        <time>2021-08-15T13:20:58Z</time>
      </trkpt>
      <trkpt lat="41.712677" lon="2.907815">
        <ele>113.0</ele>
        <time>2021-08-15T13:21:02Z</time>
      </trkpt>
      <trkpt lat="41.71275" lon="2.90776">
        <ele>113.0</ele>
        <time>2021-08-15T13:21:06Z</time>
      </trkpt>
      <trkpt lat="41.7128" lon="2.90768">
        <ele>113.0</ele>
        <time>2021-08-15T13:21:11Z</time>
      </trkpt>
      <trkpt lat="41.71285" lon="2.907603">
        <ele>113.0</ele>
        <time>2021-08-15T13:21:15Z</time>
      </trkpt>
      <trkpt lat="41.7129" lon="2.907502">
        <ele>113.0</ele>
        <time>2021-08-15T13:21:20Z</time>
      </trkpt>
      <trkpt lat="41.71295" lon="2.90742">
        <ele>114.0</ele>
        <time>2021-08-15T13:21:24Z</time>
      </trkpt>
      <trkpt lat="41.712995" lon="2.90733">
        <ele>113.0</ele>
        <time>2021-08-15T13:21:28Z</time>
      </trkpt>
      <trkpt lat="41.713047" lon="2.90726">
        <ele>113.0</ele>
        <time>2021-08-15T13:21:33Z</time>
      </trkpt>
      <trkpt lat="41.71309" lon="2.907167">
        <ele>114.0</ele>
        <time>2021-08-15T13:21:39Z</time>
      </trkpt>
      <trkpt lat="41.71312" lon="2.907075">
        <ele>115.0</ele>
        <time>2021-08-15T13:21:45Z</time>
      </trkpt>
      <trkpt lat="41.71316" lon="2.906968">
        <ele>115.0</ele>
        <time>2021-08-15T13:21:48Z</time>
      </trkpt>
      <trkpt lat="41.713195" lon="2.906885">
        <ele>117.0</ele>
        <time>2021-08-15T13:21:52Z</time>
      </trkpt>
      <trkpt lat="41.713235" lon="2.9068">
        <ele>116.0</ele>
        <time>2021-08-15T13:21:56Z</time>
      </trkpt>
      <trkpt lat="41.71329" lon="2.906708">
        <ele>116.0</ele>
        <time>2021-08-15T13:22:02Z</time>
      </trkpt>
      <trkpt lat="41.713367" lon="2.906655">
        <ele>117.0</ele>
        <time>2021-08-15T13:22:05Z</time>
      </trkpt>
      <trkpt lat="41.71344" lon="2.906612">
        <ele>117.0</ele>
        <time>2021-08-15T13:22:11Z</time>
      </trkpt>
      <trkpt lat="41.713525" lon="2.906595">
        <ele>120.0</ele>
        <time>2021-08-15T13:22:15Z</time>
      </trkpt>
      <trkpt lat="41.7136" lon="2.9066">
        <ele>120.0</ele>
        <time>2021-08-15T13:22:19Z</time>
      </trkpt>
      <trkpt lat="41.713675" lon="2.90657">
        <ele>122.0</ele>
        <time>2021-08-15T13:22:24Z</time>
      </trkpt>
      <trkpt lat="41.71375" lon="2.906565">
        <ele>124.0</ele>
        <time>2021-08-15T13:22:27Z</time>
      </trkpt>
      <trkpt lat="41.713835" lon="2.906545">
        <ele>124.0</ele>
        <time>2021-08-15T13:22:32Z</time>
      </trkpt>
      <trkpt lat="41.71391" lon="2.906535">
        <ele>125.0</ele>
        <time>2021-08-15T13:22:37Z</time>
      </trkpt>
      <trkpt lat="41.713985" lon="2.906505">
        <ele>124.0</ele>
        <time>2021-08-15T13:22:40Z</time>
      </trkpt>
      <trkpt lat="41.71406" lon="2.906475">
        <ele>125.0</ele>
        <time>2021-08-15T13:22:44Z</time>
      </trkpt>
      <trkpt lat="41.714145" lon="2.906435">
        <ele>125.0</ele>
        <time>2021-08-15T13:22:48Z</time>
      </trkpt>
      <trkpt lat="41.714225" lon="2.906415">
        <ele>125.0</ele>
        <time>2021-08-15T13:22:53Z</time>
      </trkpt>
      <trkpt lat="41.714305" lon="2.90642">
        <ele>126.0</ele>
        <time>2021-08-15T13:22:59Z</time>
      </trkpt>
      <trkpt lat="41.714393" lon="2.906462">
        <ele>127.0</ele>
        <time>2021-08-15T13:23:02Z</time>
      </trkpt>
      <trkpt lat="41.714478" lon="2.906537">
        <ele>126.0</ele>
        <time>2021-08-15T13:23:04Z</time>
      </trkpt>
      <trkpt lat="41.714567" lon="2.90661">
        <ele>126.0</ele>
        <time>2021-08-15T13:23:06Z</time>
      </trkpt>
      <trkpt lat="41.71465" lon="2.90667">
        <ele>126.0</ele>
        <time>2021-08-15T13:23:08Z</time>
      </trkpt>
      <trkpt lat="41.714745" lon="2.906712">
        <ele>127.0</ele>
        <time>2021-08-15T13:23:10Z</time>
      </trkpt>
      <trkpt lat="41.714842" lon="2.90675">
        <ele>127.0</ele>
        <time>2021-08-15T13:23:12Z</time>
      </trkpt>
      <trkpt lat="41.71493" lon="2.906783">
        <ele>128.0</ele>
        <time>2021-08-15T13:23:14Z</time>
      </trkpt>
      <trkpt lat="41.715017" lon="2.906817">
        <ele>128.0</ele>
        <time>2021-08-15T13:23:16Z</time>
      </trkpt>
      <trkpt lat="41.71509" lon="2.90682">
        <ele>128.0</ele>
        <time>2021-08-15T13:23:18Z</time>
      </trkpt>
      <trkpt lat="41.715175" lon="2.906822">
        <ele>128.0</ele>
        <time>2021-08-15T13:23:21Z</time>
      </trkpt>
      <trkpt lat="41.715247" lon="2.906845">
        <ele>128.0</ele>
        <time>2021-08-15T13:23:23Z</time>
      </trkpt>
      <trkpt lat="41.71533" lon="2.906855">
        <ele>128.0</ele>
        <time>2021-08-15T13:23:28Z</time>
      </trkpt>
      <trkpt lat="41.7154" lon="2.90683">
        <ele>128.0</ele>
        <time>2021-08-15T13:23:31Z</time>
      </trkpt>
      <trkpt lat="41.71548" lon="2.90684">
        <ele>128.0</ele>
        <time>2021-08-15T13:23:36Z</time>
      </trkpt>
      <trkpt lat="41.715555" lon="2.906832">
        <ele>128.0</ele>
        <time>2021-08-15T13:23:40Z</time>
      </trkpt>
      <trkpt lat="41.715637" lon="2.906825">
        <ele>128.0</ele>
        <time>2021-08-15T13:23:46Z</time>
      </trkpt>
      <trkpt lat="41.715725" lon="2.90684">
        <ele>129.0</ele>
        <time>2021-08-15T13:23:51Z</time>
      </trkpt>
      <trkpt lat="41.715805" lon="2.906807">
        <ele>129.0</ele>
        <time>2021-08-15T13:23:56Z</time>
      </trkpt>
      <trkpt lat="41.715882" lon="2.90678">
        <ele>129.0</ele>
        <time>2021-08-15T13:24:01Z</time>
      </trkpt>
      <trkpt lat="41.715945" lon="2.90673">
        <ele>130.0</ele>
        <time>2021-08-15T13:24:05Z</time>
      </trkpt>
      <trkpt lat="41.716017" lon="2.906695">
        <ele>130.0</ele>
        <time>2021-08-15T13:24:11Z</time>
      </trkpt>
      <trkpt lat="41.71609" lon="2.906665">
        <ele>131.0</ele>
        <time>2021-08-15T13:24:16Z</time>
      </trkpt>
      <trkpt lat="41.716155" lon="2.90662">
        <ele>132.0</ele>
        <time>2021-08-15T13:24:20Z</time>
      </trkpt>
      <trkpt lat="41.716215" lon="2.906565">
        <ele>133.0</ele>
        <time>2021-08-15T13:24:25Z</time>
      </trkpt>
      <trkpt lat="41.716275" lon="2.9065">
        <ele>135.0</ele>
        <time>2021-08-15T13:24:31Z</time>
      </trkpt>
      <trkpt lat="41.716355" lon="2.90646">
        <ele>135.0</ele>
        <time>2021-08-15T13:24:35Z</time>
      </trkpt>
      <trkpt lat="41.71636" lon="2.906515">
        <ele>143.0</ele>
        <time>2021-08-15T13:24:42Z</time>
      </trkpt>
      <trkpt lat="41.71633" lon="2.906608">
        <ele>145.0</ele>
        <time>2021-08-15T13:24:45Z</time>
      </trkpt>
      <trkpt lat="41.716295" lon="2.90672">
        <ele>145.0</ele>
        <time>2021-08-15T13:24:50Z</time>
      </trkpt>
      <trkpt lat="41.71629" lon="2.90683">
        <ele>146.0</ele>
        <time>2021-08-15T13:24:54Z</time>
      </trkpt>
      <trkpt lat="41.716285" lon="2.90693">
        <ele>147.0</ele>
        <time>2021-08-15T13:24:58Z</time>
      </trkpt>
      <trkpt lat="41.716312" lon="2.907025">
        <ele>145.0</ele>
        <time>2021-08-15T13:25:03Z</time>
      </trkpt>
      <trkpt lat="41.71636" lon="2.90711">
        <ele>146.0</ele>
        <time>2021-08-15T13:25:07Z</time>
      </trkpt>
      <trkpt lat="41.7164" lon="2.907193">
        <ele>147.0</ele>
        <time>2021-08-15T13:25:12Z</time>
      </trkpt>
      <trkpt lat="41.716475" lon="2.907245">
        <ele>148.0</ele>
        <time>2021-08-15T13:25:18Z</time>
      </trkpt>
      <trkpt lat="41.71654" lon="2.907288">
        <ele>150.0</ele>
        <time>2021-08-15T13:25:21Z</time>
      </trkpt>
      <trkpt lat="41.716615" lon="2.907347">
        <ele>150.0</ele>
        <time>2021-08-15T13:25:26Z</time>
      </trkpt>
      <trkpt lat="41.71669" lon="2.907375">
        <ele>151.0</ele>
        <time>2021-08-15T13:25:32Z</time>
      </trkpt>
      <trkpt lat="41.71676" lon="2.907408">
        <ele>152.0</ele>
        <time>2021-08-15T13:25:35Z</time>
      </trkpt>
      <trkpt lat="41.716845" lon="2.907435">
        <ele>152.0</ele>
        <time>2021-08-15T13:25:40Z</time>
      </trkpt>
      <trkpt lat="41.716917" lon="2.907457">
        <ele>152.0</ele>
        <time>2021-08-15T13:25:44Z</time>
      </trkpt>
      <trkpt lat="41.716995" lon="2.907452">
        <ele>152.0</ele>
        <time>2021-08-15T13:25:49Z</time>
      </trkpt>
      <trkpt lat="41.71707" lon="2.90747">
        <ele>152.0</ele>
        <time>2021-08-15T13:25:53Z</time>
      </trkpt>
      <trkpt lat="41.717155" lon="2.90747">
        <ele>153.0</ele>
        <time>2021-08-15T13:25:58Z</time>
      </trkpt>
      <trkpt lat="41.717235" lon="2.907477">
        <ele>153.0</ele>
        <time>2021-08-15T13:26:02Z</time>
      </trkpt>
      <trkpt lat="41.717312" lon="2.907447">
        <ele>153.0</ele>
        <time>2021-08-15T13:26:07Z</time>
      </trkpt>
      <trkpt lat="41.717395" lon="2.907405">
        <ele>154.0</ele>
        <time>2021-08-15T13:26:11Z</time>
      </trkpt>
      <trkpt lat="41.717475" lon="2.907365">
        <ele>154.0</ele>
        <time>2021-08-15T13:26:14Z</time>
      </trkpt>
      <trkpt lat="41.717545" lon="2.907317">
        <ele>154.0</ele>
        <time>2021-08-15T13:26:18Z</time>
      </trkpt>
      <trkpt lat="41.717615" lon="2.90728">
        <ele>154.0</ele>
        <time>2021-08-15T13:26:21Z</time>
      </trkpt>
      <trkpt lat="41.717685" lon="2.907232">
        <ele>154.0</ele>
        <time>2021-08-15T13:26:24Z</time>
      </trkpt>
      <trkpt lat="41.717755" lon="2.90719">
        <ele>154.0</ele>
        <time>2021-08-15T13:26:28Z</time>
      </trkpt>
      <trkpt lat="41.717855" lon="2.90718">
        <ele>154.0</ele>
        <time>2021-08-15T13:26:31Z</time>
      </trkpt>
      <trkpt lat="41.717925" lon="2.907205">
        <ele>153.0</ele>
        <time>2021-08-15T13:26:34Z</time>
      </trkpt>
      <trkpt lat="41.718002" lon="2.907225">
        <ele>153.0</ele>
        <time>2021-08-15T13:26:38Z</time>
      </trkpt>
      <trkpt lat="41.718085" lon="2.90723">
        <ele>153.0</ele>
        <time>2021-08-15T13:26:42Z</time>
      </trkpt>
      <trkpt lat="41.718165" lon="2.90722">
        <ele>154.0</ele>
        <time>2021-08-15T13:26:46Z</time>
      </trkpt>
      <trkpt lat="41.718242" lon="2.907195">
        <ele>155.0</ele>
        <time>2021-08-15T13:26:51Z</time>
      </trkpt>
      <trkpt lat="41.71833" lon="2.90718">
        <ele>156.0</ele>
        <time>2021-08-15T13:26:54Z</time>
      </trkpt>
      <trkpt lat="41.718417" lon="2.907147">
        <ele>156.0</ele>
        <time>2021-08-15T13:26:58Z</time>
      </trkpt>
      <trkpt lat="41.71851" lon="2.907165">
        <ele>156.0</ele>
        <time>2021-08-15T13:27:02Z</time>
      </trkpt>
      <trkpt lat="41.71858" lon="2.9072">
        <ele>157.0</ele>
        <time>2021-08-15T13:27:05Z</time>
      </trkpt>
      <trkpt lat="41.71865" lon="2.90723">
        <ele>157.0</ele>
        <time>2021-08-15T13:27:08Z</time>
      </trkpt>
      <trkpt lat="41.71872" lon="2.90727">
        <ele>157.0</ele>
        <time>2021-08-15T13:27:13Z</time>
      </trkpt>
      <trkpt lat="41.718783" lon="2.907332">
        <ele>158.0</ele>
        <time>2021-08-15T13:27:17Z</time>
      </trkpt>
      <trkpt lat="41.71884" lon="2.9074">
        <ele>157.0</ele>
        <time>2021-08-15T13:27:20Z</time>
      </trkpt>
      <trkpt lat="41.71888" lon="2.907482">
        <ele>158.0</ele>
        <time>2021-08-15T13:27:23Z</time>
      </trkpt>
      <trkpt lat="41.718927" lon="2.90758">
        <ele>159.0</ele>
        <time>2021-08-15T13:27:27Z</time>
      </trkpt>
      <trkpt lat="41.71899" lon="2.90767">
        <ele>162.0</ele>
        <time>2021-08-15T13:27:32Z</time>
      </trkpt>
      <trkpt lat="41.71902" lon="2.90777">
        <ele>163.0</ele>
        <time>2021-08-15T13:27:36Z</time>
      </trkpt>
      <trkpt lat="41.719052" lon="2.90787">
        <ele>163.0</ele>
        <time>2021-08-15T13:27:40Z</time>
      </trkpt>
      <trkpt lat="41.719097" lon="2.90796">
        <ele>167.0</ele>
        <time>2021-08-15T13:27:46Z</time>
      </trkpt>
      <trkpt lat="41.719105" lon="2.908057">
        <ele>172.0</ele>
        <time>2021-08-15T13:27:51Z</time>
      </trkpt>
      <trkpt lat="41.71912" lon="2.908127">
        <ele>174.0</ele>
        <time>2021-08-15T13:27:58Z</time>
      </trkpt>
      <trkpt lat="41.719155" lon="2.908175">
        <ele>179.0</ele>
        <time>2021-08-15T13:28:05Z</time>
      </trkpt>
      <trkpt lat="41.719157" lon="2.90817">
        <ele>179.0</ele>
        <time>2021-08-15T13:28:12Z</time>
      </trkpt>
      <trkpt lat="41.71915" lon="2.908168">
        <ele>179.0</ele>
        <time>2021-08-15T13:28:19Z</time>
      </trkpt>
      <trkpt lat="41.719152" lon="2.908152">
        <ele>180.0</ele>
        <time>2021-08-15T13:28:26Z</time>
      </trkpt>
      <trkpt lat="41.719155" lon="2.908155">
        <ele>180.0</ele>
        <time>2021-08-15T13:28:31Z</time>
      </trkpt>
      <trkpt lat="41.719155" lon="2.90818">
        <ele>179.0</ele>
        <time>2021-08-15T13:28:41Z</time>
      </trkpt>
      <trkpt lat="41.719162" lon="2.908168">
        <ele>180.0</ele>
        <time>2021-08-15T13:28:47Z</time>
      </trkpt>
      <trkpt lat="41.719145" lon="2.90816">
        <ele>180.0</ele>
        <time>2021-08-15T13:28:55Z</time>
      </trkpt>
      <trkpt lat="41.719158" lon="2.90819">
        <ele>180.0</ele>
        <time>2021-08-15T13:29:01Z</time>
      </trkpt>
      <trkpt lat="41.71917" lon="2.908185">
        <ele>181.0</ele>
        <time>2021-08-15T13:29:08Z</time>
      </trkpt>
      <trkpt lat="41.719155" lon="2.908205">
        <ele>180.0</ele>
        <time>2021-08-15T13:29:15Z</time>
      </trkpt>
      <trkpt lat="41.71915" lon="2.908195">
        <ele>179.0</ele>
        <time>2021-08-15T13:29:22Z</time>
      </trkpt>
      <trkpt lat="41.71913" lon="2.908182">
        <ele>178.0</ele>
        <time>2021-08-15T13:29:29Z</time>
      </trkpt>
      <trkpt lat="41.719135" lon="2.908185">
        <ele>178.0</ele>
        <time>2021-08-15T13:29:36Z</time>
      </trkpt>
      <trkpt lat="41.71913" lon="2.90816">
        <ele>178.0</ele>
        <time>2021-08-15T13:29:43Z</time>
      </trkpt>
      <trkpt lat="41.719102" lon="2.908165">
        <ele>178.0</ele>
        <time>2021-08-15T13:29:50Z</time>
      </trkpt>
      <trkpt lat="41.71912" lon="2.90818">
        <ele>178.0</ele>
        <time>2021-08-15T13:29:57Z</time>
      </trkpt>
      <trkpt lat="41.719122" lon="2.908177">
        <ele>180.0</ele>
        <time>2021-08-15T13:30:04Z</time>
      </trkpt>
      <trkpt lat="41.719145" lon="2.90821">
        <ele>181.0</ele>
        <time>2021-08-15T13:30:11Z</time>
      </trkpt>
      <trkpt lat="41.719197" lon="2.908205">
        <ele>182.0</ele>
        <time>2021-08-15T13:30:18Z</time>
      </trkpt>
      <trkpt lat="41.719205" lon="2.9082">
        <ele>182.0</ele>
        <time>2021-08-15T13:30:25Z</time>
      </trkpt>
      <trkpt lat="41.719225" lon="2.908195">
        <ele>182.0</ele>
        <time>2021-08-15T13:30:32Z</time>
      </trkpt>
      <trkpt lat="41.719225" lon="2.908195">
        <ele>182.0</ele>
        <time>2021-08-15T13:30:35Z</time>
      </trkpt>
      <trkpt lat="41.71921" lon="2.908177">
        <ele>184.0</ele>
        <time>2021-08-15T13:30:45Z</time>
      </trkpt>
      <trkpt lat="41.719205" lon="2.908185">
        <ele>183.0</ele>
        <time>2021-08-15T13:30:53Z</time>
      </trkpt>
      <trkpt lat="41.7192" lon="2.90817">
        <ele>183.0</ele>
        <time>2021-08-15T13:30:59Z</time>
      </trkpt>
      <trkpt lat="41.7192" lon="2.908175">
        <ele>182.0</ele>
        <time>2021-08-15T13:31:06Z</time>
      </trkpt>
      <trkpt lat="41.7192" lon="2.90819">
        <ele>180.0</ele>
        <time>2021-08-15T13:31:28Z</time>
      </trkpt>
      <trkpt lat="41.719212" lon="2.908182">
        <ele>180.0</ele>
        <time>2021-08-15T13:31:36Z</time>
      </trkpt>
      <trkpt lat="41.719225" lon="2.908177">
        <ele>180.0</ele>
        <time>2021-08-15T13:31:42Z</time>
      </trkpt>
      <trkpt lat="41.719212" lon="2.908177">
        <ele>180.0</ele>
        <time>2021-08-15T13:31:47Z</time>
      </trkpt>
      <trkpt lat="41.71921" lon="2.908115">
        <ele>180.0</ele>
        <time>2021-08-15T13:31:56Z</time>
      </trkpt>
      <trkpt lat="41.719245" lon="2.908025">
        <ele>179.0</ele>
        <time>2021-08-15T13:32:00Z</time>
      </trkpt>
      <trkpt lat="41.719265" lon="2.90793">
        <ele>178.0</ele>
        <time>2021-08-15T13:32:03Z</time>
      </trkpt>
      <trkpt lat="41.719287" lon="2.90782">
        <ele>177.0</ele>
        <time>2021-08-15T13:32:08Z</time>
      </trkpt>
      <trkpt lat="41.719302" lon="2.90772">
        <ele>177.0</ele>
        <time>2021-08-15T13:32:13Z</time>
      </trkpt>
      <trkpt lat="41.71932" lon="2.907618">
        <ele>178.0</ele>
        <time>2021-08-15T13:32:18Z</time>
      </trkpt>
      <trkpt lat="41.71934" lon="2.907515">
        <ele>178.0</ele>
        <time>2021-08-15T13:32:24Z</time>
      </trkpt>
      <trkpt lat="41.719355" lon="2.907405">
        <ele>179.0</ele>
        <time>2021-08-15T13:32:28Z</time>
      </trkpt>
      <trkpt lat="41.719355" lon="2.9073">
        <ele>180.0</ele>
        <time>2021-08-15T13:32:33Z</time>
      </trkpt>
      <trkpt lat="41.719365" lon="2.907183">
        <ele>179.0</ele>
        <time>2021-08-15T13:32:38Z</time>
      </trkpt>
      <trkpt lat="41.71937" lon="2.907078">
        <ele>179.0</ele>
        <time>2021-08-15T13:32:44Z</time>
      </trkpt>
      <trkpt lat="41.719355" lon="2.906975">
        <ele>180.0</ele>
        <time>2021-08-15T13:32:49Z</time>
      </trkpt>
      <trkpt lat="41.719337" lon="2.90686">
        <ele>180.0</ele>
        <time>2021-08-15T13:32:54Z</time>
      </trkpt>
      <trkpt lat="41.719327" lon="2.906738">
        <ele>181.0</ele>
        <time>2021-08-15T13:32:58Z</time>
      </trkpt>
      <trkpt lat="41.719312" lon="2.906617">
        <ele>181.0</ele>
        <time>2021-08-15T13:33:01Z</time>
      </trkpt>
      <trkpt lat="41.71927" lon="2.906518">
        <ele>182.0</ele>
        <time>2021-08-15T13:33:05Z</time>
      </trkpt>
      <trkpt lat="41.719225" lon="2.90643">
        <ele>182.0</ele>
        <time>2021-08-15T13:33:10Z</time>
      </trkpt>
      <trkpt lat="41.71919" lon="2.90634">
        <ele>181.0</ele>
        <time>2021-08-15T13:33:12Z</time>
      </trkpt>
      <trkpt lat="41.71916" lon="2.906227">
        <ele>181.0</ele>
        <time>2021-08-15T13:33:16Z</time>
      </trkpt>
      <trkpt lat="41.71915" lon="2.906125">
        <ele>181.0</ele>
        <time>2021-08-15T13:33:19Z</time>
      </trkpt>
      <trkpt lat="41.71916" lon="2.906008">
        <ele>180.0</ele>
        <time>2021-08-15T13:33:23Z</time>
      </trkpt>
      <trkpt lat="41.7192" lon="2.905905">
        <ele>182.0</ele>
        <time>2021-08-15T13:33:27Z</time>
      </trkpt>
      <trkpt lat="41.71924" lon="2.905815">
        <ele>183.0</ele>
        <time>2021-08-15T13:33:31Z</time>
      </trkpt>
      <trkpt lat="41.71929" lon="2.905712">
        <ele>182.0</ele>
        <time>2021-08-15T13:33:35Z</time>
      </trkpt>
      <trkpt lat="41.719325" lon="2.905605">
        <ele>182.0</ele>
        <time>2021-08-15T13:33:39Z</time>
      </trkpt>
      <trkpt lat="41.719355" lon="2.905495">
        <ele>182.0</ele>
        <time>2021-08-15T13:33:43Z</time>
      </trkpt>
      <trkpt lat="41.7194" lon="2.9054">
        <ele>181.0</ele>
        <time>2021-08-15T13:33:47Z</time>
      </trkpt>
      <trkpt lat="41.71943" lon="2.90529">
        <ele>181.0</ele>
        <time>2021-08-15T13:33:52Z</time>
      </trkpt>
      <trkpt lat="41.719472" lon="2.905202">
        <ele>180.0</ele>
        <time>2021-08-15T13:33:55Z</time>
      </trkpt>
      <trkpt lat="41.71951" lon="2.905117">
        <ele>180.0</ele>
        <time>2021-08-15T13:33:59Z</time>
      </trkpt>
      <trkpt lat="41.719522" lon="2.905007">
        <ele>180.0</ele>
        <time>2021-08-15T13:34:04Z</time>
      </trkpt>
      <trkpt lat="41.719543" lon="2.904915">
        <ele>180.0</ele>
        <time>2021-08-15T13:34:06Z</time>
      </trkpt>
      <trkpt lat="41.71961" lon="2.904845">
        <ele>180.0</ele>
        <time>2021-08-15T13:34:11Z</time>
      </trkpt>
      <trkpt lat="41.719695" lon="2.904805">
        <ele>180.0</ele>
        <time>2021-08-15T13:34:15Z</time>
      </trkpt>
      <trkpt lat="41.719775" lon="2.90478">
        <ele>181.0</ele>
        <time>2021-08-15T13:34:21Z</time>
      </trkpt>
      <trkpt lat="41.71979" lon="2.904742">
        <ele>181.0</ele>
        <time>2021-08-15T13:34:27Z</time>
      </trkpt>
      <trkpt lat="41.719775" lon="2.904765">
        <ele>181.0</ele>
        <time>2021-08-15T13:34:35Z</time>
      </trkpt>
      <trkpt lat="41.719795" lon="2.904715">
        <ele>185.0</ele>
        <time>2021-08-15T13:34:41Z</time>
      </trkpt>
      <trkpt lat="41.71979" lon="2.90471">
        <ele>191.0</ele>
        <time>2021-08-15T13:34:49Z</time>
      </trkpt>
      <trkpt lat="41.71979" lon="2.90471">
        <ele>191.0</ele>
        <time>2021-08-15T13:34:54Z</time>
      </trkpt>
      <trkpt lat="41.719768" lon="2.904695">
        <ele>193.0</ele>
        <time>2021-08-15T13:36:04Z</time>
      </trkpt>
      <trkpt lat="41.719763" lon="2.904673">
        <ele>193.0</ele>
        <time>2021-08-15T13:36:12Z</time>
      </trkpt>
      <trkpt lat="41.719762" lon="2.904682">
        <ele>194.0</ele>
        <time>2021-08-15T13:36:17Z</time>
      </trkpt>
      <trkpt lat="41.719783" lon="2.904648">
        <ele>196.0</ele>
        <time>2021-08-15T13:37:06Z</time>
      </trkpt>
      <trkpt lat="41.7198" lon="2.90459">
        <ele>197.0</ele>
        <time>2021-08-15T13:37:13Z</time>
      </trkpt>
      <trkpt lat="41.719817" lon="2.90453">
        <ele>198.0</ele>
        <time>2021-08-15T13:37:21Z</time>
      </trkpt>
      <trkpt lat="41.719845" lon="2.904457">
        <ele>199.0</ele>
        <time>2021-08-15T13:37:27Z</time>
      </trkpt>
      <trkpt lat="41.719877" lon="2.90437">
        <ele>200.0</ele>
        <time>2021-08-15T13:37:34Z</time>
      </trkpt>
      <trkpt lat="41.71989" lon="2.90429">
        <ele>200.0</ele>
        <time>2021-08-15T13:37:42Z</time>
      </trkpt>
      <trkpt lat="41.719915" lon="2.904215">
        <ele>201.0</ele>
        <time>2021-08-15T13:37:48Z</time>
      </trkpt>
      <trkpt lat="41.719935" lon="2.904155">
        <ele>202.0</ele>
        <time>2021-08-15T13:37:56Z</time>
      </trkpt>
      <trkpt lat="41.719925" lon="2.904085">
        <ele>204.0</ele>
        <time>2021-08-15T13:38:03Z</time>
      </trkpt>
      <trkpt lat="41.719922" lon="2.904">
        <ele>206.0</ele>
        <time>2021-08-15T13:38:09Z</time>
      </trkpt>
      <trkpt lat="41.719917" lon="2.903955">
        <ele>206.0</ele>
        <time>2021-08-15T13:38:16Z</time>
      </trkpt>
      <trkpt lat="41.719925" lon="2.903875">
        <ele>206.0</ele>
        <time>2021-08-15T13:38:24Z</time>
      </trkpt>
      <trkpt lat="41.719925" lon="2.903832">
        <ele>206.0</ele>
        <time>2021-08-15T13:38:30Z</time>
      </trkpt>
      <trkpt lat="41.71991" lon="2.90378">
        <ele>207.0</ele>
        <time>2021-08-15T13:38:37Z</time>
      </trkpt>
      <trkpt lat="41.719918" lon="2.903695">
        <ele>210.0</ele>
        <time>2021-08-15T13:38:44Z</time>
      </trkpt>
      <trkpt lat="41.719915" lon="2.903625">
        <ele>211.0</ele>
        <time>2021-08-15T13:38:52Z</time>
      </trkpt>
      <trkpt lat="41.719905" lon="2.903552">
        <ele>211.0</ele>
        <time>2021-08-15T13:38:58Z</time>
      </trkpt>
      <trkpt lat="41.719882" lon="2.90346">
        <ele>212.0</ele>
        <time>2021-08-15T13:39:05Z</time>
      </trkpt>
      <trkpt lat="41.719853" lon="2.903385">
        <ele>211.0</ele>
        <time>2021-08-15T13:39:12Z</time>
      </trkpt>
      <trkpt lat="41.719825" lon="2.90335">
        <ele>213.0</ele>
        <time>2021-08-15T13:39:19Z</time>
      </trkpt>
      <trkpt lat="41.7198" lon="2.903297">
        <ele>215.0</ele>
        <time>2021-08-15T13:39:27Z</time>
      </trkpt>
      <trkpt lat="41.71978" lon="2.90325">
        <ele>215.0</ele>
        <time>2021-08-15T13:39:34Z</time>
      </trkpt>
      <trkpt lat="41.719737" lon="2.903192">
        <ele>217.0</ele>
        <time>2021-08-15T13:39:41Z</time>
      </trkpt>
      <trkpt lat="41.71972" lon="2.90317">
        <ele>218.0</ele>
        <time>2021-08-15T13:39:47Z</time>
      </trkpt>
      <trkpt lat="41.719722" lon="2.903158">
        <ele>218.0</ele>
        <time>2021-08-15T13:39:54Z</time>
      </trkpt>
      <trkpt lat="41.71974" lon="2.903107">
        <ele>218.0</ele>
        <time>2021-08-15T13:40:01Z</time>
      </trkpt>
      <trkpt lat="41.719755" lon="2.902995">
        <ele>219.0</ele>
        <time>2021-08-15T13:40:06Z</time>
      </trkpt>
      <trkpt lat="41.71975" lon="2.90289">
        <ele>217.0</ele>
        <time>2021-08-15T13:40:12Z</time>
      </trkpt>
      <trkpt lat="41.71976" lon="2.902782">
        <ele>217.0</ele>
        <time>2021-08-15T13:40:17Z</time>
      </trkpt>
      <trkpt lat="41.719777" lon="2.902685">
        <ele>218.0</ele>
        <time>2021-08-15T13:40:24Z</time>
      </trkpt>
      <trkpt lat="41.71979" lon="2.902577">
        <ele>220.0</ele>
        <time>2021-08-15T13:40:28Z</time>
      </trkpt>
      <trkpt lat="41.71981" lon="2.902483">
        <ele>221.0</ele>
        <time>2021-08-15T13:40:33Z</time>
      </trkpt>
      <trkpt lat="41.719792" lon="2.90238">
        <ele>223.0</ele>
        <time>2021-08-15T13:40:39Z</time>
      </trkpt>
      <trkpt lat="41.71976" lon="2.902285">
        <ele>223.0</ele>
        <time>2021-08-15T13:40:45Z</time>
      </trkpt>
      <trkpt lat="41.719745" lon="2.902185">
        <ele>226.0</ele>
        <time>2021-08-15T13:40:50Z</time>
      </trkpt>
      <trkpt lat="41.719715" lon="2.902085">
        <ele>229.0</ele>
        <time>2021-08-15T13:40:55Z</time>
      </trkpt>
      <trkpt lat="41.71969" lon="2.901985">
        <ele>230.0</ele>
        <time>2021-08-15T13:41:00Z</time>
      </trkpt>
      <trkpt lat="41.71969" lon="2.90196">
        <ele>229.0</ele>
        <time>2021-08-15T13:41:06Z</time>
      </trkpt>
      <trkpt lat="41.71969" lon="2.90196">
        <ele>229.0</ele>
        <time>2021-08-15T13:41:08Z</time>
      </trkpt>
      <trkpt lat="41.71969" lon="2.901925">
        <ele>228.0</ele>
        <time>2021-08-15T13:41:17Z</time>
      </trkpt>
      <trkpt lat="41.71969" lon="2.901925">
        <ele>228.0</ele>
        <time>2021-08-15T13:41:18Z</time>
      </trkpt>
      <trkpt lat="41.71969" lon="2.901902">
        <ele>227.0</ele>
        <time>2021-08-15T13:41:30Z</time>
      </trkpt>
      <trkpt lat="41.71969" lon="2.901902">
        <ele>227.0</ele>
        <time>2021-08-15T13:41:31Z</time>
      </trkpt>
      <trkpt lat="41.719683" lon="2.90189">
        <ele>226.0</ele>
        <time>2021-08-15T13:42:35Z</time>
      </trkpt>
      <trkpt lat="41.719683" lon="2.90189">
        <ele>226.0</ele>
        <time>2021-08-15T13:42:36Z</time>
      </trkpt>
      <trkpt lat="41.719645" lon="2.901802">
        <ele>228.0</ele>
        <time>2021-08-15T13:42:48Z</time>
      </trkpt>
      <trkpt lat="41.71962" lon="2.9017">
        <ele>228.0</ele>
        <time>2021-08-15T13:42:53Z</time>
      </trkpt>
      <trkpt lat="41.719595" lon="2.901605">
        <ele>229.0</ele>
        <time>2021-08-15T13:42:58Z</time>
      </trkpt>
      <trkpt lat="41.719565" lon="2.901502">
        <ele>229.0</ele>
        <time>2021-08-15T13:43:03Z</time>
      </trkpt>
      <trkpt lat="41.719537" lon="2.901382">
        <ele>228.0</ele>
        <time>2021-08-15T13:43:08Z</time>
      </trkpt>
      <trkpt lat="41.719535" lon="2.901262">
        <ele>228.0</ele>
        <time>2021-08-15T13:43:11Z</time>
      </trkpt>
      <trkpt lat="41.719525" lon="2.901125">
        <ele>229.0</ele>
        <time>2021-08-15T13:43:14Z</time>
      </trkpt>
      <trkpt lat="41.71955" lon="2.901002">
        <ele>229.0</ele>
        <time>2021-08-15T13:43:16Z</time>
      </trkpt>
      <trkpt lat="41.719575" lon="2.90085">
        <ele>228.0</ele>
        <time>2021-08-15T13:43:18Z</time>
      </trkpt>
      <trkpt lat="41.71959" lon="2.900702">
        <ele>228.0</ele>
        <time>2021-08-15T13:43:19Z</time>
      </trkpt>
      <trkpt lat="41.719597" lon="2.900585">
        <ele>226.0</ele>
        <time>2021-08-15T13:43:22Z</time>
      </trkpt>
      <trkpt lat="41.71961" lon="2.90047">
        <ele>226.0</ele>
        <time>2021-08-15T13:43:24Z</time>
      </trkpt>
      <trkpt lat="41.719625" lon="2.900375">
        <ele>226.0</ele>
        <time>2021-08-15T13:43:28Z</time>
      </trkpt>
      <trkpt lat="41.719645" lon="2.900277">
        <ele>227.0</ele>
        <time>2021-08-15T13:43:31Z</time>
      </trkpt>
      <trkpt lat="41.719665" lon="2.90018">
        <ele>227.0</ele>
        <time>2021-08-15T13:43:34Z</time>
      </trkpt>
      <trkpt lat="41.71969" lon="2.900065">
        <ele>226.0</ele>
        <time>2021-08-15T13:43:38Z</time>
      </trkpt>
      <trkpt lat="41.719687" lon="2.89995">
        <ele>226.0</ele>
        <time>2021-08-15T13:43:41Z</time>
      </trkpt>
      <trkpt lat="41.719705" lon="2.899855">
        <ele>225.0</ele>
        <time>2021-08-15T13:43:45Z</time>
      </trkpt>
      <trkpt lat="41.71974" lon="2.899755">
        <ele>225.0</ele>
        <time>2021-08-15T13:43:48Z</time>
      </trkpt>
      <trkpt lat="41.719795" lon="2.89969">
        <ele>224.0</ele>
        <time>2021-08-15T13:43:53Z</time>
      </trkpt>
      <trkpt lat="41.719815" lon="2.899585">
        <ele>222.0</ele>
        <time>2021-08-15T13:43:56Z</time>
      </trkpt>
      <trkpt lat="41.71983" lon="2.899453">
        <ele>222.0</ele>
        <time>2021-08-15T13:43:59Z</time>
      </trkpt>
      <trkpt lat="41.719865" lon="2.899315">
        <ele>220.0</ele>
        <time>2021-08-15T13:44:01Z</time>
      </trkpt>
      <trkpt lat="41.71987" lon="2.899167">
        <ele>220.0</ele>
        <time>2021-08-15T13:44:03Z</time>
      </trkpt>
      <trkpt lat="41.719822" lon="2.899065">
        <ele>220.0</ele>
        <time>2021-08-15T13:44:05Z</time>
      </trkpt>
      <trkpt lat="41.719768" lon="2.898955">
        <ele>220.0</ele>
        <time>2021-08-15T13:44:08Z</time>
      </trkpt>
      <trkpt lat="41.71975" lon="2.898855">
        <ele>220.0</ele>
        <time>2021-08-15T13:44:10Z</time>
      </trkpt>
      <trkpt lat="41.719732" lon="2.898745">
        <ele>220.0</ele>
        <time>2021-08-15T13:44:12Z</time>
      </trkpt>
      <trkpt lat="41.719697" lon="2.898615">
        <ele>220.0</ele>
        <time>2021-08-15T13:44:15Z</time>
      </trkpt>
      <trkpt lat="41.719655" lon="2.898485">
        <ele>220.0</ele>
        <time>2021-08-15T13:44:17Z</time>
      </trkpt>
      <trkpt lat="41.71962" lon="2.898357">
        <ele>221.0</ele>
        <time>2021-08-15T13:44:21Z</time>
      </trkpt>
      <trkpt lat="41.71958" lon="2.898245">
        <ele>220.0</ele>
        <time>2021-08-15T13:44:24Z</time>
      </trkpt>
      <trkpt lat="41.719515" lon="2.898155">
        <ele>220.0</ele>
        <time>2021-08-15T13:44:28Z</time>
      </trkpt>
      <trkpt lat="41.719457" lon="2.898045">
        <ele>221.0</ele>
        <time>2021-08-15T13:44:30Z</time>
      </trkpt>
      <trkpt lat="41.719402" lon="2.897922">
        <ele>221.0</ele>
        <time>2021-08-15T13:44:33Z</time>
      </trkpt>
      <trkpt lat="41.71936" lon="2.897842">
        <ele>221.0</ele>
        <time>2021-08-15T13:44:36Z</time>
      </trkpt>
      <trkpt lat="41.71929" lon="2.89777">
        <ele>220.0</ele>
        <time>2021-08-15T13:44:38Z</time>
      </trkpt>
      <trkpt lat="41.719205" lon="2.897745">
        <ele>220.0</ele>
        <time>2021-08-15T13:44:41Z</time>
      </trkpt>
      <trkpt lat="41.719135" lon="2.89776">
        <ele>220.0</ele>
        <time>2021-08-15T13:44:44Z</time>
      </trkpt>
      <trkpt lat="41.719025" lon="2.897785">
        <ele>219.0</ele>
        <time>2021-08-15T13:44:46Z</time>
      </trkpt>
      <trkpt lat="41.71892" lon="2.897795">
        <ele>219.0</ele>
        <time>2021-08-15T13:44:48Z</time>
      </trkpt>
      <trkpt lat="41.718825" lon="2.897805">
        <ele>219.0</ele>
        <time>2021-08-15T13:44:50Z</time>
      </trkpt>
      <trkpt lat="41.71873" lon="2.897818">
        <ele>219.0</ele>
        <time>2021-08-15T13:44:52Z</time>
      </trkpt>
      <trkpt lat="41.718628" lon="2.897805">
        <ele>218.0</ele>
        <time>2021-08-15T13:44:55Z</time>
      </trkpt>
      <trkpt lat="41.718527" lon="2.897772">
        <ele>215.0</ele>
        <time>2021-08-15T13:44:59Z</time>
      </trkpt>
      <trkpt lat="41.718435" lon="2.897745">
        <ele>214.0</ele>
        <time>2021-08-15T13:45:02Z</time>
      </trkpt>
      <trkpt lat="41.71835" lon="2.897695">
        <ele>213.0</ele>
        <time>2021-08-15T13:45:05Z</time>
      </trkpt>
      <trkpt lat="41.71827" lon="2.8976">
        <ele>212.0</ele>
        <time>2021-08-15T13:45:07Z</time>
      </trkpt>
      <trkpt lat="41.71821" lon="2.89753">
        <ele>212.0</ele>
        <time>2021-08-15T13:45:10Z</time>
      </trkpt>
      <trkpt lat="41.71815" lon="2.89745">
        <ele>211.0</ele>
        <time>2021-08-15T13:45:12Z</time>
      </trkpt>
      <trkpt lat="41.7181" lon="2.89734">
        <ele>210.0</ele>
        <time>2021-08-15T13:45:14Z</time>
      </trkpt>
      <trkpt lat="41.71808" lon="2.897195">
        <ele>209.0</ele>
        <time>2021-08-15T13:45:17Z</time>
      </trkpt>
      <trkpt lat="41.718077" lon="2.897065">
        <ele>208.0</ele>
        <time>2021-08-15T13:45:19Z</time>
      </trkpt>
      <trkpt lat="41.718072" lon="2.896935">
        <ele>206.0</ele>
        <time>2021-08-15T13:45:21Z</time>
      </trkpt>
      <trkpt lat="41.71806" lon="2.896815">
        <ele>205.0</ele>
        <time>2021-08-15T13:45:24Z</time>
      </trkpt>
      <trkpt lat="41.718045" lon="2.896682">
        <ele>204.0</ele>
        <time>2021-08-15T13:45:25Z</time>
      </trkpt>
      <trkpt lat="41.71801" lon="2.89655">
        <ele>203.0</ele>
        <time>2021-08-15T13:45:28Z</time>
      </trkpt>
      <trkpt lat="41.71796" lon="2.896445">
        <ele>202.0</ele>
        <time>2021-08-15T13:45:29Z</time>
      </trkpt>
      <trkpt lat="41.71789" lon="2.89637">
        <ele>202.0</ele>
        <time>2021-08-15T13:45:32Z</time>
      </trkpt>
      <trkpt lat="41.71779" lon="2.89638">
        <ele>202.0</ele>
        <time>2021-08-15T13:45:36Z</time>
      </trkpt>
      <trkpt lat="41.717695" lon="2.89643">
        <ele>201.0</ele>
        <time>2021-08-15T13:45:37Z</time>
      </trkpt>
      <trkpt lat="41.71762" lon="2.896492">
        <ele>200.0</ele>
        <time>2021-08-15T13:45:40Z</time>
      </trkpt>
      <trkpt lat="41.717545" lon="2.896545">
        <ele>199.0</ele>
        <time>2021-08-15T13:45:42Z</time>
      </trkpt>
      <trkpt lat="41.71746" lon="2.896615">
        <ele>198.0</ele>
        <time>2021-08-15T13:45:45Z</time>
      </trkpt>
      <trkpt lat="41.717402" lon="2.89668">
        <ele>197.0</ele>
        <time>2021-08-15T13:45:47Z</time>
      </trkpt>
      <trkpt lat="41.717315" lon="2.896712">
        <ele>196.0</ele>
        <time>2021-08-15T13:45:52Z</time>
      </trkpt>
      <trkpt lat="41.717235" lon="2.89668">
        <ele>196.0</ele>
        <time>2021-08-15T13:45:55Z</time>
      </trkpt>
      <trkpt lat="41.71714" lon="2.89664">
        <ele>196.0</ele>
        <time>2021-08-15T13:46:00Z</time>
      </trkpt>
      <trkpt lat="41.717052" lon="2.896615">
        <ele>197.0</ele>
        <time>2021-08-15T13:46:02Z</time>
      </trkpt>
      <trkpt lat="41.716957" lon="2.896572">
        <ele>197.0</ele>
        <time>2021-08-15T13:46:06Z</time>
      </trkpt>
      <trkpt lat="41.716875" lon="2.8965">
        <ele>196.0</ele>
        <time>2021-08-15T13:46:08Z</time>
      </trkpt>
      <trkpt lat="41.71682" lon="2.89643">
        <ele>196.0</ele>
        <time>2021-08-15T13:46:11Z</time>
      </trkpt>
      <trkpt lat="41.716755" lon="2.896342">
        <ele>195.0</ele>
        <time>2021-08-15T13:46:12Z</time>
      </trkpt>
      <trkpt lat="41.716685" lon="2.89626">
        <ele>194.0</ele>
        <time>2021-08-15T13:46:15Z</time>
      </trkpt>
      <trkpt lat="41.7166" lon="2.896175">
        <ele>194.0</ele>
        <time>2021-08-15T13:46:17Z</time>
      </trkpt>
      <trkpt lat="41.71652" lon="2.896075">
        <ele>193.0</ele>
        <time>2021-08-15T13:46:19Z</time>
      </trkpt>
      <trkpt lat="41.716485" lon="2.895985">
        <ele>192.0</ele>
        <time>2021-08-15T13:46:21Z</time>
      </trkpt>
      <trkpt lat="41.71648" lon="2.89589">
        <ele>192.0</ele>
        <time>2021-08-15T13:46:23Z</time>
      </trkpt>
      <trkpt lat="41.716485" lon="2.895747">
        <ele>191.0</ele>
        <time>2021-08-15T13:46:26Z</time>
      </trkpt>
      <trkpt lat="41.716475" lon="2.89564">
        <ele>191.0</ele>
        <time>2021-08-15T13:46:29Z</time>
      </trkpt>
      <trkpt lat="41.716395" lon="2.8956">
        <ele>190.0</ele>
        <time>2021-08-15T13:46:32Z</time>
      </trkpt>
      <trkpt lat="41.71631" lon="2.895635">
        <ele>190.0</ele>
        <time>2021-08-15T13:46:36Z</time>
      </trkpt>
      <trkpt lat="41.716232" lon="2.89565">
        <ele>189.0</ele>
        <time>2021-08-15T13:46:37Z</time>
      </trkpt>
      <trkpt lat="41.716155" lon="2.895673">
        <ele>189.0</ele>
        <time>2021-08-15T13:46:39Z</time>
      </trkpt>
      <trkpt lat="41.71608" lon="2.895705">
        <ele>188.0</ele>
        <time>2021-08-15T13:46:42Z</time>
      </trkpt>
      <trkpt lat="41.716015" lon="2.895752">
        <ele>188.0</ele>
        <time>2021-08-15T13:46:44Z</time>
      </trkpt>
      <trkpt lat="41.71593" lon="2.895857">
        <ele>188.0</ele>
        <time>2021-08-15T13:46:47Z</time>
      </trkpt>
      <trkpt lat="41.715865" lon="2.895937">
        <ele>186.0</ele>
        <time>2021-08-15T13:46:49Z</time>
      </trkpt>
      <trkpt lat="41.71581" lon="2.89602">
        <ele>185.0</ele>
        <time>2021-08-15T13:46:51Z</time>
      </trkpt>
      <trkpt lat="41.715747" lon="2.89609">
        <ele>184.0</ele>
        <time>2021-08-15T13:46:53Z</time>
      </trkpt>
      <trkpt lat="41.715672" lon="2.89617">
        <ele>184.0</ele>
        <time>2021-08-15T13:46:55Z</time>
      </trkpt>
      <trkpt lat="41.71558" lon="2.89624">
        <ele>182.0</ele>
        <time>2021-08-15T13:46:57Z</time>
      </trkpt>
      <trkpt lat="41.715495" lon="2.8963">
        <ele>181.0</ele>
        <time>2021-08-15T13:46:59Z</time>
      </trkpt>
      <trkpt lat="41.715417" lon="2.896365">
        <ele>180.0</ele>
        <time>2021-08-15T13:47:00Z</time>
      </trkpt>
      <trkpt lat="41.715347" lon="2.896425">
        <ele>179.0</ele>
        <time>2021-08-15T13:47:03Z</time>
      </trkpt>
      <trkpt lat="41.71527" lon="2.896478">
        <ele>179.0</ele>
        <time>2021-08-15T13:47:04Z</time>
      </trkpt>
      <trkpt lat="41.7152" lon="2.896537">
        <ele>177.0</ele>
        <time>2021-08-15T13:47:06Z</time>
      </trkpt>
      <trkpt lat="41.715112" lon="2.896605">
        <ele>177.0</ele>
        <time>2021-08-15T13:47:09Z</time>
      </trkpt>
      <trkpt lat="41.71504" lon="2.896645">
        <ele>176.0</ele>
        <time>2021-08-15T13:47:11Z</time>
      </trkpt>
      <trkpt lat="41.714952" lon="2.89669">
        <ele>175.0</ele>
        <time>2021-08-15T13:47:13Z</time>
      </trkpt>
      <trkpt lat="41.714855" lon="2.896763">
        <ele>175.0</ele>
        <time>2021-08-15T13:47:16Z</time>
      </trkpt>
      <trkpt lat="41.714745" lon="2.89684">
        <ele>174.0</ele>
        <time>2021-08-15T13:47:18Z</time>
      </trkpt>
      <trkpt lat="41.714635" lon="2.896895">
        <ele>174.0</ele>
        <time>2021-08-15T13:47:20Z</time>
      </trkpt>
      <trkpt lat="41.71456" lon="2.896927">
        <ele>173.0</ele>
        <time>2021-08-15T13:47:22Z</time>
      </trkpt>
      <trkpt lat="41.714475" lon="2.896935">
        <ele>173.0</ele>
        <time>2021-08-15T13:47:27Z</time>
      </trkpt>
      <trkpt lat="41.714392" lon="2.896895">
        <ele>175.0</ele>
        <time>2021-08-15T13:47:32Z</time>
      </trkpt>
      <trkpt lat="41.714323" lon="2.896847">
        <ele>176.0</ele>
        <time>2021-08-15T13:47:36Z</time>
      </trkpt>
      <trkpt lat="41.714238" lon="2.896795">
        <ele>175.0</ele>
        <time>2021-08-15T13:47:40Z</time>
      </trkpt>
      <trkpt lat="41.71418" lon="2.896738">
        <ele>175.0</ele>
        <time>2021-08-15T13:47:44Z</time>
      </trkpt>
      <trkpt lat="41.71411" lon="2.89668">
        <ele>175.0</ele>
        <time>2021-08-15T13:47:48Z</time>
      </trkpt>
      <trkpt lat="41.714035" lon="2.896615">
        <ele>176.0</ele>
        <time>2021-08-15T13:47:53Z</time>
      </trkpt>
      <trkpt lat="41.71395" lon="2.896577">
        <ele>176.0</ele>
        <time>2021-08-15T13:47:57Z</time>
      </trkpt>
      <trkpt lat="41.713862" lon="2.89655">
        <ele>176.0</ele>
        <time>2021-08-15T13:48:01Z</time>
      </trkpt>
      <trkpt lat="41.713785" lon="2.89652">
        <ele>177.0</ele>
        <time>2021-08-15T13:48:05Z</time>
      </trkpt>
      <trkpt lat="41.713702" lon="2.896465">
        <ele>177.0</ele>
        <time>2021-08-15T13:48:10Z</time>
      </trkpt>
      <trkpt lat="41.713625" lon="2.896413">
        <ele>177.0</ele>
        <time>2021-08-15T13:48:13Z</time>
      </trkpt>
      <trkpt lat="41.713555" lon="2.89637">
        <ele>177.0</ele>
        <time>2021-08-15T13:48:16Z</time>
      </trkpt>
      <trkpt lat="41.713485" lon="2.896308">
        <ele>178.0</ele>
        <time>2021-08-15T13:48:21Z</time>
      </trkpt>
      <trkpt lat="41.713405" lon="2.896315">
        <ele>177.0</ele>
        <time>2021-08-15T13:48:26Z</time>
      </trkpt>
      <trkpt lat="41.713332" lon="2.89627">
        <ele>177.0</ele>
        <time>2021-08-15T13:48:31Z</time>
      </trkpt>
      <trkpt lat="41.71329" lon="2.89618">
        <ele>177.0</ele>
        <time>2021-08-15T13:48:35Z</time>
      </trkpt>
      <trkpt lat="41.713265" lon="2.896063">
        <ele>176.0</ele>
        <time>2021-08-15T13:48:37Z</time>
      </trkpt>
      <trkpt lat="41.713262" lon="2.89592">
        <ele>175.0</ele>
        <time>2021-08-15T13:48:39Z</time>
      </trkpt>
      <trkpt lat="41.713265" lon="2.895778">
        <ele>175.0</ele>
        <time>2021-08-15T13:48:41Z</time>
      </trkpt>
      <trkpt lat="41.71332" lon="2.895655">
        <ele>174.0</ele>
        <time>2021-08-15T13:48:44Z</time>
      </trkpt>
      <trkpt lat="41.713372" lon="2.895555">
        <ele>173.0</ele>
        <time>2021-08-15T13:48:46Z</time>
      </trkpt>
      <trkpt lat="41.713425" lon="2.895445">
        <ele>173.0</ele>
        <time>2021-08-15T13:48:48Z</time>
      </trkpt>
      <trkpt lat="41.713473" lon="2.895355">
        <ele>172.0</ele>
        <time>2021-08-15T13:48:50Z</time>
      </trkpt>
      <trkpt lat="41.71354" lon="2.895265">
        <ele>172.0</ele>
        <time>2021-08-15T13:48:52Z</time>
      </trkpt>
      <trkpt lat="41.7136" lon="2.895205">
        <ele>171.0</ele>
        <time>2021-08-15T13:48:54Z</time>
      </trkpt>
      <trkpt lat="41.71353" lon="2.895165">
        <ele>171.0</ele>
        <time>2021-08-15T13:49:01Z</time>
      </trkpt>
      <trkpt lat="41.713445" lon="2.895162">
        <ele>171.0</ele>
        <time>2021-08-15T13:49:08Z</time>
      </trkpt>
      <trkpt lat="41.71336" lon="2.895147">
        <ele>171.0</ele>
        <time>2021-08-15T13:49:14Z</time>
      </trkpt>
      <trkpt lat="41.71328" lon="2.895133">
        <ele>173.0</ele>
        <time>2021-08-15T13:49:19Z</time>
      </trkpt>
      <trkpt lat="41.7132" lon="2.89514">
        <ele>173.0</ele>
        <time>2021-08-15T13:49:26Z</time>
      </trkpt>
      <trkpt lat="41.713115" lon="2.895147">
        <ele>174.0</ele>
        <time>2021-08-15T13:49:30Z</time>
      </trkpt>
      <trkpt lat="41.71308" lon="2.89513">
        <ele>175.0</ele>
        <time>2021-08-15T13:49:37Z</time>
      </trkpt>
      <trkpt lat="41.71308" lon="2.89513">
        <ele>175.0</ele>
        <time>2021-08-15T13:49:41Z</time>
      </trkpt>
      <trkpt lat="41.713032" lon="2.895125">
        <ele>175.0</ele>
        <time>2021-08-15T13:49:51Z</time>
      </trkpt>
      <trkpt lat="41.71299" lon="2.895105">
        <ele>175.0</ele>
        <time>2021-08-15T13:49:57Z</time>
      </trkpt>
      <trkpt lat="41.712952" lon="2.89506">
        <ele>176.0</ele>
        <time>2021-08-15T13:50:04Z</time>
      </trkpt>
      <trkpt lat="41.712915" lon="2.89502">
        <ele>175.0</ele>
        <time>2021-08-15T13:50:11Z</time>
      </trkpt>
      <trkpt lat="41.712865" lon="2.894993">
        <ele>176.0</ele>
        <time>2021-08-15T13:50:19Z</time>
      </trkpt>
      <trkpt lat="41.712815" lon="2.894975">
        <ele>177.0</ele>
        <time>2021-08-15T13:50:26Z</time>
      </trkpt>
      <trkpt lat="41.712795" lon="2.894965">
        <ele>178.0</ele>
        <time>2021-08-15T13:50:33Z</time>
      </trkpt>
      <trkpt lat="41.712765" lon="2.894947">
        <ele>180.0</ele>
        <time>2021-08-15T13:50:39Z</time>
      </trkpt>
      <trkpt lat="41.71274" lon="2.89494">
        <ele>180.0</ele>
        <time>2021-08-15T13:50:47Z</time>
      </trkpt>
      <trkpt lat="41.712737" lon="2.89493">
        <ele>180.0</ele>
        <time>2021-08-15T13:50:53Z</time>
      </trkpt>
      <trkpt lat="41.712722" lon="2.89493">
        <ele>181.0</ele>
        <time>2021-08-15T13:51:00Z</time>
      </trkpt>
      <trkpt lat="41.712722" lon="2.89493">
        <ele>181.0</ele>
        <time>2021-08-15T13:51:04Z</time>
      </trkpt>
      <trkpt lat="41.712727" lon="2.894965">
        <ele>178.0</ele>
        <time>2021-08-15T13:51:18Z</time>
      </trkpt>
      <trkpt lat="41.712735" lon="2.89501">
        <ele>176.0</ele>
        <time>2021-08-15T13:51:25Z</time>
      </trkpt>
      <trkpt lat="41.71274" lon="2.895038">
        <ele>176.0</ele>
        <time>2021-08-15T13:51:32Z</time>
      </trkpt>
      <trkpt lat="41.712718" lon="2.894975">
        <ele>176.0</ele>
        <time>2021-08-15T13:51:39Z</time>
      </trkpt>
      <trkpt lat="41.712695" lon="2.894915">
        <ele>177.0</ele>
        <time>2021-08-15T13:51:46Z</time>
      </trkpt>
      <trkpt lat="41.71271" lon="2.89492">
        <ele>177.0</ele>
        <time>2021-08-15T13:51:53Z</time>
      </trkpt>
      <trkpt lat="41.712682" lon="2.894815">
        <ele>177.0</ele>
        <time>2021-08-15T13:52:00Z</time>
      </trkpt>
      <trkpt lat="41.712635" lon="2.89474">
        <ele>179.0</ele>
        <time>2021-08-15T13:52:05Z</time>
      </trkpt>
      <trkpt lat="41.712577" lon="2.894665">
        <ele>179.0</ele>
        <time>2021-08-15T13:52:12Z</time>
      </trkpt>
      <trkpt lat="41.71252" lon="2.89458">
        <ele>180.0</ele>
        <time>2021-08-15T13:52:17Z</time>
      </trkpt>
      <trkpt lat="41.712475" lon="2.894485">
        <ele>182.0</ele>
        <time>2021-08-15T13:52:23Z</time>
      </trkpt>
      <trkpt lat="41.71242" lon="2.894402">
        <ele>183.0</ele>
        <time>2021-08-15T13:52:30Z</time>
      </trkpt>
      <trkpt lat="41.712345" lon="2.89436">
        <ele>182.0</ele>
        <time>2021-08-15T13:52:36Z</time>
      </trkpt>
      <trkpt lat="41.712305" lon="2.894325">
        <ele>182.0</ele>
        <time>2021-08-15T13:52:43Z</time>
      </trkpt>
      <trkpt lat="41.712225" lon="2.89433">
        <ele>182.0</ele>
        <time>2021-08-15T13:52:49Z</time>
      </trkpt>
      <trkpt lat="41.712155" lon="2.894315">
        <ele>183.0</ele>
        <time>2021-08-15T13:52:54Z</time>
      </trkpt>
      <trkpt lat="41.712075" lon="2.89428">
        <ele>184.0</ele>
        <time>2021-08-15T13:52:58Z</time>
      </trkpt>
      <trkpt lat="41.711985" lon="2.894242">
        <ele>184.0</ele>
        <time>2021-08-15T13:53:03Z</time>
      </trkpt>
      <trkpt lat="41.711905" lon="2.89422">
        <ele>183.0</ele>
        <time>2021-08-15T13:53:08Z</time>
      </trkpt>
      <trkpt lat="41.711827" lon="2.894228">
        <ele>185.0</ele>
        <time>2021-08-15T13:53:12Z</time>
      </trkpt>
      <trkpt lat="41.711747" lon="2.894222">
        <ele>188.0</ele>
        <time>2021-08-15T13:53:18Z</time>
      </trkpt>
      <trkpt lat="41.711685" lon="2.894295">
        <ele>186.0</ele>
        <time>2021-08-15T13:53:26Z</time>
      </trkpt>
      <trkpt lat="41.71163" lon="2.89439">
        <ele>186.0</ele>
        <time>2021-08-15T13:53:30Z</time>
      </trkpt>
      <trkpt lat="41.71155" lon="2.894475">
        <ele>184.0</ele>
        <time>2021-08-15T13:53:33Z</time>
      </trkpt>
      <trkpt lat="41.711457" lon="2.894535">
        <ele>184.0</ele>
        <time>2021-08-15T13:53:35Z</time>
      </trkpt>
      <trkpt lat="41.711385" lon="2.89458">
        <ele>183.0</ele>
        <time>2021-08-15T13:53:37Z</time>
      </trkpt>
      <trkpt lat="41.711322" lon="2.89467">
        <ele>180.0</ele>
        <time>2021-08-15T13:53:40Z</time>
      </trkpt>
      <trkpt lat="41.711275" lon="2.89478">
        <ele>180.0</ele>
        <time>2021-08-15T13:53:42Z</time>
      </trkpt>
      <trkpt lat="41.711215" lon="2.894895">
        <ele>179.0</ele>
        <time>2021-08-15T13:53:46Z</time>
      </trkpt>
      <trkpt lat="41.71117" lon="2.894982">
        <ele>179.0</ele>
        <time>2021-08-15T13:53:47Z</time>
      </trkpt>
      <trkpt lat="41.711135" lon="2.89508">
        <ele>178.0</ele>
        <time>2021-08-15T13:53:50Z</time>
      </trkpt>
      <trkpt lat="41.711095" lon="2.89521">
        <ele>177.0</ele>
        <time>2021-08-15T13:53:52Z</time>
      </trkpt>
      <trkpt lat="41.711055" lon="2.89532">
        <ele>176.0</ele>
        <time>2021-08-15T13:53:54Z</time>
      </trkpt>
      <trkpt lat="41.711005" lon="2.895427">
        <ele>176.0</ele>
        <time>2021-08-15T13:53:55Z</time>
      </trkpt>
      <trkpt lat="41.71093" lon="2.89551">
        <ele>176.0</ele>
        <time>2021-08-15T13:53:58Z</time>
      </trkpt>
      <trkpt lat="41.710855" lon="2.89556">
        <ele>175.0</ele>
        <time>2021-08-15T13:54:00Z</time>
      </trkpt>
      <trkpt lat="41.71078" lon="2.8956">
        <ele>175.0</ele>
        <time>2021-08-15T13:54:01Z</time>
      </trkpt>
      <trkpt lat="41.71067" lon="2.8956">
        <ele>173.0</ele>
        <time>2021-08-15T13:54:03Z</time>
      </trkpt>
      <trkpt lat="41.71056" lon="2.895575">
        <ele>172.0</ele>
        <time>2021-08-15T13:54:06Z</time>
      </trkpt>
      <trkpt lat="41.710447" lon="2.895535">
        <ele>171.0</ele>
        <time>2021-08-15T13:54:08Z</time>
      </trkpt>
      <trkpt lat="41.710347" lon="2.89548">
        <ele>170.0</ele>
        <time>2021-08-15T13:54:10Z</time>
      </trkpt>
      <trkpt lat="41.710245" lon="2.895418">
        <ele>170.0</ele>
        <time>2021-08-15T13:54:13Z</time>
      </trkpt>
      <trkpt lat="41.710165" lon="2.89538">
        <ele>169.0</ele>
        <time>2021-08-15T13:54:15Z</time>
      </trkpt>
      <trkpt lat="41.710085" lon="2.89533">
        <ele>167.0</ele>
        <time>2021-08-15T13:54:18Z</time>
      </trkpt>
      <trkpt lat="41.709997" lon="2.89529">
        <ele>167.0</ele>
        <time>2021-08-15T13:54:22Z</time>
      </trkpt>
      <trkpt lat="41.709935" lon="2.895238">
        <ele>166.0</ele>
        <time>2021-08-15T13:54:26Z</time>
      </trkpt>
      <trkpt lat="41.70993" lon="2.895222">
        <ele>166.0</ele>
        <time>2021-08-15T13:54:33Z</time>
      </trkpt>
      <trkpt lat="41.70989" lon="2.895195">
        <ele>165.0</ele>
        <time>2021-08-15T13:54:40Z</time>
      </trkpt>
      <trkpt lat="41.709885" lon="2.89519">
        <ele>164.0</ele>
        <time>2021-08-15T13:54:46Z</time>
      </trkpt>
      <trkpt lat="41.70986" lon="2.89518">
        <ele>164.0</ele>
        <time>2021-08-15T13:54:53Z</time>
      </trkpt>
      <trkpt lat="41.70979" lon="2.89516">
        <ele>164.0</ele>
        <time>2021-08-15T13:54:59Z</time>
      </trkpt>
      <trkpt lat="41.70972" lon="2.895085">
        <ele>163.0</ele>
        <time>2021-08-15T13:55:04Z</time>
      </trkpt>
      <trkpt lat="41.709715" lon="2.895077">
        <ele>163.0</ele>
        <time>2021-08-15T13:55:10Z</time>
      </trkpt>
      <trkpt lat="41.709715" lon="2.895077">
        <ele>163.0</ele>
        <time>2021-08-15T13:55:14Z</time>
      </trkpt>
      <trkpt lat="41.709735" lon="2.89499">
        <ele>163.0</ele>
        <time>2021-08-15T13:55:27Z</time>
      </trkpt>
      <trkpt lat="41.709782" lon="2.894902">
        <ele>162.0</ele>
        <time>2021-08-15T13:55:31Z</time>
      </trkpt>
      <trkpt lat="41.70983" lon="2.894815">
        <ele>162.0</ele>
        <time>2021-08-15T13:55:34Z</time>
      </trkpt>
      <trkpt lat="41.709875" lon="2.894697">
        <ele>162.0</ele>
        <time>2021-08-15T13:55:37Z</time>
      </trkpt>
      <trkpt lat="41.709912" lon="2.894602">
        <ele>162.0</ele>
        <time>2021-08-15T13:55:38Z</time>
      </trkpt>
      <trkpt lat="41.70995" lon="2.894507">
        <ele>162.0</ele>
        <time>2021-08-15T13:55:40Z</time>
      </trkpt>
      <trkpt lat="41.70998" lon="2.894402">
        <ele>164.0</ele>
        <time>2021-08-15T13:55:42Z</time>
      </trkpt>
      <trkpt lat="41.709997" lon="2.89429">
        <ele>163.0</ele>
        <time>2021-08-15T13:55:45Z</time>
      </trkpt>
      <trkpt lat="41.709992" lon="2.89419">
        <ele>163.0</ele>
        <time>2021-08-15T13:55:47Z</time>
      </trkpt>
      <trkpt lat="41.70998" lon="2.89406">
        <ele>163.0</ele>
        <time>2021-08-15T13:55:50Z</time>
      </trkpt>
      <trkpt lat="41.70995" lon="2.893955">
        <ele>163.0</ele>
        <time>2021-08-15T13:55:52Z</time>
      </trkpt>
      <trkpt lat="41.70995" lon="2.89385">
        <ele>163.0</ele>
        <time>2021-08-15T13:55:56Z</time>
      </trkpt>
      <trkpt lat="41.70996" lon="2.893745">
        <ele>163.0</ele>
        <time>2021-08-15T13:56:01Z</time>
      </trkpt>
      <trkpt lat="41.709935" lon="2.893655">
        <ele>163.0</ele>
        <time>2021-08-15T13:56:03Z</time>
      </trkpt>
      <trkpt lat="41.70996" lon="2.893542">
        <ele>163.0</ele>
        <time>2021-08-15T13:56:05Z</time>
      </trkpt>
      <trkpt lat="41.710015" lon="2.89344">
        <ele>162.0</ele>
        <time>2021-08-15T13:56:07Z</time>
      </trkpt>
      <trkpt lat="41.7101" lon="2.893382">
        <ele>161.0</ele>
        <time>2021-08-15T13:56:10Z</time>
      </trkpt>
      <trkpt lat="41.710195" lon="2.89336">
        <ele>161.0</ele>
        <time>2021-08-15T13:56:12Z</time>
      </trkpt>
      <trkpt lat="41.710285" lon="2.893315">
        <ele>159.0</ele>
        <time>2021-08-15T13:56:13Z</time>
      </trkpt>
      <trkpt lat="41.71036" lon="2.893258">
        <ele>159.0</ele>
        <time>2021-08-15T13:56:16Z</time>
      </trkpt>
      <trkpt lat="41.71041" lon="2.893135">
        <ele>159.0</ele>
        <time>2021-08-15T13:56:18Z</time>
      </trkpt>
      <trkpt lat="41.710357" lon="2.893035">
        <ele>160.0</ele>
        <time>2021-08-15T13:56:22Z</time>
      </trkpt>
      <trkpt lat="41.71028" lon="2.893">
        <ele>160.0</ele>
        <time>2021-08-15T13:56:24Z</time>
      </trkpt>
      <trkpt lat="41.710185" lon="2.892962">
        <ele>161.0</ele>
        <time>2021-08-15T13:56:28Z</time>
      </trkpt>
      <trkpt lat="41.7101" lon="2.892925">
        <ele>161.0</ele>
        <time>2021-08-15T13:56:31Z</time>
      </trkpt>
      <trkpt lat="41.71003" lon="2.892867">
        <ele>161.0</ele>
        <time>2021-08-15T13:56:33Z</time>
      </trkpt>
      <trkpt lat="41.709965" lon="2.892812">
        <ele>161.0</ele>
        <time>2021-08-15T13:56:37Z</time>
      </trkpt>
      <trkpt lat="41.70991" lon="2.892727">
        <ele>162.0</ele>
        <time>2021-08-15T13:56:41Z</time>
      </trkpt>
      <trkpt lat="41.70987" lon="2.89263">
        <ele>163.0</ele>
        <time>2021-08-15T13:56:44Z</time>
      </trkpt>
      <trkpt lat="41.70986" lon="2.892527">
        <ele>163.0</ele>
        <time>2021-08-15T13:56:46Z</time>
      </trkpt>
      <trkpt lat="41.709857" lon="2.89242">
        <ele>163.0</ele>
        <time>2021-08-15T13:56:49Z</time>
      </trkpt>
      <trkpt lat="41.70987" lon="2.89231">
        <ele>162.0</ele>
        <time>2021-08-15T13:56:53Z</time>
      </trkpt>
      <trkpt lat="41.709905" lon="2.892195">
        <ele>161.0</ele>
        <time>2021-08-15T13:56:56Z</time>
      </trkpt>
      <trkpt lat="41.70995" lon="2.89211">
        <ele>161.0</ele>
        <time>2021-08-15T13:57:01Z</time>
      </trkpt>
      <trkpt lat="41.709988" lon="2.89207">
        <ele>160.0</ele>
        <time>2021-08-15T13:57:08Z</time>
      </trkpt>
      <trkpt lat="41.70998" lon="2.89207">
        <ele>159.0</ele>
        <time>2021-08-15T13:57:16Z</time>
      </trkpt>
      <trkpt lat="41.709995" lon="2.8921">
        <ele>157.0</ele>
        <time>2021-08-15T13:57:23Z</time>
      </trkpt>
      <trkpt lat="41.709985" lon="2.892125">
        <ele>155.0</ele>
        <time>2021-08-15T13:57:30Z</time>
      </trkpt>
      <trkpt lat="41.709917" lon="2.892195">
        <ele>155.0</ele>
        <time>2021-08-15T13:57:36Z</time>
      </trkpt>
      <trkpt lat="41.709875" lon="2.89228">
        <ele>156.0</ele>
        <time>2021-08-15T13:57:40Z</time>
      </trkpt>
      <trkpt lat="41.709867" lon="2.89239">
        <ele>156.0</ele>
        <time>2021-08-15T13:57:44Z</time>
      </trkpt>
      <trkpt lat="41.70988" lon="2.892487">
        <ele>156.0</ele>
        <time>2021-08-15T13:57:47Z</time>
      </trkpt>
      <trkpt lat="41.70991" lon="2.89259">
        <ele>156.0</ele>
        <time>2021-08-15T13:57:50Z</time>
      </trkpt>
      <trkpt lat="41.709955" lon="2.892695">
        <ele>157.0</ele>
        <time>2021-08-15T13:57:54Z</time>
      </trkpt>
      <trkpt lat="41.71002" lon="2.89277">
        <ele>158.0</ele>
        <time>2021-08-15T13:57:56Z</time>
      </trkpt>
      <trkpt lat="41.71008" lon="2.89285">
        <ele>159.0</ele>
        <time>2021-08-15T13:57:59Z</time>
      </trkpt>
      <trkpt lat="41.710147" lon="2.892897">
        <ele>159.0</ele>
        <time>2021-08-15T13:58:01Z</time>
      </trkpt>
      <trkpt lat="41.710217" lon="2.89294">
        <ele>160.0</ele>
        <time>2021-08-15T13:58:03Z</time>
      </trkpt>
      <trkpt lat="41.71031" lon="2.893">
        <ele>161.0</ele>
        <time>2021-08-15T13:58:06Z</time>
      </trkpt>
      <trkpt lat="41.710382" lon="2.893045">
        <ele>162.0</ele>
        <time>2021-08-15T13:58:10Z</time>
      </trkpt>
      <trkpt lat="41.710385" lon="2.89316">
        <ele>162.0</ele>
        <time>2021-08-15T13:58:14Z</time>
      </trkpt>
      <trkpt lat="41.710325" lon="2.893215">
        <ele>162.0</ele>
        <time>2021-08-15T13:58:17Z</time>
      </trkpt>
      <trkpt lat="41.710232" lon="2.89328">
        <ele>161.0</ele>
        <time>2021-08-15T13:58:19Z</time>
      </trkpt>
      <trkpt lat="41.71015" lon="2.893347">
        <ele>160.0</ele>
        <time>2021-08-15T13:58:23Z</time>
      </trkpt>
      <trkpt lat="41.710075" lon="2.893405">
        <ele>160.0</ele>
        <time>2021-08-15T13:58:26Z</time>
      </trkpt>
      <trkpt lat="41.71" lon="2.89348">
        <ele>161.0</ele>
        <time>2021-08-15T13:58:28Z</time>
      </trkpt>
      <trkpt lat="41.709988" lon="2.893575">
        <ele>161.0</ele>
        <time>2021-08-15T13:58:33Z</time>
      </trkpt>
      <trkpt lat="41.709992" lon="2.89368">
        <ele>161.0</ele>
        <time>2021-08-15T13:58:41Z</time>
      </trkpt>
      <trkpt lat="41.70997" lon="2.893805">
        <ele>161.0</ele>
        <time>2021-08-15T13:58:44Z</time>
      </trkpt>
      <trkpt lat="41.709997" lon="2.893925">
        <ele>161.0</ele>
        <time>2021-08-15T13:58:49Z</time>
      </trkpt>
      <trkpt lat="41.71001" lon="2.89402">
        <ele>161.0</ele>
        <time>2021-08-15T13:58:53Z</time>
      </trkpt>
      <trkpt lat="41.710015" lon="2.89412">
        <ele>161.0</ele>
        <time>2021-08-15T13:58:56Z</time>
      </trkpt>
      <trkpt lat="41.71002" lon="2.89422">
        <ele>160.0</ele>
        <time>2021-08-15T13:58:57Z</time>
      </trkpt>
      <trkpt lat="41.710003" lon="2.89436">
        <ele>159.0</ele>
        <time>2021-08-15T13:59:01Z</time>
      </trkpt>
      <trkpt lat="41.709975" lon="2.894465">
        <ele>159.0</ele>
        <time>2021-08-15T13:59:04Z</time>
      </trkpt>
      <trkpt lat="41.709935" lon="2.89456">
        <ele>160.0</ele>
        <time>2021-08-15T13:59:06Z</time>
      </trkpt>
      <trkpt lat="41.709895" lon="2.894662">
        <ele>161.0</ele>
        <time>2021-08-15T13:59:09Z</time>
      </trkpt>
      <trkpt lat="41.70984" lon="2.894772">
        <ele>162.0</ele>
        <time>2021-08-15T13:59:12Z</time>
      </trkpt>
      <trkpt lat="41.709805" lon="2.894875">
        <ele>161.0</ele>
        <time>2021-08-15T13:59:17Z</time>
      </trkpt>
      <trkpt lat="41.709755" lon="2.89498">
        <ele>160.0</ele>
        <time>2021-08-15T13:59:21Z</time>
      </trkpt>
      <trkpt lat="41.709692" lon="2.89507">
        <ele>159.0</ele>
        <time>2021-08-15T13:59:24Z</time>
      </trkpt>
      <trkpt lat="41.709645" lon="2.89517">
        <ele>159.0</ele>
        <time>2021-08-15T13:59:28Z</time>
      </trkpt>
      <trkpt lat="41.709602" lon="2.895255">
        <ele>159.0</ele>
        <time>2021-08-15T13:59:33Z</time>
      </trkpt>
      <trkpt lat="41.709538" lon="2.89531">
        <ele>158.0</ele>
        <time>2021-08-15T13:59:38Z</time>
      </trkpt>
      <trkpt lat="41.709465" lon="2.895333">
        <ele>158.0</ele>
        <time>2021-08-15T13:59:43Z</time>
      </trkpt>
      <trkpt lat="41.709395" lon="2.895365">
        <ele>157.0</ele>
        <time>2021-08-15T13:59:46Z</time>
      </trkpt>
      <trkpt lat="41.709297" lon="2.895397">
        <ele>157.0</ele>
        <time>2021-08-15T13:59:49Z</time>
      </trkpt>
      <trkpt lat="41.709215" lon="2.895398">
        <ele>156.0</ele>
        <time>2021-08-15T13:59:51Z</time>
      </trkpt>
      <trkpt lat="41.70914" lon="2.895398">
        <ele>155.0</ele>
        <time>2021-08-15T13:59:53Z</time>
      </trkpt>
      <trkpt lat="41.70907" lon="2.89539">
        <ele>155.0</ele>
        <time>2021-08-15T13:59:55Z</time>
      </trkpt>
      <trkpt lat="41.708967" lon="2.895355">
        <ele>153.0</ele>
        <time>2021-08-15T13:59:57Z</time>
      </trkpt>
      <trkpt lat="41.708875" lon="2.895365">
        <ele>153.0</ele>
        <time>2021-08-15T14:00:00Z</time>
      </trkpt>
      <trkpt lat="41.708805" lon="2.895425">
        <ele>152.0</ele>
        <time>2021-08-15T14:00:03Z</time>
      </trkpt>
      <trkpt lat="41.708702" lon="2.89548">
        <ele>151.0</ele>
        <time>2021-08-15T14:00:04Z</time>
      </trkpt>
      <trkpt lat="41.70861" lon="2.895532">
        <ele>151.0</ele>
        <time>2021-08-15T14:00:06Z</time>
      </trkpt>
      <trkpt lat="41.708515" lon="2.895565">
        <ele>150.0</ele>
        <time>2021-08-15T14:00:09Z</time>
      </trkpt>
      <trkpt lat="41.708412" lon="2.895575">
        <ele>150.0</ele>
        <time>2021-08-15T14:00:11Z</time>
      </trkpt>
      <trkpt lat="41.708327" lon="2.895578">
        <ele>150.0</ele>
        <time>2021-08-15T14:00:13Z</time>
      </trkpt>
      <trkpt lat="41.70824" lon="2.89557">
        <ele>150.0</ele>
        <time>2021-08-15T14:00:15Z</time>
      </trkpt>
      <trkpt lat="41.708172" lon="2.895515">
        <ele>150.0</ele>
        <time>2021-08-15T14:00:17Z</time>
      </trkpt>
      <trkpt lat="41.708195" lon="2.895392">
        <ele>150.0</ele>
        <time>2021-08-15T14:00:20Z</time>
      </trkpt>
      <trkpt lat="41.70827" lon="2.895308">
        <ele>150.0</ele>
        <time>2021-08-15T14:00:22Z</time>
      </trkpt>
      <trkpt lat="41.70835" lon="2.895195">
        <ele>149.0</ele>
        <time>2021-08-15T14:00:25Z</time>
      </trkpt>
      <trkpt lat="41.708425" lon="2.895117">
        <ele>148.0</ele>
        <time>2021-08-15T14:00:28Z</time>
      </trkpt>
      <trkpt lat="41.7085" lon="2.89503">
        <ele>148.0</ele>
        <time>2021-08-15T14:00:30Z</time>
      </trkpt>
      <trkpt lat="41.708585" lon="2.89498">
        <ele>147.0</ele>
        <time>2021-08-15T14:00:32Z</time>
      </trkpt>
      <trkpt lat="41.70867" lon="2.894948">
        <ele>147.0</ele>
        <time>2021-08-15T14:00:34Z</time>
      </trkpt>
      <trkpt lat="41.708745" lon="2.894888">
        <ele>146.0</ele>
        <time>2021-08-15T14:00:36Z</time>
      </trkpt>
      <trkpt lat="41.708797" lon="2.894805">
        <ele>145.0</ele>
        <time>2021-08-15T14:00:37Z</time>
      </trkpt>
      <trkpt lat="41.70886" lon="2.894692">
        <ele>145.0</ele>
        <time>2021-08-15T14:00:39Z</time>
      </trkpt>
      <trkpt lat="41.708915" lon="2.89456">
        <ele>145.0</ele>
        <time>2021-08-15T14:00:41Z</time>
      </trkpt>
      <trkpt lat="41.70898" lon="2.894427">
        <ele>145.0</ele>
        <time>2021-08-15T14:00:44Z</time>
      </trkpt>
      <trkpt lat="41.70903" lon="2.894295">
        <ele>144.0</ele>
        <time>2021-08-15T14:00:46Z</time>
      </trkpt>
      <trkpt lat="41.709085" lon="2.89418">
        <ele>144.0</ele>
        <time>2021-08-15T14:00:48Z</time>
      </trkpt>
      <trkpt lat="41.70915" lon="2.894115">
        <ele>142.0</ele>
        <time>2021-08-15T14:00:50Z</time>
      </trkpt>
      <trkpt lat="41.709225" lon="2.89403">
        <ele>142.0</ele>
        <time>2021-08-15T14:00:53Z</time>
      </trkpt>
      <trkpt lat="41.709267" lon="2.893945">
        <ele>142.0</ele>
        <time>2021-08-15T14:00:55Z</time>
      </trkpt>
      <trkpt lat="41.7093" lon="2.89384">
        <ele>143.0</ele>
        <time>2021-08-15T14:00:57Z</time>
      </trkpt>
      <trkpt lat="41.709285" lon="2.893727">
        <ele>143.0</ele>
        <time>2021-08-15T14:01:00Z</time>
      </trkpt>
      <trkpt lat="41.709275" lon="2.893595">
        <ele>142.0</ele>
        <time>2021-08-15T14:01:02Z</time>
      </trkpt>
      <trkpt lat="41.709275" lon="2.893492">
        <ele>142.0</ele>
        <time>2021-08-15T14:01:05Z</time>
      </trkpt>
      <trkpt lat="41.709305" lon="2.893357">
        <ele>142.0</ele>
        <time>2021-08-15T14:01:07Z</time>
      </trkpt>
      <trkpt lat="41.709335" lon="2.893238">
        <ele>142.0</ele>
        <time>2021-08-15T14:01:11Z</time>
      </trkpt>
      <trkpt lat="41.709312" lon="2.89314">
        <ele>142.0</ele>
        <time>2021-08-15T14:01:14Z</time>
      </trkpt>
      <trkpt lat="41.709225" lon="2.893172">
        <ele>143.0</ele>
        <time>2021-08-15T14:01:22Z</time>
      </trkpt>
      <trkpt lat="41.709155" lon="2.893242">
        <ele>143.0</ele>
        <time>2021-08-15T14:01:25Z</time>
      </trkpt>
      <trkpt lat="41.70912" lon="2.893338">
        <ele>142.0</ele>
        <time>2021-08-15T14:01:29Z</time>
      </trkpt>
      <trkpt lat="41.70907" lon="2.893422">
        <ele>142.0</ele>
        <time>2021-08-15T14:01:32Z</time>
      </trkpt>
      <trkpt lat="41.70901" lon="2.893502">
        <ele>142.0</ele>
        <time>2021-08-15T14:01:36Z</time>
      </trkpt>
      <trkpt lat="41.70894" lon="2.893575">
        <ele>142.0</ele>
        <time>2021-08-15T14:01:39Z</time>
      </trkpt>
      <trkpt lat="41.70887" lon="2.893665">
        <ele>141.0</ele>
        <time>2021-08-15T14:01:41Z</time>
      </trkpt>
      <trkpt lat="41.7088" lon="2.89376">
        <ele>142.0</ele>
        <time>2021-08-15T14:01:44Z</time>
      </trkpt>
      <trkpt lat="41.70872" lon="2.893845">
        <ele>142.0</ele>
        <time>2021-08-15T14:01:48Z</time>
      </trkpt>
      <trkpt lat="41.70863" lon="2.893917">
        <ele>142.0</ele>
        <time>2021-08-15T14:01:50Z</time>
      </trkpt>
      <trkpt lat="41.70854" lon="2.893945">
        <ele>141.0</ele>
        <time>2021-08-15T14:01:52Z</time>
      </trkpt>
      <trkpt lat="41.70845" lon="2.893962">
        <ele>140.0</ele>
        <time>2021-08-15T14:01:55Z</time>
      </trkpt>
      <trkpt lat="41.70834" lon="2.893957">
        <ele>139.0</ele>
        <time>2021-08-15T14:01:57Z</time>
      </trkpt>
      <trkpt lat="41.708237" lon="2.893975">
        <ele>139.0</ele>
        <time>2021-08-15T14:02:00Z</time>
      </trkpt>
      <trkpt lat="41.708145" lon="2.89402">
        <ele>138.0</ele>
        <time>2021-08-15T14:02:04Z</time>
      </trkpt>
      <trkpt lat="41.70805" lon="2.89404">
        <ele>138.0</ele>
        <time>2021-08-15T14:02:08Z</time>
      </trkpt>
      <trkpt lat="41.70797" lon="2.893995">
        <ele>138.0</ele>
        <time>2021-08-15T14:02:10Z</time>
      </trkpt>
      <trkpt lat="41.70792" lon="2.893882">
        <ele>139.0</ele>
        <time>2021-08-15T14:02:14Z</time>
      </trkpt>
      <trkpt lat="41.7079" lon="2.893755">
        <ele>139.0</ele>
        <time>2021-08-15T14:02:17Z</time>
      </trkpt>
      <trkpt lat="41.707885" lon="2.89364">
        <ele>139.0</ele>
        <time>2021-08-15T14:02:19Z</time>
      </trkpt>
      <trkpt lat="41.707875" lon="2.89352">
        <ele>140.0</ele>
        <time>2021-08-15T14:02:22Z</time>
      </trkpt>
      <trkpt lat="41.707895" lon="2.893423">
        <ele>140.0</ele>
        <time>2021-08-15T14:02:25Z</time>
      </trkpt>
      <trkpt lat="41.70792" lon="2.893333">
        <ele>140.0</ele>
        <time>2021-08-15T14:02:27Z</time>
      </trkpt>
      <trkpt lat="41.70796" lon="2.893205">
        <ele>139.0</ele>
        <time>2021-08-15T14:02:30Z</time>
      </trkpt>
      <trkpt lat="41.707995" lon="2.893085">
        <ele>139.0</ele>
        <time>2021-08-15T14:02:32Z</time>
      </trkpt>
      <trkpt lat="41.708032" lon="2.89297">
        <ele>139.0</ele>
        <time>2021-08-15T14:02:35Z</time>
      </trkpt>
      <trkpt lat="41.708075" lon="2.89286">
        <ele>139.0</ele>
        <time>2021-08-15T14:02:39Z</time>
      </trkpt>
      <trkpt lat="41.70811" lon="2.89275">
        <ele>139.0</ele>
        <time>2021-08-15T14:02:42Z</time>
      </trkpt>
      <trkpt lat="41.70815" lon="2.892635">
        <ele>140.0</ele>
        <time>2021-08-15T14:02:44Z</time>
      </trkpt>
      <trkpt lat="41.708185" lon="2.892535">
        <ele>140.0</ele>
        <time>2021-08-15T14:02:48Z</time>
      </trkpt>
      <trkpt lat="41.708225" lon="2.892425">
        <ele>140.0</ele>
        <time>2021-08-15T14:02:51Z</time>
      </trkpt>
      <trkpt lat="41.708257" lon="2.892315">
        <ele>141.0</ele>
        <time>2021-08-15T14:02:54Z</time>
      </trkpt>
      <trkpt lat="41.70828" lon="2.892195">
        <ele>141.0</ele>
        <time>2021-08-15T14:02:57Z</time>
      </trkpt>
      <trkpt lat="41.70831" lon="2.89208">
        <ele>142.0</ele>
        <time>2021-08-15T14:03:00Z</time>
      </trkpt>
      <trkpt lat="41.70834" lon="2.89198">
        <ele>143.0</ele>
        <time>2021-08-15T14:03:03Z</time>
      </trkpt>
      <trkpt lat="41.708382" lon="2.891885">
        <ele>144.0</ele>
        <time>2021-08-15T14:03:06Z</time>
      </trkpt>
      <trkpt lat="41.708437" lon="2.89179">
        <ele>144.0</ele>
        <time>2021-08-15T14:03:09Z</time>
      </trkpt>
      <trkpt lat="41.708495" lon="2.891705">
        <ele>144.0</ele>
        <time>2021-08-15T14:03:12Z</time>
      </trkpt>
      <trkpt lat="41.708552" lon="2.891622">
        <ele>144.0</ele>
        <time>2021-08-15T14:03:15Z</time>
      </trkpt>
      <trkpt lat="41.70861" lon="2.891533">
        <ele>144.0</ele>
        <time>2021-08-15T14:03:18Z</time>
      </trkpt>
      <trkpt lat="41.708655" lon="2.891435">
        <ele>144.0</ele>
        <time>2021-08-15T14:03:20Z</time>
      </trkpt>
      <trkpt lat="41.708665" lon="2.89133">
        <ele>145.0</ele>
        <time>2021-08-15T14:03:24Z</time>
      </trkpt>
      <trkpt lat="41.708645" lon="2.89122">
        <ele>144.0</ele>
        <time>2021-08-15T14:03:27Z</time>
      </trkpt>
      <trkpt lat="41.70858" lon="2.891095">
        <ele>145.0</ele>
        <time>2021-08-15T14:03:30Z</time>
      </trkpt>
      <trkpt lat="41.708485" lon="2.891035">
        <ele>145.0</ele>
        <time>2021-08-15T14:03:32Z</time>
      </trkpt>
      <trkpt lat="41.70839" lon="2.891025">
        <ele>145.0</ele>
        <time>2021-08-15T14:03:35Z</time>
      </trkpt>
      <trkpt lat="41.708295" lon="2.89103">
        <ele>146.0</ele>
        <time>2021-08-15T14:03:39Z</time>
      </trkpt>
      <trkpt lat="41.708195" lon="2.891053">
        <ele>146.0</ele>
        <time>2021-08-15T14:03:42Z</time>
      </trkpt>
      <trkpt lat="41.708095" lon="2.891088">
        <ele>146.0</ele>
        <time>2021-08-15T14:03:45Z</time>
      </trkpt>
      <trkpt lat="41.708013" lon="2.891145">
        <ele>146.0</ele>
        <time>2021-08-15T14:03:48Z</time>
      </trkpt>
      <trkpt lat="41.70793" lon="2.891215">
        <ele>146.0</ele>
        <time>2021-08-15T14:03:51Z</time>
      </trkpt>
      <trkpt lat="41.70786" lon="2.891305">
        <ele>146.0</ele>
        <time>2021-08-15T14:03:54Z</time>
      </trkpt>
      <trkpt lat="41.707782" lon="2.891383">
        <ele>146.0</ele>
        <time>2021-08-15T14:03:57Z</time>
      </trkpt>
      <trkpt lat="41.707695" lon="2.891458">
        <ele>146.0</ele>
        <time>2021-08-15T14:04:00Z</time>
      </trkpt>
      <trkpt lat="41.707615" lon="2.891535">
        <ele>146.0</ele>
        <time>2021-08-15T14:04:03Z</time>
      </trkpt>
      <trkpt lat="41.707525" lon="2.891595">
        <ele>146.0</ele>
        <time>2021-08-15T14:04:06Z</time>
      </trkpt>
      <trkpt lat="41.707445" lon="2.89163">
        <ele>146.0</ele>
        <time>2021-08-15T14:04:08Z</time>
      </trkpt>
      <trkpt lat="41.70737" lon="2.891672">
        <ele>146.0</ele>
        <time>2021-08-15T14:04:12Z</time>
      </trkpt>
      <trkpt lat="41.707295" lon="2.891692">
        <ele>146.0</ele>
        <time>2021-08-15T14:04:15Z</time>
      </trkpt>
      <trkpt lat="41.707255" lon="2.891602">
        <ele>147.0</ele>
        <time>2021-08-15T14:04:20Z</time>
      </trkpt>
      <trkpt lat="41.707335" lon="2.891542">
        <ele>148.0</ele>
        <time>2021-08-15T14:04:24Z</time>
      </trkpt>
      <trkpt lat="41.707412" lon="2.891485">
        <ele>147.0</ele>
        <time>2021-08-15T14:04:28Z</time>
      </trkpt>
      <trkpt lat="41.70748" lon="2.891415">
        <ele>146.0</ele>
        <time>2021-08-15T14:04:31Z</time>
      </trkpt>
      <trkpt lat="41.70754" lon="2.89133">
        <ele>148.0</ele>
        <time>2021-08-15T14:04:36Z</time>
      </trkpt>
      <trkpt lat="41.707585" lon="2.891255">
        <ele>150.0</ele>
        <time>2021-08-15T14:04:40Z</time>
      </trkpt>
      <trkpt lat="41.707617" lon="2.891157">
        <ele>151.0</ele>
        <time>2021-08-15T14:04:44Z</time>
      </trkpt>
      <trkpt lat="41.70765" lon="2.89106">
        <ele>152.0</ele>
        <time>2021-08-15T14:04:48Z</time>
      </trkpt>
      <trkpt lat="41.707685" lon="2.89096">
        <ele>153.0</ele>
        <time>2021-08-15T14:04:51Z</time>
      </trkpt>
      <trkpt lat="41.707723" lon="2.89085">
        <ele>156.0</ele>
        <time>2021-08-15T14:04:56Z</time>
      </trkpt>
      <trkpt lat="41.707755" lon="2.890742">
        <ele>157.0</ele>
        <time>2021-08-15T14:05:00Z</time>
      </trkpt>
      <trkpt lat="41.707787" lon="2.890652">
        <ele>157.0</ele>
        <time>2021-08-15T14:05:03Z</time>
      </trkpt>
      <trkpt lat="41.70786" lon="2.89058">
        <ele>157.0</ele>
        <time>2021-08-15T14:05:07Z</time>
      </trkpt>
      <trkpt lat="41.70794" lon="2.89054">
        <ele>157.0</ele>
        <time>2021-08-15T14:05:10Z</time>
      </trkpt>
      <trkpt lat="41.708025" lon="2.8905">
        <ele>157.0</ele>
        <time>2021-08-15T14:05:12Z</time>
      </trkpt>
      <trkpt lat="41.708105" lon="2.890482">
        <ele>158.0</ele>
        <time>2021-08-15T14:05:16Z</time>
      </trkpt>
      <trkpt lat="41.708187" lon="2.890495">
        <ele>159.0</ele>
        <time>2021-08-15T14:05:19Z</time>
      </trkpt>
      <trkpt lat="41.70827" lon="2.89051">
        <ele>160.0</ele>
        <time>2021-08-15T14:05:22Z</time>
      </trkpt>
      <trkpt lat="41.708357" lon="2.89049">
        <ele>160.0</ele>
        <time>2021-08-15T14:05:25Z</time>
      </trkpt>
      <trkpt lat="41.708432" lon="2.890495">
        <ele>162.0</ele>
        <time>2021-08-15T14:05:28Z</time>
      </trkpt>
      <trkpt lat="41.70852" lon="2.890477">
        <ele>162.0</ele>
        <time>2021-08-15T14:05:32Z</time>
      </trkpt>
      <trkpt lat="41.70859" lon="2.890472">
        <ele>164.0</ele>
        <time>2021-08-15T14:05:35Z</time>
      </trkpt>
      <trkpt lat="41.70867" lon="2.89049">
        <ele>166.0</ele>
        <time>2021-08-15T14:05:39Z</time>
      </trkpt>
      <trkpt lat="41.708742" lon="2.890495">
        <ele>166.0</ele>
        <time>2021-08-15T14:05:42Z</time>
      </trkpt>
      <trkpt lat="41.70883" lon="2.8905">
        <ele>167.0</ele>
        <time>2021-08-15T14:05:46Z</time>
      </trkpt>
      <trkpt lat="41.708915" lon="2.89051">
        <ele>165.0</ele>
        <time>2021-08-15T14:05:49Z</time>
      </trkpt>
      <trkpt lat="41.708998" lon="2.890502">
        <ele>165.0</ele>
        <time>2021-08-15T14:05:55Z</time>
      </trkpt>
      <trkpt lat="41.70907" lon="2.890525">
        <ele>166.0</ele>
        <time>2021-08-15T14:06:00Z</time>
      </trkpt>
      <trkpt lat="41.70915" lon="2.890555">
        <ele>167.0</ele>
        <time>2021-08-15T14:06:05Z</time>
      </trkpt>
      <trkpt lat="41.709225" lon="2.890595">
        <ele>169.0</ele>
        <time>2021-08-15T14:06:10Z</time>
      </trkpt>
      <trkpt lat="41.709308" lon="2.890558">
        <ele>170.0</ele>
        <time>2021-08-15T14:06:16Z</time>
      </trkpt>
      <trkpt lat="41.709375" lon="2.8906">
        <ele>172.0</ele>
        <time>2021-08-15T14:06:23Z</time>
      </trkpt>
      <trkpt lat="41.70944" lon="2.890642">
        <ele>175.0</ele>
        <time>2021-08-15T14:06:27Z</time>
      </trkpt>
      <trkpt lat="41.709505" lon="2.890695">
        <ele>176.0</ele>
        <time>2021-08-15T14:06:33Z</time>
      </trkpt>
      <trkpt lat="41.709555" lon="2.890765">
        <ele>176.0</ele>
        <time>2021-08-15T14:06:39Z</time>
      </trkpt>
      <trkpt lat="41.709617" lon="2.890832">
        <ele>178.0</ele>
        <time>2021-08-15T14:06:45Z</time>
      </trkpt>
      <trkpt lat="41.709682" lon="2.89089">
        <ele>179.0</ele>
        <time>2021-08-15T14:06:50Z</time>
      </trkpt>
      <trkpt lat="41.709745" lon="2.89094">
        <ele>181.0</ele>
        <time>2021-08-15T14:06:54Z</time>
      </trkpt>
      <trkpt lat="41.70982" lon="2.89097">
        <ele>181.0</ele>
        <time>2021-08-15T14:06:57Z</time>
      </trkpt>
      <trkpt lat="41.709905" lon="2.890995">
        <ele>182.0</ele>
        <time>2021-08-15T14:07:03Z</time>
      </trkpt>
      <trkpt lat="41.70998" lon="2.890977">
        <ele>182.0</ele>
        <time>2021-08-15T14:07:08Z</time>
      </trkpt>
      <trkpt lat="41.710052" lon="2.89094">
        <ele>182.0</ele>
        <time>2021-08-15T14:07:12Z</time>
      </trkpt>
      <trkpt lat="41.710137" lon="2.89093">
        <ele>182.0</ele>
        <time>2021-08-15T14:07:18Z</time>
      </trkpt>
      <trkpt lat="41.710225" lon="2.890905">
        <ele>184.0</ele>
        <time>2021-08-15T14:07:23Z</time>
      </trkpt>
      <trkpt lat="41.71031" lon="2.89089">
        <ele>185.0</ele>
        <time>2021-08-15T14:07:27Z</time>
      </trkpt>
      <trkpt lat="41.710383" lon="2.89087">
        <ele>188.0</ele>
        <time>2021-08-15T14:07:31Z</time>
      </trkpt>
      <trkpt lat="41.710465" lon="2.89086">
        <ele>190.0</ele>
        <time>2021-08-15T14:07:37Z</time>
      </trkpt>
      <trkpt lat="41.71056" lon="2.89086">
        <ele>191.0</ele>
        <time>2021-08-15T14:07:41Z</time>
      </trkpt>
      <trkpt lat="41.71065" lon="2.890853">
        <ele>191.0</ele>
        <time>2021-08-15T14:07:45Z</time>
      </trkpt>
      <trkpt lat="41.710737" lon="2.89085">
        <ele>194.0</ele>
        <time>2021-08-15T14:07:49Z</time>
      </trkpt>
      <trkpt lat="41.710825" lon="2.890843">
        <ele>193.0</ele>
        <time>2021-08-15T14:07:53Z</time>
      </trkpt>
      <trkpt lat="41.71091" lon="2.89085">
        <ele>193.0</ele>
        <time>2021-08-15T14:07:57Z</time>
      </trkpt>
      <trkpt lat="41.71099" lon="2.890817">
        <ele>192.0</ele>
        <time>2021-08-15T14:08:01Z</time>
      </trkpt>
      <trkpt lat="41.71105" lon="2.890747">
        <ele>192.0</ele>
        <time>2021-08-15T14:08:05Z</time>
      </trkpt>
      <trkpt lat="41.71108" lon="2.890635">
        <ele>191.0</ele>
        <time>2021-08-15T14:08:09Z</time>
      </trkpt>
      <trkpt lat="41.711105" lon="2.890515">
        <ele>191.0</ele>
        <time>2021-08-15T14:08:12Z</time>
      </trkpt>
      <trkpt lat="41.711128" lon="2.89039">
        <ele>190.0</ele>
        <time>2021-08-15T14:08:15Z</time>
      </trkpt>
      <trkpt lat="41.711155" lon="2.890257">
        <ele>189.0</ele>
        <time>2021-08-15T14:08:19Z</time>
      </trkpt>
      <trkpt lat="41.711212" lon="2.890182">
        <ele>189.0</ele>
        <time>2021-08-15T14:08:20Z</time>
      </trkpt>
      <trkpt lat="41.711287" lon="2.890145">
        <ele>190.0</ele>
        <time>2021-08-15T14:08:23Z</time>
      </trkpt>
      <trkpt lat="41.711367" lon="2.89015">
        <ele>190.0</ele>
        <time>2021-08-15T14:08:25Z</time>
      </trkpt>
      <trkpt lat="41.711457" lon="2.89013">
        <ele>189.0</ele>
        <time>2021-08-15T14:08:30Z</time>
      </trkpt>
      <trkpt lat="41.711545" lon="2.89008">
        <ele>189.0</ele>
        <time>2021-08-15T14:08:34Z</time>
      </trkpt>
      <trkpt lat="41.711615" lon="2.890018">
        <ele>190.0</ele>
        <time>2021-08-15T14:08:38Z</time>
      </trkpt>
      <trkpt lat="41.711685" lon="2.889973">
        <ele>190.0</ele>
        <time>2021-08-15T14:08:42Z</time>
      </trkpt>
      <trkpt lat="41.71176" lon="2.8899">
        <ele>190.0</ele>
        <time>2021-08-15T14:08:45Z</time>
      </trkpt>
      <trkpt lat="41.711825" lon="2.889828">
        <ele>192.0</ele>
        <time>2021-08-15T14:08:50Z</time>
      </trkpt>
      <trkpt lat="41.711905" lon="2.88979">
        <ele>193.0</ele>
        <time>2021-08-15T14:08:53Z</time>
      </trkpt>
      <trkpt lat="41.711975" lon="2.889838">
        <ele>192.0</ele>
        <time>2021-08-15T14:08:58Z</time>
      </trkpt>
      <trkpt lat="41.712055" lon="2.889875">
        <ele>193.0</ele>
        <time>2021-08-15T14:09:00Z</time>
      </trkpt>
      <trkpt lat="41.71213" lon="2.88989">
        <ele>193.0</ele>
        <time>2021-08-15T14:09:03Z</time>
      </trkpt>
      <trkpt lat="41.712232" lon="2.88988">
        <ele>192.0</ele>
        <time>2021-08-15T14:09:04Z</time>
      </trkpt>
      <trkpt lat="41.71233" lon="2.889837">
        <ele>191.0</ele>
        <time>2021-08-15T14:09:06Z</time>
      </trkpt>
      <trkpt lat="41.712435" lon="2.889785">
        <ele>191.0</ele>
        <time>2021-08-15T14:09:08Z</time>
      </trkpt>
      <trkpt lat="41.712525" lon="2.8897">
        <ele>191.0</ele>
        <time>2021-08-15T14:09:11Z</time>
      </trkpt>
      <trkpt lat="41.712615" lon="2.889582">
        <ele>191.0</ele>
        <time>2021-08-15T14:09:13Z</time>
      </trkpt>
      <trkpt lat="41.712705" lon="2.889455">
        <ele>191.0</ele>
        <time>2021-08-15T14:09:14Z</time>
      </trkpt>
      <trkpt lat="41.712797" lon="2.88931">
        <ele>190.0</ele>
        <time>2021-08-15T14:09:17Z</time>
      </trkpt>
      <trkpt lat="41.712852" lon="2.889227">
        <ele>189.0</ele>
        <time>2021-08-15T14:09:17Z</time>
      </trkpt>
      <trkpt lat="41.712905" lon="2.88915">
        <ele>189.0</ele>
        <time>2021-08-15T14:09:18Z</time>
      </trkpt>
      <trkpt lat="41.712955" lon="2.889072">
        <ele>189.0</ele>
        <time>2021-08-15T14:09:20Z</time>
      </trkpt>
      <trkpt lat="41.713005" lon="2.888992">
        <ele>189.0</ele>
        <time>2021-08-15T14:09:21Z</time>
      </trkpt>
      <trkpt lat="41.71306" lon="2.88891">
        <ele>189.0</ele>
        <time>2021-08-15T14:09:22Z</time>
      </trkpt>
      <trkpt lat="41.713112" lon="2.888842">
        <ele>189.0</ele>
        <time>2021-08-15T14:09:23Z</time>
      </trkpt>
      <trkpt lat="41.713177" lon="2.88879">
        <ele>188.0</ele>
        <time>2021-08-15T14:09:24Z</time>
      </trkpt>
      <trkpt lat="41.713245" lon="2.888757">
        <ele>188.0</ele>
        <time>2021-08-15T14:09:25Z</time>
      </trkpt>
      <trkpt lat="41.713322" lon="2.888735">
        <ele>187.0</ele>
        <time>2021-08-15T14:09:25Z</time>
      </trkpt>
      <trkpt lat="41.713402" lon="2.88872">
        <ele>188.0</ele>
        <time>2021-08-15T14:09:27Z</time>
      </trkpt>
      <trkpt lat="41.713485" lon="2.88872">
        <ele>187.0</ele>
        <time>2021-08-15T14:09:27Z</time>
      </trkpt>
      <trkpt lat="41.71356" lon="2.88873">
        <ele>187.0</ele>
        <time>2021-08-15T14:09:29Z</time>
      </trkpt>
      <trkpt lat="41.71364" lon="2.888745">
        <ele>187.0</ele>
        <time>2021-08-15T14:09:29Z</time>
      </trkpt>
      <trkpt lat="41.713725" lon="2.888757">
        <ele>187.0</ele>
        <time>2021-08-15T14:09:31Z</time>
      </trkpt>
      <trkpt lat="41.71381" lon="2.888767">
        <ele>187.0</ele>
        <time>2021-08-15T14:09:32Z</time>
      </trkpt>
      <trkpt lat="41.7139" lon="2.888775">
        <ele>187.0</ele>
        <time>2021-08-15T14:09:33Z</time>
      </trkpt>
      <trkpt lat="41.713985" lon="2.888778">
        <ele>186.0</ele>
        <time>2021-08-15T14:09:34Z</time>
      </trkpt>
      <trkpt lat="41.714075" lon="2.888782">
        <ele>185.0</ele>
        <time>2021-08-15T14:09:34Z</time>
      </trkpt>
      <trkpt lat="41.71416" lon="2.888775">
        <ele>185.0</ele>
        <time>2021-08-15T14:09:35Z</time>
      </trkpt>
      <trkpt lat="41.714245" lon="2.88875">
        <ele>184.0</ele>
        <time>2021-08-15T14:09:36Z</time>
      </trkpt>
      <trkpt lat="41.71433" lon="2.888715">
        <ele>184.0</ele>
        <time>2021-08-15T14:09:38Z</time>
      </trkpt>
      <trkpt lat="41.714415" lon="2.888667">
        <ele>184.0</ele>
        <time>2021-08-15T14:09:38Z</time>
      </trkpt>
      <trkpt lat="41.714495" lon="2.88861">
        <ele>184.0</ele>
        <time>2021-08-15T14:09:39Z</time>
      </trkpt>
      <trkpt lat="41.714565" lon="2.88853">
        <ele>184.0</ele>
        <time>2021-08-15T14:09:41Z</time>
      </trkpt>
      <trkpt lat="41.71461" lon="2.888435">
        <ele>183.0</ele>
        <time>2021-08-15T14:09:41Z</time>
      </trkpt>
      <trkpt lat="41.714625" lon="2.88831">
        <ele>183.0</ele>
        <time>2021-08-15T14:09:42Z</time>
      </trkpt>
      <trkpt lat="41.71463" lon="2.888182">
        <ele>183.0</ele>
        <time>2021-08-15T14:09:43Z</time>
      </trkpt>
      <trkpt lat="41.714617" lon="2.888057">
        <ele>183.0</ele>
        <time>2021-08-15T14:09:44Z</time>
      </trkpt>
      <trkpt lat="41.714595" lon="2.887945">
        <ele>182.0</ele>
        <time>2021-08-15T14:09:45Z</time>
      </trkpt>
      <trkpt lat="41.714555" lon="2.88783">
        <ele>182.0</ele>
        <time>2021-08-15T14:09:46Z</time>
      </trkpt>
      <trkpt lat="41.714495" lon="2.88773">
        <ele>182.0</ele>
        <time>2021-08-15T14:09:48Z</time>
      </trkpt>
      <trkpt lat="41.714435" lon="2.887637">
        <ele>181.0</ele>
        <time>2021-08-15T14:09:49Z</time>
      </trkpt>
      <trkpt lat="41.714365" lon="2.887565">
        <ele>181.0</ele>
        <time>2021-08-15T14:09:50Z</time>
      </trkpt>
      <trkpt lat="41.714285" lon="2.887505">
        <ele>181.0</ele>
        <time>2021-08-15T14:09:51Z</time>
      </trkpt>
      <trkpt lat="41.7142" lon="2.88746">
        <ele>181.0</ele>
        <time>2021-08-15T14:09:52Z</time>
      </trkpt>
      <trkpt lat="41.714115" lon="2.88743">
        <ele>181.0</ele>
        <time>2021-08-15T14:09:52Z</time>
      </trkpt>
      <trkpt lat="41.71403" lon="2.887412">
        <ele>181.0</ele>
        <time>2021-08-15T14:09:53Z</time>
      </trkpt>
      <trkpt lat="41.713947" lon="2.887397">
        <ele>180.0</ele>
        <time>2021-08-15T14:09:55Z</time>
      </trkpt>
      <trkpt lat="41.713857" lon="2.88739">
        <ele>180.0</ele>
        <time>2021-08-15T14:09:55Z</time>
      </trkpt>
      <trkpt lat="41.713765" lon="2.887395">
        <ele>180.0</ele>
        <time>2021-08-15T14:09:57Z</time>
      </trkpt>
      <trkpt lat="41.713665" lon="2.8874">
        <ele>180.0</ele>
        <time>2021-08-15T14:09:58Z</time>
      </trkpt>
      <trkpt lat="41.71357" lon="2.887405">
        <ele>179.0</ele>
        <time>2021-08-15T14:09:58Z</time>
      </trkpt>
      <trkpt lat="41.713475" lon="2.8874">
        <ele>179.0</ele>
        <time>2021-08-15T14:10:00Z</time>
      </trkpt>
      <trkpt lat="41.713375" lon="2.887397">
        <ele>179.0</ele>
        <time>2021-08-15T14:10:00Z</time>
      </trkpt>
      <trkpt lat="41.71328" lon="2.88739">
        <ele>178.0</ele>
        <time>2021-08-15T14:10:02Z</time>
      </trkpt>
      <trkpt lat="41.713183" lon="2.887392">
        <ele>178.0</ele>
        <time>2021-08-15T14:10:02Z</time>
      </trkpt>
      <trkpt lat="41.713085" lon="2.8874">
        <ele>178.0</ele>
        <time>2021-08-15T14:10:04Z</time>
      </trkpt>
      <trkpt lat="41.71299" lon="2.8874">
        <ele>178.0</ele>
        <time>2021-08-15T14:10:05Z</time>
      </trkpt>
      <trkpt lat="41.712895" lon="2.887397">
        <ele>178.0</ele>
        <time>2021-08-15T14:10:06Z</time>
      </trkpt>
      <trkpt lat="41.71281" lon="2.887385">
        <ele>178.0</ele>
        <time>2021-08-15T14:10:07Z</time>
      </trkpt>
      <trkpt lat="41.712717" lon="2.88737">
        <ele>178.0</ele>
        <time>2021-08-15T14:10:08Z</time>
      </trkpt>
      <trkpt lat="41.712627" lon="2.88735">
        <ele>178.0</ele>
        <time>2021-08-15T14:10:09Z</time>
      </trkpt>
      <trkpt lat="41.712535" lon="2.887322">
        <ele>178.0</ele>
        <time>2021-08-15T14:10:10Z</time>
      </trkpt>
      <trkpt lat="41.712452" lon="2.887282">
        <ele>178.0</ele>
        <time>2021-08-15T14:10:11Z</time>
      </trkpt>
      <trkpt lat="41.712375" lon="2.887225">
        <ele>179.0</ele>
        <time>2021-08-15T14:10:11Z</time>
      </trkpt>
      <trkpt lat="41.712305" lon="2.887165">
        <ele>179.0</ele>
        <time>2021-08-15T14:10:13Z</time>
      </trkpt>
      <trkpt lat="41.712245" lon="2.88709">
        <ele>178.0</ele>
        <time>2021-08-15T14:10:13Z</time>
      </trkpt>
      <trkpt lat="41.712183" lon="2.88702">
        <ele>177.0</ele>
        <time>2021-08-15T14:10:14Z</time>
      </trkpt>
      <trkpt lat="41.712125" lon="2.886945">
        <ele>176.0</ele>
        <time>2021-08-15T14:10:16Z</time>
      </trkpt>
      <trkpt lat="41.712065" lon="2.886878">
        <ele>174.0</ele>
        <time>2021-08-15T14:10:17Z</time>
      </trkpt>
      <trkpt lat="41.712005" lon="2.886808">
        <ele>174.0</ele>
        <time>2021-08-15T14:10:18Z</time>
      </trkpt>
      <trkpt lat="41.711947" lon="2.88673">
        <ele>173.0</ele>
        <time>2021-08-15T14:10:19Z</time>
      </trkpt>
      <trkpt lat="41.711892" lon="2.886655">
        <ele>172.0</ele>
        <time>2021-08-15T14:10:20Z</time>
      </trkpt>
      <trkpt lat="41.711835" lon="2.886577">
        <ele>171.0</ele>
        <time>2021-08-15T14:10:21Z</time>
      </trkpt>
      <trkpt lat="41.711777" lon="2.886505">
        <ele>172.0</ele>
        <time>2021-08-15T14:10:22Z</time>
      </trkpt>
      <trkpt lat="41.71172" lon="2.886427">
        <ele>171.0</ele>
        <time>2021-08-15T14:10:22Z</time>
      </trkpt>
      <trkpt lat="41.711657" lon="2.886352">
        <ele>171.0</ele>
        <time>2021-08-15T14:10:23Z</time>
      </trkpt>
      <trkpt lat="41.71161" lon="2.886267">
        <ele>170.0</ele>
        <time>2021-08-15T14:10:24Z</time>
      </trkpt>
      <trkpt lat="41.711562" lon="2.88618">
        <ele>170.0</ele>
        <time>2021-08-15T14:10:26Z</time>
      </trkpt>
      <trkpt lat="41.711522" lon="2.886077">
        <ele>170.0</ele>
        <time>2021-08-15T14:10:27Z</time>
      </trkpt>
      <trkpt lat="41.711495" lon="2.88598">
        <ele>169.0</ele>
        <time>2021-08-15T14:10:27Z</time>
      </trkpt>
      <trkpt lat="41.711485" lon="2.885872">
        <ele>170.0</ele>
        <time>2021-08-15T14:10:28Z</time>
      </trkpt>
      <trkpt lat="41.71149" lon="2.88576">
        <ele>170.0</ele>
        <time>2021-08-15T14:10:30Z</time>
      </trkpt>
      <trkpt lat="41.711515" lon="2.885655">
        <ele>170.0</ele>
        <time>2021-08-15T14:10:31Z</time>
      </trkpt>
      <trkpt lat="41.71155" lon="2.885565">
        <ele>169.0</ele>
        <time>2021-08-15T14:10:32Z</time>
      </trkpt>
      <trkpt lat="41.711592" lon="2.88548">
        <ele>169.0</ele>
        <time>2021-08-15T14:10:33Z</time>
      </trkpt>
      <trkpt lat="41.711632" lon="2.885395">
        <ele>169.0</ele>
        <time>2021-08-15T14:10:34Z</time>
      </trkpt>
      <trkpt lat="41.711672" lon="2.88531">
        <ele>169.0</ele>
        <time>2021-08-15T14:10:34Z</time>
      </trkpt>
      <trkpt lat="41.71171" lon="2.885225">
        <ele>169.0</ele>
        <time>2021-08-15T14:10:36Z</time>
      </trkpt>
      <trkpt lat="41.711745" lon="2.88514">
        <ele>168.0</ele>
        <time>2021-08-15T14:10:37Z</time>
      </trkpt>
      <trkpt lat="41.71181" lon="2.884985">
        <ele>168.0</ele>
        <time>2021-08-15T14:10:39Z</time>
      </trkpt>
      <trkpt lat="41.711887" lon="2.88483">
        <ele>166.0</ele>
        <time>2021-08-15T14:10:41Z</time>
      </trkpt>
      <trkpt lat="41.711957" lon="2.88469">
        <ele>166.0</ele>
        <time>2021-08-15T14:10:43Z</time>
      </trkpt>
      <trkpt lat="41.712025" lon="2.884553">
        <ele>165.0</ele>
        <time>2021-08-15T14:10:45Z</time>
      </trkpt>
      <trkpt lat="41.71209" lon="2.884415">
        <ele>165.0</ele>
        <time>2021-08-15T14:10:47Z</time>
      </trkpt>
      <trkpt lat="41.712165" lon="2.88429">
        <ele>165.0</ele>
        <time>2021-08-15T14:10:49Z</time>
      </trkpt>
      <trkpt lat="41.712247" lon="2.884187">
        <ele>165.0</ele>
        <time>2021-08-15T14:10:50Z</time>
      </trkpt>
      <trkpt lat="41.712333" lon="2.8841">
        <ele>165.0</ele>
        <time>2021-08-15T14:10:53Z</time>
      </trkpt>
      <trkpt lat="41.71243" lon="2.883998">
        <ele>165.0</ele>
        <time>2021-08-15T14:10:55Z</time>
      </trkpt>
      <trkpt lat="41.712512" lon="2.8839">
        <ele>165.0</ele>
        <time>2021-08-15T14:10:57Z</time>
      </trkpt>
      <trkpt lat="41.712587" lon="2.88379">
        <ele>165.0</ele>
        <time>2021-08-15T14:10:59Z</time>
      </trkpt>
      <trkpt lat="41.712655" lon="2.88367">
        <ele>164.0</ele>
        <time>2021-08-15T14:11:01Z</time>
      </trkpt>
      <trkpt lat="41.7127" lon="2.88353">
        <ele>164.0</ele>
        <time>2021-08-15T14:11:03Z</time>
      </trkpt>
      <trkpt lat="41.712718" lon="2.883377">
        <ele>164.0</ele>
        <time>2021-08-15T14:11:05Z</time>
      </trkpt>
      <trkpt lat="41.71271" lon="2.883227">
        <ele>163.0</ele>
        <time>2021-08-15T14:11:07Z</time>
      </trkpt>
      <trkpt lat="41.712667" lon="2.88308">
        <ele>163.0</ele>
        <time>2021-08-15T14:11:09Z</time>
      </trkpt>
      <trkpt lat="41.712605" lon="2.882947">
        <ele>162.0</ele>
        <time>2021-08-15T14:11:11Z</time>
      </trkpt>
      <trkpt lat="41.712515" lon="2.882845">
        <ele>162.0</ele>
        <time>2021-08-15T14:11:12Z</time>
      </trkpt>
      <trkpt lat="41.712422" lon="2.882753">
        <ele>163.0</ele>
        <time>2021-08-15T14:11:15Z</time>
      </trkpt>
      <trkpt lat="41.712325" lon="2.882685">
        <ele>163.0</ele>
        <time>2021-08-15T14:11:17Z</time>
      </trkpt>
      <trkpt lat="41.712222" lon="2.88262">
        <ele>164.0</ele>
        <time>2021-08-15T14:11:19Z</time>
      </trkpt>
      <trkpt lat="41.712117" lon="2.882563">
        <ele>164.0</ele>
        <time>2021-08-15T14:11:21Z</time>
      </trkpt>
      <trkpt lat="41.71202" lon="2.882502">
        <ele>164.0</ele>
        <time>2021-08-15T14:11:23Z</time>
      </trkpt>
      <trkpt lat="41.71192" lon="2.882445">
        <ele>164.0</ele>
        <time>2021-08-15T14:11:25Z</time>
      </trkpt>
      <trkpt lat="41.711817" lon="2.88238">
        <ele>165.0</ele>
        <time>2021-08-15T14:11:27Z</time>
      </trkpt>
      <trkpt lat="41.711725" lon="2.882308">
        <ele>165.0</ele>
        <time>2021-08-15T14:11:29Z</time>
      </trkpt>
      <trkpt lat="41.711622" lon="2.88224">
        <ele>165.0</ele>
        <time>2021-08-15T14:11:31Z</time>
      </trkpt>
      <trkpt lat="41.71152" lon="2.88216">
        <ele>166.0</ele>
        <time>2021-08-15T14:11:32Z</time>
      </trkpt>
      <trkpt lat="41.711417" lon="2.88208">
        <ele>165.0</ele>
        <time>2021-08-15T14:11:34Z</time>
      </trkpt>
      <trkpt lat="41.71131" lon="2.882007">
        <ele>166.0</ele>
        <time>2021-08-15T14:11:37Z</time>
      </trkpt>
      <trkpt lat="41.71121" lon="2.881937">
        <ele>166.0</ele>
        <time>2021-08-15T14:11:38Z</time>
      </trkpt>
      <trkpt lat="41.711117" lon="2.88185">
        <ele>166.0</ele>
        <time>2021-08-15T14:11:41Z</time>
      </trkpt>
      <trkpt lat="41.711035" lon="2.881735">
        <ele>165.0</ele>
        <time>2021-08-15T14:11:43Z</time>
      </trkpt>
      <trkpt lat="41.710995" lon="2.881577">
        <ele>164.0</ele>
        <time>2021-08-15T14:11:44Z</time>
      </trkpt>
      <trkpt lat="41.71101" lon="2.881395">
        <ele>162.0</ele>
        <time>2021-08-15T14:11:46Z</time>
      </trkpt>
      <trkpt lat="41.711022" lon="2.881295">
        <ele>161.0</ele>
        <time>2021-08-15T14:11:48Z</time>
      </trkpt>
      <trkpt lat="41.711035" lon="2.881197">
        <ele>161.0</ele>
        <time>2021-08-15T14:11:49Z</time>
      </trkpt>
      <trkpt lat="41.711045" lon="2.881105">
        <ele>161.0</ele>
        <time>2021-08-15T14:11:50Z</time>
      </trkpt>
      <trkpt lat="41.711065" lon="2.88091">
        <ele>161.0</ele>
        <time>2021-08-15T14:11:51Z</time>
      </trkpt>
      <trkpt lat="41.711065" lon="2.880813">
        <ele>161.0</ele>
        <time>2021-08-15T14:11:53Z</time>
      </trkpt>
      <trkpt lat="41.711047" lon="2.88071">
        <ele>160.0</ele>
        <time>2021-08-15T14:11:54Z</time>
      </trkpt>
      <trkpt lat="41.71102" lon="2.88061">
        <ele>160.0</ele>
        <time>2021-08-15T14:11:55Z</time>
      </trkpt>
      <trkpt lat="41.710992" lon="2.880503">
        <ele>160.0</ele>
        <time>2021-08-15T14:11:56Z</time>
      </trkpt>
      <trkpt lat="41.710962" lon="2.880395">
        <ele>159.0</ele>
        <time>2021-08-15T14:11:57Z</time>
      </trkpt>
      <trkpt lat="41.710935" lon="2.880285">
        <ele>159.0</ele>
        <time>2021-08-15T14:11:58Z</time>
      </trkpt>
      <trkpt lat="41.71091" lon="2.880175">
        <ele>159.0</ele>
        <time>2021-08-15T14:11:58Z</time>
      </trkpt>
      <trkpt lat="41.710902" lon="2.880057">
        <ele>159.0</ele>
        <time>2021-08-15T14:12:00Z</time>
      </trkpt>
      <trkpt lat="41.710915" lon="2.879942">
        <ele>158.0</ele>
        <time>2021-08-15T14:12:01Z</time>
      </trkpt>
      <trkpt lat="41.710955" lon="2.879835">
        <ele>158.0</ele>
        <time>2021-08-15T14:12:02Z</time>
      </trkpt>
      <trkpt lat="41.711012" lon="2.879745">
        <ele>159.0</ele>
        <time>2021-08-15T14:12:03Z</time>
      </trkpt>
      <trkpt lat="41.71108" lon="2.87966">
        <ele>158.0</ele>
        <time>2021-08-15T14:12:04Z</time>
      </trkpt>
      <trkpt lat="41.711165" lon="2.87958">
        <ele>157.0</ele>
        <time>2021-08-15T14:12:05Z</time>
      </trkpt>
      <trkpt lat="41.711252" lon="2.879505">
        <ele>157.0</ele>
        <time>2021-08-15T14:12:06Z</time>
      </trkpt>
      <trkpt lat="41.71134" lon="2.87942">
        <ele>156.0</ele>
        <time>2021-08-15T14:12:07Z</time>
      </trkpt>
      <trkpt lat="41.711422" lon="2.879333">
        <ele>156.0</ele>
        <time>2021-08-15T14:12:08Z</time>
      </trkpt>
      <trkpt lat="41.71149" lon="2.879232">
        <ele>155.0</ele>
        <time>2021-08-15T14:12:09Z</time>
      </trkpt>
      <trkpt lat="41.711545" lon="2.879125">
        <ele>154.0</ele>
        <time>2021-08-15T14:12:10Z</time>
      </trkpt>
      <trkpt lat="41.7116" lon="2.87903">
        <ele>154.0</ele>
        <time>2021-08-15T14:12:11Z</time>
      </trkpt>
      <trkpt lat="41.71166" lon="2.878925">
        <ele>154.0</ele>
        <time>2021-08-15T14:12:12Z</time>
      </trkpt>
      <trkpt lat="41.711725" lon="2.878835">
        <ele>153.0</ele>
        <time>2021-08-15T14:12:12Z</time>
      </trkpt>
      <trkpt lat="41.711795" lon="2.878758">
        <ele>153.0</ele>
        <time>2021-08-15T14:12:14Z</time>
      </trkpt>
      <trkpt lat="41.711883" lon="2.8787">
        <ele>152.0</ele>
        <time>2021-08-15T14:12:14Z</time>
      </trkpt>
      <trkpt lat="41.71198" lon="2.878672">
        <ele>153.0</ele>
        <time>2021-08-15T14:12:15Z</time>
      </trkpt>
      <trkpt lat="41.71208" lon="2.87865">
        <ele>152.0</ele>
        <time>2021-08-15T14:12:17Z</time>
      </trkpt>
      <trkpt lat="41.712177" lon="2.878622">
        <ele>152.0</ele>
        <time>2021-08-15T14:12:18Z</time>
      </trkpt>
      <trkpt lat="41.71228" lon="2.87859">
        <ele>152.0</ele>
        <time>2021-08-15T14:12:19Z</time>
      </trkpt>
      <trkpt lat="41.71238" lon="2.878552">
        <ele>151.0</ele>
        <time>2021-08-15T14:12:20Z</time>
      </trkpt>
      <trkpt lat="41.71248" lon="2.878522">
        <ele>151.0</ele>
        <time>2021-08-15T14:12:20Z</time>
      </trkpt>
      <trkpt lat="41.71259" lon="2.8785">
        <ele>150.0</ele>
        <time>2021-08-15T14:12:22Z</time>
      </trkpt>
      <trkpt lat="41.7127" lon="2.87848">
        <ele>150.0</ele>
        <time>2021-08-15T14:12:23Z</time>
      </trkpt>
      <trkpt lat="41.71281" lon="2.878475">
        <ele>149.0</ele>
        <time>2021-08-15T14:12:24Z</time>
      </trkpt>
      <trkpt lat="41.712922" lon="2.878478">
        <ele>148.0</ele>
        <time>2021-08-15T14:12:24Z</time>
      </trkpt>
      <trkpt lat="41.713028" lon="2.87848">
        <ele>148.0</ele>
        <time>2021-08-15T14:12:26Z</time>
      </trkpt>
      <trkpt lat="41.713135" lon="2.878487">
        <ele>147.0</ele>
        <time>2021-08-15T14:12:27Z</time>
      </trkpt>
      <trkpt lat="41.71324" lon="2.878495">
        <ele>147.0</ele>
        <time>2021-08-15T14:12:28Z</time>
      </trkpt>
      <trkpt lat="41.713345" lon="2.8785">
        <ele>146.0</ele>
        <time>2021-08-15T14:12:29Z</time>
      </trkpt>
      <trkpt lat="41.713442" lon="2.87851">
        <ele>146.0</ele>
        <time>2021-08-15T14:12:29Z</time>
      </trkpt>
      <trkpt lat="41.713535" lon="2.878515">
        <ele>146.0</ele>
        <time>2021-08-15T14:12:30Z</time>
      </trkpt>
      <trkpt lat="41.713625" lon="2.87851">
        <ele>146.0</ele>
        <time>2021-08-15T14:12:32Z</time>
      </trkpt>
      <trkpt lat="41.713703" lon="2.878482">
        <ele>146.0</ele>
        <time>2021-08-15T14:12:32Z</time>
      </trkpt>
      <trkpt lat="41.713785" lon="2.878447">
        <ele>145.0</ele>
        <time>2021-08-15T14:12:33Z</time>
      </trkpt>
      <trkpt lat="41.713857" lon="2.878395">
        <ele>145.0</ele>
        <time>2021-08-15T14:12:35Z</time>
      </trkpt>
      <trkpt lat="41.71392" lon="2.878315">
        <ele>145.0</ele>
        <time>2021-08-15T14:12:36Z</time>
      </trkpt>
      <trkpt lat="41.71397" lon="2.878215">
        <ele>145.0</ele>
        <time>2021-08-15T14:12:37Z</time>
      </trkpt>
      <trkpt lat="41.71398" lon="2.87811">
        <ele>143.0</ele>
        <time>2021-08-15T14:12:38Z</time>
      </trkpt>
      <trkpt lat="41.713965" lon="2.877993">
        <ele>143.0</ele>
        <time>2021-08-15T14:12:39Z</time>
      </trkpt>
      <trkpt lat="41.713923" lon="2.87789">
        <ele>142.0</ele>
        <time>2021-08-15T14:12:39Z</time>
      </trkpt>
      <trkpt lat="41.71387" lon="2.877795">
        <ele>141.0</ele>
        <time>2021-08-15T14:12:41Z</time>
      </trkpt>
      <trkpt lat="41.7138" lon="2.87772">
        <ele>140.0</ele>
        <time>2021-08-15T14:12:42Z</time>
      </trkpt>
      <trkpt lat="41.713715" lon="2.877657">
        <ele>140.0</ele>
        <time>2021-08-15T14:12:43Z</time>
      </trkpt>
      <trkpt lat="41.71362" lon="2.877615">
        <ele>140.0</ele>
        <time>2021-08-15T14:12:43Z</time>
      </trkpt>
      <trkpt lat="41.713525" lon="2.87759">
        <ele>139.0</ele>
        <time>2021-08-15T14:12:44Z</time>
      </trkpt>
      <trkpt lat="41.71342" lon="2.877567">
        <ele>138.0</ele>
        <time>2021-08-15T14:12:45Z</time>
      </trkpt>
      <trkpt lat="41.713315" lon="2.877547">
        <ele>138.0</ele>
        <time>2021-08-15T14:12:47Z</time>
      </trkpt>
      <trkpt lat="41.71321" lon="2.87753">
        <ele>137.0</ele>
        <time>2021-08-15T14:12:47Z</time>
      </trkpt>
      <trkpt lat="41.713102" lon="2.87751">
        <ele>137.0</ele>
        <time>2021-08-15T14:12:49Z</time>
      </trkpt>
      <trkpt lat="41.712995" lon="2.87749">
        <ele>136.0</ele>
        <time>2021-08-15T14:12:50Z</time>
      </trkpt>
      <trkpt lat="41.71289" lon="2.877472">
        <ele>135.0</ele>
        <time>2021-08-15T14:12:50Z</time>
      </trkpt>
      <trkpt lat="41.712785" lon="2.877452">
        <ele>135.0</ele>
        <time>2021-08-15T14:12:51Z</time>
      </trkpt>
      <trkpt lat="41.712675" lon="2.877432">
        <ele>134.0</ele>
        <time>2021-08-15T14:12:52Z</time>
      </trkpt>
      <trkpt lat="41.712575" lon="2.87741">
        <ele>133.0</ele>
        <time>2021-08-15T14:12:53Z</time>
      </trkpt>
      <trkpt lat="41.712485" lon="2.877382">
        <ele>133.0</ele>
        <time>2021-08-15T14:12:54Z</time>
      </trkpt>
      <trkpt lat="41.71239" lon="2.877345">
        <ele>132.0</ele>
        <time>2021-08-15T14:12:55Z</time>
      </trkpt>
      <trkpt lat="41.71229" lon="2.877285">
        <ele>132.0</ele>
        <time>2021-08-15T14:12:56Z</time>
      </trkpt>
      <trkpt lat="41.712205" lon="2.877205">
        <ele>131.0</ele>
        <time>2021-08-15T14:12:57Z</time>
      </trkpt>
      <trkpt lat="41.712127" lon="2.877115">
        <ele>129.0</ele>
        <time>2021-08-15T14:12:58Z</time>
      </trkpt>
      <trkpt lat="41.712065" lon="2.877022">
        <ele>127.0</ele>
        <time>2021-08-15T14:12:59Z</time>
      </trkpt>
      <trkpt lat="41.712" lon="2.876918">
        <ele>126.0</ele>
        <time>2021-08-15T14:13:00Z</time>
      </trkpt>
      <trkpt lat="41.71194" lon="2.87683">
        <ele>124.0</ele>
        <time>2021-08-15T14:13:01Z</time>
      </trkpt>
      <trkpt lat="41.71187" lon="2.876735">
        <ele>123.0</ele>
        <time>2021-08-15T14:13:02Z</time>
      </trkpt>
      <trkpt lat="41.711803" lon="2.87664">
        <ele>122.0</ele>
        <time>2021-08-15T14:13:03Z</time>
      </trkpt>
      <trkpt lat="41.71174" lon="2.876537">
        <ele>121.0</ele>
        <time>2021-08-15T14:13:04Z</time>
      </trkpt>
      <trkpt lat="41.71168" lon="2.876442">
        <ele>120.0</ele>
        <time>2021-08-15T14:13:05Z</time>
      </trkpt>
      <trkpt lat="41.71161" lon="2.876347">
        <ele>119.0</ele>
        <time>2021-08-15T14:13:06Z</time>
      </trkpt>
      <trkpt lat="41.711535" lon="2.87627">
        <ele>118.0</ele>
        <time>2021-08-15T14:13:07Z</time>
      </trkpt>
      <trkpt lat="41.71146" lon="2.876197">
        <ele>118.0</ele>
        <time>2021-08-15T14:13:08Z</time>
      </trkpt>
      <trkpt lat="41.71138" lon="2.876152">
        <ele>119.0</ele>
        <time>2021-08-15T14:13:09Z</time>
      </trkpt>
      <trkpt lat="41.711295" lon="2.876122">
        <ele>119.0</ele>
        <time>2021-08-15T14:13:10Z</time>
      </trkpt>
      <trkpt lat="41.71121" lon="2.876105">
        <ele>119.0</ele>
        <time>2021-08-15T14:13:11Z</time>
      </trkpt>
      <trkpt lat="41.711127" lon="2.876112">
        <ele>118.0</ele>
        <time>2021-08-15T14:13:12Z</time>
      </trkpt>
      <trkpt lat="41.711047" lon="2.87615">
        <ele>118.0</ele>
        <time>2021-08-15T14:13:13Z</time>
      </trkpt>
      <trkpt lat="41.710977" lon="2.876192">
        <ele>118.0</ele>
        <time>2021-08-15T14:13:14Z</time>
      </trkpt>
      <trkpt lat="41.710875" lon="2.876275">
        <ele>117.0</ele>
        <time>2021-08-15T14:13:16Z</time>
      </trkpt>
      <trkpt lat="41.710782" lon="2.876372">
        <ele>116.0</ele>
        <time>2021-08-15T14:13:18Z</time>
      </trkpt>
      <trkpt lat="41.710687" lon="2.876463">
        <ele>115.0</ele>
        <time>2021-08-15T14:13:20Z</time>
      </trkpt>
      <trkpt lat="41.710605" lon="2.876552">
        <ele>114.0</ele>
        <time>2021-08-15T14:13:22Z</time>
      </trkpt>
      <trkpt lat="41.71053" lon="2.876642">
        <ele>113.0</ele>
        <time>2021-08-15T14:13:24Z</time>
      </trkpt>
      <trkpt lat="41.710462" lon="2.87672">
        <ele>113.0</ele>
        <time>2021-08-15T14:13:27Z</time>
      </trkpt>
      <trkpt lat="41.710402" lon="2.87679">
        <ele>112.0</ele>
        <time>2021-08-15T14:13:28Z</time>
      </trkpt>
      <trkpt lat="41.710332" lon="2.87685">
        <ele>112.0</ele>
        <time>2021-08-15T14:13:30Z</time>
      </trkpt>
      <trkpt lat="41.710257" lon="2.87691">
        <ele>112.0</ele>
        <time>2021-08-15T14:13:32Z</time>
      </trkpt>
      <trkpt lat="41.71018" lon="2.876945">
        <ele>113.0</ele>
        <time>2021-08-15T14:13:35Z</time>
      </trkpt>
      <trkpt lat="41.710077" lon="2.876937">
        <ele>115.0</ele>
        <time>2021-08-15T14:13:38Z</time>
      </trkpt>
      <trkpt lat="41.710005" lon="2.876895">
        <ele>116.0</ele>
        <time>2021-08-15T14:13:40Z</time>
      </trkpt>
      <trkpt lat="41.709952" lon="2.87683">
        <ele>116.0</ele>
        <time>2021-08-15T14:13:42Z</time>
      </trkpt>
      <trkpt lat="41.709905" lon="2.876747">
        <ele>117.0</ele>
        <time>2021-08-15T14:13:43Z</time>
      </trkpt>
      <trkpt lat="41.70986" lon="2.876667">
        <ele>117.0</ele>
        <time>2021-08-15T14:13:46Z</time>
      </trkpt>
      <trkpt lat="41.709812" lon="2.87655">
        <ele>117.0</ele>
        <time>2021-08-15T14:13:48Z</time>
      </trkpt>
      <trkpt lat="41.709757" lon="2.876435">
        <ele>118.0</ele>
        <time>2021-08-15T14:13:52Z</time>
      </trkpt>
      <trkpt lat="41.709702" lon="2.876318">
        <ele>118.0</ele>
        <time>2021-08-15T14:13:55Z</time>
      </trkpt>
      <trkpt lat="41.709645" lon="2.876202">
        <ele>118.0</ele>
        <time>2021-08-15T14:13:58Z</time>
      </trkpt>
      <trkpt lat="41.70957" lon="2.876097">
        <ele>119.0</ele>
        <time>2021-08-15T14:14:01Z</time>
      </trkpt>
      <trkpt lat="41.709505" lon="2.876038">
        <ele>118.0</ele>
        <time>2021-08-15T14:14:03Z</time>
      </trkpt>
      <trkpt lat="41.70941" lon="2.875985">
        <ele>119.0</ele>
        <time>2021-08-15T14:14:05Z</time>
      </trkpt>
      <trkpt lat="41.709325" lon="2.875953">
        <ele>119.0</ele>
        <time>2021-08-15T14:14:08Z</time>
      </trkpt>
      <trkpt lat="41.70925" lon="2.875952">
        <ele>120.0</ele>
        <time>2021-08-15T14:14:10Z</time>
      </trkpt>
      <trkpt lat="41.709173" lon="2.875952">
        <ele>120.0</ele>
        <time>2021-08-15T14:14:12Z</time>
      </trkpt>
      <trkpt lat="41.70909" lon="2.875975">
        <ele>120.0</ele>
        <time>2021-08-15T14:14:14Z</time>
      </trkpt>
      <trkpt lat="41.709002" lon="2.87599">
        <ele>120.0</ele>
        <time>2021-08-15T14:14:16Z</time>
      </trkpt>
      <trkpt lat="41.708925" lon="2.87599">
        <ele>121.0</ele>
        <time>2021-08-15T14:14:18Z</time>
      </trkpt>
      <trkpt lat="41.708845" lon="2.87597">
        <ele>120.0</ele>
        <time>2021-08-15T14:14:19Z</time>
      </trkpt>
      <trkpt lat="41.708775" lon="2.87592">
        <ele>121.0</ele>
        <time>2021-08-15T14:14:21Z</time>
      </trkpt>
      <trkpt lat="41.7087" lon="2.875825">
        <ele>120.0</ele>
        <time>2021-08-15T14:14:25Z</time>
      </trkpt>
      <trkpt lat="41.708662" lon="2.87574">
        <ele>120.0</ele>
        <time>2021-08-15T14:14:27Z</time>
      </trkpt>
      <trkpt lat="41.708638" lon="2.875645">
        <ele>120.0</ele>
        <time>2021-08-15T14:14:29Z</time>
      </trkpt>
      <trkpt lat="41.708622" lon="2.875545">
        <ele>119.0</ele>
        <time>2021-08-15T14:14:30Z</time>
      </trkpt>
      <trkpt lat="41.708605" lon="2.87541">
        <ele>119.0</ele>
        <time>2021-08-15T14:14:34Z</time>
      </trkpt>
      <trkpt lat="41.70858" lon="2.87527">
        <ele>119.0</ele>
        <time>2021-08-15T14:14:37Z</time>
      </trkpt>
      <trkpt lat="41.70856" lon="2.875127">
        <ele>120.0</ele>
        <time>2021-08-15T14:14:40Z</time>
      </trkpt>
      <trkpt lat="41.70854" lon="2.87499">
        <ele>121.0</ele>
        <time>2021-08-15T14:14:43Z</time>
      </trkpt>
      <trkpt lat="41.708515" lon="2.874862">
        <ele>121.0</ele>
        <time>2021-08-15T14:14:46Z</time>
      </trkpt>
      <trkpt lat="41.708482" lon="2.874742">
        <ele>121.0</ele>
        <time>2021-08-15T14:14:48Z</time>
      </trkpt>
      <trkpt lat="41.708445" lon="2.874608">
        <ele>120.0</ele>
        <time>2021-08-15T14:14:52Z</time>
      </trkpt>
      <trkpt lat="41.70842" lon="2.87452">
        <ele>120.0</ele>
        <time>2021-08-15T14:14:53Z</time>
      </trkpt>
      <trkpt lat="41.708397" lon="2.874385">
        <ele>120.0</ele>
        <time>2021-08-15T14:14:57Z</time>
      </trkpt>
      <trkpt lat="41.70838" lon="2.874285">
        <ele>120.0</ele>
        <time>2021-08-15T14:14:59Z</time>
      </trkpt>
      <trkpt lat="41.70836" lon="2.874143">
        <ele>120.0</ele>
        <time>2021-08-15T14:15:01Z</time>
      </trkpt>
      <trkpt lat="41.708355" lon="2.874047">
        <ele>120.0</ele>
        <time>2021-08-15T14:15:03Z</time>
      </trkpt>
      <trkpt lat="41.708325" lon="2.873915">
        <ele>120.0</ele>
        <time>2021-08-15T14:15:06Z</time>
      </trkpt>
      <trkpt lat="41.708297" lon="2.873782">
        <ele>119.0</ele>
        <time>2021-08-15T14:15:10Z</time>
      </trkpt>
      <trkpt lat="41.708282" lon="2.873632">
        <ele>119.0</ele>
        <time>2021-08-15T14:15:13Z</time>
      </trkpt>
      <trkpt lat="41.708267" lon="2.873507">
        <ele>119.0</ele>
        <time>2021-08-15T14:15:15Z</time>
      </trkpt>
      <trkpt lat="41.708255" lon="2.873405">
        <ele>119.0</ele>
        <time>2021-08-15T14:15:16Z</time>
      </trkpt>
      <trkpt lat="41.708232" lon="2.8733">
        <ele>119.0</ele>
        <time>2021-08-15T14:15:19Z</time>
      </trkpt>
      <trkpt lat="41.7082" lon="2.87318">
        <ele>120.0</ele>
        <time>2021-08-15T14:15:21Z</time>
      </trkpt>
      <trkpt lat="41.708185" lon="2.873055">
        <ele>119.0</ele>
        <time>2021-08-15T14:15:22Z</time>
      </trkpt>
      <trkpt lat="41.708165" lon="2.872917">
        <ele>119.0</ele>
        <time>2021-08-15T14:15:25Z</time>
      </trkpt>
      <trkpt lat="41.70814" lon="2.872787">
        <ele>119.0</ele>
        <time>2021-08-15T14:15:27Z</time>
      </trkpt>
      <trkpt lat="41.70811" lon="2.87264">
        <ele>120.0</ele>
        <time>2021-08-15T14:15:29Z</time>
      </trkpt>
      <trkpt lat="41.708075" lon="2.872485">
        <ele>120.0</ele>
        <time>2021-08-15T14:15:31Z</time>
      </trkpt>
      <trkpt lat="41.708045" lon="2.87231">
        <ele>120.0</ele>
        <time>2021-08-15T14:15:32Z</time>
      </trkpt>
      <trkpt lat="41.70801" lon="2.87212">
        <ele>120.0</ele>
        <time>2021-08-15T14:15:34Z</time>
      </trkpt>
      <trkpt lat="41.707995" lon="2.872022">
        <ele>120.0</ele>
        <time>2021-08-15T14:15:36Z</time>
      </trkpt>
      <trkpt lat="41.707972" lon="2.871918">
        <ele>120.0</ele>
        <time>2021-08-15T14:15:37Z</time>
      </trkpt>
      <trkpt lat="41.707955" lon="2.871817">
        <ele>120.0</ele>
        <time>2021-08-15T14:15:38Z</time>
      </trkpt>
      <trkpt lat="41.70794" lon="2.87171">
        <ele>120.0</ele>
        <time>2021-08-15T14:15:39Z</time>
      </trkpt>
      <trkpt lat="41.707925" lon="2.871595">
        <ele>119.0</ele>
        <time>2021-08-15T14:15:39Z</time>
      </trkpt>
      <trkpt lat="41.70791" lon="2.871473">
        <ele>119.0</ele>
        <time>2021-08-15T14:15:40Z</time>
      </trkpt>
      <trkpt lat="41.707895" lon="2.87135">
        <ele>118.0</ele>
        <time>2021-08-15T14:15:41Z</time>
      </trkpt>
      <trkpt lat="41.707875" lon="2.871218">
        <ele>118.0</ele>
        <time>2021-08-15T14:15:42Z</time>
      </trkpt>
      <trkpt lat="41.70785" lon="2.87108">
        <ele>118.0</ele>
        <time>2021-08-15T14:15:43Z</time>
      </trkpt>
      <trkpt lat="41.70783" lon="2.870933">
        <ele>117.0</ele>
        <time>2021-08-15T14:15:44Z</time>
      </trkpt>
      <trkpt lat="41.707808" lon="2.87079">
        <ele>117.0</ele>
        <time>2021-08-15T14:15:45Z</time>
      </trkpt>
      <trkpt lat="41.70778" lon="2.870638">
        <ele>116.0</ele>
        <time>2021-08-15T14:15:46Z</time>
      </trkpt>
      <trkpt lat="41.707755" lon="2.87049">
        <ele>115.0</ele>
        <time>2021-08-15T14:15:47Z</time>
      </trkpt>
      <trkpt lat="41.70773" lon="2.870345">
        <ele>114.0</ele>
        <time>2021-08-15T14:15:48Z</time>
      </trkpt>
      <trkpt lat="41.7077" lon="2.870193">
        <ele>114.0</ele>
        <time>2021-08-15T14:15:50Z</time>
      </trkpt>
      <trkpt lat="41.707665" lon="2.870043">
        <ele>113.0</ele>
        <time>2021-08-15T14:15:51Z</time>
      </trkpt>
      <trkpt lat="41.707625" lon="2.869895">
        <ele>113.0</ele>
        <time>2021-08-15T14:15:51Z</time>
      </trkpt>
      <trkpt lat="41.707585" lon="2.869745">
        <ele>112.0</ele>
        <time>2021-08-15T14:15:52Z</time>
      </trkpt>
      <trkpt lat="41.707545" lon="2.869597">
        <ele>111.0</ele>
        <time>2021-08-15T14:15:54Z</time>
      </trkpt>
      <trkpt lat="41.707495" lon="2.869455">
        <ele>110.0</ele>
        <time>2021-08-15T14:15:54Z</time>
      </trkpt>
      <trkpt lat="41.707445" lon="2.869315">
        <ele>109.0</ele>
        <time>2021-08-15T14:15:55Z</time>
      </trkpt>
      <trkpt lat="41.707405" lon="2.869182">
        <ele>108.0</ele>
        <time>2021-08-15T14:15:57Z</time>
      </trkpt>
      <trkpt lat="41.70736" lon="2.869048">
        <ele>107.0</ele>
        <time>2021-08-15T14:15:58Z</time>
      </trkpt>
      <trkpt lat="41.707315" lon="2.868925">
        <ele>107.0</ele>
        <time>2021-08-15T14:15:59Z</time>
      </trkpt>
      <trkpt lat="41.707265" lon="2.868792">
        <ele>106.0</ele>
        <time>2021-08-15T14:15:59Z</time>
      </trkpt>
      <trkpt lat="41.70721" lon="2.868665">
        <ele>105.0</ele>
        <time>2021-08-15T14:16:00Z</time>
      </trkpt>
      <trkpt lat="41.70716" lon="2.86854">
        <ele>104.0</ele>
        <time>2021-08-15T14:16:02Z</time>
      </trkpt>
      <trkpt lat="41.707112" lon="2.868398">
        <ele>104.0</ele>
        <time>2021-08-15T14:16:03Z</time>
      </trkpt>
      <trkpt lat="41.707065" lon="2.868265">
        <ele>102.0</ele>
        <time>2021-08-15T14:16:03Z</time>
      </trkpt>
      <trkpt lat="41.70702" lon="2.868127">
        <ele>102.0</ele>
        <time>2021-08-15T14:16:04Z</time>
      </trkpt>
      <trkpt lat="41.70698" lon="2.867985">
        <ele>101.0</ele>
        <time>2021-08-15T14:16:05Z</time>
      </trkpt>
      <trkpt lat="41.706955" lon="2.86784">
        <ele>100.0</ele>
        <time>2021-08-15T14:16:07Z</time>
      </trkpt>
      <trkpt lat="41.706945" lon="2.86769">
        <ele>100.0</ele>
        <time>2021-08-15T14:16:08Z</time>
      </trkpt>
      <trkpt lat="41.70695" lon="2.86754">
        <ele>100.0</ele>
        <time>2021-08-15T14:16:09Z</time>
      </trkpt>
      <trkpt lat="41.706955" lon="2.86739">
        <ele>100.0</ele>
        <time>2021-08-15T14:16:10Z</time>
      </trkpt>
      <trkpt lat="41.706963" lon="2.867238">
        <ele>100.0</ele>
        <time>2021-08-15T14:16:11Z</time>
      </trkpt>
      <trkpt lat="41.706975" lon="2.867088">
        <ele>99.0</ele>
        <time>2021-08-15T14:16:12Z</time>
      </trkpt>
      <trkpt lat="41.706985" lon="2.86695">
        <ele>99.0</ele>
        <time>2021-08-15T14:16:13Z</time>
      </trkpt>
      <trkpt lat="41.706987" lon="2.866807">
        <ele>99.0</ele>
        <time>2021-08-15T14:16:14Z</time>
      </trkpt>
      <trkpt lat="41.706992" lon="2.866665">
        <ele>98.0</ele>
        <time>2021-08-15T14:16:15Z</time>
      </trkpt>
      <trkpt lat="41.706995" lon="2.866518">
        <ele>98.0</ele>
        <time>2021-08-15T14:16:16Z</time>
      </trkpt>
      <trkpt lat="41.707" lon="2.866375">
        <ele>98.0</ele>
        <time>2021-08-15T14:16:17Z</time>
      </trkpt>
      <trkpt lat="41.70699" lon="2.866237">
        <ele>98.0</ele>
        <time>2021-08-15T14:16:17Z</time>
      </trkpt>
      <trkpt lat="41.70697" lon="2.8661">
        <ele>97.0</ele>
        <time>2021-08-15T14:16:19Z</time>
      </trkpt>
      <trkpt lat="41.70695" lon="2.865962">
        <ele>97.0</ele>
        <time>2021-08-15T14:16:20Z</time>
      </trkpt>
      <trkpt lat="41.70693" lon="2.865825">
        <ele>96.0</ele>
        <time>2021-08-15T14:16:20Z</time>
      </trkpt>
      <trkpt lat="41.70691" lon="2.865695">
        <ele>95.0</ele>
        <time>2021-08-15T14:16:22Z</time>
      </trkpt>
      <trkpt lat="41.70689" lon="2.86556">
        <ele>94.0</ele>
        <time>2021-08-15T14:16:23Z</time>
      </trkpt>
      <trkpt lat="41.706867" lon="2.86543">
        <ele>93.0</ele>
        <time>2021-08-15T14:16:23Z</time>
      </trkpt>
      <trkpt lat="41.70685" lon="2.8653">
        <ele>93.0</ele>
        <time>2021-08-15T14:16:25Z</time>
      </trkpt>
      <trkpt lat="41.706825" lon="2.86516">
        <ele>92.0</ele>
        <time>2021-08-15T14:16:26Z</time>
      </trkpt>
      <trkpt lat="41.706802" lon="2.86503">
        <ele>92.0</ele>
        <time>2021-08-15T14:16:27Z</time>
      </trkpt>
      <trkpt lat="41.70678" lon="2.864892">
        <ele>92.0</ele>
        <time>2021-08-15T14:16:28Z</time>
      </trkpt>
      <trkpt lat="41.706755" lon="2.86476">
        <ele>91.0</ele>
        <time>2021-08-15T14:16:28Z</time>
      </trkpt>
      <trkpt lat="41.70673" lon="2.864625">
        <ele>91.0</ele>
        <time>2021-08-15T14:16:30Z</time>
      </trkpt>
      <trkpt lat="41.706702" lon="2.864485">
        <ele>91.0</ele>
        <time>2021-08-15T14:16:31Z</time>
      </trkpt>
      <trkpt lat="41.706675" lon="2.864353">
        <ele>90.0</ele>
        <time>2021-08-15T14:16:31Z</time>
      </trkpt>
      <trkpt lat="41.70665" lon="2.864213">
        <ele>90.0</ele>
        <time>2021-08-15T14:16:32Z</time>
      </trkpt>
      <trkpt lat="41.706622" lon="2.864077">
        <ele>90.0</ele>
        <time>2021-08-15T14:16:34Z</time>
      </trkpt>
      <trkpt lat="41.706595" lon="2.863942">
        <ele>89.0</ele>
        <time>2021-08-15T14:16:34Z</time>
      </trkpt>
      <trkpt lat="41.70657" lon="2.863812">
        <ele>88.0</ele>
        <time>2021-08-15T14:16:36Z</time>
      </trkpt>
      <trkpt lat="41.706542" lon="2.86368">
        <ele>88.0</ele>
        <time>2021-08-15T14:16:36Z</time>
      </trkpt>
      <trkpt lat="41.706512" lon="2.863545">
        <ele>87.0</ele>
        <time>2021-08-15T14:16:38Z</time>
      </trkpt>
      <trkpt lat="41.706485" lon="2.863415">
        <ele>86.0</ele>
        <time>2021-08-15T14:16:38Z</time>
      </trkpt>
      <trkpt lat="41.706455" lon="2.863288">
        <ele>86.0</ele>
        <time>2021-08-15T14:16:40Z</time>
      </trkpt>
      <trkpt lat="41.706423" lon="2.86316">
        <ele>85.0</ele>
        <time>2021-08-15T14:16:41Z</time>
      </trkpt>
      <trkpt lat="41.706395" lon="2.863032">
        <ele>85.0</ele>
        <time>2021-08-15T14:16:42Z</time>
      </trkpt>
      <trkpt lat="41.706358" lon="2.86291">
        <ele>84.0</ele>
        <time>2021-08-15T14:16:43Z</time>
      </trkpt>
      <trkpt lat="41.70633" lon="2.862785">
        <ele>84.0</ele>
        <time>2021-08-15T14:16:44Z</time>
      </trkpt>
      <trkpt lat="41.706305" lon="2.862657">
        <ele>84.0</ele>
        <time>2021-08-15T14:16:44Z</time>
      </trkpt>
      <trkpt lat="41.706272" lon="2.862535">
        <ele>83.0</ele>
        <time>2021-08-15T14:16:45Z</time>
      </trkpt>
      <trkpt lat="41.706242" lon="2.862415">
        <ele>83.0</ele>
        <time>2021-08-15T14:16:47Z</time>
      </trkpt>
      <trkpt lat="41.70621" lon="2.862292">
        <ele>83.0</ele>
        <time>2021-08-15T14:16:47Z</time>
      </trkpt>
      <trkpt lat="41.70618" lon="2.862165">
        <ele>83.0</ele>
        <time>2021-08-15T14:16:49Z</time>
      </trkpt>
      <trkpt lat="41.70614" lon="2.86205">
        <ele>82.0</ele>
        <time>2021-08-15T14:16:50Z</time>
      </trkpt>
      <trkpt lat="41.706097" lon="2.861937">
        <ele>82.0</ele>
        <time>2021-08-15T14:16:51Z</time>
      </trkpt>
      <trkpt lat="41.706055" lon="2.861825">
        <ele>82.0</ele>
        <time>2021-08-15T14:16:52Z</time>
      </trkpt>
      <trkpt lat="41.706012" lon="2.86172">
        <ele>82.0</ele>
        <time>2021-08-15T14:16:53Z</time>
      </trkpt>
      <trkpt lat="41.705965" lon="2.861615">
        <ele>81.0</ele>
        <time>2021-08-15T14:16:54Z</time>
      </trkpt>
      <trkpt lat="41.70592" lon="2.861512">
        <ele>80.0</ele>
        <time>2021-08-15T14:16:55Z</time>
      </trkpt>
      <trkpt lat="41.705872" lon="2.861417">
        <ele>79.0</ele>
        <time>2021-08-15T14:16:55Z</time>
      </trkpt>
      <trkpt lat="41.705822" lon="2.86132">
        <ele>79.0</ele>
        <time>2021-08-15T14:16:57Z</time>
      </trkpt>
      <trkpt lat="41.70577" lon="2.861218">
        <ele>78.0</ele>
        <time>2021-08-15T14:16:58Z</time>
      </trkpt>
      <trkpt lat="41.705715" lon="2.861125">
        <ele>78.0</ele>
        <time>2021-08-15T14:16:59Z</time>
      </trkpt>
      <trkpt lat="41.705665" lon="2.861027">
        <ele>78.0</ele>
        <time>2021-08-15T14:17:00Z</time>
      </trkpt>
      <trkpt lat="41.705612" lon="2.860935">
        <ele>78.0</ele>
        <time>2021-08-15T14:17:00Z</time>
      </trkpt>
      <trkpt lat="41.70556" lon="2.860845">
        <ele>78.0</ele>
        <time>2021-08-15T14:17:02Z</time>
      </trkpt>
      <trkpt lat="41.705505" lon="2.860755">
        <ele>78.0</ele>
        <time>2021-08-15T14:17:03Z</time>
      </trkpt>
      <trkpt lat="41.705458" lon="2.86066">
        <ele>78.0</ele>
        <time>2021-08-15T14:17:03Z</time>
      </trkpt>
      <trkpt lat="41.705415" lon="2.860562">
        <ele>77.0</ele>
        <time>2021-08-15T14:17:05Z</time>
      </trkpt>
      <trkpt lat="41.705367" lon="2.860465">
        <ele>77.0</ele>
        <time>2021-08-15T14:17:06Z</time>
      </trkpt>
      <trkpt lat="41.70532" lon="2.860375">
        <ele>77.0</ele>
        <time>2021-08-15T14:17:06Z</time>
      </trkpt>
      <trkpt lat="41.705275" lon="2.860282">
        <ele>76.0</ele>
        <time>2021-08-15T14:17:07Z</time>
      </trkpt>
      <trkpt lat="41.705232" lon="2.860185">
        <ele>75.0</ele>
        <time>2021-08-15T14:17:08Z</time>
      </trkpt>
      <trkpt lat="41.705187" lon="2.8601">
        <ele>75.0</ele>
        <time>2021-08-15T14:17:10Z</time>
      </trkpt>
      <trkpt lat="41.705145" lon="2.860003">
        <ele>75.0</ele>
        <time>2021-08-15T14:17:11Z</time>
      </trkpt>
      <trkpt lat="41.70511" lon="2.859908">
        <ele>74.0</ele>
        <time>2021-08-15T14:17:11Z</time>
      </trkpt>
      <trkpt lat="41.70507" lon="2.859812">
        <ele>74.0</ele>
        <time>2021-08-15T14:17:13Z</time>
      </trkpt>
      <trkpt lat="41.70503" lon="2.859725">
        <ele>74.0</ele>
        <time>2021-08-15T14:17:13Z</time>
      </trkpt>
      <trkpt lat="41.704992" lon="2.859645">
        <ele>74.0</ele>
        <time>2021-08-15T14:17:15Z</time>
      </trkpt>
      <trkpt lat="41.70493" lon="2.859495">
        <ele>73.0</ele>
        <time>2021-08-15T14:17:17Z</time>
      </trkpt>
      <trkpt lat="41.704875" lon="2.859375">
        <ele>73.0</ele>
        <time>2021-08-15T14:17:19Z</time>
      </trkpt>
      <trkpt lat="41.704832" lon="2.859272">
        <ele>73.0</ele>
        <time>2021-08-15T14:17:20Z</time>
      </trkpt>
      <trkpt lat="41.704795" lon="2.859168">
        <ele>73.0</ele>
        <time>2021-08-15T14:17:23Z</time>
      </trkpt>
      <trkpt lat="41.70475" lon="2.85907">
        <ele>73.0</ele>
        <time>2021-08-15T14:17:25Z</time>
      </trkpt>
      <trkpt lat="41.704715" lon="2.858965">
        <ele>73.0</ele>
        <time>2021-08-15T14:17:27Z</time>
      </trkpt>
      <trkpt lat="41.704675" lon="2.858847">
        <ele>73.0</ele>
        <time>2021-08-15T14:17:29Z</time>
      </trkpt>
      <trkpt lat="41.70464" lon="2.85873">
        <ele>73.0</ele>
        <time>2021-08-15T14:17:31Z</time>
      </trkpt>
      <trkpt lat="41.704595" lon="2.85861">
        <ele>73.0</ele>
        <time>2021-08-15T14:17:33Z</time>
      </trkpt>
      <trkpt lat="41.70455" lon="2.858485">
        <ele>72.0</ele>
        <time>2021-08-15T14:17:34Z</time>
      </trkpt>
      <trkpt lat="41.704502" lon="2.858347">
        <ele>72.0</ele>
        <time>2021-08-15T14:17:37Z</time>
      </trkpt>
      <trkpt lat="41.704455" lon="2.858215">
        <ele>72.0</ele>
        <time>2021-08-15T14:17:39Z</time>
      </trkpt>
      <trkpt lat="41.70441" lon="2.858072">
        <ele>71.0</ele>
        <time>2021-08-15T14:17:41Z</time>
      </trkpt>
      <trkpt lat="41.70437" lon="2.85792">
        <ele>71.0</ele>
        <time>2021-08-15T14:17:42Z</time>
      </trkpt>
      <trkpt lat="41.70433" lon="2.85777">
        <ele>71.0</ele>
        <time>2021-08-15T14:17:45Z</time>
      </trkpt>
      <trkpt lat="41.704302" lon="2.857615">
        <ele>71.0</ele>
        <time>2021-08-15T14:17:47Z</time>
      </trkpt>
      <trkpt lat="41.704272" lon="2.857452">
        <ele>71.0</ele>
        <time>2021-08-15T14:17:49Z</time>
      </trkpt>
      <trkpt lat="41.70425" lon="2.857285">
        <ele>70.0</ele>
        <time>2021-08-15T14:17:50Z</time>
      </trkpt>
      <trkpt lat="41.70425" lon="2.857125">
        <ele>70.0</ele>
        <time>2021-08-15T14:17:53Z</time>
      </trkpt>
      <trkpt lat="41.704255" lon="2.856975">
        <ele>71.0</ele>
        <time>2021-08-15T14:17:54Z</time>
      </trkpt>
      <trkpt lat="41.704275" lon="2.856825">
        <ele>71.0</ele>
        <time>2021-08-15T14:17:57Z</time>
      </trkpt>
      <trkpt lat="41.704335" lon="2.856705">
        <ele>72.0</ele>
        <time>2021-08-15T14:17:59Z</time>
      </trkpt>
      <trkpt lat="41.704372" lon="2.856562">
        <ele>72.0</ele>
        <time>2021-08-15T14:18:01Z</time>
      </trkpt>
      <trkpt lat="41.704342" lon="2.856425">
        <ele>72.0</ele>
        <time>2021-08-15T14:18:03Z</time>
      </trkpt>
      <trkpt lat="41.704265" lon="2.856337">
        <ele>72.0</ele>
        <time>2021-08-15T14:18:05Z</time>
      </trkpt>
      <trkpt lat="41.704155" lon="2.856265">
        <ele>72.0</ele>
        <time>2021-08-15T14:18:07Z</time>
      </trkpt>
      <trkpt lat="41.704078" lon="2.856155">
        <ele>73.0</ele>
        <time>2021-08-15T14:18:08Z</time>
      </trkpt>
      <trkpt lat="41.704035" lon="2.85602">
        <ele>74.0</ele>
        <time>2021-08-15T14:18:11Z</time>
      </trkpt>
      <trkpt lat="41.704007" lon="2.85586">
        <ele>74.0</ele>
        <time>2021-08-15T14:18:12Z</time>
      </trkpt>
      <trkpt lat="41.70398" lon="2.85572">
        <ele>74.0</ele>
        <time>2021-08-15T14:18:14Z</time>
      </trkpt>
      <trkpt lat="41.703955" lon="2.855578">
        <ele>74.0</ele>
        <time>2021-08-15T14:18:17Z</time>
      </trkpt>
      <trkpt lat="41.703923" lon="2.855435">
        <ele>74.0</ele>
        <time>2021-08-15T14:18:18Z</time>
      </trkpt>
      <trkpt lat="41.70389" lon="2.855295">
        <ele>73.0</ele>
        <time>2021-08-15T14:18:21Z</time>
      </trkpt>
      <trkpt lat="41.703852" lon="2.855155">
        <ele>73.0</ele>
        <time>2021-08-15T14:18:22Z</time>
      </trkpt>
      <trkpt lat="41.703815" lon="2.855015">
        <ele>73.0</ele>
        <time>2021-08-15T14:18:25Z</time>
      </trkpt>
      <trkpt lat="41.70378" lon="2.85488">
        <ele>73.0</ele>
        <time>2021-08-15T14:18:26Z</time>
      </trkpt>
      <trkpt lat="41.70374" lon="2.854735">
        <ele>73.0</ele>
        <time>2021-08-15T14:18:29Z</time>
      </trkpt>
      <trkpt lat="41.703702" lon="2.854607">
        <ele>72.0</ele>
        <time>2021-08-15T14:18:31Z</time>
      </trkpt>
      <trkpt lat="41.70367" lon="2.854462">
        <ele>72.0</ele>
        <time>2021-08-15T14:18:33Z</time>
      </trkpt>
      <trkpt lat="41.70365" lon="2.854312">
        <ele>71.0</ele>
        <time>2021-08-15T14:18:35Z</time>
      </trkpt>
      <trkpt lat="41.703622" lon="2.854172">
        <ele>72.0</ele>
        <time>2021-08-15T14:18:37Z</time>
      </trkpt>
      <trkpt lat="41.703595" lon="2.854025">
        <ele>72.0</ele>
        <time>2021-08-15T14:18:38Z</time>
      </trkpt>
      <trkpt lat="41.70357" lon="2.853885">
        <ele>72.0</ele>
        <time>2021-08-15T14:18:41Z</time>
      </trkpt>
      <trkpt lat="41.703557" lon="2.853735">
        <ele>71.0</ele>
        <time>2021-08-15T14:18:43Z</time>
      </trkpt>
      <trkpt lat="41.70355" lon="2.8536">
        <ele>72.0</ele>
        <time>2021-08-15T14:18:45Z</time>
      </trkpt>
      <trkpt lat="41.703543" lon="2.85347">
        <ele>72.0</ele>
        <time>2021-08-15T14:18:46Z</time>
      </trkpt>
      <trkpt lat="41.70354" lon="2.85336">
        <ele>72.0</ele>
        <time>2021-08-15T14:18:49Z</time>
      </trkpt>
      <trkpt lat="41.70354" lon="2.853258">
        <ele>73.0</ele>
        <time>2021-08-15T14:18:51Z</time>
      </trkpt>
      <trkpt lat="41.70356" lon="2.85314">
        <ele>73.0</ele>
        <time>2021-08-15T14:18:54Z</time>
      </trkpt>
      <trkpt lat="41.703585" lon="2.853045">
        <ele>73.0</ele>
        <time>2021-08-15T14:18:57Z</time>
      </trkpt>
      <trkpt lat="41.703625" lon="2.85292">
        <ele>74.0</ele>
        <time>2021-08-15T14:19:00Z</time>
      </trkpt>
      <trkpt lat="41.703645" lon="2.8528">
        <ele>75.0</ele>
        <time>2021-08-15T14:19:01Z</time>
      </trkpt>
      <trkpt lat="41.703667" lon="2.852665">
        <ele>75.0</ele>
        <time>2021-08-15T14:19:03Z</time>
      </trkpt>
      <trkpt lat="41.703685" lon="2.852535">
        <ele>76.0</ele>
        <time>2021-08-15T14:19:05Z</time>
      </trkpt>
      <trkpt lat="41.70372" lon="2.852395">
        <ele>76.0</ele>
        <time>2021-08-15T14:19:08Z</time>
      </trkpt>
      <trkpt lat="41.703762" lon="2.852245">
        <ele>76.0</ele>
        <time>2021-08-15T14:19:09Z</time>
      </trkpt>
      <trkpt lat="41.7038" lon="2.85209">
        <ele>75.0</ele>
        <time>2021-08-15T14:19:11Z</time>
      </trkpt>
      <trkpt lat="41.703835" lon="2.851933">
        <ele>75.0</ele>
        <time>2021-08-15T14:19:14Z</time>
      </trkpt>
      <trkpt lat="41.703865" lon="2.851785">
        <ele>74.0</ele>
        <time>2021-08-15T14:19:16Z</time>
      </trkpt>
      <trkpt lat="41.703895" lon="2.851637">
        <ele>74.0</ele>
        <time>2021-08-15T14:19:18Z</time>
      </trkpt>
      <trkpt lat="41.703915" lon="2.851515">
        <ele>73.0</ele>
        <time>2021-08-15T14:19:19Z</time>
      </trkpt>
      <trkpt lat="41.70392" lon="2.85141">
        <ele>73.0</ele>
        <time>2021-08-15T14:19:21Z</time>
      </trkpt>
      <trkpt lat="41.703935" lon="2.851312">
        <ele>73.0</ele>
        <time>2021-08-15T14:19:25Z</time>
      </trkpt>
      <trkpt lat="41.70395" lon="2.851245">
        <ele>73.0</ele>
        <time>2021-08-15T14:19:31Z</time>
      </trkpt>
      <trkpt lat="41.70395" lon="2.851245">
        <ele>73.0</ele>
        <time>2021-08-15T14:19:36Z</time>
      </trkpt>
      <trkpt lat="41.703995" lon="2.851122">
        <ele>72.0</ele>
        <time>2021-08-15T14:19:52Z</time>
      </trkpt>
      <trkpt lat="41.704007" lon="2.851025">
        <ele>73.0</ele>
        <time>2021-08-15T14:19:54Z</time>
      </trkpt>
      <trkpt lat="41.704025" lon="2.850912">
        <ele>73.0</ele>
        <time>2021-08-15T14:19:55Z</time>
      </trkpt>
      <trkpt lat="41.704045" lon="2.850777">
        <ele>73.0</ele>
        <time>2021-08-15T14:19:58Z</time>
      </trkpt>
      <trkpt lat="41.704073" lon="2.850637">
        <ele>73.0</ele>
        <time>2021-08-15T14:19:59Z</time>
      </trkpt>
      <trkpt lat="41.704105" lon="2.85049">
        <ele>73.0</ele>
        <time>2021-08-15T14:20:02Z</time>
      </trkpt>
      <trkpt lat="41.70413" lon="2.85034">
        <ele>74.0</ele>
        <time>2021-08-15T14:20:04Z</time>
      </trkpt>
      <trkpt lat="41.704155" lon="2.850183">
        <ele>74.0</ele>
        <time>2021-08-15T14:20:06Z</time>
      </trkpt>
      <trkpt lat="41.70418" lon="2.850025">
        <ele>75.0</ele>
        <time>2021-08-15T14:20:07Z</time>
      </trkpt>
      <trkpt lat="41.70421" lon="2.84986">
        <ele>74.0</ele>
        <time>2021-08-15T14:20:09Z</time>
      </trkpt>
      <trkpt lat="41.704225" lon="2.849685">
        <ele>74.0</ele>
        <time>2021-08-15T14:20:12Z</time>
      </trkpt>
      <trkpt lat="41.70423" lon="2.8495">
        <ele>74.0</ele>
        <time>2021-08-15T14:20:14Z</time>
      </trkpt>
      <trkpt lat="41.704227" lon="2.849315">
        <ele>75.0</ele>
        <time>2021-08-15T14:20:16Z</time>
      </trkpt>
      <trkpt lat="41.704227" lon="2.849138">
        <ele>75.0</ele>
        <time>2021-08-15T14:20:17Z</time>
      </trkpt>
      <trkpt lat="41.70421" lon="2.848963">
        <ele>75.0</ele>
        <time>2021-08-15T14:20:19Z</time>
      </trkpt>
      <trkpt lat="41.70418" lon="2.848795">
        <ele>74.0</ele>
        <time>2021-08-15T14:20:22Z</time>
      </trkpt>
      <trkpt lat="41.704147" lon="2.848635">
        <ele>73.0</ele>
        <time>2021-08-15T14:20:24Z</time>
      </trkpt>
      <trkpt lat="41.704115" lon="2.848477">
        <ele>73.0</ele>
        <time>2021-08-15T14:20:26Z</time>
      </trkpt>
      <trkpt lat="41.704085" lon="2.848335">
        <ele>73.0</ele>
        <time>2021-08-15T14:20:28Z</time>
      </trkpt>
      <trkpt lat="41.704078" lon="2.848212">
        <ele>73.0</ele>
        <time>2021-08-15T14:20:29Z</time>
      </trkpt>
      <trkpt lat="41.704102" lon="2.848105">
        <ele>73.0</ele>
        <time>2021-08-15T14:20:35Z</time>
      </trkpt>
      <trkpt lat="41.704162" lon="2.84805">
        <ele>73.0</ele>
        <time>2021-08-15T14:20:37Z</time>
      </trkpt>
      <trkpt lat="41.70423" lon="2.847995">
        <ele>74.0</ele>
        <time>2021-08-15T14:20:39Z</time>
      </trkpt>
      <trkpt lat="41.704247" lon="2.847875">
        <ele>73.0</ele>
        <time>2021-08-15T14:20:41Z</time>
      </trkpt>
      <trkpt lat="41.704205" lon="2.847763">
        <ele>73.0</ele>
        <time>2021-08-15T14:20:43Z</time>
      </trkpt>
      <trkpt lat="41.704122" lon="2.847707">
        <ele>73.0</ele>
        <time>2021-08-15T14:20:45Z</time>
      </trkpt>
      <trkpt lat="41.70403" lon="2.847665">
        <ele>72.0</ele>
        <time>2021-08-15T14:20:46Z</time>
      </trkpt>
      <trkpt lat="41.70395" lon="2.847575">
        <ele>71.0</ele>
        <time>2021-08-15T14:20:49Z</time>
      </trkpt>
      <trkpt lat="41.7039" lon="2.847455">
        <ele>71.0</ele>
        <time>2021-08-15T14:20:51Z</time>
      </trkpt>
      <trkpt lat="41.70386" lon="2.847295">
        <ele>71.0</ele>
        <time>2021-08-15T14:20:52Z</time>
      </trkpt>
      <trkpt lat="41.70384" lon="2.84713">
        <ele>70.0</ele>
        <time>2021-08-15T14:20:54Z</time>
      </trkpt>
      <trkpt lat="41.70381" lon="2.846972">
        <ele>69.0</ele>
        <time>2021-08-15T14:20:57Z</time>
      </trkpt>
      <trkpt lat="41.703775" lon="2.84681">
        <ele>69.0</ele>
        <time>2021-08-15T14:20:59Z</time>
      </trkpt>
      <trkpt lat="41.70374" lon="2.84664">
        <ele>67.0</ele>
        <time>2021-08-15T14:21:01Z</time>
      </trkpt>
      <trkpt lat="41.703697" lon="2.84648">
        <ele>66.0</ele>
        <time>2021-08-15T14:21:02Z</time>
      </trkpt>
      <trkpt lat="41.70366" lon="2.846332">
        <ele>66.0</ele>
        <time>2021-08-15T14:21:05Z</time>
      </trkpt>
      <trkpt lat="41.703625" lon="2.84621">
        <ele>65.0</ele>
        <time>2021-08-15T14:21:07Z</time>
      </trkpt>
      <trkpt lat="41.703592" lon="2.84608">
        <ele>64.0</ele>
        <time>2021-08-15T14:21:09Z</time>
      </trkpt>
      <trkpt lat="41.703565" lon="2.845975">
        <ele>64.0</ele>
        <time>2021-08-15T14:21:11Z</time>
      </trkpt>
      <trkpt lat="41.70353" lon="2.845887">
        <ele>63.0</ele>
        <time>2021-08-15T14:21:13Z</time>
      </trkpt>
      <trkpt lat="41.703485" lon="2.845785">
        <ele>63.0</ele>
        <time>2021-08-15T14:21:14Z</time>
      </trkpt>
      <trkpt lat="41.703435" lon="2.845675">
        <ele>63.0</ele>
        <time>2021-08-15T14:21:16Z</time>
      </trkpt>
      <trkpt lat="41.70337" lon="2.845557">
        <ele>62.0</ele>
        <time>2021-08-15T14:21:18Z</time>
      </trkpt>
      <trkpt lat="41.703318" lon="2.845458">
        <ele>61.0</ele>
        <time>2021-08-15T14:21:21Z</time>
      </trkpt>
      <trkpt lat="41.70328" lon="2.84538">
        <ele>61.0</ele>
        <time>2021-08-15T14:21:22Z</time>
      </trkpt>
      <trkpt lat="41.703225" lon="2.845292">
        <ele>61.0</ele>
        <time>2021-08-15T14:21:24Z</time>
      </trkpt>
      <trkpt lat="41.703157" lon="2.845205">
        <ele>61.0</ele>
        <time>2021-08-15T14:21:27Z</time>
      </trkpt>
      <trkpt lat="41.703093" lon="2.845115">
        <ele>61.0</ele>
        <time>2021-08-15T14:21:29Z</time>
      </trkpt>
      <trkpt lat="41.70302" lon="2.845">
        <ele>61.0</ele>
        <time>2021-08-15T14:21:31Z</time>
      </trkpt>
      <trkpt lat="41.70292" lon="2.84487">
        <ele>62.0</ele>
        <time>2021-08-15T14:21:33Z</time>
      </trkpt>
      <trkpt lat="41.702835" lon="2.84472">
        <ele>61.0</ele>
        <time>2021-08-15T14:21:34Z</time>
      </trkpt>
      <trkpt lat="41.702785" lon="2.844647">
        <ele>61.0</ele>
        <time>2021-08-15T14:21:35Z</time>
      </trkpt>
      <trkpt lat="41.702735" lon="2.844572">
        <ele>61.0</ele>
        <time>2021-08-15T14:21:37Z</time>
      </trkpt>
      <trkpt lat="41.702635" lon="2.84443">
        <ele>61.0</ele>
        <time>2021-08-15T14:21:38Z</time>
      </trkpt>
      <trkpt lat="41.702585" lon="2.844353">
        <ele>61.0</ele>
        <time>2021-08-15T14:21:40Z</time>
      </trkpt>
      <trkpt lat="41.70254" lon="2.844275">
        <ele>61.0</ele>
        <time>2021-08-15T14:21:40Z</time>
      </trkpt>
      <trkpt lat="41.702488" lon="2.844203">
        <ele>61.0</ele>
        <time>2021-08-15T14:21:42Z</time>
      </trkpt>
      <trkpt lat="41.702445" lon="2.84413">
        <ele>61.0</ele>
        <time>2021-08-15T14:21:43Z</time>
      </trkpt>
      <trkpt lat="41.7024" lon="2.844055">
        <ele>61.0</ele>
        <time>2021-08-15T14:21:43Z</time>
      </trkpt>
      <trkpt lat="41.702348" lon="2.843972">
        <ele>61.0</ele>
        <time>2021-08-15T14:21:45Z</time>
      </trkpt>
      <trkpt lat="41.702263" lon="2.84382">
        <ele>60.0</ele>
        <time>2021-08-15T14:21:47Z</time>
      </trkpt>
      <trkpt lat="41.702215" lon="2.843735">
        <ele>59.0</ele>
        <time>2021-08-15T14:21:48Z</time>
      </trkpt>
      <trkpt lat="41.702135" lon="2.843587">
        <ele>58.0</ele>
        <time>2021-08-15T14:21:50Z</time>
      </trkpt>
      <trkpt lat="41.702045" lon="2.843445">
        <ele>58.0</ele>
        <time>2021-08-15T14:21:52Z</time>
      </trkpt>
      <trkpt lat="41.701952" lon="2.84331">
        <ele>57.0</ele>
        <time>2021-08-15T14:21:53Z</time>
      </trkpt>
      <trkpt lat="41.701865" lon="2.843192">
        <ele>56.0</ele>
        <time>2021-08-15T14:21:56Z</time>
      </trkpt>
      <trkpt lat="41.701785" lon="2.84307">
        <ele>56.0</ele>
        <time>2021-08-15T14:21:57Z</time>
      </trkpt>
      <trkpt lat="41.701695" lon="2.842945">
        <ele>56.0</ele>
        <time>2021-08-15T14:22:00Z</time>
      </trkpt>
      <trkpt lat="41.70161" lon="2.84282">
        <ele>56.0</ele>
        <time>2021-08-15T14:22:02Z</time>
      </trkpt>
      <trkpt lat="41.70153" lon="2.842688">
        <ele>56.0</ele>
        <time>2021-08-15T14:22:04Z</time>
      </trkpt>
      <trkpt lat="41.70146" lon="2.842575">
        <ele>56.0</ele>
        <time>2021-08-15T14:22:06Z</time>
      </trkpt>
      <trkpt lat="41.7014" lon="2.842465">
        <ele>56.0</ele>
        <time>2021-08-15T14:22:07Z</time>
      </trkpt>
      <trkpt lat="41.701337" lon="2.84236">
        <ele>57.0</ele>
        <time>2021-08-15T14:22:10Z</time>
      </trkpt>
      <trkpt lat="41.701287" lon="2.842243">
        <ele>57.0</ele>
        <time>2021-08-15T14:22:12Z</time>
      </trkpt>
      <trkpt lat="41.701235" lon="2.842145">
        <ele>57.0</ele>
        <time>2021-08-15T14:22:13Z</time>
      </trkpt>
      <trkpt lat="41.70118" lon="2.84205">
        <ele>57.0</ele>
        <time>2021-08-15T14:22:15Z</time>
      </trkpt>
      <trkpt lat="41.701122" lon="2.841985">
        <ele>57.0</ele>
        <time>2021-08-15T14:22:19Z</time>
      </trkpt>
      <trkpt lat="41.70107" lon="2.841915">
        <ele>58.0</ele>
        <time>2021-08-15T14:22:26Z</time>
      </trkpt>
      <trkpt lat="41.701022" lon="2.841835">
        <ele>58.0</ele>
        <time>2021-08-15T14:22:30Z</time>
      </trkpt>
      <trkpt lat="41.700967" lon="2.841762">
        <ele>59.0</ele>
        <time>2021-08-15T14:22:33Z</time>
      </trkpt>
      <trkpt lat="41.70091" lon="2.841672">
        <ele>59.0</ele>
        <time>2021-08-15T14:22:35Z</time>
      </trkpt>
      <trkpt lat="41.700865" lon="2.841565">
        <ele>59.0</ele>
        <time>2021-08-15T14:22:38Z</time>
      </trkpt>
      <trkpt lat="41.70085" lon="2.841467">
        <ele>59.0</ele>
        <time>2021-08-15T14:22:40Z</time>
      </trkpt>
      <trkpt lat="41.70084" lon="2.841367">
        <ele>59.0</ele>
        <time>2021-08-15T14:22:43Z</time>
      </trkpt>
      <trkpt lat="41.70082" lon="2.841255">
        <ele>58.0</ele>
        <time>2021-08-15T14:22:45Z</time>
      </trkpt>
      <trkpt lat="41.7008" lon="2.841145">
        <ele>58.0</ele>
        <time>2021-08-15T14:22:47Z</time>
      </trkpt>
      <trkpt lat="41.700742" lon="2.841065">
        <ele>59.0</ele>
        <time>2021-08-15T14:22:49Z</time>
      </trkpt>
      <trkpt lat="41.700672" lon="2.841">
        <ele>59.0</ele>
        <time>2021-08-15T14:22:51Z</time>
      </trkpt>
      <trkpt lat="41.7006" lon="2.840935">
        <ele>59.0</ele>
        <time>2021-08-15T14:22:53Z</time>
      </trkpt>
      <trkpt lat="41.70056" lon="2.840827">
        <ele>58.0</ele>
        <time>2021-08-15T14:22:54Z</time>
      </trkpt>
      <trkpt lat="41.700518" lon="2.840707">
        <ele>58.0</ele>
        <time>2021-08-15T14:22:57Z</time>
      </trkpt>
      <trkpt lat="41.700495" lon="2.84057">
        <ele>58.0</ele>
        <time>2021-08-15T14:22:59Z</time>
      </trkpt>
      <trkpt lat="41.70049" lon="2.840432">
        <ele>58.0</ele>
        <time>2021-08-15T14:23:01Z</time>
      </trkpt>
      <trkpt lat="41.700495" lon="2.8403">
        <ele>57.0</ele>
        <time>2021-08-15T14:23:03Z</time>
      </trkpt>
      <trkpt lat="41.700517" lon="2.840175">
        <ele>58.0</ele>
        <time>2021-08-15T14:23:04Z</time>
      </trkpt>
      <trkpt lat="41.70054" lon="2.84004">
        <ele>57.0</ele>
        <time>2021-08-15T14:23:07Z</time>
      </trkpt>
      <trkpt lat="41.700572" lon="2.83993">
        <ele>57.0</ele>
        <time>2021-08-15T14:23:09Z</time>
      </trkpt>
      <trkpt lat="41.700605" lon="2.83981">
        <ele>57.0</ele>
        <time>2021-08-15T14:23:11Z</time>
      </trkpt>
      <trkpt lat="41.700635" lon="2.83969">
        <ele>56.0</ele>
        <time>2021-08-15T14:23:13Z</time>
      </trkpt>
      <trkpt lat="41.700662" lon="2.83957">
        <ele>56.0</ele>
        <time>2021-08-15T14:23:15Z</time>
      </trkpt>
      <trkpt lat="41.700682" lon="2.839465">
        <ele>56.0</ele>
        <time>2021-08-15T14:23:17Z</time>
      </trkpt>
      <trkpt lat="41.700705" lon="2.839357">
        <ele>56.0</ele>
        <time>2021-08-15T14:23:19Z</time>
      </trkpt>
      <trkpt lat="41.700725" lon="2.839257">
        <ele>56.0</ele>
        <time>2021-08-15T14:23:21Z</time>
      </trkpt>
      <trkpt lat="41.700737" lon="2.839158">
        <ele>57.0</ele>
        <time>2021-08-15T14:23:23Z</time>
      </trkpt>
      <trkpt lat="41.700757" lon="2.83905">
        <ele>57.0</ele>
        <time>2021-08-15T14:23:24Z</time>
      </trkpt>
      <trkpt lat="41.70077" lon="2.83894">
        <ele>58.0</ele>
        <time>2021-08-15T14:23:26Z</time>
      </trkpt>
      <trkpt lat="41.70079" lon="2.838835">
        <ele>58.0</ele>
        <time>2021-08-15T14:23:29Z</time>
      </trkpt>
      <trkpt lat="41.700795" lon="2.83873">
        <ele>59.0</ele>
        <time>2021-08-15T14:23:31Z</time>
      </trkpt>
      <trkpt lat="41.700795" lon="2.838628">
        <ele>59.0</ele>
        <time>2021-08-15T14:23:33Z</time>
      </trkpt>
      <trkpt lat="41.7008" lon="2.83852">
        <ele>59.0</ele>
        <time>2021-08-15T14:23:35Z</time>
      </trkpt>
      <trkpt lat="41.7008" lon="2.838405">
        <ele>58.0</ele>
        <time>2021-08-15T14:23:36Z</time>
      </trkpt>
      <trkpt lat="41.7008" lon="2.838305">
        <ele>58.0</ele>
        <time>2021-08-15T14:23:39Z</time>
      </trkpt>
      <trkpt lat="41.70081" lon="2.83819">
        <ele>58.0</ele>
        <time>2021-08-15T14:23:41Z</time>
      </trkpt>
      <trkpt lat="41.700815" lon="2.838067">
        <ele>57.0</ele>
        <time>2021-08-15T14:23:43Z</time>
      </trkpt>
      <trkpt lat="41.70081" lon="2.837955">
        <ele>57.0</ele>
        <time>2021-08-15T14:23:45Z</time>
      </trkpt>
      <trkpt lat="41.700805" lon="2.837842">
        <ele>58.0</ele>
        <time>2021-08-15T14:23:47Z</time>
      </trkpt>
      <trkpt lat="41.700805" lon="2.83773">
        <ele>58.0</ele>
        <time>2021-08-15T14:23:49Z</time>
      </trkpt>
      <trkpt lat="41.700805" lon="2.837615">
        <ele>58.0</ele>
        <time>2021-08-15T14:23:50Z</time>
      </trkpt>
      <trkpt lat="41.7008" lon="2.83749">
        <ele>58.0</ele>
        <time>2021-08-15T14:23:53Z</time>
      </trkpt>
      <trkpt lat="41.70079" lon="2.837377">
        <ele>58.0</ele>
        <time>2021-08-15T14:23:54Z</time>
      </trkpt>
      <trkpt lat="41.70077" lon="2.837265">
        <ele>58.0</ele>
        <time>2021-08-15T14:23:56Z</time>
      </trkpt>
      <trkpt lat="41.700752" lon="2.837165">
        <ele>59.0</ele>
        <time>2021-08-15T14:23:58Z</time>
      </trkpt>
      <trkpt lat="41.700732" lon="2.83705">
        <ele>58.0</ele>
        <time>2021-08-15T14:24:00Z</time>
      </trkpt>
      <trkpt lat="41.700722" lon="2.836938">
        <ele>58.0</ele>
        <time>2021-08-15T14:24:02Z</time>
      </trkpt>
      <trkpt lat="41.700715" lon="2.83683">
        <ele>58.0</ele>
        <time>2021-08-15T14:24:04Z</time>
      </trkpt>
      <trkpt lat="41.7007" lon="2.836715">
        <ele>58.0</ele>
        <time>2021-08-15T14:24:06Z</time>
      </trkpt>
      <trkpt lat="41.70069" lon="2.836615">
        <ele>57.0</ele>
        <time>2021-08-15T14:24:08Z</time>
      </trkpt>
      <trkpt lat="41.700685" lon="2.836505">
        <ele>57.0</ele>
        <time>2021-08-15T14:24:11Z</time>
      </trkpt>
      <trkpt lat="41.70067" lon="2.83636">
        <ele>56.0</ele>
        <time>2021-08-15T14:24:12Z</time>
      </trkpt>
      <trkpt lat="41.700657" lon="2.836238">
        <ele>56.0</ele>
        <time>2021-08-15T14:24:15Z</time>
      </trkpt>
      <trkpt lat="41.70064" lon="2.836103">
        <ele>57.0</ele>
        <time>2021-08-15T14:24:16Z</time>
      </trkpt>
      <trkpt lat="41.700622" lon="2.835995">
        <ele>58.0</ele>
        <time>2021-08-15T14:24:19Z</time>
      </trkpt>
      <trkpt lat="41.700602" lon="2.83586">
        <ele>58.0</ele>
        <time>2021-08-15T14:24:21Z</time>
      </trkpt>
      <trkpt lat="41.700585" lon="2.83574">
        <ele>59.0</ele>
        <time>2021-08-15T14:24:24Z</time>
      </trkpt>
      <trkpt lat="41.70058" lon="2.835635">
        <ele>59.0</ele>
        <time>2021-08-15T14:24:27Z</time>
      </trkpt>
      <trkpt lat="41.700575" lon="2.835602">
        <ele>59.0</ele>
        <time>2021-08-15T14:24:34Z</time>
      </trkpt>
      <trkpt lat="41.700575" lon="2.835602">
        <ele>59.0</ele>
        <time>2021-08-15T14:24:36Z</time>
      </trkpt>
      <trkpt lat="41.70057" lon="2.835477">
        <ele>60.0</ele>
        <time>2021-08-15T14:24:42Z</time>
      </trkpt>
      <trkpt lat="41.700555" lon="2.83535">
        <ele>60.0</ele>
        <time>2021-08-15T14:24:44Z</time>
      </trkpt>
      <trkpt lat="41.70054" lon="2.835245">
        <ele>61.0</ele>
        <time>2021-08-15T14:24:47Z</time>
      </trkpt>
      <trkpt lat="41.700512" lon="2.83514">
        <ele>62.0</ele>
        <time>2021-08-15T14:24:48Z</time>
      </trkpt>
      <trkpt lat="41.700497" lon="2.835023">
        <ele>61.0</ele>
        <time>2021-08-15T14:24:50Z</time>
      </trkpt>
      <trkpt lat="41.70048" lon="2.8349">
        <ele>62.0</ele>
        <time>2021-08-15T14:24:52Z</time>
      </trkpt>
      <trkpt lat="41.70046" lon="2.834758">
        <ele>62.0</ele>
        <time>2021-08-15T14:24:55Z</time>
      </trkpt>
      <trkpt lat="41.700443" lon="2.83463">
        <ele>62.0</ele>
        <time>2021-08-15T14:24:56Z</time>
      </trkpt>
      <trkpt lat="41.70041" lon="2.834485">
        <ele>62.0</ele>
        <time>2021-08-15T14:24:58Z</time>
      </trkpt>
      <trkpt lat="41.700387" lon="2.834333">
        <ele>62.0</ele>
        <time>2021-08-15T14:25:00Z</time>
      </trkpt>
      <trkpt lat="41.700362" lon="2.834195">
        <ele>62.0</ele>
        <time>2021-08-15T14:25:02Z</time>
      </trkpt>
      <trkpt lat="41.700332" lon="2.834052">
        <ele>63.0</ele>
        <time>2021-08-15T14:25:04Z</time>
      </trkpt>
      <trkpt lat="41.7003" lon="2.833895">
        <ele>64.0</ele>
        <time>2021-08-15T14:25:06Z</time>
      </trkpt>
      <trkpt lat="41.70027" lon="2.83372">
        <ele>66.0</ele>
        <time>2021-08-15T14:25:08Z</time>
      </trkpt>
      <trkpt lat="41.700247" lon="2.83355">
        <ele>66.0</ele>
        <time>2021-08-15T14:25:11Z</time>
      </trkpt>
      <trkpt lat="41.700215" lon="2.833385">
        <ele>65.0</ele>
        <time>2021-08-15T14:25:13Z</time>
      </trkpt>
      <trkpt lat="41.700185" lon="2.833225">
        <ele>64.0</ele>
        <time>2021-08-15T14:25:14Z</time>
      </trkpt>
      <trkpt lat="41.70015" lon="2.833062">
        <ele>63.0</ele>
        <time>2021-08-15T14:25:17Z</time>
      </trkpt>
      <trkpt lat="41.700105" lon="2.832915">
        <ele>62.0</ele>
        <time>2021-08-15T14:25:18Z</time>
      </trkpt>
      <trkpt lat="41.70006" lon="2.83276">
        <ele>62.0</ele>
        <time>2021-08-15T14:25:21Z</time>
      </trkpt>
      <trkpt lat="41.70002" lon="2.8326">
        <ele>62.0</ele>
        <time>2021-08-15T14:25:22Z</time>
      </trkpt>
      <trkpt lat="41.699975" lon="2.832445">
        <ele>62.0</ele>
        <time>2021-08-15T14:25:25Z</time>
      </trkpt>
      <trkpt lat="41.69994" lon="2.8323">
        <ele>63.0</ele>
        <time>2021-08-15T14:25:26Z</time>
      </trkpt>
      <trkpt lat="41.699895" lon="2.832162">
        <ele>63.0</ele>
        <time>2021-08-15T14:25:29Z</time>
      </trkpt>
      <trkpt lat="41.699855" lon="2.832035">
        <ele>63.0</ele>
        <time>2021-08-15T14:25:30Z</time>
      </trkpt>
      <trkpt lat="41.699825" lon="2.831907">
        <ele>62.0</ele>
        <time>2021-08-15T14:25:33Z</time>
      </trkpt>
      <trkpt lat="41.69982" lon="2.83177">
        <ele>64.0</ele>
        <time>2021-08-15T14:25:35Z</time>
      </trkpt>
      <trkpt lat="41.69981" lon="2.831637">
        <ele>63.0</ele>
        <time>2021-08-15T14:25:37Z</time>
      </trkpt>
      <trkpt lat="41.699755" lon="2.831527">
        <ele>63.0</ele>
        <time>2021-08-15T14:25:38Z</time>
      </trkpt>
      <trkpt lat="41.699695" lon="2.83141">
        <ele>63.0</ele>
        <time>2021-08-15T14:25:41Z</time>
      </trkpt>
      <trkpt lat="41.699647" lon="2.83127">
        <ele>63.0</ele>
        <time>2021-08-15T14:25:42Z</time>
      </trkpt>
      <trkpt lat="41.69961" lon="2.831125">
        <ele>64.0</ele>
        <time>2021-08-15T14:25:45Z</time>
      </trkpt>
      <trkpt lat="41.69958" lon="2.83098">
        <ele>64.0</ele>
        <time>2021-08-15T14:25:46Z</time>
      </trkpt>
      <trkpt lat="41.69954" lon="2.830835">
        <ele>63.0</ele>
        <time>2021-08-15T14:25:49Z</time>
      </trkpt>
      <trkpt lat="41.6995" lon="2.830687">
        <ele>64.0</ele>
        <time>2021-08-15T14:25:51Z</time>
      </trkpt>
      <trkpt lat="41.699452" lon="2.830552">
        <ele>64.0</ele>
        <time>2021-08-15T14:25:53Z</time>
      </trkpt>
      <trkpt lat="41.69941" lon="2.83041">
        <ele>64.0</ele>
        <time>2021-08-15T14:25:55Z</time>
      </trkpt>
      <trkpt lat="41.699375" lon="2.83027">
        <ele>64.0</ele>
        <time>2021-08-15T14:25:56Z</time>
      </trkpt>
      <trkpt lat="41.699335" lon="2.830135">
        <ele>64.0</ele>
        <time>2021-08-15T14:25:58Z</time>
      </trkpt>
      <trkpt lat="41.69929" lon="2.829995">
        <ele>64.0</ele>
        <time>2021-08-15T14:26:00Z</time>
      </trkpt>
      <trkpt lat="41.69925" lon="2.829842">
        <ele>63.0</ele>
        <time>2021-08-15T14:26:02Z</time>
      </trkpt>
      <trkpt lat="41.69921" lon="2.829685">
        <ele>63.0</ele>
        <time>2021-08-15T14:26:04Z</time>
      </trkpt>
      <trkpt lat="41.699175" lon="2.829545">
        <ele>63.0</ele>
        <time>2021-08-15T14:26:06Z</time>
      </trkpt>
      <trkpt lat="41.69914" lon="2.829415">
        <ele>62.0</ele>
        <time>2021-08-15T14:26:08Z</time>
      </trkpt>
      <trkpt lat="41.699105" lon="2.82928">
        <ele>62.0</ele>
        <time>2021-08-15T14:26:10Z</time>
      </trkpt>
      <trkpt lat="41.69907" lon="2.82916">
        <ele>62.0</ele>
        <time>2021-08-15T14:26:13Z</time>
      </trkpt>
      <trkpt lat="41.69903" lon="2.829037">
        <ele>62.0</ele>
        <time>2021-08-15T14:26:15Z</time>
      </trkpt>
      <trkpt lat="41.698997" lon="2.82892">
        <ele>62.0</ele>
        <time>2021-08-15T14:26:17Z</time>
      </trkpt>
      <trkpt lat="41.69895" lon="2.828815">
        <ele>62.0</ele>
        <time>2021-08-15T14:26:18Z</time>
      </trkpt>
      <trkpt lat="41.698915" lon="2.828697">
        <ele>61.0</ele>
        <time>2021-08-15T14:26:20Z</time>
      </trkpt>
      <trkpt lat="41.698885" lon="2.828583">
        <ele>61.0</ele>
        <time>2021-08-15T14:26:23Z</time>
      </trkpt>
      <trkpt lat="41.69886" lon="2.828472">
        <ele>61.0</ele>
        <time>2021-08-15T14:26:25Z</time>
      </trkpt>
      <trkpt lat="41.698835" lon="2.82836">
        <ele>61.0</ele>
        <time>2021-08-15T14:26:27Z</time>
      </trkpt>
      <trkpt lat="41.698805" lon="2.82825">
        <ele>61.0</ele>
        <time>2021-08-15T14:26:29Z</time>
      </trkpt>
      <trkpt lat="41.698772" lon="2.82815">
        <ele>62.0</ele>
        <time>2021-08-15T14:26:31Z</time>
      </trkpt>
      <trkpt lat="41.698745" lon="2.82804">
        <ele>62.0</ele>
        <time>2021-08-15T14:26:33Z</time>
      </trkpt>
      <trkpt lat="41.698715" lon="2.827942">
        <ele>63.0</ele>
        <time>2021-08-15T14:26:35Z</time>
      </trkpt>
      <trkpt lat="41.698675" lon="2.82781">
        <ele>62.0</ele>
        <time>2021-08-15T14:26:37Z</time>
      </trkpt>
      <trkpt lat="41.69864" lon="2.827715">
        <ele>62.0</ele>
        <time>2021-08-15T14:26:40Z</time>
      </trkpt>
      <trkpt lat="41.698622" lon="2.82761">
        <ele>62.0</ele>
        <time>2021-08-15T14:26:42Z</time>
      </trkpt>
      <trkpt lat="41.698585" lon="2.82752">
        <ele>62.0</ele>
        <time>2021-08-15T14:26:43Z</time>
      </trkpt>
      <trkpt lat="41.69856" lon="2.827407">
        <ele>62.0</ele>
        <time>2021-08-15T14:26:45Z</time>
      </trkpt>
      <trkpt lat="41.698527" lon="2.827305">
        <ele>61.0</ele>
        <time>2021-08-15T14:26:47Z</time>
      </trkpt>
      <trkpt lat="41.69849" lon="2.827195">
        <ele>62.0</ele>
        <time>2021-08-15T14:26:49Z</time>
      </trkpt>
      <trkpt lat="41.69845" lon="2.827085">
        <ele>62.0</ele>
        <time>2021-08-15T14:26:51Z</time>
      </trkpt>
      <trkpt lat="41.69841" lon="2.826962">
        <ele>62.0</ele>
        <time>2021-08-15T14:26:53Z</time>
      </trkpt>
      <trkpt lat="41.698372" lon="2.82684">
        <ele>62.0</ele>
        <time>2021-08-15T14:26:55Z</time>
      </trkpt>
      <trkpt lat="41.698337" lon="2.82671">
        <ele>62.0</ele>
        <time>2021-08-15T14:26:57Z</time>
      </trkpt>
      <trkpt lat="41.698305" lon="2.82657">
        <ele>62.0</ele>
        <time>2021-08-15T14:26:59Z</time>
      </trkpt>
      <trkpt lat="41.698262" lon="2.82643">
        <ele>61.0</ele>
        <time>2021-08-15T14:27:02Z</time>
      </trkpt>
      <trkpt lat="41.698225" lon="2.82629">
        <ele>62.0</ele>
        <time>2021-08-15T14:27:03Z</time>
      </trkpt>
      <trkpt lat="41.698187" lon="2.826143">
        <ele>62.0</ele>
        <time>2021-08-15T14:27:06Z</time>
      </trkpt>
      <trkpt lat="41.698155" lon="2.826">
        <ele>62.0</ele>
        <time>2021-08-15T14:27:08Z</time>
      </trkpt>
      <trkpt lat="41.698117" lon="2.82586">
        <ele>61.0</ele>
        <time>2021-08-15T14:27:09Z</time>
      </trkpt>
      <trkpt lat="41.698075" lon="2.825722">
        <ele>62.0</ele>
        <time>2021-08-15T14:27:12Z</time>
      </trkpt>
      <trkpt lat="41.698035" lon="2.825575">
        <ele>61.0</ele>
        <time>2021-08-15T14:27:13Z</time>
      </trkpt>
      <trkpt lat="41.69799" lon="2.82542">
        <ele>60.0</ele>
        <time>2021-08-15T14:27:16Z</time>
      </trkpt>
      <trkpt lat="41.69795" lon="2.825278">
        <ele>61.0</ele>
        <time>2021-08-15T14:27:18Z</time>
      </trkpt>
      <trkpt lat="41.697905" lon="2.82514">
        <ele>61.0</ele>
        <time>2021-08-15T14:27:20Z</time>
      </trkpt>
      <trkpt lat="41.697865" lon="2.824993">
        <ele>61.0</ele>
        <time>2021-08-15T14:27:21Z</time>
      </trkpt>
      <trkpt lat="41.697815" lon="2.82484">
        <ele>61.0</ele>
        <time>2021-08-15T14:27:23Z</time>
      </trkpt>
      <trkpt lat="41.697775" lon="2.8247">
        <ele>61.0</ele>
        <time>2021-08-15T14:27:25Z</time>
      </trkpt>
      <trkpt lat="41.697737" lon="2.824565">
        <ele>61.0</ele>
        <time>2021-08-15T14:27:28Z</time>
      </trkpt>
      <trkpt lat="41.6977" lon="2.824425">
        <ele>61.0</ele>
        <time>2021-08-15T14:27:29Z</time>
      </trkpt>
      <trkpt lat="41.69766" lon="2.824282">
        <ele>61.0</ele>
        <time>2021-08-15T14:27:32Z</time>
      </trkpt>
      <trkpt lat="41.697615" lon="2.82414">
        <ele>61.0</ele>
        <time>2021-08-15T14:27:34Z</time>
      </trkpt>
      <trkpt lat="41.697575" lon="2.823997">
        <ele>62.0</ele>
        <time>2021-08-15T14:27:36Z</time>
      </trkpt>
      <trkpt lat="41.69753" lon="2.823865">
        <ele>61.0</ele>
        <time>2021-08-15T14:27:38Z</time>
      </trkpt>
      <trkpt lat="41.69749" lon="2.823723">
        <ele>61.0</ele>
        <time>2021-08-15T14:27:39Z</time>
      </trkpt>
      <trkpt lat="41.697455" lon="2.82359">
        <ele>62.0</ele>
        <time>2021-08-15T14:27:41Z</time>
      </trkpt>
      <trkpt lat="41.697415" lon="2.823445">
        <ele>62.0</ele>
        <time>2021-08-15T14:27:44Z</time>
      </trkpt>
      <trkpt lat="41.697375" lon="2.823307">
        <ele>62.0</ele>
        <time>2021-08-15T14:27:45Z</time>
      </trkpt>
      <trkpt lat="41.697337" lon="2.823155">
        <ele>62.0</ele>
        <time>2021-08-15T14:27:48Z</time>
      </trkpt>
      <trkpt lat="41.697295" lon="2.823012">
        <ele>62.0</ele>
        <time>2021-08-15T14:27:50Z</time>
      </trkpt>
      <trkpt lat="41.697252" lon="2.822895">
        <ele>62.0</ele>
        <time>2021-08-15T14:27:52Z</time>
      </trkpt>
      <trkpt lat="41.697215" lon="2.822765">
        <ele>63.0</ele>
        <time>2021-08-15T14:27:53Z</time>
      </trkpt>
      <trkpt lat="41.69717" lon="2.822652">
        <ele>63.0</ele>
        <time>2021-08-15T14:27:55Z</time>
      </trkpt>
      <trkpt lat="41.697135" lon="2.82254">
        <ele>63.0</ele>
        <time>2021-08-15T14:27:57Z</time>
      </trkpt>
      <trkpt lat="41.697095" lon="2.82241">
        <ele>63.0</ele>
        <time>2021-08-15T14:27:59Z</time>
      </trkpt>
      <trkpt lat="41.697045" lon="2.822302">
        <ele>63.0</ele>
        <time>2021-08-15T14:28:01Z</time>
      </trkpt>
      <trkpt lat="41.697005" lon="2.822195">
        <ele>63.0</ele>
        <time>2021-08-15T14:28:03Z</time>
      </trkpt>
      <trkpt lat="41.696965" lon="2.822087">
        <ele>64.0</ele>
        <time>2021-08-15T14:28:05Z</time>
      </trkpt>
      <trkpt lat="41.696915" lon="2.82198">
        <ele>64.0</ele>
        <time>2021-08-15T14:28:07Z</time>
      </trkpt>
      <trkpt lat="41.696882" lon="2.821875">
        <ele>64.0</ele>
        <time>2021-08-15T14:28:09Z</time>
      </trkpt>
      <trkpt lat="41.696867" lon="2.821757">
        <ele>65.0</ele>
        <time>2021-08-15T14:28:12Z</time>
      </trkpt>
      <trkpt lat="41.696872" lon="2.821625">
        <ele>65.0</ele>
        <time>2021-08-15T14:28:14Z</time>
      </trkpt>
      <trkpt lat="41.696877" lon="2.821497">
        <ele>65.0</ele>
        <time>2021-08-15T14:28:15Z</time>
      </trkpt>
      <trkpt lat="41.696865" lon="2.82136">
        <ele>65.0</ele>
        <time>2021-08-15T14:28:18Z</time>
      </trkpt>
      <trkpt lat="41.696822" lon="2.821252">
        <ele>64.0</ele>
        <time>2021-08-15T14:28:19Z</time>
      </trkpt>
      <trkpt lat="41.696755" lon="2.821165">
        <ele>64.0</ele>
        <time>2021-08-15T14:28:22Z</time>
      </trkpt>
      <trkpt lat="41.696655" lon="2.821102">
        <ele>66.0</ele>
        <time>2021-08-15T14:28:24Z</time>
      </trkpt>
      <trkpt lat="41.69655" lon="2.821062">
        <ele>66.0</ele>
        <time>2021-08-15T14:28:26Z</time>
      </trkpt>
      <trkpt lat="41.69644" lon="2.82102">
        <ele>67.0</ele>
        <time>2021-08-15T14:28:27Z</time>
      </trkpt>
      <trkpt lat="41.696345" lon="2.820957">
        <ele>67.0</ele>
        <time>2021-08-15T14:28:30Z</time>
      </trkpt>
      <trkpt lat="41.696265" lon="2.82088">
        <ele>67.0</ele>
        <time>2021-08-15T14:28:32Z</time>
      </trkpt>
      <trkpt lat="41.696197" lon="2.820788">
        <ele>68.0</ele>
        <time>2021-08-15T14:28:33Z</time>
      </trkpt>
      <trkpt lat="41.696145" lon="2.820685">
        <ele>69.0</ele>
        <time>2021-08-15T14:28:35Z</time>
      </trkpt>
      <trkpt lat="41.69609" lon="2.820575">
        <ele>69.0</ele>
        <time>2021-08-15T14:28:37Z</time>
      </trkpt>
      <trkpt lat="41.69604" lon="2.820475">
        <ele>70.0</ele>
        <time>2021-08-15T14:28:40Z</time>
      </trkpt>
      <trkpt lat="41.695987" lon="2.820372">
        <ele>71.0</ele>
        <time>2021-08-15T14:28:41Z</time>
      </trkpt>
      <trkpt lat="41.695935" lon="2.820275">
        <ele>71.0</ele>
        <time>2021-08-15T14:28:44Z</time>
      </trkpt>
      <trkpt lat="41.695885" lon="2.820162">
        <ele>71.0</ele>
        <time>2021-08-15T14:28:45Z</time>
      </trkpt>
      <trkpt lat="41.695835" lon="2.820058">
        <ele>71.0</ele>
        <time>2021-08-15T14:28:48Z</time>
      </trkpt>
      <trkpt lat="41.695795" lon="2.819962">
        <ele>71.0</ele>
        <time>2021-08-15T14:28:50Z</time>
      </trkpt>
      <trkpt lat="41.695755" lon="2.81986">
        <ele>71.0</ele>
        <time>2021-08-15T14:28:51Z</time>
      </trkpt>
      <trkpt lat="41.69572" lon="2.819755">
        <ele>71.0</ele>
        <time>2021-08-15T14:28:53Z</time>
      </trkpt>
      <trkpt lat="41.69568" lon="2.819645">
        <ele>71.0</ele>
        <time>2021-08-15T14:28:56Z</time>
      </trkpt>
      <trkpt lat="41.69564" lon="2.819522">
        <ele>71.0</ele>
        <time>2021-08-15T14:28:58Z</time>
      </trkpt>
      <trkpt lat="41.695602" lon="2.819405">
        <ele>71.0</ele>
        <time>2021-08-15T14:29:00Z</time>
      </trkpt>
      <trkpt lat="41.695565" lon="2.81929">
        <ele>72.0</ele>
        <time>2021-08-15T14:29:02Z</time>
      </trkpt>
      <trkpt lat="41.695532" lon="2.819175">
        <ele>72.0</ele>
        <time>2021-08-15T14:29:04Z</time>
      </trkpt>
      <trkpt lat="41.695502" lon="2.819058">
        <ele>72.0</ele>
        <time>2021-08-15T14:29:05Z</time>
      </trkpt>
      <trkpt lat="41.695472" lon="2.818952">
        <ele>73.0</ele>
        <time>2021-08-15T14:29:07Z</time>
      </trkpt>
      <trkpt lat="41.695442" lon="2.818845">
        <ele>73.0</ele>
        <time>2021-08-15T14:29:09Z</time>
      </trkpt>
      <trkpt lat="41.69541" lon="2.818745">
        <ele>73.0</ele>
        <time>2021-08-15T14:29:11Z</time>
      </trkpt>
      <trkpt lat="41.69538" lon="2.818645">
        <ele>73.0</ele>
        <time>2021-08-15T14:29:13Z</time>
      </trkpt>
      <trkpt lat="41.69535" lon="2.818533">
        <ele>74.0</ele>
        <time>2021-08-15T14:29:15Z</time>
      </trkpt>
      <trkpt lat="41.695315" lon="2.81843">
        <ele>74.0</ele>
        <time>2021-08-15T14:29:17Z</time>
      </trkpt>
      <trkpt lat="41.69528" lon="2.818325">
        <ele>74.0</ele>
        <time>2021-08-15T14:29:19Z</time>
      </trkpt>
      <trkpt lat="41.69525" lon="2.818225">
        <ele>74.0</ele>
        <time>2021-08-15T14:29:22Z</time>
      </trkpt>
      <trkpt lat="41.695228" lon="2.81813">
        <ele>75.0</ele>
        <time>2021-08-15T14:29:24Z</time>
      </trkpt>
      <trkpt lat="41.69519" lon="2.817992">
        <ele>76.0</ele>
        <time>2021-08-15T14:29:27Z</time>
      </trkpt>
      <trkpt lat="41.69516" lon="2.81789">
        <ele>76.0</ele>
        <time>2021-08-15T14:29:28Z</time>
      </trkpt>
      <trkpt lat="41.695135" lon="2.81778">
        <ele>76.0</ele>
        <time>2021-08-15T14:29:30Z</time>
      </trkpt>
      <trkpt lat="41.69511" lon="2.81768">
        <ele>76.0</ele>
        <time>2021-08-15T14:29:32Z</time>
      </trkpt>
      <trkpt lat="41.69508" lon="2.81758">
        <ele>77.0</ele>
        <time>2021-08-15T14:29:34Z</time>
      </trkpt>
      <trkpt lat="41.695055" lon="2.817482">
        <ele>77.0</ele>
        <time>2021-08-15T14:29:36Z</time>
      </trkpt>
      <trkpt lat="41.69502" lon="2.817372">
        <ele>77.0</ele>
        <time>2021-08-15T14:29:38Z</time>
      </trkpt>
      <trkpt lat="41.694983" lon="2.817257">
        <ele>77.0</ele>
        <time>2021-08-15T14:29:41Z</time>
      </trkpt>
      <trkpt lat="41.69495" lon="2.81714">
        <ele>77.0</ele>
        <time>2021-08-15T14:29:43Z</time>
      </trkpt>
      <trkpt lat="41.694912" lon="2.81703">
        <ele>78.0</ele>
        <time>2021-08-15T14:29:45Z</time>
      </trkpt>
      <trkpt lat="41.694885" lon="2.816912">
        <ele>79.0</ele>
        <time>2021-08-15T14:29:47Z</time>
      </trkpt>
      <trkpt lat="41.694852" lon="2.816795">
        <ele>79.0</ele>
        <time>2021-08-15T14:29:48Z</time>
      </trkpt>
      <trkpt lat="41.694815" lon="2.816687">
        <ele>79.0</ele>
        <time>2021-08-15T14:29:50Z</time>
      </trkpt>
      <trkpt lat="41.694785" lon="2.81657">
        <ele>79.0</ele>
        <time>2021-08-15T14:29:52Z</time>
      </trkpt>
      <trkpt lat="41.69476" lon="2.81646">
        <ele>80.0</ele>
        <time>2021-08-15T14:29:54Z</time>
      </trkpt>
      <trkpt lat="41.69473" lon="2.816352">
        <ele>81.0</ele>
        <time>2021-08-15T14:29:57Z</time>
      </trkpt>
      <trkpt lat="41.6947" lon="2.81625">
        <ele>82.0</ele>
        <time>2021-08-15T14:29:58Z</time>
      </trkpt>
      <trkpt lat="41.69467" lon="2.816135">
        <ele>82.0</ele>
        <time>2021-08-15T14:30:01Z</time>
      </trkpt>
      <trkpt lat="41.694635" lon="2.81603">
        <ele>83.0</ele>
        <time>2021-08-15T14:30:02Z</time>
      </trkpt>
      <trkpt lat="41.694603" lon="2.815925">
        <ele>84.0</ele>
        <time>2021-08-15T14:30:04Z</time>
      </trkpt>
      <trkpt lat="41.694575" lon="2.815827">
        <ele>84.0</ele>
        <time>2021-08-15T14:30:07Z</time>
      </trkpt>
      <trkpt lat="41.69455" lon="2.815735">
        <ele>85.0</ele>
        <time>2021-08-15T14:30:08Z</time>
      </trkpt>
      <trkpt lat="41.694525" lon="2.815642">
        <ele>86.0</ele>
        <time>2021-08-15T14:30:11Z</time>
      </trkpt>
      <trkpt lat="41.69449" lon="2.815545">
        <ele>86.0</ele>
        <time>2021-08-15T14:30:12Z</time>
      </trkpt>
      <trkpt lat="41.69446" lon="2.81545">
        <ele>87.0</ele>
        <time>2021-08-15T14:30:15Z</time>
      </trkpt>
      <trkpt lat="41.694432" lon="2.815322">
        <ele>88.0</ele>
        <time>2021-08-15T14:30:18Z</time>
      </trkpt>
      <trkpt lat="41.69444" lon="2.815195">
        <ele>88.0</ele>
        <time>2021-08-15T14:30:20Z</time>
      </trkpt>
      <trkpt lat="41.69443" lon="2.815065">
        <ele>88.0</ele>
        <time>2021-08-15T14:30:23Z</time>
      </trkpt>
      <trkpt lat="41.69439" lon="2.81495">
        <ele>88.0</ele>
        <time>2021-08-15T14:30:27Z</time>
      </trkpt>
      <trkpt lat="41.69433" lon="2.814847">
        <ele>88.0</ele>
        <time>2021-08-15T14:30:30Z</time>
      </trkpt>
      <trkpt lat="41.694275" lon="2.814737">
        <ele>89.0</ele>
        <time>2021-08-15T14:30:32Z</time>
      </trkpt>
      <trkpt lat="41.69424" lon="2.81462">
        <ele>89.0</ele>
        <time>2021-08-15T14:30:36Z</time>
      </trkpt>
      <trkpt lat="41.694195" lon="2.814497">
        <ele>90.0</ele>
        <time>2021-08-15T14:30:38Z</time>
      </trkpt>
      <trkpt lat="41.694153" lon="2.81437">
        <ele>90.0</ele>
        <time>2021-08-15T14:30:42Z</time>
      </trkpt>
      <trkpt lat="41.694125" lon="2.814275">
        <ele>90.0</ele>
        <time>2021-08-15T14:30:43Z</time>
      </trkpt>
      <trkpt lat="41.694085" lon="2.814147">
        <ele>91.0</ele>
        <time>2021-08-15T14:30:46Z</time>
      </trkpt>
      <trkpt lat="41.694055" lon="2.814017">
        <ele>91.0</ele>
        <time>2021-08-15T14:30:49Z</time>
      </trkpt>
      <trkpt lat="41.694018" lon="2.81389">
        <ele>91.0</ele>
        <time>2021-08-15T14:30:52Z</time>
      </trkpt>
      <trkpt lat="41.69399" lon="2.8138">
        <ele>92.0</ele>
        <time>2021-08-15T14:30:54Z</time>
      </trkpt>
      <trkpt lat="41.693957" lon="2.813705">
        <ele>92.0</ele>
        <time>2021-08-15T14:30:57Z</time>
      </trkpt>
      <trkpt lat="41.693905" lon="2.813585">
        <ele>93.0</ele>
        <time>2021-08-15T14:31:00Z</time>
      </trkpt>
      <trkpt lat="41.693848" lon="2.813465">
        <ele>95.0</ele>
        <time>2021-08-15T14:31:02Z</time>
      </trkpt>
      <trkpt lat="41.693795" lon="2.813355">
        <ele>96.0</ele>
        <time>2021-08-15T14:31:06Z</time>
      </trkpt>
      <trkpt lat="41.693745" lon="2.81325">
        <ele>96.0</ele>
        <time>2021-08-15T14:31:08Z</time>
      </trkpt>
      <trkpt lat="41.693692" lon="2.813138">
        <ele>97.0</ele>
        <time>2021-08-15T14:31:11Z</time>
      </trkpt>
      <trkpt lat="41.693635" lon="2.813032">
        <ele>97.0</ele>
        <time>2021-08-15T14:31:15Z</time>
      </trkpt>
      <trkpt lat="41.693572" lon="2.812925">
        <ele>97.0</ele>
        <time>2021-08-15T14:31:17Z</time>
      </trkpt>
      <trkpt lat="41.693517" lon="2.81281">
        <ele>98.0</ele>
        <time>2021-08-15T14:31:20Z</time>
      </trkpt>
      <trkpt lat="41.693457" lon="2.812697">
        <ele>97.0</ele>
        <time>2021-08-15T14:31:24Z</time>
      </trkpt>
      <trkpt lat="41.693397" lon="2.81258">
        <ele>98.0</ele>
        <time>2021-08-15T14:31:26Z</time>
      </trkpt>
      <trkpt lat="41.693355" lon="2.8125">
        <ele>99.0</ele>
        <time>2021-08-15T14:31:29Z</time>
      </trkpt>
      <trkpt lat="41.693295" lon="2.81239">
        <ele>99.0</ele>
        <time>2021-08-15T14:31:32Z</time>
      </trkpt>
      <trkpt lat="41.69324" lon="2.81228">
        <ele>100.0</ele>
        <time>2021-08-15T14:31:35Z</time>
      </trkpt>
      <trkpt lat="41.69319" lon="2.81217">
        <ele>100.0</ele>
        <time>2021-08-15T14:31:38Z</time>
      </trkpt>
      <trkpt lat="41.693127" lon="2.812055">
        <ele>101.0</ele>
        <time>2021-08-15T14:31:40Z</time>
      </trkpt>
      <trkpt lat="41.693072" lon="2.811945">
        <ele>101.0</ele>
        <time>2021-08-15T14:31:44Z</time>
      </trkpt>
      <trkpt lat="41.69303" lon="2.81183">
        <ele>102.0</ele>
        <time>2021-08-15T14:31:47Z</time>
      </trkpt>
      <trkpt lat="41.69298" lon="2.811702">
        <ele>102.0</ele>
        <time>2021-08-15T14:31:50Z</time>
      </trkpt>
      <trkpt lat="41.692943" lon="2.811612">
        <ele>102.0</ele>
        <time>2021-08-15T14:31:52Z</time>
      </trkpt>
      <trkpt lat="41.6929" lon="2.811522">
        <ele>101.0</ele>
        <time>2021-08-15T14:31:54Z</time>
      </trkpt>
      <trkpt lat="41.692862" lon="2.81142">
        <ele>101.0</ele>
        <time>2021-08-15T14:31:55Z</time>
      </trkpt>
      <trkpt lat="41.692825" lon="2.81132">
        <ele>102.0</ele>
        <time>2021-08-15T14:31:58Z</time>
      </trkpt>
      <trkpt lat="41.692788" lon="2.81123">
        <ele>102.0</ele>
        <time>2021-08-15T14:31:59Z</time>
      </trkpt>
      <trkpt lat="41.692747" lon="2.811108">
        <ele>102.0</ele>
        <time>2021-08-15T14:32:02Z</time>
      </trkpt>
      <trkpt lat="41.692707" lon="2.810977">
        <ele>102.0</ele>
        <time>2021-08-15T14:32:06Z</time>
      </trkpt>
      <trkpt lat="41.69268" lon="2.810865">
        <ele>102.0</ele>
        <time>2021-08-15T14:32:08Z</time>
      </trkpt>
      <trkpt lat="41.692652" lon="2.81075">
        <ele>102.0</ele>
        <time>2021-08-15T14:32:09Z</time>
      </trkpt>
      <trkpt lat="41.69262" lon="2.810625">
        <ele>102.0</ele>
        <time>2021-08-15T14:32:11Z</time>
      </trkpt>
      <trkpt lat="41.69259" lon="2.810495">
        <ele>102.0</ele>
        <time>2021-08-15T14:32:13Z</time>
      </trkpt>
      <trkpt lat="41.69255" lon="2.810375">
        <ele>102.0</ele>
        <time>2021-08-15T14:32:16Z</time>
      </trkpt>
      <trkpt lat="41.69251" lon="2.810245">
        <ele>102.0</ele>
        <time>2021-08-15T14:32:17Z</time>
      </trkpt>
      <trkpt lat="41.692477" lon="2.810105">
        <ele>102.0</ele>
        <time>2021-08-15T14:32:19Z</time>
      </trkpt>
      <trkpt lat="41.69244" lon="2.809955">
        <ele>102.0</ele>
        <time>2021-08-15T14:32:21Z</time>
      </trkpt>
      <trkpt lat="41.6924" lon="2.809805">
        <ele>102.0</ele>
        <time>2021-08-15T14:32:23Z</time>
      </trkpt>
      <trkpt lat="41.692355" lon="2.809643">
        <ele>101.0</ele>
        <time>2021-08-15T14:32:25Z</time>
      </trkpt>
      <trkpt lat="41.69231" lon="2.809485">
        <ele>102.0</ele>
        <time>2021-08-15T14:32:27Z</time>
      </trkpt>
      <trkpt lat="41.692257" lon="2.809302">
        <ele>102.0</ele>
        <time>2021-08-15T14:32:29Z</time>
      </trkpt>
      <trkpt lat="41.69223" lon="2.809215">
        <ele>102.0</ele>
        <time>2021-08-15T14:32:31Z</time>
      </trkpt>
      <trkpt lat="41.6922" lon="2.80912">
        <ele>102.0</ele>
        <time>2021-08-15T14:32:31Z</time>
      </trkpt>
      <trkpt lat="41.692177" lon="2.809022">
        <ele>101.0</ele>
        <time>2021-08-15T14:32:33Z</time>
      </trkpt>
      <trkpt lat="41.692155" lon="2.808927">
        <ele>100.0</ele>
        <time>2021-08-15T14:32:33Z</time>
      </trkpt>
      <trkpt lat="41.69213" lon="2.808832">
        <ele>99.0</ele>
        <time>2021-08-15T14:32:34Z</time>
      </trkpt>
      <trkpt lat="41.692102" lon="2.80874">
        <ele>99.0</ele>
        <time>2021-08-15T14:32:35Z</time>
      </trkpt>
      <trkpt lat="41.692075" lon="2.80864">
        <ele>98.0</ele>
        <time>2021-08-15T14:32:36Z</time>
      </trkpt>
      <trkpt lat="41.69205" lon="2.80854">
        <ele>97.0</ele>
        <time>2021-08-15T14:32:38Z</time>
      </trkpt>
      <trkpt lat="41.692027" lon="2.80844">
        <ele>97.0</ele>
        <time>2021-08-15T14:32:39Z</time>
      </trkpt>
      <trkpt lat="41.692" lon="2.808335">
        <ele>96.0</ele>
        <time>2021-08-15T14:32:39Z</time>
      </trkpt>
      <trkpt lat="41.69197" lon="2.808235">
        <ele>96.0</ele>
        <time>2021-08-15T14:32:40Z</time>
      </trkpt>
      <trkpt lat="41.691945" lon="2.808132">
        <ele>96.0</ele>
        <time>2021-08-15T14:32:42Z</time>
      </trkpt>
      <trkpt lat="41.691915" lon="2.808027">
        <ele>95.0</ele>
        <time>2021-08-15T14:32:43Z</time>
      </trkpt>
      <trkpt lat="41.691887" lon="2.80793">
        <ele>95.0</ele>
        <time>2021-08-15T14:32:44Z</time>
      </trkpt>
      <trkpt lat="41.69186" lon="2.80783">
        <ele>95.0</ele>
        <time>2021-08-15T14:32:44Z</time>
      </trkpt>
      <trkpt lat="41.69183" lon="2.80773">
        <ele>94.0</ele>
        <time>2021-08-15T14:32:46Z</time>
      </trkpt>
      <trkpt lat="41.6918" lon="2.80763">
        <ele>94.0</ele>
        <time>2021-08-15T14:32:47Z</time>
      </trkpt>
      <trkpt lat="41.69177" lon="2.807532">
        <ele>94.0</ele>
        <time>2021-08-15T14:32:48Z</time>
      </trkpt>
      <trkpt lat="41.691737" lon="2.807435">
        <ele>94.0</ele>
        <time>2021-08-15T14:32:49Z</time>
      </trkpt>
      <trkpt lat="41.691705" lon="2.807335">
        <ele>93.0</ele>
        <time>2021-08-15T14:32:50Z</time>
      </trkpt>
      <trkpt lat="41.691665" lon="2.807238">
        <ele>93.0</ele>
        <time>2021-08-15T14:32:50Z</time>
      </trkpt>
      <trkpt lat="41.691625" lon="2.807143">
        <ele>93.0</ele>
        <time>2021-08-15T14:32:51Z</time>
      </trkpt>
      <trkpt lat="41.691585" lon="2.807043">
        <ele>92.0</ele>
        <time>2021-08-15T14:32:53Z</time>
      </trkpt>
      <trkpt lat="41.691545" lon="2.806945">
        <ele>92.0</ele>
        <time>2021-08-15T14:32:54Z</time>
      </trkpt>
      <trkpt lat="41.691497" lon="2.806845">
        <ele>91.0</ele>
        <time>2021-08-15T14:32:55Z</time>
      </trkpt>
      <trkpt lat="41.691455" lon="2.806745">
        <ele>90.0</ele>
        <time>2021-08-15T14:32:55Z</time>
      </trkpt>
      <trkpt lat="41.6914" lon="2.806645">
        <ele>89.0</ele>
        <time>2021-08-15T14:32:56Z</time>
      </trkpt>
      <trkpt lat="41.69135" lon="2.806545">
        <ele>89.0</ele>
        <time>2021-08-15T14:32:58Z</time>
      </trkpt>
      <trkpt lat="41.691297" lon="2.806445">
        <ele>89.0</ele>
        <time>2021-08-15T14:32:58Z</time>
      </trkpt>
      <trkpt lat="41.691245" lon="2.806342">
        <ele>88.0</ele>
        <time>2021-08-15T14:33:00Z</time>
      </trkpt>
      <trkpt lat="41.691185" lon="2.806245">
        <ele>88.0</ele>
        <time>2021-08-15T14:33:01Z</time>
      </trkpt>
      <trkpt lat="41.691127" lon="2.806152">
        <ele>88.0</ele>
        <time>2021-08-15T14:33:02Z</time>
      </trkpt>
      <trkpt lat="41.691065" lon="2.806062">
        <ele>87.0</ele>
        <time>2021-08-15T14:33:02Z</time>
      </trkpt>
      <trkpt lat="41.691005" lon="2.805963">
        <ele>87.0</ele>
        <time>2021-08-15T14:33:03Z</time>
      </trkpt>
      <trkpt lat="41.690945" lon="2.805877">
        <ele>87.0</ele>
        <time>2021-08-15T14:33:04Z</time>
      </trkpt>
      <trkpt lat="41.69088" lon="2.80579">
        <ele>86.0</ele>
        <time>2021-08-15T14:33:06Z</time>
      </trkpt>
      <trkpt lat="41.690818" lon="2.805702">
        <ele>86.0</ele>
        <time>2021-08-15T14:33:07Z</time>
      </trkpt>
      <trkpt lat="41.69076" lon="2.805612">
        <ele>85.0</ele>
        <time>2021-08-15T14:33:07Z</time>
      </trkpt>
      <trkpt lat="41.690695" lon="2.805522">
        <ele>85.0</ele>
        <time>2021-08-15T14:33:08Z</time>
      </trkpt>
      <trkpt lat="41.690637" lon="2.805432">
        <ele>85.0</ele>
        <time>2021-08-15T14:33:10Z</time>
      </trkpt>
      <trkpt lat="41.690577" lon="2.805345">
        <ele>85.0</ele>
        <time>2021-08-15T14:33:11Z</time>
      </trkpt>
      <trkpt lat="41.69052" lon="2.80526">
        <ele>84.0</ele>
        <time>2021-08-15T14:33:11Z</time>
      </trkpt>
      <trkpt lat="41.69046" lon="2.805177">
        <ele>84.0</ele>
        <time>2021-08-15T14:33:13Z</time>
      </trkpt>
      <trkpt lat="41.6904" lon="2.805093">
        <ele>83.0</ele>
        <time>2021-08-15T14:33:13Z</time>
      </trkpt>
      <trkpt lat="41.690342" lon="2.805008">
        <ele>83.0</ele>
        <time>2021-08-15T14:33:15Z</time>
      </trkpt>
      <trkpt lat="41.690287" lon="2.80493">
        <ele>83.0</ele>
        <time>2021-08-15T14:33:15Z</time>
      </trkpt>
      <trkpt lat="41.690235" lon="2.804845">
        <ele>83.0</ele>
        <time>2021-08-15T14:33:16Z</time>
      </trkpt>
      <trkpt lat="41.69018" lon="2.80476">
        <ele>83.0</ele>
        <time>2021-08-15T14:33:18Z</time>
      </trkpt>
      <trkpt lat="41.690125" lon="2.80468">
        <ele>82.0</ele>
        <time>2021-08-15T14:33:18Z</time>
      </trkpt>
      <trkpt lat="41.69007" lon="2.804602">
        <ele>82.0</ele>
        <time>2021-08-15T14:33:19Z</time>
      </trkpt>
      <trkpt lat="41.690015" lon="2.804517">
        <ele>82.0</ele>
        <time>2021-08-15T14:33:20Z</time>
      </trkpt>
      <trkpt lat="41.689965" lon="2.804435">
        <ele>82.0</ele>
        <time>2021-08-15T14:33:21Z</time>
      </trkpt>
      <trkpt lat="41.689908" lon="2.804352">
        <ele>82.0</ele>
        <time>2021-08-15T14:33:22Z</time>
      </trkpt>
      <trkpt lat="41.68986" lon="2.804267">
        <ele>82.0</ele>
        <time>2021-08-15T14:33:24Z</time>
      </trkpt>
      <trkpt lat="41.68981" lon="2.804182">
        <ele>82.0</ele>
        <time>2021-08-15T14:33:25Z</time>
      </trkpt>
      <trkpt lat="41.689765" lon="2.804093">
        <ele>81.0</ele>
        <time>2021-08-15T14:33:26Z</time>
      </trkpt>
      <trkpt lat="41.68972" lon="2.804005">
        <ele>81.0</ele>
        <time>2021-08-15T14:33:26Z</time>
      </trkpt>
      <trkpt lat="41.689675" lon="2.803915">
        <ele>81.0</ele>
        <time>2021-08-15T14:33:27Z</time>
      </trkpt>
      <trkpt lat="41.68963" lon="2.80382">
        <ele>80.0</ele>
        <time>2021-08-15T14:33:29Z</time>
      </trkpt>
      <trkpt lat="41.689585" lon="2.803722">
        <ele>80.0</ele>
        <time>2021-08-15T14:33:30Z</time>
      </trkpt>
      <trkpt lat="41.689543" lon="2.803625">
        <ele>80.0</ele>
        <time>2021-08-15T14:33:31Z</time>
      </trkpt>
      <trkpt lat="41.689505" lon="2.80353">
        <ele>79.0</ele>
        <time>2021-08-15T14:33:31Z</time>
      </trkpt>
      <trkpt lat="41.68947" lon="2.803432">
        <ele>79.0</ele>
        <time>2021-08-15T14:33:33Z</time>
      </trkpt>
      <trkpt lat="41.68944" lon="2.80333">
        <ele>79.0</ele>
        <time>2021-08-15T14:33:33Z</time>
      </trkpt>
      <trkpt lat="41.68941" lon="2.803228">
        <ele>78.0</ele>
        <time>2021-08-15T14:33:35Z</time>
      </trkpt>
      <trkpt lat="41.689387" lon="2.80313">
        <ele>78.0</ele>
        <time>2021-08-15T14:33:36Z</time>
      </trkpt>
      <trkpt lat="41.68937" lon="2.803025">
        <ele>78.0</ele>
        <time>2021-08-15T14:33:36Z</time>
      </trkpt>
      <trkpt lat="41.68935" lon="2.80293">
        <ele>78.0</ele>
        <time>2021-08-15T14:33:37Z</time>
      </trkpt>
      <trkpt lat="41.689315" lon="2.802742">
        <ele>78.0</ele>
        <time>2021-08-15T14:33:39Z</time>
      </trkpt>
      <trkpt lat="41.689295" lon="2.802647">
        <ele>78.0</ele>
        <time>2021-08-15T14:33:40Z</time>
      </trkpt>
      <trkpt lat="41.689275" lon="2.802465">
        <ele>78.0</ele>
        <time>2021-08-15T14:33:43Z</time>
      </trkpt>
      <trkpt lat="41.689265" lon="2.802285">
        <ele>78.0</ele>
        <time>2021-08-15T14:33:44Z</time>
      </trkpt>
      <trkpt lat="41.689267" lon="2.802107">
        <ele>78.0</ele>
        <time>2021-08-15T14:33:46Z</time>
      </trkpt>
      <trkpt lat="41.689245" lon="2.801942">
        <ele>78.0</ele>
        <time>2021-08-15T14:33:48Z</time>
      </trkpt>
      <trkpt lat="41.689185" lon="2.801795">
        <ele>78.0</ele>
        <time>2021-08-15T14:33:51Z</time>
      </trkpt>
      <trkpt lat="41.68913" lon="2.80163">
        <ele>78.0</ele>
        <time>2021-08-15T14:33:52Z</time>
      </trkpt>
      <trkpt lat="41.6891" lon="2.801465">
        <ele>77.0</ele>
        <time>2021-08-15T14:33:55Z</time>
      </trkpt>
      <trkpt lat="41.68907" lon="2.801302">
        <ele>77.0</ele>
        <time>2021-08-15T14:33:57Z</time>
      </trkpt>
      <trkpt lat="41.689042" lon="2.80114">
        <ele>77.0</ele>
        <time>2021-08-15T14:33:58Z</time>
      </trkpt>
      <trkpt lat="41.689005" lon="2.80098">
        <ele>77.0</ele>
        <time>2021-08-15T14:34:01Z</time>
      </trkpt>
      <trkpt lat="41.68897" lon="2.800825">
        <ele>77.0</ele>
        <time>2021-08-15T14:34:02Z</time>
      </trkpt>
      <trkpt lat="41.68894" lon="2.800667">
        <ele>77.0</ele>
        <time>2021-08-15T14:34:04Z</time>
      </trkpt>
      <trkpt lat="41.68891" lon="2.800498">
        <ele>77.0</ele>
        <time>2021-08-15T14:34:06Z</time>
      </trkpt>
      <trkpt lat="41.688885" lon="2.80035">
        <ele>77.0</ele>
        <time>2021-08-15T14:34:08Z</time>
      </trkpt>
      <trkpt lat="41.688845" lon="2.800195">
        <ele>77.0</ele>
        <time>2021-08-15T14:34:10Z</time>
      </trkpt>
      <trkpt lat="41.688802" lon="2.800037">
        <ele>77.0</ele>
        <time>2021-08-15T14:34:13Z</time>
      </trkpt>
      <trkpt lat="41.688767" lon="2.799875">
        <ele>76.0</ele>
        <time>2021-08-15T14:34:15Z</time>
      </trkpt>
      <trkpt lat="41.688735" lon="2.799718">
        <ele>75.0</ele>
        <time>2021-08-15T14:34:16Z</time>
      </trkpt>
      <trkpt lat="41.688697" lon="2.799565">
        <ele>75.0</ele>
        <time>2021-08-15T14:34:18Z</time>
      </trkpt>
      <trkpt lat="41.68865" lon="2.799422">
        <ele>75.0</ele>
        <time>2021-08-15T14:34:20Z</time>
      </trkpt>
      <trkpt lat="41.68859" lon="2.79928">
        <ele>76.0</ele>
        <time>2021-08-15T14:34:22Z</time>
      </trkpt>
      <trkpt lat="41.688532" lon="2.799127">
        <ele>75.0</ele>
        <time>2021-08-15T14:34:25Z</time>
      </trkpt>
      <trkpt lat="41.688472" lon="2.798987">
        <ele>75.0</ele>
        <time>2021-08-15T14:34:26Z</time>
      </trkpt>
      <trkpt lat="41.688415" lon="2.79885">
        <ele>75.0</ele>
        <time>2021-08-15T14:34:29Z</time>
      </trkpt>
      <trkpt lat="41.688345" lon="2.798707">
        <ele>75.0</ele>
        <time>2021-08-15T14:34:31Z</time>
      </trkpt>
      <trkpt lat="41.688277" lon="2.798585">
        <ele>74.0</ele>
        <time>2021-08-15T14:34:32Z</time>
      </trkpt>
      <trkpt lat="41.688202" lon="2.798453">
        <ele>74.0</ele>
        <time>2021-08-15T14:34:35Z</time>
      </trkpt>
      <trkpt lat="41.688135" lon="2.798322">
        <ele>74.0</ele>
        <time>2021-08-15T14:34:37Z</time>
      </trkpt>
      <trkpt lat="41.688062" lon="2.798192">
        <ele>74.0</ele>
        <time>2021-08-15T14:34:39Z</time>
      </trkpt>
      <trkpt lat="41.687995" lon="2.798055">
        <ele>75.0</ele>
        <time>2021-08-15T14:34:40Z</time>
      </trkpt>
      <trkpt lat="41.68792" lon="2.79793">
        <ele>74.0</ele>
        <time>2021-08-15T14:34:42Z</time>
      </trkpt>
      <trkpt lat="41.68785" lon="2.797803">
        <ele>74.0</ele>
        <time>2021-08-15T14:34:44Z</time>
      </trkpt>
      <trkpt lat="41.687783" lon="2.79769">
        <ele>74.0</ele>
        <time>2021-08-15T14:34:47Z</time>
      </trkpt>
      <trkpt lat="41.687717" lon="2.797573">
        <ele>74.0</ele>
        <time>2021-08-15T14:34:48Z</time>
      </trkpt>
      <trkpt lat="41.68764" lon="2.797465">
        <ele>75.0</ele>
        <time>2021-08-15T14:34:51Z</time>
      </trkpt>
      <trkpt lat="41.687565" lon="2.79734">
        <ele>75.0</ele>
        <time>2021-08-15T14:34:52Z</time>
      </trkpt>
      <trkpt lat="41.687497" lon="2.797215">
        <ele>75.0</ele>
        <time>2021-08-15T14:34:55Z</time>
      </trkpt>
      <trkpt lat="41.687425" lon="2.797088">
        <ele>75.0</ele>
        <time>2021-08-15T14:34:56Z</time>
      </trkpt>
      <trkpt lat="41.687355" lon="2.79696">
        <ele>74.0</ele>
        <time>2021-08-15T14:34:58Z</time>
      </trkpt>
      <trkpt lat="41.687285" lon="2.796833">
        <ele>74.0</ele>
        <time>2021-08-15T14:35:01Z</time>
      </trkpt>
      <trkpt lat="41.687215" lon="2.79671">
        <ele>75.0</ele>
        <time>2021-08-15T14:35:02Z</time>
      </trkpt>
      <trkpt lat="41.687145" lon="2.796585">
        <ele>74.0</ele>
        <time>2021-08-15T14:35:04Z</time>
      </trkpt>
      <trkpt lat="41.687085" lon="2.796475">
        <ele>74.0</ele>
        <time>2021-08-15T14:35:06Z</time>
      </trkpt>
      <trkpt lat="41.68702" lon="2.796372">
        <ele>75.0</ele>
        <time>2021-08-15T14:35:09Z</time>
      </trkpt>
      <trkpt lat="41.686975" lon="2.796257">
        <ele>75.0</ele>
        <time>2021-08-15T14:35:10Z</time>
      </trkpt>
      <trkpt lat="41.68693" lon="2.796127">
        <ele>74.0</ele>
        <time>2021-08-15T14:35:13Z</time>
      </trkpt>
      <trkpt lat="41.686872" lon="2.796">
        <ele>75.0</ele>
        <time>2021-08-15T14:35:15Z</time>
      </trkpt>
      <trkpt lat="41.68681" lon="2.795885">
        <ele>75.0</ele>
        <time>2021-08-15T14:35:17Z</time>
      </trkpt>
      <trkpt lat="41.68674" lon="2.79577">
        <ele>75.0</ele>
        <time>2021-08-15T14:35:19Z</time>
      </trkpt>
      <trkpt lat="41.686665" lon="2.795657">
        <ele>75.0</ele>
        <time>2021-08-15T14:35:20Z</time>
      </trkpt>
      <trkpt lat="41.686585" lon="2.79554">
        <ele>75.0</ele>
        <time>2021-08-15T14:35:23Z</time>
      </trkpt>
      <trkpt lat="41.686507" lon="2.795413">
        <ele>75.0</ele>
        <time>2021-08-15T14:35:25Z</time>
      </trkpt>
      <trkpt lat="41.68643" lon="2.795298">
        <ele>74.0</ele>
        <time>2021-08-15T14:35:26Z</time>
      </trkpt>
      <trkpt lat="41.686347" lon="2.79517">
        <ele>74.0</ele>
        <time>2021-08-15T14:35:29Z</time>
      </trkpt>
      <trkpt lat="41.686272" lon="2.795055">
        <ele>73.0</ele>
        <time>2021-08-15T14:35:31Z</time>
      </trkpt>
      <trkpt lat="41.686192" lon="2.794937">
        <ele>73.0</ele>
        <time>2021-08-15T14:35:33Z</time>
      </trkpt>
      <trkpt lat="41.686117" lon="2.794815">
        <ele>73.0</ele>
        <time>2021-08-15T14:35:34Z</time>
      </trkpt>
      <trkpt lat="41.68606" lon="2.794702">
        <ele>73.0</ele>
        <time>2021-08-15T14:35:36Z</time>
      </trkpt>
      <trkpt lat="41.686005" lon="2.794595">
        <ele>73.0</ele>
        <time>2021-08-15T14:35:38Z</time>
      </trkpt>
      <trkpt lat="41.68594" lon="2.794492">
        <ele>73.0</ele>
        <time>2021-08-15T14:35:41Z</time>
      </trkpt>
      <trkpt lat="41.68588" lon="2.794397">
        <ele>74.0</ele>
        <time>2021-08-15T14:35:43Z</time>
      </trkpt>
      <trkpt lat="41.685825" lon="2.794285">
        <ele>73.0</ele>
        <time>2021-08-15T14:35:45Z</time>
      </trkpt>
      <trkpt lat="41.685812" lon="2.79414">
        <ele>73.0</ele>
        <time>2021-08-15T14:35:47Z</time>
      </trkpt>
      <trkpt lat="41.685785" lon="2.79403">
        <ele>73.0</ele>
        <time>2021-08-15T14:35:49Z</time>
      </trkpt>
      <trkpt lat="41.685705" lon="2.793953">
        <ele>73.0</ele>
        <time>2021-08-15T14:35:51Z</time>
      </trkpt>
      <trkpt lat="41.685615" lon="2.7939">
        <ele>72.0</ele>
        <time>2021-08-15T14:35:53Z</time>
      </trkpt>
      <trkpt lat="41.685525" lon="2.793835">
        <ele>72.0</ele>
        <time>2021-08-15T14:35:54Z</time>
      </trkpt>
      <trkpt lat="41.685445" lon="2.793757">
        <ele>72.0</ele>
        <time>2021-08-15T14:35:56Z</time>
      </trkpt>
      <trkpt lat="41.685362" lon="2.793665">
        <ele>71.0</ele>
        <time>2021-08-15T14:35:58Z</time>
      </trkpt>
      <trkpt lat="41.68526" lon="2.793607">
        <ele>71.0</ele>
        <time>2021-08-15T14:36:01Z</time>
      </trkpt>
      <trkpt lat="41.685157" lon="2.79354">
        <ele>71.0</ele>
        <time>2021-08-15T14:36:02Z</time>
      </trkpt>
      <trkpt lat="41.68507" lon="2.79344">
        <ele>70.0</ele>
        <time>2021-08-15T14:36:05Z</time>
      </trkpt>
      <trkpt lat="41.685" lon="2.79333">
        <ele>70.0</ele>
        <time>2021-08-15T14:36:06Z</time>
      </trkpt>
      <trkpt lat="41.68493" lon="2.79321">
        <ele>70.0</ele>
        <time>2021-08-15T14:36:08Z</time>
      </trkpt>
      <trkpt lat="41.68486" lon="2.79309">
        <ele>70.0</ele>
        <time>2021-08-15T14:36:11Z</time>
      </trkpt>
      <trkpt lat="41.68478" lon="2.79298">
        <ele>70.0</ele>
        <time>2021-08-15T14:36:12Z</time>
      </trkpt>
      <trkpt lat="41.684705" lon="2.792865">
        <ele>69.0</ele>
        <time>2021-08-15T14:36:15Z</time>
      </trkpt>
      <trkpt lat="41.68463" lon="2.79274">
        <ele>69.0</ele>
        <time>2021-08-15T14:36:17Z</time>
      </trkpt>
      <trkpt lat="41.68455" lon="2.792622">
        <ele>69.0</ele>
        <time>2021-08-15T14:36:18Z</time>
      </trkpt>
      <trkpt lat="41.68447" lon="2.792505">
        <ele>68.0</ele>
        <time>2021-08-15T14:36:21Z</time>
      </trkpt>
      <trkpt lat="41.68439" lon="2.79239">
        <ele>68.0</ele>
        <time>2021-08-15T14:36:23Z</time>
      </trkpt>
      <trkpt lat="41.684315" lon="2.792265">
        <ele>69.0</ele>
        <time>2021-08-15T14:36:25Z</time>
      </trkpt>
      <trkpt lat="41.684235" lon="2.79214">
        <ele>69.0</ele>
        <time>2021-08-15T14:36:27Z</time>
      </trkpt>
      <trkpt lat="41.68416" lon="2.79202">
        <ele>69.0</ele>
        <time>2021-08-15T14:36:29Z</time>
      </trkpt>
      <trkpt lat="41.68409" lon="2.791905">
        <ele>69.0</ele>
        <time>2021-08-15T14:36:31Z</time>
      </trkpt>
      <trkpt lat="41.684015" lon="2.79179">
        <ele>69.0</ele>
        <time>2021-08-15T14:36:32Z</time>
      </trkpt>
      <trkpt lat="41.68394" lon="2.791675">
        <ele>69.0</ele>
        <time>2021-08-15T14:36:35Z</time>
      </trkpt>
      <trkpt lat="41.683875" lon="2.79156">
        <ele>70.0</ele>
        <time>2021-08-15T14:36:37Z</time>
      </trkpt>
      <trkpt lat="41.683807" lon="2.791457">
        <ele>70.0</ele>
        <time>2021-08-15T14:36:38Z</time>
      </trkpt>
      <trkpt lat="41.683745" lon="2.79136">
        <ele>70.0</ele>
        <time>2021-08-15T14:36:41Z</time>
      </trkpt>
      <trkpt lat="41.68369" lon="2.791257">
        <ele>70.0</ele>
        <time>2021-08-15T14:36:43Z</time>
      </trkpt>
      <trkpt lat="41.683625" lon="2.791162">
        <ele>70.0</ele>
        <time>2021-08-15T14:36:45Z</time>
      </trkpt>
      <trkpt lat="41.683562" lon="2.79107">
        <ele>71.0</ele>
        <time>2021-08-15T14:36:46Z</time>
      </trkpt>
      <trkpt lat="41.683505" lon="2.790965">
        <ele>70.0</ele>
        <time>2021-08-15T14:36:49Z</time>
      </trkpt>
      <trkpt lat="41.683445" lon="2.790865">
        <ele>71.0</ele>
        <time>2021-08-15T14:36:50Z</time>
      </trkpt>
      <trkpt lat="41.683415" lon="2.79076">
        <ele>71.0</ele>
        <time>2021-08-15T14:36:52Z</time>
      </trkpt>
      <trkpt lat="41.6834" lon="2.790638">
        <ele>72.0</ele>
        <time>2021-08-15T14:36:55Z</time>
      </trkpt>
      <trkpt lat="41.683365" lon="2.790532">
        <ele>72.0</ele>
        <time>2021-08-15T14:36:56Z</time>
      </trkpt>
      <trkpt lat="41.683295" lon="2.790452">
        <ele>71.0</ele>
        <time>2021-08-15T14:36:59Z</time>
      </trkpt>
      <trkpt lat="41.6832" lon="2.790415">
        <ele>71.0</ele>
        <time>2021-08-15T14:37:01Z</time>
      </trkpt>
      <trkpt lat="41.683105" lon="2.790375">
        <ele>71.0</ele>
        <time>2021-08-15T14:37:03Z</time>
      </trkpt>
      <trkpt lat="41.683007" lon="2.790295">
        <ele>71.0</ele>
        <time>2021-08-15T14:37:05Z</time>
      </trkpt>
      <trkpt lat="41.682942" lon="2.7902">
        <ele>71.0</ele>
        <time>2021-08-15T14:37:06Z</time>
      </trkpt>
      <trkpt lat="41.682875" lon="2.790097">
        <ele>71.0</ele>
        <time>2021-08-15T14:37:08Z</time>
      </trkpt>
      <trkpt lat="41.682805" lon="2.78999">
        <ele>72.0</ele>
        <time>2021-08-15T14:37:10Z</time>
      </trkpt>
      <trkpt lat="41.682735" lon="2.789885">
        <ele>72.0</ele>
        <time>2021-08-15T14:37:13Z</time>
      </trkpt>
      <trkpt lat="41.68267" lon="2.789775">
        <ele>72.0</ele>
        <time>2021-08-15T14:37:14Z</time>
      </trkpt>
      <trkpt lat="41.682595" lon="2.78967">
        <ele>72.0</ele>
        <time>2021-08-15T14:37:16Z</time>
      </trkpt>
      <trkpt lat="41.68252" lon="2.78958">
        <ele>73.0</ele>
        <time>2021-08-15T14:37:19Z</time>
      </trkpt>
      <trkpt lat="41.682452" lon="2.789473">
        <ele>73.0</ele>
        <time>2021-08-15T14:37:21Z</time>
      </trkpt>
      <trkpt lat="41.68238" lon="2.789372">
        <ele>73.0</ele>
        <time>2021-08-15T14:37:23Z</time>
      </trkpt>
      <trkpt lat="41.68231" lon="2.789265">
        <ele>73.0</ele>
        <time>2021-08-15T14:37:24Z</time>
      </trkpt>
      <trkpt lat="41.682245" lon="2.78915">
        <ele>73.0</ele>
        <time>2021-08-15T14:37:27Z</time>
      </trkpt>
      <trkpt lat="41.682177" lon="2.78904">
        <ele>73.0</ele>
        <time>2021-08-15T14:37:29Z</time>
      </trkpt>
      <trkpt lat="41.682115" lon="2.78894">
        <ele>73.0</ele>
        <time>2021-08-15T14:37:31Z</time>
      </trkpt>
      <trkpt lat="41.68206" lon="2.788835">
        <ele>73.0</ele>
        <time>2021-08-15T14:37:32Z</time>
      </trkpt>
      <trkpt lat="41.681995" lon="2.788735">
        <ele>74.0</ele>
        <time>2021-08-15T14:37:35Z</time>
      </trkpt>
      <trkpt lat="41.68193" lon="2.78863">
        <ele>74.0</ele>
        <time>2021-08-15T14:37:37Z</time>
      </trkpt>
      <trkpt lat="41.68187" lon="2.788517">
        <ele>74.0</ele>
        <time>2021-08-15T14:37:38Z</time>
      </trkpt>
      <trkpt lat="41.681797" lon="2.788422">
        <ele>75.0</ele>
        <time>2021-08-15T14:37:40Z</time>
      </trkpt>
      <trkpt lat="41.681735" lon="2.78831">
        <ele>75.0</ele>
        <time>2021-08-15T14:37:42Z</time>
      </trkpt>
      <trkpt lat="41.681665" lon="2.788202">
        <ele>75.0</ele>
        <time>2021-08-15T14:37:44Z</time>
      </trkpt>
      <trkpt lat="41.681595" lon="2.788095">
        <ele>75.0</ele>
        <time>2021-08-15T14:37:47Z</time>
      </trkpt>
      <trkpt lat="41.68153" lon="2.78799">
        <ele>76.0</ele>
        <time>2021-08-15T14:37:49Z</time>
      </trkpt>
      <trkpt lat="41.68146" lon="2.787895">
        <ele>77.0</ele>
        <time>2021-08-15T14:37:50Z</time>
      </trkpt>
      <trkpt lat="41.68139" lon="2.787795">
        <ele>77.0</ele>
        <time>2021-08-15T14:37:52Z</time>
      </trkpt>
      <trkpt lat="41.681322" lon="2.787693">
        <ele>78.0</ele>
        <time>2021-08-15T14:37:55Z</time>
      </trkpt>
      <trkpt lat="41.681255" lon="2.787598">
        <ele>79.0</ele>
        <time>2021-08-15T14:37:57Z</time>
      </trkpt>
      <trkpt lat="41.681205" lon="2.787515">
        <ele>80.0</ele>
        <time>2021-08-15T14:37:58Z</time>
      </trkpt>
      <trkpt lat="41.68114" lon="2.78742">
        <ele>81.0</ele>
        <time>2021-08-15T14:38:01Z</time>
      </trkpt>
      <trkpt lat="41.681085" lon="2.787318">
        <ele>81.0</ele>
        <time>2021-08-15T14:38:03Z</time>
      </trkpt>
      <trkpt lat="41.68102" lon="2.787222">
        <ele>81.0</ele>
        <time>2021-08-15T14:38:05Z</time>
      </trkpt>
      <trkpt lat="41.680967" lon="2.787125">
        <ele>82.0</ele>
        <time>2021-08-15T14:38:07Z</time>
      </trkpt>
      <trkpt lat="41.680912" lon="2.78702">
        <ele>82.0</ele>
        <time>2021-08-15T14:38:08Z</time>
      </trkpt>
      <trkpt lat="41.680855" lon="2.786917">
        <ele>83.0</ele>
        <time>2021-08-15T14:38:11Z</time>
      </trkpt>
      <trkpt lat="41.680795" lon="2.786815">
        <ele>83.0</ele>
        <time>2021-08-15T14:38:12Z</time>
      </trkpt>
      <trkpt lat="41.68074" lon="2.786715">
        <ele>84.0</ele>
        <time>2021-08-15T14:38:15Z</time>
      </trkpt>
      <trkpt lat="41.68069" lon="2.78661">
        <ele>84.0</ele>
        <time>2021-08-15T14:38:16Z</time>
      </trkpt>
      <trkpt lat="41.68064" lon="2.786505">
        <ele>84.0</ele>
        <time>2021-08-15T14:38:19Z</time>
      </trkpt>
      <trkpt lat="41.680588" lon="2.786395">
        <ele>84.0</ele>
        <time>2021-08-15T14:38:21Z</time>
      </trkpt>
      <trkpt lat="41.680535" lon="2.78627">
        <ele>84.0</ele>
        <time>2021-08-15T14:38:23Z</time>
      </trkpt>
      <trkpt lat="41.680475" lon="2.786155">
        <ele>84.0</ele>
        <time>2021-08-15T14:38:24Z</time>
      </trkpt>
      <trkpt lat="41.68042" lon="2.78604">
        <ele>85.0</ele>
        <time>2021-08-15T14:38:27Z</time>
      </trkpt>
      <trkpt lat="41.680372" lon="2.78592">
        <ele>85.0</ele>
        <time>2021-08-15T14:38:28Z</time>
      </trkpt>
      <trkpt lat="41.680325" lon="2.785807">
        <ele>85.0</ele>
        <time>2021-08-15T14:38:31Z</time>
      </trkpt>
      <trkpt lat="41.680275" lon="2.785685">
        <ele>86.0</ele>
        <time>2021-08-15T14:38:33Z</time>
      </trkpt>
      <trkpt lat="41.68023" lon="2.785552">
        <ele>86.0</ele>
        <time>2021-08-15T14:38:35Z</time>
      </trkpt>
      <trkpt lat="41.680175" lon="2.785415">
        <ele>86.0</ele>
        <time>2021-08-15T14:38:36Z</time>
      </trkpt>
      <trkpt lat="41.680127" lon="2.785275">
        <ele>86.0</ele>
        <time>2021-08-15T14:38:38Z</time>
      </trkpt>
      <trkpt lat="41.68008" lon="2.785135">
        <ele>86.0</ele>
        <time>2021-08-15T14:38:41Z</time>
      </trkpt>
      <trkpt lat="41.680035" lon="2.78499">
        <ele>87.0</ele>
        <time>2021-08-15T14:38:43Z</time>
      </trkpt>
      <trkpt lat="41.679987" lon="2.78484">
        <ele>87.0</ele>
        <time>2021-08-15T14:38:44Z</time>
      </trkpt>
      <trkpt lat="41.679945" lon="2.784695">
        <ele>87.0</ele>
        <time>2021-08-15T14:38:47Z</time>
      </trkpt>
      <trkpt lat="41.67991" lon="2.784547">
        <ele>87.0</ele>
        <time>2021-08-15T14:38:48Z</time>
      </trkpt>
      <trkpt lat="41.679875" lon="2.784415">
        <ele>87.0</ele>
        <time>2021-08-15T14:38:51Z</time>
      </trkpt>
      <trkpt lat="41.679845" lon="2.784268">
        <ele>87.0</ele>
        <time>2021-08-15T14:38:53Z</time>
      </trkpt>
      <trkpt lat="41.679825" lon="2.78411">
        <ele>86.0</ele>
        <time>2021-08-15T14:38:54Z</time>
      </trkpt>
      <trkpt lat="41.679805" lon="2.783957">
        <ele>86.0</ele>
        <time>2021-08-15T14:38:57Z</time>
      </trkpt>
      <trkpt lat="41.67979" lon="2.7838">
        <ele>86.0</ele>
        <time>2021-08-15T14:38:59Z</time>
      </trkpt>
      <trkpt lat="41.679785" lon="2.783647">
        <ele>86.0</ele>
        <time>2021-08-15T14:39:01Z</time>
      </trkpt>
      <trkpt lat="41.679785" lon="2.783505">
        <ele>87.0</ele>
        <time>2021-08-15T14:39:03Z</time>
      </trkpt>
      <trkpt lat="41.679775" lon="2.78336">
        <ele>86.0</ele>
        <time>2021-08-15T14:39:05Z</time>
      </trkpt>
      <trkpt lat="41.679755" lon="2.78321">
        <ele>85.0</ele>
        <time>2021-08-15T14:39:07Z</time>
      </trkpt>
      <trkpt lat="41.67976" lon="2.783065">
        <ele>85.0</ele>
        <time>2021-08-15T14:39:09Z</time>
      </trkpt>
      <trkpt lat="41.679792" lon="2.782915">
        <ele>85.0</ele>
        <time>2021-08-15T14:39:11Z</time>
      </trkpt>
      <trkpt lat="41.67981" lon="2.782755">
        <ele>84.0</ele>
        <time>2021-08-15T14:39:13Z</time>
      </trkpt>
      <trkpt lat="41.67977" lon="2.78261">
        <ele>84.0</ele>
        <time>2021-08-15T14:39:14Z</time>
      </trkpt>
      <trkpt lat="41.67969" lon="2.782505">
        <ele>84.0</ele>
        <time>2021-08-15T14:39:17Z</time>
      </trkpt>
      <trkpt lat="41.6796" lon="2.782445">
        <ele>83.0</ele>
        <time>2021-08-15T14:39:18Z</time>
      </trkpt>
      <trkpt lat="41.679507" lon="2.782378">
        <ele>83.0</ele>
        <time>2021-08-15T14:39:20Z</time>
      </trkpt>
      <trkpt lat="41.679445" lon="2.78227">
        <ele>83.0</ele>
        <time>2021-08-15T14:39:23Z</time>
      </trkpt>
      <trkpt lat="41.67941" lon="2.782115">
        <ele>83.0</ele>
        <time>2021-08-15T14:39:24Z</time>
      </trkpt>
      <trkpt lat="41.679382" lon="2.781952">
        <ele>83.0</ele>
        <time>2021-08-15T14:39:26Z</time>
      </trkpt>
      <trkpt lat="41.67936" lon="2.781802">
        <ele>83.0</ele>
        <time>2021-08-15T14:39:28Z</time>
      </trkpt>
      <trkpt lat="41.679337" lon="2.78165">
        <ele>83.0</ele>
        <time>2021-08-15T14:39:30Z</time>
      </trkpt>
      <trkpt lat="41.67931" lon="2.781497">
        <ele>84.0</ele>
        <time>2021-08-15T14:39:33Z</time>
      </trkpt>
      <trkpt lat="41.679285" lon="2.781348">
        <ele>83.0</ele>
        <time>2021-08-15T14:39:35Z</time>
      </trkpt>
      <trkpt lat="41.67925" lon="2.7812">
        <ele>83.0</ele>
        <time>2021-08-15T14:39:36Z</time>
      </trkpt>
      <trkpt lat="41.679215" lon="2.781047">
        <ele>82.0</ele>
        <time>2021-08-15T14:39:39Z</time>
      </trkpt>
      <trkpt lat="41.67918" lon="2.780885">
        <ele>82.0</ele>
        <time>2021-08-15T14:39:40Z</time>
      </trkpt>
      <trkpt lat="41.67915" lon="2.78073">
        <ele>81.0</ele>
        <time>2021-08-15T14:39:42Z</time>
      </trkpt>
      <trkpt lat="41.67912" lon="2.780575">
        <ele>81.0</ele>
        <time>2021-08-15T14:39:44Z</time>
      </trkpt>
      <trkpt lat="41.679085" lon="2.780415">
        <ele>81.0</ele>
        <time>2021-08-15T14:39:46Z</time>
      </trkpt>
      <trkpt lat="41.67905" lon="2.780255">
        <ele>81.0</ele>
        <time>2021-08-15T14:39:48Z</time>
      </trkpt>
      <trkpt lat="41.67902" lon="2.780105">
        <ele>81.0</ele>
        <time>2021-08-15T14:39:50Z</time>
      </trkpt>
      <trkpt lat="41.678992" lon="2.77995">
        <ele>81.0</ele>
        <time>2021-08-15T14:39:52Z</time>
      </trkpt>
      <trkpt lat="41.67896" lon="2.779795">
        <ele>81.0</ele>
        <time>2021-08-15T14:39:54Z</time>
      </trkpt>
      <trkpt lat="41.678932" lon="2.779645">
        <ele>80.0</ele>
        <time>2021-08-15T14:39:56Z</time>
      </trkpt>
      <trkpt lat="41.6789" lon="2.779475">
        <ele>80.0</ele>
        <time>2021-08-15T14:39:58Z</time>
      </trkpt>
      <trkpt lat="41.67887" lon="2.779325">
        <ele>80.0</ele>
        <time>2021-08-15T14:40:00Z</time>
      </trkpt>
      <trkpt lat="41.678847" lon="2.779167">
        <ele>80.0</ele>
        <time>2021-08-15T14:40:02Z</time>
      </trkpt>
      <trkpt lat="41.678827" lon="2.77901">
        <ele>80.0</ele>
        <time>2021-08-15T14:40:04Z</time>
      </trkpt>
      <trkpt lat="41.67881" lon="2.77885">
        <ele>80.0</ele>
        <time>2021-08-15T14:40:06Z</time>
      </trkpt>
      <trkpt lat="41.678787" lon="2.778685">
        <ele>80.0</ele>
        <time>2021-08-15T14:40:09Z</time>
      </trkpt>
      <trkpt lat="41.678762" lon="2.778522">
        <ele>80.0</ele>
        <time>2021-08-15T14:40:10Z</time>
      </trkpt>
      <trkpt lat="41.67874" lon="2.778362">
        <ele>80.0</ele>
        <time>2021-08-15T14:40:13Z</time>
      </trkpt>
      <trkpt lat="41.678715" lon="2.778205">
        <ele>80.0</ele>
        <time>2021-08-15T14:40:15Z</time>
      </trkpt>
      <trkpt lat="41.678685" lon="2.778047">
        <ele>80.0</ele>
        <time>2021-08-15T14:40:16Z</time>
      </trkpt>
      <trkpt lat="41.678655" lon="2.77788">
        <ele>79.0</ele>
        <time>2021-08-15T14:40:19Z</time>
      </trkpt>
      <trkpt lat="41.678627" lon="2.777708">
        <ele>78.0</ele>
        <time>2021-08-15T14:40:21Z</time>
      </trkpt>
      <trkpt lat="41.678595" lon="2.777547">
        <ele>78.0</ele>
        <time>2021-08-15T14:40:23Z</time>
      </trkpt>
      <trkpt lat="41.678572" lon="2.77739">
        <ele>78.0</ele>
        <time>2021-08-15T14:40:25Z</time>
      </trkpt>
      <trkpt lat="41.678535" lon="2.77724">
        <ele>77.0</ele>
        <time>2021-08-15T14:40:27Z</time>
      </trkpt>
      <trkpt lat="41.67851" lon="2.777082">
        <ele>77.0</ele>
        <time>2021-08-15T14:40:28Z</time>
      </trkpt>
      <trkpt lat="41.678468" lon="2.776923">
        <ele>76.0</ele>
        <time>2021-08-15T14:40:31Z</time>
      </trkpt>
      <trkpt lat="41.678437" lon="2.776775">
        <ele>76.0</ele>
        <time>2021-08-15T14:40:32Z</time>
      </trkpt>
      <trkpt lat="41.67841" lon="2.77661">
        <ele>75.0</ele>
        <time>2021-08-15T14:40:34Z</time>
      </trkpt>
      <trkpt lat="41.678375" lon="2.776435">
        <ele>75.0</ele>
        <time>2021-08-15T14:40:37Z</time>
      </trkpt>
      <trkpt lat="41.678345" lon="2.776262">
        <ele>75.0</ele>
        <time>2021-08-15T14:40:39Z</time>
      </trkpt>
      <trkpt lat="41.67831" lon="2.776085">
        <ele>74.0</ele>
        <time>2021-08-15T14:40:41Z</time>
      </trkpt>
      <trkpt lat="41.67829" lon="2.77599">
        <ele>74.0</ele>
        <time>2021-08-15T14:40:42Z</time>
      </trkpt>
      <trkpt lat="41.678255" lon="2.77581">
        <ele>73.0</ele>
        <time>2021-08-15T14:40:44Z</time>
      </trkpt>
      <trkpt lat="41.678238" lon="2.775715">
        <ele>73.0</ele>
        <time>2021-08-15T14:40:45Z</time>
      </trkpt>
      <trkpt lat="41.678202" lon="2.77553">
        <ele>73.0</ele>
        <time>2021-08-15T14:40:47Z</time>
      </trkpt>
      <trkpt lat="41.67818" lon="2.775435">
        <ele>73.0</ele>
        <time>2021-08-15T14:40:48Z</time>
      </trkpt>
      <trkpt lat="41.67814" lon="2.77525">
        <ele>72.0</ele>
        <time>2021-08-15T14:40:50Z</time>
      </trkpt>
      <trkpt lat="41.678125" lon="2.77515">
        <ele>72.0</ele>
        <time>2021-08-15T14:40:50Z</time>
      </trkpt>
      <trkpt lat="41.67811" lon="2.775055">
        <ele>72.0</ele>
        <time>2021-08-15T14:40:52Z</time>
      </trkpt>
      <trkpt lat="41.678092" lon="2.77496">
        <ele>72.0</ele>
        <time>2021-08-15T14:40:52Z</time>
      </trkpt>
      <trkpt lat="41.67808" lon="2.774863">
        <ele>72.0</ele>
        <time>2021-08-15T14:40:54Z</time>
      </trkpt>
      <trkpt lat="41.678065" lon="2.774767">
        <ele>72.0</ele>
        <time>2021-08-15T14:40:55Z</time>
      </trkpt>
      <trkpt lat="41.67805" lon="2.774672">
        <ele>71.0</ele>
        <time>2021-08-15T14:40:55Z</time>
      </trkpt>
      <trkpt lat="41.67804" lon="2.774572">
        <ele>71.0</ele>
        <time>2021-08-15T14:40:56Z</time>
      </trkpt>
      <trkpt lat="41.678012" lon="2.77441">
        <ele>71.0</ele>
        <time>2021-08-15T14:40:58Z</time>
      </trkpt>
      <trkpt lat="41.677995" lon="2.774267">
        <ele>70.0</ele>
        <time>2021-08-15T14:41:01Z</time>
      </trkpt>
      <trkpt lat="41.678" lon="2.774128">
        <ele>70.0</ele>
        <time>2021-08-15T14:41:03Z</time>
      </trkpt>
      <trkpt lat="41.678045" lon="2.773995">
        <ele>70.0</ele>
        <time>2021-08-15T14:41:05Z</time>
      </trkpt>
      <trkpt lat="41.678075" lon="2.77385">
        <ele>70.0</ele>
        <time>2021-08-15T14:41:06Z</time>
      </trkpt>
      <trkpt lat="41.678055" lon="2.7737">
        <ele>69.0</ele>
        <time>2021-08-15T14:41:09Z</time>
      </trkpt>
      <trkpt lat="41.677985" lon="2.773592">
        <ele>69.0</ele>
        <time>2021-08-15T14:41:11Z</time>
      </trkpt>
      <trkpt lat="41.677897" lon="2.77354">
        <ele>69.0</ele>
        <time>2021-08-15T14:41:13Z</time>
      </trkpt>
      <trkpt lat="41.677792" lon="2.773555">
        <ele>69.0</ele>
        <time>2021-08-15T14:41:14Z</time>
      </trkpt>
      <trkpt lat="41.677705" lon="2.77361">
        <ele>69.0</ele>
        <time>2021-08-15T14:41:17Z</time>
      </trkpt>
      <trkpt lat="41.67763" lon="2.77369">
        <ele>69.0</ele>
        <time>2021-08-15T14:41:19Z</time>
      </trkpt>
      <trkpt lat="41.67758" lon="2.7738">
        <ele>69.0</ele>
        <time>2021-08-15T14:41:21Z</time>
      </trkpt>
      <trkpt lat="41.67752" lon="2.77391">
        <ele>69.0</ele>
        <time>2021-08-15T14:41:23Z</time>
      </trkpt>
      <trkpt lat="41.67745" lon="2.773987">
        <ele>69.0</ele>
        <time>2021-08-15T14:41:25Z</time>
      </trkpt>
      <trkpt lat="41.677352" lon="2.774053">
        <ele>69.0</ele>
        <time>2021-08-15T14:41:27Z</time>
      </trkpt>
      <trkpt lat="41.677252" lon="2.77411">
        <ele>69.0</ele>
        <time>2021-08-15T14:41:28Z</time>
      </trkpt>
      <trkpt lat="41.67715" lon="2.774177">
        <ele>69.0</ele>
        <time>2021-08-15T14:41:30Z</time>
      </trkpt>
      <trkpt lat="41.67705" lon="2.77425">
        <ele>69.0</ele>
        <time>2021-08-15T14:41:33Z</time>
      </trkpt>
      <trkpt lat="41.676947" lon="2.774315">
        <ele>69.0</ele>
        <time>2021-08-15T14:41:34Z</time>
      </trkpt>
      <trkpt lat="41.676862" lon="2.774393">
        <ele>69.0</ele>
        <time>2021-08-15T14:41:36Z</time>
      </trkpt>
      <trkpt lat="41.67679" lon="2.77445">
        <ele>69.0</ele>
        <time>2021-08-15T14:41:39Z</time>
      </trkpt>
      <trkpt lat="41.676705" lon="2.774483">
        <ele>69.0</ele>
        <time>2021-08-15T14:41:41Z</time>
      </trkpt>
      <trkpt lat="41.67662" lon="2.77454">
        <ele>69.0</ele>
        <time>2021-08-15T14:41:44Z</time>
      </trkpt>
      <trkpt lat="41.676545" lon="2.774657">
        <ele>69.0</ele>
        <time>2021-08-15T14:41:46Z</time>
      </trkpt>
      <trkpt lat="41.676465" lon="2.774762">
        <ele>69.0</ele>
        <time>2021-08-15T14:41:48Z</time>
      </trkpt>
      <trkpt lat="41.676375" lon="2.774848">
        <ele>68.0</ele>
        <time>2021-08-15T14:41:50Z</time>
      </trkpt>
      <trkpt lat="41.676272" lon="2.774917">
        <ele>68.0</ele>
        <time>2021-08-15T14:41:52Z</time>
      </trkpt>
      <trkpt lat="41.67617" lon="2.775">
        <ele>68.0</ele>
        <time>2021-08-15T14:41:54Z</time>
      </trkpt>
      <trkpt lat="41.67608" lon="2.775075">
        <ele>68.0</ele>
        <time>2021-08-15T14:41:55Z</time>
      </trkpt>
      <trkpt lat="41.675995" lon="2.77515">
        <ele>68.0</ele>
        <time>2021-08-15T14:41:58Z</time>
      </trkpt>
      <trkpt lat="41.675905" lon="2.775175">
        <ele>68.0</ele>
        <time>2021-08-15T14:41:59Z</time>
      </trkpt>
      <trkpt lat="41.675805" lon="2.77516">
        <ele>68.0</ele>
        <time>2021-08-15T14:42:01Z</time>
      </trkpt>
      <trkpt lat="41.675717" lon="2.77509">
        <ele>67.0</ele>
        <time>2021-08-15T14:42:03Z</time>
      </trkpt>
      <trkpt lat="41.675645" lon="2.774967">
        <ele>67.0</ele>
        <time>2021-08-15T14:42:06Z</time>
      </trkpt>
      <trkpt lat="41.675595" lon="2.77482">
        <ele>67.0</ele>
        <time>2021-08-15T14:42:08Z</time>
      </trkpt>
      <trkpt lat="41.67555" lon="2.774682">
        <ele>68.0</ele>
        <time>2021-08-15T14:42:10Z</time>
      </trkpt>
      <trkpt lat="41.675508" lon="2.77455">
        <ele>67.0</ele>
        <time>2021-08-15T14:42:12Z</time>
      </trkpt>
      <trkpt lat="41.67546" lon="2.774413">
        <ele>67.0</ele>
        <time>2021-08-15T14:42:14Z</time>
      </trkpt>
      <trkpt lat="41.67541" lon="2.77428">
        <ele>67.0</ele>
        <time>2021-08-15T14:42:16Z</time>
      </trkpt>
      <trkpt lat="41.675365" lon="2.77414">
        <ele>67.0</ele>
        <time>2021-08-15T14:42:18Z</time>
      </trkpt>
      <trkpt lat="41.67531" lon="2.77401">
        <ele>68.0</ele>
        <time>2021-08-15T14:42:20Z</time>
      </trkpt>
      <trkpt lat="41.675257" lon="2.773885">
        <ele>68.0</ele>
        <time>2021-08-15T14:42:21Z</time>
      </trkpt>
      <trkpt lat="41.67519" lon="2.773762">
        <ele>68.0</ele>
        <time>2021-08-15T14:42:24Z</time>
      </trkpt>
      <trkpt lat="41.67512" lon="2.77364">
        <ele>68.0</ele>
        <time>2021-08-15T14:42:26Z</time>
      </trkpt>
      <trkpt lat="41.675045" lon="2.773522">
        <ele>68.0</ele>
        <time>2021-08-15T14:42:28Z</time>
      </trkpt>
      <trkpt lat="41.674965" lon="2.773402">
        <ele>68.0</ele>
        <time>2021-08-15T14:42:29Z</time>
      </trkpt>
      <trkpt lat="41.67489" lon="2.773278">
        <ele>68.0</ele>
        <time>2021-08-15T14:42:32Z</time>
      </trkpt>
      <trkpt lat="41.674815" lon="2.773152">
        <ele>67.0</ele>
        <time>2021-08-15T14:42:34Z</time>
      </trkpt>
      <trkpt lat="41.674735" lon="2.77303">
        <ele>67.0</ele>
        <time>2021-08-15T14:42:35Z</time>
      </trkpt>
      <trkpt lat="41.674695" lon="2.772947">
        <ele>67.0</ele>
        <time>2021-08-15T14:42:36Z</time>
      </trkpt>
      <trkpt lat="41.674625" lon="2.772798">
        <ele>67.0</ele>
        <time>2021-08-15T14:42:39Z</time>
      </trkpt>
      <trkpt lat="41.674567" lon="2.772667">
        <ele>67.0</ele>
        <time>2021-08-15T14:42:41Z</time>
      </trkpt>
      <trkpt lat="41.6745" lon="2.772535">
        <ele>67.0</ele>
        <time>2021-08-15T14:42:43Z</time>
      </trkpt>
      <trkpt lat="41.674427" lon="2.7724">
        <ele>66.0</ele>
        <time>2021-08-15T14:42:45Z</time>
      </trkpt>
      <trkpt lat="41.674367" lon="2.772253">
        <ele>66.0</ele>
        <time>2021-08-15T14:42:47Z</time>
      </trkpt>
      <trkpt lat="41.674315" lon="2.77211">
        <ele>66.0</ele>
        <time>2021-08-15T14:42:48Z</time>
      </trkpt>
      <trkpt lat="41.67426" lon="2.771955">
        <ele>65.0</ele>
        <time>2021-08-15T14:42:51Z</time>
      </trkpt>
      <trkpt lat="41.674215" lon="2.771805">
        <ele>65.0</ele>
        <time>2021-08-15T14:42:53Z</time>
      </trkpt>
      <trkpt lat="41.674165" lon="2.771655">
        <ele>65.0</ele>
        <time>2021-08-15T14:42:55Z</time>
      </trkpt>
      <trkpt lat="41.67411" lon="2.771515">
        <ele>65.0</ele>
        <time>2021-08-15T14:42:56Z</time>
      </trkpt>
      <trkpt lat="41.674067" lon="2.771362">
        <ele>65.0</ele>
        <time>2021-08-15T14:42:59Z</time>
      </trkpt>
      <trkpt lat="41.67403" lon="2.771203">
        <ele>65.0</ele>
        <time>2021-08-15T14:43:00Z</time>
      </trkpt>
      <trkpt lat="41.673977" lon="2.771045">
        <ele>64.0</ele>
        <time>2021-08-15T14:43:03Z</time>
      </trkpt>
      <trkpt lat="41.67391" lon="2.770897">
        <ele>63.0</ele>
        <time>2021-08-15T14:43:04Z</time>
      </trkpt>
      <trkpt lat="41.673838" lon="2.770775">
        <ele>63.0</ele>
        <time>2021-08-15T14:43:07Z</time>
      </trkpt>
      <trkpt lat="41.673782" lon="2.77065">
        <ele>63.0</ele>
        <time>2021-08-15T14:43:09Z</time>
      </trkpt>
      <trkpt lat="41.67373" lon="2.77053">
        <ele>63.0</ele>
        <time>2021-08-15T14:43:11Z</time>
      </trkpt>
      <trkpt lat="41.673665" lon="2.770415">
        <ele>63.0</ele>
        <time>2021-08-15T14:43:13Z</time>
      </trkpt>
      <trkpt lat="41.67361" lon="2.770295">
        <ele>64.0</ele>
        <time>2021-08-15T14:43:15Z</time>
      </trkpt>
      <trkpt lat="41.67355" lon="2.770177">
        <ele>64.0</ele>
        <time>2021-08-15T14:43:17Z</time>
      </trkpt>
      <trkpt lat="41.673485" lon="2.77007">
        <ele>65.0</ele>
        <time>2021-08-15T14:43:18Z</time>
      </trkpt>
      <trkpt lat="41.67342" lon="2.76997">
        <ele>65.0</ele>
        <time>2021-08-15T14:43:21Z</time>
      </trkpt>
      <trkpt lat="41.67337" lon="2.769865">
        <ele>64.0</ele>
        <time>2021-08-15T14:43:22Z</time>
      </trkpt>
      <trkpt lat="41.673342" lon="2.769733">
        <ele>65.0</ele>
        <time>2021-08-15T14:43:24Z</time>
      </trkpt>
      <trkpt lat="41.673382" lon="2.769622">
        <ele>65.0</ele>
        <time>2021-08-15T14:43:26Z</time>
      </trkpt>
      <trkpt lat="41.67345" lon="2.769535">
        <ele>64.0</ele>
        <time>2021-08-15T14:43:29Z</time>
      </trkpt>
      <trkpt lat="41.673477" lon="2.76943">
        <ele>65.0</ele>
        <time>2021-08-15T14:43:30Z</time>
      </trkpt>
      <trkpt lat="41.673468" lon="2.769315">
        <ele>64.0</ele>
        <time>2021-08-15T14:43:34Z</time>
      </trkpt>
      <trkpt lat="41.673457" lon="2.769307">
        <ele>64.0</ele>
        <time>2021-08-15T14:43:41Z</time>
      </trkpt>
      <trkpt lat="41.673457" lon="2.769307">
        <ele>64.0</ele>
        <time>2021-08-15T14:43:42Z</time>
      </trkpt>
      <trkpt lat="41.67348" lon="2.769303">
        <ele>65.0</ele>
        <time>2021-08-15T14:43:57Z</time>
      </trkpt>
      <trkpt lat="41.673495" lon="2.769345">
        <ele>65.0</ele>
        <time>2021-08-15T14:44:05Z</time>
      </trkpt>
      <trkpt lat="41.673495" lon="2.769345">
        <ele>65.0</ele>
        <time>2021-08-15T14:44:10Z</time>
      </trkpt>
      <trkpt lat="41.67349" lon="2.769312">
        <ele>66.0</ele>
        <time>2021-08-15T14:44:18Z</time>
      </trkpt>
      <trkpt lat="41.673465" lon="2.769298">
        <ele>66.0</ele>
        <time>2021-08-15T14:44:25Z</time>
      </trkpt>
      <trkpt lat="41.673445" lon="2.769325">
        <ele>66.0</ele>
        <time>2021-08-15T14:44:32Z</time>
      </trkpt>
      <trkpt lat="41.673465" lon="2.769317">
        <ele>67.0</ele>
        <time>2021-08-15T14:44:39Z</time>
      </trkpt>
      <trkpt lat="41.673472" lon="2.769287">
        <ele>67.0</ele>
        <time>2021-08-15T14:44:47Z</time>
      </trkpt>
      <trkpt lat="41.673472" lon="2.769287">
        <ele>67.0</ele>
        <time>2021-08-15T14:44:54Z</time>
      </trkpt>
      <trkpt lat="41.67347" lon="2.76922">
        <ele>67.0</ele>
        <time>2021-08-15T14:45:04Z</time>
      </trkpt>
      <trkpt lat="41.673495" lon="2.76917">
        <ele>66.0</ele>
        <time>2021-08-15T14:45:11Z</time>
      </trkpt>
      <trkpt lat="41.67348" lon="2.769125">
        <ele>63.0</ele>
        <time>2021-08-15T14:45:18Z</time>
      </trkpt>
      <trkpt lat="41.673442" lon="2.769135">
        <ele>61.0</ele>
        <time>2021-08-15T14:45:25Z</time>
      </trkpt>
      <trkpt lat="41.673395" lon="2.76917">
        <ele>57.0</ele>
        <time>2021-08-15T14:45:33Z</time>
      </trkpt>
      <trkpt lat="41.673375" lon="2.769233">
        <ele>58.0</ele>
        <time>2021-08-15T14:45:40Z</time>
      </trkpt>
      <trkpt lat="41.673327" lon="2.769265">
        <ele>60.0</ele>
        <time>2021-08-15T14:45:46Z</time>
      </trkpt>
      <trkpt lat="41.673317" lon="2.76927">
        <ele>60.0</ele>
        <time>2021-08-15T14:45:54Z</time>
      </trkpt>
      <trkpt lat="41.673317" lon="2.76927">
        <ele>60.0</ele>
        <time>2021-08-15T14:45:55Z</time>
      </trkpt>
      <trkpt lat="41.67329" lon="2.769297">
        <ele>59.0</ele>
        <time>2021-08-15T14:46:08Z</time>
      </trkpt>
      <trkpt lat="41.67329" lon="2.769297">
        <ele>59.0</ele>
        <time>2021-08-15T14:46:10Z</time>
      </trkpt>
      <trkpt lat="41.673285" lon="2.769295">
        <ele>59.0</ele>
        <time>2021-08-15T14:46:20Z</time>
      </trkpt>
      <trkpt lat="41.673285" lon="2.769295">
        <ele>59.0</ele>
        <time>2021-08-15T14:46:21Z</time>
      </trkpt>
      <trkpt lat="41.673285" lon="2.769302">
        <ele>58.0</ele>
        <time>2021-08-15T14:46:50Z</time>
      </trkpt>
      <trkpt lat="41.673285" lon="2.769302">
        <ele>58.0</ele>
        <time>2021-08-15T14:46:51Z</time>
      </trkpt>
      <trkpt lat="41.67323" lon="2.769347">
        <ele>59.0</ele>
        <time>2021-08-15T14:47:16Z</time>
      </trkpt>
      <trkpt lat="41.67314" lon="2.769375">
        <ele>61.0</ele>
        <time>2021-08-15T14:47:23Z</time>
      </trkpt>
      <trkpt lat="41.673055" lon="2.76936">
        <ele>61.0</ele>
        <time>2021-08-15T14:47:28Z</time>
      </trkpt>
      <trkpt lat="41.672975" lon="2.769372">
        <ele>61.0</ele>
        <time>2021-08-15T14:47:32Z</time>
      </trkpt>
      <trkpt lat="41.672897" lon="2.769387">
        <ele>61.0</ele>
        <time>2021-08-15T14:47:37Z</time>
      </trkpt>
      <trkpt lat="41.67282" lon="2.769392">
        <ele>61.0</ele>
        <time>2021-08-15T14:47:42Z</time>
      </trkpt>
      <trkpt lat="41.672735" lon="2.76941">
        <ele>62.0</ele>
        <time>2021-08-15T14:47:49Z</time>
      </trkpt>
      <trkpt lat="41.67266" lon="2.769412">
        <ele>63.0</ele>
        <time>2021-08-15T14:47:53Z</time>
      </trkpt>
      <trkpt lat="41.672585" lon="2.7694">
        <ele>65.0</ele>
        <time>2021-08-15T14:47:59Z</time>
      </trkpt>
      <trkpt lat="41.672547" lon="2.7694">
        <ele>65.0</ele>
        <time>2021-08-15T14:48:05Z</time>
      </trkpt>
      <trkpt lat="41.672547" lon="2.7694">
        <ele>65.0</ele>
        <time>2021-08-15T14:48:11Z</time>
      </trkpt>
      <trkpt lat="41.672525" lon="2.769442">
        <ele>66.0</ele>
        <time>2021-08-15T14:48:24Z</time>
      </trkpt>
      <trkpt lat="41.67251" lon="2.769477">
        <ele>69.0</ele>
        <time>2021-08-15T14:48:31Z</time>
      </trkpt>
      <trkpt lat="41.672487" lon="2.769517">
        <ele>69.0</ele>
        <time>2021-08-15T14:48:39Z</time>
      </trkpt>
      <trkpt lat="41.67248" lon="2.769525">
        <ele>70.0</ele>
        <time>2021-08-15T14:48:45Z</time>
      </trkpt>
      <trkpt lat="41.672482" lon="2.76952">
        <ele>69.0</ele>
        <time>2021-08-15T14:48:53Z</time>
      </trkpt>
      <trkpt lat="41.672557" lon="2.769527">
        <ele>69.0</ele>
        <time>2021-08-15T14:48:59Z</time>
      </trkpt>
      <trkpt lat="41.672555" lon="2.769545">
        <ele>67.0</ele>
        <time>2021-08-15T14:49:06Z</time>
      </trkpt>
      <trkpt lat="41.672558" lon="2.769545">
        <ele>67.0</ele>
        <time>2021-08-15T14:49:13Z</time>
      </trkpt>
      <trkpt lat="41.672558" lon="2.769545">
        <ele>67.0</ele>
        <time>2021-08-15T14:49:14Z</time>
      </trkpt>
      <trkpt lat="41.672547" lon="2.769545">
        <ele>67.0</ele>
        <time>2021-08-15T14:49:48Z</time>
      </trkpt>
      <trkpt lat="41.672545" lon="2.769567">
        <ele>68.0</ele>
        <time>2021-08-15T14:49:55Z</time>
      </trkpt>
      <trkpt lat="41.672535" lon="2.76956">
        <ele>69.0</ele>
        <time>2021-08-15T14:50:02Z</time>
      </trkpt>
      <trkpt lat="41.672542" lon="2.76955">
        <ele>69.0</ele>
        <time>2021-08-15T14:50:08Z</time>
      </trkpt>
      <trkpt lat="41.672553" lon="2.769525">
        <ele>69.0</ele>
        <time>2021-08-15T14:50:17Z</time>
      </trkpt>
      <trkpt lat="41.672553" lon="2.769525">
        <ele>69.0</ele>
        <time>2021-08-15T14:50:18Z</time>
      </trkpt>
      <trkpt lat="41.672585" lon="2.769495">
        <ele>67.0</ele>
        <time>2021-08-15T14:50:28Z</time>
      </trkpt>
      <trkpt lat="41.67258" lon="2.76951">
        <ele>66.0</ele>
        <time>2021-08-15T14:50:35Z</time>
      </trkpt>
      <trkpt lat="41.672585" lon="2.769525">
        <ele>65.0</ele>
        <time>2021-08-15T14:50:42Z</time>
      </trkpt>
      <trkpt lat="41.672585" lon="2.76954">
        <ele>63.0</ele>
        <time>2021-08-15T14:50:48Z</time>
      </trkpt>
      <trkpt lat="41.67258" lon="2.76955">
        <ele>61.0</ele>
        <time>2021-08-15T14:50:56Z</time>
      </trkpt>
    </trkseg>
  </trk>
</gpx>
